<?xml version='1.0' encoding='UTF-8'?><gpx version="1.1" creator="JPX - https://github.com/jenetics/jpx" xmlns="http://www.topografix.com/GPX/1/1"><trk><trkseg><trkpt lat="39.51095811580607" lon="16.213060102159"><ele>86.0</ele><time>2026-04-25T07:41:58.751Z</time></trkpt><trkpt lat="39.51097176950354" lon="16.2131538959418"><ele>86.0</ele><time>2026-04-25T07:42:03.751Z</time></trkpt><trkpt lat="39.51099318853889" lon="16.213252645196057"><ele>86.0</ele><time>2026-04-25T07:42:15.751Z</time></trkpt><trkpt lat="39.51105202353981" lon="16.213306186172826"><ele>86.0</ele><time>2026-04-25T07:42:16.751Z</time></trkpt><trkpt lat="39.5111151534072" lon="16.213334727503415"><ele>86.0</ele><time>2026-04-25T07:42:17.751Z</time></trkpt><trkpt lat="39.511182482452746" lon="16.213386007769298"><ele>86.0</ele><time>2026-04-25T07:42:18.751Z</time></trkpt><trkpt lat="39.511266000359456" lon="16.213415207263463"><ele>85.6</ele><time>2026-04-25T07:42:19.751Z</time></trkpt><trkpt lat="39.51133749457743" lon="16.21344080197029"><ele>85.19999999999999</ele><time>2026-04-25T07:42:20.751Z</time></trkpt><trkpt lat="39.511402349918995" lon="16.213463866327725"><ele>84.80000000000001</ele><time>2026-04-25T07:42:21.751Z</time></trkpt><trkpt lat="39.51146632567986" lon="16.21348661786858"><ele>84.4</ele><time>2026-04-25T07:42:22.751Z</time></trkpt><trkpt lat="39.51158361792998" lon="16.213513243114964"><ele>84.0</ele><time>2026-04-25T07:42:24.751Z</time></trkpt><trkpt lat="39.5117132488709" lon="16.21356808552139"><ele>84.0</ele><time>2026-04-25T07:42:26.751Z</time></trkpt><trkpt lat="39.511803250323055" lon="16.213599356982677"><ele>84.0</ele><time>2026-04-25T07:42:27.751Z</time></trkpt><trkpt lat="39.51190118080911" lon="16.213633015240024"><ele>84.0</ele><time>2026-04-25T07:42:28.751Z</time></trkpt><trkpt lat="39.512008376780024" lon="16.213668139993178"><ele>84.0</ele><time>2026-04-25T07:42:29.751Z</time></trkpt><trkpt lat="39.512121072682376" lon="16.213709463586216"><ele>84.0</ele><time>2026-04-25T07:42:30.751Z</time></trkpt><trkpt lat="39.512237995310294" lon="16.213753003708092"><ele>83.75</ele><time>2026-04-25T07:42:31.751Z</time></trkpt><trkpt lat="39.51236195475502" lon="16.21379494061811"><ele>83.5</ele><time>2026-04-25T07:42:32.751Z</time></trkpt><trkpt lat="39.51249016888687" lon="16.213834463919245"><ele>83.25</ele><time>2026-04-25T07:42:33.751Z</time></trkpt><trkpt lat="39.512609167779246" lon="16.213876707504443"><ele>83.0</ele><time>2026-04-25T07:42:34.751Z</time></trkpt><trkpt lat="39.512721261140946" lon="16.213922022614085"><ele>83.0</ele><time>2026-04-25T07:42:35.751Z</time></trkpt><trkpt lat="39.51282836571867" lon="16.21396105634934"><ele>83.0</ele><time>2026-04-25T07:42:36.751Z</time></trkpt><trkpt lat="39.51293256977433" lon="16.21400247974746"><ele>83.0</ele><time>2026-04-25T07:42:37.751Z</time></trkpt><trkpt lat="39.51303702919124" lon="16.214039767235057"><ele>83.0</ele><time>2026-04-25T07:42:38.751Z</time></trkpt><trkpt lat="39.51314230307965" lon="16.214074595900893"><ele>83.0</ele><time>2026-04-25T07:42:39.751Z</time></trkpt><trkpt lat="39.513235199977835" lon="16.21411164955474"><ele>82.60000000000001</ele><time>2026-04-25T07:42:40.751Z</time></trkpt><trkpt lat="39.51331927258843" lon="16.21416486173943"><ele>82.2</ele><time>2026-04-25T07:42:41.751Z</time></trkpt><trkpt lat="39.51339492139435" lon="16.2142473935455"><ele>81.8</ele><time>2026-04-25T07:42:42.751Z</time></trkpt><trkpt lat="39.513460778970746" lon="16.214350128140012"><ele>81.4</ele><time>2026-04-25T07:42:43.751Z</time></trkpt><trkpt lat="39.51352000061327" lon="16.214473628665274"><ele>81.0</ele><time>2026-04-25T07:42:44.751Z</time></trkpt><trkpt lat="39.513570761706106" lon="16.214607946297313"><ele>81.0</ele><time>2026-04-25T07:42:45.751Z</time></trkpt><trkpt lat="39.5136075816723" lon="16.21478000959489"><ele>81.0</ele><time>2026-04-25T07:42:46.751Z</time></trkpt><trkpt lat="39.513606158394786" lon="16.214974391093154"><ele>81.0</ele><time>2026-04-25T07:42:47.751Z</time></trkpt><trkpt lat="39.51359858190366" lon="16.215178279109868"><ele>81.0</ele><time>2026-04-25T07:42:48.751Z</time></trkpt><trkpt lat="39.51359520481154" lon="16.21538717846271"><ele>81.25</ele><time>2026-04-25T07:42:49.751Z</time></trkpt><trkpt lat="39.51360267684128" lon="16.21559406934925"><ele>81.5</ele><time>2026-04-25T07:42:50.751Z</time></trkpt><trkpt lat="39.513608016050505" lon="16.215779019391274"><ele>81.75</ele><time>2026-04-25T07:42:51.751Z</time></trkpt><trkpt lat="39.51360491932281" lon="16.215949575521005"><ele>82.0</ele><time>2026-04-25T07:42:52.751Z</time></trkpt><trkpt lat="39.51361692005491" lon="16.216124075227828"><ele>82.0</ele><time>2026-04-25T07:42:53.751Z</time></trkpt><trkpt lat="39.513564126459535" lon="16.216322587533416"><ele>82.0</ele><time>2026-04-25T07:42:54.751Z</time></trkpt><trkpt lat="39.513541889583614" lon="16.21653825409943"><ele>82.0</ele><time>2026-04-25T07:42:55.751Z</time></trkpt><trkpt lat="39.513516237047334" lon="16.21678278672292"><ele>81.33333333333333</ele><time>2026-04-25T07:42:56.751Z</time></trkpt><trkpt lat="39.51347615091707" lon="16.21705030494249"><ele>80.66666666666667</ele><time>2026-04-25T07:42:57.751Z</time></trkpt><trkpt lat="39.513422555090024" lon="16.217324293940653"><ele>80.0</ele><time>2026-04-25T07:42:58.751Z</time></trkpt><trkpt lat="39.513373318528956" lon="16.21760233386779"><ele>80.0</ele><time>2026-04-25T07:42:59.751Z</time></trkpt><trkpt lat="39.513333124469774" lon="16.217854085863394"><ele>80.0</ele><time>2026-04-25T07:43:00.751Z</time></trkpt><trkpt lat="39.51329671541166" lon="16.2180883633114"><ele>80.0</ele><time>2026-04-25T07:43:01.751Z</time></trkpt><trkpt lat="39.51325867441702" lon="16.218311286179805"><ele>80.0</ele><time>2026-04-25T07:43:02.751Z</time></trkpt><trkpt lat="39.51322043399155" lon="16.218531915107373"><ele>80.0</ele><time>2026-04-25T07:43:03.751Z</time></trkpt><trkpt lat="39.51318185188515" lon="16.21875437305754"><ele>80.0</ele><time>2026-04-25T07:43:04.751Z</time></trkpt><trkpt lat="39.51314411881754" lon="16.218974963126175"><ele>80.0</ele><time>2026-04-25T07:43:05.751Z</time></trkpt><trkpt lat="39.513108423427866" lon="16.219201861913668"><ele>80.0</ele><time>2026-04-25T07:43:06.751Z</time></trkpt><trkpt lat="39.513072234329016" lon="16.219436432833195"><ele>80.0</ele><time>2026-04-25T07:43:07.751Z</time></trkpt><trkpt lat="39.513036444067446" lon="16.219659462634112"><ele>80.0</ele><time>2026-04-25T07:43:08.751Z</time></trkpt><trkpt lat="39.51299788436544" lon="16.219893618636572"><ele>80.0</ele><time>2026-04-25T07:43:09.75Z</time></trkpt><trkpt lat="39.512959698113065" lon="16.220125460517707"><ele>80.0</ele><time>2026-04-25T07:43:10.75Z</time></trkpt><trkpt lat="39.51292219964887" lon="16.220355516789233"><ele>80.0</ele><time>2026-04-25T07:43:11.75Z</time></trkpt><trkpt lat="39.51288730440944" lon="16.220587931998228"><ele>80.0</ele><time>2026-04-25T07:43:12.75Z</time></trkpt><trkpt lat="39.51285055212739" lon="16.220834826952647"><ele>80.0</ele><time>2026-04-25T07:43:13.75Z</time></trkpt><trkpt lat="39.51281132484364" lon="16.221079438525482"><ele>80.0</ele><time>2026-04-25T07:43:14.75Z</time></trkpt><trkpt lat="39.51276909647144" lon="16.221327051166963"><ele>80.0</ele><time>2026-04-25T07:43:15.75Z</time></trkpt><trkpt lat="39.5127270603779" lon="16.221579509990676"><ele>80.0</ele><time>2026-04-25T07:43:16.75Z</time></trkpt><trkpt lat="39.51268654614852" lon="16.22182028252003"><ele>80.0</ele><time>2026-04-25T07:43:17.75Z</time></trkpt><trkpt lat="39.51264815924908" lon="16.222049682226984"><ele>80.0</ele><time>2026-04-25T07:43:18.75Z</time></trkpt><trkpt lat="39.51261211496701" lon="16.222272262098844"><ele>80.0</ele><time>2026-04-25T07:43:19.75Z</time></trkpt><trkpt lat="39.5125774950752" lon="16.222489903882547"><ele>80.66666666666667</ele><time>2026-04-25T07:43:20.75Z</time></trkpt><trkpt lat="39.512544330860386" lon="16.222707762307262"><ele>81.33333333333333</ele><time>2026-04-25T07:43:21.75Z</time></trkpt><trkpt lat="39.512511834715106" lon="16.222919814101395"><ele>82.0</ele><time>2026-04-25T07:43:22.75Z</time></trkpt><trkpt lat="39.512476401538756" lon="16.223138445607923"><ele>81.66666666666666</ele><time>2026-04-25T07:43:23.75Z</time></trkpt><trkpt lat="39.512440169518065" lon="16.223364375569204"><ele>81.33333333333333</ele><time>2026-04-25T07:43:24.75Z</time></trkpt><trkpt lat="39.51240261189071" lon="16.223590325034284"><ele>81.0</ele><time>2026-04-25T07:43:25.75Z</time></trkpt><trkpt lat="39.51236187795198" lon="16.22381781860528"><ele>80.33333333333333</ele><time>2026-04-25T07:43:26.75Z</time></trkpt><trkpt lat="39.51232000963618" lon="16.224059334514916"><ele>79.66666666666666</ele><time>2026-04-25T07:43:27.75Z</time></trkpt><trkpt lat="39.512279573659775" lon="16.22431091360759"><ele>79.0</ele><time>2026-04-25T07:43:28.75Z</time></trkpt><trkpt lat="39.51223884562782" lon="16.224567811902638"><ele>78.33333333333333</ele><time>2026-04-25T07:43:29.75Z</time></trkpt><trkpt lat="39.51219600144572" lon="16.22481895063423"><ele>77.66666666666667</ele><time>2026-04-25T07:43:30.75Z</time></trkpt><trkpt lat="39.512152443281295" lon="16.22507965418887"><ele>77.0</ele><time>2026-04-25T07:43:31.75Z</time></trkpt><trkpt lat="39.51211396357686" lon="16.22534463121887"><ele>77.0</ele><time>2026-04-25T07:43:32.75Z</time></trkpt><trkpt lat="39.51207310981597" lon="16.225611760286423"><ele>77.0</ele><time>2026-04-25T07:43:33.75Z</time></trkpt><trkpt lat="39.5120293591118" lon="16.225880098502554"><ele>77.0</ele><time>2026-04-25T07:43:34.75Z</time></trkpt><trkpt lat="39.51198599220162" lon="16.22614748252313"><ele>77.0</ele><time>2026-04-25T07:43:35.75Z</time></trkpt><trkpt lat="39.51194153431243" lon="16.22641376056621"><ele>77.0</ele><time>2026-04-25T07:43:36.75Z</time></trkpt><trkpt lat="39.51189636317543" lon="16.2266831562424"><ele>77.0</ele><time>2026-04-25T07:43:37.75Z</time></trkpt><trkpt lat="39.5118514196507" lon="16.22694921241449"><ele>77.33333333333334</ele><time>2026-04-25T07:43:38.75Z</time></trkpt><trkpt lat="39.51180821648876" lon="16.22721929573564"><ele>77.66666666666667</ele><time>2026-04-25T07:43:39.75Z</time></trkpt><trkpt lat="39.51176508165973" lon="16.22748774325299"><ele>78.0</ele><time>2026-04-25T07:43:40.75Z</time></trkpt><trkpt lat="39.51172179463993" lon="16.227757367427326"><ele>78.0</ele><time>2026-04-25T07:43:41.75Z</time></trkpt><trkpt lat="39.5116772946995" lon="16.228021502801717"><ele>78.0</ele><time>2026-04-25T07:43:42.75Z</time></trkpt><trkpt lat="39.51163512905947" lon="16.228275733581924"><ele>78.0</ele><time>2026-04-25T07:43:43.75Z</time></trkpt><trkpt lat="39.51159231876774" lon="16.22852803988736"><ele>78.0</ele><time>2026-04-25T07:43:44.75Z</time></trkpt><trkpt lat="39.51155237763595" lon="16.228772906268333"><ele>78.0</ele><time>2026-04-25T07:43:45.75Z</time></trkpt><trkpt lat="39.511513682679904" lon="16.229022202932587"><ele>78.0</ele><time>2026-04-25T07:43:46.75Z</time></trkpt><trkpt lat="39.51147493080812" lon="16.229273976654344"><ele>77.66666666666667</ele><time>2026-04-25T07:43:47.75Z</time></trkpt><trkpt lat="39.51143493907861" lon="16.22951619393732"><ele>77.33333333333334</ele><time>2026-04-25T07:43:48.75Z</time></trkpt><trkpt lat="39.511395311198875" lon="16.22975911940359"><ele>77.0</ele><time>2026-04-25T07:43:49.75Z</time></trkpt><trkpt lat="39.51135723966706" lon="16.229998758356498"><ele>77.66666666666667</ele><time>2026-04-25T07:43:50.75Z</time></trkpt><trkpt lat="39.511315996543196" lon="16.230251574513836"><ele>78.33333333333333</ele><time>2026-04-25T07:43:51.75Z</time></trkpt><trkpt lat="39.51127187504312" lon="16.23050537196624"><ele>79.0</ele><time>2026-04-25T07:43:52.75Z</time></trkpt><trkpt lat="39.51122687366789" lon="16.230770888311966"><ele>79.66666666666666</ele><time>2026-04-25T07:43:53.75Z</time></trkpt><trkpt lat="39.51118221330657" lon="16.231035871621692"><ele>80.33333333333333</ele><time>2026-04-25T07:43:54.75Z</time></trkpt><trkpt lat="39.51113835571551" lon="16.231299817398522"><ele>81.0</ele><time>2026-04-25T07:43:55.75Z</time></trkpt><trkpt lat="39.51109353483329" lon="16.23156685550789"><ele>82.33333333333333</ele><time>2026-04-25T07:43:56.75Z</time></trkpt><trkpt lat="39.511049343820815" lon="16.23183250890742"><ele>83.66666666666666</ele><time>2026-04-25T07:43:57.75Z</time></trkpt><trkpt lat="39.511002643404204" lon="16.232102516441213"><ele>85.0</ele><time>2026-04-25T07:43:58.75Z</time></trkpt><trkpt lat="39.510958462582984" lon="16.23236450340376"><ele>85.66666666666666</ele><time>2026-04-25T07:43:59.75Z</time></trkpt><trkpt lat="39.510916686205846" lon="16.23262274841921"><ele>86.33333333333333</ele><time>2026-04-25T07:44:00.75Z</time></trkpt><trkpt lat="39.51087757768738" lon="16.232881009395793"><ele>87.0</ele><time>2026-04-25T07:44:01.75Z</time></trkpt><trkpt lat="39.51084087126176" lon="16.233136539832216"><ele>87.33333333333333</ele><time>2026-04-25T07:44:02.75Z</time></trkpt><trkpt lat="39.510800396841944" lon="16.233392464480303"><ele>87.66666666666666</ele><time>2026-04-25T07:44:03.75Z</time></trkpt><trkpt lat="39.51075573416287" lon="16.233646277322187"><ele>88.0</ele><time>2026-04-25T07:44:04.75Z</time></trkpt><trkpt lat="39.51071286155032" lon="16.233901417518858"><ele>88.33333333333333</ele><time>2026-04-25T07:44:05.75Z</time></trkpt><trkpt lat="39.5106691177108" lon="16.23415811905656"><ele>88.66666666666667</ele><time>2026-04-25T07:44:06.75Z</time></trkpt><trkpt lat="39.510628154295574" lon="16.23441003403875"><ele>89.0</ele><time>2026-04-25T07:44:07.75Z</time></trkpt><trkpt lat="39.510586889983394" lon="16.234662545739987"><ele>90.0</ele><time>2026-04-25T07:44:08.75Z</time></trkpt><trkpt lat="39.51054650817174" lon="16.234912705300843"><ele>91.0</ele><time>2026-04-25T07:44:09.75Z</time></trkpt><trkpt lat="39.51050430763875" lon="16.235159465489673"><ele>92.0</ele><time>2026-04-25T07:44:10.75Z</time></trkpt><trkpt lat="39.510464405766136" lon="16.235400763929643"><ele>93.0</ele><time>2026-04-25T07:44:11.75Z</time></trkpt><trkpt lat="39.51042586495796" lon="16.235646794343698"><ele>94.0</ele><time>2026-04-25T07:44:12.75Z</time></trkpt><trkpt lat="39.510387005341855" lon="16.235889451903784"><ele>95.0</ele><time>2026-04-25T07:44:13.75Z</time></trkpt><trkpt lat="39.510342000335854" lon="16.236138822426394"><ele>95.0</ele><time>2026-04-25T07:44:14.75Z</time></trkpt><trkpt lat="39.51029716380822" lon="16.23637977801577"><ele>95.0</ele><time>2026-04-25T07:44:15.75Z</time></trkpt><trkpt lat="39.51025589601897" lon="16.23662741538671"><ele>95.0</ele><time>2026-04-25T07:44:16.75Z</time></trkpt><trkpt lat="39.51021512150017" lon="16.236878371295713"><ele>95.33333333333334</ele><time>2026-04-25T07:44:17.75Z</time></trkpt><trkpt lat="39.5101752854059" lon="16.237129295644653"><ele>95.66666666666667</ele><time>2026-04-25T07:44:18.75Z</time></trkpt><trkpt lat="39.510140384969304" lon="16.237384664968257"><ele>96.0</ele><time>2026-04-25T07:44:19.75Z</time></trkpt><trkpt lat="39.510110645640225" lon="16.237638471562963"><ele>96.66666666666666</ele><time>2026-04-25T07:44:20.75Z</time></trkpt><trkpt lat="39.510083992381574" lon="16.237897783621687"><ele>97.33333333333333</ele><time>2026-04-25T07:44:21.75Z</time></trkpt><trkpt lat="39.51006259343195" lon="16.238157637083184"><ele>98.0</ele><time>2026-04-25T07:44:22.75Z</time></trkpt><trkpt lat="39.51002928541174" lon="16.238416110319882"><ele>99.33333333333333</ele><time>2026-04-25T07:44:23.75Z</time></trkpt><trkpt lat="39.51003932222775" lon="16.238689205949626"><ele>100.66666666666666</ele><time>2026-04-25T07:44:24.75Z</time></trkpt><trkpt lat="39.51002986589715" lon="16.238972004639454"><ele>102.0</ele><time>2026-04-25T07:44:25.75Z</time></trkpt><trkpt lat="39.51001805214621" lon="16.239280872720105"><ele>105.5</ele><time>2026-04-25T07:44:26.75Z</time></trkpt><trkpt lat="39.51001360688283" lon="16.239607478478067"><ele>109.0</ele><time>2026-04-25T07:44:27.75Z</time></trkpt><trkpt lat="39.51000634345428" lon="16.239901024950825"><ele>109.66666666666667</ele><time>2026-04-25T07:44:28.75Z</time></trkpt><trkpt lat="39.5100008050289" lon="16.240165230972465"><ele>110.33333333333334</ele><time>2026-04-25T07:44:29.75Z</time></trkpt><trkpt lat="39.50999623822435" lon="16.240412557568405"><ele>111.0</ele><time>2026-04-25T07:44:30.75Z</time></trkpt><trkpt lat="39.50998728059336" lon="16.240647702413067"><ele>111.33333333333334</ele><time>2026-04-25T07:44:31.75Z</time></trkpt><trkpt lat="39.50996606077669" lon="16.240877886889827"><ele>111.66666666666667</ele><time>2026-04-25T07:44:32.75Z</time></trkpt><trkpt lat="39.50993453638297" lon="16.24111791069118"><ele>112.0</ele><time>2026-04-25T07:44:33.75Z</time></trkpt><trkpt lat="39.50989628983527" lon="16.24135516302149"><ele>112.66666666666667</ele><time>2026-04-25T07:44:34.75Z</time></trkpt><trkpt lat="39.5098596754122" lon="16.241587094098932"><ele>113.33333333333334</ele><time>2026-04-25T07:44:35.75Z</time></trkpt><trkpt lat="39.50982417628797" lon="16.24180117569135"><ele>114.0</ele><time>2026-04-25T07:44:36.75Z</time></trkpt><trkpt lat="39.509782758570445" lon="16.24200429693908"><ele>114.0</ele><time>2026-04-25T07:44:37.75Z</time></trkpt><trkpt lat="39.50973653697118" lon="16.242197136554953"><ele>114.0</ele><time>2026-04-25T07:44:38.75Z</time></trkpt><trkpt lat="39.50968764915452" lon="16.242375412667297"><ele>114.0</ele><time>2026-04-25T07:44:39.75Z</time></trkpt><trkpt lat="39.509639907941896" lon="16.242546265136887"><ele>114.0</ele><time>2026-04-25T07:44:40.75Z</time></trkpt><trkpt lat="39.50959509838898" lon="16.242696077645387"><ele>114.0</ele><time>2026-04-25T07:44:41.75Z</time></trkpt><trkpt lat="39.50955538379909" lon="16.242825171354966"><ele>114.0</ele><time>2026-04-25T07:44:42.75Z</time></trkpt><trkpt lat="39.50952532681154" lon="16.242926196777496"><ele>114.0</ele><time>2026-04-25T07:44:43.75Z</time></trkpt><trkpt lat="39.5094975076605" lon="16.24301247618723"><ele>114.0</ele><time>2026-04-25T07:44:44.75Z</time></trkpt><trkpt lat="39.50946323248212" lon="16.243138373415615"><ele>114.0</ele><time>2026-04-25T07:44:46.75Z</time></trkpt><trkpt lat="39.509431442283976" lon="16.243218316114852"><ele>114.0</ele><time>2026-04-25T07:45:22.75Z</time></trkpt><trkpt lat="39.50939160959293" lon="16.243316607193492"><ele>114.5</ele><time>2026-04-25T07:45:24.75Z</time></trkpt><trkpt lat="39.509362606909406" lon="16.243393205545182"><ele>115.0</ele><time>2026-04-25T07:45:26.75Z</time></trkpt><trkpt lat="39.50936645239418" lon="16.243499173641943"><ele>115.5</ele><time>2026-04-25T07:45:28.75Z</time></trkpt><trkpt lat="39.509419871959764" lon="16.243569215530023"><ele>116.0</ele><time>2026-04-25T07:45:29.75Z</time></trkpt><trkpt lat="39.50949990142311" lon="16.243619542322932"><ele>116.5</ele><time>2026-04-25T07:45:30.75Z</time></trkpt><trkpt lat="39.50957773546811" lon="16.243678401725422"><ele>117.0</ele><time>2026-04-25T07:45:31.75Z</time></trkpt><trkpt lat="39.50966645623838" lon="16.243747063824852"><ele>117.0</ele><time>2026-04-25T07:45:32.75Z</time></trkpt><trkpt lat="39.509759487858524" lon="16.243829394018828"><ele>117.0</ele><time>2026-04-25T07:45:33.75Z</time></trkpt><trkpt lat="39.50985115165657" lon="16.2439164119776"><ele>117.0</ele><time>2026-04-25T07:45:34.75Z</time></trkpt><trkpt lat="39.509952717515134" lon="16.244008736431784"><ele>117.0</ele><time>2026-04-25T07:45:35.75Z</time></trkpt><trkpt lat="39.5100623560061" lon="16.244103449118363"><ele>117.0</ele><time>2026-04-25T07:45:36.75Z</time></trkpt><trkpt lat="39.510177935740586" lon="16.244203290918364"><ele>117.0</ele><time>2026-04-25T07:45:37.75Z</time></trkpt><trkpt lat="39.5102873369614" lon="16.24430108793441"><ele>117.0</ele><time>2026-04-25T07:45:38.75Z</time></trkpt><trkpt lat="39.5103896455883" lon="16.24439290549401"><ele>117.0</ele><time>2026-04-25T07:45:39.75Z</time></trkpt><trkpt lat="39.51049270499441" lon="16.244486464729853"><ele>116.75</ele><time>2026-04-25T07:45:40.75Z</time></trkpt><trkpt lat="39.51060054076086" lon="16.244581557908496"><ele>116.5</ele><time>2026-04-25T07:45:41.75Z</time></trkpt><trkpt lat="39.510709429438634" lon="16.244677273050808"><ele>116.25</ele><time>2026-04-25T07:45:42.75Z</time></trkpt><trkpt lat="39.510822402789884" lon="16.24477250271518"><ele>116.0</ele><time>2026-04-25T07:45:43.75Z</time></trkpt><trkpt lat="39.510936474389695" lon="16.24487091188874"><ele>116.0</ele><time>2026-04-25T07:45:44.749Z</time></trkpt><trkpt lat="39.511055460945684" lon="16.24497848628692"><ele>116.0</ele><time>2026-04-25T07:45:45.749Z</time></trkpt><trkpt lat="39.51119334948641" lon="16.245101195941015"><ele>116.0</ele><time>2026-04-25T07:45:46.749Z</time></trkpt><trkpt lat="39.51132922111847" lon="16.245219934125103"><ele>116.0</ele><time>2026-04-25T07:45:47.749Z</time></trkpt><trkpt lat="39.5114499350603" lon="16.245327663567977"><ele>116.0</ele><time>2026-04-25T07:45:48.749Z</time></trkpt><trkpt lat="39.51155908653851" lon="16.245426743745103"><ele>116.0</ele><time>2026-04-25T07:45:49.749Z</time></trkpt><trkpt lat="39.51166749989744" lon="16.245523398827682"><ele>116.0</ele><time>2026-04-25T07:45:50.749Z</time></trkpt><trkpt lat="39.511770814186384" lon="16.24561167907788"><ele>115.75</ele><time>2026-04-25T07:45:51.749Z</time></trkpt><trkpt lat="39.51187092360489" lon="16.245697013977235"><ele>115.5</ele><time>2026-04-25T07:45:52.749Z</time></trkpt><trkpt lat="39.5119765964592" lon="16.245791245341934"><ele>115.25</ele><time>2026-04-25T07:45:53.749Z</time></trkpt><trkpt lat="39.51208866326896" lon="16.24589525419451"><ele>115.0</ele><time>2026-04-25T07:45:54.749Z</time></trkpt><trkpt lat="39.5122013721078" lon="16.245998107592907"><ele>115.0</ele><time>2026-04-25T07:45:55.749Z</time></trkpt><trkpt lat="39.51230621036215" lon="16.24609077507148"><ele>115.0</ele><time>2026-04-25T07:45:56.749Z</time></trkpt><trkpt lat="39.512405212327344" lon="16.246174941871768"><ele>115.0</ele><time>2026-04-25T07:45:57.749Z</time></trkpt><trkpt lat="39.51250061851148" lon="16.24626258552295"><ele>115.0</ele><time>2026-04-25T07:45:58.749Z</time></trkpt><trkpt lat="39.51260128095542" lon="16.24635061381805"><ele>115.0</ele><time>2026-04-25T07:45:59.749Z</time></trkpt><trkpt lat="39.51270844394935" lon="16.246442588242235"><ele>115.0</ele><time>2026-04-25T07:46:00.749Z</time></trkpt><trkpt lat="39.512816808499686" lon="16.246534661680514"><ele>115.0</ele><time>2026-04-25T07:46:01.749Z</time></trkpt><trkpt lat="39.512928581666685" lon="16.246630663521174"><ele>115.0</ele><time>2026-04-25T07:46:02.749Z</time></trkpt><trkpt lat="39.51304139931707" lon="16.246725894144877"><ele>115.0</ele><time>2026-04-25T07:46:03.749Z</time></trkpt><trkpt lat="39.51315259693667" lon="16.246827877718882"><ele>115.0</ele><time>2026-04-25T07:46:04.749Z</time></trkpt><trkpt lat="39.5132642648002" lon="16.246928699475745"><ele>115.0</ele><time>2026-04-25T07:46:05.749Z</time></trkpt><trkpt lat="39.51336360359091" lon="16.247017696547896"><ele>115.0</ele><time>2026-04-25T07:46:06.749Z</time></trkpt><trkpt lat="39.51345677222401" lon="16.24710044025098"><ele>115.00000000000001</ele><time>2026-04-25T07:46:07.749Z</time></trkpt><trkpt lat="39.513540331683245" lon="16.24717400777534"><ele>115.0</ele><time>2026-04-25T07:46:08.749Z</time></trkpt><trkpt lat="39.51361428810071" lon="16.24724043743781"><ele>115.0</ele><time>2026-04-25T07:46:09.749Z</time></trkpt><trkpt lat="39.51367829551955" lon="16.247299377667787"><ele>115.0</ele><time>2026-04-25T07:46:10.749Z</time></trkpt><trkpt lat="39.51373645189757" lon="16.247352694363492"><ele>115.00000000000001</ele><time>2026-04-25T07:46:11.749Z</time></trkpt><trkpt lat="39.513791148903444" lon="16.247399315577173"><ele>115.0</ele><time>2026-04-25T07:46:12.749Z</time></trkpt><trkpt lat="39.51388459802566" lon="16.247485385316555"><ele>115.83333333333334</ele><time>2026-04-25T07:46:14.749Z</time></trkpt><trkpt lat="39.5139283060293" lon="16.247546148040747"><ele>116.66666666666667</ele><time>2026-04-25T07:46:15.749Z</time></trkpt><trkpt lat="39.51396056549803" lon="16.2476207401241"><ele>117.5</ele><time>2026-04-25T07:46:16.749Z</time></trkpt><trkpt lat="39.513978088083725" lon="16.247709090138724"><ele>118.33333333333334</ele><time>2026-04-25T07:46:17.749Z</time></trkpt><trkpt lat="39.513950299131324" lon="16.247876780675583"><ele>119.16666666666667</ele><time>2026-04-25T07:46:19.749Z</time></trkpt><trkpt lat="39.513894350790956" lon="16.247975867089465"><ele>120.0</ele><time>2026-04-25T07:46:20.749Z</time></trkpt><trkpt lat="39.51382275624028" lon="16.24807182292305"><ele>120.0</ele><time>2026-04-25T07:46:21.749Z</time></trkpt><trkpt lat="39.51374495697714" lon="16.248193070441097"><ele>120.0</ele><time>2026-04-25T07:46:22.749Z</time></trkpt><trkpt lat="39.51368083987247" lon="16.24830022064335"><ele>120.0</ele><time>2026-04-25T07:46:23.749Z</time></trkpt><trkpt lat="39.513614809883165" lon="16.248410112682432"><ele>120.0</ele><time>2026-04-25T07:46:24.749Z</time></trkpt><trkpt lat="39.513544611202946" lon="16.248521539076428"><ele>120.0</ele><time>2026-04-25T07:46:25.749Z</time></trkpt><trkpt lat="39.513472334181955" lon="16.248635757387635"><ele>120.75</ele><time>2026-04-25T07:46:26.749Z</time></trkpt><trkpt lat="39.51339909659515" lon="16.248752499306534"><ele>121.5</ele><time>2026-04-25T07:46:27.749Z</time></trkpt><trkpt lat="39.51332483120075" lon="16.248871596541903"><ele>122.25</ele><time>2026-04-25T07:46:28.749Z</time></trkpt><trkpt lat="39.51324957896712" lon="16.24899048883172"><ele>123.0</ele><time>2026-04-25T07:46:29.749Z</time></trkpt><trkpt lat="39.51317637834799" lon="16.24910707269048"><ele>123.0</ele><time>2026-04-25T07:46:30.749Z</time></trkpt><trkpt lat="39.513109391576045" lon="16.24921570369276"><ele>123.00000000000001</ele><time>2026-04-25T07:46:31.749Z</time></trkpt><trkpt lat="39.513038927007635" lon="16.249327484452376"><ele>123.00000000000001</ele><time>2026-04-25T07:46:32.749Z</time></trkpt><trkpt lat="39.5129643698819" lon="16.249441658469898"><ele>123.0</ele><time>2026-04-25T07:46:33.749Z</time></trkpt><trkpt lat="39.51289477471359" lon="16.24954639240958"><ele>123.0</ele><time>2026-04-25T07:46:34.749Z</time></trkpt><trkpt lat="39.51283188002401" lon="16.24964652880702"><ele>123.0</ele><time>2026-04-25T07:46:35.749Z</time></trkpt><trkpt lat="39.51276726203754" lon="16.249749669957218"><ele>123.00000000000001</ele><time>2026-04-25T07:46:36.749Z</time></trkpt><trkpt lat="39.51269493867091" lon="16.249856189754787"><ele>123.00000000000001</ele><time>2026-04-25T07:46:37.749Z</time></trkpt><trkpt lat="39.512619501451404" lon="16.249964650554958"><ele>123.0</ele><time>2026-04-25T07:46:38.749Z</time></trkpt><trkpt lat="39.51253463675459" lon="16.25007483568394"><ele>123.0</ele><time>2026-04-25T07:46:39.749Z</time></trkpt><trkpt lat="39.51244424208845" lon="16.250185705332353"><ele>123.0</ele><time>2026-04-25T07:46:40.749Z</time></trkpt><trkpt lat="39.5123514079513" lon="16.250285532419436"><ele>123.0</ele><time>2026-04-25T07:46:41.749Z</time></trkpt><trkpt lat="39.51224938838439" lon="16.25035535853537"><ele>123.0</ele><time>2026-04-25T07:46:42.749Z</time></trkpt><trkpt lat="39.51212440755668" lon="16.250361479113515"><ele>123.0</ele><time>2026-04-25T07:46:43.749Z</time></trkpt><trkpt lat="39.51198232765347" lon="16.25037350631475"><ele>123.0</ele><time>2026-04-25T07:46:44.749Z</time></trkpt><trkpt lat="39.51182989250426" lon="16.250355021246534"><ele>123.0</ele><time>2026-04-25T07:46:45.749Z</time></trkpt><trkpt lat="39.51166087827144" lon="16.250337424871333"><ele>123.0</ele><time>2026-04-25T07:46:46.749Z</time></trkpt><trkpt lat="39.511495394593034" lon="16.25031883933915"><ele>123.0</ele><time>2026-04-25T07:46:47.749Z</time></trkpt><trkpt lat="39.51134297512922" lon="16.250294636061415"><ele>123.0</ele><time>2026-04-25T07:46:48.749Z</time></trkpt><trkpt lat="39.511199616789995" lon="16.250271137462928"><ele>123.0</ele><time>2026-04-25T07:46:49.749Z</time></trkpt><trkpt lat="39.511058847466614" lon="16.250249066426697"><ele>123.0</ele><time>2026-04-25T07:46:50.749Z</time></trkpt><trkpt lat="39.510916108081034" lon="16.25022675640761"><ele>123.25</ele><time>2026-04-25T07:46:51.749Z</time></trkpt><trkpt lat="39.51077110261385" lon="16.250204965360975"><ele>123.5</ele><time>2026-04-25T07:46:52.749Z</time></trkpt><trkpt lat="39.510630732761484" lon="16.250183734677996"><ele>123.75</ele><time>2026-04-25T07:46:53.749Z</time></trkpt><trkpt lat="39.51049359819392" lon="16.250163286936612"><ele>124.0</ele><time>2026-04-25T07:46:54.749Z</time></trkpt><trkpt lat="39.510354841069386" lon="16.25014507190774"><ele>124.25</ele><time>2026-04-25T07:46:55.749Z</time></trkpt><trkpt lat="39.51021935921077" lon="16.25012923809757"><ele>124.5</ele><time>2026-04-25T07:46:56.749Z</time></trkpt><trkpt lat="39.51007428337992" lon="16.250127626640097"><ele>124.75</ele><time>2026-04-25T07:46:57.749Z</time></trkpt><trkpt lat="39.50993076416674" lon="16.250136202351598"><ele>125.0</ele><time>2026-04-25T07:46:58.749Z</time></trkpt><trkpt lat="39.5097833176065" lon="16.25015866843666"><ele>125.0</ele><time>2026-04-25T07:46:59.749Z</time></trkpt><trkpt lat="39.50963234056549" lon="16.25020532086861"><ele>125.0</ele><time>2026-04-25T07:47:00.749Z</time></trkpt><trkpt lat="39.50948163196755" lon="16.250267421566207"><ele>125.0</ele><time>2026-04-25T07:47:01.749Z</time></trkpt><trkpt lat="39.50933339509616" lon="16.25033310779215"><ele>125.0</ele><time>2026-04-25T07:47:02.749Z</time></trkpt><trkpt lat="39.5091825654747" lon="16.250392163280562"><ele>125.0</ele><time>2026-04-25T07:47:03.749Z</time></trkpt><trkpt lat="39.50903020484873" lon="16.250451980467442"><ele>125.0</ele><time>2026-04-25T07:47:04.749Z</time></trkpt><trkpt lat="39.508881595158385" lon="16.250506930683077"><ele>126.33333333333333</ele><time>2026-04-25T07:47:05.749Z</time></trkpt><trkpt lat="39.50872925888257" lon="16.250566149417022"><ele>127.66666666666666</ele><time>2026-04-25T07:47:06.749Z</time></trkpt><trkpt lat="39.50857799359129" lon="16.250626461315182"><ele>129.0</ele><time>2026-04-25T07:47:07.749Z</time></trkpt><trkpt lat="39.50843411646706" lon="16.250680251588875"><ele>129.5</ele><time>2026-04-25T07:47:08.749Z</time></trkpt><trkpt lat="39.50829808679495" lon="16.25073027194091"><ele>130.0</ele><time>2026-04-25T07:47:09.749Z</time></trkpt><trkpt lat="39.50817785453395" lon="16.250774788671162"><ele>130.5</ele><time>2026-04-25T07:47:10.749Z</time></trkpt><trkpt lat="39.50805478850693" lon="16.250822213800035"><ele>131.0</ele><time>2026-04-25T07:47:11.749Z</time></trkpt><trkpt lat="39.50793441640962" lon="16.250865611857076"><ele>131.75</ele><time>2026-04-25T07:47:12.749Z</time></trkpt><trkpt lat="39.50781131546809" lon="16.25091234864986"><ele>132.5</ele><time>2026-04-25T07:47:13.749Z</time></trkpt><trkpt lat="39.50768775908936" lon="16.250960733315125"><ele>133.25</ele><time>2026-04-25T07:47:14.749Z</time></trkpt><trkpt lat="39.50755980149654" lon="16.251020082647592"><ele>134.0</ele><time>2026-04-25T07:47:15.749Z</time></trkpt><trkpt lat="39.50742619718632" lon="16.25109227377088"><ele>134.0</ele><time>2026-04-25T07:47:16.749Z</time></trkpt><trkpt lat="39.50727928465882" lon="16.251191777254817"><ele>134.0</ele><time>2026-04-25T07:47:17.749Z</time></trkpt><trkpt lat="39.50713642395315" lon="16.251300087999933"><ele>134.0</ele><time>2026-04-25T07:47:18.749Z</time></trkpt><trkpt lat="39.50700473894802" lon="16.251405317755907"><ele>133.5</ele><time>2026-04-25T07:47:19.749Z</time></trkpt><trkpt lat="39.50688698383631" lon="16.251498968637804"><ele>133.0</ele><time>2026-04-25T07:47:20.749Z</time></trkpt><trkpt lat="39.50677707229501" lon="16.251592790216122"><ele>132.5</ele><time>2026-04-25T07:47:21.749Z</time></trkpt><trkpt lat="39.50668361399216" lon="16.251706815043086"><ele>132.0</ele><time>2026-04-25T07:47:22.749Z</time></trkpt><trkpt lat="39.50660527589455" lon="16.25186363568415"><ele>132.0</ele><time>2026-04-25T07:47:23.749Z</time></trkpt><trkpt lat="39.50654915446077" lon="16.252051137921825"><ele>132.0</ele><time>2026-04-25T07:47:24.749Z</time></trkpt><trkpt lat="39.5064863592963" lon="16.252251763862"><ele>132.0</ele><time>2026-04-25T07:47:25.749Z</time></trkpt><trkpt lat="39.5064110384474" lon="16.252430234935535"><ele>133.0</ele><time>2026-04-25T07:47:26.749Z</time></trkpt><trkpt lat="39.506338404930226" lon="16.25260937310058"><ele>134.0</ele><time>2026-04-25T07:47:27.749Z</time></trkpt><trkpt lat="39.506262482601024" lon="16.252772823610407"><ele>135.0</ele><time>2026-04-25T07:47:28.749Z</time></trkpt><trkpt lat="39.50617208467594" lon="16.25294137541053"><ele>135.25</ele><time>2026-04-25T07:47:29.749Z</time></trkpt><trkpt lat="39.50606975414519" lon="16.253093607152866"><ele>135.5</ele><time>2026-04-25T07:47:30.749Z</time></trkpt><trkpt lat="39.5059620443727" lon="16.253237981230555"><ele>135.75</ele><time>2026-04-25T07:47:31.749Z</time></trkpt><trkpt lat="39.50586454447156" lon="16.253364070331376"><ele>136.0</ele><time>2026-04-25T07:47:32.749Z</time></trkpt><trkpt lat="39.50576862652359" lon="16.253492225778572"><ele>137.0</ele><time>2026-04-25T07:47:33.749Z</time></trkpt><trkpt lat="39.505676924406536" lon="16.253620288556235"><ele>138.0</ele><time>2026-04-25T07:47:34.749Z</time></trkpt><trkpt lat="39.505584544142444" lon="16.253749964924726"><ele>139.0</ele><time>2026-04-25T07:47:35.749Z</time></trkpt><trkpt lat="39.50549189362723" lon="16.25387591486539"><ele>140.0</ele><time>2026-04-25T07:47:36.749Z</time></trkpt><trkpt lat="39.5054031393586" lon="16.25399960560941"><ele>140.5</ele><time>2026-04-25T07:47:37.749Z</time></trkpt><trkpt lat="39.505321171142704" lon="16.254120447896756"><ele>141.0</ele><time>2026-04-25T07:47:38.749Z</time></trkpt><trkpt lat="39.50524923592145" lon="16.254238195835107"><ele>141.5</ele><time>2026-04-25T07:47:39.749Z</time></trkpt><trkpt lat="39.50517993154879" lon="16.25437089922598"><ele>142.0</ele><time>2026-04-25T07:47:40.749Z</time></trkpt><trkpt lat="39.505120208359344" lon="16.25452824018505"><ele>142.0</ele><time>2026-04-25T07:47:41.749Z</time></trkpt><trkpt lat="39.50508097096881" lon="16.254710626532976"><ele>142.0</ele><time>2026-04-25T07:47:42.749Z</time></trkpt><trkpt lat="39.50505538611071" lon="16.254913756822525"><ele>142.0</ele><time>2026-04-25T07:47:43.749Z</time></trkpt><trkpt lat="39.50504145754314" lon="16.255122996260667"><ele>142.75</ele><time>2026-04-25T07:47:44.749Z</time></trkpt><trkpt lat="39.50503382666437" lon="16.255311340398926"><ele>143.5</ele><time>2026-04-25T07:47:45.749Z</time></trkpt><trkpt lat="39.50502686413344" lon="16.255493720851106"><ele>144.25</ele><time>2026-04-25T07:47:46.749Z</time></trkpt><trkpt lat="39.50501849381927" lon="16.255675558489983"><ele>145.0</ele><time>2026-04-25T07:47:47.749Z</time></trkpt><trkpt lat="39.505009755041144" lon="16.255860202627918"><ele>145.25</ele><time>2026-04-25T07:47:48.749Z</time></trkpt><trkpt lat="39.50500106718298" lon="16.25604986562279"><ele>145.5</ele><time>2026-04-25T07:47:49.749Z</time></trkpt><trkpt lat="39.504994974611755" lon="16.256236358325197"><ele>145.75</ele><time>2026-04-25T07:47:50.749Z</time></trkpt><trkpt lat="39.50498837840604" lon="16.25642196774144"><ele>146.0</ele><time>2026-04-25T07:47:51.749Z</time></trkpt><trkpt lat="39.50498295741488" lon="16.256598774903928"><ele>147.33333333333331</ele><time>2026-04-25T07:47:52.749Z</time></trkpt><trkpt lat="39.504973886382025" lon="16.256762065349456"><ele>148.66666666666666</ele><time>2026-04-25T07:47:53.749Z</time></trkpt><trkpt lat="39.50497073794937" lon="16.256921362700517"><ele>150.0</ele><time>2026-04-25T07:47:54.749Z</time></trkpt><trkpt lat="39.50494357929831" lon="16.257194466429755"><ele>150.75</ele><time>2026-04-25T07:47:55.749Z</time></trkpt><trkpt lat="39.50493402255298" lon="16.257387861991035"><ele>151.5</ele><time>2026-04-25T07:47:56.749Z</time></trkpt><trkpt lat="39.50492395142504" lon="16.25757322485223"><ele>152.25</ele><time>2026-04-25T07:47:57.749Z</time></trkpt><trkpt lat="39.5049150296849" lon="16.25777468627139"><ele>153.0</ele><time>2026-04-25T07:47:58.749Z</time></trkpt><trkpt lat="39.50490364489622" lon="16.25797592809061"><ele>153.66666666666666</ele><time>2026-04-25T07:47:59.749Z</time></trkpt><trkpt lat="39.50488508966492" lon="16.258177395496002"><ele>154.33333333333331</ele><time>2026-04-25T07:48:00.749Z</time></trkpt><trkpt lat="39.50485233169369" lon="16.258382638711524"><ele>155.0</ele><time>2026-04-25T07:48:01.749Z</time></trkpt><trkpt lat="39.504798860850784" lon="16.258579843466737"><ele>155.0</ele><time>2026-04-25T07:48:02.749Z</time></trkpt><trkpt lat="39.504770046486925" lon="16.25878996400142"><ele>155.0</ele><time>2026-04-25T07:48:03.749Z</time></trkpt><trkpt lat="39.50472333367473" lon="16.258985102302187"><ele>155.0</ele><time>2026-04-25T07:48:04.749Z</time></trkpt><trkpt lat="39.504681663919094" lon="16.259186772024048"><ele>156.0</ele><time>2026-04-25T07:48:05.749Z</time></trkpt><trkpt lat="39.50463530705087" lon="16.259387795306832"><ele>157.0</ele><time>2026-04-25T07:48:06.749Z</time></trkpt><trkpt lat="39.5045931712619" lon="16.259587932272506"><ele>158.0</ele><time>2026-04-25T07:48:07.749Z</time></trkpt><trkpt lat="39.50455266105256" lon="16.259784019678847"><ele>158.66666666666666</ele><time>2026-04-25T07:48:08.749Z</time></trkpt><trkpt lat="39.504510813613855" lon="16.25997453049131"><ele>159.33333333333334</ele><time>2026-04-25T07:48:09.749Z</time></trkpt><trkpt lat="39.50447013732653" lon="16.260159490708197"><ele>160.0</ele><time>2026-04-25T07:48:10.749Z</time></trkpt><trkpt lat="39.504426504779715" lon="16.260347664846012"><ele>160.0</ele><time>2026-04-25T07:48:11.749Z</time></trkpt><trkpt lat="39.50437484978794" lon="16.260534380971304"><ele>160.0</ele><time>2026-04-25T07:48:12.749Z</time></trkpt><trkpt lat="39.50431821905308" lon="16.26071775042991"><ele>160.0</ele><time>2026-04-25T07:48:13.749Z</time></trkpt><trkpt lat="39.504257341075366" lon="16.260899955268233"><ele>161.33333333333334</ele><time>2026-04-25T07:48:14.749Z</time></trkpt><trkpt lat="39.50420614505117" lon="16.261088227128916"><ele>162.66666666666666</ele><time>2026-04-25T07:48:15.749Z</time></trkpt><trkpt lat="39.504151596050086" lon="16.261273651731493"><ele>164.0</ele><time>2026-04-25T07:48:16.749Z</time></trkpt><trkpt lat="39.504094592443934" lon="16.261448530146808"><ele>164.25</ele><time>2026-04-25T07:48:17.749Z</time></trkpt><trkpt lat="39.504050614114746" lon="16.26160441439587"><ele>164.5</ele><time>2026-04-25T07:48:18.749Z</time></trkpt><trkpt lat="39.504010195177656" lon="16.26175598205015"><ele>164.75</ele><time>2026-04-25T07:48:19.749Z</time></trkpt><trkpt lat="39.50397361180563" lon="16.261911902807487"><ele>165.0</ele><time>2026-04-25T07:48:20.749Z</time></trkpt><trkpt lat="39.50394148090718" lon="16.26208002731004"><ele>165.0</ele><time>2026-04-25T07:48:21.749Z</time></trkpt><trkpt lat="39.5039234518163" lon="16.262256992386963"><ele>165.0</ele><time>2026-04-25T07:48:22.749Z</time></trkpt><trkpt lat="39.50390018887879" lon="16.2624462464446"><ele>165.0</ele><time>2026-04-25T07:48:23.749Z</time></trkpt><trkpt lat="39.503869688501034" lon="16.262651229569947"><ele>165.0</ele><time>2026-04-25T07:48:24.749Z</time></trkpt><trkpt lat="39.50384105696346" lon="16.262843781262962"><ele>165.5</ele><time>2026-04-25T07:48:25.749Z</time></trkpt><trkpt lat="39.503815405679504" lon="16.263012273524204"><ele>166.0</ele><time>2026-04-25T07:48:26.749Z</time></trkpt><trkpt lat="39.503793989348516" lon="16.263169743423596"><ele>166.5</ele><time>2026-04-25T07:48:27.749Z</time></trkpt><trkpt lat="39.50377662422899" lon="16.263322273435914"><ele>167.0</ele><time>2026-04-25T07:48:28.749Z</time></trkpt><trkpt lat="39.50375406332394" lon="16.2634776373462"><ele>168.0</ele><time>2026-04-25T07:48:29.749Z</time></trkpt><trkpt lat="39.50373572531678" lon="16.263623679398872"><ele>169.0</ele><time>2026-04-25T07:48:30.749Z</time></trkpt><trkpt lat="39.50371622650434" lon="16.263755464426335"><ele>170.0</ele><time>2026-04-25T07:48:31.749Z</time></trkpt><trkpt lat="39.50370034005591" lon="16.263877225598833"><ele>171.0</ele><time>2026-04-25T07:48:32.749Z</time></trkpt><trkpt lat="39.503684283934" lon="16.263992308987437"><ele>172.0</ele><time>2026-04-25T07:48:33.749Z</time></trkpt><trkpt lat="39.503669795992515" lon="16.264098984287028"><ele>172.0</ele><time>2026-04-25T07:48:34.748Z</time></trkpt><trkpt lat="39.50365635960135" lon="16.26420364900481"><ele>172.0</ele><time>2026-04-25T07:48:35.748Z</time></trkpt><trkpt lat="39.50364139797889" lon="16.264305512968352"><ele>172.0</ele><time>2026-04-25T07:48:36.748Z</time></trkpt><trkpt lat="39.50362410025598" lon="16.26441541600325"><ele>172.0</ele><time>2026-04-25T07:48:37.748Z</time></trkpt><trkpt lat="39.50360838975483" lon="16.264527556689576"><ele>172.0</ele><time>2026-04-25T07:48:38.748Z</time></trkpt><trkpt lat="39.50359370222687" lon="16.26463766523575"><ele>172.0</ele><time>2026-04-25T07:48:39.748Z</time></trkpt><trkpt lat="39.50357696103186" lon="16.264751319703272"><ele>172.39999999999998</ele><time>2026-04-25T07:48:40.748Z</time></trkpt><trkpt lat="39.50356008505556" lon="16.264871204055172"><ele>172.79999999999998</ele><time>2026-04-25T07:48:41.748Z</time></trkpt><trkpt lat="39.50354165202296" lon="16.265001450635875"><ele>173.2</ele><time>2026-04-25T07:48:42.748Z</time></trkpt><trkpt lat="39.50352144716218" lon="16.26513542304656"><ele>173.6</ele><time>2026-04-25T07:48:43.748Z</time></trkpt><trkpt lat="39.503499860379456" lon="16.265272189268583"><ele>174.0</ele><time>2026-04-25T07:48:44.748Z</time></trkpt><trkpt lat="39.50347848375351" lon="16.265412113641666"><ele>174.0</ele><time>2026-04-25T07:48:45.748Z</time></trkpt><trkpt lat="39.50345949401165" lon="16.265555886123813"><ele>174.0</ele><time>2026-04-25T07:48:46.748Z</time></trkpt><trkpt lat="39.50344229389553" lon="16.265697796628316"><ele>174.0</ele><time>2026-04-25T07:48:47.748Z</time></trkpt><trkpt lat="39.50341505859715" lon="16.26584393693056"><ele>174.0</ele><time>2026-04-25T07:48:48.748Z</time></trkpt><trkpt lat="39.503388978521805" lon="16.265994965740717"><ele>174.75</ele><time>2026-04-25T07:48:49.748Z</time></trkpt><trkpt lat="39.50336690371099" lon="16.26615335154013"><ele>175.5</ele><time>2026-04-25T07:48:50.748Z</time></trkpt><trkpt lat="39.503340477205086" lon="16.266314814432196"><ele>176.25</ele><time>2026-04-25T07:48:51.748Z</time></trkpt><trkpt lat="39.50330604615122" lon="16.266475461380985"><ele>177.0</ele><time>2026-04-25T07:48:52.748Z</time></trkpt><trkpt lat="39.50326495365145" lon="16.266637199688372"><ele>177.75</ele><time>2026-04-25T07:48:53.748Z</time></trkpt><trkpt lat="39.50321319612584" lon="16.266800325540583"><ele>178.5</ele><time>2026-04-25T07:48:54.748Z</time></trkpt><trkpt lat="39.50313517232841" lon="16.266959021974177"><ele>179.25</ele><time>2026-04-25T07:48:55.748Z</time></trkpt><trkpt lat="39.503034266792135" lon="16.267098821161433"><ele>180.0</ele><time>2026-04-25T07:48:56.748Z</time></trkpt><trkpt lat="39.50292118505424" lon="16.26722506286117"><ele>181.0</ele><time>2026-04-25T07:48:57.748Z</time></trkpt><trkpt lat="39.5028057047979" lon="16.267350348085674"><ele>182.0</ele><time>2026-04-25T07:48:58.748Z</time></trkpt><trkpt lat="39.502703173162935" lon="16.26745786018341"><ele>183.0</ele><time>2026-04-25T07:48:59.748Z</time></trkpt><trkpt lat="39.50260691433246" lon="16.267560307690523"><ele>184.0</ele><time>2026-04-25T07:49:00.748Z</time></trkpt><trkpt lat="39.50251970923936" lon="16.26766199026831"><ele>184.0</ele><time>2026-04-25T07:49:01.747Z</time></trkpt><trkpt lat="39.50243854299447" lon="16.26775819811268"><ele>184.0</ele><time>2026-04-25T07:49:02.747Z</time></trkpt><trkpt lat="39.50236581179818" lon="16.267850289249377"><ele>184.0</ele><time>2026-04-25T07:49:03.747Z</time></trkpt><trkpt lat="39.50230399622255" lon="16.26795123993537"><ele>184.0</ele><time>2026-04-25T07:49:04.747Z</time></trkpt><trkpt lat="39.50225694577199" lon="16.268067859412895"><ele>184.0</ele><time>2026-04-25T07:49:05.747Z</time></trkpt><trkpt lat="39.502227911281814" lon="16.268213840751265"><ele>184.39999999999998</ele><time>2026-04-25T07:49:06.747Z</time></trkpt><trkpt lat="39.50221906194888" lon="16.268358707632242"><ele>184.8</ele><time>2026-04-25T07:49:07.747Z</time></trkpt><trkpt lat="39.50221976159424" lon="16.268484523322016"><ele>185.2</ele><time>2026-04-25T07:49:08.747Z</time></trkpt><trkpt lat="39.50221978233491" lon="16.268596178507455"><ele>185.60000000000002</ele><time>2026-04-25T07:49:09.747Z</time></trkpt><trkpt lat="39.50220926775842" lon="16.268699008287594"><ele>186.0</ele><time>2026-04-25T07:49:10.747Z</time></trkpt><trkpt lat="39.50219303216335" lon="16.268792873211947"><ele>186.0</ele><time>2026-04-25T07:49:11.747Z</time></trkpt><trkpt lat="39.50217881027907" lon="16.268897599775688"><ele>186.0</ele><time>2026-04-25T07:49:12.747Z</time></trkpt><trkpt lat="39.50216286724697" lon="16.269001429043797"><ele>186.0</ele><time>2026-04-25T07:49:13.747Z</time></trkpt><trkpt lat="39.502150279743745" lon="16.269107321599677"><ele>186.0</ele><time>2026-04-25T07:49:14.747Z</time></trkpt><trkpt lat="39.50214067523146" lon="16.269224037165046"><ele>186.0</ele><time>2026-04-25T07:49:15.747Z</time></trkpt><trkpt lat="39.50212894969963" lon="16.269363161188586"><ele>186.0</ele><time>2026-04-25T07:49:16.747Z</time></trkpt><trkpt lat="39.50210606843788" lon="16.269519370818394"><ele>186.0</ele><time>2026-04-25T07:49:17.747Z</time></trkpt><trkpt lat="39.50208517793085" lon="16.269682654167514"><ele>186.0</ele><time>2026-04-25T07:49:18.747Z</time></trkpt><trkpt lat="39.502069608126234" lon="16.269830790155897"><ele>186.0</ele><time>2026-04-25T07:49:19.747Z</time></trkpt><trkpt lat="39.50205735259208" lon="16.269962210960635"><ele>186.0</ele><time>2026-04-25T07:49:20.747Z</time></trkpt><trkpt lat="39.502042171715104" lon="16.27009685493607"><ele>186.0</ele><time>2026-04-25T07:49:21.747Z</time></trkpt><trkpt lat="39.50202209548876" lon="16.270244336036946"><ele>186.0</ele><time>2026-04-25T07:49:22.747Z</time></trkpt><trkpt lat="39.502004358645486" lon="16.270386307775375"><ele>186.0</ele><time>2026-04-25T07:49:23.747Z</time></trkpt><trkpt lat="39.50198477549003" lon="16.270511438462428"><ele>186.0</ele><time>2026-04-25T07:49:24.748Z</time></trkpt><trkpt lat="39.50196625679022" lon="16.270635329348586"><ele>186.0</ele><time>2026-04-25T07:49:25.748Z</time></trkpt><trkpt lat="39.50195260013016" lon="16.270751811810328"><ele>186.4</ele><time>2026-04-25T07:49:26.748Z</time></trkpt><trkpt lat="39.50194466464652" lon="16.270856617057802"><ele>186.8</ele><time>2026-04-25T07:49:27.748Z</time></trkpt><trkpt lat="39.501935308135685" lon="16.270951853336975"><ele>187.20000000000002</ele><time>2026-04-25T07:49:28.748Z</time></trkpt><trkpt lat="39.501895220516744" lon="16.271098647826143"><ele>187.60000000000002</ele><time>2026-04-25T07:49:30.748Z</time></trkpt><trkpt lat="39.50180758022511" lon="16.271197960024974"><ele>188.0</ele><time>2026-04-25T07:49:32.748Z</time></trkpt><trkpt lat="39.50169546067749" lon="16.271269795083853"><ele>188.0</ele><time>2026-04-25T07:49:34.748Z</time></trkpt><trkpt lat="39.50166432869296" lon="16.27134487546353"><ele>188.0</ele><time>2026-04-25T07:49:35.748Z</time></trkpt><trkpt lat="39.50165742998678" lon="16.271441802013896"><ele>188.0</ele><time>2026-04-25T07:49:36.748Z</time></trkpt><trkpt lat="39.50168031688261" lon="16.27154871260287"><ele>188.0</ele><time>2026-04-25T07:49:37.748Z</time></trkpt><trkpt lat="39.501682523139124" lon="16.271659900472066"><ele>188.0</ele><time>2026-04-25T07:49:38.748Z</time></trkpt><trkpt lat="39.50161765730728" lon="16.27177714251161"><ele>188.0</ele><time>2026-04-25T07:49:39.748Z</time></trkpt><trkpt lat="39.50156343947926" lon="16.27190827324486"><ele>188.4</ele><time>2026-04-25T07:49:40.748Z</time></trkpt><trkpt lat="39.501515847019974" lon="16.271985042232846"><ele>188.8</ele><time>2026-04-25T07:49:41.748Z</time></trkpt><trkpt lat="39.501472707769395" lon="16.272084258316617"><ele>189.2</ele><time>2026-04-25T07:49:43.748Z</time></trkpt><trkpt lat="39.50142337107315" lon="16.272193868667355"><ele>189.6</ele><time>2026-04-25T07:49:45.748Z</time></trkpt><trkpt lat="39.50137118232901" lon="16.272304958654782"><ele>190.0</ele><time>2026-04-25T07:49:47.748Z</time></trkpt><trkpt lat="39.50131152730149" lon="16.272440464813183"><ele>189.83333333333334</ele><time>2026-04-25T07:49:49.747Z</time></trkpt><trkpt lat="39.501261495326624" lon="16.27256528216411"><ele>189.66666666666669</ele><time>2026-04-25T07:49:51.747Z</time></trkpt><trkpt lat="39.50121176694709" lon="16.272671342367683"><ele>189.5</ele><time>2026-04-25T07:49:53.747Z</time></trkpt><trkpt lat="39.50117030271722" lon="16.27275663029915"><ele>189.33333333333334</ele><time>2026-04-25T07:49:55.747Z</time></trkpt><trkpt lat="39.50113802378067" lon="16.272835535952005"><ele>189.16666666666666</ele><time>2026-04-25T07:49:57.747Z</time></trkpt><trkpt lat="39.50110289949721" lon="16.272912895922506"><ele>189.0</ele><time>2026-04-25T07:49:59.747Z</time></trkpt><trkpt lat="39.50106501960907" lon="16.27299111772973"><ele>189.0</ele><time>2026-04-25T07:50:01.747Z</time></trkpt><trkpt lat="39.501020070412046" lon="16.273087471364615"><ele>189.0</ele><time>2026-04-25T07:50:03.747Z</time></trkpt><trkpt lat="39.50096593343047" lon="16.273230379014347"><ele>189.0</ele><time>2026-04-25T07:50:05.747Z</time></trkpt><trkpt lat="39.50092771648212" lon="16.273316433077213"><ele>189.0</ele><time>2026-04-25T07:50:06.747Z</time></trkpt><trkpt lat="39.50088808691348" lon="16.273400905059123"><ele>189.0</ele><time>2026-04-25T07:50:07.747Z</time></trkpt><trkpt lat="39.5008381035529" lon="16.27350172183955"><ele>189.5</ele><time>2026-04-25T07:50:08.747Z</time></trkpt><trkpt lat="39.50079618253192" lon="16.273599877567005"><ele>190.0</ele><time>2026-04-25T07:50:09.747Z</time></trkpt><trkpt lat="39.50075699253235" lon="16.27368151084361"><ele>190.5</ele><time>2026-04-25T07:50:10.747Z</time></trkpt><trkpt lat="39.50071996464796" lon="16.273763454289895"><ele>191.0</ele><time>2026-04-25T07:50:11.747Z</time></trkpt><trkpt lat="39.50068659678247" lon="16.27384437476133"><ele>191.5</ele><time>2026-04-25T07:50:12.747Z</time></trkpt><trkpt lat="39.50065097924214" lon="16.27393078644243"><ele>192.0</ele><time>2026-04-25T07:50:13.747Z</time></trkpt><trkpt lat="39.50061260405448" lon="16.27401665550248"><ele>192.0</ele><time>2026-04-25T07:50:14.747Z</time></trkpt><trkpt lat="39.50056764684566" lon="16.274110254458176"><ele>192.0</ele><time>2026-04-25T07:50:15.747Z</time></trkpt><trkpt lat="39.500526940573856" lon="16.27420077866736"><ele>192.0</ele><time>2026-04-25T07:50:16.747Z</time></trkpt><trkpt lat="39.50048531188968" lon="16.274300341193836"><ele>192.0</ele><time>2026-04-25T07:50:17.747Z</time></trkpt><trkpt lat="39.50043967020849" lon="16.274400075771336"><ele>192.0</ele><time>2026-04-25T07:50:18.747Z</time></trkpt><trkpt lat="39.500391977786386" lon="16.274502043241306"><ele>192.0</ele><time>2026-04-25T07:50:19.747Z</time></trkpt><trkpt lat="39.50034603798244" lon="16.274603479143583"><ele>192.0</ele><time>2026-04-25T07:50:20.747Z</time></trkpt><trkpt lat="39.50030708599561" lon="16.274695261801085"><ele>192.0</ele><time>2026-04-25T07:50:21.747Z</time></trkpt><trkpt lat="39.50026880725397" lon="16.27477868499674"><ele>192.0</ele><time>2026-04-25T07:50:22.747Z</time></trkpt><trkpt lat="39.50022849964637" lon="16.274868551050556"><ele>192.0</ele><time>2026-04-25T07:50:23.747Z</time></trkpt><trkpt lat="39.50018862145229" lon="16.27496240253902"><ele>192.0</ele><time>2026-04-25T07:50:24.747Z</time></trkpt><trkpt lat="39.50014886521891" lon="16.275054486730443"><ele>192.0</ele><time>2026-04-25T07:50:25.747Z</time></trkpt><trkpt lat="39.500104173740446" lon="16.275150744003483"><ele>192.5</ele><time>2026-04-25T07:50:26.747Z</time></trkpt><trkpt lat="39.50006283004288" lon="16.275243208771098"><ele>193.0</ele><time>2026-04-25T07:50:27.747Z</time></trkpt><trkpt lat="39.50002744761191" lon="16.27532303382869"><ele>193.5</ele><time>2026-04-25T07:50:28.747Z</time></trkpt><trkpt lat="39.49999295739499" lon="16.27540120755238"><ele>194.0</ele><time>2026-04-25T07:50:29.747Z</time></trkpt><trkpt lat="39.49995698516331" lon="16.27547513790259"><ele>194.5</ele><time>2026-04-25T07:50:30.747Z</time></trkpt><trkpt lat="39.49989819438881" lon="16.275611501033072"><ele>195.0</ele><time>2026-04-25T07:50:32.747Z</time></trkpt><trkpt lat="39.4998305820328" lon="16.275734807063706"><ele>195.8</ele><time>2026-04-25T07:50:34.747Z</time></trkpt><trkpt lat="39.49977765098721" lon="16.275866524724695"><ele>196.6</ele><time>2026-04-25T07:50:36.747Z</time></trkpt><trkpt lat="39.49972490538658" lon="16.276006392705337"><ele>197.39999999999998</ele><time>2026-04-25T07:50:38.747Z</time></trkpt><trkpt lat="39.49967303801453" lon="16.276127311780773"><ele>198.2</ele><time>2026-04-25T07:50:40.747Z</time></trkpt><trkpt lat="39.49962937953761" lon="16.27625412964985"><ele>199.0</ele><time>2026-04-25T07:50:42.747Z</time></trkpt><trkpt lat="39.49961026270656" lon="16.276405066301947"><ele>198.83333333333331</ele><time>2026-04-25T07:50:44.747Z</time></trkpt><trkpt lat="39.49960612897612" lon="16.276503686744697"><ele>198.66666666666666</ele><time>2026-04-25T07:50:45.747Z</time></trkpt><trkpt lat="39.49960758117406" lon="16.276617929643304"><ele>198.5</ele><time>2026-04-25T07:50:46.747Z</time></trkpt><trkpt lat="39.49961484152809" lon="16.276734293118654"><ele>198.33333333333331</ele><time>2026-04-25T07:50:47.747Z</time></trkpt><trkpt lat="39.49963560253787" lon="16.27685352829495"><ele>198.16666666666666</ele><time>2026-04-25T07:50:48.747Z</time></trkpt><trkpt lat="39.499647577754374" lon="16.2769765641625"><ele>198.0</ele><time>2026-04-25T07:50:49.747Z</time></trkpt><trkpt lat="39.499668241545805" lon="16.277093223053203"><ele>198.0</ele><time>2026-04-25T07:50:50.747Z</time></trkpt><trkpt lat="39.4996861865796" lon="16.27721261463889"><ele>198.0</ele><time>2026-04-25T07:50:51.747Z</time></trkpt><trkpt lat="39.499706627182576" lon="16.277320283508075"><ele>198.0</ele><time>2026-04-25T07:50:52.747Z</time></trkpt><trkpt lat="39.49967040597727" lon="16.27741600183492"><ele>198.0</ele><time>2026-04-25T07:50:53.747Z</time></trkpt><trkpt lat="39.499657126759985" lon="16.277500867287323"><ele>198.0</ele><time>2026-04-25T07:50:54.747Z</time></trkpt><trkpt lat="39.49951826962436" lon="16.277526985141378"><ele>196.5</ele><time>2026-04-25T07:50:55.747Z</time></trkpt><trkpt lat="39.499429941114585" lon="16.277543369431424"><ele>195.0</ele><time>2026-04-25T07:50:56.747Z</time></trkpt><trkpt lat="39.499345569889336" lon="16.27755964343699"><ele>193.5</ele><time>2026-04-25T07:50:57.747Z</time></trkpt><trkpt lat="39.49926428031399" lon="16.277579129083197"><ele>192.0</ele><time>2026-04-25T07:50:58.747Z</time></trkpt><trkpt lat="39.49918515622512" lon="16.27759860395318"><ele>190.5</ele><time>2026-04-25T07:50:59.747Z</time></trkpt><trkpt lat="39.499106370943835" lon="16.27762216602904"><ele>189.0</ele><time>2026-04-25T07:51:00.747Z</time></trkpt><trkpt lat="39.49902630726933" lon="16.277646999126432"><ele>189.0</ele><time>2026-04-25T07:51:01.747Z</time></trkpt><trkpt lat="39.498950354482005" lon="16.277669457405366"><ele>189.0</ele><time>2026-04-25T07:51:02.747Z</time></trkpt><trkpt lat="39.4988664653348" lon="16.27769267720395"><ele>189.0</ele><time>2026-04-25T07:51:03.747Z</time></trkpt><trkpt lat="39.49877327413541" lon="16.277706047102992"><ele>189.0</ele><time>2026-04-25T07:51:04.747Z</time></trkpt><trkpt lat="39.498668855927015" lon="16.277686369972"><ele>189.0</ele><time>2026-04-25T07:51:05.747Z</time></trkpt><trkpt lat="39.498552895552656" lon="16.277646628319985"><ele>189.25</ele><time>2026-04-25T07:51:06.747Z</time></trkpt><trkpt lat="39.49843268036268" lon="16.2775888410568"><ele>189.5</ele><time>2026-04-25T07:51:07.747Z</time></trkpt><trkpt lat="39.49831515828318" lon="16.277513594507283"><ele>189.75</ele><time>2026-04-25T07:51:08.747Z</time></trkpt><trkpt lat="39.498210268991436" lon="16.27741725760482"><ele>190.0</ele><time>2026-04-25T07:51:09.747Z</time></trkpt><trkpt lat="39.49812584861044" lon="16.2773092026833"><ele>190.25</ele><time>2026-04-25T07:51:10.747Z</time></trkpt><trkpt lat="39.4980506338154" lon="16.277187889245326"><ele>190.5</ele><time>2026-04-25T07:51:11.747Z</time></trkpt><trkpt lat="39.49797065424058" lon="16.27705902156495"><ele>190.75</ele><time>2026-04-25T07:51:12.747Z</time></trkpt><trkpt lat="39.49788852353544" lon="16.276929641560407"><ele>191.0</ele><time>2026-04-25T07:51:13.747Z</time></trkpt><trkpt lat="39.4978118016777" lon="16.276805326737676"><ele>191.0</ele><time>2026-04-25T07:51:14.747Z</time></trkpt><trkpt lat="39.49774324862624" lon="16.276695420785455"><ele>191.0</ele><time>2026-04-25T07:51:15.747Z</time></trkpt><trkpt lat="39.4976711071812" lon="16.276589171931313"><ele>191.0</ele><time>2026-04-25T07:51:16.747Z</time></trkpt><trkpt lat="39.4975930912069" lon="16.276482230738818"><ele>191.0</ele><time>2026-04-25T07:51:17.747Z</time></trkpt><trkpt lat="39.497506538015415" lon="16.276378221178188"><ele>191.0</ele><time>2026-04-25T07:51:18.747Z</time></trkpt><trkpt lat="39.497397840483046" lon="16.276265970679002"><ele>191.0</ele><time>2026-04-25T07:51:19.747Z</time></trkpt><trkpt lat="39.49727040466134" lon="16.276175207856994"><ele>191.0</ele><time>2026-04-25T07:51:20.747Z</time></trkpt><trkpt lat="39.49712306139466" lon="16.276080358580227"><ele>191.0</ele><time>2026-04-25T07:51:21.747Z</time></trkpt><trkpt lat="39.49697132773594" lon="16.2759927297551"><ele>191.0</ele><time>2026-04-25T07:51:22.747Z</time></trkpt><trkpt lat="39.49682414488296" lon="16.27590610977192"><ele>191.0</ele><time>2026-04-25T07:51:23.747Z</time></trkpt><trkpt lat="39.49668812937346" lon="16.27581627575022"><ele>191.0</ele><time>2026-04-25T07:51:24.747Z</time></trkpt><trkpt lat="39.49656406418718" lon="16.275728726576443"><ele>191.0</ele><time>2026-04-25T07:51:25.747Z</time></trkpt><trkpt lat="39.49644189938387" lon="16.27565414326131"><ele>191.0</ele><time>2026-04-25T07:51:26.747Z</time></trkpt><trkpt lat="39.49631778473921" lon="16.275615569534118"><ele>191.0</ele><time>2026-04-25T07:51:27.747Z</time></trkpt><trkpt lat="39.49619720951754" lon="16.275613394736652"><ele>191.0</ele><time>2026-04-25T07:51:28.746Z</time></trkpt><trkpt lat="39.49607657754288" lon="16.275652038879898"><ele>190.5</ele><time>2026-04-25T07:51:29.746Z</time></trkpt><trkpt lat="39.49595584523688" lon="16.275722459712618"><ele>190.0</ele><time>2026-04-25T07:51:30.747Z</time></trkpt><trkpt lat="39.49584575745475" lon="16.275812518911906"><ele>189.5</ele><time>2026-04-25T07:51:31.747Z</time></trkpt><trkpt lat="39.49573046958516" lon="16.27585834333993"><ele>189.0</ele><time>2026-04-25T07:51:32.747Z</time></trkpt><trkpt lat="39.49562082880885" lon="16.275883949965113"><ele>189.0</ele><time>2026-04-25T07:51:33.747Z</time></trkpt><trkpt lat="39.49551122796211" lon="16.275860314927208"><ele>189.0</ele><time>2026-04-25T07:51:34.747Z</time></trkpt><trkpt lat="39.49540269325404" lon="16.275806070230086"><ele>189.0</ele><time>2026-04-25T07:51:35.747Z</time></trkpt><trkpt lat="39.49528318958076" lon="16.275727156071387"><ele>189.0</ele><time>2026-04-25T07:51:36.747Z</time></trkpt><trkpt lat="39.49517073652191" lon="16.275672683837588"><ele>188.75</ele><time>2026-04-25T07:51:37.747Z</time></trkpt><trkpt lat="39.49507853315448" lon="16.275606248914777"><ele>188.5</ele><time>2026-04-25T07:51:38.747Z</time></trkpt><trkpt lat="39.49498133190461" lon="16.275542747789462"><ele>188.25</ele><time>2026-04-25T07:51:39.747Z</time></trkpt><trkpt lat="39.49487840057158" lon="16.27547425230918"><ele>188.0</ele><time>2026-04-25T07:51:40.747Z</time></trkpt><trkpt lat="39.49477034366013" lon="16.275401541570545"><ele>187.5</ele><time>2026-04-25T07:51:41.747Z</time></trkpt><trkpt lat="39.494649815379226" lon="16.275317105942598"><ele>187.0</ele><time>2026-04-25T07:51:42.747Z</time></trkpt><trkpt lat="39.49452435694474" lon="16.275232151204747"><ele>186.5</ele><time>2026-04-25T07:51:43.747Z</time></trkpt><trkpt lat="39.49439730729646" lon="16.275147092876985"><ele>186.0</ele><time>2026-04-25T07:51:44.747Z</time></trkpt><trkpt lat="39.49427387242643" lon="16.27506623411239"><ele>186.75</ele><time>2026-04-25T07:51:45.747Z</time></trkpt><trkpt lat="39.49415934330741" lon="16.274991998489924"><ele>187.5</ele><time>2026-04-25T07:51:46.747Z</time></trkpt><trkpt lat="39.49405079508099" lon="16.27489878637733"><ele>188.25</ele><time>2026-04-25T07:51:47.747Z</time></trkpt><trkpt lat="39.49393377257476" lon="16.27482110143451"><ele>189.0</ele><time>2026-04-25T07:51:48.747Z</time></trkpt><trkpt lat="39.49380534006038" lon="16.27476266292774"><ele>189.5</ele><time>2026-04-25T07:51:49.747Z</time></trkpt><trkpt lat="39.493694816318666" lon="16.27469086672476"><ele>190.0</ele><time>2026-04-25T07:51:50.747Z</time></trkpt><trkpt lat="39.49358746304311" lon="16.274622211866593"><ele>190.5</ele><time>2026-04-25T07:51:51.747Z</time></trkpt><trkpt lat="39.493481582948284" lon="16.274561020411696"><ele>191.0</ele><time>2026-04-25T07:51:52.747Z</time></trkpt><trkpt lat="39.49338439109768" lon="16.274489147276473"><ele>191.0</ele><time>2026-04-25T07:51:53.747Z</time></trkpt><trkpt lat="39.493253992946244" lon="16.274440507956555"><ele>191.0</ele><time>2026-04-25T07:51:54.747Z</time></trkpt><trkpt lat="39.49312696415928" lon="16.274383694661857"><ele>191.0</ele><time>2026-04-25T07:51:55.747Z</time></trkpt><trkpt lat="39.49298043763104" lon="16.274331772211816"><ele>191.0</ele><time>2026-04-25T07:51:56.747Z</time></trkpt><trkpt lat="39.49283144811455" lon="16.274273927814757"><ele>191.0</ele><time>2026-04-25T07:51:57.747Z</time></trkpt><trkpt lat="39.49268387183074" lon="16.27420508587702"><ele>191.0</ele><time>2026-04-25T07:51:58.747Z</time></trkpt><trkpt lat="39.492530625879446" lon="16.274153226454"><ele>191.0</ele><time>2026-04-25T07:51:59.747Z</time></trkpt><trkpt lat="39.492383104080744" lon="16.274126263705945"><ele>191.0</ele><time>2026-04-25T07:52:00.747Z</time></trkpt><trkpt lat="39.492239134134415" lon="16.27409989085594"><ele>191.0</ele><time>2026-04-25T07:52:01.747Z</time></trkpt><trkpt lat="39.49209127113002" lon="16.27407190163428"><ele>191.0</ele><time>2026-04-25T07:52:02.747Z</time></trkpt><trkpt lat="39.49194266223438" lon="16.274052109700985"><ele>191.0</ele><time>2026-04-25T07:52:03.747Z</time></trkpt><trkpt lat="39.491796192524696" lon="16.27404654957615"><ele>191.33333333333331</ele><time>2026-04-25T07:52:04.747Z</time></trkpt><trkpt lat="39.49164410875944" lon="16.27404455010533"><ele>191.66666666666666</ele><time>2026-04-25T07:52:05.747Z</time></trkpt><trkpt lat="39.49149267265199" lon="16.27405219871783"><ele>192.0</ele><time>2026-04-25T07:52:06.747Z</time></trkpt><trkpt lat="39.491342258953786" lon="16.27405871445198"><ele>191.75</ele><time>2026-04-25T07:52:07.747Z</time></trkpt><trkpt lat="39.49119973496006" lon="16.27407860416527"><ele>191.5</ele><time>2026-04-25T07:52:08.747Z</time></trkpt><trkpt lat="39.491064824741635" lon="16.274098757461733"><ele>191.25</ele><time>2026-04-25T07:52:09.747Z</time></trkpt><trkpt lat="39.4909271794707" lon="16.27412952897762"><ele>191.0</ele><time>2026-04-25T07:52:10.747Z</time></trkpt><trkpt lat="39.49079157585687" lon="16.27416439531136"><ele>191.0</ele><time>2026-04-25T07:52:11.747Z</time></trkpt><trkpt lat="39.490659783793795" lon="16.274201634292975"><ele>191.0</ele><time>2026-04-25T07:52:12.747Z</time></trkpt><trkpt lat="39.490533387397676" lon="16.274243853882453"><ele>191.0</ele><time>2026-04-25T07:52:13.747Z</time></trkpt><trkpt lat="39.49041735999585" lon="16.27428427051551"><ele>191.0</ele><time>2026-04-25T07:52:14.747Z</time></trkpt><trkpt lat="39.49029808379028" lon="16.274324165502144"><ele>190.25</ele><time>2026-04-25T07:52:15.747Z</time></trkpt><trkpt lat="39.49017884132716" lon="16.27436275373768"><ele>189.5</ele><time>2026-04-25T07:52:16.747Z</time></trkpt><trkpt lat="39.4900562777881" lon="16.2744148544168"><ele>188.75</ele><time>2026-04-25T07:52:17.747Z</time></trkpt><trkpt lat="39.489931371167934" lon="16.274489976490347"><ele>188.0</ele><time>2026-04-25T07:52:18.747Z</time></trkpt><trkpt lat="39.48980067450594" lon="16.274569622284535"><ele>188.0</ele><time>2026-04-25T07:52:19.747Z</time></trkpt><trkpt lat="39.48966732143873" lon="16.274658460492002"><ele>188.0</ele><time>2026-04-25T07:52:20.747Z</time></trkpt><trkpt lat="39.48953377888396" lon="16.274752173705338"><ele>188.0</ele><time>2026-04-25T07:52:21.747Z</time></trkpt><trkpt lat="39.48939822570145" lon="16.274848562254203"><ele>188.25</ele><time>2026-04-25T07:52:22.747Z</time></trkpt><trkpt lat="39.48927220177747" lon="16.27493975797093"><ele>188.5</ele><time>2026-04-25T07:52:23.747Z</time></trkpt><trkpt lat="39.48915279559992" lon="16.275024034000634"><ele>188.75</ele><time>2026-04-25T07:52:24.747Z</time></trkpt><trkpt lat="39.48903689139535" lon="16.275099789944786"><ele>189.0</ele><time>2026-04-25T07:52:25.747Z</time></trkpt><trkpt lat="39.48891480422937" lon="16.275168328816946"><ele>189.0</ele><time>2026-04-25T07:52:26.747Z</time></trkpt><trkpt lat="39.4887929544193" lon="16.27523978261381"><ele>189.0</ele><time>2026-04-25T07:52:27.747Z</time></trkpt><trkpt lat="39.488678557474636" lon="16.275324188389234"><ele>189.0</ele><time>2026-04-25T07:52:28.747Z</time></trkpt><trkpt lat="39.48857136501388" lon="16.2754114096664"><ele>189.0</ele><time>2026-04-25T07:52:29.747Z</time></trkpt><trkpt lat="39.48847236620848" lon="16.275494414334407"><ele>188.75</ele><time>2026-04-25T07:52:30.747Z</time></trkpt><trkpt lat="39.488373669900696" lon="16.275594369912294"><ele>188.5</ele><time>2026-04-25T07:52:31.747Z</time></trkpt><trkpt lat="39.48827577707948" lon="16.275711930044384"><ele>188.25</ele><time>2026-04-25T07:52:32.747Z</time></trkpt><trkpt lat="39.4881820415795" lon="16.275835325052"><ele>188.0</ele><time>2026-04-25T07:52:33.747Z</time></trkpt><trkpt lat="39.488090321285014" lon="16.27596582101235"><ele>188.0</ele><time>2026-04-25T07:52:34.747Z</time></trkpt><trkpt lat="39.48799776832713" lon="16.276098086502177"><ele>188.0</ele><time>2026-04-25T07:52:35.747Z</time></trkpt><trkpt lat="39.487906475356006" lon="16.27623324486208"><ele>188.0</ele><time>2026-04-25T07:52:36.747Z</time></trkpt><trkpt lat="39.48781347273652" lon="16.27636783432171"><ele>188.0</ele><time>2026-04-25T07:52:37.747Z</time></trkpt><trkpt lat="39.4877234230645" lon="16.27649027823543"><ele>187.75</ele><time>2026-04-25T07:52:38.747Z</time></trkpt><trkpt lat="39.487621318525" lon="16.276586058736058"><ele>187.5</ele><time>2026-04-25T07:52:39.747Z</time></trkpt><trkpt lat="39.487536694873235" lon="16.27669075706923"><ele>187.25</ele><time>2026-04-25T07:52:40.747Z</time></trkpt><trkpt lat="39.487428169989435" lon="16.27675497216918"><ele>187.0</ele><time>2026-04-25T07:52:41.747Z</time></trkpt><trkpt lat="39.48730217999418" lon="16.2767924918338"><ele>187.0</ele><time>2026-04-25T07:52:42.747Z</time></trkpt><trkpt lat="39.487166531577174" lon="16.27680549370093"><ele>187.0</ele><time>2026-04-25T07:52:43.747Z</time></trkpt><trkpt lat="39.48702824726801" lon="16.276760826758647"><ele>187.0</ele><time>2026-04-25T07:52:44.747Z</time></trkpt><trkpt lat="39.48688965119134" lon="16.2766994758637"><ele>187.0</ele><time>2026-04-25T07:52:45.747Z</time></trkpt><trkpt lat="39.48673902930104" lon="16.276652604264694"><ele>187.0</ele><time>2026-04-25T07:52:46.747Z</time></trkpt><trkpt lat="39.486590207239416" lon="16.276569294754324"><ele>187.0</ele><time>2026-04-25T07:52:47.747Z</time></trkpt><trkpt lat="39.4864435575682" lon="16.276494453778955"><ele>187.0</ele><time>2026-04-25T07:52:48.747Z</time></trkpt><trkpt lat="39.48630907633777" lon="16.27643820732396"><ele>186.75</ele><time>2026-04-25T07:52:49.747Z</time></trkpt><trkpt lat="39.48619114919587" lon="16.276367987450417"><ele>186.5</ele><time>2026-04-25T07:52:50.747Z</time></trkpt><trkpt lat="39.48607411556129" lon="16.27633437369025"><ele>186.25</ele><time>2026-04-25T07:52:51.746Z</time></trkpt><trkpt lat="39.48596278823595" lon="16.27627117243795"><ele>186.0</ele><time>2026-04-25T07:52:52.746Z</time></trkpt><trkpt lat="39.485850106116324" lon="16.27620554524629"><ele>186.0</ele><time>2026-04-25T07:52:53.746Z</time></trkpt><trkpt lat="39.485735424158825" lon="16.276148364662376"><ele>186.0</ele><time>2026-04-25T07:52:54.746Z</time></trkpt><trkpt lat="39.48562946454237" lon="16.276093958969344"><ele>186.0</ele><time>2026-04-25T07:52:55.746Z</time></trkpt><trkpt lat="39.48552989864653" lon="16.276043442793174"><ele>186.0</ele><time>2026-04-25T07:52:56.746Z</time></trkpt><trkpt lat="39.48543056140941" lon="16.27601250890136"><ele>186.0</ele><time>2026-04-25T07:52:57.746Z</time></trkpt><trkpt lat="39.48532486545122" lon="16.27600747964181"><ele>185.75</ele><time>2026-04-25T07:52:58.746Z</time></trkpt><trkpt lat="39.48520882651051" lon="16.27604413420681"><ele>185.5</ele><time>2026-04-25T07:52:59.746Z</time></trkpt><trkpt lat="39.48509461710135" lon="16.27612587953707"><ele>185.25</ele><time>2026-04-25T07:53:00.746Z</time></trkpt><trkpt lat="39.48498661100828" lon="16.27622563530177"><ele>185.0</ele><time>2026-04-25T07:53:01.746Z</time></trkpt><trkpt lat="39.48488064943785" lon="16.276339866947435"><ele>185.75</ele><time>2026-04-25T07:53:02.746Z</time></trkpt><trkpt lat="39.48477702217605" lon="16.276451852235194"><ele>186.5</ele><time>2026-04-25T07:53:03.746Z</time></trkpt><trkpt lat="39.484680154549025" lon="16.276552592705727"><ele>187.25</ele><time>2026-04-25T07:53:04.746Z</time></trkpt><trkpt lat="39.4845856189243" lon="16.27664609650956"><ele>188.0</ele><time>2026-04-25T07:53:05.746Z</time></trkpt><trkpt lat="39.48449391354841" lon="16.276734285594323"><ele>186.4</ele><time>2026-04-25T07:53:06.746Z</time></trkpt><trkpt lat="39.48440740126926" lon="16.27682048675893"><ele>184.8</ele><time>2026-04-25T07:53:07.746Z</time></trkpt><trkpt lat="39.48432124886882" lon="16.276909297897113"><ele>183.2</ele><time>2026-04-25T07:53:08.746Z</time></trkpt><trkpt lat="39.484234258672345" lon="16.27699870530101"><ele>181.6</ele><time>2026-04-25T07:53:09.746Z</time></trkpt><trkpt lat="39.48414381195734" lon="16.277087899085203"><ele>180.0</ele><time>2026-04-25T07:53:10.746Z</time></trkpt><trkpt lat="39.48405343964439" lon="16.27717060459002"><ele>180.0</ele><time>2026-04-25T07:53:11.746Z</time></trkpt><trkpt lat="39.483966150033574" lon="16.277250764616802"><ele>180.0</ele><time>2026-04-25T07:53:12.746Z</time></trkpt><trkpt lat="39.48389281580734" lon="16.27734120549764"><ele>180.0</ele><time>2026-04-25T07:53:13.746Z</time></trkpt><trkpt lat="39.483840430054855" lon="16.277459247437882"><ele>180.0</ele><time>2026-04-25T07:53:14.746Z</time></trkpt><trkpt lat="39.483827722587385" lon="16.277612573779596"><ele>180.0</ele><time>2026-04-25T07:53:15.746Z</time></trkpt><trkpt lat="39.483863808961466" lon="16.277776333259073"><ele>181.75</ele><time>2026-04-25T07:53:16.746Z</time></trkpt><trkpt lat="39.483903623912745" lon="16.277944150467754"><ele>183.5</ele><time>2026-04-25T07:53:17.746Z</time></trkpt><trkpt lat="39.483936856331646" lon="16.278087380344083"><ele>185.25</ele><time>2026-04-25T07:53:18.746Z</time></trkpt><trkpt lat="39.48395721165432" lon="16.278223547251816"><ele>187.0</ele><time>2026-04-25T07:53:19.746Z</time></trkpt><trkpt lat="39.483952537469506" lon="16.278351350831283"><ele>187.2</ele><time>2026-04-25T07:53:20.746Z</time></trkpt><trkpt lat="39.483910256047935" lon="16.278456315114127"><ele>187.39999999999998</ele><time>2026-04-25T07:53:21.746Z</time></trkpt><trkpt lat="39.483835239418944" lon="16.27852733719016"><ele>187.60000000000002</ele><time>2026-04-25T07:53:22.746Z</time></trkpt><trkpt lat="39.4837484240093" lon="16.278582798540818"><ele>187.8</ele><time>2026-04-25T07:53:23.746Z</time></trkpt><trkpt lat="39.483663112046905" lon="16.27858819537964"><ele>188.0</ele><time>2026-04-25T07:53:24.746Z</time></trkpt><trkpt lat="39.48357873603199" lon="16.27854345162869"><ele>186.2</ele><time>2026-04-25T07:53:25.746Z</time></trkpt><trkpt lat="39.483499738603136" lon="16.27848122906785"><ele>184.4</ele><time>2026-04-25T07:53:26.746Z</time></trkpt><trkpt lat="39.48341751762085" lon="16.27844251385522"><ele>182.6</ele><time>2026-04-25T07:53:27.746Z</time></trkpt><trkpt lat="39.483323681755216" lon="16.278446856729257"><ele>180.79999999999998</ele><time>2026-04-25T07:53:28.746Z</time></trkpt><trkpt lat="39.48322288749834" lon="16.278497961157655"><ele>179.0</ele><time>2026-04-25T07:53:29.746Z</time></trkpt><trkpt lat="39.483125415162235" lon="16.278589450029767"><ele>179.0</ele><time>2026-04-25T07:53:30.746Z</time></trkpt><trkpt lat="39.48303554760797" lon="16.278719088526998"><ele>179.0</ele><time>2026-04-25T07:53:31.746Z</time></trkpt><trkpt lat="39.48295062571568" lon="16.278862940366654"><ele>179.0</ele><time>2026-04-25T07:53:32.746Z</time></trkpt><trkpt lat="39.48287570151767" lon="16.27901857559624"><ele>179.0</ele><time>2026-04-25T07:53:33.746Z</time></trkpt><trkpt lat="39.48280142709731" lon="16.27918514127425"><ele>178.5</ele><time>2026-04-25T07:53:34.746Z</time></trkpt><trkpt lat="39.48273509447866" lon="16.279358312494125"><ele>178.0</ele><time>2026-04-25T07:53:35.747Z</time></trkpt><trkpt lat="39.48265472677659" lon="16.279509222119554"><ele>177.5</ele><time>2026-04-25T07:53:36.747Z</time></trkpt><trkpt lat="39.48259189687884" lon="16.279657261468852"><ele>177.0</ele><time>2026-04-25T07:53:37.747Z</time></trkpt><trkpt lat="39.48252982815393" lon="16.27979648324852"><ele>178.5</ele><time>2026-04-25T07:53:38.747Z</time></trkpt><trkpt lat="39.48246648187122" lon="16.279927586782247"><ele>180.0</ele><time>2026-04-25T07:53:39.747Z</time></trkpt><trkpt lat="39.48240484245829" lon="16.28005319215704"><ele>181.5</ele><time>2026-04-25T07:53:40.747Z</time></trkpt><trkpt lat="39.48230038967954" lon="16.280125686837366"><ele>183.0</ele><time>2026-04-25T07:53:41.747Z</time></trkpt><trkpt lat="39.48218757836229" lon="16.28020706424052"><ele>180.25</ele><time>2026-04-25T07:53:42.747Z</time></trkpt><trkpt lat="39.482078720500326" lon="16.280296695323123"><ele>177.5</ele><time>2026-04-25T07:53:43.747Z</time></trkpt><trkpt lat="39.4819706315669" lon="16.280361405147726"><ele>174.75</ele><time>2026-04-25T07:53:44.747Z</time></trkpt><trkpt lat="39.48187786012205" lon="16.28043941380972"><ele>172.0</ele><time>2026-04-25T07:53:45.747Z</time></trkpt><trkpt lat="39.48179632209543" lon="16.28054323190323"><ele>173.75</ele><time>2026-04-25T07:53:46.747Z</time></trkpt><trkpt lat="39.48172092020041" lon="16.28066509070936"><ele>175.5</ele><time>2026-04-25T07:53:47.747Z</time></trkpt><trkpt lat="39.48165887638304" lon="16.280799493403315"><ele>177.25</ele><time>2026-04-25T07:53:48.747Z</time></trkpt><trkpt lat="39.481608047646105" lon="16.28094448832956"><ele>179.0</ele><time>2026-04-25T07:53:49.747Z</time></trkpt><trkpt lat="39.481566481633436" lon="16.281088800233775"><ele>179.0</ele><time>2026-04-25T07:53:50.747Z</time></trkpt><trkpt lat="39.48151610260709" lon="16.281213521732127"><ele>179.0</ele><time>2026-04-25T07:53:51.747Z</time></trkpt><trkpt lat="39.481472175851714" lon="16.281333602192"><ele>179.0</ele><time>2026-04-25T07:53:52.747Z</time></trkpt><trkpt lat="39.48141679811902" lon="16.281429435735948"><ele>179.0</ele><time>2026-04-25T07:53:53.747Z</time></trkpt><trkpt lat="39.48134127328201" lon="16.281511083943688"><ele>179.0</ele><time>2026-04-25T07:53:54.747Z</time></trkpt><trkpt lat="39.48125255666048" lon="16.28160171123147"><ele>179.0</ele><time>2026-04-25T07:53:55.747Z</time></trkpt><trkpt lat="39.481127293553705" lon="16.281641404158968"><ele>179.0</ele><time>2026-04-25T07:53:56.747Z</time></trkpt><trkpt lat="39.48100477955032" lon="16.281675264700056"><ele>179.0</ele><time>2026-04-25T07:53:57.747Z</time></trkpt><trkpt lat="39.48089122412945" lon="16.2817009520553"><ele>179.0</ele><time>2026-04-25T07:53:58.747Z</time></trkpt><trkpt lat="39.48078710705518" lon="16.28172650018288"><ele>179.0</ele><time>2026-04-25T07:53:59.747Z</time></trkpt><trkpt lat="39.48068851332928" lon="16.28176757671937"><ele>179.0</ele><time>2026-04-25T07:54:00.747Z</time></trkpt><trkpt lat="39.480591588553736" lon="16.28183068531502"><ele>179.0</ele><time>2026-04-25T07:54:01.747Z</time></trkpt><trkpt lat="39.48049499814374" lon="16.281902580000246"><ele>179.0</ele><time>2026-04-25T07:54:02.747Z</time></trkpt><trkpt lat="39.4803963663303" lon="16.281974578059955"><ele>179.0</ele><time>2026-04-25T07:54:03.747Z</time></trkpt><trkpt lat="39.48029473238318" lon="16.2820507256467"><ele>178.39999999999998</ele><time>2026-04-25T07:54:04.747Z</time></trkpt><trkpt lat="39.480202700835605" lon="16.282119052761985"><ele>177.8</ele><time>2026-04-25T07:54:05.747Z</time></trkpt><trkpt lat="39.48012790668462" lon="16.282193788740084"><ele>177.2</ele><time>2026-04-25T07:54:06.747Z</time></trkpt><trkpt lat="39.480069154470335" lon="16.28230200085458"><ele>176.60000000000002</ele><time>2026-04-25T07:54:07.747Z</time></trkpt><trkpt lat="39.48004588665286" lon="16.28244291736972"><ele>176.0</ele><time>2026-04-25T07:54:08.747Z</time></trkpt><trkpt lat="39.48005358204189" lon="16.282604518647677"><ele>177.83333333333331</ele><time>2026-04-25T07:54:09.747Z</time></trkpt><trkpt lat="39.480067346165534" lon="16.282742196114878"><ele>179.66666666666666</ele><time>2026-04-25T07:54:10.747Z</time></trkpt><trkpt lat="39.480086088418616" lon="16.282857531394445"><ele>181.5</ele><time>2026-04-25T07:54:11.747Z</time></trkpt><trkpt lat="39.48011024027149" lon="16.28295874296834"><ele>183.33333333333334</ele><time>2026-04-25T07:54:12.747Z</time></trkpt><trkpt lat="39.48011336561784" lon="16.283041607185563"><ele>185.16666666666669</ele><time>2026-04-25T07:54:13.747Z</time></trkpt><trkpt lat="39.480145846477534" lon="16.28315475431608"><ele>187.0</ele><time>2026-04-25T07:54:15.747Z</time></trkpt><trkpt lat="39.48012650859281" lon="16.283267718010055"><ele>188.66666666666669</ele><time>2026-04-25T07:54:17.746Z</time></trkpt><trkpt lat="39.48013530251322" lon="16.283373094196524"><ele>190.33333333333334</ele><time>2026-04-25T07:54:19.746Z</time></trkpt><trkpt lat="39.48020400253678" lon="16.2834651953022"><ele>192.0</ele><time>2026-04-25T07:54:21.746Z</time></trkpt><trkpt lat="39.48026540256988" lon="16.28354667423863"><ele>193.66666666666669</ele><time>2026-04-25T07:54:23.746Z</time></trkpt><trkpt lat="39.4803417067344" lon="16.283627602887826"><ele>195.33333333333334</ele><time>2026-04-25T07:54:25.746Z</time></trkpt><trkpt lat="39.480398385874864" lon="16.283687717116255"><ele>197.0</ele><time>2026-04-25T07:54:26.746Z</time></trkpt><trkpt lat="39.48046408578539" lon="16.283743072536012"><ele>198.66666666666669</ele><time>2026-04-25T07:54:27.746Z</time></trkpt><trkpt lat="39.48052741557782" lon="16.283815651493615"><ele>200.33333333333334</ele><time>2026-04-25T07:54:28.746Z</time></trkpt><trkpt lat="39.48059632243025" lon="16.283890709385112"><ele>202.0</ele><time>2026-04-25T07:54:29.746Z</time></trkpt><trkpt lat="39.480670248114215" lon="16.283973099869808"><ele>203.66666666666669</ele><time>2026-04-25T07:54:30.746Z</time></trkpt><trkpt lat="39.480730812860905" lon="16.284034054846156"><ele>205.33333333333334</ele><time>2026-04-25T07:54:31.746Z</time></trkpt><trkpt lat="39.48079347303384" lon="16.28412019140495"><ele>207.0</ele><time>2026-04-25T07:54:33.746Z</time></trkpt><trkpt lat="39.48084201807138" lon="16.28417400399639"><ele>207.6</ele><time>2026-04-25T07:54:36.746Z</time></trkpt><trkpt lat="39.480898397204534" lon="16.28425391442783"><ele>208.2</ele><time>2026-04-25T07:54:39.746Z</time></trkpt><trkpt lat="39.4809065540251" lon="16.284360668601597"><ele>208.8</ele><time>2026-04-25T07:54:42.746Z</time></trkpt><trkpt lat="39.48100080286629" lon="16.28448087601445"><ele>209.4</ele><time>2026-04-25T07:54:44.746Z</time></trkpt><trkpt lat="39.481101186657625" lon="16.28452418073452"><ele>210.0</ele><time>2026-04-25T07:54:45.746Z</time></trkpt><trkpt lat="39.48121440481727" lon="16.28455696208649"><ele>210.6</ele><time>2026-04-25T07:54:46.746Z</time></trkpt><trkpt lat="39.4813381184346" lon="16.28457034948611"><ele>211.2</ele><time>2026-04-25T07:54:47.746Z</time></trkpt><trkpt lat="39.481433920448886" lon="16.284549820142487"><ele>211.8</ele><time>2026-04-25T07:54:48.746Z</time></trkpt><trkpt lat="39.481505523828346" lon="16.284500471003064"><ele>212.4</ele><time>2026-04-25T07:54:49.746Z</time></trkpt><trkpt lat="39.48157086676605" lon="16.284448195201772"><ele>213.0</ele><time>2026-04-25T07:54:50.746Z</time></trkpt><trkpt lat="39.48164387397301" lon="16.28440805870651"><ele>213.0</ele><time>2026-04-25T07:54:51.746Z</time></trkpt><trkpt lat="39.48171657487852" lon="16.28438540687916"><ele>213.0</ele><time>2026-04-25T07:54:52.746Z</time></trkpt><trkpt lat="39.48178750024509" lon="16.284399177651874"><ele>213.0</ele><time>2026-04-25T07:54:53.746Z</time></trkpt><trkpt lat="39.48185658006667" lon="16.284457686164266"><ele>213.0</ele><time>2026-04-25T07:54:54.746Z</time></trkpt><trkpt lat="39.48189508156216" lon="16.28458806648694"><ele>213.0</ele><time>2026-04-25T07:54:55.746Z</time></trkpt><trkpt lat="39.4819513369396" lon="16.284742583686157"><ele>214.5</ele><time>2026-04-25T07:54:56.746Z</time></trkpt><trkpt lat="39.481971444140235" lon="16.284895179755356"><ele>216.0</ele><time>2026-04-25T07:54:57.746Z</time></trkpt><trkpt lat="39.48192023422392" lon="16.285030803439017"><ele>217.5</ele><time>2026-04-25T07:54:58.746Z</time></trkpt><trkpt lat="39.48186094392642" lon="16.285199685801825"><ele>219.0</ele><time>2026-04-25T07:54:59.746Z</time></trkpt><trkpt lat="39.48179182477557" lon="16.2853766434388"><ele>219.0</ele><time>2026-04-25T07:55:00.746Z</time></trkpt><trkpt lat="39.48172467899139" lon="16.28549875655819"><ele>218.99999999999997</ele><time>2026-04-25T07:55:01.746Z</time></trkpt><trkpt lat="39.48165447363387" lon="16.285576470694625"><ele>218.99999999999997</ele><time>2026-04-25T07:55:02.746Z</time></trkpt><trkpt lat="39.481589624621044" lon="16.28565716260644"><ele>219.0</ele><time>2026-04-25T07:55:03.746Z</time></trkpt><trkpt lat="39.48151121475547" lon="16.285726791566322"><ele>219.0</ele><time>2026-04-25T07:55:04.746Z</time></trkpt><trkpt lat="39.48142357197289" lon="16.285795975088842"><ele>222.0</ele><time>2026-04-25T07:55:05.746Z</time></trkpt><trkpt lat="39.48131006425752" lon="16.28586051002078"><ele>225.0</ele><time>2026-04-25T07:55:06.746Z</time></trkpt><trkpt lat="39.48117366556567" lon="16.285914845755716"><ele>228.0</ele><time>2026-04-25T07:55:07.746Z</time></trkpt><trkpt lat="39.48103068037498" lon="16.28596386388003"><ele>231.0</ele><time>2026-04-25T07:55:08.746Z</time></trkpt><trkpt lat="39.480907309921584" lon="16.286009213035683"><ele>231.0</ele><time>2026-04-25T07:55:09.746Z</time></trkpt><trkpt lat="39.480793763804435" lon="16.286047188017026"><ele>231.00000000000003</ele><time>2026-04-25T07:55:10.746Z</time></trkpt><trkpt lat="39.480690874182706" lon="16.286062301069855"><ele>231.00000000000003</ele><time>2026-04-25T07:55:11.746Z</time></trkpt><trkpt lat="39.480599783359715" lon="16.28604690952458"><ele>231.0</ele><time>2026-04-25T07:55:12.746Z</time></trkpt><trkpt lat="39.48051923769082" lon="16.28600710759925"><ele>231.0</ele><time>2026-04-25T07:55:13.746Z</time></trkpt><trkpt lat="39.480438413825055" lon="16.28596227188559"><ele>230.66666666666666</ele><time>2026-04-25T07:55:14.746Z</time></trkpt><trkpt lat="39.48034788400814" lon="16.285942487284252"><ele>230.33333333333331</ele><time>2026-04-25T07:55:15.746Z</time></trkpt><trkpt lat="39.480281182394876" lon="16.285984254830947"><ele>230.0</ele><time>2026-04-25T07:55:16.746Z</time></trkpt><trkpt lat="39.48022103093968" lon="16.286073012922834"><ele>229.66666666666666</ele><time>2026-04-25T07:55:17.746Z</time></trkpt><trkpt lat="39.48020560166017" lon="16.286180556503272"><ele>229.33333333333331</ele><time>2026-04-25T07:55:18.746Z</time></trkpt><trkpt lat="39.48020408734971" lon="16.286303152774643"><ele>229.0</ele><time>2026-04-25T07:55:19.746Z</time></trkpt><trkpt lat="39.48028010938107" lon="16.2864220447499"><ele>233.5</ele><time>2026-04-25T07:55:20.746Z</time></trkpt><trkpt lat="39.48038484969164" lon="16.286473789422473"><ele>238.0</ele><time>2026-04-25T07:55:21.746Z</time></trkpt><trkpt lat="39.480509877626105" lon="16.286462468302297"><ele>242.5</ele><time>2026-04-25T07:55:22.746Z</time></trkpt><trkpt lat="39.480662987598215" lon="16.28646349133895"><ele>247.0</ele><time>2026-04-25T07:55:23.746Z</time></trkpt><trkpt lat="39.48079945222447" lon="16.286448763549515"><ele>248.2</ele><time>2026-04-25T07:55:24.746Z</time></trkpt><trkpt lat="39.48090839071288" lon="16.286457148670635"><ele>249.39999999999998</ele><time>2026-04-25T07:55:25.746Z</time></trkpt><trkpt lat="39.48099966950291" lon="16.286493496935694"><ele>250.60000000000002</ele><time>2026-04-25T07:55:26.746Z</time></trkpt><trkpt lat="39.48109639385294" lon="16.286523444305622"><ele>251.8</ele><time>2026-04-25T07:55:27.746Z</time></trkpt><trkpt lat="39.48120297263905" lon="16.28656600011426"><ele>253.0</ele><time>2026-04-25T07:55:28.746Z</time></trkpt><trkpt lat="39.481313131519855" lon="16.28661609246518"><ele>253.0</ele><time>2026-04-25T07:55:29.746Z</time></trkpt><trkpt lat="39.481421512474164" lon="16.28664615775849"><ele>253.0</ele><time>2026-04-25T07:55:30.746Z</time></trkpt><trkpt lat="39.48150463331447" lon="16.286694770924488"><ele>253.0</ele><time>2026-04-25T07:55:31.746Z</time></trkpt><trkpt lat="39.481577970649944" lon="16.286760616603328"><ele>253.0</ele><time>2026-04-25T07:55:32.746Z</time></trkpt><trkpt lat="39.4816433317011" lon="16.286869136856623"><ele>253.0</ele><time>2026-04-25T07:55:33.746Z</time></trkpt><trkpt lat="39.48169166417955" lon="16.28701566670914"><ele>253.0</ele><time>2026-04-25T07:55:34.746Z</time></trkpt><trkpt lat="39.48174394750113" lon="16.287173307312337"><ele>253.0</ele><time>2026-04-25T07:55:35.746Z</time></trkpt><trkpt lat="39.481822328692324" lon="16.287310881063767"><ele>253.0</ele><time>2026-04-25T07:55:36.746Z</time></trkpt><trkpt lat="39.481936911773964" lon="16.287434432504522"><ele>253.0</ele><time>2026-04-25T07:55:37.746Z</time></trkpt><trkpt lat="39.48205681999552" lon="16.287536320664138"><ele>254.25</ele><time>2026-04-25T07:55:38.746Z</time></trkpt><trkpt lat="39.48215567835637" lon="16.287626920656436"><ele>255.5</ele><time>2026-04-25T07:55:39.746Z</time></trkpt><trkpt lat="39.48224234361505" lon="16.287736986104115"><ele>256.75</ele><time>2026-04-25T07:55:40.746Z</time></trkpt><trkpt lat="39.4823235193833" lon="16.287882920815566"><ele>258.0</ele><time>2026-04-25T07:55:41.746Z</time></trkpt><trkpt lat="39.48239949953151" lon="16.288052934620787"><ele>265.6666666666667</ele><time>2026-04-25T07:55:42.746Z</time></trkpt><trkpt lat="39.48248226271526" lon="16.288221218454694"><ele>273.33333333333337</ele><time>2026-04-25T07:55:43.746Z</time></trkpt><trkpt lat="39.48258456696946" lon="16.288358952072638"><ele>281.0</ele><time>2026-04-25T07:55:44.746Z</time></trkpt><trkpt lat="39.48271169440695" lon="16.288466795068743"><ele>281.0</ele><time>2026-04-25T07:55:45.746Z</time></trkpt><trkpt lat="39.48283961557077" lon="16.28853677419496"><ele>281.0</ele><time>2026-04-25T07:55:46.746Z</time></trkpt><trkpt lat="39.48295492961873" lon="16.288614003550016"><ele>281.0</ele><time>2026-04-25T07:55:47.746Z</time></trkpt><trkpt lat="39.483064672586806" lon="16.288740606656265"><ele>281.0</ele><time>2026-04-25T07:55:48.746Z</time></trkpt><trkpt lat="39.48316222685301" lon="16.288901786440775"><ele>281.25</ele><time>2026-04-25T07:55:49.746Z</time></trkpt><trkpt lat="39.4832423418048" lon="16.289080060247006"><ele>281.5</ele><time>2026-04-25T07:55:50.746Z</time></trkpt><trkpt lat="39.48328376093878" lon="16.28923732111526"><ele>281.75</ele><time>2026-04-25T07:55:51.746Z</time></trkpt><trkpt lat="39.48330753293763" lon="16.289377987748377"><ele>282.0</ele><time>2026-04-25T07:55:52.746Z</time></trkpt><trkpt lat="39.48331444134426" lon="16.289521071567293"><ele>282.0</ele><time>2026-04-25T07:55:53.746Z</time></trkpt><trkpt lat="39.48331053362945" lon="16.28967232114825"><ele>282.0</ele><time>2026-04-25T07:55:54.746Z</time></trkpt><trkpt lat="39.48329536211914" lon="16.289813276458798"><ele>282.0</ele><time>2026-04-25T07:55:55.746Z</time></trkpt><trkpt lat="39.48327341920594" lon="16.289931610651298"><ele>282.0</ele><time>2026-04-25T07:55:56.746Z</time></trkpt><trkpt lat="39.48323828159733" lon="16.290034108758842"><ele>282.0</ele><time>2026-04-25T07:55:57.746Z</time></trkpt><trkpt lat="39.48317655288381" lon="16.29012580535601"><ele>285.75</ele><time>2026-04-25T07:55:58.746Z</time></trkpt><trkpt lat="39.48308618138125" lon="16.2901865572534"><ele>289.5</ele><time>2026-04-25T07:55:59.746Z</time></trkpt><trkpt lat="39.48297956966151" lon="16.29019963087561"><ele>293.25</ele><time>2026-04-25T07:56:00.746Z</time></trkpt><trkpt lat="39.482836660947875" lon="16.290084940153978"><ele>297.0</ele><time>2026-04-25T07:56:02.746Z</time></trkpt><trkpt lat="39.48278650705735" lon="16.289959671180238"><ele>299.75</ele><time>2026-04-25T07:56:03.746Z</time></trkpt><trkpt lat="39.48279921952321" lon="16.28981429875431"><ele>302.5</ele><time>2026-04-25T07:56:04.746Z</time></trkpt><trkpt lat="39.48284571149465" lon="16.289663573135247"><ele>305.25</ele><time>2026-04-25T07:56:05.746Z</time></trkpt><trkpt lat="39.48288226644843" lon="16.28948342922465"><ele>308.0</ele><time>2026-04-25T07:56:06.746Z</time></trkpt><trkpt lat="39.482890170003344" lon="16.28929660782349"><ele>308.0</ele><time>2026-04-25T07:56:07.746Z</time></trkpt><trkpt lat="39.4828744946216" lon="16.289150396269783"><ele>308.0</ele><time>2026-04-25T07:56:08.746Z</time></trkpt><trkpt lat="39.482816822590024" lon="16.28904350789408"><ele>308.0</ele><time>2026-04-25T07:56:09.746Z</time></trkpt><trkpt lat="39.482717871354204" lon="16.288960601491926"><ele>308.0</ele><time>2026-04-25T07:56:10.746Z</time></trkpt><trkpt lat="39.48259933186427" lon="16.288926123537934"><ele>301.25</ele><time>2026-04-25T07:56:11.746Z</time></trkpt><trkpt lat="39.48246515336212" lon="16.288918230723205"><ele>294.5</ele><time>2026-04-25T07:56:12.746Z</time></trkpt><trkpt lat="39.48234156844773" lon="16.288911379723622"><ele>287.75</ele><time>2026-04-25T07:56:13.746Z</time></trkpt><trkpt lat="39.48223755571953" lon="16.288893434202357"><ele>281.0</ele><time>2026-04-25T07:56:14.746Z</time></trkpt><trkpt lat="39.48214870234032" lon="16.28887480144391"><ele>285.2</ele><time>2026-04-25T07:56:15.746Z</time></trkpt><trkpt lat="39.48206848581361" lon="16.288853498038232"><ele>289.40000000000003</ele><time>2026-04-25T07:56:16.746Z</time></trkpt><trkpt lat="39.481972494963216" lon="16.28882773354129"><ele>293.6</ele><time>2026-04-25T07:56:17.746Z</time></trkpt><trkpt lat="39.48186546432958" lon="16.288785277162656"><ele>297.8</ele><time>2026-04-25T07:56:18.746Z</time></trkpt><trkpt lat="39.48175112311531" lon="16.288725569504503"><ele>302.0</ele><time>2026-04-25T07:56:19.746Z</time></trkpt><trkpt lat="39.481636679731" lon="16.28866553270442"><ele>302.0</ele><time>2026-04-25T07:56:20.746Z</time></trkpt><trkpt lat="39.48155062921685" lon="16.288613535421415"><ele>302.0</ele><time>2026-04-25T07:56:21.746Z</time></trkpt><trkpt lat="39.481475755877206" lon="16.28856979348383"><ele>302.0</ele><time>2026-04-25T07:56:22.746Z</time></trkpt><trkpt lat="39.48139758940629" lon="16.28853429727382"><ele>302.0</ele><time>2026-04-25T07:56:23.746Z</time></trkpt><trkpt lat="39.48131569508946" lon="16.288526980972556"><ele>302.0</ele><time>2026-04-25T07:56:24.746Z</time></trkpt><trkpt lat="39.48124629721427" lon="16.288570575487118"><ele>302.0</ele><time>2026-04-25T07:56:25.746Z</time></trkpt><trkpt lat="39.4812071945122" lon="16.28866893773402"><ele>300.0</ele><time>2026-04-25T07:56:26.746Z</time></trkpt><trkpt lat="39.48121169876925" lon="16.28880190581525"><ele>298.0</ele><time>2026-04-25T07:56:27.746Z</time></trkpt><trkpt lat="39.48126710321612" lon="16.288937289076934"><ele>296.0</ele><time>2026-04-25T07:56:28.746Z</time></trkpt><trkpt lat="39.48136390577053" lon="16.2890701400125"><ele>294.0</ele><time>2026-04-25T07:56:29.746Z</time></trkpt><trkpt lat="39.48145918488219" lon="16.28922042649717"><ele>298.8</ele><time>2026-04-25T07:56:30.746Z</time></trkpt><trkpt lat="39.481525266504136" lon="16.289394558592097"><ele>303.59999999999997</ele><time>2026-04-25T07:56:31.746Z</time></trkpt><trkpt lat="39.48160005968657" lon="16.289509945131456"><ele>308.4</ele><time>2026-04-25T07:56:32.746Z</time></trkpt><trkpt lat="39.48162642088798" lon="16.28963134725668"><ele>313.2</ele><time>2026-04-25T07:56:33.746Z</time></trkpt><trkpt lat="39.481645463739135" lon="16.289732923705714"><ele>318.0</ele><time>2026-04-25T07:56:34.746Z</time></trkpt><trkpt lat="39.48164181310152" lon="16.289828904996565"><ele>320.2</ele><time>2026-04-25T07:56:35.746Z</time></trkpt><trkpt lat="39.481633670990384" lon="16.289937977489842"><ele>322.4</ele><time>2026-04-25T07:56:36.746Z</time></trkpt><trkpt lat="39.4815624273247" lon="16.29001125919006"><ele>324.59999999999997</ele><time>2026-04-25T07:56:37.746Z</time></trkpt><trkpt lat="39.481476214799216" lon="16.290058871408473"><ele>326.8</ele><time>2026-04-25T07:56:38.746Z</time></trkpt><trkpt lat="39.48137466727633" lon="16.290043398924134"><ele>329.0</ele><time>2026-04-25T07:56:39.746Z</time></trkpt><trkpt lat="39.48124839004037" lon="16.290000424763985"><ele>329.0</ele><time>2026-04-25T07:56:40.746Z</time></trkpt><trkpt lat="39.481110976638924" lon="16.289972343726916"><ele>329.0</ele><time>2026-04-25T07:56:41.746Z</time></trkpt><trkpt lat="39.48098654589638" lon="16.289944242475183"><ele>329.0</ele><time>2026-04-25T07:56:42.746Z</time></trkpt><trkpt lat="39.48086398456162" lon="16.289919847467395"><ele>329.0</ele><time>2026-04-25T07:56:43.746Z</time></trkpt><trkpt lat="39.48073986891248" lon="16.289914104682083"><ele>329.0</ele><time>2026-04-25T07:56:44.746Z</time></trkpt><trkpt lat="39.4806092862728" lon="16.289930536454122"><ele>329.0</ele><time>2026-04-25T07:56:45.746Z</time></trkpt><trkpt lat="39.48048693873842" lon="16.289990337866804"><ele>329.0</ele><time>2026-04-25T07:56:46.746Z</time></trkpt><trkpt lat="39.48037644845611" lon="16.29006244958812"><ele>329.0</ele><time>2026-04-25T07:56:47.746Z</time></trkpt><trkpt lat="39.48028563707269" lon="16.290122000982272"><ele>328.5</ele><time>2026-04-25T07:56:48.746Z</time></trkpt><trkpt lat="39.48018510851608" lon="16.290164416121996"><ele>328.0</ele><time>2026-04-25T07:56:49.746Z</time></trkpt><trkpt lat="39.480069394741875" lon="16.29017098480886"><ele>327.5</ele><time>2026-04-25T07:56:50.746Z</time></trkpt><trkpt lat="39.47995318386507" lon="16.2900802514606"><ele>327.0</ele><time>2026-04-25T07:56:51.746Z</time></trkpt><trkpt lat="39.47980234760538" lon="16.290040349432257"><ele>327.0</ele><time>2026-04-25T07:56:52.746Z</time></trkpt><trkpt lat="39.47968603780932" lon="16.289971598119592"><ele>327.0</ele><time>2026-04-25T07:56:53.746Z</time></trkpt><trkpt lat="39.47958153613033" lon="16.289939783736983"><ele>327.0</ele><time>2026-04-25T07:56:54.746Z</time></trkpt><trkpt lat="39.47949128514809" lon="16.28996343738426"><ele>327.0</ele><time>2026-04-25T07:56:55.746Z</time></trkpt><trkpt lat="39.47941507201478" lon="16.290040741563562"><ele>327.0</ele><time>2026-04-25T07:56:56.746Z</time></trkpt><trkpt lat="39.479372004079025" lon="16.29016939409878"><ele>326.75</ele><time>2026-04-25T07:56:57.746Z</time></trkpt><trkpt lat="39.479381094233474" lon="16.290351910784604"><ele>326.5</ele><time>2026-04-25T07:56:58.746Z</time></trkpt><trkpt lat="39.479387793550366" lon="16.290520614375982"><ele>326.25</ele><time>2026-04-25T07:56:59.746Z</time></trkpt><trkpt lat="39.479397989413386" lon="16.290683785659464"><ele>326.0</ele><time>2026-04-25T07:57:00.746Z</time></trkpt><trkpt lat="39.47940920312922" lon="16.29082835136498"><ele>326.0</ele><time>2026-04-25T07:57:01.746Z</time></trkpt><trkpt lat="39.47943026764283" lon="16.29095879252845"><ele>326.0</ele><time>2026-04-25T07:57:02.746Z</time></trkpt><trkpt lat="39.47946946122167" lon="16.291091699652565"><ele>326.0</ele><time>2026-04-25T07:57:03.746Z</time></trkpt><trkpt lat="39.47952554536008" lon="16.2912267847087"><ele>326.0</ele><time>2026-04-25T07:57:04.746Z</time></trkpt><trkpt lat="39.47958875909433" lon="16.29135810509377"><ele>331.75</ele><time>2026-04-25T07:57:05.746Z</time></trkpt><trkpt lat="39.47966039169703" lon="16.29148563586731"><ele>337.5</ele><time>2026-04-25T07:57:06.746Z</time></trkpt><trkpt lat="39.47974247955317" lon="16.291598652488368"><ele>343.25</ele><time>2026-04-25T07:57:07.746Z</time></trkpt><trkpt lat="39.479835734145034" lon="16.291693283457906"><ele>349.0</ele><time>2026-04-25T07:57:08.746Z</time></trkpt><trkpt lat="39.47993369328675" lon="16.29177712171892"><ele>349.0</ele><time>2026-04-25T07:57:09.746Z</time></trkpt><trkpt lat="39.480030534742234" lon="16.29186371019434"><ele>349.0</ele><time>2026-04-25T07:57:10.746Z</time></trkpt><trkpt lat="39.48012547524058" lon="16.29194595363118"><ele>349.0</ele><time>2026-04-25T07:57:11.746Z</time></trkpt><trkpt lat="39.48022093728066" lon="16.2920281202966"><ele>349.0</ele><time>2026-04-25T07:57:12.746Z</time></trkpt><trkpt lat="39.480320447334734" lon="16.292098297574924"><ele>349.0</ele><time>2026-04-25T07:57:13.746Z</time></trkpt><trkpt lat="39.4804315871734" lon="16.29216522286977"><ele>349.0</ele><time>2026-04-25T07:57:14.746Z</time></trkpt><trkpt lat="39.48054995655463" lon="16.292228248710064"><ele>349.0</ele><time>2026-04-25T07:57:15.746Z</time></trkpt><trkpt lat="39.48066690838262" lon="16.292295233534706"><ele>349.0</ele><time>2026-04-25T07:57:16.746Z</time></trkpt><trkpt lat="39.48078744313325" lon="16.29236000517588"><ele>349.75</ele><time>2026-04-25T07:57:17.746Z</time></trkpt><trkpt lat="39.48090163440665" lon="16.292411268781994"><ele>350.5</ele><time>2026-04-25T07:57:18.746Z</time></trkpt><trkpt lat="39.481012364174724" lon="16.29244627344621"><ele>351.25</ele><time>2026-04-25T07:57:19.746Z</time></trkpt><trkpt lat="39.48113051529591" lon="16.292464422541755"><ele>352.0</ele><time>2026-04-25T07:57:20.746Z</time></trkpt><trkpt lat="39.48125810160472" lon="16.292467384168372"><ele>354.0</ele><time>2026-04-25T07:57:21.746Z</time></trkpt><trkpt lat="39.4813983497369" lon="16.29244376563536"><ele>356.0</ele><time>2026-04-25T07:57:22.746Z</time></trkpt><trkpt lat="39.481549141110236" lon="16.292386074917314"><ele>358.0</ele><time>2026-04-25T07:57:23.746Z</time></trkpt><trkpt lat="39.48168816176618" lon="16.29234283070646"><ele>360.0</ele><time>2026-04-25T07:57:24.745Z</time></trkpt><trkpt lat="39.48180740597349" lon="16.292304638086115"><ele>360.0</ele><time>2026-04-25T07:57:25.745Z</time></trkpt><trkpt lat="39.48191530818637" lon="16.292269269308104"><ele>360.0</ele><time>2026-04-25T07:57:26.745Z</time></trkpt><trkpt lat="39.48201926551047" lon="16.292232518433345"><ele>360.0</ele><time>2026-04-25T07:57:27.745Z</time></trkpt><trkpt lat="39.482119655193856" lon="16.29218793498356"><ele>360.0</ele><time>2026-04-25T07:57:28.745Z</time></trkpt><trkpt lat="39.482222565883184" lon="16.292138275565236"><ele>360.0</ele><time>2026-04-25T07:57:29.745Z</time></trkpt><trkpt lat="39.48233408736601" lon="16.29208915690913"><ele>359.4</ele><time>2026-04-25T07:57:30.745Z</time></trkpt><trkpt lat="39.482443102087835" lon="16.29204943885555"><ele>358.8</ele><time>2026-04-25T07:57:31.745Z</time></trkpt><trkpt lat="39.482550983581945" lon="16.29203350930489"><ele>358.20000000000005</ele><time>2026-04-25T07:57:32.745Z</time></trkpt><trkpt lat="39.482643540458746" lon="16.292067460901002"><ele>357.6</ele><time>2026-04-25T07:57:33.745Z</time></trkpt><trkpt lat="39.48273156655991" lon="16.29216484148267"><ele>357.0</ele><time>2026-04-25T07:57:34.745Z</time></trkpt><trkpt lat="39.48281622350263" lon="16.29229466979522"><ele>359.6666666666667</ele><time>2026-04-25T07:57:35.745Z</time></trkpt><trkpt lat="39.482902479840085" lon="16.29245010669255"><ele>362.33333333333337</ele><time>2026-04-25T07:57:36.745Z</time></trkpt><trkpt lat="39.48301162980043" lon="16.29260596863673"><ele>365.0</ele><time>2026-04-25T07:57:37.745Z</time></trkpt><trkpt lat="39.48314405582276" lon="16.292748457671323"><ele>365.0</ele><time>2026-04-25T07:57:38.745Z</time></trkpt><trkpt lat="39.483286810418555" lon="16.292873588044596"><ele>365.0</ele><time>2026-04-25T07:57:39.745Z</time></trkpt><trkpt lat="39.483415790657155" lon="16.29297547664469"><ele>365.0</ele><time>2026-04-25T07:57:40.745Z</time></trkpt><trkpt lat="39.48352883945134" lon="16.293063110734693"><ele>367.75</ele><time>2026-04-25T07:57:41.745Z</time></trkpt><trkpt lat="39.48363916989067" lon="16.293138741064226"><ele>370.5</ele><time>2026-04-25T07:57:42.745Z</time></trkpt><trkpt lat="39.48375703214331" lon="16.293172296850557"><ele>373.25</ele><time>2026-04-25T07:57:43.745Z</time></trkpt><trkpt lat="39.48389369671641" lon="16.293161556009935"><ele>376.0</ele><time>2026-04-25T07:57:44.745Z</time></trkpt><trkpt lat="39.48403566769405" lon="16.293112301213935"><ele>378.25</ele><time>2026-04-25T07:57:45.745Z</time></trkpt><trkpt lat="39.484180759977846" lon="16.293060067843435"><ele>380.5</ele><time>2026-04-25T07:57:46.746Z</time></trkpt><trkpt lat="39.48430662733718" lon="16.293038166727182"><ele>382.75</ele><time>2026-04-25T07:57:47.746Z</time></trkpt><trkpt lat="39.484425104483016" lon="16.293082734939027"><ele>385.0</ele><time>2026-04-25T07:57:48.746Z</time></trkpt><trkpt lat="39.484544598651276" lon="16.293146547025422"><ele>380.5</ele><time>2026-04-25T07:57:49.746Z</time></trkpt><trkpt lat="39.484637657193" lon="16.293260329421496"><ele>376.0</ele><time>2026-04-25T07:57:50.746Z</time></trkpt><trkpt lat="39.48470910749683" lon="16.293395081154088"><ele>371.5</ele><time>2026-04-25T07:57:51.746Z</time></trkpt><trkpt lat="39.4847299097887" lon="16.293575722232884"><ele>367.0</ele><time>2026-04-25T07:57:52.746Z</time></trkpt><trkpt lat="39.48471798548481" lon="16.293771369994285"><ele>370.3333333333333</ele><time>2026-04-25T07:57:53.746Z</time></trkpt><trkpt lat="39.484662293803034" lon="16.293959205352223"><ele>373.6666666666667</ele><time>2026-04-25T07:57:54.746Z</time></trkpt><trkpt lat="39.4846242857043" lon="16.29415782903946"><ele>377.0</ele><time>2026-04-25T07:57:55.746Z</time></trkpt><trkpt lat="39.48460642251219" lon="16.29436506199013"><ele>377.0</ele><time>2026-04-25T07:57:56.746Z</time></trkpt><trkpt lat="39.48462908507062" lon="16.294564908316396"><ele>377.0</ele><time>2026-04-25T07:57:57.746Z</time></trkpt><trkpt lat="39.48466906975039" lon="16.294748646507042"><ele>377.0</ele><time>2026-04-25T07:57:58.746Z</time></trkpt><trkpt lat="39.48470731871352" lon="16.294916466232927"><ele>377.0</ele><time>2026-04-25T07:57:59.746Z</time></trkpt><trkpt lat="39.48474234375493" lon="16.295076760986028"><ele>377.5</ele><time>2026-04-25T07:58:00.746Z</time></trkpt><trkpt lat="39.48477231828299" lon="16.29522879441717"><ele>378.0</ele><time>2026-04-25T07:58:01.746Z</time></trkpt><trkpt lat="39.484798233985046" lon="16.295371590892472"><ele>378.5</ele><time>2026-04-25T07:58:02.746Z</time></trkpt><trkpt lat="39.48482203924218" lon="16.295518462144518"><ele>379.0</ele><time>2026-04-25T07:58:03.746Z</time></trkpt><trkpt lat="39.484848175020694" lon="16.295651103709744"><ele>380.0</ele><time>2026-04-25T07:58:04.746Z</time></trkpt><trkpt lat="39.48489099036619" lon="16.29576718819039"><ele>381.0</ele><time>2026-04-25T07:58:05.746Z</time></trkpt><trkpt lat="39.48495098705011" lon="16.295866411203214"><ele>382.0</ele><time>2026-04-25T07:58:06.746Z</time></trkpt><trkpt lat="39.48502228706268" lon="16.295936573134103"><ele>383.0</ele><time>2026-04-25T07:58:07.746Z</time></trkpt><trkpt lat="39.48510261755366" lon="16.295974186297528"><ele>384.0</ele><time>2026-04-25T07:58:08.746Z</time></trkpt><trkpt lat="39.48519364977386" lon="16.295994891067487"><ele>384.0</ele><time>2026-04-25T07:58:09.746Z</time></trkpt><trkpt lat="39.48529435162969" lon="16.29600057793026"><ele>384.0</ele><time>2026-04-25T07:58:10.746Z</time></trkpt><trkpt lat="39.48539481036334" lon="16.29598466511618"><ele>384.0</ele><time>2026-04-25T07:58:11.746Z</time></trkpt><trkpt lat="39.48550140956154" lon="16.29595659766068"><ele>384.0</ele><time>2026-04-25T07:58:12.746Z</time></trkpt><trkpt lat="39.485609845544246" lon="16.295927552317778"><ele>384.0</ele><time>2026-04-25T07:58:13.746Z</time></trkpt><trkpt lat="39.485712386554354" lon="16.29590559334308"><ele>384.2</ele><time>2026-04-25T07:58:14.746Z</time></trkpt><trkpt lat="39.48580682240805" lon="16.295888511405487"><ele>384.4</ele><time>2026-04-25T07:58:15.746Z</time></trkpt><trkpt lat="39.48590286183317" lon="16.29586460398804"><ele>384.6</ele><time>2026-04-25T07:58:16.746Z</time></trkpt><trkpt lat="39.4860103681968" lon="16.295831161814604"><ele>384.8</ele><time>2026-04-25T07:58:17.746Z</time></trkpt><trkpt lat="39.48613826401225" lon="16.295809797236807"><ele>385.0</ele><time>2026-04-25T07:58:18.746Z</time></trkpt><trkpt lat="39.48627277081518" lon="16.29581624253908"><ele>385.0</ele><time>2026-04-25T07:58:19.746Z</time></trkpt><trkpt lat="39.486391986542756" lon="16.295888369765045"><ele>385.0</ele><time>2026-04-25T07:58:20.746Z</time></trkpt><trkpt lat="39.48649120562932" lon="16.295998029664922"><ele>385.0</ele><time>2026-04-25T07:58:21.746Z</time></trkpt><trkpt lat="39.486595646893434" lon="16.296147545702855"><ele>385.0</ele><time>2026-04-25T07:58:22.746Z</time></trkpt><trkpt lat="39.4866973135436" lon="16.296314160526208"><ele>384.0</ele><time>2026-04-25T07:58:23.746Z</time></trkpt><trkpt lat="39.48676693776281" lon="16.29648914089113"><ele>383.0</ele><time>2026-04-25T07:58:24.746Z</time></trkpt><trkpt lat="39.48685782291542" lon="16.29662928110365"><ele>382.0</ele><time>2026-04-25T07:58:25.746Z</time></trkpt><trkpt lat="39.48698797517204" lon="16.296737449951884"><ele>381.0</ele><time>2026-04-25T07:58:26.746Z</time></trkpt><trkpt lat="39.48714020520312" lon="16.296843926343335"><ele>383.0</ele><time>2026-04-25T07:58:27.746Z</time></trkpt><trkpt lat="39.48725491493634" lon="16.29698348982277"><ele>385.0</ele><time>2026-04-25T07:58:28.746Z</time></trkpt><trkpt lat="39.48736217876227" lon="16.297106444626454"><ele>387.0</ele><time>2026-04-25T07:58:29.746Z</time></trkpt><trkpt lat="39.48746660897144" lon="16.297208508989897"><ele>389.0</ele><time>2026-04-25T07:58:30.746Z</time></trkpt><trkpt lat="39.4875503735896" lon="16.297318613398698"><ele>389.0</ele><time>2026-04-25T07:58:31.746Z</time></trkpt><trkpt lat="39.4876253392682" lon="16.29742982449767"><ele>389.0</ele><time>2026-04-25T07:58:32.746Z</time></trkpt><trkpt lat="39.4876769686963" lon="16.29756000580105"><ele>389.0</ele><time>2026-04-25T07:58:33.746Z</time></trkpt><trkpt lat="39.487672852542886" lon="16.297728002531695"><ele>389.0</ele><time>2026-04-25T07:58:34.746Z</time></trkpt><trkpt lat="39.48769339617457" lon="16.29790645359572"><ele>389.0</ele><time>2026-04-25T07:58:35.746Z</time></trkpt><trkpt lat="39.487684534095465" lon="16.29808910350339"><ele>389.0</ele><time>2026-04-25T07:58:36.746Z</time></trkpt><trkpt lat="39.48767618331221" lon="16.29825203854949"><ele>389.0</ele><time>2026-04-25T07:58:37.746Z</time></trkpt><trkpt lat="39.48767212301599" lon="16.29840274029409"><ele>389.0</ele><time>2026-04-25T07:58:38.746Z</time></trkpt><trkpt lat="39.48767105341448" lon="16.298557618419316"><ele>389.0</ele><time>2026-04-25T07:58:39.746Z</time></trkpt><trkpt lat="39.48766953217191" lon="16.29870759539384"><ele>389.0</ele><time>2026-04-25T07:58:40.746Z</time></trkpt><trkpt lat="39.48766819447588" lon="16.29885846350004"><ele>389.0</ele><time>2026-04-25T07:58:41.746Z</time></trkpt><trkpt lat="39.48768098590852" lon="16.29901579652004"><ele>389.0</ele><time>2026-04-25T07:58:42.746Z</time></trkpt><trkpt lat="39.48773611841628" lon="16.29916968103526"><ele>392.0</ele><time>2026-04-25T07:58:43.746Z</time></trkpt><trkpt lat="39.48781050291627" lon="16.299313587665196"><ele>395.0</ele><time>2026-04-25T07:58:44.746Z</time></trkpt><trkpt lat="39.48790190286082" lon="16.299451604700717"><ele>398.0</ele><time>2026-04-25T07:58:45.746Z</time></trkpt><trkpt lat="39.487989352468254" lon="16.29958795249581"><ele>401.0</ele><time>2026-04-25T07:58:46.746Z</time></trkpt><trkpt lat="39.488069587977456" lon="16.29971115294991"><ele>403.0</ele><time>2026-04-25T07:58:47.746Z</time></trkpt><trkpt lat="39.48813908268933" lon="16.299815575931227"><ele>405.0</ele><time>2026-04-25T07:58:48.746Z</time></trkpt><trkpt lat="39.48821052161708" lon="16.29990055348448"><ele>407.0</ele><time>2026-04-25T07:58:49.746Z</time></trkpt><trkpt lat="39.48830097126423" lon="16.2999662337088"><ele>409.0</ele><time>2026-04-25T07:58:50.746Z</time></trkpt><trkpt lat="39.488418812650934" lon="16.299990415404043"><ele>411.0</ele><time>2026-04-25T07:58:51.746Z</time></trkpt><trkpt lat="39.488556835539406" lon="16.29996956799726"><ele>411.0</ele><time>2026-04-25T07:58:52.746Z</time></trkpt><trkpt lat="39.488700849360285" lon="16.29992734193931"><ele>411.0</ele><time>2026-04-25T07:58:53.746Z</time></trkpt><trkpt lat="39.48884741083697" lon="16.2998888586149"><ele>411.0</ele><time>2026-04-25T07:58:54.745Z</time></trkpt><trkpt lat="39.488979954594555" lon="16.299861858027263"><ele>411.0</ele><time>2026-04-25T07:58:55.745Z</time></trkpt><trkpt lat="39.48910129455654" lon="16.29983484815199"><ele>411.0</ele><time>2026-04-25T07:58:56.745Z</time></trkpt><trkpt lat="39.48921103407464" lon="16.299801260656913"><ele>411.0</ele><time>2026-04-25T07:58:57.745Z</time></trkpt><trkpt lat="39.48930787328627" lon="16.29976058281871"><ele>411.0</ele><time>2026-04-25T07:58:58.745Z</time></trkpt><trkpt lat="39.48939542661256" lon="16.299730570689547"><ele>411.0</ele><time>2026-04-25T07:58:59.745Z</time></trkpt><trkpt lat="39.489475502419936" lon="16.299726825720864"><ele>411.0</ele><time>2026-04-25T07:59:00.745Z</time></trkpt><trkpt lat="39.48953614309188" lon="16.299781188679237"><ele>411.0</ele><time>2026-04-25T07:59:01.745Z</time></trkpt><trkpt lat="39.48956881526691" lon="16.299872329979816"><ele>411.0</ele><time>2026-04-25T07:59:02.745Z</time></trkpt><trkpt lat="39.4895678939628" lon="16.299996030179198"><ele>411.0</ele><time>2026-04-25T07:59:03.745Z</time></trkpt><trkpt lat="39.489553731631176" lon="16.300111774758488"><ele>411.0</ele><time>2026-04-25T07:59:04.745Z</time></trkpt><trkpt lat="39.489538708047235" lon="16.300243661172455"><ele>411.0</ele><time>2026-04-25T07:59:05.745Z</time></trkpt><trkpt lat="39.48953410730915" lon="16.300373381989353"><ele>411.0</ele><time>2026-04-25T07:59:06.745Z</time></trkpt><trkpt lat="39.48956048069924" lon="16.30049239813415"><ele>411.0</ele><time>2026-04-25T07:59:07.745Z</time></trkpt><trkpt lat="39.489624382505156" lon="16.300592713557432"><ele>411.0</ele><time>2026-04-25T07:59:08.745Z</time></trkpt><trkpt lat="39.489719741132035" lon="16.300684850377877"><ele>411.0</ele><time>2026-04-25T07:59:09.745Z</time></trkpt><trkpt lat="39.48981703151753" lon="16.30077434540249"><ele>411.0</ele><time>2026-04-25T07:59:10.745Z</time></trkpt><trkpt lat="39.48990372823733" lon="16.30084958098772"><ele>413.6</ele><time>2026-04-25T07:59:11.745Z</time></trkpt><trkpt lat="39.48999147805227" lon="16.300911627785883"><ele>416.20000000000005</ele><time>2026-04-25T07:59:12.745Z</time></trkpt><trkpt lat="39.49008991449433" lon="16.300951221834403"><ele>418.79999999999995</ele><time>2026-04-25T07:59:13.745Z</time></trkpt><trkpt lat="39.490206059085374" lon="16.300969118918392"><ele>421.4</ele><time>2026-04-25T07:59:14.745Z</time></trkpt><trkpt lat="39.490329380115256" lon="16.300971771569692"><ele>424.0</ele><time>2026-04-25T07:59:15.745Z</time></trkpt><trkpt lat="39.49045840320364" lon="16.30099407885802"><ele>425.0</ele><time>2026-04-25T07:59:16.745Z</time></trkpt><trkpt lat="39.49056707927367" lon="16.301053651200156"><ele>426.0</ele><time>2026-04-25T07:59:17.745Z</time></trkpt><trkpt lat="39.490660448131045" lon="16.301154251274877"><ele>427.0</ele><time>2026-04-25T07:59:18.745Z</time></trkpt><trkpt lat="39.49072861772337" lon="16.301305979518556"><ele>428.0</ele><time>2026-04-25T07:59:19.745Z</time></trkpt><trkpt lat="39.490785812442276" lon="16.30148655677304"><ele>428.0</ele><time>2026-04-25T07:59:20.745Z</time></trkpt><trkpt lat="39.490847581353336" lon="16.301672616570222"><ele>428.0</ele><time>2026-04-25T07:59:21.745Z</time></trkpt><trkpt lat="39.49090724623205" lon="16.301849207260013"><ele>428.0</ele><time>2026-04-25T07:59:22.745Z</time></trkpt><trkpt lat="39.490962919305304" lon="16.302014023991415"><ele>428.0</ele><time>2026-04-25T07:59:23.745Z</time></trkpt><trkpt lat="39.49101679711315" lon="16.302169225139114"><ele>428.0</ele><time>2026-04-25T07:59:24.745Z</time></trkpt><trkpt lat="39.491073180255604" lon="16.302316060587664"><ele>428.0</ele><time>2026-04-25T07:59:25.745Z</time></trkpt><trkpt lat="39.491137746540886" lon="16.30245700061461"><ele>428.0</ele><time>2026-04-25T07:59:26.745Z</time></trkpt><trkpt lat="39.491209283569845" lon="16.302601969540447"><ele>428.0</ele><time>2026-04-25T07:59:27.745Z</time></trkpt><trkpt lat="39.491291566132844" lon="16.302758119003485"><ele>428.25</ele><time>2026-04-25T07:59:28.745Z</time></trkpt><trkpt lat="39.49137285917895" lon="16.302913362154392"><ele>428.5</ele><time>2026-04-25T07:59:29.745Z</time></trkpt><trkpt lat="39.49146873965615" lon="16.30306566088622"><ele>428.75</ele><time>2026-04-25T07:59:30.745Z</time></trkpt><trkpt lat="39.4915668844441" lon="16.303206252807986"><ele>429.0</ele><time>2026-04-25T07:59:31.745Z</time></trkpt><trkpt lat="39.49165983904573" lon="16.303338692708554"><ele>430.25</ele><time>2026-04-25T07:59:32.745Z</time></trkpt><trkpt lat="39.4917519927057" lon="16.303478820977602"><ele>431.5</ele><time>2026-04-25T07:59:33.745Z</time></trkpt><trkpt lat="39.49184214645949" lon="16.303593800654358"><ele>432.75</ele><time>2026-04-25T07:59:34.745Z</time></trkpt><trkpt lat="39.491932753031875" lon="16.303731772314332"><ele>434.0</ele><time>2026-04-25T07:59:35.745Z</time></trkpt><trkpt lat="39.492025479806664" lon="16.3038768591762"><ele>435.0</ele><time>2026-04-25T07:59:36.745Z</time></trkpt><trkpt lat="39.49212578401487" lon="16.30402185095775"><ele>436.0</ele><time>2026-04-25T07:59:37.745Z</time></trkpt><trkpt lat="39.492241241633714" lon="16.304152549346664"><ele>437.0</ele><time>2026-04-25T07:59:38.745Z</time></trkpt><trkpt lat="39.49238453012197" lon="16.304255470516036"><ele>437.0</ele><time>2026-04-25T07:59:39.745Z</time></trkpt><trkpt lat="39.49253218239138" lon="16.30434949831279"><ele>437.0</ele><time>2026-04-25T07:59:40.745Z</time></trkpt><trkpt lat="39.49266026772303" lon="16.30445194040911"><ele>437.0</ele><time>2026-04-25T07:59:41.745Z</time></trkpt><trkpt lat="39.49276849935101" lon="16.304555007391652"><ele>437.0</ele><time>2026-04-25T07:59:42.745Z</time></trkpt><trkpt lat="39.49286724075878" lon="16.304651608531483"><ele>437.0</ele><time>2026-04-25T07:59:43.745Z</time></trkpt><trkpt lat="39.49295840116785" lon="16.30475201575693"><ele>437.00000000000006</ele><time>2026-04-25T07:59:44.745Z</time></trkpt><trkpt lat="39.4930409544275" lon="16.304849716333703"><ele>437.00000000000006</ele><time>2026-04-25T07:59:45.745Z</time></trkpt><trkpt lat="39.493123430118835" lon="16.30494128617083"><ele>437.0</ele><time>2026-04-25T07:59:46.745Z</time></trkpt><trkpt lat="39.49320266027495" lon="16.305023283659647"><ele>437.0</ele><time>2026-04-25T07:59:47.745Z</time></trkpt><trkpt lat="39.49329452714831" lon="16.305092728294934"><ele>437.0</ele><time>2026-04-25T07:59:48.745Z</time></trkpt><trkpt lat="39.49339720166308" lon="16.305125371102214"><ele>437.0</ele><time>2026-04-25T07:59:49.745Z</time></trkpt><trkpt lat="39.49351750637798" lon="16.305122960352715"><ele>437.0</ele><time>2026-04-25T07:59:50.745Z</time></trkpt><trkpt lat="39.493636853078876" lon="16.305078520731875"><ele>437.0</ele><time>2026-04-25T07:59:51.745Z</time></trkpt><trkpt lat="39.493754916404285" lon="16.305004500016427"><ele>439.75</ele><time>2026-04-25T07:59:52.746Z</time></trkpt><trkpt lat="39.493861680237416" lon="16.304909424467933"><ele>442.5</ele><time>2026-04-25T07:59:53.746Z</time></trkpt><trkpt lat="39.49394545966925" lon="16.304788047550034"><ele>445.25</ele><time>2026-04-25T07:59:54.746Z</time></trkpt><trkpt lat="39.49400411252775" lon="16.304619243876548"><ele>448.0</ele><time>2026-04-25T07:59:55.746Z</time></trkpt><trkpt lat="39.4940337799674" lon="16.304423416369296"><ele>448.0</ele><time>2026-04-25T07:59:56.746Z</time></trkpt><trkpt lat="39.494072748146294" lon="16.304245531673555"><ele>448.0</ele><time>2026-04-25T07:59:57.746Z</time></trkpt><trkpt lat="39.49413029706181" lon="16.30410127316479"><ele>448.0</ele><time>2026-04-25T07:59:58.746Z</time></trkpt><trkpt lat="39.49421398839329" lon="16.30396563073231"><ele>448.0</ele><time>2026-04-25T07:59:59.746Z</time></trkpt><trkpt lat="39.49431072028831" lon="16.30383166129427"><ele>445.25</ele><time>2026-04-25T08:00:00.746Z</time></trkpt><trkpt lat="39.4944057988403" lon="16.303697665365043"><ele>442.5</ele><time>2026-04-25T08:00:01.746Z</time></trkpt><trkpt lat="39.49449878333543" lon="16.303560663521942"><ele>439.75</ele><time>2026-04-25T08:00:02.746Z</time></trkpt><trkpt lat="39.49458977538912" lon="16.303423525522046"><ele>437.0</ele><time>2026-04-25T08:00:03.746Z</time></trkpt><trkpt lat="39.494683272638326" lon="16.303292017817004"><ele>439.0</ele><time>2026-04-25T08:00:04.746Z</time></trkpt><trkpt lat="39.49476666776063" lon="16.30318711618423"><ele>441.0</ele><time>2026-04-25T08:00:05.746Z</time></trkpt><trkpt lat="39.4948622473931" lon="16.303103973892313"><ele>443.0</ele><time>2026-04-25T08:00:06.746Z</time></trkpt><trkpt lat="39.49497757639549" lon="16.303047963415082"><ele>445.0</ele><time>2026-04-25T08:00:07.746Z</time></trkpt><trkpt lat="39.49509801622341" lon="16.303009325012354"><ele>445.0</ele><time>2026-04-25T08:00:08.746Z</time></trkpt><trkpt lat="39.49521448766584" lon="16.302985522571"><ele>445.0</ele><time>2026-04-25T08:00:09.746Z</time></trkpt><trkpt lat="39.49531531441844" lon="16.302991738477942"><ele>445.0</ele><time>2026-04-25T08:00:10.746Z</time></trkpt><trkpt lat="39.495399470846" lon="16.303040601669803"><ele>445.0</ele><time>2026-04-25T08:00:11.746Z</time></trkpt><trkpt lat="39.49545518092718" lon="16.303129829059813"><ele>445.0</ele><time>2026-04-25T08:00:12.746Z</time></trkpt><trkpt lat="39.49545370812855" lon="16.303232618729886"><ele>448.2</ele><time>2026-04-25T08:00:13.746Z</time></trkpt><trkpt lat="39.49541931137758" lon="16.303329866826743"><ele>451.4</ele><time>2026-04-25T08:00:14.746Z</time></trkpt><trkpt lat="39.495317450523224" lon="16.303377630080817"><ele>454.6</ele><time>2026-04-25T08:00:15.746Z</time></trkpt><trkpt lat="39.49522050232047" lon="16.303454540969348"><ele>457.8</ele><time>2026-04-25T08:00:16.746Z</time></trkpt><trkpt lat="39.49511468836933" lon="16.30354508506094"><ele>461.0</ele><time>2026-04-25T08:00:17.746Z</time></trkpt><trkpt lat="39.49501790253163" lon="16.30362722953771"><ele>461.0</ele><time>2026-04-25T08:00:18.746Z</time></trkpt><trkpt lat="39.49494752673729" lon="16.30371088249471"><ele>461.0</ele><time>2026-04-25T08:00:19.746Z</time></trkpt><trkpt lat="39.49489187192482" lon="16.303803060249802"><ele>461.0</ele><time>2026-04-25T08:00:20.746Z</time></trkpt><trkpt lat="39.49484378148132" lon="16.303911268551403"><ele>461.0</ele><time>2026-04-25T08:00:21.746Z</time></trkpt><trkpt lat="39.494807951065035" lon="16.304045240971575"><ele>461.0</ele><time>2026-04-25T08:00:22.746Z</time></trkpt><trkpt lat="39.49479339746923" lon="16.30421012385754"><ele>464.0</ele><time>2026-04-25T08:00:23.746Z</time></trkpt><trkpt lat="39.494793070434994" lon="16.3043805792142"><ele>467.0</ele><time>2026-04-25T08:00:24.746Z</time></trkpt><trkpt lat="39.494797794053035" lon="16.304542148016097"><ele>470.0</ele><time>2026-04-25T08:00:25.745Z</time></trkpt><trkpt lat="39.494819611862994" lon="16.30469437144838"><ele>473.0</ele><time>2026-04-25T08:00:26.745Z</time></trkpt><trkpt lat="39.49487093012487" lon="16.304829689798694"><ele>473.75</ele><time>2026-04-25T08:00:27.745Z</time></trkpt><trkpt lat="39.494964613149435" lon="16.304942852252132"><ele>474.5</ele><time>2026-04-25T08:00:28.745Z</time></trkpt><trkpt lat="39.495080575290885" lon="16.30504909696985"><ele>475.25</ele><time>2026-04-25T08:00:29.745Z</time></trkpt><trkpt lat="39.4951917846793" lon="16.305175309682657"><ele>476.0</ele><time>2026-04-25T08:00:30.745Z</time></trkpt><trkpt lat="39.49527972151641" lon="16.305280297173525"><ele>476.0</ele><time>2026-04-25T08:00:31.745Z</time></trkpt><trkpt lat="39.495370870030435" lon="16.305367749088443"><ele>476.0</ele><time>2026-04-25T08:00:32.745Z</time></trkpt><trkpt lat="39.4954473474144" lon="16.305465999297656"><ele>476.0</ele><time>2026-04-25T08:00:33.745Z</time></trkpt><trkpt lat="39.4955193134614" lon="16.30556931744841"><ele>476.0</ele><time>2026-04-25T08:00:34.745Z</time></trkpt><trkpt lat="39.49555669488717" lon="16.305703282759403"><ele>476.0</ele><time>2026-04-25T08:00:35.745Z</time></trkpt><trkpt lat="39.49557374119653" lon="16.305843423897844"><ele>475.5</ele><time>2026-04-25T08:00:36.745Z</time></trkpt><trkpt lat="39.49554912061447" lon="16.305988256601857"><ele>475.0</ele><time>2026-04-25T08:00:37.745Z</time></trkpt><trkpt lat="39.49553984975893" lon="16.306166039472707"><ele>474.5</ele><time>2026-04-25T08:00:38.745Z</time></trkpt><trkpt lat="39.49552056029311" lon="16.306353288920107"><ele>474.0</ele><time>2026-04-25T08:00:39.745Z</time></trkpt><trkpt lat="39.49552363622146" lon="16.306569100521223"><ele>476.0</ele><time>2026-04-25T08:00:40.745Z</time></trkpt><trkpt lat="39.495543020742424" lon="16.3067656102433"><ele>478.0</ele><time>2026-04-25T08:00:41.745Z</time></trkpt><trkpt lat="39.49557823661394" lon="16.306931202038257"><ele>480.0</ele><time>2026-04-25T08:00:42.745Z</time></trkpt><trkpt lat="39.49562535298475" lon="16.307080308026716"><ele>482.0</ele><time>2026-04-25T08:00:43.745Z</time></trkpt><trkpt lat="39.49569307547797" lon="16.30722001611622"><ele>486.0</ele><time>2026-04-25T08:00:44.745Z</time></trkpt><trkpt lat="39.49577986969682" lon="16.30734535187901"><ele>490.0</ele><time>2026-04-25T08:00:45.745Z</time></trkpt><trkpt lat="39.49586359877893" lon="16.307453779153327"><ele>494.0</ele><time>2026-04-25T08:00:46.745Z</time></trkpt><trkpt lat="39.4959342790669" lon="16.307553778531766"><ele>498.0</ele><time>2026-04-25T08:00:47.745Z</time></trkpt><trkpt lat="39.49599837793553" lon="16.307648765869416"><ele>498.0</ele><time>2026-04-25T08:00:48.745Z</time></trkpt><trkpt lat="39.496052962992515" lon="16.307732726837603"><ele>498.0</ele><time>2026-04-25T08:00:49.745Z</time></trkpt><trkpt lat="39.49609809058813" lon="16.30780466121653"><ele>498.0</ele><time>2026-04-25T08:00:50.745Z</time></trkpt><trkpt lat="39.4961412348613" lon="16.30788619612656"><ele>498.0</ele><time>2026-04-25T08:00:51.745Z</time></trkpt><trkpt lat="39.49616133927876" lon="16.307990263884708"><ele>498.0</ele><time>2026-04-25T08:00:52.745Z</time></trkpt><trkpt lat="39.49614017267786" lon="16.3081043729603"><ele>498.0</ele><time>2026-04-25T08:00:53.745Z</time></trkpt><trkpt lat="39.49607413871542" lon="16.30821859377529"><ele>500.5</ele><time>2026-04-25T08:00:54.745Z</time></trkpt><trkpt lat="39.49597376974235" lon="16.308338975815904"><ele>503.0</ele><time>2026-04-25T08:00:55.745Z</time></trkpt><trkpt lat="39.495862305632855" lon="16.308477818175707"><ele>505.5</ele><time>2026-04-25T08:00:56.745Z</time></trkpt><trkpt lat="39.49577835178716" lon="16.30861501928225"><ele>508.0</ele><time>2026-04-25T08:00:57.745Z</time></trkpt><trkpt lat="39.49572533747534" lon="16.308758172212958"><ele>509.0</ele><time>2026-04-25T08:00:58.745Z</time></trkpt><trkpt lat="39.49571541427609" lon="16.3089358726497"><ele>510.0</ele><time>2026-04-25T08:00:59.745Z</time></trkpt><trkpt lat="39.495732165237364" lon="16.309144417201207"><ele>511.0</ele><time>2026-04-25T08:01:00.745Z</time></trkpt><trkpt lat="39.4957558630275" lon="16.309362426602988"><ele>511.0</ele><time>2026-04-25T08:01:01.745Z</time></trkpt><trkpt lat="39.49578353228462" lon="16.30956100695203"><ele>511.0</ele><time>2026-04-25T08:01:02.745Z</time></trkpt><trkpt lat="39.495806344219154" lon="16.30973407327296"><ele>511.0</ele><time>2026-04-25T08:01:03.745Z</time></trkpt><trkpt lat="39.49583079194034" lon="16.30991000186776"><ele>511.0</ele><time>2026-04-25T08:01:04.745Z</time></trkpt><trkpt lat="39.49586517294318" lon="16.31008271387185"><ele>515.0</ele><time>2026-04-25T08:01:05.745Z</time></trkpt><trkpt lat="39.495928074964546" lon="16.310259718553983"><ele>519.0</ele><time>2026-04-25T08:01:06.744Z</time></trkpt><trkpt lat="39.496023026808494" lon="16.310443331150406"><ele>523.0</ele><time>2026-04-25T08:01:07.744Z</time></trkpt><trkpt lat="39.49611617889022" lon="16.31066345206874"><ele>523.0</ele><time>2026-04-25T08:01:08.744Z</time></trkpt><trkpt lat="39.49623134808049" lon="16.310886885776117"><ele>523.0</ele><time>2026-04-25T08:01:09.744Z</time></trkpt><trkpt lat="39.4963438499021" lon="16.311072942069273"><ele>523.0</ele><time>2026-04-25T08:01:10.744Z</time></trkpt><trkpt lat="39.49644428527215" lon="16.31125838485041"><ele>525.25</ele><time>2026-04-25T08:01:11.744Z</time></trkpt><trkpt lat="39.49651482951365" lon="16.311431207150566"><ele>527.5</ele><time>2026-04-25T08:01:12.744Z</time></trkpt><trkpt lat="39.49657117261199" lon="16.31156205527991"><ele>529.75</ele><time>2026-04-25T08:01:13.744Z</time></trkpt><trkpt lat="39.4965813532664" lon="16.31169117153484"><ele>532.0</ele><time>2026-04-25T08:01:14.744Z</time></trkpt><trkpt lat="39.49654779156363" lon="16.31183313458418"><ele>532.0</ele><time>2026-04-25T08:01:15.744Z</time></trkpt><trkpt lat="39.49649297520695" lon="16.31199258398747"><ele>532.0</ele><time>2026-04-25T08:01:16.744Z</time></trkpt><trkpt lat="39.49643909857749" lon="16.312171070324236"><ele>532.0</ele><time>2026-04-25T08:01:17.744Z</time></trkpt><trkpt lat="39.496360492735754" lon="16.312345721022293"><ele>532.0</ele><time>2026-04-25T08:01:18.744Z</time></trkpt><trkpt lat="39.49628180287804" lon="16.31248957193703"><ele>535.75</ele><time>2026-04-25T08:01:19.744Z</time></trkpt><trkpt lat="39.49620601022738" lon="16.312610746698674"><ele>539.5</ele><time>2026-04-25T08:01:20.744Z</time></trkpt><trkpt lat="39.496152702107814" lon="16.312755970514"><ele>543.25</ele><time>2026-04-25T08:01:21.744Z</time></trkpt><trkpt lat="39.49614308278544" lon="16.31292867730179"><ele>547.0</ele><time>2026-04-25T08:01:22.744Z</time></trkpt><trkpt lat="39.496173486399464" lon="16.31310973632999"><ele>547.0</ele><time>2026-04-25T08:01:23.744Z</time></trkpt><trkpt lat="39.49622509824028" lon="16.313294633930873"><ele>547.0</ele><time>2026-04-25T08:01:24.744Z</time></trkpt><trkpt lat="39.49625244478177" lon="16.313528276688483"><ele>547.0</ele><time>2026-04-25T08:01:25.744Z</time></trkpt><trkpt lat="39.49630237491645" lon="16.31380414289485"><ele>549.0</ele><time>2026-04-25T08:01:26.744Z</time></trkpt><trkpt lat="39.49636471519745" lon="16.31409914803539"><ele>551.0</ele><time>2026-04-25T08:01:27.744Z</time></trkpt><trkpt lat="39.49639630422327" lon="16.314411229802012"><ele>551.0</ele><time>2026-04-25T08:01:28.744Z</time></trkpt><trkpt lat="39.49642019092098" lon="16.314669004387135"><ele>551.0</ele><time>2026-04-25T08:01:29.744Z</time></trkpt><trkpt lat="39.49645544950699" lon="16.314900757969802"><ele>551.0</ele><time>2026-04-25T08:01:30.744Z</time></trkpt><trkpt lat="39.49652073406789" lon="16.315123810208988"><ele>553.3333333333333</ele><time>2026-04-25T08:01:31.744Z</time></trkpt><trkpt lat="39.49661178751775" lon="16.315322613422225"><ele>555.6666666666666</ele><time>2026-04-25T08:01:32.744Z</time></trkpt><trkpt lat="39.49664563096966" lon="16.315532214718125"><ele>558.0</ele><time>2026-04-25T08:01:33.744Z</time></trkpt><trkpt lat="39.496662030909256" lon="16.315774813642562"><ele>558.0</ele><time>2026-04-25T08:01:34.744Z</time></trkpt><trkpt lat="39.496694336448485" lon="16.31600795203369"><ele>558.0</ele><time>2026-04-25T08:01:35.744Z</time></trkpt><trkpt lat="39.49669127192217" lon="16.316213001911578"><ele>558.0</ele><time>2026-04-25T08:01:36.744Z</time></trkpt><trkpt lat="39.49670272199016" lon="16.316402927656707"><ele>558.0</ele><time>2026-04-25T08:01:37.744Z</time></trkpt><trkpt lat="39.49672761522741" lon="16.316579906958122"><ele>558.0</ele><time>2026-04-25T08:01:38.744Z</time></trkpt><trkpt lat="39.49677296255215" lon="16.31676581317547"><ele>558.0</ele><time>2026-04-25T08:01:39.744Z</time></trkpt><trkpt lat="39.496851636440574" lon="16.31695085369175"><ele>558.0</ele><time>2026-04-25T08:01:40.744Z</time></trkpt><trkpt lat="39.496958179704535" lon="16.317136578072773"><ele>558.0</ele><time>2026-04-25T08:01:41.744Z</time></trkpt><trkpt lat="39.497083132109424" lon="16.317300703989588"><ele>558.0</ele><time>2026-04-25T08:01:42.744Z</time></trkpt><trkpt lat="39.49720107253703" lon="16.317436867830104"><ele>566.0</ele><time>2026-04-25T08:01:43.744Z</time></trkpt><trkpt lat="39.49731948581281" lon="16.31756403610324"><ele>574.0</ele><time>2026-04-25T08:01:44.744Z</time></trkpt><trkpt lat="39.497437901237646" lon="16.31769868293047"><ele>582.0</ele><time>2026-04-25T08:01:45.744Z</time></trkpt><trkpt lat="39.49754997774284" lon="16.31784563088658"><ele>582.0</ele><time>2026-04-25T08:01:46.744Z</time></trkpt><trkpt lat="39.4976445262093" lon="16.31799164611557"><ele>582.0</ele><time>2026-04-25T08:01:47.744Z</time></trkpt><trkpt lat="39.49770924760157" lon="16.318134200017123"><ele>582.0</ele><time>2026-04-25T08:01:48.744Z</time></trkpt><trkpt lat="39.49775971309188" lon="16.318287120584277"><ele>582.0</ele><time>2026-04-25T08:01:49.744Z</time></trkpt><trkpt lat="39.497833585869245" lon="16.31842840865328"><ele>586.25</ele><time>2026-04-25T08:01:50.744Z</time></trkpt><trkpt lat="39.49794210654892" lon="16.318556631649145"><ele>590.5</ele><time>2026-04-25T08:01:51.744Z</time></trkpt><trkpt lat="39.49806848358657" lon="16.318654792539405"><ele>594.75</ele><time>2026-04-25T08:01:52.744Z</time></trkpt><trkpt lat="39.49818290386523" lon="16.31874608889277"><ele>599.0</ele><time>2026-04-25T08:01:53.744Z</time></trkpt><trkpt lat="39.49827987432977" lon="16.318859964543346"><ele>595.25</ele><time>2026-04-25T08:01:54.744Z</time></trkpt><trkpt lat="39.498321182431276" lon="16.319035702683717"><ele>591.5</ele><time>2026-04-25T08:01:55.744Z</time></trkpt><trkpt lat="39.49837530981414" lon="16.319189057458956"><ele>587.75</ele><time>2026-04-25T08:01:56.744Z</time></trkpt><trkpt lat="39.49841609146486" lon="16.319313260512903"><ele>584.0</ele><time>2026-04-25T08:01:57.744Z</time></trkpt><trkpt lat="39.49849055144529" lon="16.319408218647926"><ele>584.0</ele><time>2026-04-25T08:01:58.744Z</time></trkpt><trkpt lat="39.49860516321609" lon="16.319472343342742"><ele>584.0</ele><time>2026-04-25T08:01:59.744Z</time></trkpt><trkpt lat="39.49874406225043" lon="16.319499972112226"><ele>584.0</ele><time>2026-04-25T08:02:00.744Z</time></trkpt><trkpt lat="39.49888972110383" lon="16.319504077850286"><ele>584.0</ele><time>2026-04-25T08:02:01.744Z</time></trkpt><trkpt lat="39.49903979332259" lon="16.319516364705702"><ele>586.0</ele><time>2026-04-25T08:02:02.744Z</time></trkpt><trkpt lat="39.49916141187455" lon="16.319541071810043"><ele>588.0</ele><time>2026-04-25T08:02:03.744Z</time></trkpt><trkpt lat="39.49924992920507" lon="16.319580226602373"><ele>590.0</ele><time>2026-04-25T08:02:04.744Z</time></trkpt><trkpt lat="39.499313554028724" lon="16.319656194790237"><ele>592.0</ele><time>2026-04-25T08:02:05.744Z</time></trkpt><trkpt lat="39.499345758499636" lon="16.319772675407616"><ele>594.0</ele><time>2026-04-25T08:02:06.744Z</time></trkpt><trkpt lat="39.49934506319184" lon="16.319894199692598"><ele>594.0</ele><time>2026-04-25T08:02:07.744Z</time></trkpt><trkpt lat="39.49933089054787" lon="16.320011846482686"><ele>594.0</ele><time>2026-04-25T08:02:08.744Z</time></trkpt><trkpt lat="39.499332127557366" lon="16.320134447120957"><ele>594.0</ele><time>2026-04-25T08:02:09.744Z</time></trkpt><trkpt lat="39.499363665275084" lon="16.32025892587079"><ele>594.0</ele><time>2026-04-25T08:02:10.744Z</time></trkpt><trkpt lat="39.49941205833148" lon="16.320363010328247"><ele>594.0</ele><time>2026-04-25T08:02:11.744Z</time></trkpt><trkpt lat="39.49946613179212" lon="16.320460757722472"><ele>594.0</ele><time>2026-04-25T08:02:12.744Z</time></trkpt><trkpt lat="39.49953646985659" lon="16.320547400177208"><ele>594.0</ele><time>2026-04-25T08:02:13.744Z</time></trkpt><trkpt lat="39.4996318511163" lon="16.320623542246445"><ele>594.0</ele><time>2026-04-25T08:02:14.744Z</time></trkpt><trkpt lat="39.49971189081818" lon="16.320713994586352"><ele>594.0</ele><time>2026-04-25T08:02:15.744Z</time></trkpt><trkpt lat="39.499753893788416" lon="16.320838638161955"><ele>594.0</ele><time>2026-04-25T08:02:16.744Z</time></trkpt><trkpt lat="39.49973610682193" lon="16.320995659427727"><ele>596.0</ele><time>2026-04-25T08:02:17.744Z</time></trkpt><trkpt lat="39.49969053945672" lon="16.321125779958162"><ele>598.0</ele><time>2026-04-25T08:02:18.744Z</time></trkpt><trkpt lat="39.49961033050472" lon="16.32122423690211"><ele>600.0</ele><time>2026-04-25T08:02:19.744Z</time></trkpt><trkpt lat="39.499504248227396" lon="16.321276020177333"><ele>602.0</ele><time>2026-04-25T08:02:20.744Z</time></trkpt><trkpt lat="39.49938564840143" lon="16.32131472175991"><ele>602.0</ele><time>2026-04-25T08:02:21.744Z</time></trkpt><trkpt lat="39.49929405636129" lon="16.32137440326164"><ele>602.0</ele><time>2026-04-25T08:02:22.744Z</time></trkpt><trkpt lat="39.49922402508934" lon="16.32147201160179"><ele>602.0</ele><time>2026-04-25T08:02:23.744Z</time></trkpt><trkpt lat="39.49918318771692" lon="16.321598672075535"><ele>602.0</ele><time>2026-04-25T08:02:24.744Z</time></trkpt><trkpt lat="39.499185352897335" lon="16.3217474354971"><ele>602.0</ele><time>2026-04-25T08:02:25.744Z</time></trkpt><trkpt lat="39.49923240276649" lon="16.321883749460834"><ele>604.5</ele><time>2026-04-25T08:02:26.744Z</time></trkpt><trkpt lat="39.49930604300053" lon="16.321988961057542"><ele>607.0</ele><time>2026-04-25T08:02:27.744Z</time></trkpt><trkpt lat="39.499370407586895" lon="16.32208590915989"><ele>609.5</ele><time>2026-04-25T08:02:28.744Z</time></trkpt><trkpt lat="39.499427013048184" lon="16.32221905189258"><ele>612.0</ele><time>2026-04-25T08:02:29.744Z</time></trkpt><trkpt lat="39.499474440806836" lon="16.322371936104656"><ele>612.75</ele><time>2026-04-25T08:02:30.744Z</time></trkpt><trkpt lat="39.4995196545461" lon="16.322533263454154"><ele>613.5</ele><time>2026-04-25T08:02:31.744Z</time></trkpt><trkpt lat="39.499569318496484" lon="16.322693086192036"><ele>614.25</ele><time>2026-04-25T08:02:32.744Z</time></trkpt><trkpt lat="39.49961474049152" lon="16.32283297590336"><ele>615.0</ele><time>2026-04-25T08:02:33.744Z</time></trkpt><trkpt lat="39.499653819382246" lon="16.3229604492879"><ele>617.0</ele><time>2026-04-25T08:02:34.744Z</time></trkpt><trkpt lat="39.49967588684388" lon="16.323083661962794"><ele>619.0</ele><time>2026-04-25T08:02:35.744Z</time></trkpt><trkpt lat="39.49966620096653" lon="16.32321546195283"><ele>621.0</ele><time>2026-04-25T08:02:36.744Z</time></trkpt><trkpt lat="39.4996068136496" lon="16.323348054045894"><ele>623.0</ele><time>2026-04-25T08:02:37.744Z</time></trkpt><trkpt lat="39.49951192518602" lon="16.323464998886823"><ele>625.0</ele><time>2026-04-25T08:02:38.744Z</time></trkpt><trkpt lat="39.49940032339387" lon="16.323522085671446"><ele>625.0</ele><time>2026-04-25T08:02:39.744Z</time></trkpt><trkpt lat="39.499287610038046" lon="16.323489640254774"><ele>625.0</ele><time>2026-04-25T08:02:40.744Z</time></trkpt><trkpt lat="39.499159672643756" lon="16.323470596423967"><ele>625.0</ele><time>2026-04-25T08:02:41.744Z</time></trkpt><trkpt lat="39.4990424614863" lon="16.323454331062088"><ele>625.0</ele><time>2026-04-25T08:02:42.744Z</time></trkpt><trkpt lat="39.49893710615266" lon="16.32349408621688"><ele>625.0</ele><time>2026-04-25T08:02:43.744Z</time></trkpt><trkpt lat="39.49883154463518" lon="16.323577301560185"><ele>625.0</ele><time>2026-04-25T08:02:44.744Z</time></trkpt><trkpt lat="39.498732456593906" lon="16.323699286118156"><ele>625.0</ele><time>2026-04-25T08:02:45.744Z</time></trkpt><trkpt lat="39.498672612171426" lon="16.323859434204525"><ele>625.0</ele><time>2026-04-25T08:02:46.744Z</time></trkpt><trkpt lat="39.49866257744405" lon="16.32401079752658"><ele>623.75</ele><time>2026-04-25T08:02:47.744Z</time></trkpt><trkpt lat="39.498675419584885" lon="16.32417347490709"><ele>622.5</ele><time>2026-04-25T08:02:48.744Z</time></trkpt><trkpt lat="39.498730036144785" lon="16.324332702500822"><ele>621.25</ele><time>2026-04-25T08:02:49.744Z</time></trkpt><trkpt lat="39.49881987309619" lon="16.324499808557324"><ele>620.0</ele><time>2026-04-25T08:02:50.744Z</time></trkpt><trkpt lat="39.49892533165772" lon="16.324683873802055"><ele>620.3333333333333</ele><time>2026-04-25T08:02:51.744Z</time></trkpt><trkpt lat="39.49903268211083" lon="16.324887363390193"><ele>620.6666666666666</ele><time>2026-04-25T08:02:52.744Z</time></trkpt><trkpt lat="39.49913273646641" lon="16.325089638310423"><ele>621.0</ele><time>2026-04-25T08:02:53.744Z</time></trkpt><trkpt lat="39.49922452512895" lon="16.325278126077652"><ele>621.0</ele><time>2026-04-25T08:02:54.744Z</time></trkpt><trkpt lat="39.49930882903295" lon="16.325446449715947"><ele>621.0</ele><time>2026-04-25T08:02:55.744Z</time></trkpt><trkpt lat="39.49938748882722" lon="16.325598617639898"><ele>621.0</ele><time>2026-04-25T08:02:56.744Z</time></trkpt><trkpt lat="39.49946560695731" lon="16.325746668829304"><ele>621.0</ele><time>2026-04-25T08:02:57.744Z</time></trkpt><trkpt lat="39.49954198547885" lon="16.325891744068397"><ele>623.25</ele><time>2026-04-25T08:02:58.744Z</time></trkpt><trkpt lat="39.49961841337599" lon="16.32604531824441"><ele>625.5</ele><time>2026-04-25T08:02:59.744Z</time></trkpt><trkpt lat="39.49968878640268" lon="16.3262126368459"><ele>627.75</ele><time>2026-04-25T08:03:00.744Z</time></trkpt><trkpt lat="39.499720330864676" lon="16.326398482958535"><ele>630.0</ele><time>2026-04-25T08:03:01.744Z</time></trkpt><trkpt lat="39.499747114077" lon="16.326604555463845"><ele>632.6666666666666</ele><time>2026-04-25T08:03:02.744Z</time></trkpt><trkpt lat="39.499785044192016" lon="16.32682811821234"><ele>635.3333333333333</ele><time>2026-04-25T08:03:03.744Z</time></trkpt><trkpt lat="39.49980002003461" lon="16.327069322518916"><ele>638.0</ele><time>2026-04-25T08:03:04.744Z</time></trkpt><trkpt lat="39.49981996775667" lon="16.327305401472838"><ele>639.0</ele><time>2026-04-25T08:03:05.744Z</time></trkpt><trkpt lat="39.49984507799118" lon="16.32752511624284"><ele>640.0</ele><time>2026-04-25T08:03:06.744Z</time></trkpt><trkpt lat="39.49986387739387" lon="16.327735789018835"><ele>641.0</ele><time>2026-04-25T08:03:07.744Z</time></trkpt><trkpt lat="39.499879883569946" lon="16.32795158599618"><ele>640.3333333333333</ele><time>2026-04-25T08:03:08.744Z</time></trkpt><trkpt lat="39.499897728383985" lon="16.328173695387214"><ele>639.6666666666666</ele><time>2026-04-25T08:03:09.744Z</time></trkpt><trkpt lat="39.499916580448556" lon="16.328381079549033"><ele>639.0</ele><time>2026-04-25T08:03:10.744Z</time></trkpt><trkpt lat="39.49993462866262" lon="16.328570529906905"><ele>639.0</ele><time>2026-04-25T08:03:11.744Z</time></trkpt><trkpt lat="39.49995275413297" lon="16.328746846065247"><ele>639.0</ele><time>2026-04-25T08:03:12.744Z</time></trkpt><trkpt lat="39.499968460005014" lon="16.3289156196761"><ele>639.0</ele><time>2026-04-25T08:03:13.744Z</time></trkpt><trkpt lat="39.49998353330968" lon="16.329079128027175"><ele>639.0</ele><time>2026-04-25T08:03:14.744Z</time></trkpt><trkpt lat="39.50000299938462" lon="16.329243066744535"><ele>638.5</ele><time>2026-04-25T08:03:15.744Z</time></trkpt><trkpt lat="39.50004671226408" lon="16.329413366291956"><ele>638.0</ele><time>2026-04-25T08:03:16.744Z</time></trkpt><trkpt lat="39.50009615366956" lon="16.329575705702965"><ele>637.5</ele><time>2026-04-25T08:03:17.744Z</time></trkpt><trkpt lat="39.50016030953106" lon="16.32974880603556"><ele>637.0</ele><time>2026-04-25T08:03:18.744Z</time></trkpt><trkpt lat="39.500231274699615" lon="16.329927695626484"><ele>636.5</ele><time>2026-04-25T08:03:19.744Z</time></trkpt><trkpt lat="39.5003024132788" lon="16.33009512161328"><ele>636.0</ele><time>2026-04-25T08:03:20.744Z</time></trkpt><trkpt lat="39.50037139303262" lon="16.330258825424895"><ele>635.5</ele><time>2026-04-25T08:03:21.744Z</time></trkpt><trkpt lat="39.50043574068229" lon="16.3304267345364"><ele>635.0</ele><time>2026-04-25T08:03:22.744Z</time></trkpt><trkpt lat="39.50049376223361" lon="16.330587619563634"><ele>637.25</ele><time>2026-04-25T08:03:23.744Z</time></trkpt><trkpt lat="39.50054155777111" lon="16.33074719536622"><ele>639.5</ele><time>2026-04-25T08:03:24.744Z</time></trkpt><trkpt lat="39.50058222343807" lon="16.3309184613257"><ele>641.75</ele><time>2026-04-25T08:03:25.744Z</time></trkpt><trkpt lat="39.50061807160764" lon="16.33109640850958"><ele>644.0</ele><time>2026-04-25T08:03:26.744Z</time></trkpt><trkpt lat="39.50065077817429" lon="16.331277683223487"><ele>645.0</ele><time>2026-04-25T08:03:27.744Z</time></trkpt><trkpt lat="39.500682218419854" lon="16.331452803834722"><ele>646.0</ele><time>2026-04-25T08:03:28.744Z</time></trkpt><trkpt lat="39.500705717001836" lon="16.331618148286072"><ele>647.0</ele><time>2026-04-25T08:03:29.744Z</time></trkpt><trkpt lat="39.500726479868035" lon="16.331794285968662"><ele>648.0</ele><time>2026-04-25T08:03:30.744Z</time></trkpt><trkpt lat="39.50074781549195" lon="16.331973672889553"><ele>648.0</ele><time>2026-04-25T08:03:31.744Z</time></trkpt><trkpt lat="39.500762686212255" lon="16.33215685765793"><ele>648.0</ele><time>2026-04-25T08:03:32.744Z</time></trkpt><trkpt lat="39.50076203466595" lon="16.332347250675998"><ele>648.0</ele><time>2026-04-25T08:03:33.744Z</time></trkpt><trkpt lat="39.50073600169515" lon="16.33254299908754"><ele>648.0</ele><time>2026-04-25T08:03:34.744Z</time></trkpt><trkpt lat="39.500689222463514" lon="16.33274596785392"><ele>650.0</ele><time>2026-04-25T08:03:35.744Z</time></trkpt><trkpt lat="39.5006323292501" lon="16.332956794858482"><ele>652.0</ele><time>2026-04-25T08:03:36.743Z</time></trkpt><trkpt lat="39.500576883238395" lon="16.33316497748479"><ele>654.0</ele><time>2026-04-25T08:03:37.743Z</time></trkpt><trkpt lat="39.50053537663177" lon="16.33335176974445"><ele>656.3333333333334</ele><time>2026-04-25T08:03:38.743Z</time></trkpt><trkpt lat="39.500512187162364" lon="16.33355360477066"><ele>658.6666666666667</ele><time>2026-04-25T08:03:39.743Z</time></trkpt><trkpt lat="39.50051236828254" lon="16.333757169488784"><ele>661.0</ele><time>2026-04-25T08:03:40.743Z</time></trkpt><trkpt lat="39.50053320504695" lon="16.333972041397683"><ele>662.0</ele><time>2026-04-25T08:03:41.743Z</time></trkpt><trkpt lat="39.500560384859526" lon="16.334186757595695"><ele>663.0</ele><time>2026-04-25T08:03:42.743Z</time></trkpt><trkpt lat="39.50058531079614" lon="16.334400668371828"><ele>664.0</ele><time>2026-04-25T08:03:43.743Z</time></trkpt><trkpt lat="39.5006081694929" lon="16.33461186079707"><ele>664.6666666666667</ele><time>2026-04-25T08:03:44.743Z</time></trkpt><trkpt lat="39.5006333590008" lon="16.334825596512065"><ele>665.3333333333334</ele><time>2026-04-25T08:03:45.743Z</time></trkpt><trkpt lat="39.50066537882267" lon="16.335037958767476"><ele>666.0</ele><time>2026-04-25T08:03:46.743Z</time></trkpt><trkpt lat="39.50071424397479" lon="16.335236254713244"><ele>666.0</ele><time>2026-04-25T08:03:47.743Z</time></trkpt><trkpt lat="39.50078320663594" lon="16.33542781372663"><ele>666.0</ele><time>2026-04-25T08:03:48.743Z</time></trkpt><trkpt lat="39.50085992208764" lon="16.335623547151247"><ele>666.0</ele><time>2026-04-25T08:03:49.743Z</time></trkpt><trkpt lat="39.50093133777522" lon="16.335815113524216"><ele>668.6666666666666</ele><time>2026-04-25T08:03:50.743Z</time></trkpt><trkpt lat="39.500990612894334" lon="16.33601422448148"><ele>671.3333333333333</ele><time>2026-04-25T08:03:51.743Z</time></trkpt><trkpt lat="39.50102358953662" lon="16.336215542194044"><ele>674.0</ele><time>2026-04-25T08:03:52.743Z</time></trkpt><trkpt lat="39.501030898597385" lon="16.33642884997063"><ele>676.0</ele><time>2026-04-25T08:03:53.743Z</time></trkpt><trkpt lat="39.501026415846496" lon="16.336645143269298"><ele>678.0</ele><time>2026-04-25T08:03:54.743Z</time></trkpt><trkpt lat="39.501025599234055" lon="16.33684446001582"><ele>680.0</ele><time>2026-04-25T08:03:55.743Z</time></trkpt><trkpt lat="39.501034270059996" lon="16.3370222495637"><ele>680.0</ele><time>2026-04-25T08:03:56.743Z</time></trkpt><trkpt lat="39.501069604512935" lon="16.33718225465829"><ele>680.0</ele><time>2026-04-25T08:03:57.743Z</time></trkpt><trkpt lat="39.501146925011895" lon="16.337310458960683"><ele>680.0</ele><time>2026-04-25T08:03:58.743Z</time></trkpt><trkpt lat="39.50125294450418" lon="16.337423009965715"><ele>680.0</ele><time>2026-04-25T08:03:59.743Z</time></trkpt><trkpt lat="39.50137098137801" lon="16.33752651121851"><ele>680.0</ele><time>2026-04-25T08:04:00.743Z</time></trkpt><trkpt lat="39.50145174754474" lon="16.337647077741195"><ele>680.0</ele><time>2026-04-25T08:04:01.743Z</time></trkpt><trkpt lat="39.5014638577989" lon="16.337814511626327"><ele>680.0</ele><time>2026-04-25T08:04:02.743Z</time></trkpt><trkpt lat="39.50149358701835" lon="16.338001514682535"><ele>680.0</ele><time>2026-04-25T08:04:03.743Z</time></trkpt><trkpt lat="39.50149334080199" lon="16.33820306340493"><ele>680.0</ele><time>2026-04-25T08:04:04.744Z</time></trkpt><trkpt lat="39.5014920128176" lon="16.33837385385706"><ele>680.0</ele><time>2026-04-25T08:04:05.744Z</time></trkpt><trkpt lat="39.50148976411844" lon="16.338516595539836"><ele>680.0</ele><time>2026-04-25T08:04:06.744Z</time></trkpt><trkpt lat="39.50148163553541" lon="16.33864914083655"><ele>680.0</ele><time>2026-04-25T08:04:07.744Z</time></trkpt><trkpt lat="39.50144066329296" lon="16.338772371518193"><ele>680.0</ele><time>2026-04-25T08:04:08.744Z</time></trkpt><trkpt lat="39.50142600071783" lon="16.338909292874273"><ele>680.75</ele><time>2026-04-25T08:04:09.744Z</time></trkpt><trkpt lat="39.501399083645694" lon="16.33904338399466"><ele>681.5</ele><time>2026-04-25T08:04:10.744Z</time></trkpt><trkpt lat="39.5014054962407" lon="16.339193784207357"><ele>682.25</ele><time>2026-04-25T08:04:11.744Z</time></trkpt><trkpt lat="39.501454639452376" lon="16.33935453342359"><ele>683.0</ele><time>2026-04-25T08:04:12.744Z</time></trkpt><trkpt lat="39.501543552590974" lon="16.33951972788831"><ele>683.0</ele><time>2026-04-25T08:04:13.744Z</time></trkpt><trkpt lat="39.50162543191057" lon="16.33966819708498"><ele>683.0</ele><time>2026-04-25T08:04:14.744Z</time></trkpt><trkpt lat="39.50165865848691" lon="16.3398189185221"><ele>683.0</ele><time>2026-04-25T08:04:15.744Z</time></trkpt><trkpt lat="39.501690581586374" lon="16.339953661753228"><ele>683.0</ele><time>2026-04-25T08:04:16.744Z</time></trkpt><trkpt lat="39.50164395701654" lon="16.34010039608904"><ele>683.25</ele><time>2026-04-25T08:04:17.744Z</time></trkpt><trkpt lat="39.501614052712945" lon="16.34027731562605"><ele>683.5</ele><time>2026-04-25T08:04:18.744Z</time></trkpt><trkpt lat="39.5015565423923" lon="16.34045402068244"><ele>683.75</ele><time>2026-04-25T08:04:19.744Z</time></trkpt><trkpt lat="39.50150132094763" lon="16.340626946027054"><ele>684.0</ele><time>2026-04-25T08:04:20.744Z</time></trkpt><trkpt lat="39.501443354409986" lon="16.340780308057848"><ele>683.0</ele><time>2026-04-25T08:04:21.744Z</time></trkpt><trkpt lat="39.501365715289424" lon="16.340909721348545"><ele>682.0</ele><time>2026-04-25T08:04:22.744Z</time></trkpt><trkpt lat="39.501259376805955" lon="16.34100950993156"><ele>681.0</ele><time>2026-04-25T08:04:23.744Z</time></trkpt><trkpt lat="39.50110983072569" lon="16.34104456698438"><ele>680.0</ele><time>2026-04-25T08:04:24.744Z</time></trkpt><trkpt lat="39.50096395998341" lon="16.341111945806578"><ele>682.75</ele><time>2026-04-25T08:04:25.744Z</time></trkpt><trkpt lat="39.50082549858162" lon="16.341149933257554"><ele>685.5</ele><time>2026-04-25T08:04:26.744Z</time></trkpt><trkpt lat="39.500701376448944" lon="16.34119603967725"><ele>688.25</ele><time>2026-04-25T08:04:27.744Z</time></trkpt><trkpt lat="39.50058072708182" lon="16.341247853986083"><ele>691.0</ele><time>2026-04-25T08:04:28.744Z</time></trkpt><trkpt lat="39.50045311327299" lon="16.341303944000845"><ele>690.0</ele><time>2026-04-25T08:04:29.744Z</time></trkpt><trkpt lat="39.500330563020704" lon="16.341358019434"><ele>689.0</ele><time>2026-04-25T08:04:30.744Z</time></trkpt><trkpt lat="39.500218081773376" lon="16.34141235249839"><ele>688.0</ele><time>2026-04-25T08:04:31.744Z</time></trkpt><trkpt lat="39.50011293762003" lon="16.341469703671034"><ele>687.0</ele><time>2026-04-25T08:04:32.744Z</time></trkpt><trkpt lat="39.500016327155436" lon="16.34153290720719"><ele>687.0</ele><time>2026-04-25T08:04:33.744Z</time></trkpt><trkpt lat="39.499918035199464" lon="16.3416219534713"><ele>687.0</ele><time>2026-04-25T08:04:34.744Z</time></trkpt><trkpt lat="39.499820987197914" lon="16.341724904724266"><ele>687.0</ele><time>2026-04-25T08:04:35.744Z</time></trkpt><trkpt lat="39.4997174699044" lon="16.34184595080657"><ele>687.0</ele><time>2026-04-25T08:04:36.744Z</time></trkpt><trkpt lat="39.49961195814264" lon="16.341975694995078"><ele>687.25</ele><time>2026-04-25T08:04:37.744Z</time></trkpt><trkpt lat="39.499504044733555" lon="16.342104273740407"><ele>687.5</ele><time>2026-04-25T08:04:38.744Z</time></trkpt><trkpt lat="39.49940314412247" lon="16.34222520701311"><ele>687.75</ele><time>2026-04-25T08:04:39.744Z</time></trkpt><trkpt lat="39.4993120212688" lon="16.34234521710026"><ele>688.0</ele><time>2026-04-25T08:04:40.744Z</time></trkpt><trkpt lat="39.49923199634668" lon="16.3424733355477"><ele>688.0</ele><time>2026-04-25T08:04:41.744Z</time></trkpt><trkpt lat="39.499176651607414" lon="16.34263240885574"><ele>688.0</ele><time>2026-04-25T08:04:42.744Z</time></trkpt><trkpt lat="39.499147395538564" lon="16.34280959621675"><ele>688.0</ele><time>2026-04-25T08:04:43.744Z</time></trkpt><trkpt lat="39.49912942209868" lon="16.34299990227234"><ele>688.0</ele><time>2026-04-25T08:04:44.744Z</time></trkpt><trkpt lat="39.49910663639302" lon="16.343196848164435"><ele>690.0</ele><time>2026-04-25T08:04:45.744Z</time></trkpt><trkpt lat="39.499082987603956" lon="16.34339921582673"><ele>692.0</ele><time>2026-04-25T08:04:46.744Z</time></trkpt><trkpt lat="39.49906126895498" lon="16.34359565258348"><ele>694.0</ele><time>2026-04-25T08:04:47.744Z</time></trkpt><trkpt lat="39.499039139902365" lon="16.343780180785316"><ele>694.75</ele><time>2026-04-25T08:04:48.744Z</time></trkpt><trkpt lat="39.49901347277004" lon="16.343965466594067"><ele>695.5</ele><time>2026-04-25T08:04:49.744Z</time></trkpt><trkpt lat="39.49900197453317" lon="16.344093114790027"><ele>696.25</ele><time>2026-04-25T08:04:50.744Z</time></trkpt><trkpt lat="39.49899452640969" lon="16.34422818879247"><ele>697.0</ele><time>2026-04-25T08:04:51.744Z</time></trkpt><trkpt lat="39.49900802994622" lon="16.344359273276098"><ele>697.0</ele><time>2026-04-25T08:04:52.744Z</time></trkpt><trkpt lat="39.49904141530162" lon="16.344490832112044"><ele>697.0</ele><time>2026-04-25T08:04:53.744Z</time></trkpt><trkpt lat="39.499094481427356" lon="16.344617351145345"><ele>697.0</ele><time>2026-04-25T08:04:54.744Z</time></trkpt><trkpt lat="39.4991535071423" lon="16.34473815883978"><ele>697.0</ele><time>2026-04-25T08:04:55.744Z</time></trkpt><trkpt lat="39.499201829712696" lon="16.344849180459228"><ele>697.0</ele><time>2026-04-25T08:04:56.744Z</time></trkpt><trkpt lat="39.49923522953876" lon="16.34496152572386"><ele>696.5</ele><time>2026-04-25T08:04:57.744Z</time></trkpt><trkpt lat="39.49924849656249" lon="16.34507358764263"><ele>696.0</ele><time>2026-04-25T08:04:58.744Z</time></trkpt><trkpt lat="39.49924675237382" lon="16.345183111946387"><ele>695.5</ele><time>2026-04-25T08:04:59.744Z</time></trkpt><trkpt lat="39.49923219809173" lon="16.34528653222543"><ele>695.0</ele><time>2026-04-25T08:05:00.744Z</time></trkpt><trkpt lat="39.499207421201476" lon="16.34539807977048"><ele>694.5</ele><time>2026-04-25T08:05:01.744Z</time></trkpt><trkpt lat="39.49918448374916" lon="16.345513353712146"><ele>694.0</ele><time>2026-04-25T08:05:02.744Z</time></trkpt><trkpt lat="39.49917332203448" lon="16.34563643722064"><ele>693.6</ele><time>2026-04-25T08:05:03.744Z</time></trkpt><trkpt lat="39.49918163659282" lon="16.345762717651358"><ele>693.2</ele><time>2026-04-25T08:05:04.744Z</time></trkpt><trkpt lat="39.499218528093365" lon="16.345888107526072"><ele>692.8000000000001</ele><time>2026-04-25T08:05:05.744Z</time></trkpt><trkpt lat="39.49926291449641" lon="16.34600942649284"><ele>692.4000000000001</ele><time>2026-04-25T08:05:06.744Z</time></trkpt><trkpt lat="39.49930798016711" lon="16.346113460394086"><ele>692.0</ele><time>2026-04-25T08:05:07.744Z</time></trkpt><trkpt lat="39.499366883192586" lon="16.346205346304114"><ele>692.0</ele><time>2026-04-25T08:05:08.743Z</time></trkpt><trkpt lat="39.49939448357959" lon="16.34631679276614"><ele>692.0</ele><time>2026-04-25T08:05:09.743Z</time></trkpt><trkpt lat="39.49940755902318" lon="16.34642863870085"><ele>692.0</ele><time>2026-04-25T08:05:10.743Z</time></trkpt><trkpt lat="39.49940990762919" lon="16.346550388282306"><ele>692.0</ele><time>2026-04-25T08:05:11.743Z</time></trkpt><trkpt lat="39.499409813254545" lon="16.34668194100427"><ele>692.0</ele><time>2026-04-25T08:05:12.743Z</time></trkpt><trkpt lat="39.499410268751205" lon="16.346823099291328"><ele>692.0</ele><time>2026-04-25T08:05:13.743Z</time></trkpt><trkpt lat="39.4994231449713" lon="16.346957507920703"><ele>692.0</ele><time>2026-04-25T08:05:14.743Z</time></trkpt><trkpt lat="39.499415673848006" lon="16.34707389289194"><ele>692.0</ele><time>2026-04-25T08:05:15.743Z</time></trkpt><trkpt lat="39.49938818140383" lon="16.347187719430195"><ele>692.0</ele><time>2026-04-25T08:05:16.743Z</time></trkpt><trkpt lat="39.499320916366" lon="16.34727072809434"><ele>692.0</ele><time>2026-04-25T08:05:17.743Z</time></trkpt><trkpt lat="39.49924473371961" lon="16.347351108016856"><ele>694.2</ele><time>2026-04-25T08:05:18.743Z</time></trkpt><trkpt lat="39.49915149872964" lon="16.347380355343702"><ele>696.4000000000001</ele><time>2026-04-25T08:05:19.743Z</time></trkpt><trkpt lat="39.49905946348838" lon="16.34742826993032"><ele>698.5999999999999</ele><time>2026-04-25T08:05:20.743Z</time></trkpt><trkpt lat="39.49896097032179" lon="16.347476846563957"><ele>700.8</ele><time>2026-04-25T08:05:21.743Z</time></trkpt><trkpt lat="39.498862964420574" lon="16.347521697510803"><ele>703.0</ele><time>2026-04-25T08:05:22.743Z</time></trkpt><trkpt lat="39.49876364112191" lon="16.347505524167676"><ele>704.8</ele><time>2026-04-25T08:05:23.743Z</time></trkpt><trkpt lat="39.49866386353788" lon="16.347433393633047"><ele>706.5999999999999</ele><time>2026-04-25T08:05:24.743Z</time></trkpt><trkpt lat="39.49856397454716" lon="16.34738149963798"><ele>708.4000000000001</ele><time>2026-04-25T08:05:25.743Z</time></trkpt><trkpt lat="39.49849133736127" lon="16.347309647015877"><ele>710.2</ele><time>2026-04-25T08:05:26.743Z</time></trkpt><trkpt lat="39.498409720656376" lon="16.34724387225539"><ele>712.0</ele><time>2026-04-25T08:05:27.743Z</time></trkpt><trkpt lat="39.49832661051988" lon="16.347185204033174"><ele>707.4000000000001</ele><time>2026-04-25T08:05:28.743Z</time></trkpt><trkpt lat="39.498228427030014" lon="16.347128708639616"><ele>702.8000000000001</ele><time>2026-04-25T08:05:29.743Z</time></trkpt><trkpt lat="39.4981258496731" lon="16.347093039864546"><ele>698.2</ele><time>2026-04-25T08:05:30.743Z</time></trkpt><trkpt lat="39.49801405256893" lon="16.34708426707591"><ele>693.6</ele><time>2026-04-25T08:05:31.743Z</time></trkpt><trkpt lat="39.49789952082215" lon="16.347112836927845"><ele>689.0</ele><time>2026-04-25T08:05:32.743Z</time></trkpt><trkpt lat="39.49778940946048" lon="16.3471789875618"><ele>694.75</ele><time>2026-04-25T08:05:33.743Z</time></trkpt><trkpt lat="39.49768429336005" lon="16.34726624893813"><ele>700.5</ele><time>2026-04-25T08:05:34.743Z</time></trkpt><trkpt lat="39.497577873592505" lon="16.347359400070697"><ele>706.25</ele><time>2026-04-25T08:05:35.743Z</time></trkpt><trkpt lat="39.49747458236556" lon="16.34744590254537"><ele>712.0</ele><time>2026-04-25T08:05:36.743Z</time></trkpt><trkpt lat="39.497378372544965" lon="16.347524599457476"><ele>712.0</ele><time>2026-04-25T08:05:37.743Z</time></trkpt><trkpt lat="39.49728956114482" lon="16.34759601865208"><ele>712.0</ele><time>2026-04-25T08:05:38.743Z</time></trkpt><trkpt lat="39.49721022926867" lon="16.34767147324224"><ele>712.0</ele><time>2026-04-25T08:05:39.743Z</time></trkpt><trkpt lat="39.497148072316854" lon="16.347771403891766"><ele>712.0</ele><time>2026-04-25T08:05:40.743Z</time></trkpt><trkpt lat="39.49711005725515" lon="16.34789127480129"><ele>712.0</ele><time>2026-04-25T08:05:41.743Z</time></trkpt><trkpt lat="39.497097427247745" lon="16.3480243214709"><ele>714.4000000000001</ele><time>2026-04-25T08:05:42.743Z</time></trkpt><trkpt lat="39.49710723325052" lon="16.348161072599478"><ele>716.8000000000001</ele><time>2026-04-25T08:05:43.743Z</time></trkpt><trkpt lat="39.497131111131544" lon="16.348302477928286"><ele>719.2</ele><time>2026-04-25T08:05:44.743Z</time></trkpt><trkpt lat="39.49715398041409" lon="16.348447173768495"><ele>721.6</ele><time>2026-04-25T08:05:45.743Z</time></trkpt><trkpt lat="39.49716845650608" lon="16.34859642136334"><ele>724.0</ele><time>2026-04-25T08:05:46.743Z</time></trkpt><trkpt lat="39.49717691770285" lon="16.34875163015519"><ele>723.5</ele><time>2026-04-25T08:05:47.743Z</time></trkpt><trkpt lat="39.49718845949454" lon="16.34891203081796"><ele>723.0</ele><time>2026-04-25T08:05:48.743Z</time></trkpt><trkpt lat="39.49720256200189" lon="16.349074949369033"><ele>722.5</ele><time>2026-04-25T08:05:49.743Z</time></trkpt><trkpt lat="39.497215189601036" lon="16.34923174520723"><ele>722.0</ele><time>2026-04-25T08:05:50.743Z</time></trkpt><trkpt lat="39.49723500169707" lon="16.349384362098355"><ele>722.0</ele><time>2026-04-25T08:05:51.743Z</time></trkpt><trkpt lat="39.49727748558766" lon="16.349528645341795"><ele>722.0</ele><time>2026-04-25T08:05:52.743Z</time></trkpt><trkpt lat="39.49734101840341" lon="16.349669477165477"><ele>722.0</ele><time>2026-04-25T08:05:53.743Z</time></trkpt><trkpt lat="39.497422790687395" lon="16.349803033647436"><ele>722.0</ele><time>2026-04-25T08:05:54.743Z</time></trkpt><trkpt lat="39.49750002563602" lon="16.349941571611357"><ele>721.0</ele><time>2026-04-25T08:05:55.743Z</time></trkpt><trkpt lat="39.497548683454525" lon="16.350093307124382"><ele>720.0</ele><time>2026-04-25T08:05:56.743Z</time></trkpt><trkpt lat="39.49753716403042" lon="16.350264164113643"><ele>719.0</ele><time>2026-04-25T08:05:57.743Z</time></trkpt><trkpt lat="39.497546136065175" lon="16.350429245633265"><ele>718.0</ele><time>2026-04-25T08:05:58.743Z</time></trkpt><trkpt lat="39.4975676532647" lon="16.35058986389253"><ele>718.0</ele><time>2026-04-25T08:05:59.743Z</time></trkpt><trkpt lat="39.49756787516146" lon="16.350749813325127"><ele>718.0</ele><time>2026-04-25T08:06:00.743Z</time></trkpt><trkpt lat="39.49757005777905" lon="16.350908260187897"><ele>718.0</ele><time>2026-04-25T08:06:01.743Z</time></trkpt><trkpt lat="39.49757498067257" lon="16.351065801128577"><ele>718.0</ele><time>2026-04-25T08:06:02.743Z</time></trkpt><trkpt lat="39.4975780477794" lon="16.351208445253302"><ele>718.0</ele><time>2026-04-25T08:06:03.743Z</time></trkpt><trkpt lat="39.49758028499319" lon="16.351342768094415"><ele>718.0</ele><time>2026-04-25T08:06:04.743Z</time></trkpt><trkpt lat="39.497582624237246" lon="16.351488119611748"><ele>718.0</ele><time>2026-04-25T08:06:05.743Z</time></trkpt><trkpt lat="39.49758765902625" lon="16.351642315187018"><ele>718.0</ele><time>2026-04-25T08:06:06.743Z</time></trkpt><trkpt lat="39.497587321879294" lon="16.351804077575302"><ele>718.25</ele><time>2026-04-25T08:06:07.743Z</time></trkpt><trkpt lat="39.49758635762124" lon="16.35196726408046"><ele>718.5</ele><time>2026-04-25T08:06:08.743Z</time></trkpt><trkpt lat="39.497586381146576" lon="16.35213248963093"><ele>718.75</ele><time>2026-04-25T08:06:09.744Z</time></trkpt><trkpt lat="39.49758556173642" lon="16.352301496391668"><ele>719.0</ele><time>2026-04-25T08:06:10.744Z</time></trkpt><trkpt lat="39.49758401828095" lon="16.35247225618198"><ele>718.5</ele><time>2026-04-25T08:06:11.744Z</time></trkpt><trkpt lat="39.49758260256792" lon="16.352636928054345"><ele>718.0</ele><time>2026-04-25T08:06:12.744Z</time></trkpt><trkpt lat="39.49758733871653" lon="16.35278733813693"><ele>717.5</ele><time>2026-04-25T08:06:13.744Z</time></trkpt><trkpt lat="39.497607781233526" lon="16.352937029111207"><ele>717.0</ele><time>2026-04-25T08:06:14.744Z</time></trkpt><trkpt lat="39.49765615417415" lon="16.35308208117739"><ele>717.0</ele><time>2026-04-25T08:06:15.744Z</time></trkpt><trkpt lat="39.49772081209516" lon="16.35323764502266"><ele>717.0</ele><time>2026-04-25T08:06:16.744Z</time></trkpt><trkpt lat="39.49779202728425" lon="16.353398832140364"><ele>717.0</ele><time>2026-04-25T08:06:17.744Z</time></trkpt><trkpt lat="39.49785298276634" lon="16.353565673303894"><ele>717.0</ele><time>2026-04-25T08:06:18.744Z</time></trkpt><trkpt lat="39.49792040800461" lon="16.353738480284214"><ele>724.3333333333334</ele><time>2026-04-25T08:06:19.744Z</time></trkpt><trkpt lat="39.49799226282845" lon="16.353919346539083"><ele>731.6666666666667</ele><time>2026-04-25T08:06:20.744Z</time></trkpt><trkpt lat="39.49806574963314" lon="16.35410173034438"><ele>739.0</ele><time>2026-04-25T08:06:21.744Z</time></trkpt><trkpt lat="39.49813028669579" lon="16.3542794385457"><ele>739.0</ele><time>2026-04-25T08:06:22.744Z</time></trkpt><trkpt lat="39.4981749018062" lon="16.354450558331788"><ele>739.0</ele><time>2026-04-25T08:06:23.744Z</time></trkpt><trkpt lat="39.498191822240805" lon="16.354625532858066"><ele>739.0</ele><time>2026-04-25T08:06:24.744Z</time></trkpt><trkpt lat="39.49819084972263" lon="16.35481440666199"><ele>739.0</ele><time>2026-04-25T08:06:25.744Z</time></trkpt><trkpt lat="39.498172396352466" lon="16.35500622159458"><ele>740.0</ele><time>2026-04-25T08:06:26.744Z</time></trkpt><trkpt lat="39.498138086034544" lon="16.35519784744343"><ele>741.0</ele><time>2026-04-25T08:06:27.744Z</time></trkpt><trkpt lat="39.49810467543622" lon="16.355387105191184"><ele>742.0</ele><time>2026-04-25T08:06:28.744Z</time></trkpt><trkpt lat="39.49807147858542" lon="16.355576258585536"><ele>744.25</ele><time>2026-04-25T08:06:29.744Z</time></trkpt><trkpt lat="39.49803392922224" lon="16.355757373242273"><ele>746.5</ele><time>2026-04-25T08:06:30.744Z</time></trkpt><trkpt lat="39.497989574748416" lon="16.35594324153762"><ele>748.75</ele><time>2026-04-25T08:06:31.744Z</time></trkpt><trkpt lat="39.497916731811216" lon="16.356111790333333"><ele>751.0</ele><time>2026-04-25T08:06:32.744Z</time></trkpt><trkpt lat="39.497847517729106" lon="16.356287076008854"><ele>743.3333333333334</ele><time>2026-04-25T08:06:33.744Z</time></trkpt><trkpt lat="39.49778372540723" lon="16.356468688645368"><ele>735.6666666666666</ele><time>2026-04-25T08:06:34.744Z</time></trkpt><trkpt lat="39.49770390442271" lon="16.356637663554064"><ele>728.0</ele><time>2026-04-25T08:06:35.744Z</time></trkpt><trkpt lat="39.49762857588437" lon="16.35680340745514"><ele>728.0</ele><time>2026-04-25T08:06:36.744Z</time></trkpt><trkpt lat="39.49756213708753" lon="16.356957430560573"><ele>728.0</ele><time>2026-04-25T08:06:37.744Z</time></trkpt><trkpt lat="39.497500428471504" lon="16.357104669428676"><ele>728.0</ele><time>2026-04-25T08:06:38.744Z</time></trkpt><trkpt lat="39.49744666978558" lon="16.357250918576508"><ele>728.0</ele><time>2026-04-25T08:06:39.744Z</time></trkpt><trkpt lat="39.49740354908495" lon="16.357410077973718"><ele>730.25</ele><time>2026-04-25T08:06:40.743Z</time></trkpt><trkpt lat="39.49737020559405" lon="16.357580415650176"><ele>732.5</ele><time>2026-04-25T08:06:41.743Z</time></trkpt><trkpt lat="39.49734293460837" lon="16.357762255411807"><ele>734.75</ele><time>2026-04-25T08:06:42.743Z</time></trkpt><trkpt lat="39.49732023471212" lon="16.35794892297366"><ele>737.0</ele><time>2026-04-25T08:06:43.743Z</time></trkpt><trkpt lat="39.49729666480265" lon="16.358140588049157"><ele>737.3333333333333</ele><time>2026-04-25T08:06:44.743Z</time></trkpt><trkpt lat="39.49727632197866" lon="16.358338943166782"><ele>737.6666666666666</ele><time>2026-04-25T08:06:45.743Z</time></trkpt><trkpt lat="39.497258954365655" lon="16.358535503189724"><ele>738.0</ele><time>2026-04-25T08:06:46.743Z</time></trkpt><trkpt lat="39.49724294945813" lon="16.358729623470563"><ele>739.25</ele><time>2026-04-25T08:06:47.743Z</time></trkpt><trkpt lat="39.49722958897954" lon="16.35890823864377"><ele>740.5</ele><time>2026-04-25T08:06:48.743Z</time></trkpt><trkpt lat="39.497226580828155" lon="16.35908361340991"><ele>741.75</ele><time>2026-04-25T08:06:49.743Z</time></trkpt><trkpt lat="39.4972139480556" lon="16.35926053911192"><ele>743.0</ele><time>2026-04-25T08:06:50.743Z</time></trkpt><trkpt lat="39.497206273240145" lon="16.35944886135951"><ele>743.0</ele><time>2026-04-25T08:06:51.743Z</time></trkpt><trkpt lat="39.49719638601484" lon="16.35963992799201"><ele>743.0</ele><time>2026-04-25T08:06:52.743Z</time></trkpt><trkpt lat="39.49720029475673" lon="16.359852989616687"><ele>743.0</ele><time>2026-04-25T08:06:53.743Z</time></trkpt><trkpt lat="39.497229191224186" lon="16.360056572243206"><ele>742.6666666666666</ele><time>2026-04-25T08:06:54.743Z</time></trkpt><trkpt lat="39.49723203639311" lon="16.360282436363878"><ele>742.3333333333334</ele><time>2026-04-25T08:06:55.743Z</time></trkpt><trkpt lat="39.49724297313939" lon="16.360495062410532"><ele>742.0</ele><time>2026-04-25T08:06:56.743Z</time></trkpt><trkpt lat="39.49726467454999" lon="16.36072554411098"><ele>742.0</ele><time>2026-04-25T08:06:57.743Z</time></trkpt><trkpt lat="39.49728559275558" lon="16.360958198134202"><ele>742.0</ele><time>2026-04-25T08:06:58.743Z</time></trkpt><trkpt lat="39.497303438553345" lon="16.36119062753809"><ele>742.0</ele><time>2026-04-25T08:06:59.743Z</time></trkpt><trkpt lat="39.49731645505079" lon="16.361421209939653"><ele>742.0</ele><time>2026-04-25T08:07:00.743Z</time></trkpt><trkpt lat="39.49732644998487" lon="16.361645524691838"><ele>742.0</ele><time>2026-04-25T08:07:01.743Z</time></trkpt><trkpt lat="39.497335916174286" lon="16.361849205773186"><ele>742.0</ele><time>2026-04-25T08:07:02.743Z</time></trkpt><trkpt lat="39.497345948119836" lon="16.36203283179466"><ele>744.25</ele><time>2026-04-25T08:07:03.743Z</time></trkpt><trkpt lat="39.49735793977743" lon="16.36220074180117"><ele>746.5</ele><time>2026-04-25T08:07:04.743Z</time></trkpt><trkpt lat="39.49736951994495" lon="16.36236036652225"><ele>748.75</ele><time>2026-04-25T08:07:05.743Z</time></trkpt><trkpt lat="39.49738205209257" lon="16.36252664354933"><ele>751.0</ele><time>2026-04-25T08:07:06.743Z</time></trkpt><trkpt lat="39.49739406885676" lon="16.3626933871993"><ele>751.0</ele><time>2026-04-25T08:07:07.743Z</time></trkpt><trkpt lat="39.49740654587068" lon="16.362867518917366"><ele>751.0</ele><time>2026-04-25T08:07:08.743Z</time></trkpt><trkpt lat="39.49741613345362" lon="16.36304937372704"><ele>751.0</ele><time>2026-04-25T08:07:09.743Z</time></trkpt><trkpt lat="39.49742761497228" lon="16.363236574735"><ele>751.0</ele><time>2026-04-25T08:07:10.743Z</time></trkpt><trkpt lat="39.49745140957584" lon="16.363422285646223"><ele>755.0</ele><time>2026-04-25T08:07:11.743Z</time></trkpt><trkpt lat="39.49748289128633" lon="16.363611994751885"><ele>759.0</ele><time>2026-04-25T08:07:12.743Z</time></trkpt><trkpt lat="39.49751910126388" lon="16.36380494701858"><ele>763.0</ele><time>2026-04-25T08:07:13.743Z</time></trkpt><trkpt lat="39.49756516837413" lon="16.364017305171874"><ele>763.3333333333334</ele><time>2026-04-25T08:07:14.743Z</time></trkpt><trkpt lat="39.49764811895631" lon="16.364210873570432"><ele>763.6666666666666</ele><time>2026-04-25T08:07:15.743Z</time></trkpt><trkpt lat="39.49774817877656" lon="16.36438897665446"><ele>764.0</ele><time>2026-04-25T08:07:16.743Z</time></trkpt><trkpt lat="39.497809676236194" lon="16.364542434178418"><ele>761.0</ele><time>2026-04-25T08:07:17.743Z</time></trkpt><trkpt lat="39.497908124884795" lon="16.36470413865946"><ele>758.0</ele><time>2026-04-25T08:07:18.743Z</time></trkpt><trkpt lat="39.498039204026696" lon="16.364906209222823"><ele>755.0</ele><time>2026-04-25T08:07:19.743Z</time></trkpt><trkpt lat="39.498186015718154" lon="16.365097610472752"><ele>758.0</ele><time>2026-04-25T08:07:20.743Z</time></trkpt><trkpt lat="39.49833519130478" lon="16.365287772516318"><ele>761.0</ele><time>2026-04-25T08:07:21.743Z</time></trkpt><trkpt lat="39.49844032351094" lon="16.36544889143549"><ele>764.0</ele><time>2026-04-25T08:07:22.743Z</time></trkpt><trkpt lat="39.49852670121681" lon="16.36557479343662"><ele>764.0</ele><time>2026-04-25T08:07:23.743Z</time></trkpt><trkpt lat="39.498649897194106" lon="16.36572803971382"><ele>764.0</ele><time>2026-04-25T08:07:24.743Z</time></trkpt><trkpt lat="39.49874113612319" lon="16.365904390288456"><ele>764.0</ele><time>2026-04-25T08:07:25.743Z</time></trkpt><trkpt lat="39.4988378241843" lon="16.36608973130756"><ele>766.6666666666666</ele><time>2026-04-25T08:07:26.743Z</time></trkpt><trkpt lat="39.49893138515921" lon="16.366277322146633"><ele>769.3333333333333</ele><time>2026-04-25T08:07:27.743Z</time></trkpt><trkpt lat="39.49901887783548" lon="16.36647871850848"><ele>772.0</ele><time>2026-04-25T08:07:28.743Z</time></trkpt><trkpt lat="39.499102696490645" lon="16.366682326736647"><ele>772.0</ele><time>2026-04-25T08:07:29.743Z</time></trkpt><trkpt lat="39.49917426646161" lon="16.366899449657808"><ele>772.0</ele><time>2026-04-25T08:07:30.743Z</time></trkpt><trkpt lat="39.499242123644024" lon="16.3671244264816"><ele>772.0</ele><time>2026-04-25T08:07:31.743Z</time></trkpt><trkpt lat="39.499303991001085" lon="16.367346896725305"><ele>771.6666666666666</ele><time>2026-04-25T08:07:32.743Z</time></trkpt><trkpt lat="39.499361947911346" lon="16.367557663049247"><ele>771.3333333333333</ele><time>2026-04-25T08:07:33.743Z</time></trkpt><trkpt lat="39.49941129911746" lon="16.367756557058318"><ele>771.0</ele><time>2026-04-25T08:07:34.743Z</time></trkpt><trkpt lat="39.4994602416866" lon="16.367946284585706"><ele>774.0</ele><time>2026-04-25T08:07:35.743Z</time></trkpt><trkpt lat="39.49950945990962" lon="16.368136406760353"><ele>777.0</ele><time>2026-04-25T08:07:36.743Z</time></trkpt><trkpt lat="39.49955703376173" lon="16.36832919506971"><ele>780.0</ele><time>2026-04-25T08:07:37.743Z</time></trkpt><trkpt lat="39.499605832612126" lon="16.368526530173256"><ele>791.0</ele><time>2026-04-25T08:07:38.743Z</time></trkpt><trkpt lat="39.49965411452831" lon="16.36872430987104"><ele>802.0</ele><time>2026-04-25T08:07:39.743Z</time></trkpt><trkpt lat="39.499703022504455" lon="16.368934274754082"><ele>813.0</ele><time>2026-04-25T08:07:40.743Z</time></trkpt><trkpt lat="39.499753018345274" lon="16.369140282284768"><ele>815.6666666666667</ele><time>2026-04-25T08:07:41.743Z</time></trkpt><trkpt lat="39.49980381004865" lon="16.36935044528271"><ele>818.3333333333334</ele><time>2026-04-25T08:07:42.743Z</time></trkpt><trkpt lat="39.499850123084855" lon="16.369543943389115"><ele>821.0</ele><time>2026-04-25T08:07:43.743Z</time></trkpt><trkpt lat="39.49990076133564" lon="16.369752867925104"><ele>826.3333333333334</ele><time>2026-04-25T08:07:44.799Z</time></trkpt><trkpt lat="39.499949737061016" lon="16.369955090341513"><ele>831.6666666666667</ele><time>2026-04-25T08:07:45.801Z</time></trkpt><trkpt lat="39.50001717830244" lon="16.370179867684104"><ele>837.0</ele><time>2026-04-25T08:08:00.198Z</time></trkpt><trkpt lat="39.5000706936918" lon="16.37038117037899"><ele>841.3333333333333</ele><time>2026-04-25T08:08:01.201Z</time></trkpt><trkpt lat="39.50012485693185" lon="16.37058150413807"><ele>845.6666666666666</ele><time>2026-04-25T08:08:02.201Z</time></trkpt><trkpt lat="39.500195496034536" lon="16.3707734606252"><ele>850.0</ele><time>2026-04-25T08:08:03.199Z</time></trkpt><trkpt lat="39.500235219400594" lon="16.37098043899081"><ele>850.0</ele><time>2026-04-25T08:08:04.199Z</time></trkpt><trkpt lat="39.50029194963314" lon="16.371179920013365"><ele>850.0</ele><time>2026-04-25T08:08:05.201Z</time></trkpt><trkpt lat="39.500348474007446" lon="16.371378677119996"><ele>850.0</ele><time>2026-04-25T08:08:06.2Z</time></trkpt><trkpt lat="39.50042093525784" lon="16.371570407376787"><ele>854.6666666666666</ele><time>2026-04-25T08:08:07.201Z</time></trkpt><trkpt lat="39.50047804639385" lon="16.371769130819423"><ele>859.3333333333333</ele><time>2026-04-25T08:08:08.201Z</time></trkpt><trkpt lat="39.500535158101776" lon="16.371967856252095"><ele>864.0</ele><time>2026-04-25T08:08:09.201Z</time></trkpt><trkpt lat="39.50057670722643" lon="16.37217413562815"><ele>860.6666666666667</ele><time>2026-04-25T08:08:10.201Z</time></trkpt><trkpt lat="39.500634417169636" lon="16.372372573453998"><ele>857.3333333333334</ele><time>2026-04-25T08:08:11.201Z</time></trkpt><trkpt lat="39.50069213084735" lon="16.372571024207094"><ele>854.0</ele><time>2026-04-25T08:08:12.201Z</time></trkpt><trkpt lat="39.5007654443408" lon="16.37276192289943"><ele>854.0</ele><time>2026-04-25T08:08:13.201Z</time></trkpt><trkpt lat="39.50082315497411" lon="16.37296036311693"><ele>854.0</ele><time>2026-04-25T08:08:14.201Z</time></trkpt><trkpt lat="39.50086526634795" lon="16.37316635717693"><ele>854.0</ele><time>2026-04-25T08:08:15.201Z</time></trkpt><trkpt lat="39.50092298133677" lon="16.373364812476897"><ele>758.0</ele><time>2026-04-25T08:08:16.201Z</time></trkpt><trkpt lat="39.50201752720207" lon="16.37823900929193"><ele>758.0</ele><time>2026-04-25T08:08:17.743Z</time></trkpt><trkpt lat="39.50205655040691" lon="16.378473504618896"><ele>758.0</ele><time>2026-04-25T08:08:18.743Z</time></trkpt><trkpt lat="39.50209651217226" lon="16.378711644584154"><ele>758.0</ele><time>2026-04-25T08:08:19.742Z</time></trkpt><trkpt lat="39.50212265349204" lon="16.378928986617463"><ele>753.0</ele><time>2026-04-25T08:08:20.742Z</time></trkpt><trkpt lat="39.502149203268786" lon="16.3791480964234"><ele>748.0</ele><time>2026-04-25T08:08:21.742Z</time></trkpt><trkpt lat="39.50216744325448" lon="16.379353704597758"><ele>743.0</ele><time>2026-04-25T08:08:22.742Z</time></trkpt><trkpt lat="39.50218254341952" lon="16.379530375413037"><ele>742.25</ele><time>2026-04-25T08:08:23.743Z</time></trkpt><trkpt lat="39.50219310435763" lon="16.379725053135115"><ele>741.5</ele><time>2026-04-25T08:08:24.743Z</time></trkpt><trkpt lat="39.50220359445611" lon="16.37991838188253"><ele>740.75</ele><time>2026-04-25T08:08:25.743Z</time></trkpt><trkpt lat="39.50220890763451" lon="16.380108978407023"><ele>740.0</ele><time>2026-04-25T08:08:26.743Z</time></trkpt><trkpt lat="39.50221895941751" lon="16.380293458808687"><ele>740.0</ele><time>2026-04-25T08:08:27.743Z</time></trkpt><trkpt lat="39.50222137514373" lon="16.380475812196465"><ele>740.0</ele><time>2026-04-25T08:08:28.743Z</time></trkpt><trkpt lat="39.50222229600951" lon="16.38066079011065"><ele>740.0</ele><time>2026-04-25T08:08:29.743Z</time></trkpt><trkpt lat="39.50222741277663" lon="16.38084493812893"><ele>740.0</ele><time>2026-04-25T08:08:30.743Z</time></trkpt><trkpt lat="39.50223377532908" lon="16.380992116759725"><ele>739.5</ele><time>2026-04-25T08:08:31.743Z</time></trkpt><trkpt lat="39.502235288034896" lon="16.38110506795638"><ele>739.0</ele><time>2026-04-25T08:08:32.743Z</time></trkpt><trkpt lat="39.50224182882158" lon="16.3812364563036"><ele>738.5</ele><time>2026-04-25T08:08:33.743Z</time></trkpt><trkpt lat="39.5022430092299" lon="16.381346067317903"><ele>738.0</ele><time>2026-04-25T08:08:34.743Z</time></trkpt><trkpt lat="39.502236489402975" lon="16.381459247402013"><ele>737.5</ele><time>2026-04-25T08:08:35.743Z</time></trkpt><trkpt lat="39.502233552204345" lon="16.381565263758546"><ele>737.0</ele><time>2026-04-25T08:08:36.743Z</time></trkpt><trkpt lat="39.50220430637917" lon="16.381734466308373"><ele>736.3333333333333</ele><time>2026-04-25T08:08:38.743Z</time></trkpt><trkpt lat="39.502172180512154" lon="16.38182280106729"><ele>735.6666666666666</ele><time>2026-04-25T08:08:39.743Z</time></trkpt><trkpt lat="39.50215633130927" lon="16.381978597611706"><ele>735.0</ele><time>2026-04-25T08:08:41.743Z</time></trkpt><trkpt lat="39.50220506653892" lon="16.382042228688604"><ele>734.3333333333334</ele><time>2026-04-25T08:08:42.743Z</time></trkpt><trkpt lat="39.502283317217035" lon="16.38206592047998"><ele>733.6666666666667</ele><time>2026-04-25T08:08:43.743Z</time></trkpt><trkpt lat="39.50235670295444" lon="16.3820299091633"><ele>733.0</ele><time>2026-04-25T08:08:44.743Z</time></trkpt><trkpt lat="39.5024158422695" lon="16.381967112039405"><ele>733.0</ele><time>2026-04-25T08:08:45.743Z</time></trkpt><trkpt lat="39.5024741311257" lon="16.381901720081146"><ele>733.0</ele><time>2026-04-25T08:08:46.743Z</time></trkpt><trkpt lat="39.502551869497665" lon="16.38185956442278"><ele>733.0</ele><time>2026-04-25T08:08:47.743Z</time></trkpt><trkpt lat="39.50263424180374" lon="16.3818356795904"><ele>733.0</ele><time>2026-04-25T08:08:48.743Z</time></trkpt><trkpt lat="39.50272287008484" lon="16.381817467817385"><ele>733.0</ele><time>2026-04-25T08:08:49.743Z</time></trkpt><trkpt lat="39.50282812650412" lon="16.381810333005575"><ele>733.0</ele><time>2026-04-25T08:08:50.743Z</time></trkpt><trkpt lat="39.50293745173908" lon="16.381811587027318"><ele>734.6666666666667</ele><time>2026-04-25T08:08:51.743Z</time></trkpt><trkpt lat="39.503037704542606" lon="16.381834358838034"><ele>736.3333333333334</ele><time>2026-04-25T08:08:52.743Z</time></trkpt><trkpt lat="39.50312115201168" lon="16.381863814250355"><ele>738.0</ele><time>2026-04-25T08:08:53.743Z</time></trkpt><trkpt lat="39.503193267050804" lon="16.381897518480574"><ele>739.6666666666666</ele><time>2026-04-25T08:08:54.743Z</time></trkpt><trkpt lat="39.50326432450711" lon="16.38193444401101"><ele>741.3333333333333</ele><time>2026-04-25T08:08:55.743Z</time></trkpt><trkpt lat="39.503341412300145" lon="16.38197247650533"><ele>743.0</ele><time>2026-04-25T08:08:56.743Z</time></trkpt><trkpt lat="39.50342645144961" lon="16.38201234451376"><ele>743.0</ele><time>2026-04-25T08:08:57.743Z</time></trkpt><trkpt lat="39.50350981354211" lon="16.38205567366832"><ele>743.0</ele><time>2026-04-25T08:08:58.743Z</time></trkpt><trkpt lat="39.50358671349628" lon="16.382099693095977"><ele>743.0</ele><time>2026-04-25T08:08:59.743Z</time></trkpt><trkpt lat="39.50365210108152" lon="16.382128096710552"><ele>743.0</ele><time>2026-04-25T08:09:00.743Z</time></trkpt><trkpt lat="39.503757245831565" lon="16.38215938654796"><ele>743.0</ele><time>2026-04-25T08:09:02.743Z</time></trkpt><trkpt lat="39.50384067188074" lon="16.382201370765188"><ele>743.0</ele><time>2026-04-25T08:09:04.743Z</time></trkpt><trkpt lat="39.503934855764584" lon="16.38223589725359"><ele>743.5999999999999</ele><time>2026-04-25T08:09:06.743Z</time></trkpt><trkpt lat="39.50404341814169" lon="16.38229252856672"><ele>744.1999999999999</ele><time>2026-04-25T08:09:08.743Z</time></trkpt><trkpt lat="39.50416899059631" lon="16.38235630466605"><ele>744.8</ele><time>2026-04-25T08:09:10.743Z</time></trkpt><trkpt lat="39.5042413665701" lon="16.382394835816747"><ele>745.4</ele><time>2026-04-25T08:09:11.743Z</time></trkpt><trkpt lat="39.50430869215204" lon="16.382432245882633"><ele>746.0</ele><time>2026-04-25T08:09:12.743Z</time></trkpt><trkpt lat="39.504424715702626" lon="16.382507792541844"><ele>746.0</ele><time>2026-04-25T08:09:14.743Z</time></trkpt><trkpt lat="39.504490221074306" lon="16.38256033172148"><ele>746.0</ele><time>2026-04-25T08:09:15.743Z</time></trkpt><trkpt lat="39.504557295838445" lon="16.382617464933418"><ele>746.0</ele><time>2026-04-25T08:09:16.743Z</time></trkpt><trkpt lat="39.50464010489008" lon="16.38266251063432"><ele>746.0</ele><time>2026-04-25T08:09:17.743Z</time></trkpt><trkpt lat="39.50472020600616" lon="16.382715145100505"><ele>746.0</ele><time>2026-04-25T08:09:18.743Z</time></trkpt><trkpt lat="39.50482455793697" lon="16.382792758955787"><ele>746.1666666666666</ele><time>2026-04-25T08:09:19.743Z</time></trkpt><trkpt lat="39.50490718963889" lon="16.382879507254337"><ele>746.3333333333333</ele><time>2026-04-25T08:09:20.743Z</time></trkpt><trkpt lat="39.50497112487084" lon="16.38296846552713"><ele>746.5</ele><time>2026-04-25T08:09:21.743Z</time></trkpt><trkpt lat="39.505019509169344" lon="16.38305105464502"><ele>746.6666666666666</ele><time>2026-04-25T08:09:22.743Z</time></trkpt><trkpt lat="39.50505720674264" lon="16.383140486208028"><ele>746.8333333333334</ele><time>2026-04-25T08:09:23.743Z</time></trkpt><trkpt lat="39.50508918565075" lon="16.383224259755437"><ele>747.0</ele><time>2026-04-25T08:09:24.743Z</time></trkpt><trkpt lat="39.50512806408883" lon="16.383308151431354"><ele>747.9999999999999</ele><time>2026-04-25T08:09:25.743Z</time></trkpt><trkpt lat="39.505162210134785" lon="16.383393326682377"><ele>749.0</ele><time>2026-04-25T08:09:26.743Z</time></trkpt><trkpt lat="39.50519502846502" lon="16.38348546085314"><ele>750.0</ele><time>2026-04-25T08:09:27.743Z</time></trkpt><trkpt lat="39.50522569188374" lon="16.383575887495393"><ele>751.0</ele><time>2026-04-25T08:09:28.743Z</time></trkpt><trkpt lat="39.50524093866681" lon="16.383673678345723"><ele>752.0</ele><time>2026-04-25T08:09:29.743Z</time></trkpt><trkpt lat="39.50523825241363" lon="16.38375542230812"><ele>752.9999999999999</ele><time>2026-04-25T08:09:30.743Z</time></trkpt><trkpt lat="39.50521372354789" lon="16.383837786947684"><ele>754.0</ele><time>2026-04-25T08:09:31.743Z</time></trkpt><trkpt lat="39.505170014465506" lon="16.383907847808747"><ele>754.0</ele><time>2026-04-25T08:09:32.743Z</time></trkpt><trkpt lat="39.50510894055411" lon="16.38396282688457"><ele>754.0</ele><time>2026-04-25T08:09:33.743Z</time></trkpt><trkpt lat="39.50503963361282" lon="16.384000023401818"><ele>754.0</ele><time>2026-04-25T08:09:34.743Z</time></trkpt><trkpt lat="39.504965971611064" lon="16.38402033744499"><ele>754.0</ele><time>2026-04-25T08:09:35.743Z</time></trkpt><trkpt lat="39.504888216896056" lon="16.384039559538824"><ele>754.0</ele><time>2026-04-25T08:09:36.743Z</time></trkpt><trkpt lat="39.504807171284504" lon="16.384055962096884"><ele>754.0</ele><time>2026-04-25T08:09:37.743Z</time></trkpt><trkpt lat="39.5047239279165" lon="16.384084513949624"><ele>754.0</ele><time>2026-04-25T08:09:38.743Z</time></trkpt><trkpt lat="39.504640976357024" lon="16.384122325194422"><ele>754.0</ele><time>2026-04-25T08:09:39.743Z</time></trkpt><trkpt lat="39.50455967593941" lon="16.38416850969298"><ele>754.0</ele><time>2026-04-25T08:09:40.743Z</time></trkpt><trkpt lat="39.50448195153625" lon="16.384214705801952"><ele>754.0</ele><time>2026-04-25T08:09:41.743Z</time></trkpt><trkpt lat="39.504409191072405" lon="16.384259526200022"><ele>754.0</ele><time>2026-04-25T08:09:42.743Z</time></trkpt><trkpt lat="39.50433491038169" lon="16.384312714834405"><ele>754.0</ele><time>2026-04-25T08:09:43.743Z</time></trkpt><trkpt lat="39.50425984897775" lon="16.38437765439739"><ele>754.4000000000001</ele><time>2026-04-25T08:09:44.743Z</time></trkpt><trkpt lat="39.50419038702126" lon="16.384445824007628"><ele>754.8</ele><time>2026-04-25T08:09:45.743Z</time></trkpt><trkpt lat="39.50411806452364" lon="16.384518180782546"><ele>755.2</ele><time>2026-04-25T08:09:46.743Z</time></trkpt><trkpt lat="39.50404879323274" lon="16.3845939391777"><ele>755.5999999999999</ele><time>2026-04-25T08:09:47.743Z</time></trkpt><trkpt lat="39.50397924114256" lon="16.384675161604466"><ele>756.0</ele><time>2026-04-25T08:09:48.743Z</time></trkpt><trkpt lat="39.503905660668366" lon="16.384758652447434"><ele>756.3333333333334</ele><time>2026-04-25T08:09:49.743Z</time></trkpt><trkpt lat="39.503835186548976" lon="16.38483267893667"><ele>756.6666666666666</ele><time>2026-04-25T08:09:50.743Z</time></trkpt><trkpt lat="39.50376814709551" lon="16.3849023884297"><ele>757.0</ele><time>2026-04-25T08:09:51.743Z</time></trkpt><trkpt lat="39.50370637051036" lon="16.38496439664184"><ele>757.3333333333333</ele><time>2026-04-25T08:09:52.743Z</time></trkpt><trkpt lat="39.50364790664866" lon="16.38501962289815"><ele>757.6666666666666</ele><time>2026-04-25T08:09:53.743Z</time></trkpt><trkpt lat="39.50359279582101" lon="16.385072963658732"><ele>758.0</ele><time>2026-04-25T08:09:54.743Z</time></trkpt><trkpt lat="39.50353041906429" lon="16.385115167964454"><ele>757.3333333333333</ele><time>2026-04-25T08:09:55.743Z</time></trkpt><trkpt lat="39.503463988511726" lon="16.38516032352553"><ele>756.6666666666666</ele><time>2026-04-25T08:09:56.742Z</time></trkpt><trkpt lat="39.50339219236166" lon="16.385197559231365"><ele>756.0</ele><time>2026-04-25T08:09:57.742Z</time></trkpt><trkpt lat="39.5033142607893" lon="16.385231238769453"><ele>755.3333333333334</ele><time>2026-04-25T08:09:58.742Z</time></trkpt><trkpt lat="39.50323011351888" lon="16.385261476419355"><ele>754.6666666666667</ele><time>2026-04-25T08:09:59.742Z</time></trkpt><trkpt lat="39.503145449020245" lon="16.385290652603192"><ele>754.0</ele><time>2026-04-25T08:10:00.742Z</time></trkpt><trkpt lat="39.5030507486894" lon="16.385318951350914"><ele>754.0</ele><time>2026-04-25T08:10:01.742Z</time></trkpt><trkpt lat="39.50295970774346" lon="16.385342846336187"><ele>754.0</ele><time>2026-04-25T08:10:02.742Z</time></trkpt><trkpt lat="39.50286316086852" lon="16.385371308264613"><ele>754.0</ele><time>2026-04-25T08:10:03.742Z</time></trkpt><trkpt lat="39.50276090068466" lon="16.38539473598309"><ele>754.0</ele><time>2026-04-25T08:10:04.742Z</time></trkpt><trkpt lat="39.502635533031686" lon="16.38541329193533"><ele>754.0</ele><time>2026-04-25T08:10:05.742Z</time></trkpt><trkpt lat="39.502521216110715" lon="16.38543333396715"><ele>754.2</ele><time>2026-04-25T08:10:06.742Z</time></trkpt><trkpt lat="39.5024150177746" lon="16.38543729148807"><ele>754.4000000000001</ele><time>2026-04-25T08:10:07.742Z</time></trkpt><trkpt lat="39.502315235940145" lon="16.38544534480951"><ele>754.6</ele><time>2026-04-25T08:10:08.742Z</time></trkpt><trkpt lat="39.50223303823882" lon="16.385443034212024"><ele>754.8</ele><time>2026-04-25T08:10:09.742Z</time></trkpt><trkpt lat="39.50212591065408" lon="16.38542475254227"><ele>755.0</ele><time>2026-04-25T08:10:11.742Z</time></trkpt><trkpt lat="39.50203480293212" lon="16.38537243020185"><ele>755.0</ele><time>2026-04-25T08:10:13.742Z</time></trkpt><trkpt lat="39.50192860766376" lon="16.38532710214212"><ele>755.0</ele><time>2026-04-25T08:10:15.742Z</time></trkpt><trkpt lat="39.501846012578405" lon="16.385411253743033"><ele>755.0</ele><time>2026-04-25T08:10:17.742Z</time></trkpt><trkpt lat="39.501802759734545" lon="16.38555584268906"><ele>755.0</ele><time>2026-04-25T08:10:19.742Z</time></trkpt><trkpt lat="39.501762752265776" lon="16.385624063452266"><ele>755.0</ele><time>2026-04-25T08:10:20.742Z</time></trkpt><trkpt lat="39.5017086064647" lon="16.38568820415999"><ele>755.0</ele><time>2026-04-25T08:10:21.742Z</time></trkpt><trkpt lat="39.50166631480859" lon="16.385764036873656"><ele>755.0</ele><time>2026-04-25T08:10:22.742Z</time></trkpt><trkpt lat="39.50163382704099" lon="16.385867355960098"><ele>755.0</ele><time>2026-04-25T08:10:23.742Z</time></trkpt><trkpt lat="39.501593586133644" lon="16.38600106942904"><ele>755.0</ele><time>2026-04-25T08:10:24.742Z</time></trkpt><trkpt lat="39.501556077426805" lon="16.386127685734188"><ele>755.0</ele><time>2026-04-25T08:10:25.742Z</time></trkpt><trkpt lat="39.501523354763364" lon="16.386250405640197"><ele>754.8</ele><time>2026-04-25T08:10:26.742Z</time></trkpt><trkpt lat="39.50148744199269" lon="16.386361310119074"><ele>754.6</ele><time>2026-04-25T08:10:27.742Z</time></trkpt><trkpt lat="39.501447173250234" lon="16.386469485980424"><ele>754.4000000000001</ele><time>2026-04-25T08:10:28.743Z</time></trkpt><trkpt lat="39.501401807809295" lon="16.386572818442442"><ele>754.2</ele><time>2026-04-25T08:10:29.743Z</time></trkpt><trkpt lat="39.50135512147412" lon="16.38667009235029"><ele>754.0</ele><time>2026-04-25T08:10:30.743Z</time></trkpt><trkpt lat="39.50130237340197" lon="16.38676624601806"><ele>753.0</ele><time>2026-04-25T08:10:31.743Z</time></trkpt><trkpt lat="39.501237516597" lon="16.386860641492834"><ele>752.0</ele><time>2026-04-25T08:10:32.743Z</time></trkpt><trkpt lat="39.501150047411514" lon="16.386927814842526"><ele>751.0</ele><time>2026-04-25T08:10:33.743Z</time></trkpt><trkpt lat="39.50107332397787" lon="16.387019970940777"><ele>750.0</ele><time>2026-04-25T08:10:34.743Z</time></trkpt><trkpt lat="39.50098101780541" lon="16.387080350486386"><ele>749.0</ele><time>2026-04-25T08:10:35.743Z</time></trkpt><trkpt lat="39.50088807290033" lon="16.38713231259635"><ele>750.2</ele><time>2026-04-25T08:10:36.743Z</time></trkpt><trkpt lat="39.50079588304133" lon="16.387186545049286"><ele>751.4000000000001</ele><time>2026-04-25T08:10:37.743Z</time></trkpt><trkpt lat="39.50071409801558" lon="16.387243219731758"><ele>752.6</ele><time>2026-04-25T08:10:38.743Z</time></trkpt><trkpt lat="39.50063023867387" lon="16.38731108586957"><ele>753.8</ele><time>2026-04-25T08:10:39.743Z</time></trkpt><trkpt lat="39.50055879916639" lon="16.387384390677763"><ele>755.0</ele><time>2026-04-25T08:10:40.743Z</time></trkpt><trkpt lat="39.500500480053496" lon="16.38745498155447"><ele>755.0</ele><time>2026-04-25T08:10:41.743Z</time></trkpt><trkpt lat="39.50044333465002" lon="16.38753495186652"><ele>755.0</ele><time>2026-04-25T08:10:42.743Z</time></trkpt><trkpt lat="39.50039294840694" lon="16.387624576964324"><ele>755.0</ele><time>2026-04-25T08:10:43.743Z</time></trkpt><trkpt lat="39.500356955184785" lon="16.387727211385823"><ele>755.0</ele><time>2026-04-25T08:10:44.743Z</time></trkpt><trkpt lat="39.50032385604069" lon="16.387844029947463"><ele>755.0</ele><time>2026-04-25T08:10:45.743Z</time></trkpt><trkpt lat="39.50028864880557" lon="16.38796121686865"><ele>755.6</ele><time>2026-04-25T08:10:46.743Z</time></trkpt><trkpt lat="39.500265685788705" lon="16.388085534283725"><ele>756.2</ele><time>2026-04-25T08:10:47.743Z</time></trkpt><trkpt lat="39.500256106852135" lon="16.388224778331878"><ele>756.8</ele><time>2026-04-25T08:10:48.743Z</time></trkpt><trkpt lat="39.50025188127129" lon="16.388370295563696"><ele>757.4</ele><time>2026-04-25T08:10:49.743Z</time></trkpt><trkpt lat="39.50025120032557" lon="16.388517676590556"><ele>758.0</ele><time>2026-04-25T08:10:50.743Z</time></trkpt><trkpt lat="39.50025103838154" lon="16.388670538625668"><ele>758.0</ele><time>2026-04-25T08:10:51.743Z</time></trkpt><trkpt lat="39.50024634050203" lon="16.3888209598904"><ele>758.0</ele><time>2026-04-25T08:10:52.743Z</time></trkpt><trkpt lat="39.5002385669239" lon="16.388954136867834"><ele>758.0</ele><time>2026-04-25T08:10:53.743Z</time></trkpt><trkpt lat="39.50023229463696" lon="16.389076100336514"><ele>758.0</ele><time>2026-04-25T08:10:54.743Z</time></trkpt><trkpt lat="39.50022701017659" lon="16.389186161963927"><ele>758.0</ele><time>2026-04-25T08:10:55.743Z</time></trkpt><trkpt lat="39.50022442555909" lon="16.389285265506587"><ele>758.3333333333333</ele><time>2026-04-25T08:10:56.743Z</time></trkpt><trkpt lat="39.50022121295538" lon="16.389377694176797"><ele>758.6666666666666</ele><time>2026-04-25T08:10:57.743Z</time></trkpt><trkpt lat="39.5002153831146" lon="16.38946992333442"><ele>759.0</ele><time>2026-04-25T08:10:58.743Z</time></trkpt><trkpt lat="39.50021117257281" lon="16.38955853285767"><ele>759.3333333333334</ele><time>2026-04-25T08:10:59.743Z</time></trkpt><trkpt lat="39.50020499682976" lon="16.38966981787808"><ele>759.6666666666667</ele><time>2026-04-25T08:11:01.743Z</time></trkpt><trkpt lat="39.500183834412915" lon="16.389798800254518"><ele>760.0</ele><time>2026-04-25T08:11:46.742Z</time></trkpt><trkpt lat="39.500138709853566" lon="16.389868536719963"><ele>760.0</ele><time>2026-04-25T08:11:49.742Z</time></trkpt><trkpt lat="39.500118368705785" lon="16.390000026243065"><ele>760.0</ele><time>2026-04-25T08:13:41.741Z</time></trkpt><trkpt lat="39.5001123736539" lon="16.390129437718763"><ele>760.0</ele><time>2026-04-25T08:13:43.741Z</time></trkpt><trkpt lat="39.500092398572086" lon="16.390272877819577"><ele>760.0</ele><time>2026-04-25T08:13:45.741Z</time></trkpt><trkpt lat="39.50006462488468" lon="16.390355363936308"><ele>760.0</ele><time>2026-04-25T08:13:46.741Z</time></trkpt><trkpt lat="39.50003833988856" lon="16.390437158973125"><ele>760.3333333333334</ele><time>2026-04-25T08:13:47.741Z</time></trkpt><trkpt lat="39.49999881609457" lon="16.390523076393254"><ele>760.6666666666667</ele><time>2026-04-25T08:13:48.741Z</time></trkpt><trkpt lat="39.49994285719248" lon="16.390602360091762"><ele>761.0</ele><time>2026-04-25T08:13:49.741Z</time></trkpt><trkpt lat="39.4998898940662" lon="16.390679820539795"><ele>761.3333333333334</ele><time>2026-04-25T08:13:50.741Z</time></trkpt><trkpt lat="39.49984943568066" lon="16.390748767945624"><ele>761.6666666666666</ele><time>2026-04-25T08:13:51.741Z</time></trkpt><trkpt lat="39.4997968128319" lon="16.390822884414813"><ele>762.0</ele><time>2026-04-25T08:13:53.741Z</time></trkpt><trkpt lat="39.49975985839726" lon="16.39090297284221"><ele>762.0</ele><time>2026-04-25T08:14:05.741Z</time></trkpt><trkpt lat="39.49964599989732" lon="16.390827378320456"><ele>762.0</ele><time>2026-04-25T08:14:07.741Z</time></trkpt><trkpt lat="39.49957056542095" lon="16.39078012284793"><ele>762.0</ele><time>2026-04-25T08:14:08.741Z</time></trkpt><trkpt lat="39.49948676217351" lon="16.390732312673304"><ele>762.0</ele><time>2026-04-25T08:14:09.741Z</time></trkpt><trkpt lat="39.49940152308099" lon="16.39070116965495"><ele>762.0</ele><time>2026-04-25T08:14:10.741Z</time></trkpt><trkpt lat="39.49932013444199" lon="16.390634391586598"><ele>760.3333333333334</ele><time>2026-04-25T08:14:11.741Z</time></trkpt><trkpt lat="39.49922656705364" lon="16.390570366105546"><ele>758.6666666666666</ele><time>2026-04-25T08:14:12.741Z</time></trkpt><trkpt lat="39.499153874825424" lon="16.3905397221929"><ele>757.0</ele><time>2026-04-25T08:14:13.741Z</time></trkpt><trkpt lat="39.49906077487777" lon="16.390494127929585"><ele>755.3333333333333</ele><time>2026-04-25T08:14:14.741Z</time></trkpt><trkpt lat="39.49898450203521" lon="16.3904682993318"><ele>753.6666666666666</ele><time>2026-04-25T08:14:15.741Z</time></trkpt><trkpt lat="39.498915970105585" lon="16.390449963450088"><ele>752.0</ele><time>2026-04-25T08:14:16.741Z</time></trkpt><trkpt lat="39.498814008247834" lon="16.390397762745845"><ele>749.6666666666666</ele><time>2026-04-25T08:14:17.741Z</time></trkpt><trkpt lat="39.498661876528644" lon="16.390316727039615"><ele>747.3333333333334</ele><time>2026-04-25T08:14:18.741Z</time></trkpt><trkpt lat="39.49847897886842" lon="16.39023557318123"><ele>745.0</ele><time>2026-04-25T08:14:19.741Z</time></trkpt><trkpt lat="39.49830508335846" lon="16.39016370147102"><ele>745.0</ele><time>2026-04-25T08:14:20.741Z</time></trkpt><trkpt lat="39.4981675476059" lon="16.390094612170778"><ele>745.0</ele><time>2026-04-25T08:14:21.741Z</time></trkpt><trkpt lat="39.498056454233215" lon="16.390049149078383"><ele>745.0</ele><time>2026-04-25T08:14:22.741Z</time></trkpt><trkpt lat="39.497972942524235" lon="16.39003648016804"><ele>745.0</ele><time>2026-04-25T08:14:23.741Z</time></trkpt><trkpt lat="39.49791024213625" lon="16.390047155901268"><ele>745.0</ele><time>2026-04-25T08:14:24.741Z</time></trkpt><trkpt lat="39.49789072731605" lon="16.39030909769236"><ele>743.5</ele><time>2026-04-25T08:14:26.741Z</time></trkpt><trkpt lat="39.497840290083055" lon="16.39010152633005"><ele>742.0</ele><time>2026-04-25T08:14:27.741Z</time></trkpt><trkpt lat="39.497873095705756" lon="16.3899766770907"><ele>740.5</ele><time>2026-04-25T08:14:31.741Z</time></trkpt><trkpt lat="39.49778615200017" lon="16.38993902396798"><ele>739.0</ele><time>2026-04-25T08:20:21.74Z</time></trkpt><trkpt lat="39.49789490343262" lon="16.389963906466843"><ele>740.2</ele><time>2026-04-25T08:20:28.74Z</time></trkpt><trkpt lat="39.49795909268099" lon="16.39000310558905"><ele>741.4000000000001</ele><time>2026-04-25T08:20:29.74Z</time></trkpt><trkpt lat="39.4980180837769" lon="16.39008350542813"><ele>742.6</ele><time>2026-04-25T08:20:30.74Z</time></trkpt><trkpt lat="39.49813196932333" lon="16.390111298398207"><ele>743.8</ele><time>2026-04-25T08:20:32.74Z</time></trkpt><trkpt lat="39.49820939120339" lon="16.390157847784348"><ele>745.0</ele><time>2026-04-25T08:20:34.74Z</time></trkpt><trkpt lat="39.49831073097389" lon="16.390201267831877"><ele>745.0</ele><time>2026-04-25T08:20:36.74Z</time></trkpt><trkpt lat="39.49837601460904" lon="16.390230897843516"><ele>745.0</ele><time>2026-04-25T08:20:37.74Z</time></trkpt><trkpt lat="39.4984432787196" lon="16.390254841191762"><ele>745.0</ele><time>2026-04-25T08:20:38.74Z</time></trkpt><trkpt lat="39.49851845444844" lon="16.390289168329403"><ele>745.0</ele><time>2026-04-25T08:20:39.74Z</time></trkpt><trkpt lat="39.498593691021405" lon="16.390323258637284"><ele>745.0</ele><time>2026-04-25T08:20:40.74Z</time></trkpt><trkpt lat="39.49867191773271" lon="16.39035784383383"><ele>745.0</ele><time>2026-04-25T08:20:41.74Z</time></trkpt><trkpt lat="39.498739475934826" lon="16.390388433057336"><ele>746.0</ele><time>2026-04-25T08:20:42.74Z</time></trkpt><trkpt lat="39.49886079159746" lon="16.39045266220993"><ele>747.0</ele><time>2026-04-25T08:20:44.74Z</time></trkpt><trkpt lat="39.49892720925694" lon="16.3904892859842"><ele>748.0</ele><time>2026-04-25T08:20:45.74Z</time></trkpt><trkpt lat="39.49899651462193" lon="16.390526120864607"><ele>749.0</ele><time>2026-04-25T08:20:46.74Z</time></trkpt><trkpt lat="39.499070362966364" lon="16.39055730240671"><ele>750.0</ele><time>2026-04-25T08:20:47.74Z</time></trkpt><trkpt lat="39.49914477037388" lon="16.390589857332618"><ele>751.0</ele><time>2026-04-25T08:20:48.74Z</time></trkpt><trkpt lat="39.499214495176766" lon="16.390623832616143"><ele>751.1666666666667</ele><time>2026-04-25T08:20:49.74Z</time></trkpt><trkpt lat="39.49927762273904" lon="16.390657574868687"><ele>751.3333333333334</ele><time>2026-04-25T08:20:50.74Z</time></trkpt><trkpt lat="39.499373826455" lon="16.3907132375532"><ele>751.5</ele><time>2026-04-25T08:20:52.74Z</time></trkpt><trkpt lat="39.499439092676006" lon="16.390758738068786"><ele>751.6666666666666</ele><time>2026-04-25T08:20:53.74Z</time></trkpt><trkpt lat="39.49950769043482" lon="16.390803546010776"><ele>751.8333333333333</ele><time>2026-04-25T08:20:54.74Z</time></trkpt><trkpt lat="39.499573625546894" lon="16.39084332099128"><ele>752.0</ele><time>2026-04-25T08:20:55.739Z</time></trkpt><trkpt lat="39.49965887188187" lon="16.390891908696265"><ele>754.5</ele><time>2026-04-25T08:20:56.74Z</time></trkpt><trkpt lat="39.49974681788144" lon="16.390950417997438"><ele>757.0</ele><time>2026-04-25T08:20:57.74Z</time></trkpt><trkpt lat="39.49985188325085" lon="16.391038624688463"><ele>759.5</ele><time>2026-04-25T08:20:58.74Z</time></trkpt><trkpt lat="39.499963527017655" lon="16.39113273270352"><ele>762.0</ele><time>2026-04-25T08:20:59.74Z</time></trkpt><trkpt lat="39.500087220302795" lon="16.391233492622227"><ele>763.0</ele><time>2026-04-25T08:21:00.74Z</time></trkpt><trkpt lat="39.50021086598791" lon="16.391340872331842"><ele>764.0</ele><time>2026-04-25T08:21:01.74Z</time></trkpt><trkpt lat="39.500318479323056" lon="16.391446927914757"><ele>765.0</ele><time>2026-04-25T08:21:02.74Z</time></trkpt><trkpt lat="39.50040491949634" lon="16.39154678340226"><ele>766.0</ele><time>2026-04-25T08:21:03.74Z</time></trkpt><trkpt lat="39.50049291905959" lon="16.391648619255548"><ele>767.1999999999999</ele><time>2026-04-25T08:21:04.74Z</time></trkpt><trkpt lat="39.500582949098906" lon="16.391727783793463"><ele>768.4</ele><time>2026-04-25T08:21:05.74Z</time></trkpt><trkpt lat="39.500669624199105" lon="16.391801018265294"><ele>769.6</ele><time>2026-04-25T08:21:06.74Z</time></trkpt><trkpt lat="39.500738246524456" lon="16.391865096252086"><ele>770.8</ele><time>2026-04-25T08:21:07.74Z</time></trkpt><trkpt lat="39.50080771285506" lon="16.391932712887332"><ele>772.0</ele><time>2026-04-25T08:21:08.74Z</time></trkpt><trkpt lat="39.50088066227626" lon="16.392003791637975"><ele>771.9999999999999</ele><time>2026-04-25T08:21:09.74Z</time></trkpt><trkpt lat="39.50093780098138" lon="16.392070468849838"><ele>772.0</ele><time>2026-04-25T08:21:10.74Z</time></trkpt><trkpt lat="39.5010012506793" lon="16.392136411953093"><ele>772.0</ele><time>2026-04-25T08:21:11.74Z</time></trkpt><trkpt lat="39.50105703260894" lon="16.392188257751375"><ele>772.0</ele><time>2026-04-25T08:21:12.74Z</time></trkpt><trkpt lat="39.50114806708036" lon="16.392249581514022"><ele>771.9999999999999</ele><time>2026-04-25T08:21:14.74Z</time></trkpt><trkpt lat="39.50122510768078" lon="16.392273011810648"><ele>772.0</ele><time>2026-04-25T08:21:16.74Z</time></trkpt><trkpt lat="39.501308900939584" lon="16.392298924501173"><ele>772.3333333333333</ele><time>2026-04-25T08:21:18.74Z</time></trkpt><trkpt lat="39.50136467973887" lon="16.392346483767312"><ele>772.6666666666666</ele><time>2026-04-25T08:21:20.74Z</time></trkpt><trkpt lat="39.50139604236541" lon="16.392478652462227"><ele>773.0</ele><time>2026-04-25T08:21:22.74Z</time></trkpt><trkpt lat="39.50139471468999" lon="16.39257744378787"><ele>773.3333333333333</ele><time>2026-04-25T08:21:23.74Z</time></trkpt><trkpt lat="39.50139228320869" lon="16.392694289739257"><ele>773.6666666666666</ele><time>2026-04-25T08:21:24.74Z</time></trkpt><trkpt lat="39.501388476063894" lon="16.392828768707787"><ele>774.0</ele><time>2026-04-25T08:21:25.74Z</time></trkpt><trkpt lat="39.50138770461047" lon="16.39294858525957"><ele>774.5</ele><time>2026-04-25T08:21:26.74Z</time></trkpt><trkpt lat="39.501387724228834" lon="16.3930551111433"><ele>775.0</ele><time>2026-04-25T08:21:27.74Z</time></trkpt><trkpt lat="39.50138997838784" lon="16.393158302913324"><ele>775.5</ele><time>2026-04-25T08:21:28.74Z</time></trkpt><trkpt lat="39.50138875877072" lon="16.39326606410619"><ele>776.0</ele><time>2026-04-25T08:21:29.74Z</time></trkpt><trkpt lat="39.50138544308173" lon="16.39337495659107"><ele>776.5</ele><time>2026-04-25T08:21:30.74Z</time></trkpt><trkpt lat="39.50138173700534" lon="16.3934847658049"><ele>777.0</ele><time>2026-04-25T08:21:31.74Z</time></trkpt><trkpt lat="39.50137578171968" lon="16.393602172286016"><ele>777.0</ele><time>2026-04-25T08:21:32.74Z</time></trkpt><trkpt lat="39.501359646530545" lon="16.393715366564297"><ele>777.0</ele><time>2026-04-25T08:21:33.74Z</time></trkpt><trkpt lat="39.501341865631645" lon="16.39382905263806"><ele>777.0</ele><time>2026-04-25T08:21:34.74Z</time></trkpt><trkpt lat="39.501321212063964" lon="16.393952192450893"><ele>777.0</ele><time>2026-04-25T08:21:35.74Z</time></trkpt><trkpt lat="39.50130719271206" lon="16.394079375987154"><ele>777.0</ele><time>2026-04-25T08:21:36.74Z</time></trkpt><trkpt lat="39.50130662064084" lon="16.394211938688475"><ele>777.0</ele><time>2026-04-25T08:21:37.74Z</time></trkpt><trkpt lat="39.50132158631801" lon="16.394351711866463"><ele>777.0</ele><time>2026-04-25T08:21:38.74Z</time></trkpt><trkpt lat="39.50135722900824" lon="16.394495852757437"><ele>777.0</ele><time>2026-04-25T08:21:39.74Z</time></trkpt><trkpt lat="39.501412292594345" lon="16.394647119412106"><ele>777.0</ele><time>2026-04-25T08:21:40.74Z</time></trkpt><trkpt lat="39.501467997006806" lon="16.39478467019233"><ele>777.6666666666666</ele><time>2026-04-25T08:21:41.74Z</time></trkpt><trkpt lat="39.50151817267834" lon="16.394904598290424"><ele>778.3333333333333</ele><time>2026-04-25T08:21:42.74Z</time></trkpt><trkpt lat="39.5015607535241" lon="16.395015271485853"><ele>779.0</ele><time>2026-04-25T08:21:43.74Z</time></trkpt><trkpt lat="39.50159344653109" lon="16.395114983627483"><ele>779.6666666666666</ele><time>2026-04-25T08:21:44.74Z</time></trkpt><trkpt lat="39.50162421000761" lon="16.395209261431066"><ele>780.3333333333333</ele><time>2026-04-25T08:21:45.74Z</time></trkpt><trkpt lat="39.50165257528805" lon="16.395298910337985"><ele>781.0</ele><time>2026-04-25T08:21:46.74Z</time></trkpt><trkpt lat="39.50168689785032" lon="16.395395328170313"><ele>781.0</ele><time>2026-04-25T08:21:47.74Z</time></trkpt><trkpt lat="39.501733526673526" lon="16.39549105233371"><ele>781.0</ele><time>2026-04-25T08:21:48.74Z</time></trkpt><trkpt lat="39.501797617820586" lon="16.395586020879424"><ele>781.0</ele><time>2026-04-25T08:21:49.74Z</time></trkpt><trkpt lat="39.501878781591806" lon="16.395662519428846"><ele>781.0</ele><time>2026-04-25T08:21:50.74Z</time></trkpt><trkpt lat="39.50197684422355" lon="16.395719017370354"><ele>781.0</ele><time>2026-04-25T08:21:51.74Z</time></trkpt><trkpt lat="39.50208175209002" lon="16.395763750154646"><ele>781.4</ele><time>2026-04-25T08:21:52.74Z</time></trkpt><trkpt lat="39.502188784714065" lon="16.3957977509768"><ele>781.8</ele><time>2026-04-25T08:21:53.74Z</time></trkpt><trkpt lat="39.50228671550842" lon="16.395833219731895"><ele>782.1999999999999</ele><time>2026-04-25T08:21:54.74Z</time></trkpt><trkpt lat="39.50237435740521" lon="16.395869433605597"><ele>782.5999999999999</ele><time>2026-04-25T08:21:55.74Z</time></trkpt><trkpt lat="39.502465472732226" lon="16.395912380500363"><ele>783.0</ele><time>2026-04-25T08:21:56.74Z</time></trkpt><trkpt lat="39.502556921213504" lon="16.39596335157025"><ele>783.0</ele><time>2026-04-25T08:21:57.74Z</time></trkpt><trkpt lat="39.502649047899666" lon="16.396024104071127"><ele>783.0</ele><time>2026-04-25T08:21:58.74Z</time></trkpt><trkpt lat="39.502735158721094" lon="16.3961023838283"><ele>783.0</ele><time>2026-04-25T08:21:59.74Z</time></trkpt><trkpt lat="39.502817064813385" lon="16.396201508591723"><ele>783.0</ele><time>2026-04-25T08:22:00.74Z</time></trkpt><trkpt lat="39.502892021578994" lon="16.3963228619589"><ele>783.0</ele><time>2026-04-25T08:22:01.74Z</time></trkpt><trkpt lat="39.50296271152354" lon="16.3964566118113"><ele>784.5999999999999</ele><time>2026-04-25T08:22:02.74Z</time></trkpt><trkpt lat="39.50302436014122" lon="16.396585924858034"><ele>786.1999999999999</ele><time>2026-04-25T08:22:03.74Z</time></trkpt><trkpt lat="39.5030821773935" lon="16.396704260319023"><ele>787.8</ele><time>2026-04-25T08:22:04.74Z</time></trkpt><trkpt lat="39.50313444128352" lon="16.396818838341144"><ele>789.4</ele><time>2026-04-25T08:22:05.74Z</time></trkpt><trkpt lat="39.50317958528661" lon="16.396942978073056"><ele>791.0</ele><time>2026-04-25T08:22:06.74Z</time></trkpt><trkpt lat="39.503213684184864" lon="16.397074520978922"><ele>791.4</ele><time>2026-04-25T08:22:07.74Z</time></trkpt><trkpt lat="39.50324520420978" lon="16.39720099550718"><ele>791.8</ele><time>2026-04-25T08:22:08.74Z</time></trkpt><trkpt lat="39.503273076658026" lon="16.39730773665374"><ele>792.1999999999999</ele><time>2026-04-25T08:22:09.74Z</time></trkpt><trkpt lat="39.503301954900486" lon="16.397408695883716"><ele>792.5999999999999</ele><time>2026-04-25T08:22:10.74Z</time></trkpt><trkpt lat="39.50333468894322" lon="16.397517139277234"><ele>793.0</ele><time>2026-04-25T08:22:11.74Z</time></trkpt><trkpt lat="39.50336516889727" lon="16.39763406074092"><ele>793.0</ele><time>2026-04-25T08:22:12.74Z</time></trkpt><trkpt lat="39.50339016308797" lon="16.397759839765232"><ele>793.0</ele><time>2026-04-25T08:22:13.74Z</time></trkpt><trkpt lat="39.5034126271118" lon="16.39788729961169"><ele>793.0</ele><time>2026-04-25T08:22:14.74Z</time></trkpt><trkpt lat="39.5034374519314" lon="16.398014295044025"><ele>793.0</ele><time>2026-04-25T08:22:15.74Z</time></trkpt><trkpt lat="39.50347305375196" lon="16.398145629448308"><ele>793.0</ele><time>2026-04-25T08:22:16.74Z</time></trkpt><trkpt lat="39.503516495600735" lon="16.398292295225858"><ele>793.0</ele><time>2026-04-25T08:22:17.74Z</time></trkpt><trkpt lat="39.50357528396403" lon="16.398448826519147"><ele>793.0</ele><time>2026-04-25T08:22:18.74Z</time></trkpt><trkpt lat="39.503646629186356" lon="16.398598280725153"><ele>793.0</ele><time>2026-04-25T08:22:19.74Z</time></trkpt><trkpt lat="39.503713350983666" lon="16.39872605296409"><ele>793.0</ele><time>2026-04-25T08:22:20.74Z</time></trkpt><trkpt lat="39.50377604479028" lon="16.398842448942936"><ele>794.4</ele><time>2026-04-25T08:22:21.74Z</time></trkpt><trkpt lat="39.50383542217947" lon="16.398955464531053"><ele>795.8</ele><time>2026-04-25T08:22:22.74Z</time></trkpt><trkpt lat="39.503893397638265" lon="16.399067799852734"><ele>797.2</ele><time>2026-04-25T08:22:23.74Z</time></trkpt><trkpt lat="39.50395462268332" lon="16.399179422609215"><ele>798.6</ele><time>2026-04-25T08:22:24.74Z</time></trkpt><trkpt lat="39.50401624811573" lon="16.39928543004999"><ele>800.0</ele><time>2026-04-25T08:22:25.74Z</time></trkpt><trkpt lat="39.50406898851459" lon="16.39938473898118"><ele>800.0000000000001</ele><time>2026-04-25T08:22:26.74Z</time></trkpt><trkpt lat="39.50411417703994" lon="16.399478821508872"><ele>800.0</ele><time>2026-04-25T08:22:27.739Z</time></trkpt><trkpt lat="39.50415249688449" lon="16.399563977536413"><ele>800.0</ele><time>2026-04-25T08:22:28.739Z</time></trkpt><trkpt lat="39.50418419043254" lon="16.399639093226707"><ele>800.0</ele><time>2026-04-25T08:22:29.739Z</time></trkpt><trkpt lat="39.50421372337162" lon="16.399715059732568"><ele>800.0</ele><time>2026-04-25T08:22:30.739Z</time></trkpt><trkpt lat="39.50424504347748" lon="16.3997933924004"><ele>800.0000000000001</ele><time>2026-04-25T08:22:31.739Z</time></trkpt><trkpt lat="39.504267131171254" lon="16.39988379935928"><ele>800.0</ele><time>2026-04-25T08:22:32.739Z</time></trkpt><trkpt lat="39.504267359048356" lon="16.399980554889197"><ele>800.0</ele><time>2026-04-25T08:22:33.739Z</time></trkpt><trkpt lat="39.50425329670366" lon="16.40009186702401"><ele>800.0</ele><time>2026-04-25T08:22:34.739Z</time></trkpt><trkpt lat="39.50421826742643" lon="16.400204385255826"><ele>800.0</ele><time>2026-04-25T08:22:35.739Z</time></trkpt><trkpt lat="39.50416830394114" lon="16.400314518658114"><ele>800.0</ele><time>2026-04-25T08:22:36.739Z</time></trkpt><trkpt lat="39.50411323202745" lon="16.400409446977346"><ele>800.0</ele><time>2026-04-25T08:22:37.739Z</time></trkpt><trkpt lat="39.50406460174958" lon="16.400495663132663"><ele>799.5000000000001</ele><time>2026-04-25T08:22:38.739Z</time></trkpt><trkpt lat="39.504021022864" lon="16.400577167825038"><ele>799.0</ele><time>2026-04-25T08:22:39.739Z</time></trkpt><trkpt lat="39.503982334315346" lon="16.40064277659257"><ele>798.5</ele><time>2026-04-25T08:22:40.739Z</time></trkpt><trkpt lat="39.50394035032247" lon="16.4007286161542"><ele>798.0</ele><time>2026-04-25T08:22:41.739Z</time></trkpt><trkpt lat="39.50390326471765" lon="16.400821179556925"><ele>797.5000000000001</ele><time>2026-04-25T08:22:42.739Z</time></trkpt><trkpt lat="39.50386648000914" lon="16.40090767198879"><ele>797.0</ele><time>2026-04-25T08:22:43.739Z</time></trkpt><trkpt lat="39.503835421652624" lon="16.400996840487817"><ele>797.0000000000001</ele><time>2026-04-25T08:22:44.739Z</time></trkpt><trkpt lat="39.50380225215646" lon="16.401091287705306"><ele>797.0</ele><time>2026-04-25T08:22:45.739Z</time></trkpt><trkpt lat="39.503765489498704" lon="16.401181328914337"><ele>797.0</ele><time>2026-04-25T08:22:46.739Z</time></trkpt><trkpt lat="39.503727903927924" lon="16.401280197640368"><ele>797.0</ele><time>2026-04-25T08:22:47.739Z</time></trkpt><trkpt lat="39.50368562945023" lon="16.40138242665884"><ele>797.0000000000001</ele><time>2026-04-25T08:22:48.739Z</time></trkpt><trkpt lat="39.503640654998584" lon="16.401506105235903"><ele>797.0</ele><time>2026-04-25T08:22:49.739Z</time></trkpt><trkpt lat="39.50360026678266" lon="16.40162384642871"><ele>798.6</ele><time>2026-04-25T08:22:50.739Z</time></trkpt><trkpt lat="39.5035541868347" lon="16.401753413461446"><ele>800.2</ele><time>2026-04-25T08:22:51.739Z</time></trkpt><trkpt lat="39.50350943003329" lon="16.401881321606307"><ele>801.8</ele><time>2026-04-25T08:22:52.739Z</time></trkpt><trkpt lat="39.50346363440256" lon="16.40200567870496"><ele>803.4</ele><time>2026-04-25T08:22:53.739Z</time></trkpt><trkpt lat="39.503421892408184" lon="16.402117678523474"><ele>805.0</ele><time>2026-04-25T08:22:54.739Z</time></trkpt><trkpt lat="39.50338671807491" lon="16.402210022667933"><ele>805.4999999999999</ele><time>2026-04-25T08:22:55.739Z</time></trkpt><trkpt lat="39.50335358580483" lon="16.40230581739911"><ele>806.0</ele><time>2026-04-25T08:22:56.739Z</time></trkpt><trkpt lat="39.50332970275686" lon="16.402404180894845"><ele>806.5</ele><time>2026-04-25T08:22:57.739Z</time></trkpt><trkpt lat="39.50332366018805" lon="16.402508733288563"><ele>807.0</ele><time>2026-04-25T08:22:58.739Z</time></trkpt><trkpt lat="39.50333370247421" lon="16.402613198580564"><ele>807.4999999999999</ele><time>2026-04-25T08:22:59.739Z</time></trkpt><trkpt lat="39.50335730402982" lon="16.402719253099708"><ele>808.0</ele><time>2026-04-25T08:23:00.739Z</time></trkpt><trkpt lat="39.50339138106507" lon="16.402827955571638"><ele>807.9999999999999</ele><time>2026-04-25T08:23:01.739Z</time></trkpt><trkpt lat="39.5034294306572" lon="16.40293331545628"><ele>808.0</ele><time>2026-04-25T08:23:02.74Z</time></trkpt><trkpt lat="39.50346673432389" lon="16.403048294494106"><ele>808.0</ele><time>2026-04-25T08:23:03.74Z</time></trkpt><trkpt lat="39.50350096155811" lon="16.40316014859601"><ele>808.0</ele><time>2026-04-25T08:23:04.74Z</time></trkpt><trkpt lat="39.50352671934958" lon="16.403258294384152"><ele>807.9999999999999</ele><time>2026-04-25T08:23:05.74Z</time></trkpt><trkpt lat="39.50354830846384" lon="16.40335217797167"><ele>808.0</ele><time>2026-04-25T08:23:06.74Z</time></trkpt><trkpt lat="39.50355352604745" lon="16.403449767474356"><ele>808.6666666666666</ele><time>2026-04-25T08:23:07.74Z</time></trkpt><trkpt lat="39.50352948472764" lon="16.40353610076522"><ele>809.3333333333333</ele><time>2026-04-25T08:23:08.74Z</time></trkpt><trkpt lat="39.50348888206279" lon="16.403614224651474"><ele>810.0</ele><time>2026-04-25T08:23:09.74Z</time></trkpt><trkpt lat="39.50341575216478" lon="16.40366633863792"><ele>810.6666666666667</ele><time>2026-04-25T08:23:10.74Z</time></trkpt><trkpt lat="39.503326196028624" lon="16.403706839221957"><ele>811.3333333333334</ele><time>2026-04-25T08:23:11.74Z</time></trkpt><trkpt lat="39.50323616679188" lon="16.403744591265752"><ele>812.0</ele><time>2026-04-25T08:23:12.74Z</time></trkpt><trkpt lat="39.50314558853601" lon="16.403785640390034"><ele>813.0</ele><time>2026-04-25T08:23:13.74Z</time></trkpt><trkpt lat="39.503055116912385" lon="16.40383462122668"><ele>814.0</ele><time>2026-04-25T08:23:14.74Z</time></trkpt><trkpt lat="39.50296277284786" lon="16.403887634056858"><ele>815.0</ele><time>2026-04-25T08:23:15.74Z</time></trkpt><trkpt lat="39.50286610592642" lon="16.403941513923872"><ele>816.0</ele><time>2026-04-25T08:23:16.74Z</time></trkpt><trkpt lat="39.502784881218794" lon="16.40400064141263"><ele>817.0</ele><time>2026-04-25T08:23:17.74Z</time></trkpt><trkpt lat="39.50268773606201" lon="16.404066698482154"><ele>817.0</ele><time>2026-04-25T08:23:18.74Z</time></trkpt><trkpt lat="39.502587914853336" lon="16.404131173213628"><ele>817.0</ele><time>2026-04-25T08:23:19.74Z</time></trkpt><trkpt lat="39.50249668833785" lon="16.40420306113879"><ele>817.0</ele><time>2026-04-25T08:23:20.74Z</time></trkpt><trkpt lat="39.50240601486847" lon="16.404280625115188"><ele>817.0</ele><time>2026-04-25T08:23:21.74Z</time></trkpt><trkpt lat="39.50232255536874" lon="16.40435562937803"><ele>817.0</ele><time>2026-04-25T08:23:22.74Z</time></trkpt><trkpt lat="39.50223623640123" lon="16.404427110460368"><ele>817.0</ele><time>2026-04-25T08:23:23.74Z</time></trkpt><trkpt lat="39.50214548817243" lon="16.4044960422765"><ele>817.0</ele><time>2026-04-25T08:23:24.74Z</time></trkpt><trkpt lat="39.50205414488166" lon="16.404565881946137"><ele>817.0</ele><time>2026-04-25T08:23:25.74Z</time></trkpt><trkpt lat="39.501954087146515" lon="16.40464083466149"><ele>817.0</ele><time>2026-04-25T08:23:26.74Z</time></trkpt><trkpt lat="39.501854667217714" lon="16.404714442009034"><ele>817.0</ele><time>2026-04-25T08:23:27.74Z</time></trkpt><trkpt lat="39.501754579455195" lon="16.404789318508136"><ele>819.25</ele><time>2026-04-25T08:23:28.74Z</time></trkpt><trkpt lat="39.5016466190995" lon="16.40486331359673"><ele>821.5</ele><time>2026-04-25T08:23:29.74Z</time></trkpt><trkpt lat="39.50152036852783" lon="16.40495061268007"><ele>823.75</ele><time>2026-04-25T08:23:30.74Z</time></trkpt><trkpt lat="39.501382617806506" lon="16.405014008085086"><ele>826.0</ele><time>2026-04-25T08:23:31.74Z</time></trkpt><trkpt lat="39.50123630535209" lon="16.40511654526435"><ele>827.5</ele><time>2026-04-25T08:23:32.74Z</time></trkpt><trkpt lat="39.501106504554585" lon="16.40518263661644"><ele>829.0</ele><time>2026-04-25T08:23:33.74Z</time></trkpt><trkpt lat="39.50099090053381" lon="16.405234281685708"><ele>830.5</ele><time>2026-04-25T08:23:34.74Z</time></trkpt><trkpt lat="39.50088202226388" lon="16.40528439800882"><ele>832.0</ele><time>2026-04-25T08:23:35.74Z</time></trkpt><trkpt lat="39.50077377818493" lon="16.405338520508508"><ele>832.0</ele><time>2026-04-25T08:23:36.74Z</time></trkpt><trkpt lat="39.500657994048154" lon="16.405397142110115"><ele>832.0</ele><time>2026-04-25T08:23:37.74Z</time></trkpt><trkpt lat="39.500544239775124" lon="16.405458626834616"><ele>832.0</ele><time>2026-04-25T08:23:38.74Z</time></trkpt><trkpt lat="39.500426719317055" lon="16.40552749373646"><ele>832.0</ele><time>2026-04-25T08:23:39.74Z</time></trkpt><trkpt lat="39.50031041865299" lon="16.40559695738762"><ele>833.5</ele><time>2026-04-25T08:23:40.74Z</time></trkpt><trkpt lat="39.500199885464994" lon="16.40568062569124"><ele>835.0</ele><time>2026-04-25T08:23:41.74Z</time></trkpt><trkpt lat="39.50009946421185" lon="16.405774042448847"><ele>836.5</ele><time>2026-04-25T08:23:42.74Z</time></trkpt><trkpt lat="39.500018068588766" lon="16.405870000650335"><ele>838.0</ele><time>2026-04-25T08:23:43.74Z</time></trkpt><trkpt lat="39.49993392212286" lon="16.405960652512668"><ele>838.0</ele><time>2026-04-25T08:23:44.74Z</time></trkpt><trkpt lat="39.49984348264513" lon="16.406045060754803"><ele>838.0</ele><time>2026-04-25T08:23:45.74Z</time></trkpt><trkpt lat="39.499753464473024" lon="16.40614075287681"><ele>838.0</ele><time>2026-04-25T08:23:46.74Z</time></trkpt><trkpt lat="39.49965877529342" lon="16.406235334475838"><ele>838.0</ele><time>2026-04-25T08:23:47.74Z</time></trkpt><trkpt lat="39.49955898686265" lon="16.406332183123812"><ele>841.0</ele><time>2026-04-25T08:23:48.74Z</time></trkpt><trkpt lat="39.49946327877238" lon="16.40642645367238"><ele>844.0</ele><time>2026-04-25T08:23:49.74Z</time></trkpt><trkpt lat="39.49937073740533" lon="16.40652851727277"><ele>847.0</ele><time>2026-04-25T08:23:50.74Z</time></trkpt><trkpt lat="39.499287062194334" lon="16.40664364300805"><ele>850.0</ele><time>2026-04-25T08:23:51.74Z</time></trkpt><trkpt lat="39.49920626338997" lon="16.406785123865067"><ele>850.0</ele><time>2026-04-25T08:23:52.74Z</time></trkpt><trkpt lat="39.499144527823475" lon="16.406916588728027"><ele>850.0</ele><time>2026-04-25T08:23:53.74Z</time></trkpt><trkpt lat="39.499094967546" lon="16.407043219788534"><ele>850.0</ele><time>2026-04-25T08:23:54.74Z</time></trkpt><trkpt lat="39.499041972221654" lon="16.407160980647365"><ele>850.0</ele><time>2026-04-25T08:23:55.74Z</time></trkpt><trkpt lat="39.49898653628192" lon="16.407277856733103"><ele>850.0</ele><time>2026-04-25T08:23:56.74Z</time></trkpt><trkpt lat="39.498935513621504" lon="16.40738187410204"><ele>850.0</ele><time>2026-04-25T08:23:57.74Z</time></trkpt><trkpt lat="39.49888260005015" lon="16.407487486229524"><ele>850.0</ele><time>2026-04-25T08:23:58.74Z</time></trkpt><trkpt lat="39.498827902732565" lon="16.40759470093849"><ele>850.0</ele><time>2026-04-25T08:23:59.74Z</time></trkpt><trkpt lat="39.4987715292632" lon="16.40770184582795"><ele>850.0</ele><time>2026-04-25T08:24:00.739Z</time></trkpt><trkpt lat="39.49871485399004" lon="16.407800644636453"><ele>850.0</ele><time>2026-04-25T08:24:01.739Z</time></trkpt><trkpt lat="39.49865316315335" lon="16.407894481089528"><ele>850.0</ele><time>2026-04-25T08:24:02.739Z</time></trkpt><trkpt lat="39.49859863814587" lon="16.407984834598583"><ele>850.0</ele><time>2026-04-25T08:24:03.739Z</time></trkpt><trkpt lat="39.49853575898819" lon="16.40806731259668"><ele>850.0</ele><time>2026-04-25T08:24:04.739Z</time></trkpt><trkpt lat="39.498471455995855" lon="16.408168338591288"><ele>850.0</ele><time>2026-04-25T08:24:05.739Z</time></trkpt><trkpt lat="39.49841040202486" lon="16.40828558701682"><ele>850.0</ele><time>2026-04-25T08:24:06.739Z</time></trkpt><trkpt lat="39.49834957411318" lon="16.408419371980298"><ele>849.8333333333333</ele><time>2026-04-25T08:24:07.739Z</time></trkpt><trkpt lat="39.49830297869368" lon="16.40854660175834"><ele>849.6666666666666</ele><time>2026-04-25T08:24:08.739Z</time></trkpt><trkpt lat="39.49827739622564" lon="16.408674129697026"><ele>849.5</ele><time>2026-04-25T08:24:09.739Z</time></trkpt><trkpt lat="39.49826944722385" lon="16.408789389370497"><ele>849.3333333333333</ele><time>2026-04-25T08:24:10.739Z</time></trkpt><trkpt lat="39.49827425407083" lon="16.408887871646048"><ele>849.1666666666666</ele><time>2026-04-25T08:24:11.739Z</time></trkpt><trkpt lat="39.49828095565853" lon="16.408975198126015"><ele>849.0</ele><time>2026-04-25T08:24:12.739Z</time></trkpt><trkpt lat="39.49828999881836" lon="16.409066348198667"><ele>849.6</ele><time>2026-04-25T08:24:13.739Z</time></trkpt><trkpt lat="39.49831053255082" lon="16.409178900208694"><ele>850.2</ele><time>2026-04-25T08:24:14.739Z</time></trkpt><trkpt lat="39.498347488511044" lon="16.409288518830603"><ele>850.8000000000001</ele><time>2026-04-25T08:24:15.739Z</time></trkpt><trkpt lat="39.498405972724555" lon="16.409386113479577"><ele>851.4000000000001</ele><time>2026-04-25T08:24:16.739Z</time></trkpt><trkpt lat="39.49848689822538" lon="16.409477878120434"><ele>852.0</ele><time>2026-04-25T08:24:17.739Z</time></trkpt><trkpt lat="39.49857318275897" lon="16.409549580179444"><ele>852.0</ele><time>2026-04-25T08:24:18.739Z</time></trkpt><trkpt lat="39.49866197129531" lon="16.409610028292544"><ele>852.0</ele><time>2026-04-25T08:24:19.739Z</time></trkpt><trkpt lat="39.4987392942464" lon="16.409666306768003"><ele>852.0</ele><time>2026-04-25T08:24:20.739Z</time></trkpt><trkpt lat="39.498817183891624" lon="16.409721396355383"><ele>852.0</ele><time>2026-04-25T08:24:21.739Z</time></trkpt><trkpt lat="39.49888364044373" lon="16.409789112799043"><ele>852.0</ele><time>2026-04-25T08:24:22.739Z</time></trkpt><trkpt lat="39.49893012874016" lon="16.409871767645072"><ele>852.0</ele><time>2026-04-25T08:24:23.739Z</time></trkpt><trkpt lat="39.498966504089005" lon="16.409975685280678"><ele>852.0</ele><time>2026-04-25T08:24:24.739Z</time></trkpt><trkpt lat="39.498930031592835" lon="16.410092100885734"><ele>852.0</ele><time>2026-04-25T08:24:25.739Z</time></trkpt><trkpt lat="39.498895414557204" lon="16.410220800019456"><ele>852.0</ele><time>2026-04-25T08:24:26.739Z</time></trkpt><trkpt lat="39.49885434936021" lon="16.410337766575854"><ele>852.0</ele><time>2026-04-25T08:24:27.739Z</time></trkpt><trkpt lat="39.498822945279976" lon="16.41043947951675"><ele>852.0</ele><time>2026-04-25T08:24:28.739Z</time></trkpt><trkpt lat="39.49879248198969" lon="16.41054917441711"><ele>854.0</ele><time>2026-04-25T08:24:29.739Z</time></trkpt><trkpt lat="39.49876387535217" lon="16.410668447868865"><ele>856.0</ele><time>2026-04-25T08:24:30.739Z</time></trkpt><trkpt lat="39.498738666898284" lon="16.410786134871003"><ele>858.0</ele><time>2026-04-25T08:24:31.739Z</time></trkpt><trkpt lat="39.498725398653356" lon="16.410903484715437"><ele>860.0</ele><time>2026-04-25T08:24:32.739Z</time></trkpt><trkpt lat="39.49873134745323" lon="16.411014484329556"><ele>862.0</ele><time>2026-04-25T08:24:33.739Z</time></trkpt><trkpt lat="39.49875288245455" lon="16.41113624162574"><ele>862.0</ele><time>2026-04-25T08:24:34.739Z</time></trkpt><trkpt lat="39.49878771548585" lon="16.41125751309275"><ele>862.0</ele><time>2026-04-25T08:24:35.739Z</time></trkpt><trkpt lat="39.49882711089515" lon="16.411381397895113"><ele>862.0</ele><time>2026-04-25T08:24:36.739Z</time></trkpt><trkpt lat="39.498869479176165" lon="16.411509129350158"><ele>862.0</ele><time>2026-04-25T08:24:37.739Z</time></trkpt><trkpt lat="39.498910231005816" lon="16.411653601589784"><ele>862.0</ele><time>2026-04-25T08:24:38.739Z</time></trkpt><trkpt lat="39.49895026525957" lon="16.411814469225515"><ele>864.5</ele><time>2026-04-25T08:24:39.739Z</time></trkpt><trkpt lat="39.498980355894204" lon="16.411992050081267"><ele>867.0</ele><time>2026-04-25T08:24:40.739Z</time></trkpt><trkpt lat="39.49900297896585" lon="16.4121713001828"><ele>869.5</ele><time>2026-04-25T08:24:41.739Z</time></trkpt><trkpt lat="39.499017951625184" lon="16.41233238614832"><ele>872.0</ele><time>2026-04-25T08:24:42.739Z</time></trkpt><trkpt lat="39.49903137426878" lon="16.412489582990435"><ele>874.0</ele><time>2026-04-25T08:24:43.739Z</time></trkpt><trkpt lat="39.49905210357818" lon="16.41265787657719"><ele>876.0</ele><time>2026-04-25T08:24:44.739Z</time></trkpt><trkpt lat="39.49907710310104" lon="16.4128284179044"><ele>878.0</ele><time>2026-04-25T08:24:45.739Z</time></trkpt><trkpt lat="39.49909883349827" lon="16.413005418735683"><ele>880.0</ele><time>2026-04-25T08:24:46.739Z</time></trkpt><trkpt lat="39.499118503654365" lon="16.413182900442138"><ele>881.0</ele><time>2026-04-25T08:24:47.739Z</time></trkpt><trkpt lat="39.499140035018755" lon="16.413361076178496"><ele>882.0</ele><time>2026-04-25T08:24:48.739Z</time></trkpt><trkpt lat="39.49915985908656" lon="16.413541087515327"><ele>883.0</ele><time>2026-04-25T08:24:49.739Z</time></trkpt><trkpt lat="39.49917929297862" lon="16.413710430199682"><ele>884.0</ele><time>2026-04-25T08:24:50.739Z</time></trkpt><trkpt lat="39.49919462473397" lon="16.413866853589134"><ele>884.75</ele><time>2026-04-25T08:24:51.739Z</time></trkpt><trkpt lat="39.499210679819214" lon="16.41402691347242"><ele>885.5</ele><time>2026-04-25T08:24:52.739Z</time></trkpt><trkpt lat="39.49922840993357" lon="16.41419254946367"><ele>886.25</ele><time>2026-04-25T08:24:53.739Z</time></trkpt><trkpt lat="39.499249689340246" lon="16.414363407605958"><ele>887.0</ele><time>2026-04-25T08:24:54.739Z</time></trkpt><trkpt lat="39.49927111063763" lon="16.414538808409066"><ele>888.75</ele><time>2026-04-25T08:24:55.739Z</time></trkpt><trkpt lat="39.4992931354154" lon="16.41471221883554"><ele>890.5</ele><time>2026-04-25T08:24:56.739Z</time></trkpt><trkpt lat="39.49931328094351" lon="16.414868995290412"><ele>892.25</ele><time>2026-04-25T08:24:57.739Z</time></trkpt><trkpt lat="39.49933372516525" lon="16.41501628655839"><ele>894.0</ele><time>2026-04-25T08:24:58.739Z</time></trkpt><trkpt lat="39.49934810817136" lon="16.415158355398763"><ele>894.0</ele><time>2026-04-25T08:24:59.739Z</time></trkpt><trkpt lat="39.499355015305206" lon="16.415316203953722"><ele>894.0</ele><time>2026-04-25T08:25:00.739Z</time></trkpt><trkpt lat="39.499350422732256" lon="16.415496150966487"><ele>894.0</ele><time>2026-04-25T08:25:01.739Z</time></trkpt><trkpt lat="39.499338538835445" lon="16.415666728917596"><ele>894.0</ele><time>2026-04-25T08:25:02.739Z</time></trkpt><trkpt lat="39.4993198888631" lon="16.415815743862797"><ele>893.8000000000001</ele><time>2026-04-25T08:25:03.739Z</time></trkpt><trkpt lat="39.49930018678161" lon="16.41594565297619"><ele>893.6000000000001</ele><time>2026-04-25T08:25:04.739Z</time></trkpt><trkpt lat="39.49924935302289" lon="16.416030623980006"><ele>893.4</ele><time>2026-04-25T08:25:05.739Z</time></trkpt><trkpt lat="39.499146383284405" lon="16.416129628686104"><ele>893.2</ele><time>2026-04-25T08:25:07.739Z</time></trkpt><trkpt lat="39.499067501662" lon="16.416103843475756"><ele>893.0</ele><time>2026-04-25T08:25:08.74Z</time></trkpt><trkpt lat="39.49898480516904" lon="16.416102740176736"><ele>893.0000000000001</ele><time>2026-04-25T08:25:09.74Z</time></trkpt><trkpt lat="39.4989034698565" lon="16.416079170098666"><ele>893.0</ele><time>2026-04-25T08:25:10.74Z</time></trkpt><trkpt lat="39.49882262889022" lon="16.41605617700475"><ele>893.0</ele><time>2026-04-25T08:25:11.74Z</time></trkpt><trkpt lat="39.49875924587863" lon="16.416047495909403"><ele>893.0</ele><time>2026-04-25T08:25:12.74Z</time></trkpt><trkpt lat="39.49869268594052" lon="16.416053721389872"><ele>893.0000000000001</ele><time>2026-04-25T08:25:13.74Z</time></trkpt><trkpt lat="39.498603780178286" lon="16.416170455037438"><ele>893.0</ele><time>2026-04-25T08:25:15.74Z</time></trkpt><trkpt lat="39.498595058614214" lon="16.416277332671665"><ele>893.5999999999999</ele><time>2026-04-25T08:25:16.74Z</time></trkpt><trkpt lat="39.498624045254026" lon="16.416393674413342"><ele>894.1999999999999</ele><time>2026-04-25T08:25:17.74Z</time></trkpt><trkpt lat="39.49868176073269" lon="16.416513052425298"><ele>894.8</ele><time>2026-04-25T08:25:18.74Z</time></trkpt><trkpt lat="39.49874369090387" lon="16.416620095038933"><ele>895.4</ele><time>2026-04-25T08:25:19.74Z</time></trkpt><trkpt lat="39.49880420614732" lon="16.416720025221426"><ele>896.0</ele><time>2026-04-25T08:25:20.74Z</time></trkpt><trkpt lat="39.49886456120793" lon="16.416827473451008"><ele>896.0</ele><time>2026-04-25T08:25:21.74Z</time></trkpt><trkpt lat="39.49890993122249" lon="16.416953164467266"><ele>896.0</ele><time>2026-04-25T08:25:22.74Z</time></trkpt><trkpt lat="39.498942875655295" lon="16.41709459726754"><ele>896.0</ele><time>2026-04-25T08:25:23.74Z</time></trkpt><trkpt lat="39.49896213526728" lon="16.417252633836974"><ele>896.0</ele><time>2026-04-25T08:25:24.74Z</time></trkpt><trkpt lat="39.49897358045925" lon="16.41740768304133"><ele>898.0</ele><time>2026-04-25T08:25:25.74Z</time></trkpt><trkpt lat="39.49899213645878" lon="16.41756438942388"><ele>900.0</ele><time>2026-04-25T08:25:26.74Z</time></trkpt><trkpt lat="39.49901497185691" lon="16.417715846327557"><ele>902.0</ele><time>2026-04-25T08:25:27.74Z</time></trkpt><trkpt lat="39.499054142773005" lon="16.417864059938005"><ele>904.0</ele><time>2026-04-25T08:25:28.74Z</time></trkpt><trkpt lat="39.499104817312016" lon="16.417992481320734"><ele>905.1666666666666</ele><time>2026-04-25T08:25:29.74Z</time></trkpt><trkpt lat="39.49915338558774" lon="16.418085407467604"><ele>906.3333333333333</ele><time>2026-04-25T08:25:30.74Z</time></trkpt><trkpt lat="39.49921937277463" lon="16.41818045385642"><ele>907.5</ele><time>2026-04-25T08:25:32.739Z</time></trkpt><trkpt lat="39.49926421522284" lon="16.418258400353608"><ele>908.6666666666667</ele><time>2026-04-25T08:25:35.739Z</time></trkpt><trkpt lat="39.499317491616445" lon="16.41835147224646"><ele>909.8333333333334</ele><time>2026-04-25T08:25:37.739Z</time></trkpt><trkpt lat="39.49927436656502" lon="16.41843813124203"><ele>911.0</ele><time>2026-04-25T08:25:39.739Z</time></trkpt><trkpt lat="39.499181295693255" lon="16.418355139987415"><ele>911.0</ele><time>2026-04-25T08:25:41.739Z</time></trkpt><trkpt lat="39.499111389142655" lon="16.418291388315676"><ele>910.9999999999999</ele><time>2026-04-25T08:25:42.739Z</time></trkpt><trkpt lat="39.49901983362427" lon="16.41823065321419"><ele>910.9999999999999</ele><time>2026-04-25T08:25:43.739Z</time></trkpt><trkpt lat="39.498928421311405" lon="16.41814366949727"><ele>911.0</ele><time>2026-04-25T08:25:44.738Z</time></trkpt><trkpt lat="39.49884377335565" lon="16.418033824295076"><ele>911.0</ele><time>2026-04-25T08:25:45.738Z</time></trkpt><trkpt lat="39.498761050953114" lon="16.41794562226888"><ele>912.1999999999999</ele><time>2026-04-25T08:25:46.738Z</time></trkpt><trkpt lat="39.49869211334132" lon="16.417858064443546"><ele>913.3999999999999</ele><time>2026-04-25T08:25:47.738Z</time></trkpt><trkpt lat="39.498623905273746" lon="16.417761071305375"><ele>914.6</ele><time>2026-04-25T08:25:48.738Z</time></trkpt><trkpt lat="39.49853953639746" lon="16.41766599503968"><ele>915.8</ele><time>2026-04-25T08:25:49.738Z</time></trkpt><trkpt lat="39.498461785047276" lon="16.417537436903526"><ele>917.0</ele><time>2026-04-25T08:25:50.738Z</time></trkpt><trkpt lat="39.49838011925507" lon="16.417411866449825"><ele>917.0</ele><time>2026-04-25T08:25:51.738Z</time></trkpt><trkpt lat="39.498297902187886" lon="16.417296193391923"><ele>917.0</ele><time>2026-04-25T08:25:52.738Z</time></trkpt><trkpt lat="39.498225342785155" lon="16.41719660209729"><ele>917.0</ele><time>2026-04-25T08:25:53.738Z</time></trkpt><trkpt lat="39.49815165558215" lon="16.417109032208245"><ele>917.0</ele><time>2026-04-25T08:25:54.738Z</time></trkpt><trkpt lat="39.49807118157296" lon="16.41703010428797"><ele>917.0</ele><time>2026-04-25T08:25:55.738Z</time></trkpt><trkpt lat="39.497985455372046" lon="16.416955189854946"><ele>917.6</ele><time>2026-04-25T08:25:56.738Z</time></trkpt><trkpt lat="39.49790120081387" lon="16.416866900936903"><ele>918.2</ele><time>2026-04-25T08:25:57.738Z</time></trkpt><trkpt lat="39.497804099876646" lon="16.416825983218516"><ele>918.8</ele><time>2026-04-25T08:25:58.738Z</time></trkpt><trkpt lat="39.49772101442296" lon="16.416781383996568"><ele>919.4</ele><time>2026-04-25T08:25:59.738Z</time></trkpt><trkpt lat="39.49763883164459" lon="16.41674920869676"><ele>920.0</ele><time>2026-04-25T08:26:00.738Z</time></trkpt><trkpt lat="39.49756079043156" lon="16.416737446938928"><ele>920.0000000000001</ele><time>2026-04-25T08:26:01.738Z</time></trkpt><trkpt lat="39.49748862757316" lon="16.41674859373141"><ele>920.0</ele><time>2026-04-25T08:26:02.738Z</time></trkpt><trkpt lat="39.49741587924898" lon="16.41677420716078"><ele>920.0</ele><time>2026-04-25T08:26:03.738Z</time></trkpt><trkpt lat="39.49733648639677" lon="16.416808467621205"><ele>920.0</ele><time>2026-04-25T08:26:04.738Z</time></trkpt><trkpt lat="39.49724542093794" lon="16.416851229079153"><ele>920.0000000000001</ele><time>2026-04-25T08:26:05.738Z</time></trkpt><trkpt lat="39.49713980892954" lon="16.416870409156054"><ele>920.0</ele><time>2026-04-25T08:26:06.738Z</time></trkpt><trkpt lat="39.49703282903079" lon="16.416910096274762"><ele>920.25</ele><time>2026-04-25T08:26:07.738Z</time></trkpt><trkpt lat="39.4969201422586" lon="16.41693776081013"><ele>920.5</ele><time>2026-04-25T08:26:08.738Z</time></trkpt><trkpt lat="39.49680364935744" lon="16.41695646388424"><ele>920.75</ele><time>2026-04-25T08:26:09.738Z</time></trkpt><trkpt lat="39.4966810419476" lon="16.41696453562309"><ele>921.0</ele><time>2026-04-25T08:26:10.738Z</time></trkpt><trkpt lat="39.49656050851656" lon="16.41696989393408"><ele>921.0</ele><time>2026-04-25T08:26:11.738Z</time></trkpt><trkpt lat="39.496452414864336" lon="16.416991344788887"><ele>920.9999999999999</ele><time>2026-04-25T08:26:12.738Z</time></trkpt><trkpt lat="39.49634280899355" lon="16.417002492453246"><ele>920.9999999999999</ele><time>2026-04-25T08:26:13.738Z</time></trkpt><trkpt lat="39.496236272263246" lon="16.417028890749595"><ele>921.0</ele><time>2026-04-25T08:26:14.738Z</time></trkpt><trkpt lat="39.496124817706956" lon="16.417068602502436"><ele>921.0</ele><time>2026-04-25T08:26:15.738Z</time></trkpt><trkpt lat="39.49601494831323" lon="16.417129280645607"><ele>921.0</ele><time>2026-04-25T08:26:16.738Z</time></trkpt><trkpt lat="39.495910976675546" lon="16.417212268709758"><ele>921.0</ele><time>2026-04-25T08:26:17.738Z</time></trkpt><trkpt lat="39.49581194654491" lon="16.417303424175323"><ele>921.0</ele><time>2026-04-25T08:26:18.738Z</time></trkpt><trkpt lat="39.49572571416644" lon="16.41740881036369"><ele>921.0</ele><time>2026-04-25T08:26:19.738Z</time></trkpt><trkpt lat="39.49564670159362" lon="16.417517754316368"><ele>921.0</ele><time>2026-04-25T08:26:20.738Z</time></trkpt><trkpt lat="39.49557509821447" lon="16.417632212150735"><ele>920.9999999999999</ele><time>2026-04-25T08:26:21.738Z</time></trkpt><trkpt lat="39.49550391865957" lon="16.41775397299816"><ele>920.9999999999999</ele><time>2026-04-25T08:26:22.738Z</time></trkpt><trkpt lat="39.49544186897453" lon="16.417860583920636"><ele>921.0</ele><time>2026-04-25T08:26:23.738Z</time></trkpt><trkpt lat="39.49538410689408" lon="16.41795228180138"><ele>921.0</ele><time>2026-04-25T08:26:24.738Z</time></trkpt><trkpt lat="39.495331033119065" lon="16.41803585405954"><ele>922.4</ele><time>2026-04-25T08:26:25.738Z</time></trkpt><trkpt lat="39.49527556499772" lon="16.418126331247553"><ele>923.8</ele><time>2026-04-25T08:26:26.738Z</time></trkpt><trkpt lat="39.495224073189995" lon="16.418223859143247"><ele>925.1999999999999</ele><time>2026-04-25T08:26:27.738Z</time></trkpt><trkpt lat="39.495175908211976" lon="16.41832814200701"><ele>926.5999999999999</ele><time>2026-04-25T08:26:28.738Z</time></trkpt><trkpt lat="39.49512602146297" lon="16.418433844036887"><ele>928.0</ele><time>2026-04-25T08:26:29.738Z</time></trkpt><trkpt lat="39.495061800241224" lon="16.418558795407716"><ele>928.0</ele><time>2026-04-25T08:26:30.738Z</time></trkpt><trkpt lat="39.49499892634787" lon="16.41868182966588"><ele>928.0</ele><time>2026-04-25T08:26:31.738Z</time></trkpt><trkpt lat="39.49493159402522" lon="16.418792243275718"><ele>928.0</ele><time>2026-04-25T08:26:32.738Z</time></trkpt><trkpt lat="39.49486384011447" lon="16.41889069309673"><ele>928.0</ele><time>2026-04-25T08:26:33.738Z</time></trkpt><trkpt lat="39.49480300064276" lon="16.41898890987417"><ele>928.0</ele><time>2026-04-25T08:26:34.738Z</time></trkpt><trkpt lat="39.49474569769025" lon="16.419085510475117"><ele>926.4999999999999</ele><time>2026-04-25T08:26:35.738Z</time></trkpt><trkpt lat="39.49469096860793" lon="16.419180014327083"><ele>925.0</ele><time>2026-04-25T08:26:36.738Z</time></trkpt><trkpt lat="39.4946378783103" lon="16.419271219776018"><ele>923.5</ele><time>2026-04-25T08:26:37.738Z</time></trkpt><trkpt lat="39.49458501851597" lon="16.41936634782779"><ele>922.0</ele><time>2026-04-25T08:26:38.738Z</time></trkpt><trkpt lat="39.4945345495678" lon="16.41946136402057"><ele>920.4999999999999</ele><time>2026-04-25T08:26:39.738Z</time></trkpt><trkpt lat="39.4944876695223" lon="16.419556716572725"><ele>919.0</ele><time>2026-04-25T08:26:40.738Z</time></trkpt><trkpt lat="39.49444197427807" lon="16.419652412280442"><ele>918.2</ele><time>2026-04-25T08:26:41.738Z</time></trkpt><trkpt lat="39.49439199041735" lon="16.419748006172163"><ele>917.4000000000001</ele><time>2026-04-25T08:26:42.738Z</time></trkpt><trkpt lat="39.49432936140588" lon="16.41983541172533"><ele>916.6</ele><time>2026-04-25T08:26:43.738Z</time></trkpt><trkpt lat="39.49425752291305" lon="16.419919555222204"><ele>915.8</ele><time>2026-04-25T08:26:44.738Z</time></trkpt><trkpt lat="39.494172374046656" lon="16.420005681715438"><ele>915.0</ele><time>2026-04-25T08:26:45.738Z</time></trkpt><trkpt lat="39.49408748792578" lon="16.4200971529239"><ele>915.0</ele><time>2026-04-25T08:26:46.738Z</time></trkpt><trkpt lat="39.49400217735701" lon="16.42019930956021"><ele>915.0</ele><time>2026-04-25T08:26:47.738Z</time></trkpt><trkpt lat="39.49391597376585" lon="16.420309290046493"><ele>915.0</ele><time>2026-04-25T08:26:48.738Z</time></trkpt><trkpt lat="39.493829772738096" lon="16.420422422182785"><ele>915.0</ele><time>2026-04-25T08:26:49.738Z</time></trkpt><trkpt lat="39.493743202142284" lon="16.420536784252175"><ele>914.75</ele><time>2026-04-25T08:26:50.738Z</time></trkpt><trkpt lat="39.493660927406665" lon="16.420654630006627"><ele>914.5</ele><time>2026-04-25T08:26:51.738Z</time></trkpt><trkpt lat="39.49358202700242" lon="16.42077507747921"><ele>914.25</ele><time>2026-04-25T08:26:52.738Z</time></trkpt><trkpt lat="39.49349518890373" lon="16.42090088938123"><ele>914.0</ele><time>2026-04-25T08:26:53.738Z</time></trkpt><trkpt lat="39.49340702311824" lon="16.421029694083707"><ele>914.0</ele><time>2026-04-25T08:26:54.738Z</time></trkpt><trkpt lat="39.49332321034099" lon="16.4211661218965"><ele>914.0</ele><time>2026-04-25T08:26:55.738Z</time></trkpt><trkpt lat="39.49324561789764" lon="16.421308627211424"><ele>914.0</ele><time>2026-04-25T08:26:56.738Z</time></trkpt><trkpt lat="39.49317335402303" lon="16.421452975122858"><ele>914.0</ele><time>2026-04-25T08:26:57.738Z</time></trkpt><trkpt lat="39.49310810448772" lon="16.421600486213794"><ele>915.5</ele><time>2026-04-25T08:26:58.738Z</time></trkpt><trkpt lat="39.49305312844459" lon="16.42175105931152"><ele>917.0</ele><time>2026-04-25T08:26:59.738Z</time></trkpt><trkpt lat="39.49300870795866" lon="16.42190408356582"><ele>918.5</ele><time>2026-04-25T08:27:00.738Z</time></trkpt><trkpt lat="39.49297460686768" lon="16.42206561598528"><ele>920.0</ele><time>2026-04-25T08:27:01.738Z</time></trkpt><trkpt lat="39.49294173360357" lon="16.42222969097631"><ele>922.5</ele><time>2026-04-25T08:27:02.738Z</time></trkpt><trkpt lat="39.49290426656132" lon="16.422393859250608"><ele>925.0</ele><time>2026-04-25T08:27:03.738Z</time></trkpt><trkpt lat="39.492869152937686" lon="16.422561408642192"><ele>927.5</ele><time>2026-04-25T08:27:04.738Z</time></trkpt><trkpt lat="39.49283781618677" lon="16.422710607388044"><ele>930.0</ele><time>2026-04-25T08:27:05.738Z</time></trkpt><trkpt lat="39.49279985455232" lon="16.422836931905955"><ele>930.0</ele><time>2026-04-25T08:27:06.738Z</time></trkpt><trkpt lat="39.492757529922976" lon="16.422953383592855"><ele>930.0</ele><time>2026-04-25T08:27:07.738Z</time></trkpt><trkpt lat="39.49270429251706" lon="16.423083948983507"><ele>930.0</ele><time>2026-04-25T08:27:08.738Z</time></trkpt><trkpt lat="39.49263863873114" lon="16.42320711120676"><ele>930.0</ele><time>2026-04-25T08:27:09.738Z</time></trkpt><trkpt lat="39.49256262503838" lon="16.42333311134688"><ele>930.75</ele><time>2026-04-25T08:27:10.738Z</time></trkpt><trkpt lat="39.49243163060182" lon="16.4234760988132"><ele>931.5</ele><time>2026-04-25T08:27:12.737Z</time></trkpt><trkpt lat="39.49234872659256" lon="16.423592667939726"><ele>932.25</ele><time>2026-04-25T08:27:13.738Z</time></trkpt><trkpt lat="39.492269500534285" lon="16.423721915846663"><ele>933.0</ele><time>2026-04-25T08:27:14.738Z</time></trkpt><trkpt lat="39.49220434116165" lon="16.423851516248927"><ele>932.75</ele><time>2026-04-25T08:27:15.738Z</time></trkpt><trkpt lat="39.49214910522648" lon="16.423983497461084"><ele>932.5</ele><time>2026-04-25T08:27:16.738Z</time></trkpt><trkpt lat="39.49209150063743" lon="16.424113521066904"><ele>932.25</ele><time>2026-04-25T08:27:17.738Z</time></trkpt><trkpt lat="39.49202411448895" lon="16.42424302688176"><ele>932.0</ele><time>2026-04-25T08:27:18.738Z</time></trkpt><trkpt lat="39.49193011174674" lon="16.424334226015226"><ele>932.0</ele><time>2026-04-25T08:27:19.738Z</time></trkpt><trkpt lat="39.491844777495025" lon="16.424435923258205"><ele>932.0</ele><time>2026-04-25T08:27:20.738Z</time></trkpt><trkpt lat="39.49176480000245" lon="16.42455162724335"><ele>932.0</ele><time>2026-04-25T08:27:21.738Z</time></trkpt><trkpt lat="39.49167304922644" lon="16.42466311604719"><ele>932.0</ele><time>2026-04-25T08:27:22.738Z</time></trkpt><trkpt lat="39.49157253146362" lon="16.424779252469175"><ele>930.25</ele><time>2026-04-25T08:27:23.738Z</time></trkpt><trkpt lat="39.49146983807924" lon="16.424894401215862"><ele>928.5</ele><time>2026-04-25T08:27:24.738Z</time></trkpt><trkpt lat="39.491373118446695" lon="16.425010514013735"><ele>926.75</ele><time>2026-04-25T08:27:25.738Z</time></trkpt><trkpt lat="39.491283423590744" lon="16.4251294622158"><ele>925.0</ele><time>2026-04-25T08:27:26.738Z</time></trkpt><trkpt lat="39.49119797112347" lon="16.425254664184916"><ele>923.5</ele><time>2026-04-25T08:27:27.738Z</time></trkpt><trkpt lat="39.49111160942707" lon="16.425373704565693"><ele>922.0</ele><time>2026-04-25T08:27:28.738Z</time></trkpt><trkpt lat="39.49103199840913" lon="16.425488053566273"><ele>920.5</ele><time>2026-04-25T08:27:29.738Z</time></trkpt><trkpt lat="39.49096222219713" lon="16.425602802335575"><ele>919.0</ele><time>2026-04-25T08:27:30.738Z</time></trkpt><trkpt lat="39.49089298104668" lon="16.425715621241114"><ele>919.0</ele><time>2026-04-25T08:27:31.738Z</time></trkpt><trkpt lat="39.49082716321366" lon="16.425825422276628"><ele>919.0000000000001</ele><time>2026-04-25T08:27:32.738Z</time></trkpt><trkpt lat="39.49076918236259" lon="16.425926809933706"><ele>919.0000000000001</ele><time>2026-04-25T08:27:33.738Z</time></trkpt><trkpt lat="39.49070673443032" lon="16.42604052652541"><ele>919.0</ele><time>2026-04-25T08:27:34.738Z</time></trkpt><trkpt lat="39.490636454914885" lon="16.42616357385506"><ele>919.0</ele><time>2026-04-25T08:27:35.738Z</time></trkpt><trkpt lat="39.490559278084206" lon="16.42628565369648"><ele>918.75</ele><time>2026-04-25T08:27:36.738Z</time></trkpt><trkpt lat="39.490489625348175" lon="16.42641090727429"><ele>918.5</ele><time>2026-04-25T08:27:37.738Z</time></trkpt><trkpt lat="39.490428891775885" lon="16.426542935749886"><ele>918.25</ele><time>2026-04-25T08:27:38.738Z</time></trkpt><trkpt lat="39.490381115189926" lon="16.426687820609267"><ele>918.0</ele><time>2026-04-25T08:27:39.738Z</time></trkpt><trkpt lat="39.490350409651555" lon="16.426834486924793"><ele>918.0</ele><time>2026-04-25T08:27:40.738Z</time></trkpt><trkpt lat="39.49031740590348" lon="16.4269883460225"><ele>918.0</ele><time>2026-04-25T08:27:41.738Z</time></trkpt><trkpt lat="39.4902821480536" lon="16.42714970575558"><ele>918.0</ele><time>2026-04-25T08:27:42.738Z</time></trkpt><trkpt lat="39.49024682028432" lon="16.427321399638316"><ele>918.0</ele><time>2026-04-25T08:27:43.738Z</time></trkpt><trkpt lat="39.49020352904289" lon="16.427481711594922"><ele>920.0</ele><time>2026-04-25T08:27:44.738Z</time></trkpt><trkpt lat="39.49015225644692" lon="16.427615487419292"><ele>922.0</ele><time>2026-04-25T08:27:45.738Z</time></trkpt><trkpt lat="39.490084874084076" lon="16.427727116489226"><ele>924.0</ele><time>2026-04-25T08:27:46.738Z</time></trkpt><trkpt lat="39.4899733565188" lon="16.427788538164585"><ele>926.0</ele><time>2026-04-25T08:27:47.738Z</time></trkpt><trkpt lat="39.48986517168248" lon="16.42783944669353"><ele>926.0</ele><time>2026-04-25T08:27:48.738Z</time></trkpt><trkpt lat="39.48975595486727" lon="16.427856337988935"><ele>926.0</ele><time>2026-04-25T08:27:49.738Z</time></trkpt><trkpt lat="39.48964491848415" lon="16.427820884080834"><ele>926.0</ele><time>2026-04-25T08:27:50.738Z</time></trkpt><trkpt lat="39.4895356321658" lon="16.427770981148747"><ele>926.0</ele><time>2026-04-25T08:27:51.738Z</time></trkpt><trkpt lat="39.489487298071374" lon="16.427636795778994"><ele>927.0</ele><time>2026-04-25T08:27:52.738Z</time></trkpt><trkpt lat="39.489405362792915" lon="16.427565443341404"><ele>927.9999999999999</ele><time>2026-04-25T08:27:53.738Z</time></trkpt><trkpt lat="39.489330604332" lon="16.427480922427527"><ele>928.9999999999999</ele><time>2026-04-25T08:27:54.738Z</time></trkpt><trkpt lat="39.489246022434514" lon="16.427416399624057"><ele>930.0</ele><time>2026-04-25T08:27:55.738Z</time></trkpt><trkpt lat="39.48916403103411" lon="16.42737320725026"><ele>931.0</ele><time>2026-04-25T08:27:56.738Z</time></trkpt><trkpt lat="39.48908479081468" lon="16.42733797657924"><ele>930.9999999999999</ele><time>2026-04-25T08:27:57.738Z</time></trkpt><trkpt lat="39.48901787163976" lon="16.427285524684205"><ele>931.0</ele><time>2026-04-25T08:27:58.738Z</time></trkpt><trkpt lat="39.488943210846436" lon="16.427268696784008"><ele>931.0</ele><time>2026-04-25T08:27:59.738Z</time></trkpt><trkpt lat="39.48887629852668" lon="16.427263870729295"><ele>931.0</ele><time>2026-04-25T08:28:00.738Z</time></trkpt><trkpt lat="39.48879669649232" lon="16.427291895343632"><ele>930.9999999999999</ele><time>2026-04-25T08:28:01.738Z</time></trkpt><trkpt lat="39.48871240073434" lon="16.427355425476808"><ele>931.0</ele><time>2026-04-25T08:28:02.738Z</time></trkpt><trkpt lat="39.48860656474392" lon="16.427410078690997"><ele>931.1666666666666</ele><time>2026-04-25T08:28:03.738Z</time></trkpt><trkpt lat="39.48850271711144" lon="16.427430455584858"><ele>931.3333333333333</ele><time>2026-04-25T08:28:04.738Z</time></trkpt><trkpt lat="39.48841686413154" lon="16.427460286372256"><ele>931.5</ele><time>2026-04-25T08:28:05.738Z</time></trkpt><trkpt lat="39.48834232031948" lon="16.42746165035468"><ele>931.6666666666667</ele><time>2026-04-25T08:28:06.738Z</time></trkpt><trkpt lat="39.488269837333064" lon="16.42745194298709"><ele>931.8333333333334</ele><time>2026-04-25T08:28:07.738Z</time></trkpt><trkpt lat="39.48817810331831" lon="16.427439331681505"><ele>932.0</ele><time>2026-04-25T08:28:08.738Z</time></trkpt><trkpt lat="39.48811887884899" lon="16.427324133556223"><ele>932.0</ele><time>2026-04-25T08:28:09.738Z</time></trkpt><trkpt lat="39.48802663326903" lon="16.42726237739327"><ele>932.0</ele><time>2026-04-25T08:28:10.738Z</time></trkpt><trkpt lat="39.487949749819855" lon="16.427178046111923"><ele>932.0</ele><time>2026-04-25T08:28:11.738Z</time></trkpt><trkpt lat="39.48786685998922" lon="16.427114956102553"><ele>932.0</ele><time>2026-04-25T08:28:12.738Z</time></trkpt><trkpt lat="39.48778536461174" lon="16.427047573445844"><ele>932.0</ele><time>2026-04-25T08:28:13.738Z</time></trkpt><trkpt lat="39.487704581251485" lon="16.42697680798959"><ele>933.2</ele><time>2026-04-25T08:28:14.738Z</time></trkpt><trkpt lat="39.48762256099809" lon="16.42690441681331"><ele>934.4000000000001</ele><time>2026-04-25T08:28:15.738Z</time></trkpt><trkpt lat="39.48753853145326" lon="16.426831549663557"><ele>935.5999999999999</ele><time>2026-04-25T08:28:16.738Z</time></trkpt><trkpt lat="39.48745258800716" lon="16.426762601653994"><ele>936.8</ele><time>2026-04-25T08:28:17.738Z</time></trkpt><trkpt lat="39.48736141506967" lon="16.426704034746436"><ele>938.0</ele><time>2026-04-25T08:28:18.738Z</time></trkpt><trkpt lat="39.48726165367975" lon="16.426665452336234"><ele>938.0</ele><time>2026-04-25T08:28:19.738Z</time></trkpt><trkpt lat="39.487162563001576" lon="16.42665021860597"><ele>938.0</ele><time>2026-04-25T08:28:20.738Z</time></trkpt><trkpt lat="39.487057004130676" lon="16.426637981697116"><ele>938.0</ele><time>2026-04-25T08:28:21.738Z</time></trkpt><trkpt lat="39.486965469134745" lon="16.426588865421035"><ele>938.0</ele><time>2026-04-25T08:28:22.738Z</time></trkpt><trkpt lat="39.486878809352675" lon="16.426547436025842"><ele>938.0</ele><time>2026-04-25T08:28:23.738Z</time></trkpt><trkpt lat="39.486797382339944" lon="16.42648691376281"><ele>939.6666666666667</ele><time>2026-04-25T08:28:24.738Z</time></trkpt><trkpt lat="39.48672630657149" lon="16.42640964299711"><ele>941.3333333333334</ele><time>2026-04-25T08:28:25.738Z</time></trkpt><trkpt lat="39.486674004876434" lon="16.42630928443101"><ele>943.0</ele><time>2026-04-25T08:28:26.738Z</time></trkpt><trkpt lat="39.48661977360934" lon="16.426220463568654"><ele>944.6666666666667</ele><time>2026-04-25T08:28:27.738Z</time></trkpt><trkpt lat="39.486557643083835" lon="16.42614957440425"><ele>946.3333333333334</ele><time>2026-04-25T08:28:28.738Z</time></trkpt><trkpt lat="39.48650412095313" lon="16.426067696283965"><ele>948.0</ele><time>2026-04-25T08:28:29.738Z</time></trkpt><trkpt lat="39.48644682854821" lon="16.425982863271607"><ele>948.0</ele><time>2026-04-25T08:28:30.738Z</time></trkpt><trkpt lat="39.48638599053405" lon="16.425912577026804"><ele>948.0</ele><time>2026-04-25T08:28:31.738Z</time></trkpt><trkpt lat="39.4863318780615" lon="16.425832965523018"><ele>948.0</ele><time>2026-04-25T08:28:33.738Z</time></trkpt><trkpt lat="39.48625267638995" lon="16.425790202897158"><ele>948.0</ele><time>2026-04-25T08:28:37.738Z</time></trkpt><trkpt lat="39.486190612631795" lon="16.42577212604606"><ele>948.0</ele><time>2026-04-25T08:28:43.737Z</time></trkpt><trkpt lat="39.48614122538128" lon="16.425942206408056"><ele>948.25</ele><time>2026-04-25T08:28:45.737Z</time></trkpt><trkpt lat="39.48616138518373" lon="16.426067849328906"><ele>948.5</ele><time>2026-04-25T08:28:46.737Z</time></trkpt><trkpt lat="39.4862080213242" lon="16.426225218296615"><ele>948.75</ele><time>2026-04-25T08:28:47.737Z</time></trkpt><trkpt lat="39.48627479073374" lon="16.426408932373977"><ele>949.0</ele><time>2026-04-25T08:28:48.737Z</time></trkpt><trkpt lat="39.486338670017254" lon="16.426576205116497"><ele>949.5</ele><time>2026-04-25T08:28:49.737Z</time></trkpt><trkpt lat="39.486399795165234" lon="16.426719173075202"><ele>950.0</ele><time>2026-04-25T08:28:50.737Z</time></trkpt><trkpt lat="39.486471759255295" lon="16.42683250452436"><ele>950.5</ele><time>2026-04-25T08:28:51.737Z</time></trkpt><trkpt lat="39.48656650754448" lon="16.426933055337102"><ele>951.0</ele><time>2026-04-25T08:28:52.737Z</time></trkpt><trkpt lat="39.48667624088592" lon="16.427013250246002"><ele>951.0</ele><time>2026-04-25T08:28:53.737Z</time></trkpt><trkpt lat="39.486784102018916" lon="16.42707832579704"><ele>950.9999999999999</ele><time>2026-04-25T08:28:54.737Z</time></trkpt><trkpt lat="39.48687576964275" lon="16.42713855309796"><ele>950.9999999999999</ele><time>2026-04-25T08:28:55.737Z</time></trkpt><trkpt lat="39.48695744145622" lon="16.42720839319413"><ele>951.0</ele><time>2026-04-25T08:28:56.737Z</time></trkpt><trkpt lat="39.48703619309923" lon="16.42729626678141"><ele>951.0</ele><time>2026-04-25T08:28:57.737Z</time></trkpt><trkpt lat="39.487102874502426" lon="16.427412706784146"><ele>950.4</ele><time>2026-04-25T08:28:58.737Z</time></trkpt><trkpt lat="39.487149433407694" lon="16.42755129812459"><ele>949.8</ele><time>2026-04-25T08:28:59.737Z</time></trkpt><trkpt lat="39.48717095418727" lon="16.42767499637389"><ele>949.1999999999999</ele><time>2026-04-25T08:29:00.737Z</time></trkpt><trkpt lat="39.48716459988668" lon="16.42779675682352"><ele>948.5999999999999</ele><time>2026-04-25T08:29:01.737Z</time></trkpt><trkpt lat="39.4871131537184" lon="16.427896168538528"><ele>948.0</ele><time>2026-04-25T08:29:02.737Z</time></trkpt><trkpt lat="39.48702949171992" lon="16.427945876581216"><ele>950.6666666666666</ele><time>2026-04-25T08:29:03.737Z</time></trkpt><trkpt lat="39.486941839502656" lon="16.42794232358844"><ele>953.3333333333333</ele><time>2026-04-25T08:29:04.737Z</time></trkpt><trkpt lat="39.4868581210597" lon="16.4279123351526"><ele>956.0</ele><time>2026-04-25T08:29:05.737Z</time></trkpt><trkpt lat="39.48678095422194" lon="16.427891295682706"><ele>958.6666666666666</ele><time>2026-04-25T08:29:06.737Z</time></trkpt><trkpt lat="39.48669870316251" lon="16.427892018006226"><ele>961.3333333333333</ele><time>2026-04-25T08:29:07.737Z</time></trkpt><trkpt lat="39.48661380498208" lon="16.427919335457176"><ele>964.0</ele><time>2026-04-25T08:29:08.737Z</time></trkpt><trkpt lat="39.48653081223286" lon="16.427980735471763"><ele>965.0</ele><time>2026-04-25T08:29:09.737Z</time></trkpt><trkpt lat="39.486464675285724" lon="16.428078813025365"><ele>966.0000000000001</ele><time>2026-04-25T08:29:10.737Z</time></trkpt><trkpt lat="39.48641932658507" lon="16.428199499557074"><ele>967.0000000000001</ele><time>2026-04-25T08:29:11.737Z</time></trkpt><trkpt lat="39.486392027745104" lon="16.428305477237434"><ele>968.0</ele><time>2026-04-25T08:29:12.737Z</time></trkpt><trkpt lat="39.48637592528918" lon="16.428404962140206"><ele>969.0</ele><time>2026-04-25T08:29:13.737Z</time></trkpt><trkpt lat="39.48638546055859" lon="16.428512912909344"><ele>969.0</ele><time>2026-04-25T08:29:14.737Z</time></trkpt><trkpt lat="39.48643505865868" lon="16.4286286055422"><ele>969.0</ele><time>2026-04-25T08:29:15.737Z</time></trkpt><trkpt lat="39.48652136874631" lon="16.42872932682992"><ele>969.0</ele><time>2026-04-25T08:29:16.737Z</time></trkpt><trkpt lat="39.48661922207637" lon="16.428824047372686"><ele>969.0</ele><time>2026-04-25T08:29:17.737Z</time></trkpt><trkpt lat="39.48670940711533" lon="16.428922702975065"><ele>970.6</ele><time>2026-04-25T08:29:18.737Z</time></trkpt><trkpt lat="39.486795810298005" lon="16.429026434482328"><ele>972.2</ele><time>2026-04-25T08:29:19.738Z</time></trkpt><trkpt lat="39.486876893982426" lon="16.429141316533904"><ele>973.8000000000001</ele><time>2026-04-25T08:29:20.738Z</time></trkpt><trkpt lat="39.48694566621726" lon="16.42925476397203"><ele>975.4000000000001</ele><time>2026-04-25T08:29:21.738Z</time></trkpt><trkpt lat="39.48699563594722" lon="16.42936345631859"><ele>977.0</ele><time>2026-04-25T08:29:22.738Z</time></trkpt><trkpt lat="39.48704955233414" lon="16.42947127715021"><ele>976.2</ele><time>2026-04-25T08:29:23.738Z</time></trkpt><trkpt lat="39.48710551755916" lon="16.429582948517528"><ele>975.4000000000001</ele><time>2026-04-25T08:29:24.738Z</time></trkpt><trkpt lat="39.48715668115832" lon="16.429696261879943"><ele>974.5999999999999</ele><time>2026-04-25T08:29:25.738Z</time></trkpt><trkpt lat="39.48720142371162" lon="16.429811603579648"><ele>973.8</ele><time>2026-04-25T08:29:26.738Z</time></trkpt><trkpt lat="39.487231827716705" lon="16.429931041598508"><ele>973.0</ele><time>2026-04-25T08:29:27.738Z</time></trkpt><trkpt lat="39.487234576132714" lon="16.43005275172055"><ele>973.0</ele><time>2026-04-25T08:29:28.738Z</time></trkpt><trkpt lat="39.487204318905164" lon="16.430182449386663"><ele>973.0</ele><time>2026-04-25T08:29:29.738Z</time></trkpt><trkpt lat="39.487144896837286" lon="16.430306277631022"><ele>973.0</ele><time>2026-04-25T08:29:30.738Z</time></trkpt><trkpt lat="39.487042230667086" lon="16.430383197190075"><ele>973.0</ele><time>2026-04-25T08:29:31.738Z</time></trkpt><trkpt lat="39.48693686311052" lon="16.43048671885296"><ele>974.8</ele><time>2026-04-25T08:29:32.738Z</time></trkpt><trkpt lat="39.48683973837754" lon="16.430600968403017"><ele>976.5999999999999</ele><time>2026-04-25T08:29:33.738Z</time></trkpt><trkpt lat="39.48674297695959" lon="16.430680602264633"><ele>978.4000000000001</ele><time>2026-04-25T08:29:34.738Z</time></trkpt><trkpt lat="39.48665688195235" lon="16.430745494548486"><ele>980.2</ele><time>2026-04-25T08:29:35.738Z</time></trkpt><trkpt lat="39.486566608900326" lon="16.43078483093979"><ele>982.0</ele><time>2026-04-25T08:29:36.738Z</time></trkpt><trkpt lat="39.4864624121708" lon="16.430795011740233"><ele>982.0</ele><time>2026-04-25T08:29:37.738Z</time></trkpt><trkpt lat="39.486361227839396" lon="16.43080615943757"><ele>982.0</ele><time>2026-04-25T08:29:38.738Z</time></trkpt><trkpt lat="39.48627794599258" lon="16.430874878172634"><ele>982.0</ele><time>2026-04-25T08:29:39.738Z</time></trkpt><trkpt lat="39.486220415279874" lon="16.43099902802526"><ele>982.0</ele><time>2026-04-25T08:29:40.738Z</time></trkpt><trkpt lat="39.48617771480994" lon="16.431145517122353"><ele>982.0</ele><time>2026-04-25T08:29:41.738Z</time></trkpt><trkpt lat="39.48613383118874" lon="16.43126982533149"><ele>986.0</ele><time>2026-04-25T08:29:42.738Z</time></trkpt><trkpt lat="39.48609046045284" lon="16.43137019379501"><ele>990.0</ele><time>2026-04-25T08:29:43.738Z</time></trkpt><trkpt lat="39.48606516717312" lon="16.43147728504216"><ele>994.0</ele><time>2026-04-25T08:29:44.738Z</time></trkpt><trkpt lat="39.48607796101212" lon="16.43161038262464"><ele>998.0</ele><time>2026-04-25T08:29:45.738Z</time></trkpt><trkpt lat="39.48613724776881" lon="16.431749441150522"><ele>1002.0</ele><time>2026-04-25T08:29:46.738Z</time></trkpt><trkpt lat="39.48621484046325" lon="16.43189379777613"><ele>998.5</ele><time>2026-04-25T08:29:47.738Z</time></trkpt><trkpt lat="39.48628642971049" lon="16.432049173477093"><ele>995.0</ele><time>2026-04-25T08:29:48.738Z</time></trkpt><trkpt lat="39.48633578531246" lon="16.432187421496092"><ele>991.5</ele><time>2026-04-25T08:29:49.738Z</time></trkpt><trkpt lat="39.48637521954646" lon="16.432326448249874"><ele>988.0</ele><time>2026-04-25T08:29:50.738Z</time></trkpt><trkpt lat="39.486410345128" lon="16.432477377826892"><ele>988.0</ele><time>2026-04-25T08:29:51.738Z</time></trkpt><trkpt lat="39.48642897246381" lon="16.432632929618467"><ele>988.0</ele><time>2026-04-25T08:29:52.738Z</time></trkpt><trkpt lat="39.48641096478048" lon="16.432784887418645"><ele>988.0</ele><time>2026-04-25T08:29:53.738Z</time></trkpt><trkpt lat="39.4863927197575" lon="16.43291411726179"><ele>988.0</ele><time>2026-04-25T08:29:54.738Z</time></trkpt><trkpt lat="39.486366679215806" lon="16.433028519461867"><ele>988.0</ele><time>2026-04-25T08:29:55.738Z</time></trkpt><trkpt lat="39.48635305115294" lon="16.433147166625123"><ele>988.8333333333333</ele><time>2026-04-25T08:29:56.738Z</time></trkpt><trkpt lat="39.48630648008077" lon="16.433249353770822"><ele>989.6666666666666</ele><time>2026-04-25T08:29:57.738Z</time></trkpt><trkpt lat="39.48624104810065" lon="16.43332665829962"><ele>990.5</ele><time>2026-04-25T08:29:58.738Z</time></trkpt><trkpt lat="39.486159970489766" lon="16.43334325805394"><ele>991.3333333333333</ele><time>2026-04-25T08:29:59.738Z</time></trkpt><trkpt lat="39.48608222033888" lon="16.433300653474504"><ele>992.1666666666666</ele><time>2026-04-25T08:30:00.738Z</time></trkpt><trkpt lat="39.48601855203564" lon="16.43320608042507"><ele>993.0</ele><time>2026-04-25T08:30:01.738Z</time></trkpt><trkpt lat="39.485991162155294" lon="16.433076242358915"><ele>994.5999999999999</ele><time>2026-04-25T08:30:02.738Z</time></trkpt><trkpt lat="39.485985435769265" lon="16.432941663457328"><ele>996.1999999999999</ele><time>2026-04-25T08:30:03.738Z</time></trkpt><trkpt lat="39.485986396626714" lon="16.43280298704247"><ele>997.8</ele><time>2026-04-25T08:30:04.738Z</time></trkpt><trkpt lat="39.48597215708873" lon="16.43266510731372"><ele>999.4</ele><time>2026-04-25T08:30:05.738Z</time></trkpt><trkpt lat="39.48591578946808" lon="16.432555542450185"><ele>1001.0</ele><time>2026-04-25T08:30:06.738Z</time></trkpt><trkpt lat="39.485826805200375" lon="16.43247408694337"><ele>1001.0</ele><time>2026-04-25T08:30:07.738Z</time></trkpt><trkpt lat="39.485710231875736" lon="16.43240482716564"><ele>1001.0</ele><time>2026-04-25T08:30:08.738Z</time></trkpt><trkpt lat="39.485590420714" lon="16.43232788081379"><ele>1001.0</ele><time>2026-04-25T08:30:09.738Z</time></trkpt><trkpt lat="39.48548172662776" lon="16.432252677716466"><ele>1001.0</ele><time>2026-04-25T08:30:10.738Z</time></trkpt><trkpt lat="39.485385878288355" lon="16.432189537705817"><ele>1001.1999999999999</ele><time>2026-04-25T08:30:11.738Z</time></trkpt><trkpt lat="39.4852952969144" lon="16.43215098720295"><ele>1001.3999999999999</ele><time>2026-04-25T08:30:12.738Z</time></trkpt><trkpt lat="39.485201553722305" lon="16.432158130538156"><ele>1001.6</ele><time>2026-04-25T08:30:13.738Z</time></trkpt><trkpt lat="39.48511331895515" lon="16.432229450189666"><ele>1001.8</ele><time>2026-04-25T08:30:14.738Z</time></trkpt><trkpt lat="39.48504337124323" lon="16.43231565616038"><ele>1002.0</ele><time>2026-04-25T08:30:15.737Z</time></trkpt><trkpt lat="39.48496701132083" lon="16.432367339982545"><ele>1002.0</ele><time>2026-04-25T08:30:16.737Z</time></trkpt><trkpt lat="39.48488039913711" lon="16.432369171546725"><ele>1002.0</ele><time>2026-04-25T08:30:17.737Z</time></trkpt><trkpt lat="39.48479270946548" lon="16.4323061595423"><ele>1002.0</ele><time>2026-04-25T08:30:18.737Z</time></trkpt><trkpt lat="39.48472692116854" lon="16.432203677947367"><ele>1002.0</ele><time>2026-04-25T08:30:19.737Z</time></trkpt><trkpt lat="39.48469854623374" lon="16.432082090391283"><ele>1002.0</ele><time>2026-04-25T08:30:20.737Z</time></trkpt><trkpt lat="39.484694148251116" lon="16.431937651393742"><ele>1002.0</ele><time>2026-04-25T08:30:21.737Z</time></trkpt><trkpt lat="39.48469065616953" lon="16.431800811204518"><ele>1002.0</ele><time>2026-04-25T08:30:22.737Z</time></trkpt><trkpt lat="39.484655363331385" lon="16.431678264870737"><ele>1002.0</ele><time>2026-04-25T08:30:23.737Z</time></trkpt><trkpt lat="39.48458798979493" lon="16.431542033670034"><ele>1002.0</ele><time>2026-04-25T08:30:24.737Z</time></trkpt><trkpt lat="39.484525745932345" lon="16.43138872870564"><ele>1003.0</ele><time>2026-04-25T08:30:25.737Z</time></trkpt><trkpt lat="39.48447466059838" lon="16.43122834516437"><ele>1004.0</ele><time>2026-04-25T08:30:26.737Z</time></trkpt><trkpt lat="39.48442791026295" lon="16.43107949749422"><ele>1005.0</ele><time>2026-04-25T08:30:27.737Z</time></trkpt><trkpt lat="39.48437921747072" lon="16.43093848951194"><ele>1006.0</ele><time>2026-04-25T08:30:28.737Z</time></trkpt><trkpt lat="39.484327916814756" lon="16.430801053054125"><ele>1006.0</ele><time>2026-04-25T08:30:29.737Z</time></trkpt><trkpt lat="39.48427098822844" lon="16.43066510941308"><ele>1006.0</ele><time>2026-04-25T08:30:30.737Z</time></trkpt><trkpt lat="39.484199923228424" lon="16.43054984419043"><ele>1006.0</ele><time>2026-04-25T08:30:31.737Z</time></trkpt><trkpt lat="39.4841095281098" lon="16.43044468633953"><ele>1006.0</ele><time>2026-04-25T08:30:32.737Z</time></trkpt><trkpt lat="39.483999541842614" lon="16.43037314502533"><ele>1006.25</ele><time>2026-04-25T08:30:33.737Z</time></trkpt><trkpt lat="39.483873956306596" lon="16.430325741825108"><ele>1006.5</ele><time>2026-04-25T08:30:34.737Z</time></trkpt><trkpt lat="39.483736468957275" lon="16.430374440197884"><ele>1006.75</ele><time>2026-04-25T08:30:35.737Z</time></trkpt><trkpt lat="39.483594511772175" lon="16.430440118132896"><ele>1007.0</ele><time>2026-04-25T08:30:36.737Z</time></trkpt><trkpt lat="39.48343494548642" lon="16.43047845690645"><ele>1007.3333333333334</ele><time>2026-04-25T08:30:37.737Z</time></trkpt><trkpt lat="39.48328466964952" lon="16.430534023980147"><ele>1007.6666666666667</ele><time>2026-04-25T08:30:38.737Z</time></trkpt><trkpt lat="39.4831419683181" lon="16.430585767145427"><ele>1008.0</ele><time>2026-04-25T08:30:39.737Z</time></trkpt><trkpt lat="39.48300507450794" lon="16.43065665155298"><ele>1009.75</ele><time>2026-04-25T08:30:40.737Z</time></trkpt><trkpt lat="39.482864301599655" lon="16.43070529131168"><ele>1011.5</ele><time>2026-04-25T08:30:41.737Z</time></trkpt><trkpt lat="39.482725846107705" lon="16.430755207249295"><ele>1013.25</ele><time>2026-04-25T08:30:42.737Z</time></trkpt><trkpt lat="39.4825891209019" lon="16.43080479209303"><ele>1015.0</ele><time>2026-04-25T08:30:43.737Z</time></trkpt><trkpt lat="39.48244463144748" lon="16.430857230566538"><ele>1015.0</ele><time>2026-04-25T08:30:44.737Z</time></trkpt><trkpt lat="39.48229318645999" lon="16.430913552602053"><ele>1015.0</ele><time>2026-04-25T08:30:45.737Z</time></trkpt><trkpt lat="39.482140282910976" lon="16.430974011902226"><ele>1015.0</ele><time>2026-04-25T08:30:46.737Z</time></trkpt><trkpt lat="39.48200000502449" lon="16.431037981133386"><ele>1015.0</ele><time>2026-04-25T08:30:47.737Z</time></trkpt><trkpt lat="39.481870275628744" lon="16.43110703839923"><ele>1015.0</ele><time>2026-04-25T08:30:48.737Z</time></trkpt><trkpt lat="39.481747218461585" lon="16.431179870449633"><ele>1015.0</ele><time>2026-04-25T08:30:49.737Z</time></trkpt><trkpt lat="39.481629006782065" lon="16.431255232725906"><ele>1015.0</ele><time>2026-04-25T08:30:50.737Z</time></trkpt><trkpt lat="39.48151181128556" lon="16.4313368123985"><ele>1014.75</ele><time>2026-04-25T08:30:51.737Z</time></trkpt><trkpt lat="39.481397107480944" lon="16.431420549233174"><ele>1014.5</ele><time>2026-04-25T08:30:52.737Z</time></trkpt><trkpt lat="39.48129180131326" lon="16.431512816050038"><ele>1014.25</ele><time>2026-04-25T08:30:53.737Z</time></trkpt><trkpt lat="39.48120944520627" lon="16.431625221920278"><ele>1014.0</ele><time>2026-04-25T08:30:54.737Z</time></trkpt><trkpt lat="39.48115268592322" lon="16.43176797523397"><ele>1016.25</ele><time>2026-04-25T08:30:55.737Z</time></trkpt><trkpt lat="39.481126331707685" lon="16.43193893024791"><ele>1018.5</ele><time>2026-04-25T08:30:56.737Z</time></trkpt><trkpt lat="39.48110612459582" lon="16.43211583950268"><ele>1020.75</ele><time>2026-04-25T08:30:57.737Z</time></trkpt><trkpt lat="39.481072462335824" lon="16.43229070373786"><ele>1023.0</ele><time>2026-04-25T08:30:58.737Z</time></trkpt><trkpt lat="39.48102847758838" lon="16.432448721093785"><ele>1023.0</ele><time>2026-04-25T08:30:59.737Z</time></trkpt><trkpt lat="39.48097651589223" lon="16.43259378232828"><ele>1023.0</ele><time>2026-04-25T08:31:00.737Z</time></trkpt><trkpt lat="39.4809197592655" lon="16.43272986396029"><ele>1023.0</ele><time>2026-04-25T08:31:01.737Z</time></trkpt><trkpt lat="39.48086640519917" lon="16.43286286304334"><ele>1023.0</ele><time>2026-04-25T08:31:02.737Z</time></trkpt><trkpt lat="39.4808281061385" lon="16.43299320630765"><ele>1023.2</ele><time>2026-04-25T08:31:03.737Z</time></trkpt><trkpt lat="39.48082199291113" lon="16.43311340106401"><ele>1023.4</ele><time>2026-04-25T08:31:04.737Z</time></trkpt><trkpt lat="39.48084771747847" lon="16.433215765216136"><ele>1023.6000000000001</ele><time>2026-04-25T08:31:05.737Z</time></trkpt><trkpt lat="39.480910724800985" lon="16.433293728265447"><ele>1023.8000000000001</ele><time>2026-04-25T08:31:06.737Z</time></trkpt><trkpt lat="39.48099911915262" lon="16.43334513967607"><ele>1024.0</ele><time>2026-04-25T08:31:07.737Z</time></trkpt><trkpt lat="39.481085214334584" lon="16.433377689775593"><ele>1024.0</ele><time>2026-04-25T08:31:08.737Z</time></trkpt><trkpt lat="39.48117252992118" lon="16.43343219477762"><ele>1024.0</ele><time>2026-04-25T08:31:09.737Z</time></trkpt><trkpt lat="39.48127527042667" lon="16.433454762454538"><ele>1024.0</ele><time>2026-04-25T08:31:10.737Z</time></trkpt><trkpt lat="39.48138827947266" lon="16.433487958296062"><ele>1024.0</ele><time>2026-04-25T08:31:11.737Z</time></trkpt><trkpt lat="39.48151433303083" lon="16.43355691888989"><ele>1023.6666666666666</ele><time>2026-04-25T08:31:12.737Z</time></trkpt><trkpt lat="39.481654427259606" lon="16.433678950554803"><ele>1023.3333333333333</ele><time>2026-04-25T08:31:13.737Z</time></trkpt><trkpt lat="39.4818016730818" lon="16.433797587212556"><ele>1023.0</ele><time>2026-04-25T08:31:14.737Z</time></trkpt><trkpt lat="39.48191574444578" lon="16.43392195808295"><ele>1023.0</ele><time>2026-04-25T08:31:15.737Z</time></trkpt><trkpt lat="39.48199803003493" lon="16.434048102463287"><ele>1023.0</ele><time>2026-04-25T08:31:16.737Z</time></trkpt><trkpt lat="39.48207939100464" lon="16.43418912187471"><ele>1023.0</ele><time>2026-04-25T08:31:17.737Z</time></trkpt><trkpt lat="39.482128867363144" lon="16.434331703294294"><ele>1023.0</ele><time>2026-04-25T08:31:18.737Z</time></trkpt><trkpt lat="39.48216624312227" lon="16.434489961294883"><ele>1018.5</ele><time>2026-04-25T08:31:19.737Z</time></trkpt><trkpt lat="39.4822315507036" lon="16.43466137614699"><ele>1014.0</ele><time>2026-04-25T08:31:20.737Z</time></trkpt><trkpt lat="39.482315521411245" lon="16.434817289297378"><ele>1009.5</ele><time>2026-04-25T08:31:21.737Z</time></trkpt><trkpt lat="39.48240569398744" lon="16.4349653290766"><ele>1005.0</ele><time>2026-04-25T08:31:22.737Z</time></trkpt><trkpt lat="39.482442590136465" lon="16.43513112562668"><ele>1005.0</ele><time>2026-04-25T08:31:23.737Z</time></trkpt><trkpt lat="39.48247803011997" lon="16.435290065467143"><ele>1005.0</ele><time>2026-04-25T08:31:24.737Z</time></trkpt><trkpt lat="39.482465370622286" lon="16.435451664823248"><ele>1005.0</ele><time>2026-04-25T08:31:25.738Z</time></trkpt><trkpt lat="39.48245763968281" lon="16.435623371677273"><ele>1005.0</ele><time>2026-04-25T08:31:26.738Z</time></trkpt><trkpt lat="39.482478168555076" lon="16.4357735228009"><ele>1004.8</ele><time>2026-04-25T08:31:27.738Z</time></trkpt><trkpt lat="39.48250165267399" lon="16.43591791288686"><ele>1004.6</ele><time>2026-04-25T08:31:28.738Z</time></trkpt><trkpt lat="39.48255781719619" lon="16.43604560486056"><ele>1004.4000000000001</ele><time>2026-04-25T08:31:29.738Z</time></trkpt><trkpt lat="39.48263488452645" lon="16.43614297586665"><ele>1004.2</ele><time>2026-04-25T08:31:30.738Z</time></trkpt><trkpt lat="39.48270798644877" lon="16.436225638028557"><ele>1004.0</ele><time>2026-04-25T08:31:31.738Z</time></trkpt><trkpt lat="39.482745688686975" lon="16.436322623404422"><ele>1004.0000000000001</ele><time>2026-04-25T08:31:32.738Z</time></trkpt><trkpt lat="39.48273542560361" lon="16.43641413161089"><ele>1004.0</ele><time>2026-04-25T08:31:33.738Z</time></trkpt><trkpt lat="39.482680955378626" lon="16.436484529548583"><ele>1004.0</ele><time>2026-04-25T08:31:34.738Z</time></trkpt><trkpt lat="39.48258979922656" lon="16.43647542559672"><ele>1004.0</ele><time>2026-04-25T08:31:35.738Z</time></trkpt><trkpt lat="39.482511233205436" lon="16.436462148119297"><ele>1004.0000000000001</ele><time>2026-04-25T08:31:36.738Z</time></trkpt><trkpt lat="39.48244300239167" lon="16.436408146875895"><ele>1004.0</ele><time>2026-04-25T08:31:37.738Z</time></trkpt><trkpt lat="39.48235524754615" lon="16.436349690201293"><ele>1004.0</ele><time>2026-04-25T08:31:38.738Z</time></trkpt><trkpt lat="39.48225536029563" lon="16.436333833231682"><ele>1004.0000000000001</ele><time>2026-04-25T08:31:39.738Z</time></trkpt><trkpt lat="39.48216101272669" lon="16.436336248778048"><ele>1004.0000000000001</ele><time>2026-04-25T08:31:40.738Z</time></trkpt><trkpt lat="39.482077048474636" lon="16.436381877928667"><ele>1004.0</ele><time>2026-04-25T08:31:41.738Z</time></trkpt><trkpt lat="39.481999454896645" lon="16.436450939172275"><ele>1004.0</ele><time>2026-04-25T08:31:42.738Z</time></trkpt><trkpt lat="39.48193204558526" lon="16.436512564765643"><ele>1002.6</ele><time>2026-04-25T08:31:43.738Z</time></trkpt><trkpt lat="39.48184941624181" lon="16.43650091315735"><ele>1001.2</ele><time>2026-04-25T08:31:44.738Z</time></trkpt><trkpt lat="39.48178907878063" lon="16.43643284729884"><ele>999.8000000000001</ele><time>2026-04-25T08:31:45.738Z</time></trkpt><trkpt lat="39.48169756073407" lon="16.436367697541527"><ele>998.4000000000001</ele><time>2026-04-25T08:31:46.738Z</time></trkpt><trkpt lat="39.481586994757215" lon="16.436337323388624"><ele>997.0</ele><time>2026-04-25T08:31:47.738Z</time></trkpt><trkpt lat="39.4814845533643" lon="16.43632573014306"><ele>996.9999999999999</ele><time>2026-04-25T08:31:48.737Z</time></trkpt><trkpt lat="39.48139681652167" lon="16.436340451738204"><ele>997.0</ele><time>2026-04-25T08:31:49.737Z</time></trkpt><trkpt lat="39.481329105008584" lon="16.43638804627453"><ele>997.0</ele><time>2026-04-25T08:31:50.737Z</time></trkpt><trkpt lat="39.481281371214585" lon="16.436472445275957"><ele>997.0</ele><time>2026-04-25T08:31:51.737Z</time></trkpt><trkpt lat="39.481256002678634" lon="16.436583664605312"><ele>996.9999999999999</ele><time>2026-04-25T08:31:52.737Z</time></trkpt><trkpt lat="39.48124333768235" lon="16.436695224293764"><ele>997.0</ele><time>2026-04-25T08:31:53.737Z</time></trkpt><trkpt lat="39.481217940928914" lon="16.436786878273136"><ele>996.4000000000001</ele><time>2026-04-25T08:31:54.737Z</time></trkpt><trkpt lat="39.48115252323741" lon="16.436850605272355"><ele>995.8000000000001</ele><time>2026-04-25T08:31:55.737Z</time></trkpt><trkpt lat="39.48106987151087" lon="16.436861811306724"><ele>995.2</ele><time>2026-04-25T08:31:56.737Z</time></trkpt><trkpt lat="39.48097528597802" lon="16.436820826796243"><ele>994.6</ele><time>2026-04-25T08:31:57.737Z</time></trkpt><trkpt lat="39.48089595418105" lon="16.436731339922574"><ele>994.0</ele><time>2026-04-25T08:31:58.737Z</time></trkpt><trkpt lat="39.4808074370088" lon="16.43666069211342"><ele>994.0</ele><time>2026-04-25T08:31:59.737Z</time></trkpt><trkpt lat="39.4807264228807" lon="16.436587470887332"><ele>994.0000000000001</ele><time>2026-04-25T08:32:00.737Z</time></trkpt><trkpt lat="39.480655093034514" lon="16.436524104899284"><ele>994.0000000000001</ele><time>2026-04-25T08:32:01.737Z</time></trkpt><trkpt lat="39.48060236458509" lon="16.436423663239673"><ele>994.0</ele><time>2026-04-25T08:32:02.737Z</time></trkpt><trkpt lat="39.48058353525857" lon="16.43629026132749"><ele>994.0</ele><time>2026-04-25T08:32:03.737Z</time></trkpt><trkpt lat="39.48052273706671" lon="16.436200940444436"><ele>995.6666666666666</ele><time>2026-04-25T08:32:04.737Z</time></trkpt><trkpt lat="39.48045581046162" lon="16.436134671132486"><ele>997.3333333333333</ele><time>2026-04-25T08:32:05.737Z</time></trkpt><trkpt lat="39.48035838537695" lon="16.43614354185886"><ele>999.0</ele><time>2026-04-25T08:32:06.737Z</time></trkpt><trkpt lat="39.48026406866421" lon="16.436178102339795"><ele>1000.6666666666667</ele><time>2026-04-25T08:32:07.737Z</time></trkpt><trkpt lat="39.48018578932862" lon="16.43622598100192"><ele>1002.3333333333334</ele><time>2026-04-25T08:32:08.737Z</time></trkpt><trkpt lat="39.48011428737807" lon="16.436243366138292"><ele>1004.0</ele><time>2026-04-25T08:32:09.737Z</time></trkpt><trkpt lat="39.48003055079827" lon="16.43623646366899"><ele>1004.0</ele><time>2026-04-25T08:32:10.737Z</time></trkpt><trkpt lat="39.479932436042226" lon="16.43621409368102"><ele>1004.0000000000001</ele><time>2026-04-25T08:32:11.737Z</time></trkpt><trkpt lat="39.479834041880196" lon="16.436196521589874"><ele>1004.0000000000001</ele><time>2026-04-25T08:32:12.737Z</time></trkpt><trkpt lat="39.47973145244531" lon="16.4361813703854"><ele>1004.0</ele><time>2026-04-25T08:32:13.737Z</time></trkpt><trkpt lat="39.479639240551606" lon="16.436189090054267"><ele>1004.0</ele><time>2026-04-25T08:32:14.737Z</time></trkpt><trkpt lat="39.47954086090197" lon="16.436252348744738"><ele>1000.75</ele><time>2026-04-25T08:32:15.737Z</time></trkpt><trkpt lat="39.47944752175078" lon="16.43636462120085"><ele>997.5</ele><time>2026-04-25T08:32:16.737Z</time></trkpt><trkpt lat="39.47937097101101" lon="16.436502331330534"><ele>994.25</ele><time>2026-04-25T08:32:17.737Z</time></trkpt><trkpt lat="39.479329380349945" lon="16.436634065510532"><ele>991.0</ele><time>2026-04-25T08:32:18.737Z</time></trkpt><trkpt lat="39.47932073151193" lon="16.43677310244062"><ele>991.0</ele><time>2026-04-25T08:32:19.737Z</time></trkpt><trkpt lat="39.47936773590324" lon="16.436913723522448"><ele>991.0</ele><time>2026-04-25T08:32:20.737Z</time></trkpt><trkpt lat="39.479467500131584" lon="16.43705920485783"><ele>991.0</ele><time>2026-04-25T08:32:21.737Z</time></trkpt><trkpt lat="39.47958484958462" lon="16.437218782796165"><ele>991.0</ele><time>2026-04-25T08:32:22.737Z</time></trkpt><trkpt lat="39.479700776473344" lon="16.437389496653612"><ele>992.25</ele><time>2026-04-25T08:32:23.737Z</time></trkpt><trkpt lat="39.47978625189602" lon="16.43753250059032"><ele>993.5</ele><time>2026-04-25T08:32:24.737Z</time></trkpt><trkpt lat="39.47986508577277" lon="16.43765309314033"><ele>994.75</ele><time>2026-04-25T08:32:25.737Z</time></trkpt><trkpt lat="39.47994351184675" lon="16.437759765240674"><ele>996.0</ele><time>2026-04-25T08:32:26.737Z</time></trkpt><trkpt lat="39.48000567677508" lon="16.437868797850275"><ele>997.5999999999999</ele><time>2026-04-25T08:32:27.737Z</time></trkpt><trkpt lat="39.48003407814188" lon="16.437991642649028"><ele>999.1999999999999</ele><time>2026-04-25T08:32:28.737Z</time></trkpt><trkpt lat="39.480050463781836" lon="16.438124266140054"><ele>1000.8000000000001</ele><time>2026-04-25T08:32:29.737Z</time></trkpt><trkpt lat="39.480049574197636" lon="16.438263506872044"><ele>1002.4000000000001</ele><time>2026-04-25T08:32:30.737Z</time></trkpt><trkpt lat="39.48001531101211" lon="16.438380870584222"><ele>1004.0</ele><time>2026-04-25T08:32:31.737Z</time></trkpt><trkpt lat="39.479942807374115" lon="16.43847862589527"><ele>1004.0</ele><time>2026-04-25T08:32:32.737Z</time></trkpt><trkpt lat="39.4798777271105" lon="16.438606973867806"><ele>1004.0000000000001</ele><time>2026-04-25T08:32:33.737Z</time></trkpt><trkpt lat="39.479813602650054" lon="16.43870946504806"><ele>1004.0000000000001</ele><time>2026-04-25T08:32:34.737Z</time></trkpt><trkpt lat="39.47976965514008" lon="16.438827673690533"><ele>1004.0</ele><time>2026-04-25T08:32:35.737Z</time></trkpt><trkpt lat="39.47973172161547" lon="16.438952619081125"><ele>1004.0</ele><time>2026-04-25T08:32:36.737Z</time></trkpt><trkpt lat="39.479700262803284" lon="16.439074764589503"><ele>1004.4000000000001</ele><time>2026-04-25T08:32:37.737Z</time></trkpt><trkpt lat="39.479705362792686" lon="16.439193553624804"><ele>1004.8000000000001</ele><time>2026-04-25T08:32:38.737Z</time></trkpt><trkpt lat="39.47974894796637" lon="16.439303053583494"><ele>1005.1999999999999</ele><time>2026-04-25T08:32:39.737Z</time></trkpt><trkpt lat="39.479826412281305" lon="16.439386992377077"><ele>1005.5999999999999</ele><time>2026-04-25T08:32:40.737Z</time></trkpt><trkpt lat="39.4799036719434" lon="16.439451262264598"><ele>1006.0</ele><time>2026-04-25T08:32:41.737Z</time></trkpt><trkpt lat="39.48000224987894" lon="16.439512369614697"><ele>1006.0</ele><time>2026-04-25T08:32:42.737Z</time></trkpt><trkpt lat="39.480145937447766" lon="16.43959624998152"><ele>1006.0</ele><time>2026-04-25T08:32:43.737Z</time></trkpt><trkpt lat="39.4802756341234" lon="16.43973443762416"><ele>1006.0</ele><time>2026-04-25T08:32:44.737Z</time></trkpt><trkpt lat="39.48040977316589" lon="16.43979604689365"><ele>1007.0</ele><time>2026-04-25T08:32:45.737Z</time></trkpt><trkpt lat="39.48052254492353" lon="16.439845837750642"><ele>1008.0</ele><time>2026-04-25T08:32:46.737Z</time></trkpt><trkpt lat="39.48064898678661" lon="16.43987635474674"><ele>1009.0</ele><time>2026-04-25T08:32:47.737Z</time></trkpt><trkpt lat="39.480763750216255" lon="16.439920616357057"><ele>1010.0</ele><time>2026-04-25T08:32:48.737Z</time></trkpt><trkpt lat="39.48084764878656" lon="16.44000430524878"><ele>1010.0</ele><time>2026-04-25T08:32:49.737Z</time></trkpt><trkpt lat="39.48089601061153" lon="16.44011820062407"><ele>1010.0</ele><time>2026-04-25T08:32:50.737Z</time></trkpt><trkpt lat="39.480920726444786" lon="16.440248548675005"><ele>1010.0</ele><time>2026-04-25T08:32:51.737Z</time></trkpt><trkpt lat="39.480914294046805" lon="16.44038528445994"><ele>1010.0</ele><time>2026-04-25T08:32:52.737Z</time></trkpt><trkpt lat="39.48085955833093" lon="16.440496341739014"><ele>1010.0</ele><time>2026-04-25T08:32:53.737Z</time></trkpt><trkpt lat="39.480802767653685" lon="16.440591230556564"><ele>1012.0</ele><time>2026-04-25T08:32:54.737Z</time></trkpt><trkpt lat="39.480751303011004" lon="16.44070660257858"><ele>1014.0</ele><time>2026-04-25T08:32:55.737Z</time></trkpt><trkpt lat="39.48070711080574" lon="16.440827830345814"><ele>1016.0</ele><time>2026-04-25T08:32:56.737Z</time></trkpt><trkpt lat="39.48071527232794" lon="16.440961411392905"><ele>1018.0</ele><time>2026-04-25T08:32:57.737Z</time></trkpt><trkpt lat="39.480766646053354" lon="16.441097996644245"><ele>1020.0</ele><time>2026-04-25T08:32:58.737Z</time></trkpt><trkpt lat="39.480844628286306" lon="16.441192331126274"><ele>1020.0</ele><time>2026-04-25T08:32:59.737Z</time></trkpt><trkpt lat="39.480925811454235" lon="16.441268123758526"><ele>1020.0</ele><time>2026-04-25T08:33:00.737Z</time></trkpt><trkpt lat="39.480999204790976" lon="16.441351130004342"><ele>1020.0</ele><time>2026-04-25T08:33:01.737Z</time></trkpt><trkpt lat="39.48105033083776" lon="16.441460477574264"><ele>1020.0</ele><time>2026-04-25T08:33:02.737Z</time></trkpt><trkpt lat="39.48105132919869" lon="16.441592216740208"><ele>1020.0</ele><time>2026-04-25T08:33:03.737Z</time></trkpt><trkpt lat="39.48100999419243" lon="16.441700847789146"><ele>1021.0</ele><time>2026-04-25T08:33:04.737Z</time></trkpt><trkpt lat="39.480938075029925" lon="16.44178387384152"><ele>1022.0</ele><time>2026-04-25T08:33:05.737Z</time></trkpt><trkpt lat="39.480838606267895" lon="16.441824000426333"><ele>1023.0</ele><time>2026-04-25T08:33:06.737Z</time></trkpt><trkpt lat="39.48075742055807" lon="16.4419207743172"><ele>1024.0</ele><time>2026-04-25T08:33:07.737Z</time></trkpt><trkpt lat="39.48066580704023" lon="16.442000058991972"><ele>1025.0</ele><time>2026-04-25T08:33:08.737Z</time></trkpt><trkpt lat="39.480588054347756" lon="16.44209569194841"><ele>1027.6</ele><time>2026-04-25T08:33:09.737Z</time></trkpt><trkpt lat="39.48051137248983" lon="16.442170722067733"><ele>1030.2</ele><time>2026-04-25T08:33:10.737Z</time></trkpt><trkpt lat="39.48041998067129" lon="16.44218072687567"><ele>1032.8</ele><time>2026-04-25T08:33:11.737Z</time></trkpt><trkpt lat="39.480314482663395" lon="16.442138355569913"><ele>1035.4</ele><time>2026-04-25T08:33:12.737Z</time></trkpt><trkpt lat="39.4802216937622" lon="16.442101048423922"><ele>1038.0</ele><time>2026-04-25T08:33:13.737Z</time></trkpt><trkpt lat="39.48013871400834" lon="16.44210448923145"><ele>1038.0</ele><time>2026-04-25T08:33:14.737Z</time></trkpt><trkpt lat="39.48006974629191" lon="16.442158340122674"><ele>1038.0</ele><time>2026-04-25T08:33:15.737Z</time></trkpt><trkpt lat="39.47999504361366" lon="16.442248516388258"><ele>1038.0</ele><time>2026-04-25T08:33:16.737Z</time></trkpt><trkpt lat="39.47993009687445" lon="16.442362711500675"><ele>1038.0</ele><time>2026-04-25T08:33:17.737Z</time></trkpt><trkpt lat="39.47986568968901" lon="16.442510503422472"><ele>1038.0</ele><time>2026-04-25T08:33:18.737Z</time></trkpt><trkpt lat="39.47987040212207" lon="16.442723454664097"><ele>1038.0</ele><time>2026-04-25T08:33:19.737Z</time></trkpt><trkpt lat="39.47985423702905" lon="16.442935692151828"><ele>1038.0</ele><time>2026-04-25T08:33:20.737Z</time></trkpt><trkpt lat="39.47979819988046" lon="16.44310631380978"><ele>1038.0</ele><time>2026-04-25T08:33:21.737Z</time></trkpt><trkpt lat="39.479719788846985" lon="16.4432734404758"><ele>1034.25</ele><time>2026-04-25T08:33:22.737Z</time></trkpt><trkpt lat="39.47961399897923" lon="16.44336740856953"><ele>1030.5</ele><time>2026-04-25T08:33:23.737Z</time></trkpt><trkpt lat="39.479503850201134" lon="16.443398766320254"><ele>1026.75</ele><time>2026-04-25T08:33:24.737Z</time></trkpt><trkpt lat="39.479376188857835" lon="16.44340100692439"><ele>1023.0</ele><time>2026-04-25T08:33:25.737Z</time></trkpt><trkpt lat="39.479244687082044" lon="16.443434760018885"><ele>1028.0</ele><time>2026-04-25T08:33:26.737Z</time></trkpt><trkpt lat="39.47912661232242" lon="16.44355174148135"><ele>1033.0</ele><time>2026-04-25T08:33:27.736Z</time></trkpt><trkpt lat="39.47901072345575" lon="16.44371439385504"><ele>1038.0</ele><time>2026-04-25T08:33:28.736Z</time></trkpt><trkpt lat="39.47892189450469" lon="16.443913404868447"><ele>1038.0</ele><time>2026-04-25T08:33:29.736Z</time></trkpt><trkpt lat="39.47887634436789" lon="16.444088196085495"><ele>1038.0</ele><time>2026-04-25T08:33:30.736Z</time></trkpt><trkpt lat="39.47880200781182" lon="16.444229669293577"><ele>1038.0</ele><time>2026-04-25T08:33:31.737Z</time></trkpt><trkpt lat="39.47867958071419" lon="16.44435727354685"><ele>1038.0</ele><time>2026-04-25T08:33:32.737Z</time></trkpt><trkpt lat="39.478529643245004" lon="16.444427986800576"><ele>1045.0</ele><time>2026-04-25T08:33:33.737Z</time></trkpt><trkpt lat="39.47838948550988" lon="16.44447180852074"><ele>1052.0</ele><time>2026-04-25T08:33:34.737Z</time></trkpt><trkpt lat="39.47823915529111" lon="16.444464304738812"><ele>1059.0</ele><time>2026-04-25T08:33:35.737Z</time></trkpt><trkpt lat="39.478104078990164" lon="16.44443514211961"><ele>1066.0</ele><time>2026-04-25T08:33:36.737Z</time></trkpt><trkpt lat="39.47799006886849" lon="16.444422892259695"><ele>1064.0</ele><time>2026-04-25T08:33:37.737Z</time></trkpt><trkpt lat="39.47788800462859" lon="16.4444049188919"><ele>1062.0</ele><time>2026-04-25T08:33:38.737Z</time></trkpt><trkpt lat="39.47779274996944" lon="16.444438079424913"><ele>1060.0</ele><time>2026-04-25T08:33:39.737Z</time></trkpt><trkpt lat="39.47770498888057" lon="16.444535000043405"><ele>1058.0</ele><time>2026-04-25T08:33:40.737Z</time></trkpt><trkpt lat="39.477637430230416" lon="16.444683683957372"><ele>1058.0</ele><time>2026-04-25T08:33:41.737Z</time></trkpt><trkpt lat="39.47757075243851" lon="16.444855312663016"><ele>1058.0</ele><time>2026-04-25T08:33:42.737Z</time></trkpt><trkpt lat="39.47751572576997" lon="16.445013615872593"><ele>1058.0</ele><time>2026-04-25T08:33:43.737Z</time></trkpt><trkpt lat="39.4774412994002" lon="16.44510531887467"><ele>1058.0</ele><time>2026-04-25T08:33:44.737Z</time></trkpt><trkpt lat="39.47736795591711" lon="16.445181045331708"><ele>1058.0</ele><time>2026-04-25T08:33:45.737Z</time></trkpt><trkpt lat="39.47727162212455" lon="16.445245385967493"><ele>1058.0</ele><time>2026-04-25T08:33:46.737Z</time></trkpt><trkpt lat="39.47716597356554" lon="16.44530303169239"><ele>1058.0</ele><time>2026-04-25T08:33:47.737Z</time></trkpt><trkpt lat="39.47705070946363" lon="16.445342482663193"><ele>1058.0</ele><time>2026-04-25T08:33:48.737Z</time></trkpt><trkpt lat="39.47694595247483" lon="16.445342101153074"><ele>1058.0</ele><time>2026-04-25T08:33:49.737Z</time></trkpt><trkpt lat="39.476844004508315" lon="16.44533446832399"><ele>1056.25</ele><time>2026-04-25T08:33:50.737Z</time></trkpt><trkpt lat="39.47672711841211" lon="16.445379816510755"><ele>1054.5</ele><time>2026-04-25T08:33:51.737Z</time></trkpt><trkpt lat="39.47659543215351" lon="16.44542818249589"><ele>1052.75</ele><time>2026-04-25T08:33:52.737Z</time></trkpt><trkpt lat="39.476461260817416" lon="16.44550202544533"><ele>1051.0</ele><time>2026-04-25T08:33:53.737Z</time></trkpt><trkpt lat="39.4763185879954" lon="16.44556155423868"><ele>1055.0</ele><time>2026-04-25T08:33:54.737Z</time></trkpt><trkpt lat="39.47615859676288" lon="16.4455479748938"><ele>1059.0</ele><time>2026-04-25T08:33:55.737Z</time></trkpt><trkpt lat="39.47601846197981" lon="16.445545245769907"><ele>1063.0</ele><time>2026-04-25T08:33:56.737Z</time></trkpt><trkpt lat="39.47590640565519" lon="16.44552686754127"><ele>1067.0</ele><time>2026-04-25T08:33:57.737Z</time></trkpt><trkpt lat="39.47579890354855" lon="16.44552846824517"><ele>1067.0</ele><time>2026-04-25T08:33:58.737Z</time></trkpt><trkpt lat="39.47570280531149" lon="16.445543472446346"><ele>1067.0</ele><time>2026-04-25T08:33:59.737Z</time></trkpt><trkpt lat="39.475614180384134" lon="16.445590397331117"><ele>1067.0</ele><time>2026-04-25T08:34:00.737Z</time></trkpt><trkpt lat="39.475527279162804" lon="16.445697038223113"><ele>1067.0</ele><time>2026-04-25T08:34:01.737Z</time></trkpt><trkpt lat="39.47544240891194" lon="16.445825528749484"><ele>1067.0</ele><time>2026-04-25T08:34:02.737Z</time></trkpt><trkpt lat="39.475361527295" lon="16.44595181551808"><ele>1070.25</ele><time>2026-04-25T08:34:03.737Z</time></trkpt><trkpt lat="39.475290475277326" lon="16.446075231060448"><ele>1073.5</ele><time>2026-04-25T08:34:04.737Z</time></trkpt><trkpt lat="39.47523856854034" lon="16.44620844186517"><ele>1076.75</ele><time>2026-04-25T08:34:05.737Z</time></trkpt><trkpt lat="39.47518324041005" lon="16.44635182451436"><ele>1080.0</ele><time>2026-04-25T08:34:06.737Z</time></trkpt><trkpt lat="39.47511221528384" lon="16.44649540510747"><ele>1080.0</ele><time>2026-04-25T08:34:07.737Z</time></trkpt><trkpt lat="39.47502330694287" lon="16.44660844417715"><ele>1080.0</ele><time>2026-04-25T08:34:08.737Z</time></trkpt><trkpt lat="39.474929942653695" lon="16.44667926096837"><ele>1080.0</ele><time>2026-04-25T08:34:09.737Z</time></trkpt><trkpt lat="39.4748314239049" lon="16.44673451963829"><ele>1080.0</ele><time>2026-04-25T08:34:10.737Z</time></trkpt><trkpt lat="39.474726067065774" lon="16.44674330102806"><ele>1080.0</ele><time>2026-04-25T08:34:11.737Z</time></trkpt><trkpt lat="39.474643111063415" lon="16.44669439960919"><ele>1084.0</ele><time>2026-04-25T08:34:12.737Z</time></trkpt><trkpt lat="39.474570797583205" lon="16.446624337975305"><ele>1088.0</ele><time>2026-04-25T08:34:13.737Z</time></trkpt><trkpt lat="39.4744779832313" lon="16.446553866559775"><ele>1092.0</ele><time>2026-04-25T08:34:14.737Z</time></trkpt><trkpt lat="39.47435611268379" lon="16.446420367744516"><ele>1096.0</ele><time>2026-04-25T08:34:15.737Z</time></trkpt><trkpt lat="39.474213278730176" lon="16.446290752639968"><ele>1097.25</ele><time>2026-04-25T08:34:16.737Z</time></trkpt><trkpt lat="39.47410956524237" lon="16.44620338592998"><ele>1098.5</ele><time>2026-04-25T08:34:17.737Z</time></trkpt><trkpt lat="39.474006611060375" lon="16.446127036694573"><ele>1099.75</ele><time>2026-04-25T08:34:18.737Z</time></trkpt><trkpt lat="39.47389730329104" lon="16.446096147240596"><ele>1101.0</ele><time>2026-04-25T08:34:19.737Z</time></trkpt><trkpt lat="39.473802401360025" lon="16.446080729323114"><ele>1100.25</ele><time>2026-04-25T08:34:20.737Z</time></trkpt><trkpt lat="39.47370736234402" lon="16.446100485739667"><ele>1099.5</ele><time>2026-04-25T08:34:21.737Z</time></trkpt><trkpt lat="39.473606966070555" lon="16.446168094796832"><ele>1098.75</ele><time>2026-04-25T08:34:22.737Z</time></trkpt><trkpt lat="39.473511539398444" lon="16.446287155575792"><ele>1098.0</ele><time>2026-04-25T08:34:23.737Z</time></trkpt><trkpt lat="39.47338974484466" lon="16.44644154062236"><ele>1098.0</ele><time>2026-04-25T08:34:24.737Z</time></trkpt><trkpt lat="39.47326647596693" lon="16.44662796208346"><ele>1098.0</ele><time>2026-04-25T08:34:25.737Z</time></trkpt><trkpt lat="39.47314207266936" lon="16.446839793942633"><ele>1098.0</ele><time>2026-04-25T08:34:26.737Z</time></trkpt><trkpt lat="39.47299287656784" lon="16.447041473223273"><ele>1098.3333333333333</ele><time>2026-04-25T08:34:27.737Z</time></trkpt><trkpt lat="39.4728482244743" lon="16.44725753704732"><ele>1098.6666666666665</ele><time>2026-04-25T08:34:28.737Z</time></trkpt><trkpt lat="39.472706420392065" lon="16.44748232786066"><ele>1099.0</ele><time>2026-04-25T08:34:29.737Z</time></trkpt><trkpt lat="39.47256651075144" lon="16.44771091017698"><ele>1099.0</ele><time>2026-04-25T08:34:30.737Z</time></trkpt><trkpt lat="39.47242776680257" lon="16.447894323630393"><ele>1099.0</ele><time>2026-04-25T08:34:31.737Z</time></trkpt><trkpt lat="39.47231157031939" lon="16.4480761525887"><ele>1099.0</ele><time>2026-04-25T08:34:32.737Z</time></trkpt><trkpt lat="39.47221407094919" lon="16.448255138288413"><ele>1099.0</ele><time>2026-04-25T08:34:33.737Z</time></trkpt><trkpt lat="39.472102798727384" lon="16.44838222795519"><ele>1099.0</ele><time>2026-04-25T08:34:34.737Z</time></trkpt><trkpt lat="39.47199365941208" lon="16.44840910378221"><ele>1099.0</ele><time>2026-04-25T08:34:35.737Z</time></trkpt><trkpt lat="39.47190184829906" lon="16.448373157480873"><ele>1099.0</ele><time>2026-04-25T08:34:36.737Z</time></trkpt><trkpt lat="39.471826995204445" lon="16.44831467702662"><ele>1099.0</ele><time>2026-04-25T08:34:37.737Z</time></trkpt><trkpt lat="39.47174823675476" lon="16.44822615419434"><ele>1099.0</ele><time>2026-04-25T08:34:38.737Z</time></trkpt><trkpt lat="39.47168463835981" lon="16.448094940383033"><ele>1099.0</ele><time>2026-04-25T08:34:39.737Z</time></trkpt><trkpt lat="39.471621914010576" lon="16.447936832476614"><ele>1099.0</ele><time>2026-04-25T08:34:40.737Z</time></trkpt><trkpt lat="39.47157604669084" lon="16.447792634672112"><ele>1099.0</ele><time>2026-04-25T08:34:41.737Z</time></trkpt><trkpt lat="39.47150303263805" lon="16.44766492453707"><ele>1097.75</ele><time>2026-04-25T08:34:42.737Z</time></trkpt><trkpt lat="39.471370814006804" lon="16.447589401928727"><ele>1096.5</ele><time>2026-04-25T08:34:43.737Z</time></trkpt><trkpt lat="39.47124443620985" lon="16.44754813528824"><ele>1095.25</ele><time>2026-04-25T08:34:44.737Z</time></trkpt><trkpt lat="39.47114634203958" lon="16.447601795462024"><ele>1094.0</ele><time>2026-04-25T08:34:45.737Z</time></trkpt><trkpt lat="39.47108919985168" lon="16.44767986987058"><ele>1094.0</ele><time>2026-04-25T08:34:46.737Z</time></trkpt><trkpt lat="39.47107041134322" lon="16.447805819357725"><ele>1094.0</ele><time>2026-04-25T08:34:47.737Z</time></trkpt><trkpt lat="39.47108417555529" lon="16.447960312235473"><ele>1094.0</ele><time>2026-04-25T08:34:48.737Z</time></trkpt><trkpt lat="39.47107952603241" lon="16.44813618478783"><ele>1094.0</ele><time>2026-04-25T08:34:49.737Z</time></trkpt><trkpt lat="39.47100520934939" lon="16.44827929308292"><ele>1097.3333333333335</ele><time>2026-04-25T08:34:50.737Z</time></trkpt><trkpt lat="39.47086852064973" lon="16.44839287568997"><ele>1100.6666666666667</ele><time>2026-04-25T08:34:51.737Z</time></trkpt><trkpt lat="39.47072195271329" lon="16.448516582132868"><ele>1104.0</ele><time>2026-04-25T08:34:52.737Z</time></trkpt><trkpt lat="39.47057733231885" lon="16.44860961841952"><ele>1104.0</ele><time>2026-04-25T08:34:53.737Z</time></trkpt><trkpt lat="39.470443264434714" lon="16.448663750350335"><ele>1104.0</ele><time>2026-04-25T08:34:54.737Z</time></trkpt><trkpt lat="39.470278628149046" lon="16.448708898351406"><ele>1104.0</ele><time>2026-04-25T08:34:55.737Z</time></trkpt><trkpt lat="39.470119382250985" lon="16.448745922125088"><ele>1104.0</ele><time>2026-04-25T08:34:56.737Z</time></trkpt><trkpt lat="39.46998824062893" lon="16.448778062837146"><ele>1104.0</ele><time>2026-04-25T08:34:57.737Z</time></trkpt><trkpt lat="39.46986997268763" lon="16.44880680418937"><ele>1104.0</ele><time>2026-04-25T08:34:58.737Z</time></trkpt><trkpt lat="39.46977364709471" lon="16.44880920106502"><ele>1104.0</ele><time>2026-04-25T08:34:59.737Z</time></trkpt><trkpt lat="39.46969138633637" lon="16.448751337081145"><ele>1104.0</ele><time>2026-04-25T08:35:00.736Z</time></trkpt><trkpt lat="39.46963352238213" lon="16.448619555295295"><ele>1111.6666666666667</ele><time>2026-04-25T08:35:01.736Z</time></trkpt><trkpt lat="39.4695843869159" lon="16.44844788574129"><ele>1119.3333333333335</ele><time>2026-04-25T08:35:02.736Z</time></trkpt><trkpt lat="39.469503259431384" lon="16.44827729781647"><ele>1127.0</ele><time>2026-04-25T08:35:03.736Z</time></trkpt><trkpt lat="39.469390615555945" lon="16.44810740901236"><ele>1127.0</ele><time>2026-04-25T08:35:04.736Z</time></trkpt><trkpt lat="39.469300137908874" lon="16.44797125603549"><ele>1127.0</ele><time>2026-04-25T08:35:05.736Z</time></trkpt><trkpt lat="39.46923693001542" lon="16.44783376567366"><ele>1127.0</ele><time>2026-04-25T08:35:06.736Z</time></trkpt><trkpt lat="39.46918952918478" lon="16.447700185854465"><ele>1127.0</ele><time>2026-04-25T08:35:07.736Z</time></trkpt><trkpt lat="39.46912082874616" lon="16.447615471167495"><ele>1125.0</ele><time>2026-04-25T08:35:08.736Z</time></trkpt><trkpt lat="39.469022014715705" lon="16.44755325970103"><ele>1123.0</ele><time>2026-04-25T08:35:09.736Z</time></trkpt><trkpt lat="39.46889660424489" lon="16.447611770270548"><ele>1121.0</ele><time>2026-04-25T08:35:10.736Z</time></trkpt><trkpt lat="39.46879335110125" lon="16.447707761738393"><ele>1119.0</ele><time>2026-04-25T08:35:11.736Z</time></trkpt><trkpt lat="39.46869507818043" lon="16.44785511521664"><ele>1121.25</ele><time>2026-04-25T08:35:12.736Z</time></trkpt><trkpt lat="39.46857712561332" lon="16.44799619500044"><ele>1123.5</ele><time>2026-04-25T08:35:13.736Z</time></trkpt><trkpt lat="39.46845418127791" lon="16.448118076848893"><ele>1125.75</ele><time>2026-04-25T08:35:14.736Z</time></trkpt><trkpt lat="39.46837352872233" lon="16.448245609375537"><ele>1128.0</ele><time>2026-04-25T08:35:15.736Z</time></trkpt><trkpt lat="39.46832860318485" lon="16.448390714342274"><ele>1128.0</ele><time>2026-04-25T08:35:16.736Z</time></trkpt><trkpt lat="39.46833435095094" lon="16.448541832940965"><ele>1128.0</ele><time>2026-04-25T08:35:17.736Z</time></trkpt><trkpt lat="39.468396314020744" lon="16.448683444761166"><ele>1128.0</ele><time>2026-04-25T08:35:18.736Z</time></trkpt><trkpt lat="39.46849388333616" lon="16.448821748912035"><ele>1128.0</ele><time>2026-04-25T08:35:19.736Z</time></trkpt><trkpt lat="39.46860456840462" lon="16.44899616812917"><ele>1130.0</ele><time>2026-04-25T08:35:20.736Z</time></trkpt><trkpt lat="39.46869523740512" lon="16.44916876155303"><ele>1132.0</ele><time>2026-04-25T08:35:21.736Z</time></trkpt><trkpt lat="39.46873909107435" lon="16.449327760161353"><ele>1134.0</ele><time>2026-04-25T08:35:22.736Z</time></trkpt><trkpt lat="39.46873887706554" lon="16.44950320195907"><ele>1136.0</ele><time>2026-04-25T08:35:23.736Z</time></trkpt><trkpt lat="39.46869485567842" lon="16.449708111344616"><ele>1137.3333333333335</ele><time>2026-04-25T08:35:24.736Z</time></trkpt><trkpt lat="39.4686219830368" lon="16.449925027485104"><ele>1138.6666666666667</ele><time>2026-04-25T08:35:25.736Z</time></trkpt><trkpt lat="39.46853914655131" lon="16.45015180839074"><ele>1140.0</ele><time>2026-04-25T08:35:26.736Z</time></trkpt><trkpt lat="39.468464480211225" lon="16.450367269045508"><ele>1141.0</ele><time>2026-04-25T08:35:27.736Z</time></trkpt><trkpt lat="39.468401568847504" lon="16.450569035723074"><ele>1142.0</ele><time>2026-04-25T08:35:28.736Z</time></trkpt><trkpt lat="39.46835444607933" lon="16.450784782690754"><ele>1143.0</ele><time>2026-04-25T08:35:29.736Z</time></trkpt><trkpt lat="39.46834268491619" lon="16.451015337549414"><ele>1143.0</ele><time>2026-04-25T08:35:30.736Z</time></trkpt><trkpt lat="39.46836172327517" lon="16.451259261117368"><ele>1143.0</ele><time>2026-04-25T08:35:31.736Z</time></trkpt><trkpt lat="39.468380721114464" lon="16.45149962707841"><ele>1143.0</ele><time>2026-04-25T08:35:32.736Z</time></trkpt><trkpt lat="39.468391027037995" lon="16.451706675753503"><ele>1143.0</ele><time>2026-04-25T08:35:33.736Z</time></trkpt><trkpt lat="39.4684023029973" lon="16.451879506640314"><ele>1143.0</ele><time>2026-04-25T08:35:34.736Z</time></trkpt><trkpt lat="39.46840563691146" lon="16.452022031183866"><ele>1143.0</ele><time>2026-04-25T08:35:35.736Z</time></trkpt><trkpt lat="39.468379599636194" lon="16.452145677463996"><ele>1143.0</ele><time>2026-04-25T08:35:36.736Z</time></trkpt><trkpt lat="39.46830088478197" lon="16.452226525103562"><ele>1143.0</ele><time>2026-04-25T08:35:37.737Z</time></trkpt><trkpt lat="39.46818601135972" lon="16.452278996338777"><ele>1142.25</ele><time>2026-04-25T08:35:38.737Z</time></trkpt><trkpt lat="39.4680555146342" lon="16.45232943264989"><ele>1141.5</ele><time>2026-04-25T08:35:39.737Z</time></trkpt><trkpt lat="39.46796793452149" lon="16.452432302310886"><ele>1140.75</ele><time>2026-04-25T08:35:40.737Z</time></trkpt><trkpt lat="39.467903269786504" lon="16.452590303815338"><ele>1140.0</ele><time>2026-04-25T08:35:41.737Z</time></trkpt><trkpt lat="39.4678788826666" lon="16.452782563753917"><ele>1141.25</ele><time>2026-04-25T08:35:42.737Z</time></trkpt><trkpt lat="39.467894052388786" lon="16.452963168510365"><ele>1142.5</ele><time>2026-04-25T08:35:43.737Z</time></trkpt><trkpt lat="39.46789754085139" lon="16.453117075564407"><ele>1143.75</ele><time>2026-04-25T08:35:44.737Z</time></trkpt><trkpt lat="39.46786065170829" lon="16.453255072650492"><ele>1145.0</ele><time>2026-04-25T08:35:45.737Z</time></trkpt><trkpt lat="39.46777816760577" lon="16.45335866638265"><ele>1145.0</ele><time>2026-04-25T08:35:46.737Z</time></trkpt><trkpt lat="39.46766458063591" lon="16.453403356431764"><ele>1145.0</ele><time>2026-04-25T08:35:47.737Z</time></trkpt><trkpt lat="39.46754302861811" lon="16.453366194107286"><ele>1145.0</ele><time>2026-04-25T08:35:48.737Z</time></trkpt><trkpt lat="39.4674066365857" lon="16.45329355501068"><ele>1145.0</ele><time>2026-04-25T08:35:49.737Z</time></trkpt><trkpt lat="39.46725985428778" lon="16.453217542296173"><ele>1145.0</ele><time>2026-04-25T08:35:50.737Z</time></trkpt><trkpt lat="39.46714709664244" lon="16.453150122842494"><ele>1145.0</ele><time>2026-04-25T08:35:51.737Z</time></trkpt><trkpt lat="39.46705377387147" lon="16.453132920817623"><ele>1145.0</ele><time>2026-04-25T08:35:52.737Z</time></trkpt><trkpt lat="39.46696598067057" lon="16.45314318059917"><ele>1145.0</ele><time>2026-04-25T08:35:53.737Z</time></trkpt><trkpt lat="39.46688562247615" lon="16.453267341460382"><ele>1145.0</ele><time>2026-04-25T08:35:54.737Z</time></trkpt><trkpt lat="39.46679819374787" lon="16.453392657318368"><ele>1145.5</ele><time>2026-04-25T08:35:55.737Z</time></trkpt><trkpt lat="39.46670998037533" lon="16.45350995260802"><ele>1146.0</ele><time>2026-04-25T08:35:56.737Z</time></trkpt><trkpt lat="39.466607363095484" lon="16.45358834343527"><ele>1146.5</ele><time>2026-04-25T08:35:57.737Z</time></trkpt><trkpt lat="39.46648648341909" lon="16.45358748357183"><ele>1147.0</ele><time>2026-04-25T08:35:58.737Z</time></trkpt><trkpt lat="39.46637162622784" lon="16.453586274338388"><ele>1146.6</ele><time>2026-04-25T08:35:59.737Z</time></trkpt><trkpt lat="39.4662663274339" lon="16.453584205866527"><ele>1146.2</ele><time>2026-04-25T08:36:00.737Z</time></trkpt><trkpt lat="39.46616379228662" lon="16.45359164418869"><ele>1145.8</ele><time>2026-04-25T08:36:01.737Z</time></trkpt><trkpt lat="39.46605749841167" lon="16.453605018046886"><ele>1145.4</ele><time>2026-04-25T08:36:02.737Z</time></trkpt><trkpt lat="39.46595707994268" lon="16.45367817944442"><ele>1145.0</ele><time>2026-04-25T08:36:03.737Z</time></trkpt><trkpt lat="39.46587121413532" lon="16.453817101858522"><ele>1145.0</ele><time>2026-04-25T08:36:04.737Z</time></trkpt><trkpt lat="39.46577189418862" lon="16.453934501934533"><ele>1145.0</ele><time>2026-04-25T08:36:05.737Z</time></trkpt><trkpt lat="39.465696394399835" lon="16.454054641766533"><ele>1145.0</ele><time>2026-04-25T08:36:06.737Z</time></trkpt><trkpt lat="39.46559166298176" lon="16.45412448991417"><ele>1145.0</ele><time>2026-04-25T08:36:07.737Z</time></trkpt><trkpt lat="39.46547916686521" lon="16.45415168152814"><ele>1144.5</ele><time>2026-04-25T08:36:08.737Z</time></trkpt><trkpt lat="39.465374143903425" lon="16.45419577481391"><ele>1144.0</ele><time>2026-04-25T08:36:09.737Z</time></trkpt><trkpt lat="39.4652921704752" lon="16.454305588112298"><ele>1143.5</ele><time>2026-04-25T08:36:10.737Z</time></trkpt><trkpt lat="39.46524661835768" lon="16.454477560429005"><ele>1143.0</ele><time>2026-04-25T08:36:11.737Z</time></trkpt><trkpt lat="39.46522658523943" lon="16.454672854263325"><ele>1143.0</ele><time>2026-04-25T08:36:12.737Z</time></trkpt><trkpt lat="39.465233013045925" lon="16.454876377419495"><ele>1143.0</ele><time>2026-04-25T08:36:13.737Z</time></trkpt><trkpt lat="39.4652607113761" lon="16.45504711291758"><ele>1143.0</ele><time>2026-04-25T08:36:14.737Z</time></trkpt><trkpt lat="39.465294066009236" lon="16.455209869419612"><ele>1143.0</ele><time>2026-04-25T08:36:15.737Z</time></trkpt><trkpt lat="39.4653164556534" lon="16.45536828756027"><ele>1142.75</ele><time>2026-04-25T08:36:16.737Z</time></trkpt><trkpt lat="39.46531672513296" lon="16.45554125299153"><ele>1142.5</ele><time>2026-04-25T08:36:17.737Z</time></trkpt><trkpt lat="39.4652879475846" lon="16.45572969567621"><ele>1142.25</ele><time>2026-04-25T08:36:18.737Z</time></trkpt><trkpt lat="39.46523297336154" lon="16.455919882694783"><ele>1142.0</ele><time>2026-04-25T08:36:19.737Z</time></trkpt><trkpt lat="39.46516144266222" lon="16.456079432692924"><ele>1142.0</ele><time>2026-04-25T08:36:20.737Z</time></trkpt><trkpt lat="39.465074309512175" lon="16.456200416647675"><ele>1142.0</ele><time>2026-04-25T08:36:21.737Z</time></trkpt><trkpt lat="39.46496809308362" lon="16.45628725862337"><ele>1142.0</ele><time>2026-04-25T08:36:22.737Z</time></trkpt><trkpt lat="39.46483611251118" lon="16.456333418775014"><ele>1142.0</ele><time>2026-04-25T08:36:23.737Z</time></trkpt><trkpt lat="39.464692181395925" lon="16.45633095188684"><ele>1140.6666666666667</ele><time>2026-04-25T08:36:24.737Z</time></trkpt><trkpt lat="39.4645383712374" lon="16.456283804491886"><ele>1139.3333333333333</ele><time>2026-04-25T08:36:25.737Z</time></trkpt><trkpt lat="39.464379004567434" lon="16.45621865700588"><ele>1138.0</ele><time>2026-04-25T08:36:26.737Z</time></trkpt><trkpt lat="39.4642040153248" lon="16.4561516051079"><ele>1138.0</ele><time>2026-04-25T08:36:27.737Z</time></trkpt><trkpt lat="39.46403692544889" lon="16.456090807563243"><ele>1138.0</ele><time>2026-04-25T08:36:28.737Z</time></trkpt><trkpt lat="39.46387753547592" lon="16.456032167051056"><ele>1138.0</ele><time>2026-04-25T08:36:29.737Z</time></trkpt><trkpt lat="39.46373261057659" lon="16.455985101858303"><ele>1137.5</ele><time>2026-04-25T08:36:30.737Z</time></trkpt><trkpt lat="39.463598882249904" lon="16.455968390198123"><ele>1137.0</ele><time>2026-04-25T08:36:31.737Z</time></trkpt><trkpt lat="39.46348601596753" lon="16.4560151234817"><ele>1136.5</ele><time>2026-04-25T08:36:32.737Z</time></trkpt><trkpt lat="39.463392019006" lon="16.456109908601686"><ele>1136.0</ele><time>2026-04-25T08:36:33.736Z</time></trkpt><trkpt lat="39.46332115856002" lon="16.45626513601535"><ele>1134.6666666666667</ele><time>2026-04-25T08:36:34.736Z</time></trkpt><trkpt lat="39.463285449196476" lon="16.45645207286045"><ele>1133.3333333333333</ele><time>2026-04-25T08:36:35.736Z</time></trkpt><trkpt lat="39.46330352428677" lon="16.45665960531221"><ele>1132.0</ele><time>2026-04-25T08:36:36.736Z</time></trkpt><trkpt lat="39.46334970745767" lon="16.45686619820647"><ele>1132.0</ele><time>2026-04-25T08:36:37.736Z</time></trkpt><trkpt lat="39.46339434060179" lon="16.4570373940903"><ele>1132.0</ele><time>2026-04-25T08:36:38.736Z</time></trkpt><trkpt lat="39.46340967172659" lon="16.45720192262021"><ele>1132.0</ele><time>2026-04-25T08:36:39.736Z</time></trkpt><trkpt lat="39.46337806548006" lon="16.45735678891159"><ele>1132.0</ele><time>2026-04-25T08:36:40.736Z</time></trkpt><trkpt lat="39.463294132800506" lon="16.45749163385698"><ele>1130.6666666666665</ele><time>2026-04-25T08:36:41.736Z</time></trkpt><trkpt lat="39.463167907470016" lon="16.4576059268825"><ele>1129.3333333333333</ele><time>2026-04-25T08:36:42.736Z</time></trkpt><trkpt lat="39.46301448406078" lon="16.457696095064737"><ele>1128.0</ele><time>2026-04-25T08:36:43.736Z</time></trkpt><trkpt lat="39.462837068177755" lon="16.457723789604803"><ele>1127.0</ele><time>2026-04-25T08:36:44.736Z</time></trkpt><trkpt lat="39.46266678920746" lon="16.45775028907173"><ele>1126.0</ele><time>2026-04-25T08:36:45.736Z</time></trkpt><trkpt lat="39.46251916608805" lon="16.45776428729774"><ele>1125.0</ele><time>2026-04-25T08:36:46.736Z</time></trkpt><trkpt lat="39.462373929963064" lon="16.457774176808222"><ele>1125.0</ele><time>2026-04-25T08:36:47.736Z</time></trkpt><trkpt lat="39.46223953710466" lon="16.45774780230998"><ele>1125.0</ele><time>2026-04-25T08:36:48.736Z</time></trkpt><trkpt lat="39.4621289813764" lon="16.457658036143147"><ele>1125.0</ele><time>2026-04-25T08:36:49.736Z</time></trkpt><trkpt lat="39.46202952778306" lon="16.457523344888838"><ele>1125.0</ele><time>2026-04-25T08:36:50.736Z</time></trkpt><trkpt lat="39.461941641930615" lon="16.457395564997654"><ele>1124.0</ele><time>2026-04-25T08:36:51.736Z</time></trkpt><trkpt lat="39.46184536636897" lon="16.457309614424716"><ele>1123.0</ele><time>2026-04-25T08:36:52.736Z</time></trkpt><trkpt lat="39.4617326857008" lon="16.457274460178784"><ele>1122.0</ele><time>2026-04-25T08:36:53.736Z</time></trkpt><trkpt lat="39.461609810730536" lon="16.457295889986806"><ele>1121.0</ele><time>2026-04-25T08:36:54.736Z</time></trkpt><trkpt lat="39.461482401082655" lon="16.457400892663824"><ele>1121.0</ele><time>2026-04-25T08:36:55.736Z</time></trkpt><trkpt lat="39.46140340865656" lon="16.45759140730377"><ele>1121.0</ele><time>2026-04-25T08:36:56.736Z</time></trkpt><trkpt lat="39.46131430189735" lon="16.45768892324888"><ele>1121.0</ele><time>2026-04-25T08:36:57.736Z</time></trkpt><trkpt lat="39.461256760437024" lon="16.45793821970715"><ele>1122.0</ele><time>2026-04-25T08:36:58.736Z</time></trkpt><trkpt lat="39.46118248567976" lon="16.458202797987443"><ele>1123.0</ele><time>2026-04-25T08:36:59.736Z</time></trkpt><trkpt lat="39.46109822961504" lon="16.458444342337625"><ele>1124.0</ele><time>2026-04-25T08:37:00.736Z</time></trkpt><trkpt lat="39.46102077664361" lon="16.4586610494791"><ele>1120.6666666666667</ele><time>2026-04-25T08:37:01.736Z</time></trkpt><trkpt lat="39.46094037392716" lon="16.458854157029577"><ele>1117.3333333333333</ele><time>2026-04-25T08:37:02.736Z</time></trkpt><trkpt lat="39.46082343297308" lon="16.459042365821983"><ele>1114.0</ele><time>2026-04-25T08:37:03.736Z</time></trkpt><trkpt lat="39.460681383216574" lon="16.459236734447423"><ele>1114.0</ele><time>2026-04-25T08:37:04.736Z</time></trkpt><trkpt lat="39.460526710325205" lon="16.459440647967522"><ele>1114.0</ele><time>2026-04-25T08:37:05.736Z</time></trkpt><trkpt lat="39.460369660849466" lon="16.459672479142455"><ele>1112.6666666666665</ele><time>2026-04-25T08:37:06.736Z</time></trkpt><trkpt lat="39.460200824344064" lon="16.459883825971385"><ele>1111.3333333333333</ele><time>2026-04-25T08:37:07.736Z</time></trkpt><trkpt lat="39.460052262070505" lon="16.460077471657705"><ele>1110.0</ele><time>2026-04-25T08:37:08.736Z</time></trkpt><trkpt lat="39.45991293587851" lon="16.46026740256717"><ele>1110.0</ele><time>2026-04-25T08:37:09.736Z</time></trkpt><trkpt lat="39.45977451209056" lon="16.460444629023495"><ele>1110.0</ele><time>2026-04-25T08:37:10.736Z</time></trkpt><trkpt lat="39.45963140060347" lon="16.46060937931839"><ele>1110.0</ele><time>2026-04-25T08:37:11.736Z</time></trkpt><trkpt lat="39.459498357396484" lon="16.460766860932903"><ele>1109.6666666666667</ele><time>2026-04-25T08:37:12.736Z</time></trkpt><trkpt lat="39.45936317098719" lon="16.460944290715958"><ele>1109.3333333333335</ele><time>2026-04-25T08:37:13.736Z</time></trkpt><trkpt lat="39.45922315211143" lon="16.461134726514068"><ele>1109.0</ele><time>2026-04-25T08:37:14.736Z</time></trkpt><trkpt lat="39.459075749000405" lon="16.461315478035704"><ele>1109.0</ele><time>2026-04-25T08:37:15.736Z</time></trkpt><trkpt lat="39.45890583370569" lon="16.461407540143206"><ele>1109.0</ele><time>2026-04-25T08:37:16.736Z</time></trkpt><trkpt lat="39.45874277779563" lon="16.461466416417494"><ele>1109.0</ele><time>2026-04-25T08:37:17.736Z</time></trkpt><trkpt lat="39.458561405096205" lon="16.461503065063287"><ele>1108.3333333333335</ele><time>2026-04-25T08:37:18.736Z</time></trkpt><trkpt lat="39.45836439161095" lon="16.461525932925163"><ele>1107.6666666666667</ele><time>2026-04-25T08:37:19.736Z</time></trkpt><trkpt lat="39.45816711719352" lon="16.46156222093876"><ele>1107.0</ele><time>2026-04-25T08:37:20.736Z</time></trkpt><trkpt lat="39.45798164764424" lon="16.46156877678439"><ele>1107.3333333333333</ele><time>2026-04-25T08:37:21.736Z</time></trkpt><trkpt lat="39.45781137055925" lon="16.461589305848957"><ele>1107.6666666666665</ele><time>2026-04-25T08:37:22.736Z</time></trkpt><trkpt lat="39.45765988745177" lon="16.461634146809025"><ele>1108.0</ele><time>2026-04-25T08:37:23.736Z</time></trkpt><trkpt lat="39.45753783979634" lon="16.461736800295082"><ele>1108.0</ele><time>2026-04-25T08:37:24.736Z</time></trkpt><trkpt lat="39.45743488281131" lon="16.46190681317308"><ele>1108.0</ele><time>2026-04-25T08:37:25.736Z</time></trkpt><trkpt lat="39.457352349438416" lon="16.462175048749813"><ele>1108.0</ele><time>2026-04-25T08:37:26.736Z</time></trkpt><trkpt lat="39.45725686855264" lon="16.462438824446796"><ele>1109.0</ele><time>2026-04-25T08:37:27.736Z</time></trkpt><trkpt lat="39.45716576560273" lon="16.462674195931726"><ele>1110.0</ele><time>2026-04-25T08:37:28.736Z</time></trkpt><trkpt lat="39.457074763775196" lon="16.462881383702776"><ele>1111.0</ele><time>2026-04-25T08:37:29.736Z</time></trkpt><trkpt lat="39.456983520549116" lon="16.463089969066424"><ele>1111.0</ele><time>2026-04-25T08:37:30.736Z</time></trkpt><trkpt lat="39.4568947555591" lon="16.463295914742798"><ele>1111.0</ele><time>2026-04-25T08:37:31.736Z</time></trkpt><trkpt lat="39.45680943516014" lon="16.46349880145925"><ele>1111.0</ele><time>2026-04-25T08:37:32.736Z</time></trkpt><trkpt lat="39.45672804414349" lon="16.463691855310405"><ele>1110.0</ele><time>2026-04-25T08:37:33.736Z</time></trkpt><trkpt lat="39.45665129861581" lon="16.46387464054509"><ele>1109.0</ele><time>2026-04-25T08:37:34.736Z</time></trkpt><trkpt lat="39.45658089499093" lon="16.464050110567676"><ele>1108.0</ele><time>2026-04-25T08:37:35.736Z</time></trkpt><trkpt lat="39.45651005687374" lon="16.464213153497294"><ele>1108.0</ele><time>2026-04-25T08:37:36.736Z</time></trkpt><trkpt lat="39.45643546499118" lon="16.464371779877894"><ele>1108.0</ele><time>2026-04-25T08:37:37.736Z</time></trkpt><trkpt lat="39.456353743995216" lon="16.46452264149893"><ele>1108.0</ele><time>2026-04-25T08:37:38.736Z</time></trkpt><trkpt lat="39.456262062979114" lon="16.464660953610856"><ele>1108.0</ele><time>2026-04-25T08:37:39.736Z</time></trkpt><trkpt lat="39.45614731870213" lon="16.464817301490942"><ele>1107.3333333333333</ele><time>2026-04-25T08:37:40.736Z</time></trkpt><trkpt lat="39.45601511545141" lon="16.4649992408775"><ele>1106.6666666666667</ele><time>2026-04-25T08:37:41.736Z</time></trkpt><trkpt lat="39.45587173621701" lon="16.465197608729593"><ele>1106.0</ele><time>2026-04-25T08:37:42.737Z</time></trkpt><trkpt lat="39.45572781355146" lon="16.46539560315654"><ele>1106.0</ele><time>2026-04-25T08:37:43.737Z</time></trkpt><trkpt lat="39.455579777801326" lon="16.465597781102343"><ele>1106.0</ele><time>2026-04-25T08:37:44.737Z</time></trkpt><trkpt lat="39.45545403401873" lon="16.465797388367875"><ele>1106.0</ele><time>2026-04-25T08:37:45.737Z</time></trkpt><trkpt lat="39.455361492101" lon="16.46600279807682"><ele>1106.0</ele><time>2026-04-25T08:37:46.737Z</time></trkpt><trkpt lat="39.455293774272455" lon="16.46623780192293"><ele>1106.0</ele><time>2026-04-25T08:37:47.737Z</time></trkpt><trkpt lat="39.455225900433035" lon="16.466498686909624"><ele>1106.0</ele><time>2026-04-25T08:37:48.737Z</time></trkpt><trkpt lat="39.45514143080056" lon="16.466760236166774"><ele>1106.3333333333335</ele><time>2026-04-25T08:37:49.737Z</time></trkpt><trkpt lat="39.45505697293241" lon="16.4669979591973"><ele>1106.6666666666667</ele><time>2026-04-25T08:37:50.737Z</time></trkpt><trkpt lat="39.45497874696078" lon="16.467211983882724"><ele>1107.0</ele><time>2026-04-25T08:37:51.737Z</time></trkpt><trkpt lat="39.4548983876194" lon="16.467409889249726"><ele>1108.0</ele><time>2026-04-25T08:37:52.737Z</time></trkpt><trkpt lat="39.45480743507482" lon="16.467605113702106"><ele>1109.0</ele><time>2026-04-25T08:37:53.737Z</time></trkpt><trkpt lat="39.45470506436578" lon="16.46781470619966"><ele>1110.0</ele><time>2026-04-25T08:37:54.737Z</time></trkpt><trkpt lat="39.454598264513585" lon="16.468036564646376"><ele>1111.3333333333333</ele><time>2026-04-25T08:37:55.737Z</time></trkpt><trkpt lat="39.454483160608255" lon="16.46826300287404"><ele>1112.6666666666665</ele><time>2026-04-25T08:37:56.737Z</time></trkpt><trkpt lat="39.454365994475594" lon="16.468494476196"><ele>1114.0</ele><time>2026-04-25T08:37:57.737Z</time></trkpt><trkpt lat="39.45424705731595" lon="16.468727344200477"><ele>1114.0</ele><time>2026-04-25T08:37:58.737Z</time></trkpt><trkpt lat="39.454127747174766" lon="16.468964509833203"><ele>1114.0</ele><time>2026-04-25T08:37:59.737Z</time></trkpt><trkpt lat="39.45400943691813" lon="16.469203679509068"><ele>1114.0</ele><time>2026-04-25T08:38:00.737Z</time></trkpt><trkpt lat="39.45390156517096" lon="16.4694300945432"><ele>1114.3333333333333</ele><time>2026-04-25T08:38:01.737Z</time></trkpt><trkpt lat="39.453802149336944" lon="16.4696526632625"><ele>1114.6666666666667</ele><time>2026-04-25T08:38:02.737Z</time></trkpt><trkpt lat="39.45370320977475" lon="16.46988800719112"><ele>1115.0</ele><time>2026-04-25T08:38:03.737Z</time></trkpt><trkpt lat="39.45360051913283" lon="16.470134184548797"><ele>1119.0</ele><time>2026-04-25T08:38:04.736Z</time></trkpt><trkpt lat="39.45349735218994" lon="16.470378334139703"><ele>1123.0</ele><time>2026-04-25T08:38:05.736Z</time></trkpt><trkpt lat="39.45338627920648" lon="16.470634066862978"><ele>1127.0</ele><time>2026-04-25T08:38:06.736Z</time></trkpt><trkpt lat="39.45327221624158" lon="16.470880292139963"><ele>1127.0</ele><time>2026-04-25T08:38:07.736Z</time></trkpt><trkpt lat="39.45316006053849" lon="16.471097065723914"><ele>1127.0</ele><time>2026-04-25T08:38:08.735Z</time></trkpt><trkpt lat="39.453038650735834" lon="16.47130020055163"><ele>1127.0</ele><time>2026-04-25T08:38:09.735Z</time></trkpt><trkpt lat="39.452905644976525" lon="16.4715236736182"><ele>1126.5</ele><time>2026-04-25T08:38:10.735Z</time></trkpt><trkpt lat="39.45277030738195" lon="16.47175239558335"><ele>1126.0</ele><time>2026-04-25T08:38:11.735Z</time></trkpt><trkpt lat="39.45263297213307" lon="16.471986737706672"><ele>1126.0</ele><time>2026-04-25T08:38:12.735Z</time></trkpt><trkpt lat="39.45249349392539" lon="16.472225071009188"><ele>1126.0</ele><time>2026-04-25T08:38:13.735Z</time></trkpt><trkpt lat="39.45235522500307" lon="16.472467977630252"><ele>1126.0</ele><time>2026-04-25T08:38:14.735Z</time></trkpt><trkpt lat="39.45221908082735" lon="16.472722215310096"><ele>1126.0</ele><time>2026-04-25T08:38:15.735Z</time></trkpt><trkpt lat="39.45208594550912" lon="16.472998448533723"><ele>1125.5</ele><time>2026-04-25T08:38:16.735Z</time></trkpt><trkpt lat="39.45197240027464" lon="16.47327431536834"><ele>1125.0</ele><time>2026-04-25T08:38:17.735Z</time></trkpt><trkpt lat="39.45187806581136" lon="16.473528599825677"><ele>1125.0</ele><time>2026-04-25T08:38:18.735Z</time></trkpt><trkpt lat="39.45179789268172" lon="16.47374785090434"><ele>1125.0</ele><time>2026-04-25T08:38:19.735Z</time></trkpt><trkpt lat="39.451716571928806" lon="16.47395049240537"><ele>1125.0</ele><time>2026-04-25T08:38:20.735Z</time></trkpt><trkpt lat="39.45163053171253" lon="16.474154316067846"><ele>1125.0</ele><time>2026-04-25T08:38:21.735Z</time></trkpt><trkpt lat="39.45155210367864" lon="16.47433403777778"><ele>1125.0</ele><time>2026-04-25T08:38:22.735Z</time></trkpt><trkpt lat="39.45148842771347" lon="16.47449080974224"><ele>1125.0</ele><time>2026-04-25T08:38:23.735Z</time></trkpt><trkpt lat="39.451434202186874" lon="16.47463790794307"><ele>1125.0</ele><time>2026-04-25T08:38:24.735Z</time></trkpt><trkpt lat="39.45138436276385" lon="16.47477061598821"><ele>1125.0</ele><time>2026-04-25T08:38:25.735Z</time></trkpt><trkpt lat="39.451334893385244" lon="16.4748920536238"><ele>1125.0</ele><time>2026-04-25T08:38:26.735Z</time></trkpt><trkpt lat="39.4512865321132" lon="16.475007076754647"><ele>1125.0</ele><time>2026-04-25T08:38:27.735Z</time></trkpt><trkpt lat="39.45124265738875" lon="16.475115493081997"><ele>1125.0</ele><time>2026-04-25T08:38:28.735Z</time></trkpt><trkpt lat="39.451197091859235" lon="16.47522171655003"><ele>1125.0</ele><time>2026-04-25T08:38:29.735Z</time></trkpt><trkpt lat="39.451145587725044" lon="16.47532730136632"><ele>1125.4</ele><time>2026-04-25T08:38:30.735Z</time></trkpt><trkpt lat="39.451089658961315" lon="16.4754268033982"><ele>1125.8</ele><time>2026-04-25T08:38:31.735Z</time></trkpt><trkpt lat="39.45102844175552" lon="16.475529914847773"><ele>1126.2</ele><time>2026-04-25T08:38:32.735Z</time></trkpt><trkpt lat="39.45096428469233" lon="16.475636511296134"><ele>1126.6</ele><time>2026-04-25T08:38:33.735Z</time></trkpt><trkpt lat="39.45089856193152" lon="16.47574530117938"><ele>1127.0</ele><time>2026-04-25T08:38:34.735Z</time></trkpt><trkpt lat="39.45081644509751" lon="16.47586051319364"><ele>1125.6666666666667</ele><time>2026-04-25T08:38:35.735Z</time></trkpt><trkpt lat="39.45071687772919" lon="16.47598117490018"><ele>1124.3333333333333</ele><time>2026-04-25T08:38:36.735Z</time></trkpt><trkpt lat="39.450598571907825" lon="16.476125625851765"><ele>1123.0</ele><time>2026-04-25T08:38:37.735Z</time></trkpt><trkpt lat="39.45045408513684" lon="16.476307359648064"><ele>1120.5</ele><time>2026-04-25T08:38:38.735Z</time></trkpt><trkpt lat="39.45027399434041" lon="16.47652306818692"><ele>1118.0</ele><time>2026-04-25T08:38:39.735Z</time></trkpt><trkpt lat="39.450086516277274" lon="16.476750303420502"><ele>1118.0</ele><time>2026-04-25T08:38:40.735Z</time></trkpt><trkpt lat="39.449927368005845" lon="16.476946059360873"><ele>1118.0</ele><time>2026-04-25T08:38:41.735Z</time></trkpt><trkpt lat="39.449785817379535" lon="16.47712594055531"><ele>1118.0</ele><time>2026-04-25T08:38:42.735Z</time></trkpt><trkpt lat="39.449653035080416" lon="16.477292890469915"><ele>1117.0</ele><time>2026-04-25T08:38:43.735Z</time></trkpt><trkpt lat="39.44952583554896" lon="16.477450917360894"><ele>1116.0</ele><time>2026-04-25T08:38:44.735Z</time></trkpt><trkpt lat="39.44939739713588" lon="16.47760813476123"><ele>1115.0</ele><time>2026-04-25T08:38:45.735Z</time></trkpt><trkpt lat="39.449261122317466" lon="16.477777714908566"><ele>1114.6666666666667</ele><time>2026-04-25T08:38:46.735Z</time></trkpt><trkpt lat="39.44911302278776" lon="16.47796708828841"><ele>1114.3333333333333</ele><time>2026-04-25T08:38:47.735Z</time></trkpt><trkpt lat="39.448960026217605" lon="16.47816478315459"><ele>1114.0</ele><time>2026-04-25T08:38:48.735Z</time></trkpt><trkpt lat="39.44880658887073" lon="16.478375626847107"><ele>1114.0</ele><time>2026-04-25T08:38:49.735Z</time></trkpt><trkpt lat="39.44865977487392" lon="16.47860300936166"><ele>1114.0</ele><time>2026-04-25T08:38:50.735Z</time></trkpt><trkpt lat="39.44851961541765" lon="16.478854027342916"><ele>1114.0</ele><time>2026-04-25T08:38:51.735Z</time></trkpt><trkpt lat="39.44838513531583" lon="16.47914027538435"><ele>1114.0</ele><time>2026-04-25T08:38:52.735Z</time></trkpt><trkpt lat="39.448229384469464" lon="16.479456562810345"><ele>1113.5</ele><time>2026-04-25T08:38:53.735Z</time></trkpt><trkpt lat="39.44805684813057" lon="16.479790367902197"><ele>1113.0</ele><time>2026-04-25T08:38:54.735Z</time></trkpt><trkpt lat="39.447890381940496" lon="16.48013400098744"><ele>1121.5</ele><time>2026-04-25T08:38:55.735Z</time></trkpt><trkpt lat="39.44772250834648" lon="16.480482775148094"><ele>1130.0</ele><time>2026-04-25T08:38:56.735Z</time></trkpt><trkpt lat="39.44757990923457" lon="16.480783381626487"><ele>1130.0</ele><time>2026-04-25T08:38:57.735Z</time></trkpt><trkpt lat="39.44744751865063" lon="16.481049152781058"><ele>1130.0</ele><time>2026-04-25T08:38:58.735Z</time></trkpt><trkpt lat="39.44732092857739" lon="16.481300705769115"><ele>1130.5</ele><time>2026-04-25T08:38:59.735Z</time></trkpt><trkpt lat="39.44718623741037" lon="16.481528412355555"><ele>1131.0</ele><time>2026-04-25T08:39:00.735Z</time></trkpt><trkpt lat="39.44703240715869" lon="16.481780287589448"><ele>1131.0</ele><time>2026-04-25T08:39:01.735Z</time></trkpt><trkpt lat="39.4468475114074" lon="16.48200275741413"><ele>1131.0</ele><time>2026-04-25T08:39:02.735Z</time></trkpt><trkpt lat="39.44664355565979" lon="16.482251643446673"><ele>1131.0</ele><time>2026-04-25T08:39:03.735Z</time></trkpt><trkpt lat="39.446416701848634" lon="16.482472587134684"><ele>1131.0</ele><time>2026-04-25T08:39:04.735Z</time></trkpt><trkpt lat="39.446173297897786" lon="16.482698233514327"><ele>1131.0</ele><time>2026-04-25T08:39:05.735Z</time></trkpt><trkpt lat="39.445933820880015" lon="16.482929961394333"><ele>1131.0</ele><time>2026-04-25T08:39:06.735Z</time></trkpt><trkpt lat="39.44570309567879" lon="16.483127322142302"><ele>1132.0</ele><time>2026-04-25T08:39:07.735Z</time></trkpt><trkpt lat="39.44549570263433" lon="16.483322123658997"><ele>1133.0</ele><time>2026-04-25T08:39:08.735Z</time></trkpt><trkpt lat="39.44531696038593" lon="16.483490215494655"><ele>1134.0</ele><time>2026-04-25T08:39:09.735Z</time></trkpt><trkpt lat="39.44519632901738" lon="16.48360381677518"><ele>1135.0</ele><time>2026-04-25T08:39:10.735Z</time></trkpt><trkpt lat="39.4450536350214" lon="16.483740538425753"><ele>1136.0</ele><time>2026-04-25T08:39:11.735Z</time></trkpt><trkpt lat="39.444952446131076" lon="16.483812955147656"><ele>1137.0</ele><time>2026-04-25T08:39:12.735Z</time></trkpt><trkpt lat="39.44485268450493" lon="16.483837830028445"><ele>1137.75</ele><time>2026-04-25T08:39:13.735Z</time></trkpt><trkpt lat="39.444745429306515" lon="16.483798344108468"><ele>1138.5</ele><time>2026-04-25T08:39:14.735Z</time></trkpt><trkpt lat="39.44462607520302" lon="16.483698773224372"><ele>1139.25</ele><time>2026-04-25T08:39:15.735Z</time></trkpt><trkpt lat="39.44447521311083" lon="16.48356947460082"><ele>1140.0</ele><time>2026-04-25T08:39:16.735Z</time></trkpt><trkpt lat="39.444315701568534" lon="16.48343481355783"><ele>1140.25</ele><time>2026-04-25T08:39:17.735Z</time></trkpt><trkpt lat="39.4441630153245" lon="16.483345845612565"><ele>1140.5</ele><time>2026-04-25T08:39:18.735Z</time></trkpt><trkpt lat="39.444054581378474" lon="16.48327995620024"><ele>1140.75</ele><time>2026-04-25T08:39:19.735Z</time></trkpt><trkpt lat="39.44395996488867" lon="16.48328356266233"><ele>1141.0</ele><time>2026-04-25T08:39:20.735Z</time></trkpt><trkpt lat="39.44386908136747" lon="16.48335713693275"><ele>1141.0</ele><time>2026-04-25T08:39:21.735Z</time></trkpt><trkpt lat="39.44380089276624" lon="16.483486426902235"><ele>1141.0</ele><time>2026-04-25T08:39:22.735Z</time></trkpt><trkpt lat="39.4437794901948" lon="16.483646504983327"><ele>1141.0</ele><time>2026-04-25T08:39:23.735Z</time></trkpt><trkpt lat="39.44380904167183" lon="16.483834114351943"><ele>1141.0</ele><time>2026-04-25T08:39:24.735Z</time></trkpt><trkpt lat="39.44387796479541" lon="16.484050605613444"><ele>1142.0</ele><time>2026-04-25T08:39:25.735Z</time></trkpt><trkpt lat="39.44395442293096" lon="16.48430124933416"><ele>1143.0</ele><time>2026-04-25T08:39:26.735Z</time></trkpt><trkpt lat="39.44396139538467" lon="16.4845657127875"><ele>1144.0</ele><time>2026-04-25T08:39:27.735Z</time></trkpt><trkpt lat="39.44390056343874" lon="16.484821437608495"><ele>1146.0</ele><time>2026-04-25T08:39:28.735Z</time></trkpt><trkpt lat="39.44389263822767" lon="16.485135108794346"><ele>1148.0</ele><time>2026-04-25T08:39:29.735Z</time></trkpt><trkpt lat="39.44374775045882" lon="16.485414840787165"><ele>1149.5</ele><time>2026-04-25T08:39:30.735Z</time></trkpt><trkpt lat="39.44361912916299" lon="16.485713592947203"><ele>1151.0</ele><time>2026-04-25T08:39:31.735Z</time></trkpt><trkpt lat="39.443539809304646" lon="16.485976147032158"><ele>1151.0</ele><time>2026-04-25T08:39:32.735Z</time></trkpt><trkpt lat="39.443458915285795" lon="16.48625054597982"><ele>1151.0</ele><time>2026-04-25T08:39:33.735Z</time></trkpt><trkpt lat="39.4433810821919" lon="16.4865326827624"><ele>1151.3333333333335</ele><time>2026-04-25T08:39:34.735Z</time></trkpt><trkpt lat="39.44330664061988" lon="16.486795838329655"><ele>1151.6666666666667</ele><time>2026-04-25T08:39:35.735Z</time></trkpt><trkpt lat="39.44323736245831" lon="16.487035200933224"><ele>1152.0</ele><time>2026-04-25T08:39:36.735Z</time></trkpt><trkpt lat="39.443167568456374" lon="16.487259039910573"><ele>1152.0</ele><time>2026-04-25T08:39:37.735Z</time></trkpt><trkpt lat="39.443097595361074" lon="16.487477884058777"><ele>1152.0</ele><time>2026-04-25T08:39:38.735Z</time></trkpt><trkpt lat="39.44302546790363" lon="16.487669977297358"><ele>1152.0</ele><time>2026-04-25T08:39:39.735Z</time></trkpt><trkpt lat="39.4429283266324" lon="16.487830373023197"><ele>1153.0</ele><time>2026-04-25T08:39:40.735Z</time></trkpt><trkpt lat="39.44279080563706" lon="16.48797850616846"><ele>1154.0</ele><time>2026-04-25T08:39:41.735Z</time></trkpt><trkpt lat="39.44260622065005" lon="16.488111920260714"><ele>1155.0</ele><time>2026-04-25T08:39:42.735Z</time></trkpt><trkpt lat="39.44243344056434" lon="16.488237439644404"><ele>1155.0</ele><time>2026-04-25T08:39:43.734Z</time></trkpt><trkpt lat="39.44228986422612" lon="16.48836134215439"><ele>1155.0</ele><time>2026-04-25T08:39:44.734Z</time></trkpt><trkpt lat="39.44216051790826" lon="16.48848239909613"><ele>1155.0</ele><time>2026-04-25T08:39:45.734Z</time></trkpt><trkpt lat="39.442033745925116" lon="16.48860205782882"><ele>1155.5</ele><time>2026-04-25T08:39:46.734Z</time></trkpt><trkpt lat="39.44191630330431" lon="16.488718014093994"><ele>1156.0</ele><time>2026-04-25T08:39:47.734Z</time></trkpt><trkpt lat="39.44180432547858" lon="16.488833913446225"><ele>1156.5</ele><time>2026-04-25T08:39:48.735Z</time></trkpt><trkpt lat="39.44170229806356" lon="16.488943018146937"><ele>1157.0</ele><time>2026-04-25T08:39:49.735Z</time></trkpt><trkpt lat="39.44161208104403" lon="16.489048630160262"><ele>1156.6666666666667</ele><time>2026-04-25T08:39:50.735Z</time></trkpt><trkpt lat="39.44153611089505" lon="16.489143207200634"><ele>1156.3333333333335</ele><time>2026-04-25T08:39:51.735Z</time></trkpt><trkpt lat="39.441469587125596" lon="16.48922525703466"><ele>1156.0</ele><time>2026-04-25T08:39:52.735Z</time></trkpt><trkpt lat="39.44142173386721" lon="16.489287693016436"><ele>1155.6666666666667</ele><time>2026-04-25T08:39:53.735Z</time></trkpt><trkpt lat="39.44135704850525" lon="16.48936068755303"><ele>1155.3333333333333</ele><time>2026-04-25T08:39:55.735Z</time></trkpt><trkpt lat="39.44134286997382" lon="16.489449423347885"><ele>1155.0</ele><time>2026-04-25T08:41:25.734Z</time></trkpt><trkpt lat="39.4412400436242" lon="16.48956105865923"><ele>1155.3333333333333</ele><time>2026-04-25T08:41:26.734Z</time></trkpt><trkpt lat="39.441122094479894" lon="16.489641070694002"><ele>1155.6666666666665</ele><time>2026-04-25T08:41:27.734Z</time></trkpt><trkpt lat="39.4410211263835" lon="16.4897068124919"><ele>1156.0</ele><time>2026-04-25T08:41:28.734Z</time></trkpt><trkpt lat="39.44089531839098" lon="16.489981113426264"><ele>1156.0</ele><time>2026-04-25T08:41:29.734Z</time></trkpt><trkpt lat="39.44078136548535" lon="16.490069488320295"><ele>1156.0</ele><time>2026-04-25T08:41:30.734Z</time></trkpt><trkpt lat="39.44068699385476" lon="16.490162326421324"><ele>1156.0</ele><time>2026-04-25T08:41:31.734Z</time></trkpt><trkpt lat="39.44059414608691" lon="16.490255065832713"><ele>1156.0</ele><time>2026-04-25T08:41:32.734Z</time></trkpt><trkpt lat="39.44050869956741" lon="16.490341557940436"><ele>1156.3999999999999</ele><time>2026-04-25T08:41:33.734Z</time></trkpt><trkpt lat="39.44042799763791" lon="16.49041836591876"><ele>1156.8</ele><time>2026-04-25T08:41:34.734Z</time></trkpt><trkpt lat="39.440335352791394" lon="16.490489378547235"><ele>1157.1999999999998</ele><time>2026-04-25T08:41:35.734Z</time></trkpt><trkpt lat="39.440237717837114" lon="16.4905356659484"><ele>1157.6</ele><time>2026-04-25T08:41:36.734Z</time></trkpt><trkpt lat="39.440123594403005" lon="16.490505637969957"><ele>1158.0</ele><time>2026-04-25T08:41:37.734Z</time></trkpt><trkpt lat="39.44001239274545" lon="16.49041575838602"><ele>1158.0</ele><time>2026-04-25T08:41:38.734Z</time></trkpt><trkpt lat="39.43985902171152" lon="16.490317371062048"><ele>1158.0</ele><time>2026-04-25T08:41:39.734Z</time></trkpt><trkpt lat="39.439721720327" lon="16.490229065319195"><ele>1158.0</ele><time>2026-04-25T08:41:40.734Z</time></trkpt><trkpt lat="39.43961137315422" lon="16.49014911539704"><ele>1160.5</ele><time>2026-04-25T08:41:41.734Z</time></trkpt><trkpt lat="39.439511941676976" lon="16.490066734016267"><ele>1163.0</ele><time>2026-04-25T08:41:42.734Z</time></trkpt><trkpt lat="39.43943183483712" lon="16.489960939674432"><ele>1165.5</ele><time>2026-04-25T08:41:43.734Z</time></trkpt><trkpt lat="39.439406286142216" lon="16.489782348034826"><ele>1168.0</ele><time>2026-04-25T08:41:44.734Z</time></trkpt><trkpt lat="39.43935184734395" lon="16.489624675596517"><ele>1167.8</ele><time>2026-04-25T08:41:45.734Z</time></trkpt><trkpt lat="39.43928653558948" lon="16.489513965112604"><ele>1167.6</ele><time>2026-04-25T08:41:46.734Z</time></trkpt><trkpt lat="39.439202133834854" lon="16.489430380527242"><ele>1167.4</ele><time>2026-04-25T08:41:47.734Z</time></trkpt><trkpt lat="39.43910537963038" lon="16.489356168321947"><ele>1167.2</ele><time>2026-04-25T08:41:48.734Z</time></trkpt><trkpt lat="39.43900587108341" lon="16.489284798670756"><ele>1167.0</ele><time>2026-04-25T08:41:49.734Z</time></trkpt><trkpt lat="39.43890360292594" lon="16.489207456647264"><ele>1167.0</ele><time>2026-04-25T08:41:50.734Z</time></trkpt><trkpt lat="39.438807098046055" lon="16.489120954229584"><ele>1167.0</ele><time>2026-04-25T08:41:51.734Z</time></trkpt><trkpt lat="39.438725484064356" lon="16.48904865030279"><ele>1167.0</ele><time>2026-04-25T08:41:52.734Z</time></trkpt><trkpt lat="39.43863232223039" lon="16.4890121948091"><ele>1167.0</ele><time>2026-04-25T08:41:53.735Z</time></trkpt><trkpt lat="39.438533437625225" lon="16.489014813218"><ele>1167.0</ele><time>2026-04-25T08:41:54.735Z</time></trkpt><trkpt lat="39.43844137290763" lon="16.489058076802888"><ele>1167.2</ele><time>2026-04-25T08:41:55.735Z</time></trkpt><trkpt lat="39.43837164003499" lon="16.489153184425167"><ele>1167.4</ele><time>2026-04-25T08:41:56.735Z</time></trkpt><trkpt lat="39.438344427228515" lon="16.48927000396179"><ele>1167.6</ele><time>2026-04-25T08:41:57.735Z</time></trkpt><trkpt lat="39.43834735127241" lon="16.48939674640935"><ele>1167.8</ele><time>2026-04-25T08:41:58.735Z</time></trkpt><trkpt lat="39.438377346043524" lon="16.489527004743813"><ele>1168.0</ele><time>2026-04-25T08:41:59.735Z</time></trkpt><trkpt lat="39.438439035993504" lon="16.48965523484643"><ele>1168.0</ele><time>2026-04-25T08:42:00.735Z</time></trkpt><trkpt lat="39.43854446016167" lon="16.4897821942778"><ele>1168.0</ele><time>2026-04-25T08:42:01.735Z</time></trkpt><trkpt lat="39.43864241182567" lon="16.489930121692755"><ele>1168.0</ele><time>2026-04-25T08:42:02.735Z</time></trkpt><trkpt lat="39.43871104771695" lon="16.49008855252451"><ele>1168.0</ele><time>2026-04-25T08:42:03.735Z</time></trkpt><trkpt lat="39.438737239551784" lon="16.490263091782634"><ele>1168.0</ele><time>2026-04-25T08:42:04.735Z</time></trkpt><trkpt lat="39.43875617608134" lon="16.490431723960075"><ele>1168.0</ele><time>2026-04-25T08:42:05.735Z</time></trkpt><trkpt lat="39.4387707125238" lon="16.490610210406036"><ele>1168.0</ele><time>2026-04-25T08:42:06.735Z</time></trkpt><trkpt lat="39.43880172972388" lon="16.49077417829084"><ele>1168.0</ele><time>2026-04-25T08:42:07.735Z</time></trkpt><trkpt lat="39.438809261216264" lon="16.49092214079071"><ele>1168.5</ele><time>2026-04-25T08:42:08.735Z</time></trkpt><trkpt lat="39.43882161808575" lon="16.491061197444154"><ele>1169.0</ele><time>2026-04-25T08:42:09.735Z</time></trkpt><trkpt lat="39.438842686053" lon="16.4911892118814"><ele>1169.5</ele><time>2026-04-25T08:42:10.735Z</time></trkpt><trkpt lat="39.43887783511471" lon="16.491334087984526"><ele>1170.0</ele><time>2026-04-25T08:42:11.735Z</time></trkpt><trkpt lat="39.438929668735064" lon="16.491501915620326"><ele>1170.0</ele><time>2026-04-25T08:42:12.735Z</time></trkpt><trkpt lat="39.43899978848476" lon="16.491662724472096"><ele>1170.0</ele><time>2026-04-25T08:42:13.735Z</time></trkpt><trkpt lat="39.43909912015762" lon="16.491799763461376"><ele>1170.0</ele><time>2026-04-25T08:42:14.735Z</time></trkpt><trkpt lat="39.439201027058516" lon="16.491902600941128"><ele>1170.0</ele><time>2026-04-25T08:42:15.735Z</time></trkpt><trkpt lat="39.43931743343362" lon="16.492020554490438"><ele>1170.6666666666667</ele><time>2026-04-25T08:42:16.735Z</time></trkpt><trkpt lat="39.43944059181239" lon="16.492141347479524"><ele>1171.3333333333335</ele><time>2026-04-25T08:42:17.735Z</time></trkpt><trkpt lat="39.439557434895065" lon="16.49226838324081"><ele>1172.0</ele><time>2026-04-25T08:42:18.735Z</time></trkpt><trkpt lat="39.43966582938413" lon="16.492388773614607"><ele>1172.0</ele><time>2026-04-25T08:42:19.735Z</time></trkpt><trkpt lat="39.43977959526622" lon="16.492497964710648"><ele>1172.0</ele><time>2026-04-25T08:42:20.735Z</time></trkpt><trkpt lat="39.43990824818156" lon="16.49260002289933"><ele>1172.0</ele><time>2026-04-25T08:42:21.735Z</time></trkpt><trkpt lat="39.440034455107224" lon="16.49269349533971"><ele>1172.0</ele><time>2026-04-25T08:42:22.735Z</time></trkpt><trkpt lat="39.440150343842056" lon="16.49278622354885"><ele>1172.0</ele><time>2026-04-25T08:42:23.735Z</time></trkpt><trkpt lat="39.44024847079654" lon="16.492920182640386"><ele>1172.0</ele><time>2026-04-25T08:42:24.735Z</time></trkpt><trkpt lat="39.44034240787967" lon="16.493069181206238"><ele>1172.0</ele><time>2026-04-25T08:42:25.735Z</time></trkpt><trkpt lat="39.4404158169739" lon="16.493233840546623"><ele>1172.0</ele><time>2026-04-25T08:42:26.735Z</time></trkpt><trkpt lat="39.44047402411063" lon="16.493398157493463"><ele>1171.75</ele><time>2026-04-25T08:42:27.735Z</time></trkpt><trkpt lat="39.440510626962634" lon="16.49355083656577"><ele>1171.5</ele><time>2026-04-25T08:42:28.735Z</time></trkpt><trkpt lat="39.440527255826154" lon="16.493693677633438"><ele>1171.25</ele><time>2026-04-25T08:42:29.735Z</time></trkpt><trkpt lat="39.440528231671664" lon="16.493837187030934"><ele>1171.0</ele><time>2026-04-25T08:42:30.735Z</time></trkpt><trkpt lat="39.440515436568404" lon="16.494001832465177"><ele>1171.0</ele><time>2026-04-25T08:42:31.735Z</time></trkpt><trkpt lat="39.44046472586997" lon="16.494174223233884"><ele>1171.0</ele><time>2026-04-25T08:42:32.735Z</time></trkpt><trkpt lat="39.44040547518115" lon="16.494379761895956"><ele>1171.0</ele><time>2026-04-25T08:42:33.735Z</time></trkpt><trkpt lat="39.440341475096766" lon="16.494601775918728"><ele>1171.0</ele><time>2026-04-25T08:42:34.735Z</time></trkpt><trkpt lat="39.440274628156814" lon="16.49483366573773"><ele>1171.0</ele><time>2026-04-25T08:42:35.735Z</time></trkpt><trkpt lat="39.44022232128527" lon="16.49507118048313"><ele>1171.0</ele><time>2026-04-25T08:42:36.735Z</time></trkpt><trkpt lat="39.440156535173216" lon="16.4952352049268"><ele>1171.0</ele><time>2026-04-25T08:42:37.735Z</time></trkpt><trkpt lat="39.440109907860496" lon="16.495404786859734"><ele>1171.0</ele><time>2026-04-25T08:42:38.735Z</time></trkpt><trkpt lat="39.44008338006911" lon="16.49557266279594"><ele>1171.0</ele><time>2026-04-25T08:42:39.735Z</time></trkpt><trkpt lat="39.44004927168272" lon="16.49573145150283"><ele>1171.0</ele><time>2026-04-25T08:42:40.735Z</time></trkpt><trkpt lat="39.44005146769305" lon="16.49590642200318"><ele>1171.0</ele><time>2026-04-25T08:42:41.735Z</time></trkpt><trkpt lat="39.440070083702985" lon="16.496072353485307"><ele>1171.0</ele><time>2026-04-25T08:42:42.735Z</time></trkpt><trkpt lat="39.440094745353285" lon="16.496225442619636"><ele>1171.0</ele><time>2026-04-25T08:42:43.735Z</time></trkpt><trkpt lat="39.440098627069105" lon="16.49637039526445"><ele>1171.0</ele><time>2026-04-25T08:42:44.735Z</time></trkpt><trkpt lat="39.440085113627724" lon="16.49651687784468"><ele>1171.75</ele><time>2026-04-25T08:42:45.735Z</time></trkpt><trkpt lat="39.44005212853185" lon="16.496673792486863"><ele>1172.5</ele><time>2026-04-25T08:42:46.734Z</time></trkpt><trkpt lat="39.439988248217745" lon="16.496828771619374"><ele>1173.25</ele><time>2026-04-25T08:42:47.734Z</time></trkpt><trkpt lat="39.439946848318854" lon="16.497005538950553"><ele>1174.0</ele><time>2026-04-25T08:42:48.734Z</time></trkpt><trkpt lat="39.43990534996022" lon="16.497158583383705"><ele>1174.75</ele><time>2026-04-25T08:42:49.734Z</time></trkpt><trkpt lat="39.43989922865276" lon="16.497301195301485"><ele>1175.5</ele><time>2026-04-25T08:42:50.734Z</time></trkpt><trkpt lat="39.43993082148024" lon="16.49743356450406"><ele>1176.25</ele><time>2026-04-25T08:42:51.734Z</time></trkpt><trkpt lat="39.440008286013786" lon="16.49755833069332"><ele>1177.0</ele><time>2026-04-25T08:42:52.734Z</time></trkpt><trkpt lat="39.440089325967215" lon="16.49768173812227"><ele>1177.0</ele><time>2026-04-25T08:42:53.734Z</time></trkpt><trkpt lat="39.440133888908036" lon="16.49779705191121"><ele>1177.0</ele><time>2026-04-25T08:42:54.734Z</time></trkpt><trkpt lat="39.440133767441" lon="16.497914435603246"><ele>1177.0</ele><time>2026-04-25T08:42:55.734Z</time></trkpt><trkpt lat="39.440092356475034" lon="16.49802760088321"><ele>1177.0</ele><time>2026-04-25T08:42:56.734Z</time></trkpt><trkpt lat="39.439999528093686" lon="16.498084580397357"><ele>1177.0</ele><time>2026-04-25T08:42:57.734Z</time></trkpt><trkpt lat="39.439901478702325" lon="16.498105810218114"><ele>1179.0</ele><time>2026-04-25T08:42:58.734Z</time></trkpt><trkpt lat="39.439809101024565" lon="16.498158598845098"><ele>1181.0</ele><time>2026-04-25T08:42:59.734Z</time></trkpt><trkpt lat="39.4397383162471" lon="16.498261339860868"><ele>1183.0</ele><time>2026-04-25T08:43:00.734Z</time></trkpt><trkpt lat="39.43968424686004" lon="16.498389469488604"><ele>1185.0</ele><time>2026-04-25T08:43:01.734Z</time></trkpt><trkpt lat="39.43965389082629" lon="16.498552628712545"><ele>1185.0</ele><time>2026-04-25T08:43:02.734Z</time></trkpt><trkpt lat="39.439639407660884" lon="16.498715354415683"><ele>1185.0</ele><time>2026-04-25T08:43:03.734Z</time></trkpt><trkpt lat="39.43964933970036" lon="16.498858725769683"><ele>1185.0</ele><time>2026-04-25T08:43:04.734Z</time></trkpt><trkpt lat="39.439684703947215" lon="16.49899163755514"><ele>1185.0</ele><time>2026-04-25T08:43:05.734Z</time></trkpt><trkpt lat="39.43974971581387" lon="16.49910581245514"><ele>1184.8</ele><time>2026-04-25T08:43:06.734Z</time></trkpt><trkpt lat="39.43982765770635" lon="16.499194167661376"><ele>1184.6</ele><time>2026-04-25T08:43:07.734Z</time></trkpt><trkpt lat="39.4399174379177" lon="16.49927031633316"><ele>1184.4</ele><time>2026-04-25T08:43:08.734Z</time></trkpt><trkpt lat="39.44000571896849" lon="16.49935080642141"><ele>1184.2</ele><time>2026-04-25T08:43:09.734Z</time></trkpt><trkpt lat="39.44009123663444" lon="16.499434896747992"><ele>1184.0</ele><time>2026-04-25T08:43:10.734Z</time></trkpt><trkpt lat="39.44015842694569" lon="16.49951959097837"><ele>1184.5</ele><time>2026-04-25T08:43:11.734Z</time></trkpt><trkpt lat="39.440192636111256" lon="16.499616363741122"><ele>1185.0</ele><time>2026-04-25T08:43:12.734Z</time></trkpt><trkpt lat="39.44017072506631" lon="16.499717216294346"><ele>1185.5</ele><time>2026-04-25T08:43:13.734Z</time></trkpt><trkpt lat="39.44012244103058" lon="16.499804742168457"><ele>1186.0</ele><time>2026-04-25T08:43:14.734Z</time></trkpt><trkpt lat="39.44006072672757" lon="16.499870934437634"><ele>1186.5</ele><time>2026-04-25T08:43:15.734Z</time></trkpt><trkpt lat="39.44000029258508" lon="16.499941374051588"><ele>1187.0</ele><time>2026-04-25T08:43:16.734Z</time></trkpt><trkpt lat="39.43995402460002" lon="16.500032454782563"><ele>1187.0</ele><time>2026-04-25T08:43:17.734Z</time></trkpt><trkpt lat="39.43992934072034" lon="16.500152763278606"><ele>1187.0</ele><time>2026-04-25T08:43:18.734Z</time></trkpt><trkpt lat="39.439939454414876" lon="16.50030496408697"><ele>1187.0</ele><time>2026-04-25T08:43:19.734Z</time></trkpt><trkpt lat="39.43996595035864" lon="16.500465256082308"><ele>1187.0</ele><time>2026-04-25T08:43:20.734Z</time></trkpt><trkpt lat="39.43998143742465" lon="16.50062479368229"><ele>1188.6</ele><time>2026-04-25T08:43:21.734Z</time></trkpt><trkpt lat="39.439972796580626" lon="16.500764812447333"><ele>1190.2</ele><time>2026-04-25T08:43:22.734Z</time></trkpt><trkpt lat="39.439951172016805" lon="16.500885348771853"><ele>1191.8</ele><time>2026-04-25T08:43:23.734Z</time></trkpt><trkpt lat="39.43992795106737" lon="16.500990813297513"><ele>1193.4</ele><time>2026-04-25T08:43:24.734Z</time></trkpt><trkpt lat="39.43992273084947" lon="16.501106816777902"><ele>1195.0</ele><time>2026-04-25T08:43:25.734Z</time></trkpt><trkpt lat="39.43993835409473" lon="16.501232088503315"><ele>1195.6</ele><time>2026-04-25T08:43:26.734Z</time></trkpt><trkpt lat="39.439986727028085" lon="16.501359469385793"><ele>1196.2</ele><time>2026-04-25T08:43:27.734Z</time></trkpt><trkpt lat="39.4400373678265" lon="16.501485972703332"><ele>1196.8</ele><time>2026-04-25T08:43:28.734Z</time></trkpt><trkpt lat="39.44005686009952" lon="16.501609690948637"><ele>1197.4</ele><time>2026-04-25T08:43:29.734Z</time></trkpt><trkpt lat="39.44002284681292" lon="16.501743796246135"><ele>1198.0</ele><time>2026-04-25T08:43:30.734Z</time></trkpt><trkpt lat="39.43999568191638" lon="16.501885619237786"><ele>1198.0</ele><time>2026-04-25T08:43:31.734Z</time></trkpt><trkpt lat="39.43997317425718" lon="16.502035252397096"><ele>1198.0</ele><time>2026-04-25T08:43:32.734Z</time></trkpt><trkpt lat="39.43993776263978" lon="16.50218508254498"><ele>1198.0</ele><time>2026-04-25T08:43:33.734Z</time></trkpt><trkpt lat="39.43991393804249" lon="16.502327100182754"><ele>1198.0</ele><time>2026-04-25T08:43:34.734Z</time></trkpt><trkpt lat="39.43991535848288" lon="16.50245487211211"><ele>1198.75</ele><time>2026-04-25T08:43:35.734Z</time></trkpt><trkpt lat="39.43994542708389" lon="16.502591015855707"><ele>1199.5</ele><time>2026-04-25T08:43:36.734Z</time></trkpt><trkpt lat="39.440035664742865" lon="16.502713119875274"><ele>1200.25</ele><time>2026-04-25T08:43:37.734Z</time></trkpt><trkpt lat="39.44012426962403" lon="16.50282299500032"><ele>1201.0</ele><time>2026-04-25T08:43:38.734Z</time></trkpt><trkpt lat="39.440161185931466" lon="16.5029411808069"><ele>1201.2</ele><time>2026-04-25T08:43:39.734Z</time></trkpt><trkpt lat="39.44018600408032" lon="16.503052793175442"><ele>1201.3999999999999</ele><time>2026-04-25T08:43:40.734Z</time></trkpt><trkpt lat="39.44015562354821" lon="16.503184208941846"><ele>1201.6</ele><time>2026-04-25T08:43:41.734Z</time></trkpt><trkpt lat="39.4401087197876" lon="16.503323586321436"><ele>1201.8</ele><time>2026-04-25T08:43:42.734Z</time></trkpt><trkpt lat="39.44004134710688" lon="16.50345334329808"><ele>1202.0</ele><time>2026-04-25T08:43:43.734Z</time></trkpt><trkpt lat="39.43998325287034" lon="16.503587145533412"><ele>1202.0</ele><time>2026-04-25T08:43:44.734Z</time></trkpt><trkpt lat="39.43993247669361" lon="16.503704092835086"><ele>1202.0</ele><time>2026-04-25T08:43:45.734Z</time></trkpt><trkpt lat="39.43989005602464" lon="16.503808077286077"><ele>1202.0</ele><time>2026-04-25T08:43:46.734Z</time></trkpt><trkpt lat="39.43985740755318" lon="16.503892782357497"><ele>1202.0</ele><time>2026-04-25T08:43:47.734Z</time></trkpt><trkpt lat="39.43980942594828" lon="16.503997901515117"><ele>1202.0</ele><time>2026-04-25T08:43:48.734Z</time></trkpt><trkpt lat="39.4397355111611" lon="16.50403484928079"><ele>1202.0</ele><time>2026-04-25T08:43:49.734Z</time></trkpt><trkpt lat="39.439639017769764" lon="16.50401848771681"><ele>1202.8</ele><time>2026-04-25T08:43:50.734Z</time></trkpt><trkpt lat="39.439544236501796" lon="16.504030504052093"><ele>1203.6</ele><time>2026-04-25T08:43:51.734Z</time></trkpt><trkpt lat="39.439452315895245" lon="16.504029372305986"><ele>1204.3999999999999</ele><time>2026-04-25T08:43:52.734Z</time></trkpt><trkpt lat="39.43936315810917" lon="16.50411242289968"><ele>1205.2</ele><time>2026-04-25T08:43:53.734Z</time></trkpt><trkpt lat="39.43930109408117" lon="16.504255645513613"><ele>1206.0</ele><time>2026-04-25T08:43:54.734Z</time></trkpt><trkpt lat="39.43926357261511" lon="16.504410168519758"><ele>1206.0</ele><time>2026-04-25T08:43:55.734Z</time></trkpt><trkpt lat="39.439247612285406" lon="16.504556274082887"><ele>1206.0</ele><time>2026-04-25T08:43:56.734Z</time></trkpt><trkpt lat="39.43923497769433" lon="16.50469543184018"><ele>1206.0</ele><time>2026-04-25T08:43:57.734Z</time></trkpt><trkpt lat="39.43922870299642" lon="16.50481110156121"><ele>1206.0</ele><time>2026-04-25T08:43:58.734Z</time></trkpt><trkpt lat="39.439209216025816" lon="16.50493987681704"><ele>1206.0</ele><time>2026-04-25T08:43:59.735Z</time></trkpt><trkpt lat="39.4391490518776" lon="16.505063559874774"><ele>1207.0</ele><time>2026-04-25T08:44:00.735Z</time></trkpt><trkpt lat="39.43907304248731" lon="16.50516013051989"><ele>1208.0</ele><time>2026-04-25T08:44:01.735Z</time></trkpt><trkpt lat="39.43896159613425" lon="16.505254423107075"><ele>1209.0</ele><time>2026-04-25T08:44:02.735Z</time></trkpt><trkpt lat="39.438852156570775" lon="16.505361218086932"><ele>1210.0</ele><time>2026-04-25T08:44:03.735Z</time></trkpt><trkpt lat="39.438758111221645" lon="16.5054950748079"><ele>1210.0</ele><time>2026-04-25T08:44:04.735Z</time></trkpt><trkpt lat="39.4386890852041" lon="16.5056209322018"><ele>1210.0</ele><time>2026-04-25T08:44:05.735Z</time></trkpt><trkpt lat="39.438655142930756" lon="16.505762713684582"><ele>1210.0</ele><time>2026-04-25T08:44:06.735Z</time></trkpt><trkpt lat="39.43864786847309" lon="16.505928519090983"><ele>1210.0</ele><time>2026-04-25T08:44:07.735Z</time></trkpt><trkpt lat="39.43866539330225" lon="16.50610637980469"><ele>1211.25</ele><time>2026-04-25T08:44:08.735Z</time></trkpt><trkpt lat="39.438703038430596" lon="16.506281971205556"><ele>1212.5</ele><time>2026-04-25T08:44:09.735Z</time></trkpt><trkpt lat="39.43875342037647" lon="16.5064507356825"><ele>1213.75</ele><time>2026-04-25T08:44:10.735Z</time></trkpt><trkpt lat="39.43881748340033" lon="16.50660358842248"><ele>1215.0</ele><time>2026-04-25T08:44:11.735Z</time></trkpt><trkpt lat="39.43886180116442" lon="16.506755888472284"><ele>1215.0</ele><time>2026-04-25T08:44:12.735Z</time></trkpt><trkpt lat="39.43888255887562" lon="16.506895326929538"><ele>1215.0</ele><time>2026-04-25T08:44:13.735Z</time></trkpt><trkpt lat="39.438882270577075" lon="16.507027404014842"><ele>1215.0</ele><time>2026-04-25T08:44:14.735Z</time></trkpt><trkpt lat="39.438872426002405" lon="16.507146571325773"><ele>1215.0</ele><time>2026-04-25T08:44:15.735Z</time></trkpt><trkpt lat="39.43886414188159" lon="16.50727033806816"><ele>1215.0</ele><time>2026-04-25T08:44:16.734Z</time></trkpt><trkpt lat="39.43887103948781" lon="16.507388876667775"><ele>1212.5</ele><time>2026-04-25T08:44:17.734Z</time></trkpt><trkpt lat="39.43890112350617" lon="16.507523926542966"><ele>1210.0</ele><time>2026-04-25T08:44:18.734Z</time></trkpt><trkpt lat="39.43896961783774" lon="16.507673528664515"><ele>1207.5</ele><time>2026-04-25T08:44:19.734Z</time></trkpt><trkpt lat="39.43905469570314" lon="16.507841100844676"><ele>1205.0</ele><time>2026-04-25T08:44:20.734Z</time></trkpt><trkpt lat="39.4391454673851" lon="16.507998363524504"><ele>1204.75</ele><time>2026-04-25T08:44:21.734Z</time></trkpt><trkpt lat="39.43923767378151" lon="16.50810986681827"><ele>1204.5</ele><time>2026-04-25T08:44:22.734Z</time></trkpt><trkpt lat="39.43935013136956" lon="16.508185434329587"><ele>1204.25</ele><time>2026-04-25T08:44:23.734Z</time></trkpt><trkpt lat="39.43949640822023" lon="16.508226982097842"><ele>1204.0</ele><time>2026-04-25T08:44:24.734Z</time></trkpt><trkpt lat="39.43965585115874" lon="16.50824420930426"><ele>1204.0</ele><time>2026-04-25T08:44:25.734Z</time></trkpt><trkpt lat="39.439788996282" lon="16.508269456464305"><ele>1204.0</ele><time>2026-04-25T08:44:26.734Z</time></trkpt><trkpt lat="39.43989487991285" lon="16.508331538182524"><ele>1204.0</ele><time>2026-04-25T08:44:27.734Z</time></trkpt><trkpt lat="39.439948062468694" lon="16.50846423580027"><ele>1204.0</ele><time>2026-04-25T08:44:28.734Z</time></trkpt><trkpt lat="39.43996301101728" lon="16.508610259622778"><ele>1201.5</ele><time>2026-04-25T08:44:29.734Z</time></trkpt><trkpt lat="39.439994338671156" lon="16.50876867576133"><ele>1199.0</ele><time>2026-04-25T08:44:30.734Z</time></trkpt><trkpt lat="39.440022791541324" lon="16.508924425535973"><ele>1196.5</ele><time>2026-04-25T08:44:31.734Z</time></trkpt><trkpt lat="39.440067285697864" lon="16.509078158496074"><ele>1194.0</ele><time>2026-04-25T08:44:32.734Z</time></trkpt><trkpt lat="39.4401277684904" lon="16.509216741171965"><ele>1194.0</ele><time>2026-04-25T08:44:33.734Z</time></trkpt><trkpt lat="39.440201817138856" lon="16.50933227384595"><ele>1194.0</ele><time>2026-04-25T08:44:34.734Z</time></trkpt><trkpt lat="39.44027966118994" lon="16.509425661935722"><ele>1194.0</ele><time>2026-04-25T08:44:35.734Z</time></trkpt><trkpt lat="39.440349719164885" lon="16.509501435793464"><ele>1194.0</ele><time>2026-04-25T08:44:36.734Z</time></trkpt><trkpt lat="39.44036340128346" lon="16.509605896097224"><ele>1194.0</ele><time>2026-04-25T08:44:37.734Z</time></trkpt><trkpt lat="39.440361507483" lon="16.509694550751988"><ele>1193.4</ele><time>2026-04-25T08:44:38.734Z</time></trkpt><trkpt lat="39.44031497520982" lon="16.50978571945698"><ele>1192.8000000000002</ele><time>2026-04-25T08:44:39.734Z</time></trkpt><trkpt lat="39.440253262573336" lon="16.5098700343976"><ele>1192.1999999999998</ele><time>2026-04-25T08:44:40.734Z</time></trkpt><trkpt lat="39.440180175191735" lon="16.50994248160723"><ele>1191.6</ele><time>2026-04-25T08:44:41.734Z</time></trkpt><trkpt lat="39.44008362082569" lon="16.509988321231397"><ele>1191.0</ele><time>2026-04-25T08:44:42.734Z</time></trkpt><trkpt lat="39.4399572630302" lon="16.50997865227431"><ele>1191.0</ele><time>2026-04-25T08:44:43.734Z</time></trkpt><trkpt lat="39.439836510715715" lon="16.51003051365401"><ele>1191.0</ele><time>2026-04-25T08:44:44.734Z</time></trkpt><trkpt lat="39.43972902917247" lon="16.510088190677333"><ele>1191.0</ele><time>2026-04-25T08:44:45.734Z</time></trkpt><trkpt lat="39.43963451630462" lon="16.51016921164659"><ele>1191.0</ele><time>2026-04-25T08:44:46.734Z</time></trkpt><trkpt lat="39.43955525036314" lon="16.510261179007053"><ele>1190.6666666666667</ele><time>2026-04-25T08:44:47.734Z</time></trkpt><trkpt lat="39.43949886319699" lon="16.510352661971602"><ele>1190.3333333333333</ele><time>2026-04-25T08:44:48.734Z</time></trkpt><trkpt lat="39.43943724480001" lon="16.510428597270764"><ele>1190.0</ele><time>2026-04-25T08:44:49.734Z</time></trkpt><trkpt lat="39.43939183872381" lon="16.510519717299857"><ele>1189.6666666666665</ele><time>2026-04-25T08:44:50.734Z</time></trkpt><trkpt lat="39.43935970666263" lon="16.51060494931494"><ele>1189.3333333333333</ele><time>2026-04-25T08:44:51.734Z</time></trkpt><trkpt lat="39.439342134217" lon="16.51069130346857"><ele>1189.0</ele><time>2026-04-25T08:44:52.734Z</time></trkpt><trkpt lat="39.43931688894992" lon="16.51076784327904"><ele>1189.0</ele><time>2026-04-25T08:44:53.734Z</time></trkpt><trkpt lat="39.43929481516641" lon="16.51085691110705"><ele>1189.0</ele><time>2026-04-25T08:44:54.734Z</time></trkpt><trkpt lat="39.43925773960212" lon="16.510969461414074"><ele>1189.0</ele><time>2026-04-25T08:44:55.734Z</time></trkpt><trkpt lat="39.43921888321907" lon="16.51109716362579"><ele>1189.0</ele><time>2026-04-25T08:44:56.734Z</time></trkpt><trkpt lat="39.43918778916716" lon="16.511216825232555"><ele>1189.0</ele><time>2026-04-25T08:44:57.734Z</time></trkpt><trkpt lat="39.43910123941434" lon="16.51126821026177"><ele>1189.0</ele><time>2026-04-25T08:44:58.734Z</time></trkpt><trkpt lat="39.438994849807465" lon="16.51121292360117"><ele>1189.0</ele><time>2026-04-25T08:44:59.734Z</time></trkpt><trkpt lat="39.43888115050449" lon="16.5111879621667"><ele>1189.0</ele><time>2026-04-25T08:45:00.734Z</time></trkpt><trkpt lat="39.438775233356175" lon="16.511203398441737"><ele>1189.0</ele><time>2026-04-25T08:45:01.734Z</time></trkpt><trkpt lat="39.438689008988966" lon="16.511249080173165"><ele>1189.0</ele><time>2026-04-25T08:45:02.734Z</time></trkpt><trkpt lat="39.43862529914735" lon="16.511348180653023"><ele>1188.0</ele><time>2026-04-25T08:45:03.734Z</time></trkpt><trkpt lat="39.43859558336196" lon="16.51148498019863"><ele>1187.0</ele><time>2026-04-25T08:45:04.734Z</time></trkpt><trkpt lat="39.438612384410874" lon="16.511653314225004"><ele>1186.0</ele><time>2026-04-25T08:45:05.734Z</time></trkpt><trkpt lat="39.43866558657466" lon="16.511836778365893"><ele>1185.0</ele><time>2026-04-25T08:45:06.734Z</time></trkpt><trkpt lat="39.43876206623326" lon="16.512067126629315"><ele>1188.5</ele><time>2026-04-25T08:45:07.734Z</time></trkpt><trkpt lat="39.43885373453194" lon="16.512326845610364"><ele>1192.0</ele><time>2026-04-25T08:45:08.734Z</time></trkpt><trkpt lat="39.43890849396095" lon="16.51263324096612"><ele>1192.0</ele><time>2026-04-25T08:45:09.734Z</time></trkpt><trkpt lat="39.438928911152104" lon="16.5129328916082"><ele>1192.0</ele><time>2026-04-25T08:45:10.734Z</time></trkpt><trkpt lat="39.438917792940494" lon="16.513183987181577"><ele>1192.0</ele><time>2026-04-25T08:45:11.734Z</time></trkpt><trkpt lat="39.438881267802905" lon="16.51342789012656"><ele>1192.0</ele><time>2026-04-25T08:45:12.734Z</time></trkpt><trkpt lat="39.438832470934315" lon="16.513688771671198"><ele>1192.0</ele><time>2026-04-25T08:45:13.734Z</time></trkpt><trkpt lat="39.43880295216414" lon="16.513919950908825"><ele>1192.0</ele><time>2026-04-25T08:45:14.734Z</time></trkpt><trkpt lat="39.43878069250985" lon="16.51412653013126"><ele>1195.0</ele><time>2026-04-25T08:45:15.734Z</time></trkpt><trkpt lat="39.43879320173782" lon="16.514314457151134"><ele>1198.0</ele><time>2026-04-25T08:45:16.734Z</time></trkpt><trkpt lat="39.43879725049429" lon="16.514484873990575"><ele>1201.0</ele><time>2026-04-25T08:45:17.734Z</time></trkpt><trkpt lat="39.438790901937814" lon="16.51463960512199"><ele>1204.0</ele><time>2026-04-25T08:45:18.734Z</time></trkpt><trkpt lat="39.43876601177827" lon="16.514791735093546"><ele>1207.25</ele><time>2026-04-25T08:45:19.734Z</time></trkpt><trkpt lat="39.43873637164245" lon="16.514934184645423"><ele>1210.5</ele><time>2026-04-25T08:45:20.734Z</time></trkpt><trkpt lat="39.43870877793463" lon="16.515062119187423"><ele>1213.75</ele><time>2026-04-25T08:45:21.734Z</time></trkpt><trkpt lat="39.43869347798685" lon="16.515211261094397"><ele>1217.0</ele><time>2026-04-25T08:45:22.734Z</time></trkpt><trkpt lat="39.4386382396681" lon="16.515371404043922"><ele>1214.6666666666667</ele><time>2026-04-25T08:45:23.734Z</time></trkpt><trkpt lat="39.43858422624649" lon="16.51559863575658"><ele>1212.3333333333333</ele><time>2026-04-25T08:45:24.734Z</time></trkpt><trkpt lat="39.43852749605213" lon="16.515880395961382"><ele>1210.0</ele><time>2026-04-25T08:45:25.734Z</time></trkpt><trkpt lat="39.438457413471944" lon="16.516192474904297"><ele>1208.0</ele><time>2026-04-25T08:45:26.734Z</time></trkpt><trkpt lat="39.438377801708036" lon="16.51654698754095"><ele>1206.0</ele><time>2026-04-25T08:45:27.734Z</time></trkpt><trkpt lat="39.43829373705728" lon="16.516921328839196"><ele>1205.0</ele><time>2026-04-25T08:45:28.734Z</time></trkpt><trkpt lat="39.43820586228751" lon="16.51731492933889"><ele>1204.0</ele><time>2026-04-25T08:45:29.734Z</time></trkpt><trkpt lat="39.43811662057257" lon="16.517715825806285"><ele>1204.0</ele><time>2026-04-25T08:45:30.734Z</time></trkpt><trkpt lat="39.43804900915886" lon="16.518068958503296"><ele>1204.0</ele><time>2026-04-25T08:45:31.734Z</time></trkpt><trkpt lat="39.43797793187276" lon="16.518379766098736"><ele>1206.3333333333333</ele><time>2026-04-25T08:45:32.734Z</time></trkpt><trkpt lat="39.43791837008886" lon="16.51863911779889"><ele>1208.6666666666667</ele><time>2026-04-25T08:45:33.734Z</time></trkpt><trkpt lat="39.437874646671375" lon="16.51886551790921"><ele>1211.0</ele><time>2026-04-25T08:45:34.734Z</time></trkpt><trkpt lat="39.43784656361381" lon="16.51907189879578"><ele>1211.0</ele><time>2026-04-25T08:45:35.734Z</time></trkpt><trkpt lat="39.437850922464726" lon="16.519292064194225"><ele>1211.0</ele><time>2026-04-25T08:45:36.734Z</time></trkpt><trkpt lat="39.43789887065942" lon="16.51952178791873"><ele>1211.0</ele><time>2026-04-25T08:45:37.734Z</time></trkpt><trkpt lat="39.437967092754945" lon="16.519787225601558"><ele>1211.0</ele><time>2026-04-25T08:45:38.734Z</time></trkpt><trkpt lat="39.4380379973568" lon="16.520087410202475"><ele>1211.0</ele><time>2026-04-25T08:45:39.734Z</time></trkpt><trkpt lat="39.438095718671946" lon="16.520400727087083"><ele>1211.3333333333335</ele><time>2026-04-25T08:45:40.734Z</time></trkpt><trkpt lat="39.438144822603064" lon="16.520653806622086"><ele>1211.6666666666667</ele><time>2026-04-25T08:45:41.734Z</time></trkpt><trkpt lat="39.43820787727597" lon="16.520830333926376"><ele>1212.0</ele><time>2026-04-25T08:45:42.734Z</time></trkpt><trkpt lat="39.43828049667663" lon="16.52095175021763"><ele>1212.0</ele><time>2026-04-25T08:45:43.734Z</time></trkpt><trkpt lat="39.43838867367081" lon="16.521049027272408"><ele>1212.0</ele><time>2026-04-25T08:45:44.734Z</time></trkpt><trkpt lat="39.43852460278181" lon="16.52113275679095"><ele>1212.0</ele><time>2026-04-25T08:45:45.734Z</time></trkpt><trkpt lat="39.438636378454184" lon="16.521222916601143"><ele>1212.0</ele><time>2026-04-25T08:45:46.734Z</time></trkpt><trkpt lat="39.438666124701285" lon="16.521358855948915"><ele>1211.25</ele><time>2026-04-25T08:45:47.734Z</time></trkpt><trkpt lat="39.438632598182096" lon="16.52149175000962"><ele>1210.5</ele><time>2026-04-25T08:45:48.734Z</time></trkpt><trkpt lat="39.43860819880772" lon="16.52167684712745"><ele>1209.75</ele><time>2026-04-25T08:45:49.734Z</time></trkpt><trkpt lat="39.43859110889211" lon="16.52187958746855"><ele>1209.0</ele><time>2026-04-25T08:45:50.734Z</time></trkpt><trkpt lat="39.43855846573347" lon="16.522030513502695"><ele>1208.6666666666667</ele><time>2026-04-25T08:45:51.734Z</time></trkpt><trkpt lat="39.438552752872866" lon="16.522145217061677"><ele>1208.3333333333333</ele><time>2026-04-25T08:45:52.734Z</time></trkpt><trkpt lat="39.43856874976487" lon="16.522233586618615"><ele>1208.0</ele><time>2026-04-25T08:45:53.734Z</time></trkpt><trkpt lat="39.43859668219592" lon="16.522310360775737"><ele>1207.6666666666665</ele><time>2026-04-25T08:45:55.734Z</time></trkpt><trkpt lat="39.43863377672996" lon="16.52239302638344"><ele>1207.3333333333333</ele><time>2026-04-25T08:47:40.733Z</time></trkpt><trkpt lat="39.438669018381376" lon="16.52249594344444"><ele>1207.0</ele><time>2026-04-25T08:47:41.733Z</time></trkpt><trkpt lat="39.43871227524437" lon="16.522622707234074"><ele>1207.0</ele><time>2026-04-25T08:47:42.733Z</time></trkpt><trkpt lat="39.43877079082157" lon="16.52274959675227"><ele>1207.0</ele><time>2026-04-25T08:47:43.733Z</time></trkpt><trkpt lat="39.43883913552448" lon="16.52285033811585"><ele>1207.0</ele><time>2026-04-25T08:47:44.733Z</time></trkpt><trkpt lat="39.43891811809706" lon="16.522918515399013"><ele>1207.0</ele><time>2026-04-25T08:47:45.733Z</time></trkpt><trkpt lat="39.439009699574946" lon="16.522962786688318"><ele>1207.0</ele><time>2026-04-25T08:47:46.733Z</time></trkpt><trkpt lat="39.43910981505458" lon="16.52297690911874"><ele>1207.5</ele><time>2026-04-25T08:47:47.733Z</time></trkpt><trkpt lat="39.43920656087592" lon="16.52293045206477"><ele>1208.0</ele><time>2026-04-25T08:47:48.733Z</time></trkpt><trkpt lat="39.43930924152406" lon="16.52281507662022"><ele>1208.5</ele><time>2026-04-25T08:47:49.733Z</time></trkpt><trkpt lat="39.439423338333995" lon="16.522665266118835"><ele>1209.0</ele><time>2026-04-25T08:47:50.733Z</time></trkpt><trkpt lat="39.43956164172582" lon="16.522501018120714"><ele>1210.0</ele><time>2026-04-25T08:47:51.733Z</time></trkpt><trkpt lat="39.4397174500741" lon="16.522356179810252"><ele>1211.0</ele><time>2026-04-25T08:47:52.733Z</time></trkpt><trkpt lat="39.439867534294244" lon="16.522249299981745"><ele>1212.0</ele><time>2026-04-25T08:47:53.733Z</time></trkpt><trkpt lat="39.440022182514056" lon="16.522215008948"><ele>1212.0</ele><time>2026-04-25T08:47:54.733Z</time></trkpt><trkpt lat="39.44018137225433" lon="16.522196814961116"><ele>1212.0</ele><time>2026-04-25T08:47:55.733Z</time></trkpt><trkpt lat="39.44035372700368" lon="16.522181854562113"><ele>1212.0</ele><time>2026-04-25T08:47:56.733Z</time></trkpt><trkpt lat="39.44051076492081" lon="16.522197620145835"><ele>1213.0</ele><time>2026-04-25T08:47:57.733Z</time></trkpt><trkpt lat="39.440647644644315" lon="16.522232544389404"><ele>1214.0</ele><time>2026-04-25T08:47:58.733Z</time></trkpt><trkpt lat="39.44075857320467" lon="16.522308179915196"><ele>1215.0</ele><time>2026-04-25T08:47:59.733Z</time></trkpt><trkpt lat="39.44084821684701" lon="16.522430415971147"><ele>1216.0</ele><time>2026-04-25T08:48:00.733Z</time></trkpt><trkpt lat="39.440896582572506" lon="16.522575728588382"><ele>1216.0</ele><time>2026-04-25T08:48:01.733Z</time></trkpt><trkpt lat="39.44089075011762" lon="16.522723078476986"><ele>1216.0</ele><time>2026-04-25T08:48:02.733Z</time></trkpt><trkpt lat="39.44080528725799" lon="16.522857545521482"><ele>1216.0</ele><time>2026-04-25T08:48:03.733Z</time></trkpt><trkpt lat="39.44075006398601" lon="16.523047446460957"><ele>1216.0</ele><time>2026-04-25T08:48:04.733Z</time></trkpt><trkpt lat="39.44065806617442" lon="16.523247090514907"><ele>1216.0</ele><time>2026-04-25T08:48:05.733Z</time></trkpt><trkpt lat="39.440568457857665" lon="16.523475848964885"><ele>1216.0</ele><time>2026-04-25T08:48:06.733Z</time></trkpt><trkpt lat="39.4404565548835" lon="16.52372715806751"><ele>1216.0</ele><time>2026-04-25T08:48:07.733Z</time></trkpt><trkpt lat="39.44034795126979" lon="16.52399611325464"><ele>1214.5</ele><time>2026-04-25T08:48:08.733Z</time></trkpt><trkpt lat="39.440240775709306" lon="16.524277128738944"><ele>1213.0</ele><time>2026-04-25T08:48:09.733Z</time></trkpt><trkpt lat="39.44015897737965" lon="16.524531883298454"><ele>1215.0</ele><time>2026-04-25T08:48:10.733Z</time></trkpt><trkpt lat="39.44006875964859" lon="16.524747608926074"><ele>1217.0</ele><time>2026-04-25T08:48:11.734Z</time></trkpt><trkpt lat="39.439949169084755" lon="16.524929313627563"><ele>1219.0</ele><time>2026-04-25T08:48:12.734Z</time></trkpt><trkpt lat="39.439798732930356" lon="16.52510441938204"><ele>1218.6666666666665</ele><time>2026-04-25T08:48:13.734Z</time></trkpt><trkpt lat="39.43962697436583" lon="16.525284670832843"><ele>1218.3333333333333</ele><time>2026-04-25T08:48:14.734Z</time></trkpt><trkpt lat="39.439473184487376" lon="16.525466283558263"><ele>1218.0</ele><time>2026-04-25T08:48:15.734Z</time></trkpt><trkpt lat="39.43932390450097" lon="16.52561533115815"><ele>1218.0</ele><time>2026-04-25T08:48:16.734Z</time></trkpt><trkpt lat="39.43918702969602" lon="16.525757716085508"><ele>1218.0</ele><time>2026-04-25T08:48:17.734Z</time></trkpt><trkpt lat="39.4390642228484" lon="16.525889248428463"><ele>1218.0</ele><time>2026-04-25T08:48:18.734Z</time></trkpt><trkpt lat="39.438959190626704" lon="16.526014517510276"><ele>1218.0</ele><time>2026-04-25T08:48:19.734Z</time></trkpt><trkpt lat="39.43888653864566" lon="16.52615165603896"><ele>1218.0</ele><time>2026-04-25T08:48:20.734Z</time></trkpt><trkpt lat="39.438829625484175" lon="16.52632460550041"><ele>1218.0</ele><time>2026-04-25T08:48:21.734Z</time></trkpt><trkpt lat="39.438783425745015" lon="16.526523610561032"><ele>1218.0</ele><time>2026-04-25T08:48:22.734Z</time></trkpt><trkpt lat="39.438728174332226" lon="16.526728516728156"><ele>1216.6666666666667</ele><time>2026-04-25T08:48:23.734Z</time></trkpt><trkpt lat="39.43866227632103" lon="16.52693577939394"><ele>1215.3333333333335</ele><time>2026-04-25T08:48:24.734Z</time></trkpt><trkpt lat="39.43859093359698" lon="16.527159057964393"><ele>1214.0</ele><time>2026-04-25T08:48:25.734Z</time></trkpt><trkpt lat="39.43852260645583" lon="16.527403483232444"><ele>1214.0</ele><time>2026-04-25T08:48:26.734Z</time></trkpt><trkpt lat="39.438469625349676" lon="16.527662679440986"><ele>1214.0</ele><time>2026-04-25T08:48:27.734Z</time></trkpt><trkpt lat="39.43843711762939" lon="16.52792656999313"><ele>1214.0</ele><time>2026-04-25T08:48:28.734Z</time></trkpt><trkpt lat="39.438392447317725" lon="16.528164075093585"><ele>1215.3333333333335</ele><time>2026-04-25T08:48:29.734Z</time></trkpt><trkpt lat="39.43835398046167" lon="16.5283751580286"><ele>1216.6666666666667</ele><time>2026-04-25T08:48:30.734Z</time></trkpt><trkpt lat="39.438298358373714" lon="16.52855196165645"><ele>1218.0</ele><time>2026-04-25T08:48:31.734Z</time></trkpt><trkpt lat="39.438198859377344" lon="16.528702212291204"><ele>1218.6666666666667</ele><time>2026-04-25T08:48:32.734Z</time></trkpt><trkpt lat="39.43806886188776" lon="16.528869646707996"><ele>1219.3333333333335</ele><time>2026-04-25T08:48:33.734Z</time></trkpt><trkpt lat="39.43791316899634" lon="16.529054076768944"><ele>1220.0</ele><time>2026-04-25T08:48:34.734Z</time></trkpt><trkpt lat="39.4377609820844" lon="16.529259539385595"><ele>1221.5</ele><time>2026-04-25T08:48:35.734Z</time></trkpt><trkpt lat="39.43759048773938" lon="16.52945643672697"><ele>1223.0</ele><time>2026-04-25T08:48:36.734Z</time></trkpt><trkpt lat="39.437424332832926" lon="16.529656278634015"><ele>1223.3333333333335</ele><time>2026-04-25T08:48:37.734Z</time></trkpt><trkpt lat="39.43727582772757" lon="16.529840287694796"><ele>1223.6666666666667</ele><time>2026-04-25T08:48:38.734Z</time></trkpt><trkpt lat="39.437149939975406" lon="16.53003021154026"><ele>1224.0</ele><time>2026-04-25T08:48:39.734Z</time></trkpt><trkpt lat="39.437028853949265" lon="16.53025620778325"><ele>1224.6666666666667</ele><time>2026-04-25T08:48:40.734Z</time></trkpt><trkpt lat="39.43692743787855" lon="16.530472332776302"><ele>1225.3333333333335</ele><time>2026-04-25T08:48:41.734Z</time></trkpt><trkpt lat="39.43682548887215" lon="16.530665393711157"><ele>1226.0</ele><time>2026-04-25T08:48:42.734Z</time></trkpt><trkpt lat="39.43672641712043" lon="16.53081031898463"><ele>1226.0</ele><time>2026-04-25T08:48:43.734Z</time></trkpt><trkpt lat="39.4366278654292" lon="16.53089348021346"><ele>1226.0</ele><time>2026-04-25T08:48:44.734Z</time></trkpt><trkpt lat="39.43651402089458" lon="16.53090497707208"><ele>1226.0</ele><time>2026-04-25T08:48:45.734Z</time></trkpt><trkpt lat="39.43640823859318" lon="16.53089812327712"><ele>1226.0</ele><time>2026-04-25T08:48:46.734Z</time></trkpt><trkpt lat="39.43630367588008" lon="16.530897776857095"><ele>1226.0</ele><time>2026-04-25T08:48:47.734Z</time></trkpt><trkpt lat="39.4362068744108" lon="16.53092993317305"><ele>1225.75</ele><time>2026-04-25T08:48:48.734Z</time></trkpt><trkpt lat="39.43613829139803" lon="16.531035794174905"><ele>1225.5</ele><time>2026-04-25T08:48:49.734Z</time></trkpt><trkpt lat="39.43612072766904" lon="16.531190125623517"><ele>1225.25</ele><time>2026-04-25T08:48:50.734Z</time></trkpt><trkpt lat="39.43611754390627" lon="16.53136838067596"><ele>1225.0</ele><time>2026-04-25T08:48:51.734Z</time></trkpt><trkpt lat="39.43611240410876" lon="16.53157250775509"><ele>1225.0</ele><time>2026-04-25T08:48:52.734Z</time></trkpt><trkpt lat="39.43608336226706" lon="16.531733314875265"><ele>1225.0</ele><time>2026-04-25T08:48:53.734Z</time></trkpt><trkpt lat="39.43602958959348" lon="16.53182984497547"><ele>1225.0</ele><time>2026-04-25T08:48:54.734Z</time></trkpt><trkpt lat="39.435951162839544" lon="16.531870850709357"><ele>1225.0</ele><time>2026-04-25T08:48:55.733Z</time></trkpt><trkpt lat="39.43584014993155" lon="16.531914280733837"><ele>1225.0</ele><time>2026-04-25T08:48:56.733Z</time></trkpt><trkpt lat="39.43574680046817" lon="16.53198043563204"><ele>1223.5</ele><time>2026-04-25T08:48:57.733Z</time></trkpt><trkpt lat="39.4356890957456" lon="16.53208862084682"><ele>1222.0</ele><time>2026-04-25T08:48:58.733Z</time></trkpt><trkpt lat="39.43566876742363" lon="16.532234519655887"><ele>1220.5</ele><time>2026-04-25T08:48:59.733Z</time></trkpt><trkpt lat="39.435662129632966" lon="16.53243638347412"><ele>1219.0</ele><time>2026-04-25T08:49:00.733Z</time></trkpt><trkpt lat="39.43562130337493" lon="16.532638471854266"><ele>1219.0</ele><time>2026-04-25T08:49:01.733Z</time></trkpt><trkpt lat="39.43557009289118" lon="16.532824734216163"><ele>1219.0</ele><time>2026-04-25T08:49:02.733Z</time></trkpt><trkpt lat="39.43549032038" lon="16.53295624204653"><ele>1219.0</ele><time>2026-04-25T08:49:03.733Z</time></trkpt><trkpt lat="39.4353943414262" lon="16.533017450195004"><ele>1219.0</ele><time>2026-04-25T08:49:04.733Z</time></trkpt><trkpt lat="39.4352997509508" lon="16.53305290220791"><ele>1219.25</ele><time>2026-04-25T08:49:05.733Z</time></trkpt><trkpt lat="39.43521197986711" lon="16.532963869574182"><ele>1219.5</ele><time>2026-04-25T08:49:06.733Z</time></trkpt><trkpt lat="39.43515138631179" lon="16.532863903342943"><ele>1219.75</ele><time>2026-04-25T08:49:07.733Z</time></trkpt><trkpt lat="39.43511713657699" lon="16.532712952251135"><ele>1220.0</ele><time>2026-04-25T08:49:08.733Z</time></trkpt><trkpt lat="39.435061813397205" lon="16.532494953586212"><ele>1220.0</ele><time>2026-04-25T08:49:09.733Z</time></trkpt><trkpt lat="39.43502192126625" lon="16.53226171988825"><ele>1220.0</ele><time>2026-04-25T08:49:10.733Z</time></trkpt><trkpt lat="39.434979186042014" lon="16.532055530891736"><ele>1220.0</ele><time>2026-04-25T08:49:11.733Z</time></trkpt><trkpt lat="39.43493415415072" lon="16.531887957808546"><ele>1221.0</ele><time>2026-04-25T08:49:12.733Z</time></trkpt><trkpt lat="39.4348771404635" lon="16.53176594859432"><ele>1222.0</ele><time>2026-04-25T08:49:13.733Z</time></trkpt><trkpt lat="39.434799227335695" lon="16.53170354130291"><ele>1223.0</ele><time>2026-04-25T08:49:14.733Z</time></trkpt><trkpt lat="39.434700651993055" lon="16.531683244998977"><ele>1224.0</ele><time>2026-04-25T08:49:15.733Z</time></trkpt><trkpt lat="39.43457653463156" lon="16.53172160039211"><ele>1225.0</ele><time>2026-04-25T08:49:16.733Z</time></trkpt><trkpt lat="39.43444355355849" lon="16.53176311155049"><ele>1225.0</ele><time>2026-04-25T08:49:17.733Z</time></trkpt><trkpt lat="39.43430611121949" lon="16.531832344610464"><ele>1225.0</ele><time>2026-04-25T08:49:18.733Z</time></trkpt><trkpt lat="39.43416394896956" lon="16.531903955198253"><ele>1225.0</ele><time>2026-04-25T08:49:19.733Z</time></trkpt><trkpt lat="39.43403649701069" lon="16.531964773369907"><ele>1225.0</ele><time>2026-04-25T08:49:20.733Z</time></trkpt><trkpt lat="39.433917861111404" lon="16.5320384991839"><ele>1225.6666666666665</ele><time>2026-04-25T08:49:21.733Z</time></trkpt><trkpt lat="39.433768384494094" lon="16.53205113869975"><ele>1226.3333333333333</ele><time>2026-04-25T08:49:22.733Z</time></trkpt><trkpt lat="39.43358303505487" lon="16.532046899915617"><ele>1227.0</ele><time>2026-04-25T08:49:23.733Z</time></trkpt><trkpt lat="39.43337132569077" lon="16.532028537813158"><ele>1227.0</ele><time>2026-04-25T08:49:24.733Z</time></trkpt><trkpt lat="39.43312982296771" lon="16.53200350530872"><ele>1227.0</ele><time>2026-04-25T08:49:25.733Z</time></trkpt><trkpt lat="39.43286454396432" lon="16.531999660720093"><ele>1228.5</ele><time>2026-04-25T08:49:26.733Z</time></trkpt><trkpt lat="39.43259886518359" lon="16.532009165223673"><ele>1230.0</ele><time>2026-04-25T08:49:27.733Z</time></trkpt><trkpt lat="39.43237635474241" lon="16.532017125403748"><ele>1230.0</ele><time>2026-04-25T08:49:28.733Z</time></trkpt><trkpt lat="39.43218780674356" lon="16.532023870597886"><ele>1230.0</ele><time>2026-04-25T08:49:29.733Z</time></trkpt><trkpt lat="39.43201027180546" lon="16.53203279519333"><ele>1230.0</ele><time>2026-04-25T08:49:30.733Z</time></trkpt><trkpt lat="39.43184515153086" lon="16.532055269346497"><ele>1229.3333333333333</ele><time>2026-04-25T08:49:31.733Z</time></trkpt><trkpt lat="39.43169647485245" lon="16.532128713905934"><ele>1228.6666666666665</ele><time>2026-04-25T08:49:32.733Z</time></trkpt><trkpt lat="39.43152636571098" lon="16.532234671566172"><ele>1228.0</ele><time>2026-04-25T08:49:33.733Z</time></trkpt><trkpt lat="39.431336820905194" lon="16.532382213872463"><ele>1230.0</ele><time>2026-04-25T08:49:34.733Z</time></trkpt><trkpt lat="39.431128743125804" lon="16.53253766008423"><ele>1232.0</ele><time>2026-04-25T08:49:35.733Z</time></trkpt><trkpt lat="39.43088819304435" lon="16.532684435485347"><ele>1232.0</ele><time>2026-04-25T08:49:36.733Z</time></trkpt><trkpt lat="39.4306346848836" lon="16.532853948205595"><ele>1232.0</ele><time>2026-04-25T08:49:37.733Z</time></trkpt><trkpt lat="39.430397467349785" lon="16.533015234776176"><ele>1231.5</ele><time>2026-04-25T08:49:38.733Z</time></trkpt><trkpt lat="39.43018274678271" lon="16.533179339591044"><ele>1231.0</ele><time>2026-04-25T08:49:39.733Z</time></trkpt><trkpt lat="39.42999827330943" lon="16.533296817663643"><ele>1231.0</ele><time>2026-04-25T08:49:40.733Z</time></trkpt><trkpt lat="39.429851502357565" lon="16.533398706558994"><ele>1231.0</ele><time>2026-04-25T08:49:41.733Z</time></trkpt><trkpt lat="39.429736832122096" lon="16.533497207168224"><ele>1231.0</ele><time>2026-04-25T08:49:42.733Z</time></trkpt><trkpt lat="39.42964004182509" lon="16.533634280533352"><ele>1231.0</ele><time>2026-04-25T08:49:43.733Z</time></trkpt><trkpt lat="39.42953795849253" lon="16.533834054090722"><ele>1230.6666666666665</ele><time>2026-04-25T08:49:44.733Z</time></trkpt><trkpt lat="39.42941431344522" lon="16.53406269394488"><ele>1230.3333333333333</ele><time>2026-04-25T08:49:45.733Z</time></trkpt><trkpt lat="39.42928506964115" lon="16.53431293416609"><ele>1230.0</ele><time>2026-04-25T08:49:46.733Z</time></trkpt><trkpt lat="39.429115964772954" lon="16.534562263908022"><ele>1230.0</ele><time>2026-04-25T08:49:47.733Z</time></trkpt><trkpt lat="39.42891351729156" lon="16.534776282477676"><ele>1230.0</ele><time>2026-04-25T08:49:48.733Z</time></trkpt><trkpt lat="39.42868696427179" lon="16.53498369033928"><ele>1228.5</ele><time>2026-04-25T08:49:49.733Z</time></trkpt><trkpt lat="39.42847594521648" lon="16.535170795385934"><ele>1227.0</ele><time>2026-04-25T08:49:50.733Z</time></trkpt><trkpt lat="39.428280883770846" lon="16.53534375151585"><ele>1227.3333333333333</ele><time>2026-04-25T08:49:51.733Z</time></trkpt><trkpt lat="39.42810170318309" lon="16.535500754844758"><ele>1227.6666666666665</ele><time>2026-04-25T08:49:52.733Z</time></trkpt><trkpt lat="39.427939234285525" lon="16.535648990630218"><ele>1228.0</ele><time>2026-04-25T08:49:53.733Z</time></trkpt><trkpt lat="39.42779839647405" lon="16.535786007825383"><ele>1228.3333333333333</ele><time>2026-04-25T08:49:54.733Z</time></trkpt><trkpt lat="39.4276731101556" lon="16.535918291457715"><ele>1228.6666666666667</ele><time>2026-04-25T08:49:55.733Z</time></trkpt><trkpt lat="39.427570361480676" lon="16.53606015068155"><ele>1229.0</ele><time>2026-04-25T08:49:56.733Z</time></trkpt><trkpt lat="39.42745414581602" lon="16.536161113937936"><ele>1229.5</ele><time>2026-04-25T08:49:57.733Z</time></trkpt><trkpt lat="39.427359942299354" lon="16.53628922890403"><ele>1230.0</ele><time>2026-04-25T08:49:58.733Z</time></trkpt><trkpt lat="39.427263524719045" lon="16.536392152848435"><ele>1230.5</ele><time>2026-04-25T08:49:59.733Z</time></trkpt><trkpt lat="39.42717473185548" lon="16.536485217875125"><ele>1231.0</ele><time>2026-04-25T08:50:00.733Z</time></trkpt><trkpt lat="39.42707882333537" lon="16.536552705316797"><ele>1231.8333333333333</ele><time>2026-04-25T08:50:01.733Z</time></trkpt><trkpt lat="39.42700476744727" lon="16.53664764796918"><ele>1232.6666666666665</ele><time>2026-04-25T08:50:02.733Z</time></trkpt><trkpt lat="39.42693166773956" lon="16.536718325765513"><ele>1233.5</ele><time>2026-04-25T08:50:03.733Z</time></trkpt><trkpt lat="39.42685447854653" lon="16.536765265952504"><ele>1234.3333333333333</ele><time>2026-04-25T08:50:04.733Z</time></trkpt><trkpt lat="39.42679154056657" lon="16.53682256932992"><ele>1235.1666666666667</ele><time>2026-04-25T08:50:05.733Z</time></trkpt><trkpt lat="39.426731832934394" lon="16.536876931584864"><ele>1236.0</ele><time>2026-04-25T08:50:06.733Z</time></trkpt><trkpt lat="39.426678607374946" lon="16.536924001158138"><ele>1236.0</ele><time>2026-04-25T08:50:07.733Z</time></trkpt><trkpt lat="39.42661023150431" lon="16.53700256431118"><ele>1236.0</ele><time>2026-04-25T08:50:09.733Z</time></trkpt><trkpt lat="39.42653458423023" lon="16.53705091327621"><ele>1236.0</ele><time>2026-04-25T08:51:12.732Z</time></trkpt><trkpt lat="39.42645812387466" lon="16.53711907010428"><ele>1236.0</ele><time>2026-04-25T08:51:13.732Z</time></trkpt><trkpt lat="39.4263608135562" lon="16.537208378736405"><ele>1236.0</ele><time>2026-04-25T08:51:14.732Z</time></trkpt><trkpt lat="39.42624515140923" lon="16.53732934309269"><ele>1238.6666666666667</ele><time>2026-04-25T08:51:15.732Z</time></trkpt><trkpt lat="39.426114673895405" lon="16.537457018157976"><ele>1241.3333333333335</ele><time>2026-04-25T08:51:16.732Z</time></trkpt><trkpt lat="39.4259817256965" lon="16.53763693957226"><ele>1244.0</ele><time>2026-04-25T08:51:17.732Z</time></trkpt><trkpt lat="39.42587623628419" lon="16.537822544388845"><ele>1243.0</ele><time>2026-04-25T08:51:18.732Z</time></trkpt><trkpt lat="39.425802299200704" lon="16.538054329224167"><ele>1242.0</ele><time>2026-04-25T08:51:19.732Z</time></trkpt><trkpt lat="39.42576227817662" lon="16.538291977834387"><ele>1241.0</ele><time>2026-04-25T08:51:20.732Z</time></trkpt><trkpt lat="39.42573957656434" lon="16.53850591266056"><ele>1241.0</ele><time>2026-04-25T08:51:21.732Z</time></trkpt><trkpt lat="39.425693862818356" lon="16.538695537875956"><ele>1241.0</ele><time>2026-04-25T08:51:22.732Z</time></trkpt><trkpt lat="39.425605733732304" lon="16.538879974253838"><ele>1241.0</ele><time>2026-04-25T08:51:23.732Z</time></trkpt><trkpt lat="39.42544513879296" lon="16.53903725664272"><ele>1240.5</ele><time>2026-04-25T08:51:24.732Z</time></trkpt><trkpt lat="39.42525761902636" lon="16.5392442312234"><ele>1240.0</ele><time>2026-04-25T08:51:25.732Z</time></trkpt><trkpt lat="39.42506838990358" lon="16.53947890440936"><ele>1239.5</ele><time>2026-04-25T08:51:26.732Z</time></trkpt><trkpt lat="39.42485137200868" lon="16.539727461698693"><ele>1239.0</ele><time>2026-04-25T08:51:27.732Z</time></trkpt><trkpt lat="39.424633366930884" lon="16.539987983729024"><ele>1239.0</ele><time>2026-04-25T08:51:28.732Z</time></trkpt><trkpt lat="39.42444457329722" lon="16.5402206586989"><ele>1239.0</ele><time>2026-04-25T08:51:29.732Z</time></trkpt><trkpt lat="39.424272466946626" lon="16.540412947798504"><ele>1241.0</ele><time>2026-04-25T08:51:30.732Z</time></trkpt><trkpt lat="39.424133969390475" lon="16.540606248138253"><ele>1243.0</ele><time>2026-04-25T08:51:31.732Z</time></trkpt><trkpt lat="39.42399658829065" lon="16.540745218621396"><ele>1245.0</ele><time>2026-04-25T08:51:32.732Z</time></trkpt><trkpt lat="39.42387522203335" lon="16.540848700749592"><ele>1244.6</ele><time>2026-04-25T08:51:33.732Z</time></trkpt><trkpt lat="39.42377626096161" lon="16.540930479066528"><ele>1244.2</ele><time>2026-04-25T08:51:34.732Z</time></trkpt><trkpt lat="39.423729109206164" lon="16.54100666290058"><ele>1243.8</ele><time>2026-04-25T08:51:35.732Z</time></trkpt><trkpt lat="39.4236799640854" lon="16.54107315873665"><ele>1243.4</ele><time>2026-04-25T08:51:38.732Z</time></trkpt><trkpt lat="39.42363178962647" lon="16.54113834133591"><ele>1243.0</ele><time>2026-04-25T08:52:01.732Z</time></trkpt><trkpt lat="39.42354287227687" lon="16.54095746449347"><ele>1243.0</ele><time>2026-04-25T08:52:02.732Z</time></trkpt><trkpt lat="39.423444996746575" lon="16.540868789678555"><ele>1243.0</ele><time>2026-04-25T08:52:03.732Z</time></trkpt><trkpt lat="39.42330927905484" lon="16.540749566984207"><ele>1243.0</ele><time>2026-04-25T08:52:04.731Z</time></trkpt><trkpt lat="39.42318543175268" lon="16.54067606174878"><ele>1243.0</ele><time>2026-04-25T08:52:05.731Z</time></trkpt><trkpt lat="39.423093007619435" lon="16.540608269438366"><ele>1243.0</ele><time>2026-04-25T08:52:06.731Z</time></trkpt><trkpt lat="39.42298298382046" lon="16.540603501437115"><ele>1243.0</ele><time>2026-04-25T08:52:07.731Z</time></trkpt><trkpt lat="39.42287833484314" lon="16.5406346250581"><ele>1243.0</ele><time>2026-04-25T08:52:08.731Z</time></trkpt><trkpt lat="39.42279859420371" lon="16.540730275239916"><ele>1243.0</ele><time>2026-04-25T08:52:09.731Z</time></trkpt><trkpt lat="39.42273739133025" lon="16.540856127954413"><ele>1243.0</ele><time>2026-04-25T08:52:10.731Z</time></trkpt><trkpt lat="39.422703673673475" lon="16.54104385164639"><ele>1242.3333333333333</ele><time>2026-04-25T08:52:11.731Z</time></trkpt><trkpt lat="39.42264529495324" lon="16.541266841450646"><ele>1241.6666666666667</ele><time>2026-04-25T08:52:12.731Z</time></trkpt><trkpt lat="39.42260462915596" lon="16.54151302299708"><ele>1241.0</ele><time>2026-04-25T08:52:13.731Z</time></trkpt><trkpt lat="39.42254222353401" lon="16.541717519677285"><ele>1241.0</ele><time>2026-04-25T08:52:14.731Z</time></trkpt><trkpt lat="39.42245749074381" lon="16.541861023639896"><ele>1241.0</ele><time>2026-04-25T08:52:15.731Z</time></trkpt><trkpt lat="39.422366655407664" lon="16.541937203708247"><ele>1241.0</ele><time>2026-04-25T08:52:16.731Z</time></trkpt><trkpt lat="39.42225315598755" lon="16.541993135352772"><ele>1241.0</ele><time>2026-04-25T08:52:17.731Z</time></trkpt><trkpt lat="39.42208667526062" lon="16.542023428889706"><ele>1242.6666666666667</ele><time>2026-04-25T08:52:18.731Z</time></trkpt><trkpt lat="39.42187818077685" lon="16.542066364656876"><ele>1244.3333333333333</ele><time>2026-04-25T08:52:19.731Z</time></trkpt><trkpt lat="39.42164853521522" lon="16.54207848489851"><ele>1246.0</ele><time>2026-04-25T08:52:20.731Z</time></trkpt><trkpt lat="39.42141200663289" lon="16.54211760561831"><ele>1241.6666666666665</ele><time>2026-04-25T08:52:21.731Z</time></trkpt><trkpt lat="39.421210227105036" lon="16.542178566378734"><ele>1237.3333333333333</ele><time>2026-04-25T08:52:22.731Z</time></trkpt><trkpt lat="39.42103985049325" lon="16.542256941453914"><ele>1233.0</ele><time>2026-04-25T08:52:23.732Z</time></trkpt><trkpt lat="39.42089508976866" lon="16.54231757051922"><ele>1233.0</ele><time>2026-04-25T08:52:24.732Z</time></trkpt><trkpt lat="39.420791407181255" lon="16.542388835138684"><ele>1233.0</ele><time>2026-04-25T08:52:25.732Z</time></trkpt><trkpt lat="39.42071474127713" lon="16.542435689937342"><ele>1233.0</ele><time>2026-04-25T08:52:26.732Z</time></trkpt><trkpt lat="39.42066613176089" lon="16.54248915571836"><ele>1233.0</ele><time>2026-04-25T08:52:27.732Z</time></trkpt><trkpt lat="39.42065994742062" lon="16.542605608824243"><ele>1233.0</ele><time>2026-04-25T08:52:28.732Z</time></trkpt><trkpt lat="39.42069247991609" lon="16.54273495126216"><ele>1234.3333333333333</ele><time>2026-04-25T08:52:29.732Z</time></trkpt><trkpt lat="39.42076971034591" lon="16.542888201226873"><ele>1235.6666666666665</ele><time>2026-04-25T08:52:30.732Z</time></trkpt><trkpt lat="39.420868980932994" lon="16.543049983795857"><ele>1237.0</ele><time>2026-04-25T08:52:31.732Z</time></trkpt><trkpt lat="39.42098394077655" lon="16.5432329557976"><ele>1237.0</ele><time>2026-04-25T08:52:32.732Z</time></trkpt><trkpt lat="39.4210780750695" lon="16.54336740304825"><ele>1237.0</ele><time>2026-04-25T08:52:33.732Z</time></trkpt><trkpt lat="39.42114510674284" lon="16.543486197607795"><ele>1237.0</ele><time>2026-04-25T08:52:34.732Z</time></trkpt><trkpt lat="39.42118350966317" lon="16.543598745735817"><ele>1237.0</ele><time>2026-04-25T08:52:35.732Z</time></trkpt><trkpt lat="39.42119057423668" lon="16.543707625868254"><ele>1237.0</ele><time>2026-04-25T08:52:36.732Z</time></trkpt><trkpt lat="39.42111344084887" lon="16.54381513197164"><ele>1237.0</ele><time>2026-04-25T08:52:38.732Z</time></trkpt><trkpt lat="39.4210369847806" lon="16.543807405165886"><ele>1237.0</ele><time>2026-04-25T08:52:39.732Z</time></trkpt><trkpt lat="39.4209350895226" lon="16.543690085248418"><ele>1237.0</ele><time>2026-04-25T08:52:40.732Z</time></trkpt><trkpt lat="39.42081478163188" lon="16.543579517436818"><ele>1237.0</ele><time>2026-04-25T08:52:41.732Z</time></trkpt><trkpt lat="39.42065092456582" lon="16.543497137171453"><ele>1243.5</ele><time>2026-04-25T08:52:42.732Z</time></trkpt><trkpt lat="39.42044096350138" lon="16.54345906443247"><ele>1250.0</ele><time>2026-04-25T08:52:43.732Z</time></trkpt><trkpt lat="39.42021434669611" lon="16.543356883246854"><ele>1250.0</ele><time>2026-04-25T08:52:44.732Z</time></trkpt><trkpt lat="39.41998529529212" lon="16.543181422532353"><ele>1250.0</ele><time>2026-04-25T08:52:45.732Z</time></trkpt><trkpt lat="39.41974463251043" lon="16.543041450762907"><ele>1257.5</ele><time>2026-04-25T08:52:46.732Z</time></trkpt><trkpt lat="39.41951480108032" lon="16.54295835761976"><ele>1265.0</ele><time>2026-04-25T08:52:47.732Z</time></trkpt><trkpt lat="39.41927592311162" lon="16.5428639497449"><ele>1261.3333333333335</ele><time>2026-04-25T08:52:48.732Z</time></trkpt><trkpt lat="39.41906670703952" lon="16.542765746812524"><ele>1257.6666666666667</ele><time>2026-04-25T08:52:49.732Z</time></trkpt><trkpt lat="39.41888597558639" lon="16.542696516722547"><ele>1254.0</ele><time>2026-04-25T08:52:50.732Z</time></trkpt><trkpt lat="39.41872745711584" lon="16.54263230360391"><ele>1254.0</ele><time>2026-04-25T08:52:51.732Z</time></trkpt><trkpt lat="39.41859120383823" lon="16.542542865022646"><ele>1254.0</ele><time>2026-04-25T08:52:52.732Z</time></trkpt><trkpt lat="39.41847215372213" lon="16.542404774120556"><ele>1254.0</ele><time>2026-04-25T08:52:53.732Z</time></trkpt><trkpt lat="39.41833965627885" lon="16.54224325897545"><ele>1254.0</ele><time>2026-04-25T08:52:54.732Z</time></trkpt><trkpt lat="39.41817029202465" lon="16.542129271505672"><ele>1254.0</ele><time>2026-04-25T08:52:55.732Z</time></trkpt><trkpt lat="39.41797335131113" lon="16.542015631511376"><ele>1254.0</ele><time>2026-04-25T08:52:56.732Z</time></trkpt><trkpt lat="39.417771048322265" lon="16.541915352275318"><ele>1252.75</ele><time>2026-04-25T08:52:57.732Z</time></trkpt><trkpt lat="39.41760598654816" lon="16.541837408372917"><ele>1251.5</ele><time>2026-04-25T08:52:58.732Z</time></trkpt><trkpt lat="39.41747723853731" lon="16.541809467363496"><ele>1250.25</ele><time>2026-04-25T08:52:59.732Z</time></trkpt><trkpt lat="39.41735552826716" lon="16.541795264611842"><ele>1249.0</ele><time>2026-04-25T08:53:00.732Z</time></trkpt><trkpt lat="39.41722470012501" lon="16.54183260260249"><ele>1250.6666666666665</ele><time>2026-04-25T08:53:01.732Z</time></trkpt><trkpt lat="39.417063344792204" lon="16.541921554802467"><ele>1252.3333333333333</ele><time>2026-04-25T08:53:02.732Z</time></trkpt><trkpt lat="39.416857382694936" lon="16.542040770639552"><ele>1254.0</ele><time>2026-04-25T08:53:03.732Z</time></trkpt><trkpt lat="39.41664587236144" lon="16.542178382266986"><ele>1256.0</ele><time>2026-04-25T08:53:04.732Z</time></trkpt><trkpt lat="39.416408509395865" lon="16.542327027059848"><ele>1258.0</ele><time>2026-04-25T08:53:05.732Z</time></trkpt><trkpt lat="39.41616552886457" lon="16.542476285068908"><ele>1258.0</ele><time>2026-04-25T08:53:06.732Z</time></trkpt><trkpt lat="39.41594752099445" lon="16.542597423734076"><ele>1258.0</ele><time>2026-04-25T08:53:07.732Z</time></trkpt><trkpt lat="39.41573009047982" lon="16.54268117803065"><ele>1258.0</ele><time>2026-04-25T08:53:08.732Z</time></trkpt><trkpt lat="39.415518589223694" lon="16.54274468805006"><ele>1258.0</ele><time>2026-04-25T08:53:09.732Z</time></trkpt><trkpt lat="39.415337637951254" lon="16.542802006409683"><ele>1258.0</ele><time>2026-04-25T08:53:10.732Z</time></trkpt><trkpt lat="39.41518479781761" lon="16.542852753838172"><ele>1260.0</ele><time>2026-04-25T08:53:11.732Z</time></trkpt><trkpt lat="39.415050448126934" lon="16.542894769224997"><ele>1262.0</ele><time>2026-04-25T08:53:12.732Z</time></trkpt><trkpt lat="39.41494719538749" lon="16.542923485058864"><ele>1264.0</ele><time>2026-04-25T08:53:13.732Z</time></trkpt><trkpt lat="39.41484395904243" lon="16.54294358110339"><ele>1266.0</ele><time>2026-04-25T08:53:14.732Z</time></trkpt><trkpt lat="39.41474008213716" lon="16.54294121091195"><ele>1264.5</ele><time>2026-04-25T08:53:15.732Z</time></trkpt><trkpt lat="39.41462419567271" lon="16.542928280623485"><ele>1263.0</ele><time>2026-04-25T08:53:16.732Z</time></trkpt><trkpt lat="39.414502998079286" lon="16.54290912703417"><ele>1261.5</ele><time>2026-04-25T08:53:17.732Z</time></trkpt><trkpt lat="39.414378676826914" lon="16.542888384528084"><ele>1260.0</ele><time>2026-04-25T08:53:18.732Z</time></trkpt><trkpt lat="39.41425048858457" lon="16.542867774940262"><ele>1260.0</ele><time>2026-04-25T08:53:19.732Z</time></trkpt><trkpt lat="39.41411716294677" lon="16.542846772927167"><ele>1260.0</ele><time>2026-04-25T08:53:20.732Z</time></trkpt><trkpt lat="39.41399325897533" lon="16.54282725504915"><ele>1260.0</ele><time>2026-04-25T08:53:21.732Z</time></trkpt><trkpt lat="39.41387298652255" lon="16.542806000413698"><ele>1260.0</ele><time>2026-04-25T08:53:22.732Z</time></trkpt><trkpt lat="39.413754354508505" lon="16.54278393902259"><ele>1258.25</ele><time>2026-04-25T08:53:23.732Z</time></trkpt><trkpt lat="39.41362825693194" lon="16.542761685199803"><ele>1256.5</ele><time>2026-04-25T08:53:24.732Z</time></trkpt><trkpt lat="39.41349176644564" lon="16.5427429114626"><ele>1254.75</ele><time>2026-04-25T08:53:25.732Z</time></trkpt><trkpt lat="39.41334109433595" lon="16.54272783637841"><ele>1253.0</ele><time>2026-04-25T08:53:26.732Z</time></trkpt><trkpt lat="39.413178258138366" lon="16.54274889133156"><ele>1253.0</ele><time>2026-04-25T08:53:27.732Z</time></trkpt><trkpt lat="39.41299159310335" lon="16.542749160852665"><ele>1253.0</ele><time>2026-04-25T08:53:28.732Z</time></trkpt><trkpt lat="39.41279325618571" lon="16.54278521693365"><ele>1253.0</ele><time>2026-04-25T08:53:29.732Z</time></trkpt><trkpt lat="39.41260378304145" lon="16.54282588551228"><ele>1252.3333333333335</ele><time>2026-04-25T08:53:30.732Z</time></trkpt><trkpt lat="39.41242531942096" lon="16.54286574111137"><ele>1251.6666666666667</ele><time>2026-04-25T08:53:31.732Z</time></trkpt><trkpt lat="39.41225717487824" lon="16.54290448162799"><ele>1251.0</ele><time>2026-04-25T08:53:32.732Z</time></trkpt><trkpt lat="39.412103958399186" lon="16.542941008176644"><ele>1248.6666666666667</ele><time>2026-04-25T08:53:33.731Z</time></trkpt><trkpt lat="39.41195744706273" lon="16.54299879945999"><ele>1246.3333333333335</ele><time>2026-04-25T08:53:34.731Z</time></trkpt><trkpt lat="39.41181129260551" lon="16.543044559477504"><ele>1244.0</ele><time>2026-04-25T08:53:35.731Z</time></trkpt><trkpt lat="39.411665783563365" lon="16.543084447544807"><ele>1244.0</ele><time>2026-04-25T08:53:36.731Z</time></trkpt><trkpt lat="39.411535824513734" lon="16.543178068868922"><ele>1244.0</ele><time>2026-04-25T08:53:37.731Z</time></trkpt><trkpt lat="39.4113957527959" lon="16.543256987153352"><ele>1244.0</ele><time>2026-04-25T08:53:38.731Z</time></trkpt><trkpt lat="39.41125950129937" lon="16.543338961573934"><ele>1243.25</ele><time>2026-04-25T08:53:39.731Z</time></trkpt><trkpt lat="39.41112519679486" lon="16.543418612594657"><ele>1242.5</ele><time>2026-04-25T08:53:40.731Z</time></trkpt><trkpt lat="39.411009038502925" lon="16.543507305350726"><ele>1241.75</ele><time>2026-04-25T08:53:41.731Z</time></trkpt><trkpt lat="39.41090998488329" lon="16.543630361232868"><ele>1241.0</ele><time>2026-04-25T08:53:42.731Z</time></trkpt><trkpt lat="39.410815143515194" lon="16.54377925440793"><ele>1241.0</ele><time>2026-04-25T08:53:43.731Z</time></trkpt><trkpt lat="39.410725997622706" lon="16.543944810555512"><ele>1241.0</ele><time>2026-04-25T08:53:44.731Z</time></trkpt><trkpt lat="39.410625046273" lon="16.544091524923026"><ele>1241.0</ele><time>2026-04-25T08:53:45.731Z</time></trkpt><trkpt lat="39.41053809745988" lon="16.5442460225407"><ele>1240.5</ele><time>2026-04-25T08:53:46.731Z</time></trkpt><trkpt lat="39.41045753370836" lon="16.544388433718133"><ele>1240.0</ele><time>2026-04-25T08:53:47.731Z</time></trkpt><trkpt lat="39.41037875628845" lon="16.544497903426972"><ele>1239.5</ele><time>2026-04-25T08:53:48.731Z</time></trkpt><trkpt lat="39.41028487299873" lon="16.544571736469898"><ele>1239.0</ele><time>2026-04-25T08:53:49.731Z</time></trkpt><trkpt lat="39.41017619933286" lon="16.54460977010923"><ele>1239.0</ele><time>2026-04-25T08:53:50.731Z</time></trkpt><trkpt lat="39.41006616232456" lon="16.544607947796823"><ele>1239.0</ele><time>2026-04-25T08:53:51.731Z</time></trkpt><trkpt lat="39.4099311877018" lon="16.544586717857015"><ele>1239.0</ele><time>2026-04-25T08:53:52.731Z</time></trkpt><trkpt lat="39.40980412689902" lon="16.544496307173063"><ele>1239.0</ele><time>2026-04-25T08:53:53.731Z</time></trkpt><trkpt lat="39.409704036225705" lon="16.544343857686265"><ele>1238.3333333333333</ele><time>2026-04-25T08:53:54.731Z</time></trkpt><trkpt lat="39.40958626916769" lon="16.544216457262905"><ele>1237.6666666666665</ele><time>2026-04-25T08:53:55.731Z</time></trkpt><trkpt lat="39.40947161758698" lon="16.544101495263973"><ele>1237.0</ele><time>2026-04-25T08:53:56.731Z</time></trkpt><trkpt lat="39.40933694101204" lon="16.54401061922752"><ele>1237.0</ele><time>2026-04-25T08:53:57.731Z</time></trkpt><trkpt lat="39.409197774981706" lon="16.543928737264753"><ele>1237.0</ele><time>2026-04-25T08:53:58.731Z</time></trkpt><trkpt lat="39.40904797847991" lon="16.543851434437517"><ele>1237.0</ele><time>2026-04-25T08:53:59.731Z</time></trkpt><trkpt lat="39.408883468135045" lon="16.543767531758544"><ele>1230.6666666666665</ele><time>2026-04-25T08:54:00.731Z</time></trkpt><trkpt lat="39.408706377184686" lon="16.54369296088105"><ele>1224.3333333333333</ele><time>2026-04-25T08:54:01.731Z</time></trkpt><trkpt lat="39.40853208988737" lon="16.54363140900481"><ele>1218.0</ele><time>2026-04-25T08:54:02.731Z</time></trkpt><trkpt lat="39.4083642145527" lon="16.543569997974426"><ele>1218.0</ele><time>2026-04-25T08:54:03.731Z</time></trkpt><trkpt lat="39.408206151787496" lon="16.543488155320997"><ele>1218.0</ele><time>2026-04-25T08:54:04.731Z</time></trkpt><trkpt lat="39.408052149857866" lon="16.543420489357135"><ele>1218.0</ele><time>2026-04-25T08:54:05.731Z</time></trkpt><trkpt lat="39.40790664706943" lon="16.543337071864677"><ele>1222.0</ele><time>2026-04-25T08:54:06.731Z</time></trkpt><trkpt lat="39.4077656563699" lon="16.543231507896934"><ele>1226.0</ele><time>2026-04-25T08:54:07.731Z</time></trkpt><trkpt lat="39.40763073936699" lon="16.543122003602353"><ele>1230.0</ele><time>2026-04-25T08:54:08.731Z</time></trkpt><trkpt lat="39.40749216611831" lon="16.543026865485842"><ele>1230.0</ele><time>2026-04-25T08:54:09.731Z</time></trkpt><trkpt lat="39.40736674435717" lon="16.542914607181384"><ele>1230.0</ele><time>2026-04-25T08:54:10.731Z</time></trkpt><trkpt lat="39.40724069463393" lon="16.54280497223875"><ele>1230.0</ele><time>2026-04-25T08:54:11.731Z</time></trkpt><trkpt lat="39.40711511144954" lon="16.542709671732528"><ele>1224.5</ele><time>2026-04-25T08:54:12.731Z</time></trkpt><trkpt lat="39.4069854568627" lon="16.542632539766917"><ele>1219.0</ele><time>2026-04-25T08:54:13.731Z</time></trkpt><trkpt lat="39.40684748408197" lon="16.542558550152634"><ele>1213.5</ele><time>2026-04-25T08:54:14.731Z</time></trkpt><trkpt lat="39.4067415066105" lon="16.54253541413697"><ele>1208.0</ele><time>2026-04-25T08:54:15.731Z</time></trkpt><trkpt lat="39.40659096182645" lon="16.54253435203366"><ele>1208.0</ele><time>2026-04-25T08:54:16.731Z</time></trkpt><trkpt lat="39.40644108563919" lon="16.542559883075196"><ele>1208.0</ele><time>2026-04-25T08:54:17.731Z</time></trkpt><trkpt lat="39.406310941711226" lon="16.54257546839956"><ele>1208.0</ele><time>2026-04-25T08:54:18.731Z</time></trkpt><trkpt lat="39.40618379459853" lon="16.54251637172463"><ele>1208.0</ele><time>2026-04-25T08:54:19.731Z</time></trkpt><trkpt lat="39.406062983114765" lon="16.54241790955254"><ele>1205.6666666666667</ele><time>2026-04-25T08:54:20.731Z</time></trkpt><trkpt lat="39.40592523122094" lon="16.542298169800436"><ele>1203.3333333333333</ele><time>2026-04-25T08:54:21.731Z</time></trkpt><trkpt lat="39.40576270649206" lon="16.542180877222354"><ele>1201.0</ele><time>2026-04-25T08:54:22.731Z</time></trkpt><trkpt lat="39.405598317936565" lon="16.542041327977945"><ele>1203.0</ele><time>2026-04-25T08:54:23.731Z</time></trkpt><trkpt lat="39.40542743600432" lon="16.541919083546276"><ele>1205.0</ele><time>2026-04-25T08:54:24.731Z</time></trkpt><trkpt lat="39.40526727785637" lon="16.54180893546034"><ele>1207.0</ele><time>2026-04-25T08:54:25.731Z</time></trkpt><trkpt lat="39.40511234202479" lon="16.541695553225125"><ele>1207.0</ele><time>2026-04-25T08:54:26.731Z</time></trkpt><trkpt lat="39.40496008847148" lon="16.541572911108208"><ele>1207.0</ele><time>2026-04-25T08:54:27.731Z</time></trkpt><trkpt lat="39.4048128211521" lon="16.54144198830565"><ele>1207.0</ele><time>2026-04-25T08:54:28.731Z</time></trkpt><trkpt lat="39.40467363256028" lon="16.54131721710284"><ele>1203.0</ele><time>2026-04-25T08:54:29.732Z</time></trkpt><trkpt lat="39.40454370750312" lon="16.541215267517437"><ele>1199.0</ele><time>2026-04-25T08:54:30.732Z</time></trkpt><trkpt lat="39.404426828904704" lon="16.541120500431866"><ele>1195.0</ele><time>2026-04-25T08:54:31.732Z</time></trkpt><trkpt lat="39.40432627022447" lon="16.541055744337346"><ele>1191.0</ele><time>2026-04-25T08:54:32.732Z</time></trkpt><trkpt lat="39.40422280954689" lon="16.540995124487658"><ele>1191.0</ele><time>2026-04-25T08:54:33.732Z</time></trkpt><trkpt lat="39.40410370137897" lon="16.540952225300114"><ele>1191.0</ele><time>2026-04-25T08:54:34.732Z</time></trkpt><trkpt lat="39.403958153799344" lon="16.540947527359947"><ele>1191.0</ele><time>2026-04-25T08:54:35.732Z</time></trkpt><trkpt lat="39.40379634579759" lon="16.54097037440179"><ele>1191.0</ele><time>2026-04-25T08:54:36.732Z</time></trkpt><trkpt lat="39.403648792039164" lon="16.5410022532817"><ele>1188.25</ele><time>2026-04-25T08:54:37.732Z</time></trkpt><trkpt lat="39.403520678352024" lon="16.54101451005307"><ele>1185.5</ele><time>2026-04-25T08:54:38.732Z</time></trkpt><trkpt lat="39.40339947165685" lon="16.541036369920516"><ele>1182.75</ele><time>2026-04-25T08:54:39.732Z</time></trkpt><trkpt lat="39.40330467461303" lon="16.54107555290985"><ele>1180.0</ele><time>2026-04-25T08:54:40.732Z</time></trkpt><trkpt lat="39.403224029122775" lon="16.541166034730733"><ele>1182.25</ele><time>2026-04-25T08:54:41.732Z</time></trkpt><trkpt lat="39.403157625060985" lon="16.54129932039777"><ele>1184.5</ele><time>2026-04-25T08:54:42.732Z</time></trkpt><trkpt lat="39.403115490490265" lon="16.541482741487762"><ele>1186.75</ele><time>2026-04-25T08:54:43.732Z</time></trkpt><trkpt lat="39.40309600750285" lon="16.54167596143986"><ele>1189.0</ele><time>2026-04-25T08:54:44.732Z</time></trkpt><trkpt lat="39.40309892482302" lon="16.541879026922487"><ele>1188.75</ele><time>2026-04-25T08:54:45.732Z</time></trkpt><trkpt lat="39.40310041652077" lon="16.54207378613313"><ele>1188.5</ele><time>2026-04-25T08:54:46.732Z</time></trkpt><trkpt lat="39.40310769247144" lon="16.54225913888291"><ele>1188.25</ele><time>2026-04-25T08:54:47.732Z</time></trkpt><trkpt lat="39.403095375972065" lon="16.542457736758745"><ele>1188.0</ele><time>2026-04-25T08:54:48.732Z</time></trkpt><trkpt lat="39.40308750051866" lon="16.54264703638717"><ele>1188.0</ele><time>2026-04-25T08:54:49.732Z</time></trkpt><trkpt lat="39.403077471685435" lon="16.542819497726413"><ele>1188.0</ele><time>2026-04-25T08:54:50.732Z</time></trkpt><trkpt lat="39.40304925204964" lon="16.542967450555587"><ele>1188.0</ele><time>2026-04-25T08:54:51.732Z</time></trkpt><trkpt lat="39.402962417940664" lon="16.543080962982902"><ele>1188.0</ele><time>2026-04-25T08:54:52.732Z</time></trkpt><trkpt lat="39.402852581645796" lon="16.543204832717567"><ele>1189.3333333333333</ele><time>2026-04-25T08:54:53.732Z</time></trkpt><trkpt lat="39.402706999140726" lon="16.54333260046304"><ele>1190.6666666666665</ele><time>2026-04-25T08:54:54.732Z</time></trkpt><trkpt lat="39.40255235990351" lon="16.5434362965958"><ele>1192.0</ele><time>2026-04-25T08:54:55.732Z</time></trkpt><trkpt lat="39.40241145517871" lon="16.543523623580118"><ele>1192.0</ele><time>2026-04-25T08:54:56.732Z</time></trkpt><trkpt lat="39.40226537710408" lon="16.54356715998713"><ele>1192.0</ele><time>2026-04-25T08:54:57.732Z</time></trkpt><trkpt lat="39.40213126306435" lon="16.54358625402079"><ele>1192.0</ele><time>2026-04-25T08:54:58.732Z</time></trkpt><trkpt lat="39.40200454898813" lon="16.54357483985991"><ele>1192.0</ele><time>2026-04-25T08:54:59.732Z</time></trkpt><trkpt lat="39.40187723054993" lon="16.54351166275883"><ele>1192.0</ele><time>2026-04-25T08:55:00.731Z</time></trkpt><trkpt lat="39.4017384895825" lon="16.543450517423313"><ele>1192.0</ele><time>2026-04-25T08:55:01.731Z</time></trkpt><trkpt lat="39.401593240011195" lon="16.543363930314623"><ele>1192.0</ele><time>2026-04-25T08:55:02.731Z</time></trkpt><trkpt lat="39.40146005759479" lon="16.54326546002066"><ele>1192.0</ele><time>2026-04-25T08:55:03.731Z</time></trkpt><trkpt lat="39.40134734252844" lon="16.543163021294504"><ele>1192.0</ele><time>2026-04-25T08:55:04.731Z</time></trkpt><trkpt lat="39.40124480548177" lon="16.543086900885548"><ele>1192.0</ele><time>2026-04-25T08:55:05.731Z</time></trkpt><trkpt lat="39.40116096998655" lon="16.543003660951086"><ele>1192.0</ele><time>2026-04-25T08:55:06.731Z</time></trkpt><trkpt lat="39.401098945149194" lon="16.54292159214683"><ele>1190.6666666666665</ele><time>2026-04-25T08:55:07.731Z</time></trkpt><trkpt lat="39.401036757455415" lon="16.542855799690503"><ele>1189.3333333333333</ele><time>2026-04-25T08:55:08.731Z</time></trkpt><trkpt lat="39.400977687294144" lon="16.542793685944975"><ele>1188.0</ele><time>2026-04-25T08:55:09.731Z</time></trkpt><trkpt lat="39.4009203662248" lon="16.54273091991059"><ele>1186.6666666666667</ele><time>2026-04-25T08:55:10.731Z</time></trkpt><trkpt lat="39.400856220449484" lon="16.542660026551395"><ele>1185.3333333333335</ele><time>2026-04-25T08:55:11.731Z</time></trkpt><trkpt lat="39.40078572371793" lon="16.542582114070214"><ele>1184.0</ele><time>2026-04-25T08:55:12.731Z</time></trkpt><trkpt lat="39.4007229294373" lon="16.542512714320864"><ele>1184.0</ele><time>2026-04-25T08:55:13.731Z</time></trkpt><trkpt lat="39.40066215223527" lon="16.54244553628555"><ele>1184.0</ele><time>2026-04-25T08:55:14.731Z</time></trkpt><trkpt lat="39.400603604578286" lon="16.542380760146195"><ele>1184.0</ele><time>2026-04-25T08:55:15.731Z</time></trkpt><trkpt lat="39.4005461190819" lon="16.542317159198376"><ele>1184.0</ele><time>2026-04-25T08:55:16.731Z</time></trkpt><trkpt lat="39.400460698681925" lon="16.542222651486025"><ele>1184.0</ele><time>2026-04-25T08:55:17.731Z</time></trkpt><trkpt lat="39.40035631267336" lon="16.542107160630557"><ele>1180.8</ele><time>2026-04-25T08:55:18.731Z</time></trkpt><trkpt lat="39.40026309812597" lon="16.542000932924417"><ele>1177.6000000000001</ele><time>2026-04-25T08:55:19.731Z</time></trkpt><trkpt lat="39.40017358358311" lon="16.541913371128008"><ele>1174.4</ele><time>2026-04-25T08:55:20.731Z</time></trkpt><trkpt lat="39.400080266632166" lon="16.541862352915675"><ele>1171.2</ele><time>2026-04-25T08:55:21.731Z</time></trkpt><trkpt lat="39.40000245422233" lon="16.541828220539596"><ele>1168.0</ele><time>2026-04-25T08:55:22.731Z</time></trkpt><trkpt lat="39.39991594626625" lon="16.541826675826787"><ele>1168.0</ele><time>2026-04-25T08:55:23.731Z</time></trkpt><trkpt lat="39.39984321034479" lon="16.541881733218844"><ele>1168.0</ele><time>2026-04-25T08:55:24.731Z</time></trkpt><trkpt lat="39.399770195616995" lon="16.541943879079753"><ele>1168.0</ele><time>2026-04-25T08:55:25.731Z</time></trkpt><trkpt lat="39.39971117458774" lon="16.542030531836712"><ele>1168.0</ele><time>2026-04-25T08:55:26.731Z</time></trkpt><trkpt lat="39.39966478737363" lon="16.54214794085176"><ele>1168.0</ele><time>2026-04-25T08:55:27.731Z</time></trkpt><trkpt lat="39.3996294134709" lon="16.542269881542484"><ele>1169.1666666666665</ele><time>2026-04-25T08:55:28.731Z</time></trkpt><trkpt lat="39.39959758606657" lon="16.542372060188672"><ele>1170.3333333333333</ele><time>2026-04-25T08:55:29.731Z</time></trkpt><trkpt lat="39.399558001743536" lon="16.54248301831147"><ele>1171.5</ele><time>2026-04-25T08:55:30.731Z</time></trkpt><trkpt lat="39.3995161131847" lon="16.542573371179234"><ele>1172.6666666666667</ele><time>2026-04-25T08:55:31.731Z</time></trkpt><trkpt lat="39.39945538831201" lon="16.542655812938683"><ele>1173.8333333333335</ele><time>2026-04-25T08:55:32.731Z</time></trkpt><trkpt lat="39.399385881098965" lon="16.5427232659115"><ele>1175.0</ele><time>2026-04-25T08:55:33.731Z</time></trkpt><trkpt lat="39.3993087945723" lon="16.54278153368888"><ele>1175.0</ele><time>2026-04-25T08:55:34.731Z</time></trkpt><trkpt lat="39.39921543786582" lon="16.542797853745906"><ele>1175.0</ele><time>2026-04-25T08:55:35.731Z</time></trkpt><trkpt lat="39.39913242799274" lon="16.54278261108224"><ele>1175.0</ele><time>2026-04-25T08:55:36.731Z</time></trkpt><trkpt lat="39.39906597193085" lon="16.54269956487458"><ele>1175.0</ele><time>2026-04-25T08:55:37.731Z</time></trkpt><trkpt lat="39.39901862368745" lon="16.542573251191232"><ele>1175.0</ele><time>2026-04-25T08:55:38.731Z</time></trkpt><trkpt lat="39.39898540221208" lon="16.54245283352202"><ele>1175.0</ele><time>2026-04-25T08:55:39.731Z</time></trkpt><trkpt lat="39.39895324567314" lon="16.542319706227705"><ele>1175.0</ele><time>2026-04-25T08:55:40.731Z</time></trkpt><trkpt lat="39.3989168047297" lon="16.542193526222455"><ele>1175.0</ele><time>2026-04-25T08:55:41.731Z</time></trkpt><trkpt lat="39.39887211276285" lon="16.54207659882056"><ele>1175.0</ele><time>2026-04-25T08:55:42.731Z</time></trkpt><trkpt lat="39.39880334019186" lon="16.541980140146183"><ele>1175.0</ele><time>2026-04-25T08:55:43.731Z</time></trkpt><trkpt lat="39.39872252223059" lon="16.541892098564404"><ele>1174.8</ele><time>2026-04-25T08:55:44.731Z</time></trkpt><trkpt lat="39.3986273946546" lon="16.54182732526349"><ele>1174.6</ele><time>2026-04-25T08:55:45.731Z</time></trkpt><trkpt lat="39.39853897605299" lon="16.541791314210577"><ele>1174.4</ele><time>2026-04-25T08:55:46.731Z</time></trkpt><trkpt lat="39.398438096501295" lon="16.541778227649353"><ele>1174.2</ele><time>2026-04-25T08:55:47.731Z</time></trkpt><trkpt lat="39.39833292007317" lon="16.54178398449717"><ele>1174.0</ele><time>2026-04-25T08:55:48.731Z</time></trkpt><trkpt lat="39.39822382761019" lon="16.54179267389613"><ele>1174.0</ele><time>2026-04-25T08:55:49.731Z</time></trkpt><trkpt lat="39.39811386502342" lon="16.54180997585079"><ele>1174.0</ele><time>2026-04-25T08:55:50.731Z</time></trkpt><trkpt lat="39.39801388234754" lon="16.541849806445846"><ele>1174.0</ele><time>2026-04-25T08:55:51.731Z</time></trkpt><trkpt lat="39.39792495635706" lon="16.541922960165113"><ele>1174.0</ele><time>2026-04-25T08:55:52.731Z</time></trkpt><trkpt lat="39.39783195915701" lon="16.542030465482643"><ele>1174.0</ele><time>2026-04-25T08:55:53.731Z</time></trkpt><trkpt lat="39.3977757878401" lon="16.54216659269005"><ele>1173.8</ele><time>2026-04-25T08:55:54.731Z</time></trkpt><trkpt lat="39.39771447515635" lon="16.542279991362108"><ele>1173.6000000000001</ele><time>2026-04-25T08:55:55.731Z</time></trkpt><trkpt lat="39.39766662894366" lon="16.542374732377304"><ele>1173.4</ele><time>2026-04-25T08:55:56.731Z</time></trkpt><trkpt lat="39.39762569854164" lon="16.54246370761396"><ele>1173.2</ele><time>2026-04-25T08:55:57.731Z</time></trkpt><trkpt lat="39.397608610226754" lon="16.542569000991467"><ele>1173.0</ele><time>2026-04-25T08:55:58.731Z</time></trkpt><trkpt lat="39.39760894549086" lon="16.54269219939196"><ele>1173.0</ele><time>2026-04-25T08:55:59.731Z</time></trkpt><trkpt lat="39.39763323423213" lon="16.542813762621883"><ele>1173.0</ele><time>2026-04-25T08:56:00.731Z</time></trkpt><trkpt lat="39.39765963132966" lon="16.54293645473188"><ele>1173.0</ele><time>2026-04-25T08:56:01.731Z</time></trkpt><trkpt lat="39.3976793496954" lon="16.543047598548476"><ele>1173.0</ele><time>2026-04-25T08:56:02.731Z</time></trkpt><trkpt lat="39.397685567917776" lon="16.543149025098835"><ele>1173.0</ele><time>2026-04-25T08:56:03.731Z</time></trkpt><trkpt lat="39.39767428839559" lon="16.543244221135744"><ele>1173.0</ele><time>2026-04-25T08:56:04.731Z</time></trkpt><trkpt lat="39.397642195222005" lon="16.543331065036813"><ele>1174.0</ele><time>2026-04-25T08:56:05.731Z</time></trkpt><trkpt lat="39.39758401620921" lon="16.543407773033834"><ele>1175.0</ele><time>2026-04-25T08:56:06.731Z</time></trkpt><trkpt lat="39.397501132648244" lon="16.543456060365564"><ele>1176.0</ele><time>2026-04-25T08:56:07.731Z</time></trkpt><trkpt lat="39.39740891237109" lon="16.543475717330463"><ele>1177.0</ele><time>2026-04-25T08:56:08.731Z</time></trkpt><trkpt lat="39.397315112741566" lon="16.543467294263476"><ele>1178.0</ele><time>2026-04-25T08:56:09.731Z</time></trkpt><trkpt lat="39.397232276333504" lon="16.543441628941164"><ele>1179.0</ele><time>2026-04-25T08:56:10.731Z</time></trkpt><trkpt lat="39.39714448548729" lon="16.543386074911282"><ele>1181.25</ele><time>2026-04-25T08:56:11.731Z</time></trkpt><trkpt lat="39.39706155812583" lon="16.543303312591018"><ele>1183.5</ele><time>2026-04-25T08:56:12.731Z</time></trkpt><trkpt lat="39.39698137437813" lon="16.54320282456909"><ele>1185.75</ele><time>2026-04-25T08:56:13.731Z</time></trkpt><trkpt lat="39.39690159423718" lon="16.54309502652364"><ele>1188.0</ele><time>2026-04-25T08:56:14.731Z</time></trkpt><trkpt lat="39.396819694259165" lon="16.542984602022102"><ele>1188.0</ele><time>2026-04-25T08:56:15.731Z</time></trkpt><trkpt lat="39.39675447570542" lon="16.542891492377386"><ele>1188.0</ele><time>2026-04-25T08:56:16.731Z</time></trkpt><trkpt lat="39.39668910970946" lon="16.542802326240963"><ele>1188.0</ele><time>2026-04-25T08:56:17.731Z</time></trkpt><trkpt lat="39.396623548925405" lon="16.542733041008095"><ele>1188.0</ele><time>2026-04-25T08:56:18.731Z</time></trkpt><trkpt lat="39.39655671232569" lon="16.542685808334774"><ele>1188.0</ele><time>2026-04-25T08:56:19.731Z</time></trkpt><trkpt lat="39.396480941284835" lon="16.54267852892036"><ele>1188.0</ele><time>2026-04-25T08:56:20.731Z</time></trkpt><trkpt lat="39.3963965157201" lon="16.542702609012974"><ele>1186.0</ele><time>2026-04-25T08:56:21.731Z</time></trkpt><trkpt lat="39.39630208479176" lon="16.542781808066216"><ele>1184.0</ele><time>2026-04-25T08:56:22.731Z</time></trkpt><trkpt lat="39.396209803848606" lon="16.542893809776427"><ele>1182.0</ele><time>2026-04-25T08:56:23.731Z</time></trkpt><trkpt lat="39.39613050765911" lon="16.54301509230097"><ele>1180.0</ele><time>2026-04-25T08:56:24.731Z</time></trkpt><trkpt lat="39.39603281272365" lon="16.543112647589094"><ele>1180.0</ele><time>2026-04-25T08:56:25.731Z</time></trkpt><trkpt lat="39.3959458700433" lon="16.543215484295004"><ele>1180.0</ele><time>2026-04-25T08:56:26.731Z</time></trkpt><trkpt lat="39.395865873144885" lon="16.543316776606577"><ele>1180.0</ele><time>2026-04-25T08:56:27.731Z</time></trkpt><trkpt lat="39.39577093748074" lon="16.543374202651737"><ele>1180.0</ele><time>2026-04-25T08:56:28.731Z</time></trkpt><trkpt lat="39.39565449815459" lon="16.543396205747506"><ele>1180.0</ele><time>2026-04-25T08:56:29.731Z</time></trkpt><trkpt lat="39.39553847492384" lon="16.543393847037947"><ele>1180.0</ele><time>2026-04-25T08:56:30.731Z</time></trkpt><trkpt lat="39.395407223085336" lon="16.543365064612505"><ele>1180.0</ele><time>2026-04-25T08:56:31.731Z</time></trkpt><trkpt lat="39.395264054262675" lon="16.543329594806718"><ele>1180.0</ele><time>2026-04-25T08:56:32.731Z</time></trkpt><trkpt lat="39.39511529652463" lon="16.543287338726756"><ele>1178.0</ele><time>2026-04-25T08:56:33.731Z</time></trkpt><trkpt lat="39.39496296788608" lon="16.54325645812281"><ele>1176.0</ele><time>2026-04-25T08:56:34.731Z</time></trkpt><trkpt lat="39.394829802116114" lon="16.54322663168207"><ele>1174.0</ele><time>2026-04-25T08:56:35.731Z</time></trkpt><trkpt lat="39.39470235508643" lon="16.54320735361719"><ele>1172.0</ele><time>2026-04-25T08:56:36.731Z</time></trkpt><trkpt lat="39.39456401830918" lon="16.543202697546732"><ele>1170.3333333333335</ele><time>2026-04-25T08:56:37.731Z</time></trkpt><trkpt lat="39.39441190334334" lon="16.54322979282342"><ele>1168.6666666666667</ele><time>2026-04-25T08:56:38.731Z</time></trkpt><trkpt lat="39.394259832966824" lon="16.543265910781436"><ele>1167.0</ele><time>2026-04-25T08:56:39.731Z</time></trkpt><trkpt lat="39.39411692125729" lon="16.54332488864702"><ele>1167.0</ele><time>2026-04-25T08:56:40.731Z</time></trkpt><trkpt lat="39.39397741270679" lon="16.5433689048314"><ele>1167.0</ele><time>2026-04-25T08:56:41.731Z</time></trkpt><trkpt lat="39.3938465027067" lon="16.543423995153386"><ele>1167.0</ele><time>2026-04-25T08:56:42.731Z</time></trkpt><trkpt lat="39.3937351141207" lon="16.543488377310574"><ele>1167.0</ele><time>2026-04-25T08:56:43.731Z</time></trkpt><trkpt lat="39.39361901613093" lon="16.543528325293575"><ele>1167.0</ele><time>2026-04-25T08:56:44.731Z</time></trkpt><trkpt lat="39.393501871280264" lon="16.543576782775787"><ele>1167.0</ele><time>2026-04-25T08:56:45.731Z</time></trkpt><trkpt lat="39.39339084875276" lon="16.54363418001293"><ele>1167.0</ele><time>2026-04-25T08:56:46.731Z</time></trkpt><trkpt lat="39.39328151408829" lon="16.543706789552218"><ele>1167.0</ele><time>2026-04-25T08:56:47.731Z</time></trkpt><trkpt lat="39.393185354086626" lon="16.54376702577411"><ele>1168.25</ele><time>2026-04-25T08:56:48.731Z</time></trkpt><trkpt lat="39.39309041592056" lon="16.54391359489823"><ele>1169.5</ele><time>2026-04-25T08:56:49.731Z</time></trkpt><trkpt lat="39.393010160638525" lon="16.54403216714571"><ele>1170.75</ele><time>2026-04-25T08:56:50.731Z</time></trkpt><trkpt lat="39.39294072542186" lon="16.54416384801167"><ele>1172.0</ele><time>2026-04-25T08:56:51.731Z</time></trkpt><trkpt lat="39.39288463079453" lon="16.544329163702713"><ele>1170.25</ele><time>2026-04-25T08:56:52.731Z</time></trkpt><trkpt lat="39.392848593380926" lon="16.544508129146223"><ele>1168.5</ele><time>2026-04-25T08:56:53.731Z</time></trkpt><trkpt lat="39.39283486844589" lon="16.54469653033485"><ele>1166.75</ele><time>2026-04-25T08:56:54.731Z</time></trkpt><trkpt lat="39.39284403551965" lon="16.544874382311633"><ele>1165.0</ele><time>2026-04-25T08:56:55.731Z</time></trkpt><trkpt lat="39.39286774055216" lon="16.54504207481823"><ele>1165.0</ele><time>2026-04-25T08:56:56.731Z</time></trkpt><trkpt lat="39.39290234613719" lon="16.54518880835001"><ele>1165.0</ele><time>2026-04-25T08:56:57.731Z</time></trkpt><trkpt lat="39.39293945466261" lon="16.54533149354938"><ele>1165.0</ele><time>2026-04-25T08:56:58.731Z</time></trkpt><trkpt lat="39.39298858946405" lon="16.54545594627383"><ele>1165.0</ele><time>2026-04-25T08:56:59.731Z</time></trkpt><trkpt lat="39.39304041583198" lon="16.545582976466346"><ele>1167.75</ele><time>2026-04-25T08:57:00.731Z</time></trkpt><trkpt lat="39.393128105662115" lon="16.545688010840667"><ele>1170.5</ele><time>2026-04-25T08:57:01.731Z</time></trkpt><trkpt lat="39.39321442059132" lon="16.545793015588167"><ele>1173.25</ele><time>2026-04-25T08:57:02.731Z</time></trkpt><trkpt lat="39.39330952514363" lon="16.545893828620112"><ele>1176.0</ele><time>2026-04-25T08:57:03.731Z</time></trkpt><trkpt lat="39.39340552050974" lon="16.546003122765978"><ele>1176.0</ele><time>2026-04-25T08:57:04.731Z</time></trkpt><trkpt lat="39.39350066272726" lon="16.546095661807694"><ele>1176.0</ele><time>2026-04-25T08:57:05.731Z</time></trkpt><trkpt lat="39.39359049556704" lon="16.546167796805467"><ele>1176.0</ele><time>2026-04-25T08:57:06.731Z</time></trkpt><trkpt lat="39.39369062508502" lon="16.54622458012133"><ele>1176.0</ele><time>2026-04-25T08:57:07.731Z</time></trkpt><trkpt lat="39.39379764787904" lon="16.54627174882989"><ele>1176.0</ele><time>2026-04-25T08:57:08.731Z</time></trkpt><trkpt lat="39.39390845329077" lon="16.546303192070994"><ele>1179.0</ele><time>2026-04-25T08:57:09.731Z</time></trkpt><trkpt lat="39.39401754319907" lon="16.546336955207806"><ele>1182.0</ele><time>2026-04-25T08:57:10.731Z</time></trkpt><trkpt lat="39.39411301338748" lon="16.546391011779907"><ele>1185.0</ele><time>2026-04-25T08:57:11.731Z</time></trkpt><trkpt lat="39.394201523834255" lon="16.546479568945553"><ele>1188.0</ele><time>2026-04-25T08:57:12.731Z</time></trkpt><trkpt lat="39.394275516999535" lon="16.54659719282363"><ele>1191.0</ele><time>2026-04-25T08:57:13.731Z</time></trkpt><trkpt lat="39.39434895964234" lon="16.54672965597115"><ele>1191.0</ele><time>2026-04-25T08:57:14.731Z</time></trkpt><trkpt lat="39.3944191833548" lon="16.546857916025214"><ele>1191.0</ele><time>2026-04-25T08:57:15.731Z</time></trkpt><trkpt lat="39.394485532182784" lon="16.54696620732893"><ele>1191.0</ele><time>2026-04-25T08:57:16.731Z</time></trkpt><trkpt lat="39.39455154087293" lon="16.547075977220466"><ele>1191.0</ele><time>2026-04-25T08:57:17.731Z</time></trkpt><trkpt lat="39.39461721940569" lon="16.547188498810712"><ele>1191.0</ele><time>2026-04-25T08:57:18.731Z</time></trkpt><trkpt lat="39.39466679632735" lon="16.547312340495296"><ele>1190.75</ele><time>2026-04-25T08:57:19.731Z</time></trkpt><trkpt lat="39.3947022161774" lon="16.547456235932337"><ele>1190.5</ele><time>2026-04-25T08:57:20.731Z</time></trkpt><trkpt lat="39.394712093850856" lon="16.547606321071143"><ele>1190.25</ele><time>2026-04-25T08:57:21.731Z</time></trkpt><trkpt lat="39.39468990166471" lon="16.54775572137473"><ele>1190.0</ele><time>2026-04-25T08:57:22.731Z</time></trkpt><trkpt lat="39.39464518780609" lon="16.54790050306887"><ele>1192.6</ele><time>2026-04-25T08:57:23.731Z</time></trkpt><trkpt lat="39.39459417053886" lon="16.54802016885924"><ele>1195.2</ele><time>2026-04-25T08:57:24.731Z</time></trkpt><trkpt lat="39.39452818495134" lon="16.54811646909149"><ele>1197.8</ele><time>2026-04-25T08:57:25.731Z</time></trkpt><trkpt lat="39.394443074230225" lon="16.548191118047335"><ele>1200.4</ele><time>2026-04-25T08:57:26.731Z</time></trkpt><trkpt lat="39.394341313609445" lon="16.548239949682625"><ele>1203.0</ele><time>2026-04-25T08:57:27.731Z</time></trkpt><trkpt lat="39.394225771648884" lon="16.548265869472893"><ele>1203.0</ele><time>2026-04-25T08:57:28.731Z</time></trkpt><trkpt lat="39.394122238438634" lon="16.54827399173569"><ele>1203.0</ele><time>2026-04-25T08:57:29.731Z</time></trkpt><trkpt lat="39.39401025166791" lon="16.548289289432553"><ele>1203.0</ele><time>2026-04-25T08:57:30.731Z</time></trkpt><trkpt lat="39.39392840775602" lon="16.548313726214452"><ele>1203.0</ele><time>2026-04-25T08:57:31.731Z</time></trkpt><trkpt lat="39.39382201633444" lon="16.548383311422377"><ele>1203.0</ele><time>2026-04-25T08:57:32.731Z</time></trkpt><trkpt lat="39.393718141962104" lon="16.548483370578698"><ele>1203.4</ele><time>2026-04-25T08:57:33.731Z</time></trkpt><trkpt lat="39.39363725992559" lon="16.548575121969595"><ele>1203.8</ele><time>2026-04-25T08:57:34.731Z</time></trkpt><trkpt lat="39.393559016090556" lon="16.54865118370607"><ele>1204.2</ele><time>2026-04-25T08:57:35.731Z</time></trkpt><trkpt lat="39.393479183466965" lon="16.54870295144533"><ele>1204.6</ele><time>2026-04-25T08:57:36.731Z</time></trkpt><trkpt lat="39.39338789344018" lon="16.548675961457263"><ele>1205.0</ele><time>2026-04-25T08:57:37.731Z</time></trkpt><trkpt lat="39.39329979843723" lon="16.54863836020143"><ele>1205.0</ele><time>2026-04-25T08:57:38.731Z</time></trkpt><trkpt lat="39.39322585278057" lon="16.548581835727838"><ele>1205.0</ele><time>2026-04-25T08:57:39.731Z</time></trkpt><trkpt lat="39.39316176503196" lon="16.548490431417115"><ele>1205.0</ele><time>2026-04-25T08:57:40.731Z</time></trkpt><trkpt lat="39.39308422371387" lon="16.548382122329294"><ele>1205.0</ele><time>2026-04-25T08:57:41.731Z</time></trkpt><trkpt lat="39.39299842514154" lon="16.548264973370642"><ele>1205.0</ele><time>2026-04-25T08:57:42.731Z</time></trkpt><trkpt lat="39.3929057109593" lon="16.548158318864015"><ele>1207.0</ele><time>2026-04-25T08:57:43.731Z</time></trkpt><trkpt lat="39.39278663676105" lon="16.54809119010206"><ele>1209.0</ele><time>2026-04-25T08:57:44.731Z</time></trkpt><trkpt lat="39.39267663750836" lon="16.548008632313678"><ele>1211.0</ele><time>2026-04-25T08:57:45.731Z</time></trkpt><trkpt lat="39.392556069159085" lon="16.5479480304773"><ele>1213.0</ele><time>2026-04-25T08:57:46.731Z</time></trkpt><trkpt lat="39.39243340504491" lon="16.547904577610616"><ele>1209.75</ele><time>2026-04-25T08:57:47.731Z</time></trkpt><trkpt lat="39.392309318947184" lon="16.5478637273452"><ele>1206.5</ele><time>2026-04-25T08:57:48.731Z</time></trkpt><trkpt lat="39.392191232894376" lon="16.547824452136254"><ele>1203.25</ele><time>2026-04-25T08:57:49.731Z</time></trkpt><trkpt lat="39.39207283741271" lon="16.547785496684384"><ele>1200.0</ele><time>2026-04-25T08:57:50.731Z</time></trkpt><trkpt lat="39.39195198130785" lon="16.54776282604687"><ele>1199.0</ele><time>2026-04-25T08:57:51.731Z</time></trkpt><trkpt lat="39.39182103885098" lon="16.547760778950042"><ele>1198.0</ele><time>2026-04-25T08:57:52.731Z</time></trkpt><trkpt lat="39.39168224168358" lon="16.547782992718297"><ele>1197.0</ele><time>2026-04-25T08:57:53.731Z</time></trkpt><trkpt lat="39.39155611012738" lon="16.547775184156635"><ele>1196.0</ele><time>2026-04-25T08:57:54.731Z</time></trkpt><trkpt lat="39.391438366310446" lon="16.547784465137777"><ele>1194.8</ele><time>2026-04-25T08:57:55.731Z</time></trkpt><trkpt lat="39.39133352827737" lon="16.54779106766636"><ele>1193.6</ele><time>2026-04-25T08:57:56.731Z</time></trkpt><trkpt lat="39.39122933933869" lon="16.54779176101346"><ele>1192.4</ele><time>2026-04-25T08:57:57.731Z</time></trkpt><trkpt lat="39.39111907332682" lon="16.54778427624172"><ele>1191.2</ele><time>2026-04-25T08:57:58.731Z</time></trkpt><trkpt lat="39.39100760966248" lon="16.54774583963142"><ele>1190.0</ele><time>2026-04-25T08:57:59.731Z</time></trkpt><trkpt lat="39.39088758362792" lon="16.54769983205667"><ele>1190.0</ele><time>2026-04-25T08:58:00.731Z</time></trkpt><trkpt lat="39.39076097951661" lon="16.547646145947667"><ele>1190.0</ele><time>2026-04-25T08:58:01.731Z</time></trkpt><trkpt lat="39.39063912547037" lon="16.5475955963615"><ele>1190.0</ele><time>2026-04-25T08:58:02.731Z</time></trkpt><trkpt lat="39.39052131973964" lon="16.54756765314236"><ele>1190.0</ele><time>2026-04-25T08:58:03.731Z</time></trkpt><trkpt lat="39.390406751228085" lon="16.547525766232663"><ele>1188.75</ele><time>2026-04-25T08:58:04.731Z</time></trkpt><trkpt lat="39.39028961631663" lon="16.547468518433163"><ele>1187.5</ele><time>2026-04-25T08:58:05.73Z</time></trkpt><trkpt lat="39.39015904770708" lon="16.54747169569667"><ele>1186.25</ele><time>2026-04-25T08:58:06.73Z</time></trkpt><trkpt lat="39.3900340140662" lon="16.547473052399805"><ele>1185.0</ele><time>2026-04-25T08:58:07.73Z</time></trkpt><trkpt lat="39.389909056020706" lon="16.54749642338209"><ele>1185.0</ele><time>2026-04-25T08:58:08.73Z</time></trkpt><trkpt lat="39.38980300468613" lon="16.547553676599414"><ele>1185.0</ele><time>2026-04-25T08:58:09.73Z</time></trkpt><trkpt lat="39.38970840103237" lon="16.547655246131132"><ele>1185.0</ele><time>2026-04-25T08:58:10.73Z</time></trkpt><trkpt lat="39.38964109722167" lon="16.547790277416556"><ele>1185.0</ele><time>2026-04-25T08:58:11.73Z</time></trkpt><trkpt lat="39.38958724083783" lon="16.547929819543103"><ele>1182.8</ele><time>2026-04-25T08:58:12.73Z</time></trkpt><trkpt lat="39.38954144446115" lon="16.548055466061204"><ele>1180.6</ele><time>2026-04-25T08:58:13.73Z</time></trkpt><trkpt lat="39.38947142375777" lon="16.548140057578976"><ele>1178.4</ele><time>2026-04-25T08:58:14.73Z</time></trkpt><trkpt lat="39.38938226752918" lon="16.54820114506883"><ele>1176.2</ele><time>2026-04-25T08:58:15.73Z</time></trkpt><trkpt lat="39.38927139436196" lon="16.548228748097586"><ele>1174.0</ele><time>2026-04-25T08:58:16.73Z</time></trkpt><trkpt lat="39.38915903079046" lon="16.548224732318012"><ele>1174.0</ele><time>2026-04-25T08:58:17.73Z</time></trkpt><trkpt lat="39.38904575227" lon="16.548237086154664"><ele>1174.0</ele><time>2026-04-25T08:58:18.73Z</time></trkpt><trkpt lat="39.38894225269866" lon="16.548228630932464"><ele>1174.0</ele><time>2026-04-25T08:58:19.73Z</time></trkpt><trkpt lat="39.38884166752589" lon="16.548268519317524"><ele>1174.0</ele><time>2026-04-25T08:58:20.73Z</time></trkpt><trkpt lat="39.38874782523031" lon="16.548353988337244"><ele>1174.0</ele><time>2026-04-25T08:58:21.73Z</time></trkpt><trkpt lat="39.38867038652756" lon="16.548461741852318"><ele>1171.2</ele><time>2026-04-25T08:58:22.73Z</time></trkpt><trkpt lat="39.388599916668284" lon="16.54858578635469"><ele>1168.4</ele><time>2026-04-25T08:58:23.73Z</time></trkpt><trkpt lat="39.388533131376356" lon="16.548705113402196"><ele>1165.6</ele><time>2026-04-25T08:58:24.73Z</time></trkpt><trkpt lat="39.388471452543065" lon="16.548818322388318"><ele>1162.8</ele><time>2026-04-25T08:58:25.73Z</time></trkpt><trkpt lat="39.38841661420159" lon="16.548936028255834"><ele>1160.0</ele><time>2026-04-25T08:58:26.73Z</time></trkpt><trkpt lat="39.38836682890628" lon="16.54905381746786"><ele>1160.0</ele><time>2026-04-25T08:58:27.73Z</time></trkpt><trkpt lat="39.388321593742816" lon="16.549171955498743"><ele>1160.0</ele><time>2026-04-25T08:58:28.73Z</time></trkpt><trkpt lat="39.38828932653087" lon="16.549300228964835"><ele>1160.0</ele><time>2026-04-25T08:58:29.73Z</time></trkpt><trkpt lat="39.38826860869907" lon="16.549426423731106"><ele>1160.0</ele><time>2026-04-25T08:58:30.73Z</time></trkpt><trkpt lat="39.3882582500176" lon="16.549600759402065"><ele>1160.0</ele><time>2026-04-25T08:58:31.73Z</time></trkpt><trkpt lat="39.388267129070705" lon="16.549789849093923"><ele>1161.75</ele><time>2026-04-25T08:58:32.73Z</time></trkpt><trkpt lat="39.38828543105208" lon="16.54996564209368"><ele>1163.5</ele><time>2026-04-25T08:58:33.73Z</time></trkpt><trkpt lat="39.388297519945894" lon="16.550133752632814"><ele>1165.25</ele><time>2026-04-25T08:58:34.73Z</time></trkpt><trkpt lat="39.388306188837255" lon="16.550293594882586"><ele>1167.0</ele><time>2026-04-25T08:58:35.73Z</time></trkpt><trkpt lat="39.3883198004261" lon="16.550440097436567"><ele>1167.3333333333333</ele><time>2026-04-25T08:58:36.73Z</time></trkpt><trkpt lat="39.388330452974046" lon="16.55055284337385"><ele>1167.6666666666667</ele><time>2026-04-25T08:58:37.73Z</time></trkpt><trkpt lat="39.38833307128782" lon="16.550656788985904"><ele>1168.0</ele><time>2026-04-25T08:58:38.73Z</time></trkpt><trkpt lat="39.38831539286182" lon="16.55076432988841"><ele>1168.3333333333335</ele><time>2026-04-25T08:58:39.73Z</time></trkpt><trkpt lat="39.38825340278085" lon="16.55084077083504"><ele>1168.6666666666667</ele><time>2026-04-25T08:58:40.731Z</time></trkpt><trkpt lat="39.38818844917761" lon="16.55089513324142"><ele>1169.0</ele><time>2026-04-25T08:58:41.731Z</time></trkpt><trkpt lat="39.388109046552444" lon="16.55088702286653"><ele>1169.0</ele><time>2026-04-25T08:58:42.731Z</time></trkpt><trkpt lat="39.388038702348965" lon="16.55090694707919"><ele>1169.0</ele><time>2026-04-25T08:58:43.731Z</time></trkpt><trkpt lat="39.38797194487671" lon="16.550865992541006"><ele>1169.0</ele><time>2026-04-25T08:58:44.731Z</time></trkpt><trkpt lat="39.3879017979563" lon="16.55084929685124"><ele>1169.0</ele><time>2026-04-25T08:58:45.731Z</time></trkpt><trkpt lat="39.3878325382445" lon="16.55083393531524"><ele>1169.0</ele><time>2026-04-25T08:58:46.731Z</time></trkpt><trkpt lat="39.38772994503304" lon="16.550812305413295"><ele>1169.0</ele><time>2026-04-25T08:58:48.731Z</time></trkpt><trkpt lat="39.38760011339646" lon="16.550803205048904"><ele>1169.5</ele><time>2026-04-25T08:58:50.731Z</time></trkpt><trkpt lat="39.38753312380053" lon="16.55077080923361"><ele>1170.0</ele><time>2026-04-25T08:58:53.731Z</time></trkpt><trkpt lat="39.38745172088332" lon="16.55075746406083"><ele>1170.5</ele><time>2026-04-25T08:58:56.731Z</time></trkpt><trkpt lat="39.38738207672221" lon="16.550748679462203"><ele>1171.0</ele><time>2026-04-25T08:59:00.731Z</time></trkpt><trkpt lat="39.387315922836635" lon="16.550729353790455"><ele>1171.5</ele><time>2026-04-25T08:59:03.731Z</time></trkpt><trkpt lat="39.38722894339163" lon="16.55072633861839"><ele>1172.0</ele><time>2026-04-25T08:59:10.731Z</time></trkpt><trkpt lat="39.38714942783463" lon="16.55069029997473"><ele>1172.0</ele><time>2026-04-25T08:59:11.731Z</time></trkpt><trkpt lat="39.38707993833961" lon="16.55058089622807"><ele>1172.0</ele><time>2026-04-25T08:59:12.731Z</time></trkpt><trkpt lat="39.38701411790665" lon="16.550460206465758"><ele>1172.0</ele><time>2026-04-25T08:59:13.731Z</time></trkpt><trkpt lat="39.38693708511558" lon="16.55035148950464"><ele>1172.0</ele><time>2026-04-25T08:59:14.731Z</time></trkpt><trkpt lat="39.386879899507875" lon="16.550261143648974"><ele>1172.0</ele><time>2026-04-25T08:59:15.731Z</time></trkpt><trkpt lat="39.38683408577097" lon="16.550169360055175"><ele>1171.3333333333335</ele><time>2026-04-25T08:59:16.731Z</time></trkpt><trkpt lat="39.386785420394176" lon="16.55008457109364"><ele>1170.6666666666667</ele><time>2026-04-25T08:59:17.731Z</time></trkpt><trkpt lat="39.38674422295746" lon="16.549994618015294"><ele>1170.0</ele><time>2026-04-25T08:59:18.731Z</time></trkpt><trkpt lat="39.38671172206572" lon="16.549892805613375"><ele>1169.3333333333333</ele><time>2026-04-25T08:59:19.731Z</time></trkpt><trkpt lat="39.38668569989778" lon="16.549792176142972"><ele>1168.6666666666665</ele><time>2026-04-25T08:59:20.731Z</time></trkpt><trkpt lat="39.38667555039027" lon="16.54967931353313"><ele>1168.0</ele><time>2026-04-25T08:59:21.731Z</time></trkpt><trkpt lat="39.386670631040595" lon="16.549576426190942"><ele>1167.8</ele><time>2026-04-25T08:59:22.731Z</time></trkpt><trkpt lat="39.38664164371558" lon="16.549458035671293"><ele>1167.6</ele><time>2026-04-25T08:59:23.731Z</time></trkpt><trkpt lat="39.386613021389174" lon="16.549351726758253"><ele>1167.4</ele><time>2026-04-25T08:59:24.731Z</time></trkpt><trkpt lat="39.38658006432852" lon="16.549236337678867"><ele>1167.2</ele><time>2026-04-25T08:59:25.731Z</time></trkpt><trkpt lat="39.38655092873665" lon="16.549111431006956"><ele>1167.0</ele><time>2026-04-25T08:59:26.731Z</time></trkpt><trkpt lat="39.386494895809555" lon="16.54901823163641"><ele>1167.0</ele><time>2026-04-25T08:59:27.731Z</time></trkpt><trkpt lat="39.38645987834997" lon="16.54890548910087"><ele>1167.0</ele><time>2026-04-25T08:59:28.731Z</time></trkpt><trkpt lat="39.38643205908393" lon="16.54881408383563"><ele>1167.0</ele><time>2026-04-25T08:59:29.73Z</time></trkpt><trkpt lat="39.3864225591638" lon="16.548704847328015"><ele>1167.0</ele><time>2026-04-25T08:59:30.73Z</time></trkpt><trkpt lat="39.386432742777956" lon="16.548579248183895"><ele>1167.0</ele><time>2026-04-25T08:59:31.73Z</time></trkpt><trkpt lat="39.38644776157859" lon="16.54845376365804"><ele>1166.4</ele><time>2026-04-25T08:59:32.73Z</time></trkpt><trkpt lat="39.3864569835694" lon="16.548345329753566"><ele>1165.8000000000002</ele><time>2026-04-25T08:59:33.73Z</time></trkpt><trkpt lat="39.386455329259945" lon="16.54821531111118"><ele>1165.2</ele><time>2026-04-25T08:59:34.73Z</time></trkpt><trkpt lat="39.386429312508" lon="16.548093681507044"><ele>1164.6000000000001</ele><time>2026-04-25T08:59:35.73Z</time></trkpt><trkpt lat="39.386406859482896" lon="16.547988515481133"><ele>1164.0</ele><time>2026-04-25T08:59:36.73Z</time></trkpt><trkpt lat="39.38635306380397" lon="16.54788433872124"><ele>1164.0</ele><time>2026-04-25T08:59:37.73Z</time></trkpt><trkpt lat="39.38629006306532" lon="16.54778990752517"><ele>1164.0</ele><time>2026-04-25T08:59:38.73Z</time></trkpt><trkpt lat="39.38619972739627" lon="16.547702276131428"><ele>1164.0</ele><time>2026-04-25T08:59:39.73Z</time></trkpt><trkpt lat="39.38609938136438" lon="16.547645493315507"><ele>1164.0</ele><time>2026-04-25T08:59:40.73Z</time></trkpt><trkpt lat="39.38599999802543" lon="16.54759763674605"><ele>1164.0</ele><time>2026-04-25T08:59:41.73Z</time></trkpt><trkpt lat="39.38589191908861" lon="16.54755696978338"><ele>1164.0</ele><time>2026-04-25T08:59:42.73Z</time></trkpt><trkpt lat="39.3857804036177" lon="16.54751758084472"><ele>1164.0</ele><time>2026-04-25T08:59:43.73Z</time></trkpt><trkpt lat="39.385677984774894" lon="16.547482810281355"><ele>1164.0</ele><time>2026-04-25T08:59:44.73Z</time></trkpt><trkpt lat="39.385590577462764" lon="16.547453136078325"><ele>1164.0</ele><time>2026-04-25T08:59:45.73Z</time></trkpt><trkpt lat="39.38551282549433" lon="16.54742673973305"><ele>1164.0</ele><time>2026-04-25T08:59:46.73Z</time></trkpt><trkpt lat="39.38540916432043" lon="16.547391547451554"><ele>1164.0</ele><time>2026-04-25T08:59:48.73Z</time></trkpt><trkpt lat="39.38532557360383" lon="16.547363168962338"><ele>1164.0</ele><time>2026-04-25T08:59:51.73Z</time></trkpt><trkpt lat="39.38526249756856" lon="16.54734184871966"><ele>1164.0</ele><time>2026-04-25T08:59:52.73Z</time></trkpt><trkpt lat="39.38517790243686" lon="16.547334030499577"><ele>1164.0</ele><time>2026-04-25T08:59:53.73Z</time></trkpt><trkpt lat="39.38508187119298" lon="16.547296238181193"><ele>1164.0</ele><time>2026-04-25T08:59:54.73Z</time></trkpt><trkpt lat="39.384981408747194" lon="16.547262485903925"><ele>1164.0</ele><time>2026-04-25T08:59:55.73Z</time></trkpt><trkpt lat="39.38489437274782" lon="16.547234993479776"><ele>1164.0</ele><time>2026-04-25T08:59:56.73Z</time></trkpt><trkpt lat="39.38482090547562" lon="16.547205816801007"><ele>1164.0</ele><time>2026-04-25T08:59:57.73Z</time></trkpt><trkpt lat="39.38475617924849" lon="16.547171689685573"><ele>1164.0</ele><time>2026-04-25T08:59:58.73Z</time></trkpt><trkpt lat="39.384687980571385" lon="16.547170836528682"><ele>1164.0</ele><time>2026-04-25T08:59:59.73Z</time></trkpt><trkpt lat="39.384586802130116" lon="16.547133179109654"><ele>1164.0</ele><time>2026-04-25T09:00:01.73Z</time></trkpt><trkpt lat="39.38451854326832" lon="16.54710225804438"><ele>1164.0</ele><time>2026-04-25T09:00:03.73Z</time></trkpt><trkpt lat="39.38444185011985" lon="16.54705522949589"><ele>1164.0</ele><time>2026-04-25T09:00:30.73Z</time></trkpt><trkpt lat="39.38452343930313" lon="16.54709470184828"><ele>1164.0</ele><time>2026-04-25T09:00:43.73Z</time></trkpt><trkpt lat="39.38458547944768" lon="16.547161916710454"><ele>1164.0</ele><time>2026-04-25T09:00:44.73Z</time></trkpt><trkpt lat="39.3846596213749" lon="16.5471826132148"><ele>1164.0</ele><time>2026-04-25T09:00:45.73Z</time></trkpt><trkpt lat="39.38474022332445" lon="16.547206173406032"><ele>1164.0</ele><time>2026-04-25T09:00:46.731Z</time></trkpt><trkpt lat="39.38482069785507" lon="16.547234693274245"><ele>1164.0</ele><time>2026-04-25T09:00:47.731Z</time></trkpt><trkpt lat="39.384900196054716" lon="16.54726038803442"><ele>1164.0</ele><time>2026-04-25T09:00:48.73Z</time></trkpt><trkpt lat="39.384973645989966" lon="16.54728238617972"><ele>1164.0</ele><time>2026-04-25T09:00:49.73Z</time></trkpt><trkpt lat="39.385035354843296" lon="16.547306858944648"><ele>1164.0</ele><time>2026-04-25T09:00:50.73Z</time></trkpt><trkpt lat="39.385133788848464" lon="16.547355070576845"><ele>1164.0</ele><time>2026-04-25T09:00:52.73Z</time></trkpt><trkpt lat="39.38519759607052" lon="16.54740386062611"><ele>1164.0</ele><time>2026-04-25T09:00:54.73Z</time></trkpt><trkpt lat="39.385259415298904" lon="16.547438665527153"><ele>1164.0</ele><time>2026-04-25T09:00:58.73Z</time></trkpt><trkpt lat="39.38531950925463" lon="16.54739633861609"><ele>1164.0</ele><time>2026-04-25T09:01:54.73Z</time></trkpt><trkpt lat="39.385319157572326" lon="16.547299910999048"><ele>1164.0</ele><time>2026-04-25T09:01:58.73Z</time></trkpt><trkpt lat="39.38535008320605" lon="16.547225868692763"><ele>1164.0</ele><time>2026-04-25T09:02:01.73Z</time></trkpt><trkpt lat="39.38542826637054" lon="16.54717181945804"><ele>1164.0</ele><time>2026-04-25T09:02:04.73Z</time></trkpt><trkpt lat="39.38547273320697" lon="16.547081523956376"><ele>1164.0</ele><time>2026-04-25T09:02:07.73Z</time></trkpt><trkpt lat="39.38537828940747" lon="16.546965829615726"><ele>1164.0</ele><time>2026-04-25T09:02:14.73Z</time></trkpt><trkpt lat="39.3853179078377" lon="16.546934943681933"><ele>1164.4285714285713</ele><time>2026-04-25T09:02:18.73Z</time></trkpt><trkpt lat="39.38525634373877" lon="16.546890488334977"><ele>1164.8571428571427</ele><time>2026-04-25T09:02:21.73Z</time></trkpt><trkpt lat="39.38518893093783" lon="16.5468191909427"><ele>1165.2857142857142</ele><time>2026-04-25T09:02:23.73Z</time></trkpt><trkpt lat="39.38512969512678" lon="16.5467674435558"><ele>1165.7142857142858</ele><time>2026-04-25T09:02:25.73Z</time></trkpt><trkpt lat="39.38507347358179" lon="16.546711163262316"><ele>1166.1428571428573</ele><time>2026-04-25T09:02:27.73Z</time></trkpt><trkpt lat="39.38501535354586" lon="16.546647487280588"><ele>1166.5714285714287</ele><time>2026-04-25T09:02:29.73Z</time></trkpt><trkpt lat="39.38495774025521" lon="16.546598997213696"><ele>1167.0</ele><time>2026-04-25T09:02:31.73Z</time></trkpt><trkpt lat="39.38490947123563" lon="16.5465325171673"><ele>1167.0</ele><time>2026-04-25T09:02:33.73Z</time></trkpt><trkpt lat="39.38486047838554" lon="16.546472151465995"><ele>1167.0</ele><time>2026-04-25T09:02:35.729Z</time></trkpt><trkpt lat="39.384813539792844" lon="16.5464067837878"><ele>1167.0</ele><time>2026-04-25T09:02:37.729Z</time></trkpt><trkpt lat="39.384776829540044" lon="16.546332394274454"><ele>1167.0</ele><time>2026-04-25T09:02:39.729Z</time></trkpt><trkpt lat="39.38475057612815" lon="16.54625534321411"><ele>1167.0</ele><time>2026-04-25T09:02:41.729Z</time></trkpt><trkpt lat="39.38471743769003" lon="16.546174095071358"><ele>1167.0</ele><time>2026-04-25T09:02:43.729Z</time></trkpt><trkpt lat="39.384724108326864" lon="16.54608130127311"><ele>1167.0</ele><time>2026-04-25T09:02:45.729Z</time></trkpt><trkpt lat="39.384728192531405" lon="16.54598604987796"><ele>1164.8333333333333</ele><time>2026-04-25T09:02:47.729Z</time></trkpt><trkpt lat="39.38471812503521" lon="16.54588739583648"><ele>1162.6666666666667</ele><time>2026-04-25T09:02:50.729Z</time></trkpt><trkpt lat="39.38472496699261" lon="16.545791906496916"><ele>1160.5</ele><time>2026-04-25T09:02:54.73Z</time></trkpt><trkpt lat="39.384772743164504" lon="16.545683188817122"><ele>1158.3333333333335</ele><time>2026-04-25T09:02:56.73Z</time></trkpt><trkpt lat="39.38481825548404" lon="16.54560190324991"><ele>1156.1666666666667</ele><time>2026-04-25T09:02:57.73Z</time></trkpt><trkpt lat="39.38487827544997" lon="16.545510019980824"><ele>1154.0</ele><time>2026-04-25T09:02:58.73Z</time></trkpt><trkpt lat="39.384919406225144" lon="16.54542111443684"><ele>1152.4</ele><time>2026-04-25T09:02:59.73Z</time></trkpt><trkpt lat="39.38496469487623" lon="16.545342588322953"><ele>1150.8000000000002</ele><time>2026-04-25T09:03:00.73Z</time></trkpt><trkpt lat="39.38501788941322" lon="16.545250844626583"><ele>1149.1999999999998</ele><time>2026-04-25T09:03:01.73Z</time></trkpt><trkpt lat="39.38506199851399" lon="16.54514766482355"><ele>1147.6</ele><time>2026-04-25T09:03:02.73Z</time></trkpt><trkpt lat="39.385118817319565" lon="16.54502584770075"><ele>1146.0</ele><time>2026-04-25T09:03:03.73Z</time></trkpt><trkpt lat="39.38517577630464" lon="16.544924474229155"><ele>1146.0</ele><time>2026-04-25T09:03:04.73Z</time></trkpt><trkpt lat="39.385217648345474" lon="16.54482035246107"><ele>1146.0</ele><time>2026-04-25T09:03:05.73Z</time></trkpt><trkpt lat="39.385252293303346" lon="16.544717532612115"><ele>1146.0</ele><time>2026-04-25T09:03:06.73Z</time></trkpt><trkpt lat="39.385273472087654" lon="16.544619479054287"><ele>1146.0</ele><time>2026-04-25T09:03:07.73Z</time></trkpt><trkpt lat="39.385277142883155" lon="16.544535843499578"><ele>1146.0</ele><time>2026-04-25T09:03:08.73Z</time></trkpt><trkpt lat="39.385272039648186" lon="16.544432806375678"><ele>1146.0</ele><time>2026-04-25T09:03:09.73Z</time></trkpt><trkpt lat="39.385272363119526" lon="16.54433525932233"><ele>1145.3999999999999</ele><time>2026-04-25T09:03:10.73Z</time></trkpt><trkpt lat="39.38526721005619" lon="16.54424120062189"><ele>1144.8</ele><time>2026-04-25T09:03:11.73Z</time></trkpt><trkpt lat="39.38523272751737" lon="16.544127270316075"><ele>1144.1999999999998</ele><time>2026-04-25T09:03:12.729Z</time></trkpt><trkpt lat="39.385203396205604" lon="16.544000081804782"><ele>1143.6</ele><time>2026-04-25T09:03:13.729Z</time></trkpt><trkpt lat="39.38514419742639" lon="16.543905919287038"><ele>1143.0</ele><time>2026-04-25T09:03:14.729Z</time></trkpt><trkpt lat="39.3850956794747" lon="16.543802741635062"><ele>1142.8333333333333</ele><time>2026-04-25T09:03:15.729Z</time></trkpt><trkpt lat="39.385062653835035" lon="16.54368158213251"><ele>1142.6666666666667</ele><time>2026-04-25T09:03:16.729Z</time></trkpt><trkpt lat="39.38504740727493" lon="16.54358345174135"><ele>1142.5</ele><time>2026-04-25T09:03:17.729Z</time></trkpt><trkpt lat="39.3850169530675" lon="16.543488352939157"><ele>1142.3333333333335</ele><time>2026-04-25T09:03:19.729Z</time></trkpt><trkpt lat="39.38496379718731" lon="16.543429138253817"><ele>1142.1666666666667</ele><time>2026-04-25T09:04:45.728Z</time></trkpt><trkpt lat="39.384895828498614" lon="16.54340398721065"><ele>1142.0</ele><time>2026-04-25T09:04:47.728Z</time></trkpt><trkpt lat="39.38483113051558" lon="16.543445494789086"><ele>1142.0</ele><time>2026-04-25T09:04:49.728Z</time></trkpt><trkpt lat="39.384807448401325" lon="16.543524743252014"><ele>1142.0</ele><time>2026-04-25T09:04:51.728Z</time></trkpt><trkpt lat="39.384855020519936" lon="16.54362316741522"><ele>1142.0</ele><time>2026-04-25T09:04:54.728Z</time></trkpt><trkpt lat="39.38491902969453" lon="16.54362778167518"><ele>1142.0</ele><time>2026-04-25T09:04:56.728Z</time></trkpt><trkpt lat="39.38496853305955" lon="16.543570784182943"><ele>1142.0</ele><time>2026-04-25T09:04:58.729Z</time></trkpt><trkpt lat="39.384998932518926" lon="16.543458331624112"><ele>1142.0</ele><time>2026-04-25T09:05:01.729Z</time></trkpt><trkpt lat="39.384999138484325" lon="16.543349743042857"><ele>1142.0</ele><time>2026-04-25T09:05:04.729Z</time></trkpt><trkpt lat="39.385041197701" lon="16.543283139288466"><ele>1142.0</ele><time>2026-04-25T09:05:06.729Z</time></trkpt><trkpt lat="39.38509800644178" lon="16.54324681461775"><ele>1142.0</ele><time>2026-04-25T09:05:08.729Z</time></trkpt><trkpt lat="39.38515604452916" lon="16.543202411517463"><ele>1142.0</ele><time>2026-04-25T09:05:10.729Z</time></trkpt><trkpt lat="39.38521340685241" lon="16.54316164482566"><ele>1142.0</ele><time>2026-04-25T09:05:12.729Z</time></trkpt><trkpt lat="39.3852729990082" lon="16.543098731176855"><ele>1142.0</ele><time>2026-04-25T09:05:15.729Z</time></trkpt><trkpt lat="39.385333529617135" lon="16.543055350968427"><ele>1142.0</ele><time>2026-04-25T09:05:18.729Z</time></trkpt><trkpt lat="39.38539479583547" lon="16.54299185257868"><ele>1142.0</ele><time>2026-04-25T09:05:21.729Z</time></trkpt><trkpt lat="39.38546581114911" lon="16.54294606332873"><ele>1142.0</ele><time>2026-04-25T09:05:25.729Z</time></trkpt><trkpt lat="39.385497228711806" lon="16.54287295375855"><ele>1142.0</ele><time>2026-04-25T09:05:28.729Z</time></trkpt><trkpt lat="39.3854424850567" lon="16.542796535530222"><ele>1142.0</ele><time>2026-04-25T09:05:32.729Z</time></trkpt><trkpt lat="39.38537884554143" lon="16.54280312268787"><ele>1142.0</ele><time>2026-04-25T09:06:04.728Z</time></trkpt><trkpt lat="39.38535331891753" lon="16.54290061868375"><ele>1142.0</ele><time>2026-04-25T09:17:16.723Z</time></trkpt><trkpt lat="39.385399482725795" lon="16.542824582576728"><ele>1142.0</ele><time>2026-04-25T09:18:22.723Z</time></trkpt><trkpt lat="39.385317566429386" lon="16.54275965830793"><ele>1142.0</ele><time>2026-04-25T09:23:41.72Z</time></trkpt><trkpt lat="39.38525168523322" lon="16.54274002418212"><ele>1142.0</ele><time>2026-04-25T09:23:43.72Z</time></trkpt><trkpt lat="39.385186972037744" lon="16.542735274529665"><ele>1142.0</ele><time>2026-04-25T09:23:45.72Z</time></trkpt><trkpt lat="39.38512593558424" lon="16.54281932982241"><ele>1142.0</ele><time>2026-04-25T09:23:47.72Z</time></trkpt><trkpt lat="39.38512355734368" lon="16.542913482981657"><ele>1142.0</ele><time>2026-04-25T09:23:49.72Z</time></trkpt><trkpt lat="39.385134652453715" lon="16.542993902039775"><ele>1142.0</ele><time>2026-04-25T09:23:51.721Z</time></trkpt><trkpt lat="39.38512177615921" lon="16.543110018155044"><ele>1142.0</ele><time>2026-04-25T09:23:54.721Z</time></trkpt><trkpt lat="39.38508586602569" lon="16.543215418937564"><ele>1142.0</ele><time>2026-04-25T09:23:57.721Z</time></trkpt><trkpt lat="39.38502833028887" lon="16.54332057317315"><ele>1142.0</ele><time>2026-04-25T09:24:00.721Z</time></trkpt><trkpt lat="39.38498632603192" lon="16.543384187892087"><ele>1142.0</ele><time>2026-04-25T09:24:02.721Z</time></trkpt><trkpt lat="39.38493503053063" lon="16.543495832520225"><ele>1142.0</ele><time>2026-04-25T09:24:04.721Z</time></trkpt><trkpt lat="39.38489802798693" lon="16.543575136979488"><ele>1142.0</ele><time>2026-04-25T09:24:06.721Z</time></trkpt><trkpt lat="39.38487149867413" lon="16.543671751009168"><ele>1142.0</ele><time>2026-04-25T09:24:09.721Z</time></trkpt><trkpt lat="39.38481297962141" lon="16.54376766471292"><ele>1142.2</ele><time>2026-04-25T09:24:12.721Z</time></trkpt><trkpt lat="39.38475052432184" lon="16.543863154314923"><ele>1142.4</ele><time>2026-04-25T09:24:14.721Z</time></trkpt><trkpt lat="39.38469358629951" lon="16.54399476139676"><ele>1142.6</ele><time>2026-04-25T09:24:16.721Z</time></trkpt><trkpt lat="39.38466205638579" lon="16.544098564950886"><ele>1142.8</ele><time>2026-04-25T09:24:17.721Z</time></trkpt><trkpt lat="39.38463927367109" lon="16.544190626488323"><ele>1143.0</ele><time>2026-04-25T09:24:18.721Z</time></trkpt><trkpt lat="39.38461780283252" lon="16.54429818014017"><ele>1143.0</ele><time>2026-04-25T09:24:19.721Z</time></trkpt><trkpt lat="39.384599200220364" lon="16.54439757420995"><ele>1143.0</ele><time>2026-04-25T09:24:20.721Z</time></trkpt><trkpt lat="39.384582062402934" lon="16.544478021862343"><ele>1143.0</ele><time>2026-04-25T09:24:21.721Z</time></trkpt><trkpt lat="39.38455707443635" lon="16.544636442246652"><ele>1143.0</ele><time>2026-04-25T09:24:23.721Z</time></trkpt><trkpt lat="39.3845380030988" lon="16.5447987800792"><ele>1143.0</ele><time>2026-04-25T09:24:25.72Z</time></trkpt><trkpt lat="39.38450564598266" lon="16.54493415846592"><ele>1144.0</ele><time>2026-04-25T09:24:27.72Z</time></trkpt><trkpt lat="39.38449232636322" lon="16.54501971493157"><ele>1145.0</ele><time>2026-04-25T09:24:28.72Z</time></trkpt><trkpt lat="39.38446250275486" lon="16.545141560286186"><ele>1146.0</ele><time>2026-04-25T09:24:30.72Z</time></trkpt><trkpt lat="39.38444764058983" lon="16.54525032052032"><ele>1147.0</ele><time>2026-04-25T09:24:32.72Z</time></trkpt><trkpt lat="39.38441455521812" lon="16.545391886970958"><ele>1148.0</ele><time>2026-04-25T09:24:34.72Z</time></trkpt><trkpt lat="39.384376064638026" lon="16.545466038241116"><ele>1149.0</ele><time>2026-04-25T09:24:35.72Z</time></trkpt><trkpt lat="39.38436043855078" lon="16.545590030683414"><ele>1149.8333333333333</ele><time>2026-04-25T09:24:37.72Z</time></trkpt><trkpt lat="39.38439589364053" lon="16.545673526276538"><ele>1150.6666666666667</ele><time>2026-04-25T09:24:39.72Z</time></trkpt><trkpt lat="39.38445088724121" lon="16.54573048393728"><ele>1151.5</ele><time>2026-04-25T09:24:42.72Z</time></trkpt><trkpt lat="39.38451568183718" lon="16.545813649778317"><ele>1152.3333333333335</ele><time>2026-04-25T09:24:44.72Z</time></trkpt><trkpt lat="39.38456911983948" lon="16.545889168134714"><ele>1153.1666666666667</ele><time>2026-04-25T09:24:46.72Z</time></trkpt><trkpt lat="39.38461953664721" lon="16.545949037087198"><ele>1154.0</ele><time>2026-04-25T09:24:49.72Z</time></trkpt><trkpt lat="39.38470068824577" lon="16.545952316805685"><ele>1154.0</ele><time>2026-04-25T09:24:53.72Z</time></trkpt><trkpt lat="39.38473546209123" lon="16.545862086020946"><ele>1154.0</ele><time>2026-04-25T09:24:56.72Z</time></trkpt><trkpt lat="39.38475150381667" lon="16.545772016391794"><ele>1154.0</ele><time>2026-04-25T09:25:00.72Z</time></trkpt><trkpt lat="39.38472404657784" lon="16.54567656567293"><ele>1154.0</ele><time>2026-04-25T09:25:03.72Z</time></trkpt><trkpt lat="39.38466493549004" lon="16.545627780937632"><ele>1154.0</ele><time>2026-04-25T09:25:07.72Z</time></trkpt><trkpt lat="39.38461371165814" lon="16.54570995644809"><ele>1154.0</ele><time>2026-04-25T09:25:12.72Z</time></trkpt><trkpt lat="39.38465172004381" lon="16.545796821251155"><ele>1154.0</ele><time>2026-04-25T09:25:15.72Z</time></trkpt><trkpt lat="39.38466273957586" lon="16.545909836577888"><ele>1154.0</ele><time>2026-04-25T09:25:19.72Z</time></trkpt><trkpt lat="39.38467528980924" lon="16.546021836113162"><ele>1154.0</ele><time>2026-04-25T09:25:21.72Z</time></trkpt><trkpt lat="39.38471320901872" lon="16.54614464714276"><ele>1154.0</ele><time>2026-04-25T09:25:23.72Z</time></trkpt><trkpt lat="39.384745539624035" lon="16.546221384178804"><ele>1154.0</ele><time>2026-04-25T09:25:24.72Z</time></trkpt><trkpt lat="39.38477213845651" lon="16.546315904352582"><ele>1154.0</ele><time>2026-04-25T09:25:25.72Z</time></trkpt><trkpt lat="39.38480516774977" lon="16.546423210574254"><ele>1156.6000000000001</ele><time>2026-04-25T09:25:26.72Z</time></trkpt><trkpt lat="39.38484568171464" lon="16.54649987417152"><ele>1159.2</ele><time>2026-04-25T09:25:27.72Z</time></trkpt><trkpt lat="39.38491831358935" lon="16.546589895422464"><ele>1161.8000000000002</ele><time>2026-04-25T09:25:28.72Z</time></trkpt><trkpt lat="39.38499900585365" lon="16.546679345247888"><ele>1164.4</ele><time>2026-04-25T09:25:29.72Z</time></trkpt><trkpt lat="39.385109887121395" lon="16.546752310955164"><ele>1167.0</ele><time>2026-04-25T09:25:30.72Z</time></trkpt><trkpt lat="39.38521268840611" lon="16.54681969117421"><ele>1167.0</ele><time>2026-04-25T09:25:31.72Z</time></trkpt><trkpt lat="39.3852999718201" lon="16.546882123815408"><ele>1167.0</ele><time>2026-04-25T09:25:32.72Z</time></trkpt><trkpt lat="39.38540220275321" lon="16.54695449008982"><ele>1167.0</ele><time>2026-04-25T09:25:34.72Z</time></trkpt><trkpt lat="39.3854714241922" lon="16.54705838687415"><ele>1167.0</ele><time>2026-04-25T09:25:36.72Z</time></trkpt><trkpt lat="39.38543598068521" lon="16.547153529506744"><ele>1167.0</ele><time>2026-04-25T09:25:39.72Z</time></trkpt><trkpt lat="39.385364439441176" lon="16.547176625322123"><ele>1166.5</ele><time>2026-04-25T09:25:42.72Z</time></trkpt><trkpt lat="39.385304684240246" lon="16.547261979076072"><ele>1166.0</ele><time>2026-04-25T09:26:41.719Z</time></trkpt><trkpt lat="39.38524665764467" lon="16.54731917455271"><ele>1165.5</ele><time>2026-04-25T09:26:54.719Z</time></trkpt><trkpt lat="39.385178033407456" lon="16.547351130225135"><ele>1165.0</ele><time>2026-04-25T09:26:57.719Z</time></trkpt><trkpt lat="39.38510909857678" lon="16.547331502908307"><ele>1164.5</ele><time>2026-04-25T09:26:59.719Z</time></trkpt><trkpt lat="39.385014988202265" lon="16.547283691500212"><ele>1164.0</ele><time>2026-04-25T09:27:01.719Z</time></trkpt><trkpt lat="39.38495258402236" lon="16.54726533748097"><ele>1164.0</ele><time>2026-04-25T09:27:02.719Z</time></trkpt><trkpt lat="39.38488250765707" lon="16.547214247498527"><ele>1164.0</ele><time>2026-04-25T09:27:03.719Z</time></trkpt><trkpt lat="39.38479471992608" lon="16.547184674342986"><ele>1164.0</ele><time>2026-04-25T09:27:04.719Z</time></trkpt><trkpt lat="39.384719510409205" lon="16.54715933843825"><ele>1164.0</ele><time>2026-04-25T09:27:05.719Z</time></trkpt><trkpt lat="39.384648247174006" lon="16.547135331908244"><ele>1164.0</ele><time>2026-04-25T09:27:06.719Z</time></trkpt><trkpt lat="39.38457621352108" lon="16.547111065857013"><ele>1164.0</ele><time>2026-04-25T09:27:07.719Z</time></trkpt><trkpt lat="39.38449961209678" lon="16.54708526106894"><ele>1164.1666666666667</ele><time>2026-04-25T09:27:08.719Z</time></trkpt><trkpt lat="39.384420161804044" lon="16.54705849655696"><ele>1164.3333333333333</ele><time>2026-04-25T09:27:09.719Z</time></trkpt><trkpt lat="39.38433817936594" lon="16.54703087905341"><ele>1164.5</ele><time>2026-04-25T09:27:10.719Z</time></trkpt><trkpt lat="39.38425272145236" lon="16.547002090760838"><ele>1164.6666666666665</ele><time>2026-04-25T09:27:11.719Z</time></trkpt><trkpt lat="39.38416500306937" lon="16.54697263438834"><ele>1164.8333333333333</ele><time>2026-04-25T09:27:12.719Z</time></trkpt><trkpt lat="39.384072947983185" lon="16.546963710847958"><ele>1165.0</ele><time>2026-04-25T09:27:13.719Z</time></trkpt><trkpt lat="39.38398100065512" lon="16.546928127973057"><ele>1165.8</ele><time>2026-04-25T09:27:14.719Z</time></trkpt><trkpt lat="39.383888936345805" lon="16.546893407693247"><ele>1166.6</ele><time>2026-04-25T09:27:15.719Z</time></trkpt><trkpt lat="39.383794340657104" lon="16.5468621770334"><ele>1167.4</ele><time>2026-04-25T09:27:16.719Z</time></trkpt><trkpt lat="39.38369611817681" lon="16.5468287319054"><ele>1168.2</ele><time>2026-04-25T09:27:17.719Z</time></trkpt><trkpt lat="39.38359106923141" lon="16.54679450072331"><ele>1169.0</ele><time>2026-04-25T09:27:18.719Z</time></trkpt><trkpt lat="39.38347786301038" lon="16.546755448176192"><ele>1167.5</ele><time>2026-04-25T09:27:19.719Z</time></trkpt><trkpt lat="39.38335707143264" lon="16.546714322687126"><ele>1166.0</ele><time>2026-04-25T09:27:20.719Z</time></trkpt><trkpt lat="39.38322890345057" lon="16.546675595044487"><ele>1164.5</ele><time>2026-04-25T09:27:21.719Z</time></trkpt><trkpt lat="39.38309723277732" lon="16.546633813980158"><ele>1163.0</ele><time>2026-04-25T09:27:22.719Z</time></trkpt><trkpt lat="39.38295909550449" lon="16.546590751536854"><ele>1163.0</ele><time>2026-04-25T09:27:23.719Z</time></trkpt><trkpt lat="39.382819260768244" lon="16.546545435179596"><ele>1163.0</ele><time>2026-04-25T09:27:24.719Z</time></trkpt><trkpt lat="39.382686751984046" lon="16.54650099490625"><ele>1163.0</ele><time>2026-04-25T09:27:25.719Z</time></trkpt><trkpt lat="39.38255879608667" lon="16.54645988002509"><ele>1163.0</ele><time>2026-04-25T09:27:26.718Z</time></trkpt><trkpt lat="39.382437052939075" lon="16.54641664622384"><ele>1163.0</ele><time>2026-04-25T09:27:27.718Z</time></trkpt><trkpt lat="39.382318786213396" lon="16.54638256612991"><ele>1163.0</ele><time>2026-04-25T09:27:28.718Z</time></trkpt><trkpt lat="39.38222059158092" lon="16.546329116768472"><ele>1163.0</ele><time>2026-04-25T09:27:29.718Z</time></trkpt><trkpt lat="39.382092154684166" lon="16.546304280712288"><ele>1163.0</ele><time>2026-04-25T09:27:30.718Z</time></trkpt><trkpt lat="39.381928755704706" lon="16.546263625094323"><ele>1162.0</ele><time>2026-04-25T09:27:31.718Z</time></trkpt><trkpt lat="39.38174281257456" lon="16.546225826189286"><ele>1161.0</ele><time>2026-04-25T09:27:32.718Z</time></trkpt><trkpt lat="39.38151442283655" lon="16.546241741864478"><ele>1160.0</ele><time>2026-04-25T09:27:33.718Z</time></trkpt><trkpt lat="39.38125608648702" lon="16.546264295036142"><ele>1160.0</ele><time>2026-04-25T09:27:34.718Z</time></trkpt><trkpt lat="39.38101654700778" lon="16.54628437808531"><ele>1160.0</ele><time>2026-04-25T09:27:35.718Z</time></trkpt><trkpt lat="39.3808133015903" lon="16.54631571439952"><ele>1160.0</ele><time>2026-04-25T09:27:36.718Z</time></trkpt><trkpt lat="39.3806268776087" lon="16.546322774850353"><ele>1159.3333333333335</ele><time>2026-04-25T09:27:37.718Z</time></trkpt><trkpt lat="39.38045820853112" lon="16.54634109184073"><ele>1158.6666666666667</ele><time>2026-04-25T09:27:38.718Z</time></trkpt><trkpt lat="39.380308806496096" lon="16.546365270308105"><ele>1158.0</ele><time>2026-04-25T09:27:39.718Z</time></trkpt><trkpt lat="39.38017765513361" lon="16.546408468856068"><ele>1158.0</ele><time>2026-04-25T09:27:40.718Z</time></trkpt><trkpt lat="39.38006128881907" lon="16.54647186024846"><ele>1158.0</ele><time>2026-04-25T09:27:41.718Z</time></trkpt><trkpt lat="39.37995974682591" lon="16.546568628821564"><ele>1158.0</ele><time>2026-04-25T09:27:42.718Z</time></trkpt><trkpt lat="39.37985094703843" lon="16.54666162968913"><ele>1158.0</ele><time>2026-04-25T09:27:43.718Z</time></trkpt><trkpt lat="39.379765167876876" lon="16.54674179092662"><ele>1158.8</ele><time>2026-04-25T09:27:44.718Z</time></trkpt><trkpt lat="39.37967834615197" lon="16.546822889359376"><ele>1159.6</ele><time>2026-04-25T09:27:45.718Z</time></trkpt><trkpt lat="39.37957423046764" lon="16.546862862927593"><ele>1160.4</ele><time>2026-04-25T09:27:46.718Z</time></trkpt><trkpt lat="39.37946880598759" lon="16.546868553575543"><ele>1161.2</ele><time>2026-04-25T09:27:47.718Z</time></trkpt><trkpt lat="39.3793579730832" lon="16.54684527961576"><ele>1162.0</ele><time>2026-04-25T09:27:48.718Z</time></trkpt><trkpt lat="39.37926010716475" lon="16.546800374614392"><ele>1162.0</ele><time>2026-04-25T09:27:49.718Z</time></trkpt><trkpt lat="39.37916700251207" lon="16.54675387410439"><ele>1162.0</ele><time>2026-04-25T09:27:50.718Z</time></trkpt><trkpt lat="39.3790914650543" lon="16.546693970367222"><ele>1162.0</ele><time>2026-04-25T09:27:51.718Z</time></trkpt><trkpt lat="39.379032622385566" lon="16.546596030739504"><ele>1162.0</ele><time>2026-04-25T09:27:52.718Z</time></trkpt><trkpt lat="39.37900003612939" lon="16.54646085424749"><ele>1162.0</ele><time>2026-04-25T09:27:53.718Z</time></trkpt><trkpt lat="39.3790035379585" lon="16.546319789691207"><ele>1162.0</ele><time>2026-04-25T09:27:54.718Z</time></trkpt><trkpt lat="39.37903184866499" lon="16.546162266904854"><ele>1162.0</ele><time>2026-04-25T09:27:55.718Z</time></trkpt><trkpt lat="39.37906843734478" lon="16.545968463007604"><ele>1162.0</ele><time>2026-04-25T09:27:56.718Z</time></trkpt><trkpt lat="39.3791147396267" lon="16.545755937079573"><ele>1162.0</ele><time>2026-04-25T09:27:57.718Z</time></trkpt><trkpt lat="39.37917080603495" lon="16.54552004269106"><ele>1162.0</ele><time>2026-04-25T09:27:58.718Z</time></trkpt><trkpt lat="39.37922418188261" lon="16.545265472807205"><ele>1162.0</ele><time>2026-04-25T09:27:59.718Z</time></trkpt><trkpt lat="39.3792657441487" lon="16.54503404107058"><ele>1162.5</ele><time>2026-04-25T09:28:00.718Z</time></trkpt><trkpt lat="39.37929500131241" lon="16.544808185445557"><ele>1163.0</ele><time>2026-04-25T09:28:01.718Z</time></trkpt><trkpt lat="39.37931157562702" lon="16.544644196375796"><ele>1163.5</ele><time>2026-04-25T09:28:02.718Z</time></trkpt><trkpt lat="39.379297832819674" lon="16.544463746123203"><ele>1164.0</ele><time>2026-04-25T09:28:03.719Z</time></trkpt><trkpt lat="39.379230810300335" lon="16.544282598010348"><ele>1165.6666666666667</ele><time>2026-04-25T09:28:04.719Z</time></trkpt><trkpt lat="39.379141575918986" lon="16.54410367287577"><ele>1167.3333333333335</ele><time>2026-04-25T09:28:05.719Z</time></trkpt><trkpt lat="39.37900038113348" lon="16.543957580494414"><ele>1169.0</ele><time>2026-04-25T09:28:06.719Z</time></trkpt><trkpt lat="39.37883861830573" lon="16.54379645651122"><ele>1162.6666666666667</ele><time>2026-04-25T09:28:07.719Z</time></trkpt><trkpt lat="39.37868223504087" lon="16.543632985549063"><ele>1156.3333333333333</ele><time>2026-04-25T09:28:08.719Z</time></trkpt><trkpt lat="39.37853963325641" lon="16.54351645450118"><ele>1150.0</ele><time>2026-04-25T09:28:09.719Z</time></trkpt><trkpt lat="39.37838833091985" lon="16.543446217350603"><ele>1150.0</ele><time>2026-04-25T09:28:10.719Z</time></trkpt><trkpt lat="39.378195824940285" lon="16.543420499032035"><ele>1150.0</ele><time>2026-04-25T09:28:11.719Z</time></trkpt><trkpt lat="39.37800291632767" lon="16.543422705653573"><ele>1150.0</ele><time>2026-04-25T09:28:12.719Z</time></trkpt><trkpt lat="39.377856258049334" lon="16.54342354975849"><ele>1149.75</ele><time>2026-04-25T09:28:13.719Z</time></trkpt><trkpt lat="39.37774195919359" lon="16.54345847691897"><ele>1149.5</ele><time>2026-04-25T09:28:14.719Z</time></trkpt><trkpt lat="39.377626378302146" lon="16.543546589131267"><ele>1149.25</ele><time>2026-04-25T09:28:15.719Z</time></trkpt><trkpt lat="39.37752025923302" lon="16.543704954101976"><ele>1149.0</ele><time>2026-04-25T09:28:16.719Z</time></trkpt><trkpt lat="39.37739131014999" lon="16.543853637895925"><ele>1152.3333333333333</ele><time>2026-04-25T09:28:17.719Z</time></trkpt><trkpt lat="39.37723028034287" lon="16.543946530471086"><ele>1155.6666666666665</ele><time>2026-04-25T09:28:18.719Z</time></trkpt><trkpt lat="39.37704864879353" lon="16.543976286801986"><ele>1159.0</ele><time>2026-04-25T09:28:19.719Z</time></trkpt><trkpt lat="39.37690037709598" lon="16.54395945076856"><ele>1159.0</ele><time>2026-04-25T09:28:20.719Z</time></trkpt><trkpt lat="39.37678926615738" lon="16.543896375625337"><ele>1159.0</ele><time>2026-04-25T09:28:21.719Z</time></trkpt><trkpt lat="39.37672275147826" lon="16.54379650609361"><ele>1159.0</ele><time>2026-04-25T09:28:22.719Z</time></trkpt><trkpt lat="39.37668657946358" lon="16.543682595497835"><ele>1159.0</ele><time>2026-04-25T09:28:23.719Z</time></trkpt><trkpt lat="39.37665959103337" lon="16.543524736589976"><ele>1159.0</ele><time>2026-04-25T09:28:24.719Z</time></trkpt><trkpt lat="39.376622502029264" lon="16.5433246057992"><ele>1157.6666666666665</ele><time>2026-04-25T09:28:25.719Z</time></trkpt><trkpt lat="39.37657633913135" lon="16.543085975566743"><ele>1156.3333333333333</ele><time>2026-04-25T09:28:26.719Z</time></trkpt><trkpt lat="39.376535260105136" lon="16.542893031550786"><ele>1155.0</ele><time>2026-04-25T09:28:27.719Z</time></trkpt><trkpt lat="39.37646330689847" lon="16.542765226462162"><ele>1154.75</ele><time>2026-04-25T09:28:28.719Z</time></trkpt><trkpt lat="39.37636254332455" lon="16.542629652171303"><ele>1154.5</ele><time>2026-04-25T09:28:29.719Z</time></trkpt><trkpt lat="39.376283952024686" lon="16.542521168792064"><ele>1154.25</ele><time>2026-04-25T09:28:30.719Z</time></trkpt><trkpt lat="39.3762971809128" lon="16.542375452908058"><ele>1154.0</ele><time>2026-04-25T09:28:31.719Z</time></trkpt><trkpt lat="39.37633368317234" lon="16.542224672725098"><ele>1155.0</ele><time>2026-04-25T09:28:32.718Z</time></trkpt><trkpt lat="39.376330303475996" lon="16.542061957970063"><ele>1156.0</ele><time>2026-04-25T09:28:33.718Z</time></trkpt><trkpt lat="39.37629544878507" lon="16.54184272421555"><ele>1157.0</ele><time>2026-04-25T09:28:34.718Z</time></trkpt><trkpt lat="39.37621381889266" lon="16.541594475753016"><ele>1157.0</ele><time>2026-04-25T09:28:35.718Z</time></trkpt><trkpt lat="39.37613650031284" lon="16.541341178266975"><ele>1157.0</ele><time>2026-04-25T09:28:36.718Z</time></trkpt><trkpt lat="39.376115603250625" lon="16.541127194124513"><ele>1157.0</ele><time>2026-04-25T09:28:37.718Z</time></trkpt><trkpt lat="39.37612530290547" lon="16.540920061633425"><ele>1158.3333333333335</ele><time>2026-04-25T09:28:38.718Z</time></trkpt><trkpt lat="39.37617267586516" lon="16.540707909239384"><ele>1159.6666666666667</ele><time>2026-04-25T09:28:39.718Z</time></trkpt><trkpt lat="39.37624578919845" lon="16.54046383559224"><ele>1161.0</ele><time>2026-04-25T09:28:40.718Z</time></trkpt><trkpt lat="39.37633986392949" lon="16.540151684152196"><ele>1159.0</ele><time>2026-04-25T09:28:41.718Z</time></trkpt><trkpt lat="39.376440198756676" lon="16.539816803063776"><ele>1157.0</ele><time>2026-04-25T09:28:42.718Z</time></trkpt><trkpt lat="39.376509646960976" lon="16.539530798429684"><ele>1157.0</ele><time>2026-04-25T09:28:43.718Z</time></trkpt><trkpt lat="39.376581554856465" lon="16.53929394216997"><ele>1157.0</ele><time>2026-04-25T09:28:44.718Z</time></trkpt><trkpt lat="39.37665049269472" lon="16.539082336758433"><ele>1157.0</ele><time>2026-04-25T09:28:45.718Z</time></trkpt><trkpt lat="39.3766981727125" lon="16.538878234386726"><ele>1155.6666666666667</ele><time>2026-04-25T09:28:46.718Z</time></trkpt><trkpt lat="39.37671364449102" lon="16.538651154117115"><ele>1154.3333333333333</ele><time>2026-04-25T09:28:47.718Z</time></trkpt><trkpt lat="39.376697407159384" lon="16.53836317429672"><ele>1153.0</ele><time>2026-04-25T09:28:48.718Z</time></trkpt><trkpt lat="39.376677632593655" lon="16.538017212350436"><ele>1152.6666666666665</ele><time>2026-04-25T09:28:49.718Z</time></trkpt><trkpt lat="39.37668308612871" lon="16.53771669535899"><ele>1152.3333333333333</ele><time>2026-04-25T09:28:50.718Z</time></trkpt><trkpt lat="39.37669040970279" lon="16.5374859316429"><ele>1152.0</ele><time>2026-04-25T09:28:51.718Z</time></trkpt><trkpt lat="39.376689148132535" lon="16.537308298475722"><ele>1152.0</ele><time>2026-04-25T09:28:52.718Z</time></trkpt><trkpt lat="39.37666506946619" lon="16.53715061160398"><ele>1152.0</ele><time>2026-04-25T09:28:53.718Z</time></trkpt><trkpt lat="39.37660344213349" lon="16.53699286987288"><ele>1152.0</ele><time>2026-04-25T09:28:54.718Z</time></trkpt><trkpt lat="39.376492982584466" lon="16.536830923086377"><ele>1152.0</ele><time>2026-04-25T09:28:55.718Z</time></trkpt><trkpt lat="39.37637706072146" lon="16.536695230197527"><ele>1152.5</ele><time>2026-04-25T09:28:56.718Z</time></trkpt><trkpt lat="39.37633719727051" lon="16.53654000635501"><ele>1153.0</ele><time>2026-04-25T09:28:57.718Z</time></trkpt><trkpt lat="39.376330171068844" lon="16.53638663123296"><ele>1153.5</ele><time>2026-04-25T09:28:58.718Z</time></trkpt><trkpt lat="39.376381110534155" lon="16.53620364343448"><ele>1154.0</ele><time>2026-04-25T09:28:59.718Z</time></trkpt><trkpt lat="39.37645952818812" lon="16.53600525299249"><ele>1154.0</ele><time>2026-04-25T09:29:00.718Z</time></trkpt><trkpt lat="39.376554535187296" lon="16.535772079240477"><ele>1154.0</ele><time>2026-04-25T09:29:01.718Z</time></trkpt><trkpt lat="39.37661419975442" lon="16.53555266838861"><ele>1154.0</ele><time>2026-04-25T09:29:02.718Z</time></trkpt><trkpt lat="39.37664430398289" lon="16.535316716995386"><ele>1153.6666666666667</ele><time>2026-04-25T09:29:03.718Z</time></trkpt><trkpt lat="39.376624225659796" lon="16.535048066803746"><ele>1153.3333333333333</ele><time>2026-04-25T09:29:04.718Z</time></trkpt><trkpt lat="39.37655827482631" lon="16.53475268506698"><ele>1153.0</ele><time>2026-04-25T09:29:05.718Z</time></trkpt><trkpt lat="39.376464340070164" lon="16.534434854201848"><ele>1153.0</ele><time>2026-04-25T09:29:06.718Z</time></trkpt><trkpt lat="39.376388240988305" lon="16.534143427167734"><ele>1153.0</ele><time>2026-04-25T09:29:07.718Z</time></trkpt><trkpt lat="39.37632711210232" lon="16.53391109280045"><ele>1153.0</ele><time>2026-04-25T09:29:08.718Z</time></trkpt><trkpt lat="39.376279945874266" lon="16.53372166893145"><ele>1155.6666666666665</ele><time>2026-04-25T09:29:09.718Z</time></trkpt><trkpt lat="39.376214597141974" lon="16.53355576158396"><ele>1158.3333333333333</ele><time>2026-04-25T09:29:10.718Z</time></trkpt><trkpt lat="39.37612736478204" lon="16.533394308609545"><ele>1161.0</ele><time>2026-04-25T09:29:11.718Z</time></trkpt><trkpt lat="39.37600836293263" lon="16.53324630720931"><ele>1161.0</ele><time>2026-04-25T09:29:12.718Z</time></trkpt><trkpt lat="39.37589897875415" lon="16.53311882914424"><ele>1161.0</ele><time>2026-04-25T09:29:13.718Z</time></trkpt><trkpt lat="39.37580446172729" lon="16.53299813808931"><ele>1161.0</ele><time>2026-04-25T09:29:14.718Z</time></trkpt><trkpt lat="39.37572124991877" lon="16.532886294200075"><ele>1161.0</ele><time>2026-04-25T09:29:15.718Z</time></trkpt><trkpt lat="39.375654327949704" lon="16.532788556853948"><ele>1161.1666666666667</ele><time>2026-04-25T09:29:16.718Z</time></trkpt><trkpt lat="39.37560333794468" lon="16.532715843892053"><ele>1161.3333333333333</ele><time>2026-04-25T09:29:17.718Z</time></trkpt><trkpt lat="39.37554673608652" lon="16.532627303404496"><ele>1161.5</ele><time>2026-04-25T09:29:19.718Z</time></trkpt><trkpt lat="39.37546235946723" lon="16.53253460379588"><ele>1161.6666666666665</ele><time>2026-04-25T09:29:33.718Z</time></trkpt><trkpt lat="39.375406344865546" lon="16.53246283256557"><ele>1161.8333333333333</ele><time>2026-04-25T09:29:34.718Z</time></trkpt><trkpt lat="39.375348465974255" lon="16.532380021815975"><ele>1162.0</ele><time>2026-04-25T09:29:35.718Z</time></trkpt><trkpt lat="39.37528367420626" lon="16.532282832266954"><ele>1162.0</ele><time>2026-04-25T09:29:36.718Z</time></trkpt><trkpt lat="39.37519451992024" lon="16.53218792413775"><ele>1162.0</ele><time>2026-04-25T09:29:37.718Z</time></trkpt><trkpt lat="39.375099419191294" lon="16.532108259222426"><ele>1162.0</ele><time>2026-04-25T09:29:38.718Z</time></trkpt><trkpt lat="39.37497483912185" lon="16.53204419882688"><ele>1162.0</ele><time>2026-04-25T09:29:39.718Z</time></trkpt><trkpt lat="39.37485460589919" lon="16.53198238209722"><ele>1164.0</ele><time>2026-04-25T09:29:40.718Z</time></trkpt><trkpt lat="39.374741896483" lon="16.531929250570705"><ele>1166.0</ele><time>2026-04-25T09:29:41.718Z</time></trkpt><trkpt lat="39.3746433060013" lon="16.531863950131395"><ele>1168.0</ele><time>2026-04-25T09:29:42.718Z</time></trkpt><trkpt lat="39.37456058547147" lon="16.531770662993974"><ele>1170.0</ele><time>2026-04-25T09:29:43.718Z</time></trkpt><trkpt lat="39.37452560545426" lon="16.53162357204217"><ele>1170.0</ele><time>2026-04-25T09:29:44.718Z</time></trkpt><trkpt lat="39.374500643054425" lon="16.531473626162967"><ele>1170.0</ele><time>2026-04-25T09:29:45.718Z</time></trkpt><trkpt lat="39.37447739201336" lon="16.531348221422505"><ele>1170.0</ele><time>2026-04-25T09:29:46.718Z</time></trkpt><trkpt lat="39.37444538583805" lon="16.531225087751565"><ele>1170.0</ele><time>2026-04-25T09:29:47.718Z</time></trkpt><trkpt lat="39.374384164029394" lon="16.53108833672221"><ele>1170.0</ele><time>2026-04-25T09:29:48.718Z</time></trkpt><trkpt lat="39.374289988919024" lon="16.530943828750065"><ele>1170.0</ele><time>2026-04-25T09:29:49.718Z</time></trkpt><trkpt lat="39.37416753773292" lon="16.5307996193522"><ele>1170.0</ele><time>2026-04-25T09:29:50.718Z</time></trkpt><trkpt lat="39.374022829934376" lon="16.53066350680497"><ele>1170.0</ele><time>2026-04-25T09:29:51.718Z</time></trkpt><trkpt lat="39.37384561703407" lon="16.530541703991787"><ele>1170.0</ele><time>2026-04-25T09:29:52.718Z</time></trkpt><trkpt lat="39.373618155935496" lon="16.530426888135196"><ele>1170.0</ele><time>2026-04-25T09:29:53.718Z</time></trkpt><trkpt lat="39.3733591627455" lon="16.530315286520914"><ele>1166.5</ele><time>2026-04-25T09:29:54.718Z</time></trkpt><trkpt lat="39.37310242922929" lon="16.530193745120126"><ele>1163.0</ele><time>2026-04-25T09:29:55.718Z</time></trkpt><trkpt lat="39.37288640745697" lon="16.530090749011272"><ele>1163.0</ele><time>2026-04-25T09:29:56.718Z</time></trkpt><trkpt lat="39.37270507412726" lon="16.530004682824885"><ele>1163.0</ele><time>2026-04-25T09:29:57.718Z</time></trkpt><trkpt lat="39.37255617657729" lon="16.529935283366836"><ele>1163.0</ele><time>2026-04-25T09:29:58.718Z</time></trkpt><trkpt lat="39.37243333056731" lon="16.529873581109637"><ele>1163.0</ele><time>2026-04-25T09:29:59.718Z</time></trkpt><trkpt lat="39.37231996156862" lon="16.529794531038927"><ele>1163.0</ele><time>2026-04-25T09:30:00.718Z</time></trkpt><trkpt lat="39.37223438074543" lon="16.529679210579857"><ele>1163.0</ele><time>2026-04-25T09:30:01.718Z</time></trkpt><trkpt lat="39.37218822581101" lon="16.52953878138372"><ele>1163.0</ele><time>2026-04-25T09:30:02.718Z</time></trkpt><trkpt lat="39.37219280413114" lon="16.529368757529245"><ele>1164.5</ele><time>2026-04-25T09:30:03.718Z</time></trkpt><trkpt lat="39.37216972374074" lon="16.529186801522957"><ele>1166.0</ele><time>2026-04-25T09:30:04.718Z</time></trkpt><trkpt lat="39.372154747407514" lon="16.52901243610125"><ele>1167.5</ele><time>2026-04-25T09:30:05.718Z</time></trkpt><trkpt lat="39.37212672973657" lon="16.528860741033725"><ele>1169.0</ele><time>2026-04-25T09:30:06.718Z</time></trkpt><trkpt lat="39.37208645010023" lon="16.52872169532035"><ele>1169.0</ele><time>2026-04-25T09:30:07.718Z</time></trkpt><trkpt lat="39.3720350360835" lon="16.52859660653781"><ele>1169.0</ele><time>2026-04-25T09:30:08.718Z</time></trkpt><trkpt lat="39.37198098934069" lon="16.52850192489506"><ele>1169.0</ele><time>2026-04-25T09:30:09.718Z</time></trkpt><trkpt lat="39.371930957944095" lon="16.5284241344469"><ele>1169.0</ele><time>2026-04-25T09:30:10.718Z</time></trkpt><trkpt lat="39.37188597422674" lon="16.528348264056667"><ele>1169.0</ele><time>2026-04-25T09:30:11.718Z</time></trkpt><trkpt lat="39.371843943959306" lon="16.528273325789606"><ele>1169.0</ele><time>2026-04-25T09:30:12.718Z</time></trkpt><trkpt lat="39.3718027392356" lon="16.528192106276805"><ele>1169.0</ele><time>2026-04-25T09:30:13.718Z</time></trkpt><trkpt lat="39.37175542995485" lon="16.528108186902248"><ele>1169.0</ele><time>2026-04-25T09:30:14.718Z</time></trkpt><trkpt lat="39.37170685455709" lon="16.52802576053888"><ele>1169.0</ele><time>2026-04-25T09:30:15.718Z</time></trkpt><trkpt lat="39.37165809640199" lon="16.527941379555894"><ele>1169.0</ele><time>2026-04-25T09:30:16.718Z</time></trkpt><trkpt lat="39.371606939584666" lon="16.527855171947888"><ele>1169.0</ele><time>2026-04-25T09:30:17.718Z</time></trkpt><trkpt lat="39.37155169493016" lon="16.527765921950518"><ele>1169.0</ele><time>2026-04-25T09:30:18.718Z</time></trkpt><trkpt lat="39.37149065075927" lon="16.527662728871018"><ele>1165.75</ele><time>2026-04-25T09:30:19.718Z</time></trkpt><trkpt lat="39.371429976256266" lon="16.52753390175467"><ele>1162.5</ele><time>2026-04-25T09:30:20.718Z</time></trkpt><trkpt lat="39.371374141261086" lon="16.527375499118268"><ele>1159.25</ele><time>2026-04-25T09:30:21.718Z</time></trkpt><trkpt lat="39.37139512894118" lon="16.52718411449727"><ele>1156.0</ele><time>2026-04-25T09:30:22.718Z</time></trkpt><trkpt lat="39.371401152329334" lon="16.526954191092326"><ele>1155.0</ele><time>2026-04-25T09:30:23.718Z</time></trkpt><trkpt lat="39.37137584102465" lon="16.52672940065529"><ele>1154.0</ele><time>2026-04-25T09:30:24.718Z</time></trkpt><trkpt lat="39.37133291604173" lon="16.526500610361015"><ele>1153.0</ele><time>2026-04-25T09:30:25.718Z</time></trkpt><trkpt lat="39.371252128128766" lon="16.526309677439077"><ele>1155.3333333333333</ele><time>2026-04-25T09:30:26.718Z</time></trkpt><trkpt lat="39.37115884312934" lon="16.52613134089948"><ele>1157.6666666666667</ele><time>2026-04-25T09:30:27.718Z</time></trkpt><trkpt lat="39.37103919308585" lon="16.525953413853017"><ele>1160.0</ele><time>2026-04-25T09:30:28.718Z</time></trkpt><trkpt lat="39.37091734624384" lon="16.525784317934736"><ele>1160.0</ele><time>2026-04-25T09:30:29.718Z</time></trkpt><trkpt lat="39.37079739925425" lon="16.525634513648203"><ele>1160.0</ele><time>2026-04-25T09:30:30.718Z</time></trkpt><trkpt lat="39.370666952930534" lon="16.525493485652955"><ele>1160.0</ele><time>2026-04-25T09:30:31.718Z</time></trkpt><trkpt lat="39.37051529364509" lon="16.525368428178172"><ele>1158.3333333333335</ele><time>2026-04-25T09:30:32.718Z</time></trkpt><trkpt lat="39.37034081401215" lon="16.525253362519013"><ele>1156.6666666666667</ele><time>2026-04-25T09:30:33.718Z</time></trkpt><trkpt lat="39.37018610092433" lon="16.525085240381102"><ele>1155.0</ele><time>2026-04-25T09:30:34.718Z</time></trkpt><trkpt lat="39.370038286938204" lon="16.524884622263446"><ele>1155.0</ele><time>2026-04-25T09:30:35.718Z</time></trkpt><trkpt lat="39.369900255295626" lon="16.524694430143875"><ele>1155.0</ele><time>2026-04-25T09:30:36.718Z</time></trkpt><trkpt lat="39.3697815892778" lon="16.524521814925528"><ele>1155.0</ele><time>2026-04-25T09:30:37.718Z</time></trkpt><trkpt lat="39.36970486578319" lon="16.52435641242814"><ele>1156.6666666666667</ele><time>2026-04-25T09:30:38.718Z</time></trkpt><trkpt lat="39.36965516052787" lon="16.52418404844766"><ele>1158.3333333333335</ele><time>2026-04-25T09:30:39.718Z</time></trkpt><trkpt lat="39.36963860321957" lon="16.523989763826087"><ele>1160.0</ele><time>2026-04-25T09:30:40.718Z</time></trkpt><trkpt lat="39.369634494765826" lon="16.523767076893996"><ele>1160.3333333333335</ele><time>2026-04-25T09:30:41.718Z</time></trkpt><trkpt lat="39.36969533745531" lon="16.523541036848908"><ele>1160.6666666666667</ele><time>2026-04-25T09:30:42.718Z</time></trkpt><trkpt lat="39.369711446820574" lon="16.523315250660982"><ele>1161.0</ele><time>2026-04-25T09:30:43.718Z</time></trkpt><trkpt lat="39.36971263475571" lon="16.523116439664538"><ele>1162.3333333333333</ele><time>2026-04-25T09:30:44.718Z</time></trkpt><trkpt lat="39.36966357906382" lon="16.522923494327834"><ele>1163.6666666666665</ele><time>2026-04-25T09:30:45.718Z</time></trkpt><trkpt lat="39.36956883719439" lon="16.522716523003172"><ele>1165.0</ele><time>2026-04-25T09:30:46.718Z</time></trkpt><trkpt lat="39.369424751965255" lon="16.522496258893202"><ele>1167.0</ele><time>2026-04-25T09:30:47.718Z</time></trkpt><trkpt lat="39.3692458184142" lon="16.52225936537681"><ele>1169.0</ele><time>2026-04-25T09:30:48.718Z</time></trkpt><trkpt lat="39.36905845401636" lon="16.52198896911578"><ele>1171.0</ele><time>2026-04-25T09:30:49.718Z</time></trkpt><trkpt lat="39.36889794225139" lon="16.52173187037799"><ele>1173.0</ele><time>2026-04-25T09:30:50.718Z</time></trkpt><trkpt lat="39.36875995207631" lon="16.521507049211774"><ele>1173.0</ele><time>2026-04-25T09:30:51.718Z</time></trkpt><trkpt lat="39.368640630250006" lon="16.521291463076114"><ele>1173.0</ele><time>2026-04-25T09:30:52.718Z</time></trkpt><trkpt lat="39.368559291568914" lon="16.521048501674628"><ele>1173.0</ele><time>2026-04-25T09:30:53.718Z</time></trkpt><trkpt lat="39.3684927190404" lon="16.520814131098998"><ele>1173.0</ele><time>2026-04-25T09:30:54.718Z</time></trkpt><trkpt lat="39.36844798934186" lon="16.520591678976828"><ele>1173.0</ele><time>2026-04-25T09:30:55.718Z</time></trkpt><trkpt lat="39.36841962725842" lon="16.520374417442923"><ele>1173.0</ele><time>2026-04-25T09:30:56.718Z</time></trkpt><trkpt lat="39.36841064631994" lon="16.520138113133076"><ele>1174.0</ele><time>2026-04-25T09:30:57.718Z</time></trkpt><trkpt lat="39.368403566330414" lon="16.51986056838184"><ele>1175.0</ele><time>2026-04-25T09:30:58.718Z</time></trkpt><trkpt lat="39.36839748436405" lon="16.519527637121612"><ele>1175.5</ele><time>2026-04-25T09:30:59.718Z</time></trkpt><trkpt lat="39.36839092549776" lon="16.51916734601257"><ele>1176.0</ele><time>2026-04-25T09:31:00.718Z</time></trkpt><trkpt lat="39.36837561200687" lon="16.518858915525858"><ele>1175.6666666666667</ele><time>2026-04-25T09:31:01.718Z</time></trkpt><trkpt lat="39.368372039604424" lon="16.51858488670101"><ele>1175.3333333333335</ele><time>2026-04-25T09:31:02.718Z</time></trkpt><trkpt lat="39.36836534883175" lon="16.518348331933936"><ele>1175.0</ele><time>2026-04-25T09:31:03.718Z</time></trkpt><trkpt lat="39.36836347462268" lon="16.51813024083247"><ele>1175.0</ele><time>2026-04-25T09:31:04.718Z</time></trkpt><trkpt lat="39.36839316493247" lon="16.5179205442589"><ele>1175.0</ele><time>2026-04-25T09:31:05.718Z</time></trkpt><trkpt lat="39.36841314560902" lon="16.51768669612187"><ele>1175.0</ele><time>2026-04-25T09:31:06.718Z</time></trkpt><trkpt lat="39.368475671184164" lon="16.517422936913746"><ele>1174.5</ele><time>2026-04-25T09:31:07.718Z</time></trkpt><trkpt lat="39.36855428631534" lon="16.517135513007037"><ele>1174.0</ele><time>2026-04-25T09:31:08.718Z</time></trkpt><trkpt lat="39.36863933645094" lon="16.51681130598903"><ele>1172.5</ele><time>2026-04-25T09:31:09.718Z</time></trkpt><trkpt lat="39.3687208649162" lon="16.51646840009593"><ele>1171.0</ele><time>2026-04-25T09:31:10.718Z</time></trkpt><trkpt lat="39.368812317352564" lon="16.516164136240796"><ele>1168.6666666666665</ele><time>2026-04-25T09:31:11.718Z</time></trkpt><trkpt lat="39.368882712270064" lon="16.515885809520753"><ele>1166.3333333333333</ele><time>2026-04-25T09:31:12.718Z</time></trkpt><trkpt lat="39.36893141805256" lon="16.515634037753127"><ele>1164.0</ele><time>2026-04-25T09:31:13.718Z</time></trkpt><trkpt lat="39.368988417455824" lon="16.515413596310395"><ele>1163.6666666666667</ele><time>2026-04-25T09:31:14.718Z</time></trkpt><trkpt lat="39.3690548280436" lon="16.51521738912053"><ele>1163.3333333333335</ele><time>2026-04-25T09:31:15.718Z</time></trkpt><trkpt lat="39.36912337889054" lon="16.515027863524196"><ele>1163.0</ele><time>2026-04-25T09:31:16.718Z</time></trkpt><trkpt lat="39.36922515624028" lon="16.51484982735584"><ele>1163.0</ele><time>2026-04-25T09:31:17.718Z</time></trkpt><trkpt lat="39.36935051004267" lon="16.514651258929415"><ele>1163.0</ele><time>2026-04-25T09:31:18.718Z</time></trkpt><trkpt lat="39.36947458973894" lon="16.514424332599074"><ele>1163.0</ele><time>2026-04-25T09:31:19.718Z</time></trkpt><trkpt lat="39.369609733998985" lon="16.514218823639293"><ele>1162.0</ele><time>2026-04-25T09:31:20.718Z</time></trkpt><trkpt lat="39.36973111223442" lon="16.51402058603898"><ele>1161.0</ele><time>2026-04-25T09:31:21.718Z</time></trkpt><trkpt lat="39.36985308219257" lon="16.513832921456608"><ele>1160.0</ele><time>2026-04-25T09:31:22.718Z</time></trkpt><trkpt lat="39.36995936914669" lon="16.513645280638684"><ele>1159.0</ele><time>2026-04-25T09:31:23.718Z</time></trkpt><trkpt lat="39.37003499589767" lon="16.51344116535707"><ele>1158.0</ele><time>2026-04-25T09:31:24.718Z</time></trkpt><trkpt lat="39.37007596983352" lon="16.51320136936005"><ele>1157.0</ele><time>2026-04-25T09:31:25.718Z</time></trkpt><trkpt lat="39.370096895830535" lon="16.51291936427972"><ele>1155.0</ele><time>2026-04-25T09:31:26.718Z</time></trkpt><trkpt lat="39.370108984570656" lon="16.512605560238562"><ele>1153.0</ele><time>2026-04-25T09:31:27.718Z</time></trkpt><trkpt lat="39.37012464971834" lon="16.512287231126827"><ele>1151.3333333333333</ele><time>2026-04-25T09:31:28.718Z</time></trkpt><trkpt lat="39.37014408078742" lon="16.511995130300523"><ele>1149.6666666666667</ele><time>2026-04-25T09:31:29.718Z</time></trkpt><trkpt lat="39.37016726571083" lon="16.511716845866097"><ele>1148.0</ele><time>2026-04-25T09:31:30.718Z</time></trkpt><trkpt lat="39.370183784367114" lon="16.511448426808233"><ele>1146.3333333333335</ele><time>2026-04-25T09:31:31.718Z</time></trkpt><trkpt lat="39.37020002001158" lon="16.511185619421564"><ele>1144.6666666666667</ele><time>2026-04-25T09:31:32.718Z</time></trkpt><trkpt lat="39.37021446900945" lon="16.510929653955372"><ele>1143.0</ele><time>2026-04-25T09:31:33.718Z</time></trkpt><trkpt lat="39.370233421202535" lon="16.510668400171"><ele>1141.0</ele><time>2026-04-25T09:31:34.718Z</time></trkpt><trkpt lat="39.370256883432674" lon="16.51040439189167"><ele>1139.0</ele><time>2026-04-25T09:31:35.718Z</time></trkpt><trkpt lat="39.37028099221624" lon="16.5101333942693"><ele>1137.0</ele><time>2026-04-25T09:31:36.717Z</time></trkpt><trkpt lat="39.37030521950442" lon="16.509858265999352"><ele>1137.3333333333333</ele><time>2026-04-25T09:31:37.717Z</time></trkpt><trkpt lat="39.37032582125875" lon="16.509572659872614"><ele>1137.6666666666665</ele><time>2026-04-25T09:31:38.717Z</time></trkpt><trkpt lat="39.37034618868253" lon="16.509285000458778"><ele>1138.0</ele><time>2026-04-25T09:31:39.717Z</time></trkpt><trkpt lat="39.3703650871856" lon="16.508993624454902"><ele>1139.5</ele><time>2026-04-25T09:31:40.717Z</time></trkpt><trkpt lat="39.37038494601882" lon="16.508696626447854"><ele>1141.0</ele><time>2026-04-25T09:31:41.717Z</time></trkpt><trkpt lat="39.37040616818028" lon="16.508397607086525"><ele>1141.0</ele><time>2026-04-25T09:31:42.717Z</time></trkpt><trkpt lat="39.37042772715846" lon="16.508105324582047"><ele>1141.0</ele><time>2026-04-25T09:31:43.717Z</time></trkpt><trkpt lat="39.370445510338044" lon="16.507827494019484"><ele>1141.0</ele><time>2026-04-25T09:31:44.717Z</time></trkpt><trkpt lat="39.370465871635936" lon="16.507566160175365"><ele>1141.3333333333333</ele><time>2026-04-25T09:31:45.717Z</time></trkpt><trkpt lat="39.37048458361942" lon="16.50731621500793"><ele>1141.6666666666667</ele><time>2026-04-25T09:31:46.717Z</time></trkpt><trkpt lat="39.37050320098956" lon="16.507050993664823"><ele>1142.0</ele><time>2026-04-25T09:31:47.717Z</time></trkpt><trkpt lat="39.370521894967624" lon="16.506761664867682"><ele>1147.0</ele><time>2026-04-25T09:31:48.717Z</time></trkpt><trkpt lat="39.37054250522739" lon="16.506452896369506"><ele>1152.0</ele><time>2026-04-25T09:31:49.717Z</time></trkpt><trkpt lat="39.37056492795935" lon="16.50613167593233"><ele>1152.0</ele><time>2026-04-25T09:31:50.717Z</time></trkpt><trkpt lat="39.37058862456529" lon="16.505852532490433"><ele>1152.0</ele><time>2026-04-25T09:31:51.717Z</time></trkpt><trkpt lat="39.37060858465917" lon="16.505591587796083"><ele>1152.0</ele><time>2026-04-25T09:31:52.717Z</time></trkpt><trkpt lat="39.37061760719947" lon="16.505365215564073"><ele>1151.0</ele><time>2026-04-25T09:31:53.717Z</time></trkpt><trkpt lat="39.37060377374402" lon="16.50514425999421"><ele>1150.0</ele><time>2026-04-25T09:31:54.717Z</time></trkpt><trkpt lat="39.37055587354596" lon="16.504918632655112"><ele>1149.0</ele><time>2026-04-25T09:31:55.717Z</time></trkpt><trkpt lat="39.37047676565817" lon="16.50469464778052"><ele>1150.3333333333333</ele><time>2026-04-25T09:31:56.717Z</time></trkpt><trkpt lat="39.37038055567577" lon="16.50447708588816"><ele>1151.6666666666665</ele><time>2026-04-25T09:31:57.717Z</time></trkpt><trkpt lat="39.37028007388977" lon="16.50425000507362"><ele>1153.0</ele><time>2026-04-25T09:31:58.717Z</time></trkpt><trkpt lat="39.37017681891414" lon="16.50401812212093"><ele>1153.0</ele><time>2026-04-25T09:31:59.717Z</time></trkpt><trkpt lat="39.37007243392438" lon="16.503780981168116"><ele>1153.0</ele><time>2026-04-25T09:32:00.717Z</time></trkpt><trkpt lat="39.36996483720346" lon="16.50353544251556"><ele>1153.0</ele><time>2026-04-25T09:32:01.717Z</time></trkpt><trkpt lat="39.36985532866059" lon="16.50328217718885"><ele>1153.0</ele><time>2026-04-25T09:32:02.717Z</time></trkpt><trkpt lat="39.36974417554507" lon="16.503023353718962"><ele>1153.0</ele><time>2026-04-25T09:32:03.717Z</time></trkpt><trkpt lat="39.369629676329545" lon="16.502758983569738"><ele>1153.0</ele><time>2026-04-25T09:32:04.717Z</time></trkpt><trkpt lat="39.3695109709595" lon="16.502488607339007"><ele>1153.0</ele><time>2026-04-25T09:32:05.717Z</time></trkpt><trkpt lat="39.36938877933561" lon="16.50221137984493"><ele>1153.5</ele><time>2026-04-25T09:32:06.717Z</time></trkpt><trkpt lat="39.36926612911418" lon="16.501931197696564"><ele>1154.0</ele><time>2026-04-25T09:32:07.717Z</time></trkpt><trkpt lat="39.3691443843789" lon="16.50165261042118"><ele>1154.0</ele><time>2026-04-25T09:32:08.717Z</time></trkpt><trkpt lat="39.36902379794215" lon="16.501376791614675"><ele>1154.0</ele><time>2026-04-25T09:32:09.717Z</time></trkpt><trkpt lat="39.36890174408043" lon="16.501098925909112"><ele>1154.5</ele><time>2026-04-25T09:32:10.717Z</time></trkpt><trkpt lat="39.36877909074937" lon="16.500821545148423"><ele>1155.0</ele><time>2026-04-25T09:32:11.717Z</time></trkpt><trkpt lat="39.36865654999743" lon="16.500543024286728"><ele>1154.5</ele><time>2026-04-25T09:32:12.717Z</time></trkpt><trkpt lat="39.36853501815129" lon="16.500264420899246"><ele>1154.0</ele><time>2026-04-25T09:32:13.717Z</time></trkpt><trkpt lat="39.36841449346817" lon="16.499986080605627"><ele>1154.0</ele><time>2026-04-25T09:32:14.717Z</time></trkpt><trkpt lat="39.368291338051336" lon="16.499706736555737"><ele>1154.0</ele><time>2026-04-25T09:32:15.718Z</time></trkpt><trkpt lat="39.36816022634527" lon="16.499420416874766"><ele>1154.5</ele><time>2026-04-25T09:32:16.718Z</time></trkpt><trkpt lat="39.36802263934406" lon="16.499130429034228"><ele>1155.0</ele><time>2026-04-25T09:32:17.718Z</time></trkpt><trkpt lat="39.36788679625235" lon="16.49883939476006"><ele>1156.0</ele><time>2026-04-25T09:32:18.718Z</time></trkpt><trkpt lat="39.36775374915153" lon="16.49854478044957"><ele>1157.0</ele><time>2026-04-25T09:32:19.718Z</time></trkpt><trkpt lat="39.36762824020999" lon="16.498244644002558"><ele>1157.0</ele><time>2026-04-25T09:32:20.718Z</time></trkpt><trkpt lat="39.367507174459746" lon="16.49794349086331"><ele>1157.0</ele><time>2026-04-25T09:32:21.718Z</time></trkpt><trkpt lat="39.367379619738614" lon="16.49764866098417"><ele>1157.0</ele><time>2026-04-25T09:32:22.718Z</time></trkpt><trkpt lat="39.36725468025787" lon="16.49735814356273"><ele>1157.0</ele><time>2026-04-25T09:32:23.718Z</time></trkpt><trkpt lat="39.36712925706123" lon="16.497071957264346"><ele>1157.0</ele><time>2026-04-25T09:32:24.718Z</time></trkpt><trkpt lat="39.36700685130392" lon="16.496788195151264"><ele>1157.0</ele><time>2026-04-25T09:32:25.718Z</time></trkpt><trkpt lat="39.366882992258724" lon="16.49651001931749"><ele>1158.5</ele><time>2026-04-25T09:32:26.718Z</time></trkpt><trkpt lat="39.36675905876982" lon="16.49623434713079"><ele>1160.0</ele><time>2026-04-25T09:32:27.718Z</time></trkpt><trkpt lat="39.36663851371875" lon="16.495960569006183"><ele>1160.0</ele><time>2026-04-25T09:32:28.718Z</time></trkpt><trkpt lat="39.36652168714871" lon="16.495686404391996"><ele>1160.0</ele><time>2026-04-25T09:32:29.718Z</time></trkpt><trkpt lat="39.366403801729" lon="16.495411122740084"><ele>1159.5</ele><time>2026-04-25T09:32:30.718Z</time></trkpt><trkpt lat="39.36628532635984" lon="16.49513673552559"><ele>1159.0</ele><time>2026-04-25T09:32:31.718Z</time></trkpt><trkpt lat="39.366166773940044" lon="16.494864479441688"><ele>1159.0</ele><time>2026-04-25T09:32:32.718Z</time></trkpt><trkpt lat="39.366047877931386" lon="16.494594461351586"><ele>1159.0</ele><time>2026-04-25T09:32:33.718Z</time></trkpt><trkpt lat="39.36592899274614" lon="16.494323293559546"><ele>1159.5</ele><time>2026-04-25T09:32:34.718Z</time></trkpt><trkpt lat="39.36580997773233" lon="16.49405456860182"><ele>1160.0</ele><time>2026-04-25T09:32:35.718Z</time></trkpt><trkpt lat="39.365690958613" lon="16.493785923108135"><ele>1159.5</ele><time>2026-04-25T09:32:36.718Z</time></trkpt><trkpt lat="39.36557309797468" lon="16.493516336647918"><ele>1159.0</ele><time>2026-04-25T09:32:37.718Z</time></trkpt><trkpt lat="39.36545569048616" lon="16.49324474688549"><ele>1159.0</ele><time>2026-04-25T09:32:38.718Z</time></trkpt><trkpt lat="39.36533387935657" lon="16.492962217121903"><ele>1159.0</ele><time>2026-04-25T09:32:39.718Z</time></trkpt><trkpt lat="39.36521296252755" lon="16.492683543453644"><ele>1159.6666666666665</ele><time>2026-04-25T09:32:40.718Z</time></trkpt><trkpt lat="39.365102728713005" lon="16.492429089222636"><ele>1160.3333333333333</ele><time>2026-04-25T09:32:41.718Z</time></trkpt><trkpt lat="39.36499767204504" lon="16.492187991045768"><ele>1161.0</ele><time>2026-04-25T09:32:42.718Z</time></trkpt><trkpt lat="39.36489331924709" lon="16.491950481951413"><ele>1161.0</ele><time>2026-04-25T09:32:43.718Z</time></trkpt><trkpt lat="39.36478879163288" lon="16.491710518209338"><ele>1161.0</ele><time>2026-04-25T09:32:44.718Z</time></trkpt><trkpt lat="39.36468879490056" lon="16.491477086112326"><ele>1161.0</ele><time>2026-04-25T09:32:45.718Z</time></trkpt><trkpt lat="39.36459395483844" lon="16.491254518288315"><ele>1162.6666666666667</ele><time>2026-04-25T09:32:46.718Z</time></trkpt><trkpt lat="39.364502469843586" lon="16.491045630000894"><ele>1164.3333333333335</ele><time>2026-04-25T09:32:47.718Z</time></trkpt><trkpt lat="39.364413600637846" lon="16.49085003322554"><ele>1166.0</ele><time>2026-04-25T09:32:48.718Z</time></trkpt><trkpt lat="39.364330171187994" lon="16.490676101476197"><ele>1166.0</ele><time>2026-04-25T09:32:49.718Z</time></trkpt><trkpt lat="39.36424726373368" lon="16.49052994602312"><ele>1166.0</ele><time>2026-04-25T09:32:50.718Z</time></trkpt><trkpt lat="39.36415674329757" lon="16.490405259270315"><ele>1166.0</ele><time>2026-04-25T09:32:51.718Z</time></trkpt><trkpt lat="39.364071462141474" lon="16.490301816578768"><ele>1166.0</ele><time>2026-04-25T09:32:52.718Z</time></trkpt><trkpt lat="39.36398697731623" lon="16.490202322210234"><ele>1166.25</ele><time>2026-04-25T09:32:53.718Z</time></trkpt><trkpt lat="39.36389610379305" lon="16.49009402859665"><ele>1166.5</ele><time>2026-04-25T09:32:54.718Z</time></trkpt><trkpt lat="39.36379907340468" lon="16.48997801744044"><ele>1166.75</ele><time>2026-04-25T09:32:55.718Z</time></trkpt><trkpt lat="39.363710029436014" lon="16.489875252304994"><ele>1167.0</ele><time>2026-04-25T09:32:56.718Z</time></trkpt><trkpt lat="39.36362420068567" lon="16.489767781971555"><ele>1167.0</ele><time>2026-04-25T09:32:57.718Z</time></trkpt><trkpt lat="39.3635413237285" lon="16.48966388557253"><ele>1167.0</ele><time>2026-04-25T09:32:58.718Z</time></trkpt><trkpt lat="39.36346375783378" lon="16.489568748534257"><ele>1167.0</ele><time>2026-04-25T09:32:59.718Z</time></trkpt><trkpt lat="39.363390392321655" lon="16.489476748642648"><ele>1167.0</ele><time>2026-04-25T09:33:00.718Z</time></trkpt><trkpt lat="39.363318316574876" lon="16.489387178787474"><ele>1167.0</ele><time>2026-04-25T09:33:01.718Z</time></trkpt><trkpt lat="39.36324510893845" lon="16.489300390616435"><ele>1167.2</ele><time>2026-04-25T09:33:02.718Z</time></trkpt><trkpt lat="39.363170320400954" lon="16.48921204308179"><ele>1167.4</ele><time>2026-04-25T09:33:03.718Z</time></trkpt><trkpt lat="39.36309722158736" lon="16.48911839691322"><ele>1167.6</ele><time>2026-04-25T09:33:04.717Z</time></trkpt><trkpt lat="39.363026719343154" lon="16.489018637721607"><ele>1167.8</ele><time>2026-04-25T09:33:05.717Z</time></trkpt><trkpt lat="39.362960622207616" lon="16.48891454302305"><ele>1168.0</ele><time>2026-04-25T09:33:06.717Z</time></trkpt><trkpt lat="39.36289654731534" lon="16.488805815585835"><ele>1168.0</ele><time>2026-04-25T09:33:07.717Z</time></trkpt><trkpt lat="39.362833275727716" lon="16.48869245096626"><ele>1168.0</ele><time>2026-04-25T09:33:08.717Z</time></trkpt><trkpt lat="39.36276861063651" lon="16.488576958507412"><ele>1168.0</ele><time>2026-04-25T09:33:09.717Z</time></trkpt><trkpt lat="39.36270287697802" lon="16.48845948530832"><ele>1168.0</ele><time>2026-04-25T09:33:10.717Z</time></trkpt><trkpt lat="39.36263638692077" lon="16.48834081399263"><ele>1168.0</ele><time>2026-04-25T09:33:11.717Z</time></trkpt><trkpt lat="39.36256374322871" lon="16.488213600223734"><ele>1168.0</ele><time>2026-04-25T09:33:12.717Z</time></trkpt><trkpt lat="39.36248014913406" lon="16.488078324055177"><ele>1168.0</ele><time>2026-04-25T09:33:13.717Z</time></trkpt><trkpt lat="39.362389239314524" lon="16.48790542567316"><ele>1168.0</ele><time>2026-04-25T09:33:14.717Z</time></trkpt><trkpt lat="39.36227400090565" lon="16.487696353595968"><ele>1168.0</ele><time>2026-04-25T09:33:15.717Z</time></trkpt><trkpt lat="39.36214704225873" lon="16.487493933734562"><ele>1168.0</ele><time>2026-04-25T09:33:16.717Z</time></trkpt><trkpt lat="39.362054957781815" lon="16.487304911799317"><ele>1168.0</ele><time>2026-04-25T09:33:17.717Z</time></trkpt><trkpt lat="39.361954253290975" lon="16.487121438777667"><ele>1169.0</ele><time>2026-04-25T09:33:18.717Z</time></trkpt><trkpt lat="39.36184303982581" lon="16.48693820041491"><ele>1170.0</ele><time>2026-04-25T09:33:19.717Z</time></trkpt><trkpt lat="39.36171871603126" lon="16.486750258689163"><ele>1171.0</ele><time>2026-04-25T09:33:20.717Z</time></trkpt><trkpt lat="39.36157977022137" lon="16.48655038164792"><ele>1171.0</ele><time>2026-04-25T09:33:21.717Z</time></trkpt><trkpt lat="39.361428754759686" lon="16.486341874005454"><ele>1171.0</ele><time>2026-04-25T09:33:22.717Z</time></trkpt><trkpt lat="39.361269169435424" lon="16.486128034569955"><ele>1171.5</ele><time>2026-04-25T09:33:23.717Z</time></trkpt><trkpt lat="39.36109688433143" lon="16.485908962062393"><ele>1172.0</ele><time>2026-04-25T09:33:24.717Z</time></trkpt><trkpt lat="39.360914434676964" lon="16.4856885617804"><ele>1172.0</ele><time>2026-04-25T09:33:25.717Z</time></trkpt><trkpt lat="39.36072406962138" lon="16.48547444033835"><ele>1172.0</ele><time>2026-04-25T09:33:26.717Z</time></trkpt><trkpt lat="39.360523925664374" lon="16.485257523497115"><ele>1172.5</ele><time>2026-04-25T09:33:27.717Z</time></trkpt><trkpt lat="39.36032111934524" lon="16.485044873675854"><ele>1173.0</ele><time>2026-04-25T09:33:28.717Z</time></trkpt><trkpt lat="39.360114367865954" lon="16.48483829191848"><ele>1173.0</ele><time>2026-04-25T09:33:29.717Z</time></trkpt><trkpt lat="39.359904925633295" lon="16.48463491901335"><ele>1173.0</ele><time>2026-04-25T09:33:30.717Z</time></trkpt><trkpt lat="39.359695271956234" lon="16.484432435377816"><ele>1175.0</ele><time>2026-04-25T09:33:31.717Z</time></trkpt><trkpt lat="39.35948982564475" lon="16.484238160446214"><ele>1177.0</ele><time>2026-04-25T09:33:32.717Z</time></trkpt><trkpt lat="39.35929232606824" lon="16.484068599823306"><ele>1177.0</ele><time>2026-04-25T09:33:33.717Z</time></trkpt><trkpt lat="39.359077767517" lon="16.483910558521753"><ele>1177.0</ele><time>2026-04-25T09:33:34.717Z</time></trkpt><trkpt lat="39.3588491505748" lon="16.48375834191937"><ele>1179.0</ele><time>2026-04-25T09:33:35.717Z</time></trkpt><trkpt lat="39.35860738647985" lon="16.483604877335825"><ele>1181.0</ele><time>2026-04-25T09:33:36.717Z</time></trkpt><trkpt lat="39.35835863941793" lon="16.48345091989158"><ele>1181.0</ele><time>2026-04-25T09:33:37.717Z</time></trkpt><trkpt lat="39.35810513065201" lon="16.483299493579658"><ele>1181.0</ele><time>2026-04-25T09:33:38.717Z</time></trkpt><trkpt lat="39.35786906612389" lon="16.4831604792366"><ele>1181.0</ele><time>2026-04-25T09:33:39.717Z</time></trkpt><trkpt lat="39.357651330991544" lon="16.483030153353475"><ele>1181.0</ele><time>2026-04-25T09:33:40.717Z</time></trkpt><trkpt lat="39.35744954651201" lon="16.482907898137043"><ele>1183.0</ele><time>2026-04-25T09:33:41.717Z</time></trkpt><trkpt lat="39.3572659152742" lon="16.482794269022975"><ele>1185.0</ele><time>2026-04-25T09:33:42.717Z</time></trkpt><trkpt lat="39.35709469743985" lon="16.48268254269687"><ele>1187.0</ele><time>2026-04-25T09:33:43.717Z</time></trkpt><trkpt lat="39.356936399046525" lon="16.48257238800509"><ele>1187.0</ele><time>2026-04-25T09:33:44.717Z</time></trkpt><trkpt lat="39.3567940282193" lon="16.482460174589054"><ele>1187.0</ele><time>2026-04-25T09:33:45.717Z</time></trkpt><trkpt lat="39.35667195689693" lon="16.482330764557783"><ele>1187.0</ele><time>2026-04-25T09:33:46.717Z</time></trkpt><trkpt lat="39.35656668102541" lon="16.482170365511422"><ele>1187.0</ele><time>2026-04-25T09:33:47.717Z</time></trkpt><trkpt lat="39.35646288890503" lon="16.481973186875535"><ele>1187.0</ele><time>2026-04-25T09:33:48.717Z</time></trkpt><trkpt lat="39.35635297411016" lon="16.481745743114978"><ele>1187.0</ele><time>2026-04-25T09:33:49.717Z</time></trkpt><trkpt lat="39.35622615957788" lon="16.48149915545744"><ele>1188.5</ele><time>2026-04-25T09:33:50.717Z</time></trkpt><trkpt lat="39.35609066021737" lon="16.48124430913294"><ele>1190.0</ele><time>2026-04-25T09:33:51.717Z</time></trkpt><trkpt lat="39.35593932969152" lon="16.480962342528294"><ele>1190.0</ele><time>2026-04-25T09:33:52.717Z</time></trkpt><trkpt lat="39.35578302086632" lon="16.480665714915407"><ele>1190.0</ele><time>2026-04-25T09:33:53.717Z</time></trkpt><trkpt lat="39.355645059593826" lon="16.480401954605874"><ele>1191.5</ele><time>2026-04-25T09:33:54.717Z</time></trkpt><trkpt lat="39.355512633556316" lon="16.480144837427233"><ele>1193.0</ele><time>2026-04-25T09:33:55.717Z</time></trkpt><trkpt lat="39.3553802117113" lon="16.479888674873383"><ele>1193.0</ele><time>2026-04-25T09:33:56.717Z</time></trkpt><trkpt lat="39.35524938431675" lon="16.479635546598093"><ele>1193.0</ele><time>2026-04-25T09:33:57.717Z</time></trkpt><trkpt lat="39.35511563914947" lon="16.47938036581364"><ele>1194.0</ele><time>2026-04-25T09:33:58.717Z</time></trkpt><trkpt lat="39.35498029971541" lon="16.479120074712664"><ele>1195.0</ele><time>2026-04-25T09:33:59.717Z</time></trkpt><trkpt lat="39.354843513416114" lon="16.478853945976024"><ele>1195.5</ele><time>2026-04-25T09:34:00.717Z</time></trkpt><trkpt lat="39.3547042136714" lon="16.478581255883398"><ele>1196.0</ele><time>2026-04-25T09:34:01.717Z</time></trkpt><trkpt lat="39.35456266173882" lon="16.47830266992507"><ele>1196.0</ele><time>2026-04-25T09:34:02.717Z</time></trkpt><trkpt lat="39.3544207482179" lon="16.47802199302081"><ele>1196.0</ele><time>2026-04-25T09:34:03.717Z</time></trkpt><trkpt lat="39.3542858718306" lon="16.4777617778093"><ele>1196.6666666666667</ele><time>2026-04-25T09:34:04.717Z</time></trkpt><trkpt lat="39.35416004992839" lon="16.477521564189047"><ele>1197.3333333333333</ele><time>2026-04-25T09:34:05.717Z</time></trkpt><trkpt lat="39.354040760207255" lon="16.477290464969506"><ele>1198.0</ele><time>2026-04-25T09:34:06.717Z</time></trkpt><trkpt lat="39.35391660793746" lon="16.477055807754905"><ele>1199.0</ele><time>2026-04-25T09:34:07.717Z</time></trkpt><trkpt lat="39.35378846735739" lon="16.476833096265764"><ele>1200.0</ele><time>2026-04-25T09:34:08.717Z</time></trkpt><trkpt lat="39.35366004784314" lon="16.476632104322725"><ele>1201.0</ele><time>2026-04-25T09:34:09.717Z</time></trkpt><trkpt lat="39.35353636939081" lon="16.476448216172905"><ele>1201.0</ele><time>2026-04-25T09:34:10.717Z</time></trkpt><trkpt lat="39.353421094464665" lon="16.47628066025435"><ele>1201.0</ele><time>2026-04-25T09:34:11.717Z</time></trkpt><trkpt lat="39.3533145583162" lon="16.47613546969276"><ele>1201.0</ele><time>2026-04-25T09:34:12.717Z</time></trkpt><trkpt lat="39.353202920686414" lon="16.47602012353476"><ele>1202.25</ele><time>2026-04-25T09:34:13.717Z</time></trkpt><trkpt lat="39.35307754631502" lon="16.475962826245265"><ele>1203.5</ele><time>2026-04-25T09:34:14.717Z</time></trkpt><trkpt lat="39.35293180197591" lon="16.475968156944386"><ele>1204.75</ele><time>2026-04-25T09:34:15.717Z</time></trkpt><trkpt lat="39.35277807129949" lon="16.476035604334488"><ele>1206.0</ele><time>2026-04-25T09:34:16.717Z</time></trkpt><trkpt lat="39.352617376382355" lon="16.476116729766716"><ele>1206.0</ele><time>2026-04-25T09:34:17.717Z</time></trkpt><trkpt lat="39.35248538012686" lon="16.476162421743396"><ele>1206.0</ele><time>2026-04-25T09:34:18.717Z</time></trkpt><trkpt lat="39.3523730811152" lon="16.476161489581855"><ele>1206.0</ele><time>2026-04-25T09:34:19.717Z</time></trkpt><trkpt lat="39.35228554971027" lon="16.476101535095943"><ele>1206.0</ele><time>2026-04-25T09:34:20.717Z</time></trkpt><trkpt lat="39.352236845273076" lon="16.475996207350693"><ele>1206.0</ele><time>2026-04-25T09:34:21.718Z</time></trkpt><trkpt lat="39.352203290353906" lon="16.475870365428957"><ele>1207.0</ele><time>2026-04-25T09:34:22.718Z</time></trkpt><trkpt lat="39.352121539050124" lon="16.475772139848818"><ele>1208.0</ele><time>2026-04-25T09:34:23.718Z</time></trkpt><trkpt lat="39.3520251944158" lon="16.475647229720842"><ele>1209.0</ele><time>2026-04-25T09:34:24.718Z</time></trkpt><trkpt lat="39.35212165215236" lon="16.47522562018284"><ele>1210.0</ele><time>2026-04-25T09:34:25.718Z</time></trkpt><trkpt lat="39.35206437894629" lon="16.47497474642641"><ele>1211.0</ele><time>2026-04-25T09:34:26.718Z</time></trkpt><trkpt lat="39.35200383204803" lon="16.47469188005898"><ele>1212.0</ele><time>2026-04-25T09:34:27.718Z</time></trkpt><trkpt lat="39.3519696053653" lon="16.47442779314019"><ele>1212.6666666666667</ele><time>2026-04-25T09:34:28.718Z</time></trkpt><trkpt lat="39.35197972963616" lon="16.47419124382066"><ele>1213.3333333333335</ele><time>2026-04-25T09:34:29.718Z</time></trkpt><trkpt lat="39.352031134175526" lon="16.473991964542808"><ele>1214.0</ele><time>2026-04-25T09:34:30.718Z</time></trkpt><trkpt lat="39.3520549340392" lon="16.4738154548215"><ele>1215.6666666666667</ele><time>2026-04-25T09:34:31.718Z</time></trkpt><trkpt lat="39.35203484065201" lon="16.473639496040384"><ele>1217.3333333333333</ele><time>2026-04-25T09:34:32.718Z</time></trkpt><trkpt lat="39.351954079547454" lon="16.47343872111697"><ele>1219.0</ele><time>2026-04-25T09:34:33.718Z</time></trkpt><trkpt lat="39.351836155676615" lon="16.473231384034673"><ele>1219.0</ele><time>2026-04-25T09:34:34.718Z</time></trkpt><trkpt lat="39.351692075166234" lon="16.473028604179262"><ele>1219.0</ele><time>2026-04-25T09:34:35.717Z</time></trkpt><trkpt lat="39.3515590952312" lon="16.472850535516532"><ele>1219.0</ele><time>2026-04-25T09:34:36.717Z</time></trkpt><trkpt lat="39.35145299414571" lon="16.47268977504659"><ele>1220.75</ele><time>2026-04-25T09:34:37.717Z</time></trkpt><trkpt lat="39.351369646031706" lon="16.472526574980396"><ele>1222.5</ele><time>2026-04-25T09:34:38.717Z</time></trkpt><trkpt lat="39.35131072339777" lon="16.47235887816161"><ele>1224.25</ele><time>2026-04-25T09:34:39.717Z</time></trkpt><trkpt lat="39.351265970382826" lon="16.472181107249643"><ele>1226.0</ele><time>2026-04-25T09:34:40.717Z</time></trkpt><trkpt lat="39.351222437267836" lon="16.47199584834156"><ele>1227.0</ele><time>2026-04-25T09:34:41.717Z</time></trkpt><trkpt lat="39.35117677064277" lon="16.471807779481995"><ele>1228.0</ele><time>2026-04-25T09:34:42.717Z</time></trkpt><trkpt lat="39.351147259437816" lon="16.471645244787734"><ele>1229.0</ele><time>2026-04-25T09:34:43.717Z</time></trkpt><trkpt lat="39.35112493717208" lon="16.471519202336736"><ele>1230.0</ele><time>2026-04-25T09:34:44.717Z</time></trkpt><trkpt lat="39.3511078734035" lon="16.471425834158193"><ele>1230.0</ele><time>2026-04-25T09:34:45.717Z</time></trkpt><trkpt lat="39.351088853504784" lon="16.471306709925628"><ele>1230.0</ele><time>2026-04-25T09:34:47.717Z</time></trkpt><trkpt lat="39.35110484760848" lon="16.47121536979745"><ele>1230.0</ele><time>2026-04-25T09:34:50.717Z</time></trkpt><trkpt lat="39.351046613132944" lon="16.47113945636319"><ele>1230.0</ele><time>2026-04-25T09:36:19.716Z</time></trkpt><trkpt lat="39.351014600266915" lon="16.471044253469955"><ele>1230.0</ele><time>2026-04-25T09:36:20.716Z</time></trkpt><trkpt lat="39.35096870658529" lon="16.47087967026823"><ele>1230.3333333333333</ele><time>2026-04-25T09:36:21.716Z</time></trkpt><trkpt lat="39.35092583905557" lon="16.470668693363656"><ele>1230.6666666666665</ele><time>2026-04-25T09:36:22.716Z</time></trkpt><trkpt lat="39.350877479150235" lon="16.470420330217745"><ele>1231.0</ele><time>2026-04-25T09:36:23.716Z</time></trkpt><trkpt lat="39.3508165674192" lon="16.470136523010016"><ele>1231.0</ele><time>2026-04-25T09:36:24.716Z</time></trkpt><trkpt lat="39.350750398185674" lon="16.469834000027475"><ele>1231.0</ele><time>2026-04-25T09:36:25.716Z</time></trkpt><trkpt lat="39.350690473317826" lon="16.46955870666159"><ele>1231.0</ele><time>2026-04-25T09:36:26.716Z</time></trkpt><trkpt lat="39.35063760437008" lon="16.469307481755234"><ele>1231.0</ele><time>2026-04-25T09:36:27.717Z</time></trkpt><trkpt lat="39.350575335248" lon="16.469011068936258"><ele>1231.0</ele><time>2026-04-25T09:36:28.717Z</time></trkpt><trkpt lat="39.35056858777118" lon="16.468686646659858"><ele>1231.0</ele><time>2026-04-25T09:36:29.717Z</time></trkpt><trkpt lat="39.3505489119613" lon="16.468413050279555"><ele>1231.0</ele><time>2026-04-25T09:36:30.717Z</time></trkpt><trkpt lat="39.35052380939035" lon="16.46818021330941"><ele>1231.0</ele><time>2026-04-25T09:36:31.717Z</time></trkpt><trkpt lat="39.35051233404225" lon="16.467971770051516"><ele>1234.8</ele><time>2026-04-25T09:36:32.717Z</time></trkpt><trkpt lat="39.35049561604677" lon="16.46777721127749"><ele>1238.6</ele><time>2026-04-25T09:36:33.717Z</time></trkpt><trkpt lat="39.35047348235553" lon="16.46763638509463"><ele>1242.4</ele><time>2026-04-25T09:36:34.717Z</time></trkpt><trkpt lat="39.35044044040454" lon="16.467543036453364"><ele>1246.2</ele><time>2026-04-25T09:36:35.717Z</time></trkpt><trkpt lat="39.35039244540053" lon="16.467485942278092"><ele>1250.0</ele><time>2026-04-25T09:36:36.717Z</time></trkpt><trkpt lat="39.35030204003309" lon="16.467453361559993"><ele>1250.0</ele><time>2026-04-25T09:36:37.717Z</time></trkpt><trkpt lat="39.350205524363226" lon="16.467464600886668"><ele>1250.0</ele><time>2026-04-25T09:36:38.717Z</time></trkpt><trkpt lat="39.350089269578014" lon="16.467523289703294"><ele>1250.0</ele><time>2026-04-25T09:36:39.717Z</time></trkpt><trkpt lat="39.34997558957568" lon="16.467570583662823"><ele>1250.0</ele><time>2026-04-25T09:36:40.717Z</time></trkpt><trkpt lat="39.34986754771843" lon="16.467538187857897"><ele>1250.0</ele><time>2026-04-25T09:36:41.717Z</time></trkpt><trkpt lat="39.34978833794265" lon="16.467467056687603"><ele>1250.0</ele><time>2026-04-25T09:36:42.717Z</time></trkpt><trkpt lat="39.34975064872684" lon="16.467361705160403"><ele>1250.0</ele><time>2026-04-25T09:36:43.717Z</time></trkpt><trkpt lat="39.349749007407965" lon="16.467202660349454"><ele>1250.0</ele><time>2026-04-25T09:36:44.717Z</time></trkpt><trkpt lat="39.349750365263134" lon="16.467019913967086"><ele>1250.2</ele><time>2026-04-25T09:36:45.717Z</time></trkpt><trkpt lat="39.34976334097991" lon="16.46684698809881"><ele>1250.4</ele><time>2026-04-25T09:36:46.717Z</time></trkpt><trkpt lat="39.349762856652866" lon="16.466719987516456"><ele>1250.6</ele><time>2026-04-25T09:36:47.717Z</time></trkpt><trkpt lat="39.34978797032898" lon="16.466599552594634"><ele>1250.8</ele><time>2026-04-25T09:36:48.717Z</time></trkpt><trkpt lat="39.34983275753261" lon="16.466499710194793"><ele>1251.0</ele><time>2026-04-25T09:36:49.717Z</time></trkpt><trkpt lat="39.34989030562517" lon="16.466412509595717"><ele>1251.0</ele><time>2026-04-25T09:36:50.717Z</time></trkpt><trkpt lat="39.34993303241797" lon="16.466307999543066"><ele>1251.0</ele><time>2026-04-25T09:36:51.717Z</time></trkpt><trkpt lat="39.349965367651876" lon="16.466180213515806"><ele>1251.0</ele><time>2026-04-25T09:36:52.717Z</time></trkpt><trkpt lat="39.349964607469886" lon="16.46604803924846"><ele>1251.0</ele><time>2026-04-25T09:36:53.717Z</time></trkpt><trkpt lat="39.349950508061404" lon="16.465890776462874"><ele>1251.0</ele><time>2026-04-25T09:36:54.717Z</time></trkpt><trkpt lat="39.34992354115374" lon="16.46568497950086"><ele>1255.0</ele><time>2026-04-25T09:36:55.717Z</time></trkpt><trkpt lat="39.34983812728979" lon="16.465419215541246"><ele>1259.0</ele><time>2026-04-25T09:36:56.717Z</time></trkpt><trkpt lat="39.349722024538316" lon="16.465165026224533"><ele>1259.0</ele><time>2026-04-25T09:36:57.717Z</time></trkpt><trkpt lat="39.34971845785989" lon="16.464939493502566"><ele>1259.0</ele><time>2026-04-25T09:36:58.717Z</time></trkpt><trkpt lat="39.34973156006069" lon="16.464732546918114"><ele>1259.0</ele><time>2026-04-25T09:36:59.717Z</time></trkpt><trkpt lat="39.349725022936006" lon="16.464541675864556"><ele>1259.6666666666667</ele><time>2026-04-25T09:37:00.717Z</time></trkpt><trkpt lat="39.349695879222196" lon="16.46433376202971"><ele>1260.3333333333333</ele><time>2026-04-25T09:37:01.717Z</time></trkpt><trkpt lat="39.349641426678865" lon="16.464112683602462"><ele>1261.0</ele><time>2026-04-25T09:37:02.717Z</time></trkpt><trkpt lat="39.34957630760089" lon="16.463923658650344"><ele>1260.25</ele><time>2026-04-25T09:37:03.717Z</time></trkpt><trkpt lat="39.349520771021076" lon="16.46375543290896"><ele>1259.5</ele><time>2026-04-25T09:37:04.717Z</time></trkpt><trkpt lat="39.34946899928788" lon="16.46361955229148"><ele>1258.75</ele><time>2026-04-25T09:37:05.717Z</time></trkpt><trkpt lat="39.349420687703464" lon="16.463481556473248"><ele>1258.0</ele><time>2026-04-25T09:37:06.717Z</time></trkpt><trkpt lat="39.3493721305036" lon="16.46333419276844"><ele>1258.0</ele><time>2026-04-25T09:37:07.717Z</time></trkpt><trkpt lat="39.349318723444775" lon="16.463185282640538"><ele>1258.0</ele><time>2026-04-25T09:37:08.717Z</time></trkpt><trkpt lat="39.34927124787747" lon="16.46304247680319"><ele>1258.0</ele><time>2026-04-25T09:37:09.717Z</time></trkpt><trkpt lat="39.34922325180603" lon="16.462890195466578"><ele>1258.0</ele><time>2026-04-25T09:37:10.717Z</time></trkpt><trkpt lat="39.34917077029628" lon="16.4627367619898"><ele>1257.75</ele><time>2026-04-25T09:37:11.717Z</time></trkpt><trkpt lat="39.34911799334167" lon="16.462587669330677"><ele>1257.5</ele><time>2026-04-25T09:37:12.717Z</time></trkpt><trkpt lat="39.349066072590574" lon="16.462426649843934"><ele>1257.25</ele><time>2026-04-25T09:37:13.717Z</time></trkpt><trkpt lat="39.34901062135021" lon="16.462250663463685"><ele>1257.0</ele><time>2026-04-25T09:37:14.717Z</time></trkpt><trkpt lat="39.3489597097114" lon="16.4620852644555"><ele>1256.0</ele><time>2026-04-25T09:37:15.717Z</time></trkpt><trkpt lat="39.34891566159534" lon="16.46193083050966"><ele>1255.0</ele><time>2026-04-25T09:37:16.717Z</time></trkpt><trkpt lat="39.34887272070528" lon="16.46177151243397"><ele>1254.0</ele><time>2026-04-25T09:37:17.717Z</time></trkpt><trkpt lat="39.34883518644335" lon="16.461613100591265"><ele>1253.0</ele><time>2026-04-25T09:37:18.717Z</time></trkpt><trkpt lat="39.34879711855694" lon="16.46146372969805"><ele>1253.0</ele><time>2026-04-25T09:37:19.717Z</time></trkpt><trkpt lat="39.34876089343032" lon="16.461316230043273"><ele>1253.0</ele><time>2026-04-25T09:37:20.717Z</time></trkpt><trkpt lat="39.348720470997286" lon="16.461165365390023"><ele>1253.0</ele><time>2026-04-25T09:37:21.717Z</time></trkpt><trkpt lat="39.348677171615215" lon="16.46102348633826"><ele>1253.0</ele><time>2026-04-25T09:37:22.717Z</time></trkpt><trkpt lat="39.34864497884308" lon="16.460909020081115"><ele>1253.0</ele><time>2026-04-25T09:37:23.717Z</time></trkpt><trkpt lat="39.34860397753601" lon="16.460796758465854"><ele>1253.0</ele><time>2026-04-25T09:37:24.717Z</time></trkpt><trkpt lat="39.348555895706994" lon="16.46069125444912"><ele>1253.0</ele><time>2026-04-25T09:37:25.717Z</time></trkpt><trkpt lat="39.34849887288779" lon="16.46058129886902"><ele>1253.0</ele><time>2026-04-25T09:37:26.717Z</time></trkpt><trkpt lat="39.348428603767154" lon="16.460479217077886"><ele>1253.0</ele><time>2026-04-25T09:37:27.717Z</time></trkpt><trkpt lat="39.348365332925745" lon="16.460378080749678"><ele>1251.2</ele><time>2026-04-25T09:37:28.717Z</time></trkpt><trkpt lat="39.348302104534405" lon="16.460283558726445"><ele>1249.4</ele><time>2026-04-25T09:37:29.717Z</time></trkpt><trkpt lat="39.34823651534122" lon="16.460203545224918"><ele>1247.6000000000001</ele><time>2026-04-25T09:37:30.717Z</time></trkpt><trkpt lat="39.34815513531376" lon="16.460155559979285"><ele>1245.8</ele><time>2026-04-25T09:37:31.717Z</time></trkpt><trkpt lat="39.34806204422312" lon="16.46015807962375"><ele>1244.0</ele><time>2026-04-25T09:37:32.717Z</time></trkpt><trkpt lat="39.34796840036474" lon="16.460205910402365"><ele>1244.3333333333335</ele><time>2026-04-25T09:37:33.717Z</time></trkpt><trkpt lat="39.34787125821833" lon="16.460316487231015"><ele>1244.6666666666667</ele><time>2026-04-25T09:37:34.717Z</time></trkpt><trkpt lat="39.34776029115938" lon="16.46054171992342"><ele>1245.0</ele><time>2026-04-25T09:37:35.717Z</time></trkpt><trkpt lat="39.347598238978904" lon="16.46073762315683"><ele>1245.0</ele><time>2026-04-25T09:37:36.717Z</time></trkpt><trkpt lat="39.347439622793495" lon="16.46095786441822"><ele>1245.0</ele><time>2026-04-25T09:37:37.717Z</time></trkpt><trkpt lat="39.34731272657093" lon="16.461133969304306"><ele>1245.0</ele><time>2026-04-25T09:37:38.717Z</time></trkpt><trkpt lat="39.34720796183235" lon="16.461270558172274"><ele>1244.0</ele><time>2026-04-25T09:37:39.717Z</time></trkpt><trkpt lat="39.3471051595074" lon="16.461383061538577"><ele>1243.0</ele><time>2026-04-25T09:37:40.717Z</time></trkpt><trkpt lat="39.34698961229932" lon="16.461447966440485"><ele>1242.0</ele><time>2026-04-25T09:37:41.717Z</time></trkpt><trkpt lat="39.34686309792962" lon="16.461445917844514"><ele>1241.0</ele><time>2026-04-25T09:37:42.717Z</time></trkpt><trkpt lat="39.34673518445718" lon="16.461384031769857"><ele>1241.0</ele><time>2026-04-25T09:37:43.717Z</time></trkpt><trkpt lat="39.34660476935952" lon="16.4612880192339"><ele>1241.0</ele><time>2026-04-25T09:37:44.717Z</time></trkpt><trkpt lat="39.346473972073326" lon="16.461162339107478"><ele>1241.0</ele><time>2026-04-25T09:37:45.717Z</time></trkpt><trkpt lat="39.34634823594169" lon="16.460999630081698"><ele>1241.5</ele><time>2026-04-25T09:37:46.717Z</time></trkpt><trkpt lat="39.34625286443968" lon="16.46084733295513"><ele>1242.0</ele><time>2026-04-25T09:37:47.716Z</time></trkpt><trkpt lat="39.34618698322181" lon="16.460718751827685"><ele>1242.5</ele><time>2026-04-25T09:37:48.716Z</time></trkpt><trkpt lat="39.346137281496766" lon="16.460626327713033"><ele>1243.0</ele><time>2026-04-25T09:37:49.716Z</time></trkpt><trkpt lat="39.3460741481259" lon="16.460529401493268"><ele>1243.0</ele><time>2026-04-25T09:37:51.716Z</time></trkpt><trkpt lat="39.34602865184632" lon="16.46046427410748"><ele>1243.0</ele><time>2026-04-25T09:37:54.716Z</time></trkpt><trkpt lat="39.3459642892099" lon="16.460397167582713"><ele>1243.0</ele><time>2026-04-25T09:37:56.716Z</time></trkpt><trkpt lat="39.34591802577169" lon="16.46031198307322"><ele>1243.0</ele><time>2026-04-25T09:37:57.716Z</time></trkpt><trkpt lat="39.34586053430271" lon="16.460181561785657"><ele>1243.0</ele><time>2026-04-25T09:37:58.716Z</time></trkpt><trkpt lat="39.34578719646563" lon="16.460039555473752"><ele>1242.6</ele><time>2026-04-25T09:37:59.716Z</time></trkpt><trkpt lat="39.34570591337387" lon="16.45991666951897"><ele>1242.1999999999998</ele><time>2026-04-25T09:38:00.716Z</time></trkpt><trkpt lat="39.34563412295198" lon="16.45981030127363"><ele>1241.8</ele><time>2026-04-25T09:38:01.716Z</time></trkpt><trkpt lat="39.345570568752784" lon="16.45971046453151"><ele>1241.3999999999999</ele><time>2026-04-25T09:38:02.716Z</time></trkpt><trkpt lat="39.34550505504425" lon="16.459600958336953"><ele>1241.0</ele><time>2026-04-25T09:38:03.716Z</time></trkpt><trkpt lat="39.34543729155373" lon="16.459484790009824"><ele>1243.2</ele><time>2026-04-25T09:38:04.716Z</time></trkpt><trkpt lat="39.34535940420215" lon="16.459365194888115"><ele>1245.3999999999999</ele><time>2026-04-25T09:38:05.716Z</time></trkpt><trkpt lat="39.345280339352385" lon="16.459263396559972"><ele>1247.6</ele><time>2026-04-25T09:38:06.716Z</time></trkpt><trkpt lat="39.34520223167864" lon="16.45918121925881"><ele>1249.8</ele><time>2026-04-25T09:38:07.716Z</time></trkpt><trkpt lat="39.34512776500924" lon="16.459106573020797"><ele>1252.0</ele><time>2026-04-25T09:38:08.716Z</time></trkpt><trkpt lat="39.345050161146474" lon="16.459040228043527"><ele>1252.0</ele><time>2026-04-25T09:38:09.716Z</time></trkpt><trkpt lat="39.344964025441435" lon="16.458984736961863"><ele>1252.0</ele><time>2026-04-25T09:38:10.716Z</time></trkpt><trkpt lat="39.34486403470891" lon="16.458923390324856"><ele>1252.0</ele><time>2026-04-25T09:38:11.716Z</time></trkpt><trkpt lat="39.34476088867105" lon="16.458872970818145"><ele>1252.0</ele><time>2026-04-25T09:38:12.716Z</time></trkpt><trkpt lat="39.34464388152185" lon="16.458811330470663"><ele>1252.0</ele><time>2026-04-25T09:38:13.716Z</time></trkpt><trkpt lat="39.3445241294335" lon="16.45875292399403"><ele>1249.6</ele><time>2026-04-25T09:38:14.716Z</time></trkpt><trkpt lat="39.34441538327696" lon="16.458687408679705"><ele>1247.2</ele><time>2026-04-25T09:38:15.716Z</time></trkpt><trkpt lat="39.34430964425183" lon="16.45860996522941"><ele>1244.8</ele><time>2026-04-25T09:38:16.716Z</time></trkpt><trkpt lat="39.34421139275168" lon="16.458572751634424"><ele>1242.4</ele><time>2026-04-25T09:38:17.716Z</time></trkpt><trkpt lat="39.344112679864416" lon="16.458530525817366"><ele>1240.0</ele><time>2026-04-25T09:38:18.716Z</time></trkpt><trkpt lat="39.34402259095288" lon="16.458492633291286"><ele>1240.0</ele><time>2026-04-25T09:38:19.716Z</time></trkpt><trkpt lat="39.3439338843956" lon="16.458445682471865"><ele>1240.0</ele><time>2026-04-25T09:38:20.716Z</time></trkpt><trkpt lat="39.343849398437634" lon="16.458400906711933"><ele>1240.0</ele><time>2026-04-25T09:38:21.716Z</time></trkpt><trkpt lat="39.34376748201126" lon="16.458363292333896"><ele>1240.0</ele><time>2026-04-25T09:38:22.716Z</time></trkpt><trkpt lat="39.343696810566506" lon="16.458312820010832"><ele>1240.0</ele><time>2026-04-25T09:38:23.716Z</time></trkpt><trkpt lat="39.34363260033252" lon="16.458259708128182"><ele>1240.0</ele><time>2026-04-25T09:38:24.716Z</time></trkpt><trkpt lat="39.34355921579924" lon="16.4582207887965"><ele>1240.1666666666665</ele><time>2026-04-25T09:38:25.716Z</time></trkpt><trkpt lat="39.343484879686415" lon="16.458141567928823"><ele>1240.3333333333333</ele><time>2026-04-25T09:38:26.716Z</time></trkpt><trkpt lat="39.343412018281626" lon="16.458088509690523"><ele>1240.5</ele><time>2026-04-25T09:38:27.716Z</time></trkpt><trkpt lat="39.343347439804106" lon="16.458006559915713"><ele>1240.6666666666667</ele><time>2026-04-25T09:38:28.716Z</time></trkpt><trkpt lat="39.343293612968516" lon="16.457919903182315"><ele>1240.8333333333335</ele><time>2026-04-25T09:38:29.716Z</time></trkpt><trkpt lat="39.343252444137235" lon="16.45783536355372"><ele>1241.0</ele><time>2026-04-25T09:38:30.716Z</time></trkpt><trkpt lat="39.343216240559826" lon="16.457739392621455"><ele>1241.0</ele><time>2026-04-25T09:38:31.716Z</time></trkpt><trkpt lat="39.343181422427925" lon="16.45763091491269"><ele>1241.0</ele><time>2026-04-25T09:38:32.716Z</time></trkpt><trkpt lat="39.343148354961784" lon="16.457507519207923"><ele>1241.0</ele><time>2026-04-25T09:38:33.717Z</time></trkpt><trkpt lat="39.34313178885041" lon="16.457395161532588"><ele>1241.0</ele><time>2026-04-25T09:38:34.717Z</time></trkpt><trkpt lat="39.34311203419786" lon="16.457271021915624"><ele>1241.0</ele><time>2026-04-25T09:38:35.717Z</time></trkpt><trkpt lat="39.34307787797755" lon="16.457113220784937"><ele>1241.6666666666667</ele><time>2026-04-25T09:38:36.717Z</time></trkpt><trkpt lat="39.34305660596152" lon="16.456896318112722"><ele>1242.3333333333333</ele><time>2026-04-25T09:38:37.717Z</time></trkpt><trkpt lat="39.343013289407224" lon="16.456632410270476"><ele>1243.0</ele><time>2026-04-25T09:38:38.716Z</time></trkpt><trkpt lat="39.34298140106993" lon="16.4563252229789"><ele>1243.0</ele><time>2026-04-25T09:38:39.716Z</time></trkpt><trkpt lat="39.34294136331011" lon="16.456059409722897"><ele>1243.0</ele><time>2026-04-25T09:38:40.716Z</time></trkpt><trkpt lat="39.34287831176797" lon="16.455848277463893"><ele>1243.0</ele><time>2026-04-25T09:38:41.716Z</time></trkpt><trkpt lat="39.3427955955317" lon="16.455657851358584"><ele>1244.3333333333333</ele><time>2026-04-25T09:38:42.716Z</time></trkpt><trkpt lat="39.34268418361085" lon="16.45544090763295"><ele>1245.6666666666667</ele><time>2026-04-25T09:38:43.716Z</time></trkpt><trkpt lat="39.34255048635649" lon="16.455190464316253"><ele>1247.0</ele><time>2026-04-25T09:38:44.716Z</time></trkpt><trkpt lat="39.34241682848482" lon="16.454956116600467"><ele>1247.0</ele><time>2026-04-25T09:38:45.716Z</time></trkpt><trkpt lat="39.34231809022435" lon="16.45473522513825"><ele>1247.0</ele><time>2026-04-25T09:38:46.716Z</time></trkpt><trkpt lat="39.34221976430266" lon="16.454538871573277"><ele>1247.0</ele><time>2026-04-25T09:38:47.716Z</time></trkpt><trkpt lat="39.342130050901886" lon="16.454352787713823"><ele>1248.6666666666667</ele><time>2026-04-25T09:38:48.716Z</time></trkpt><trkpt lat="39.342045717026124" lon="16.454176921393778"><ele>1250.3333333333333</ele><time>2026-04-25T09:38:49.716Z</time></trkpt><trkpt lat="39.34196631490483" lon="16.45401053083466"><ele>1252.0</ele><time>2026-04-25T09:38:50.716Z</time></trkpt><trkpt lat="39.34187946163437" lon="16.453861377917363"><ele>1252.4</ele><time>2026-04-25T09:38:51.716Z</time></trkpt><trkpt lat="39.34182811669863" lon="16.453714833607666"><ele>1252.8000000000002</ele><time>2026-04-25T09:38:52.716Z</time></trkpt><trkpt lat="39.34178617246155" lon="16.45358896146606"><ele>1253.2</ele><time>2026-04-25T09:38:53.716Z</time></trkpt><trkpt lat="39.34174353963269" lon="16.453496652983056"><ele>1253.6000000000001</ele><time>2026-04-25T09:38:54.716Z</time></trkpt><trkpt lat="39.34170951154585" lon="16.453381001673655"><ele>1254.0</ele><time>2026-04-25T09:38:55.716Z</time></trkpt><trkpt lat="39.341676839633905" lon="16.453258379272103"><ele>1254.0</ele><time>2026-04-25T09:38:56.716Z</time></trkpt><trkpt lat="39.341649062375986" lon="16.453132940096577"><ele>1254.0</ele><time>2026-04-25T09:38:57.716Z</time></trkpt><trkpt lat="39.341615700322635" lon="16.45299889830355"><ele>1254.0</ele><time>2026-04-25T09:38:58.716Z</time></trkpt><trkpt lat="39.34158290545038" lon="16.452860092559416"><ele>1254.0</ele><time>2026-04-25T09:38:59.715Z</time></trkpt><trkpt lat="39.34155645189753" lon="16.45271454962837"><ele>1254.0</ele><time>2026-04-25T09:39:00.715Z</time></trkpt><trkpt lat="39.341532701436854" lon="16.4525666196991"><ele>1255.0</ele><time>2026-04-25T09:39:01.715Z</time></trkpt><trkpt lat="39.341508845811376" lon="16.452415400003964"><ele>1256.0</ele><time>2026-04-25T09:39:02.715Z</time></trkpt><trkpt lat="39.3414821013494" lon="16.452271959119418"><ele>1257.0</ele><time>2026-04-25T09:39:03.715Z</time></trkpt><trkpt lat="39.34145813347157" lon="16.45216437531931"><ele>1258.0</ele><time>2026-04-25T09:39:04.715Z</time></trkpt><trkpt lat="39.34143198589661" lon="16.45207740202641"><ele>1259.0</ele><time>2026-04-25T09:39:05.715Z</time></trkpt><trkpt lat="39.34140655484916" lon="16.451999754175493"><ele>1258.8333333333335</ele><time>2026-04-25T09:39:06.715Z</time></trkpt><trkpt lat="39.341335903765476" lon="16.451867207428645"><ele>1258.6666666666667</ele><time>2026-04-25T09:39:08.715Z</time></trkpt><trkpt lat="39.34128992914019" lon="16.451801426198152"><ele>1258.5</ele><time>2026-04-25T09:39:09.715Z</time></trkpt><trkpt lat="39.34124523417815" lon="16.45173376997695"><ele>1258.3333333333333</ele><time>2026-04-25T09:39:10.715Z</time></trkpt><trkpt lat="39.34120369479865" lon="16.45166947208496"><ele>1258.1666666666665</ele><time>2026-04-25T09:39:11.715Z</time></trkpt><trkpt lat="39.34113165822225" lon="16.45155691264101"><ele>1258.0</ele><time>2026-04-25T09:39:13.715Z</time></trkpt><trkpt lat="39.341054612453036" lon="16.4514261535602"><ele>1258.0</ele><time>2026-04-25T09:39:15.715Z</time></trkpt><trkpt lat="39.341009688892534" lon="16.451363734451856"><ele>1258.0</ele><time>2026-04-25T09:39:16.715Z</time></trkpt><trkpt lat="39.340982095707034" lon="16.45124746316582"><ele>1258.0</ele><time>2026-04-25T09:39:17.715Z</time></trkpt><trkpt lat="39.34092437703505" lon="16.451160836102627"><ele>1258.0</ele><time>2026-04-25T09:39:18.715Z</time></trkpt><trkpt lat="39.340898297069295" lon="16.4510405570124"><ele>1258.0</ele><time>2026-04-25T09:39:20.715Z</time></trkpt><trkpt lat="39.34087250032722" lon="16.45094307563502"><ele>1258.0</ele><time>2026-04-25T09:39:21.715Z</time></trkpt><trkpt lat="39.340847679113374" lon="16.450853340908846"><ele>1259.0</ele><time>2026-04-25T09:39:22.715Z</time></trkpt><trkpt lat="39.34084149063273" lon="16.45075876004244"><ele>1260.0</ele><time>2026-04-25T09:39:23.715Z</time></trkpt><trkpt lat="39.34078360456062" lon="16.450683930223914"><ele>1261.0</ele><time>2026-04-25T09:39:24.715Z</time></trkpt><trkpt lat="39.34075208322926" lon="16.450508207588385"><ele>1262.0</ele><time>2026-04-25T09:39:26.715Z</time></trkpt><trkpt lat="39.34073782066773" lon="16.450424932002907"><ele>1263.0</ele><time>2026-04-25T09:39:27.715Z</time></trkpt><trkpt lat="39.34071634700033" lon="16.450294816350915"><ele>1264.0</ele><time>2026-04-25T09:39:29.715Z</time></trkpt><trkpt lat="39.34057849378144" lon="16.45041061154313"><ele>1265.0</ele><time>2026-04-25T09:39:31.715Z</time></trkpt><trkpt lat="39.34052070562159" lon="16.450471249206394"><ele>1266.0</ele><time>2026-04-25T09:39:32.715Z</time></trkpt><trkpt lat="39.34046546065977" lon="16.45054474525518"><ele>1267.0</ele><time>2026-04-25T09:39:33.715Z</time></trkpt><trkpt lat="39.340408101693974" lon="16.450624636504344"><ele>1268.0</ele><time>2026-04-25T09:39:34.715Z</time></trkpt><trkpt lat="39.34036277793697" lon="16.450728871731254"><ele>1265.8</ele><time>2026-04-25T09:39:35.715Z</time></trkpt><trkpt lat="39.340313966483514" lon="16.450838921064598"><ele>1263.6</ele><time>2026-04-25T09:39:36.715Z</time></trkpt><trkpt lat="39.340261488245915" lon="16.450948663049473"><ele>1261.4</ele><time>2026-04-25T09:39:37.715Z</time></trkpt><trkpt lat="39.340188179665184" lon="16.45104766199323"><ele>1259.2</ele><time>2026-04-25T09:39:38.715Z</time></trkpt><trkpt lat="39.34012874209045" lon="16.451159584225703"><ele>1257.0</ele><time>2026-04-25T09:39:39.715Z</time></trkpt><trkpt lat="39.34007889154071" lon="16.45128592440642"><ele>1256.5</ele><time>2026-04-25T09:39:40.715Z</time></trkpt><trkpt lat="39.3400149028734" lon="16.45140585089924"><ele>1256.0</ele><time>2026-04-25T09:39:41.715Z</time></trkpt><trkpt lat="39.33993722309806" lon="16.451549198700523"><ele>1255.5</ele><time>2026-04-25T09:39:42.715Z</time></trkpt><trkpt lat="39.33985050441069" lon="16.451707338621052"><ele>1255.0</ele><time>2026-04-25T09:39:43.715Z</time></trkpt><trkpt lat="39.33974959724833" lon="16.45188943004377"><ele>1263.6666666666665</ele><time>2026-04-25T09:39:44.715Z</time></trkpt><trkpt lat="39.33964006785543" lon="16.4520857799906"><ele>1272.3333333333333</ele><time>2026-04-25T09:39:45.715Z</time></trkpt><trkpt lat="39.33954320488347" lon="16.45226035962157"><ele>1281.0</ele><time>2026-04-25T09:39:46.715Z</time></trkpt><trkpt lat="39.339455382534574" lon="16.452416779452715"><ele>1281.0</ele><time>2026-04-25T09:39:47.715Z</time></trkpt><trkpt lat="39.339373293264934" lon="16.45254470417822"><ele>1281.0</ele><time>2026-04-25T09:39:48.715Z</time></trkpt><trkpt lat="39.33929730626078" lon="16.45264845650809"><ele>1281.0</ele><time>2026-04-25T09:39:49.715Z</time></trkpt><trkpt lat="39.339209828962446" lon="16.452699829198203"><ele>1281.0</ele><time>2026-04-25T09:39:50.715Z</time></trkpt><trkpt lat="39.33910407053376" lon="16.452725851019117"><ele>1281.0</ele><time>2026-04-25T09:39:51.715Z</time></trkpt><trkpt lat="39.3389905114162" lon="16.452714339799627"><ele>1286.25</ele><time>2026-04-25T09:39:52.715Z</time></trkpt><trkpt lat="39.33886801876929" lon="16.452674420036175"><ele>1291.5</ele><time>2026-04-25T09:39:53.715Z</time></trkpt><trkpt lat="39.33875921721606" lon="16.45263486063243"><ele>1296.75</ele><time>2026-04-25T09:39:54.715Z</time></trkpt><trkpt lat="39.3386431341037" lon="16.45260455357915"><ele>1302.0</ele><time>2026-04-25T09:39:55.715Z</time></trkpt><trkpt lat="39.338536963025376" lon="16.452587859012926"><ele>1302.0</ele><time>2026-04-25T09:39:56.715Z</time></trkpt><trkpt lat="39.33843915864912" lon="16.452606176010715"><ele>1302.0</ele><time>2026-04-25T09:39:57.715Z</time></trkpt><trkpt lat="39.33833689815553" lon="16.45266388491306"><ele>1302.0</ele><time>2026-04-25T09:39:58.715Z</time></trkpt><trkpt lat="39.3382549804048" lon="16.452739173340476"><ele>1302.0</ele><time>2026-04-25T09:39:59.715Z</time></trkpt><trkpt lat="39.338163384794186" lon="16.452811265284065"><ele>1302.0</ele><time>2026-04-25T09:40:00.715Z</time></trkpt><trkpt lat="39.338095002057045" lon="16.45290564430317"><ele>1301.0</ele><time>2026-04-25T09:40:01.715Z</time></trkpt><trkpt lat="39.33803620481069" lon="16.453016169687228"><ele>1300.0</ele><time>2026-04-25T09:40:02.715Z</time></trkpt><trkpt lat="39.33800088387315" lon="16.453109832177432"><ele>1299.0</ele><time>2026-04-25T09:40:03.715Z</time></trkpt><trkpt lat="39.33798740981502" lon="16.45330327180064"><ele>1298.0</ele><time>2026-04-25T09:40:04.715Z</time></trkpt><trkpt lat="39.33801268988027" lon="16.453438032977623"><ele>1297.0</ele><time>2026-04-25T09:40:05.715Z</time></trkpt><trkpt lat="39.33806374157549" lon="16.45356928319813"><ele>1295.1666666666665</ele><time>2026-04-25T09:40:06.715Z</time></trkpt><trkpt lat="39.338122877736794" lon="16.453677659665924"><ele>1293.3333333333333</ele><time>2026-04-25T09:40:07.715Z</time></trkpt><trkpt lat="39.33816918983322" lon="16.453754544782942"><ele>1291.5</ele><time>2026-04-25T09:40:08.715Z</time></trkpt><trkpt lat="39.33820252620233" lon="16.453828462561756"><ele>1289.6666666666667</ele><time>2026-04-25T09:40:09.715Z</time></trkpt><trkpt lat="39.33823503652724" lon="16.453962893678455"><ele>1287.8333333333335</ele><time>2026-04-25T09:40:11.715Z</time></trkpt><trkpt lat="39.33828767153678" lon="16.45406730747644"><ele>1286.0</ele><time>2026-04-25T09:40:13.715Z</time></trkpt><trkpt lat="39.33849812995424" lon="16.453977886374194"><ele>1286.0</ele><time>2026-04-25T09:40:14.715Z</time></trkpt><trkpt lat="39.338597986597044" lon="16.453958001739686"><ele>1286.0</ele><time>2026-04-25T09:40:15.715Z</time></trkpt><trkpt lat="39.33868769304875" lon="16.453961543534856"><ele>1286.0</ele><time>2026-04-25T09:40:16.715Z</time></trkpt><trkpt lat="39.338754953356975" lon="16.45399978691532"><ele>1286.0</ele><time>2026-04-25T09:40:17.715Z</time></trkpt><trkpt lat="39.338787187458514" lon="16.45408834543298"><ele>1286.0</ele><time>2026-04-25T09:40:18.715Z</time></trkpt><trkpt lat="39.33880330939799" lon="16.45417285759568"><ele>1286.0</ele><time>2026-04-25T09:40:19.715Z</time></trkpt><trkpt lat="39.338786448167305" lon="16.45427478444494"><ele>1286.0</ele><time>2026-04-25T09:40:20.715Z</time></trkpt><trkpt lat="39.33880230415113" lon="16.45439075342645"><ele>1286.0</ele><time>2026-04-25T09:40:21.715Z</time></trkpt><trkpt lat="39.338810636614355" lon="16.454538542577534"><ele>1286.0</ele><time>2026-04-25T09:40:22.715Z</time></trkpt><trkpt lat="39.33875984595981" lon="16.454711544147024"><ele>1286.0</ele><time>2026-04-25T09:40:23.715Z</time></trkpt><trkpt lat="39.3387373393344" lon="16.454899207437254"><ele>1288.0</ele><time>2026-04-25T09:40:24.715Z</time></trkpt><trkpt lat="39.33871210384797" lon="16.455108891584075"><ele>1290.0</ele><time>2026-04-25T09:40:25.715Z</time></trkpt><trkpt lat="39.338678817647114" lon="16.45538332479173"><ele>1292.0</ele><time>2026-04-25T09:40:26.715Z</time></trkpt><trkpt lat="39.33864382777212" lon="16.455671806719117"><ele>1292.0</ele><time>2026-04-25T09:40:27.715Z</time></trkpt><trkpt lat="39.338606403767336" lon="16.455989445629083"><ele>1292.0</ele><time>2026-04-25T09:40:28.715Z</time></trkpt><trkpt lat="39.33856708855295" lon="16.4563211467031"><ele>1291.3333333333335</ele><time>2026-04-25T09:40:29.715Z</time></trkpt><trkpt lat="39.33854256435258" lon="16.45660402540793"><ele>1290.6666666666667</ele><time>2026-04-25T09:40:30.715Z</time></trkpt><trkpt lat="39.338510826396956" lon="16.456859123398516"><ele>1290.0</ele><time>2026-04-25T09:40:31.715Z</time></trkpt><trkpt lat="39.33848062048905" lon="16.457134927422018"><ele>1290.0</ele><time>2026-04-25T09:40:32.715Z</time></trkpt><trkpt lat="39.33844448813115" lon="16.45742846255482"><ele>1290.0</ele><time>2026-04-25T09:40:33.715Z</time></trkpt><trkpt lat="39.33837898473654" lon="16.457682898825837"><ele>1290.0</ele><time>2026-04-25T09:40:34.715Z</time></trkpt><trkpt lat="39.33831235703336" lon="16.457912404416323"><ele>1290.0</ele><time>2026-04-25T09:40:35.715Z</time></trkpt><trkpt lat="39.33823252563151" lon="16.458135249646016"><ele>1290.0</ele><time>2026-04-25T09:40:36.715Z</time></trkpt><trkpt lat="39.338134596249795" lon="16.45835875003587"><ele>1290.0</ele><time>2026-04-25T09:40:37.715Z</time></trkpt><trkpt lat="39.338018825109785" lon="16.458568101654354"><ele>1289.0</ele><time>2026-04-25T09:40:38.715Z</time></trkpt><trkpt lat="39.33789530544038" lon="16.458754030337186"><ele>1288.0</ele><time>2026-04-25T09:40:39.715Z</time></trkpt><trkpt lat="39.3377636856429" lon="16.458922646204964"><ele>1287.0</ele><time>2026-04-25T09:40:40.715Z</time></trkpt><trkpt lat="39.33762336884657" lon="16.459077469399823"><ele>1287.0</ele><time>2026-04-25T09:40:41.715Z</time></trkpt><trkpt lat="39.33748215493045" lon="16.45923235966479"><ele>1287.0</ele><time>2026-04-25T09:40:42.715Z</time></trkpt><trkpt lat="39.33731402358818" lon="16.459332576761557"><ele>1287.0</ele><time>2026-04-25T09:40:43.715Z</time></trkpt><trkpt lat="39.33713963661502" lon="16.459443476011113"><ele>1289.3333333333333</ele><time>2026-04-25T09:40:44.715Z</time></trkpt><trkpt lat="39.33696113678173" lon="16.459561805572324"><ele>1291.6666666666665</ele><time>2026-04-25T09:40:45.715Z</time></trkpt><trkpt lat="39.33676399040636" lon="16.459664130464734"><ele>1294.0</ele><time>2026-04-25T09:40:46.715Z</time></trkpt><trkpt lat="39.33656510640154" lon="16.45977109225606"><ele>1296.3333333333333</ele><time>2026-04-25T09:40:47.715Z</time></trkpt><trkpt lat="39.33636604900107" lon="16.459884592441824"><ele>1298.6666666666667</ele><time>2026-04-25T09:40:48.715Z</time></trkpt><trkpt lat="39.336178692143406" lon="16.45999419236255"><ele>1301.0</ele><time>2026-04-25T09:40:49.715Z</time></trkpt><trkpt lat="39.33599562787376" lon="16.460101831761904"><ele>1301.0</ele><time>2026-04-25T09:40:50.715Z</time></trkpt><trkpt lat="39.33582596657742" lon="16.460202303009662"><ele>1301.0</ele><time>2026-04-25T09:40:51.715Z</time></trkpt><trkpt lat="39.33566710920065" lon="16.460300741741378"><ele>1301.0</ele><time>2026-04-25T09:40:52.715Z</time></trkpt><trkpt lat="39.33550097222438" lon="16.46041172187993"><ele>1303.6666666666667</ele><time>2026-04-25T09:40:53.715Z</time></trkpt><trkpt lat="39.33533685580939" lon="16.46052408781128"><ele>1306.3333333333333</ele><time>2026-04-25T09:40:54.715Z</time></trkpt><trkpt lat="39.33518347086105" lon="16.460653992392395"><ele>1309.0</ele><time>2026-04-25T09:40:55.715Z</time></trkpt><trkpt lat="39.335044340963286" lon="16.460802202517197"><ele>1309.0</ele><time>2026-04-25T09:40:56.715Z</time></trkpt><trkpt lat="39.33490603399786" lon="16.46095910933"><ele>1309.0</ele><time>2026-04-25T09:40:57.715Z</time></trkpt><trkpt lat="39.334762838982805" lon="16.46113122640358"><ele>1309.0</ele><time>2026-04-25T09:40:58.715Z</time></trkpt><trkpt lat="39.334617759890214" lon="16.461327482225713"><ele>1310.6666666666665</ele><time>2026-04-25T09:40:59.715Z</time></trkpt><trkpt lat="39.33448354763207" lon="16.46154121690984"><ele>1312.3333333333333</ele><time>2026-04-25T09:41:00.715Z</time></trkpt><trkpt lat="39.33436614002341" lon="16.461758341539273"><ele>1314.0</ele><time>2026-04-25T09:41:01.715Z</time></trkpt><trkpt lat="39.33425538964965" lon="16.46198060655559"><ele>1313.6666666666667</ele><time>2026-04-25T09:41:02.715Z</time></trkpt><trkpt lat="39.33414644361288" lon="16.462219469817764"><ele>1313.3333333333335</ele><time>2026-04-25T09:41:03.715Z</time></trkpt><trkpt lat="39.334052636099855" lon="16.462455595995166"><ele>1313.0</ele><time>2026-04-25T09:41:04.715Z</time></trkpt><trkpt lat="39.333968102391154" lon="16.462709778781647"><ele>1313.0</ele><time>2026-04-25T09:41:05.715Z</time></trkpt><trkpt lat="39.333900779380976" lon="16.46295911901776"><ele>1313.0</ele><time>2026-04-25T09:41:06.715Z</time></trkpt><trkpt lat="39.33383794401385" lon="16.46322019470849"><ele>1313.0</ele><time>2026-04-25T09:41:07.715Z</time></trkpt><trkpt lat="39.33378724737455" lon="16.463473645142116"><ele>1318.6666666666667</ele><time>2026-04-25T09:41:08.715Z</time></trkpt><trkpt lat="39.33375497400306" lon="16.46372401979313"><ele>1324.3333333333333</ele><time>2026-04-25T09:41:09.715Z</time></trkpt><trkpt lat="39.333731275267255" lon="16.46398006603481"><ele>1330.0</ele><time>2026-04-25T09:41:10.715Z</time></trkpt><trkpt lat="39.33371941169992" lon="16.46424012226612"><ele>1330.0</ele><time>2026-04-25T09:41:11.715Z</time></trkpt><trkpt lat="39.333718383524456" lon="16.464498777875693"><ele>1330.0</ele><time>2026-04-25T09:41:12.715Z</time></trkpt><trkpt lat="39.33372823151076" lon="16.464765160139088"><ele>1330.0</ele><time>2026-04-25T09:41:13.715Z</time></trkpt><trkpt lat="39.33374257474258" lon="16.465037710198207"><ele>1330.6666666666665</ele><time>2026-04-25T09:41:14.715Z</time></trkpt><trkpt lat="39.33376135905736" lon="16.465317935946175"><ele>1331.3333333333333</ele><time>2026-04-25T09:41:15.715Z</time></trkpt><trkpt lat="39.33377600249247" lon="16.46559472659998"><ele>1332.0</ele><time>2026-04-25T09:41:16.715Z</time></trkpt><trkpt lat="39.33379278499001" lon="16.465876149519826"><ele>1333.0</ele><time>2026-04-25T09:41:17.715Z</time></trkpt><trkpt lat="39.33380774411586" lon="16.46616012556244"><ele>1334.0</ele><time>2026-04-25T09:41:18.715Z</time></trkpt><trkpt lat="39.33382367324158" lon="16.46644454971562"><ele>1335.0</ele><time>2026-04-25T09:41:19.715Z</time></trkpt><trkpt lat="39.33384366399646" lon="16.466729923714375"><ele>1338.3333333333333</ele><time>2026-04-25T09:41:20.715Z</time></trkpt><trkpt lat="39.333849540827906" lon="16.467019254269466"><ele>1341.6666666666665</ele><time>2026-04-25T09:41:21.715Z</time></trkpt><trkpt lat="39.333867568619205" lon="16.46730787642084"><ele>1345.0</ele><time>2026-04-25T09:41:22.715Z</time></trkpt><trkpt lat="39.33388584001997" lon="16.467604005693936"><ele>1337.5</ele><time>2026-04-25T09:41:23.715Z</time></trkpt><trkpt lat="39.33390446882768" lon="16.467905927377867"><ele>1330.0</ele><time>2026-04-25T09:41:24.714Z</time></trkpt><trkpt lat="39.33392206233408" lon="16.46819106974859"><ele>1330.0</ele><time>2026-04-25T09:41:25.714Z</time></trkpt><trkpt lat="39.333939555242125" lon="16.46847458174731"><ele>1330.0</ele><time>2026-04-25T09:41:26.714Z</time></trkpt><trkpt lat="39.33395696584092" lon="16.468756767941528"><ele>1330.0</ele><time>2026-04-25T09:41:27.714Z</time></trkpt><trkpt lat="39.333974580252224" lon="16.469042258558616"><ele>1330.3333333333333</ele><time>2026-04-25T09:41:28.714Z</time></trkpt><trkpt lat="39.33401268367735" lon="16.46932073099782"><ele>1330.6666666666667</ele><time>2026-04-25T09:41:29.714Z</time></trkpt><trkpt lat="39.33403070994995" lon="16.469603090155612"><ele>1331.0</ele><time>2026-04-25T09:41:30.714Z</time></trkpt><trkpt lat="39.33404538251414" lon="16.469882491467953"><ele>1331.0</ele><time>2026-04-25T09:41:31.714Z</time></trkpt><trkpt lat="39.33406143612161" lon="16.470155070138176"><ele>1331.0</ele><time>2026-04-25T09:41:32.714Z</time></trkpt><trkpt lat="39.334080301756934" lon="16.470425858461454"><ele>1331.0</ele><time>2026-04-25T09:41:33.714Z</time></trkpt><trkpt lat="39.33409587610084" lon="16.470704735698316"><ele>1328.0</ele><time>2026-04-25T09:41:34.714Z</time></trkpt><trkpt lat="39.33411719678294" lon="16.470998028749406"><ele>1325.0</ele><time>2026-04-25T09:41:35.714Z</time></trkpt><trkpt lat="39.33414189687323" lon="16.471299956108616"><ele>1325.0</ele><time>2026-04-25T09:41:36.714Z</time></trkpt><trkpt lat="39.33417651814349" lon="16.471656071871806"><ele>1325.0</ele><time>2026-04-25T09:41:37.714Z</time></trkpt><trkpt lat="39.33420409166772" lon="16.47204681035689"><ele>1330.5</ele><time>2026-04-25T09:41:38.714Z</time></trkpt><trkpt lat="39.33421571336982" lon="16.472454362744237"><ele>1336.0</ele><time>2026-04-25T09:41:39.714Z</time></trkpt><trkpt lat="39.33422738004108" lon="16.47288162013843"><ele>1342.0</ele><time>2026-04-25T09:41:40.714Z</time></trkpt><trkpt lat="39.33424997832792" lon="16.47331138061091"><ele>1348.0</ele><time>2026-04-25T09:41:41.714Z</time></trkpt><trkpt lat="39.3342835877562" lon="16.47374748881867"><ele>1351.0</ele><time>2026-04-25T09:41:42.714Z</time></trkpt><trkpt lat="39.33431224174989" lon="16.474139154752375"><ele>1354.0</ele><time>2026-04-25T09:41:43.714Z</time></trkpt><trkpt lat="39.33433752551342" lon="16.474502143295066"><ele>1353.0</ele><time>2026-04-25T09:41:44.714Z</time></trkpt><trkpt lat="39.33435782006207" lon="16.47487032646438"><ele>1352.0</ele><time>2026-04-25T09:41:45.714Z</time></trkpt><trkpt lat="39.334370856385085" lon="16.47522680419499"><ele>1349.5</ele><time>2026-04-25T09:41:46.714Z</time></trkpt><trkpt lat="39.33436866479786" lon="16.47555921330994"><ele>1347.0</ele><time>2026-04-25T09:41:47.714Z</time></trkpt><trkpt lat="39.334344205206676" lon="16.47586323495256"><ele>1347.0</ele><time>2026-04-25T09:41:48.714Z</time></trkpt><trkpt lat="39.33429658141248" lon="16.476152341642237"><ele>1347.0</ele><time>2026-04-25T09:41:49.714Z</time></trkpt><trkpt lat="39.33422713141941" lon="16.476446837594477"><ele>1342.5</ele><time>2026-04-25T09:41:50.714Z</time></trkpt><trkpt lat="39.334135428202025" lon="16.47673914003595"><ele>1338.0</ele><time>2026-04-25T09:41:51.714Z</time></trkpt><trkpt lat="39.334019610283704" lon="16.477031884882706"><ele>1341.5</ele><time>2026-04-25T09:41:52.714Z</time></trkpt><trkpt lat="39.3338853315973" lon="16.477314942733987"><ele>1345.0</ele><time>2026-04-25T09:41:53.714Z</time></trkpt><trkpt lat="39.33372716528899" lon="16.477575074824717"><ele>1345.0</ele><time>2026-04-25T09:41:54.714Z</time></trkpt><trkpt lat="39.333551428735646" lon="16.47781438180243"><ele>1345.0</ele><time>2026-04-25T09:41:55.714Z</time></trkpt><trkpt lat="39.33335572846351" lon="16.478029920312665"><ele>1344.5</ele><time>2026-04-25T09:41:56.714Z</time></trkpt><trkpt lat="39.33314103582659" lon="16.478227332288473"><ele>1344.0</ele><time>2026-04-25T09:41:57.714Z</time></trkpt><trkpt lat="39.3329164943113" lon="16.478411690858138"><ele>1344.0</ele><time>2026-04-25T09:41:58.714Z</time></trkpt><trkpt lat="39.33269695548729" lon="16.478591750665103"><ele>1344.0</ele><time>2026-04-25T09:41:59.714Z</time></trkpt><trkpt lat="39.33249460321546" lon="16.478768358462208"><ele>1343.0</ele><time>2026-04-25T09:42:00.714Z</time></trkpt><trkpt lat="39.33229176457343" lon="16.478953277084035"><ele>1342.0</ele><time>2026-04-25T09:42:01.714Z</time></trkpt><trkpt lat="39.33208893869923" lon="16.47913568905281"><ele>1342.0</ele><time>2026-04-25T09:42:02.714Z</time></trkpt><trkpt lat="39.33188452689651" lon="16.479318266349047"><ele>1342.0</ele><time>2026-04-25T09:42:03.714Z</time></trkpt><trkpt lat="39.33167959106981" lon="16.47949335074325"><ele>1341.5</ele><time>2026-04-25T09:42:04.714Z</time></trkpt><trkpt lat="39.33147564341128" lon="16.479669109454395"><ele>1341.0</ele><time>2026-04-25T09:42:05.714Z</time></trkpt><trkpt lat="39.33126904383106" lon="16.479848019269138"><ele>1341.0</ele><time>2026-04-25T09:42:06.714Z</time></trkpt><trkpt lat="39.331064829798876" lon="16.48002586827782"><ele>1341.0</ele><time>2026-04-25T09:42:07.714Z</time></trkpt><trkpt lat="39.33085748133124" lon="16.48020451138206"><ele>1341.0</ele><time>2026-04-25T09:42:08.714Z</time></trkpt><trkpt lat="39.33064727823158" lon="16.48038403311985"><ele>1341.0</ele><time>2026-04-25T09:42:09.714Z</time></trkpt><trkpt lat="39.33043380197323" lon="16.480573462123232"><ele>1343.5</ele><time>2026-04-25T09:42:10.714Z</time></trkpt><trkpt lat="39.33022184450179" lon="16.480763158263382"><ele>1346.0</ele><time>2026-04-25T09:42:11.714Z</time></trkpt><trkpt lat="39.33002465067978" lon="16.480941101149895"><ele>1346.0</ele><time>2026-04-25T09:42:12.714Z</time></trkpt><trkpt lat="39.329833400222796" lon="16.48112356941102"><ele>1346.0</ele><time>2026-04-25T09:42:13.714Z</time></trkpt><trkpt lat="39.32965280374071" lon="16.48132921982216"><ele>1346.5</ele><time>2026-04-25T09:42:14.714Z</time></trkpt><trkpt lat="39.329484310604364" lon="16.481558591075867"><ele>1347.0</ele><time>2026-04-25T09:42:15.714Z</time></trkpt><trkpt lat="39.32932492982174" lon="16.48180741579377"><ele>1347.0</ele><time>2026-04-25T09:42:16.714Z</time></trkpt><trkpt lat="39.329177390759654" lon="16.48206976879356"><ele>1347.0</ele><time>2026-04-25T09:42:17.714Z</time></trkpt><trkpt lat="39.329041565625296" lon="16.48235127613766"><ele>1347.5</ele><time>2026-04-25T09:42:18.714Z</time></trkpt><trkpt lat="39.3289206295757" lon="16.482654064284013"><ele>1348.0</ele><time>2026-04-25T09:42:19.714Z</time></trkpt><trkpt lat="39.32881508468532" lon="16.482970969996163"><ele>1355.0</ele><time>2026-04-25T09:42:20.714Z</time></trkpt><trkpt lat="39.32873179600966" lon="16.48330363735956"><ele>1362.0</ele><time>2026-04-25T09:42:21.714Z</time></trkpt><trkpt lat="39.32866584925461" lon="16.48364974367245"><ele>1362.0</ele><time>2026-04-25T09:42:22.714Z</time></trkpt><trkpt lat="39.32861607277254" lon="16.484004369287298"><ele>1362.0</ele><time>2026-04-25T09:42:23.714Z</time></trkpt><trkpt lat="39.32859671633921" lon="16.484325347375115"><ele>1361.5</ele><time>2026-04-25T09:42:24.714Z</time></trkpt><trkpt lat="39.32859456204144" lon="16.484633574780318"><ele>1361.0</ele><time>2026-04-25T09:42:25.714Z</time></trkpt><trkpt lat="39.328581004295906" lon="16.48493220123102"><ele>1361.0</ele><time>2026-04-25T09:42:26.714Z</time></trkpt><trkpt lat="39.3285883296045" lon="16.48523912520505"><ele>1361.0</ele><time>2026-04-25T09:42:27.714Z</time></trkpt><trkpt lat="39.32859813013154" lon="16.485543449100195"><ele>1360.6666666666667</ele><time>2026-04-25T09:42:28.714Z</time></trkpt><trkpt lat="39.32860588140482" lon="16.485832109382685"><ele>1360.3333333333333</ele><time>2026-04-25T09:42:29.714Z</time></trkpt><trkpt lat="39.32860986487328" lon="16.48610240257928"><ele>1360.0</ele><time>2026-04-25T09:42:30.714Z</time></trkpt><trkpt lat="39.328610956359924" lon="16.486370853969078"><ele>1360.6666666666665</ele><time>2026-04-25T09:42:31.714Z</time></trkpt><trkpt lat="39.32862064362666" lon="16.486646156282315"><ele>1361.3333333333333</ele><time>2026-04-25T09:42:32.714Z</time></trkpt><trkpt lat="39.328645185069625" lon="16.48693001562053"><ele>1362.0</ele><time>2026-04-25T09:42:33.714Z</time></trkpt><trkpt lat="39.32867873044961" lon="16.48721509323598"><ele>1360.0</ele><time>2026-04-25T09:42:34.714Z</time></trkpt><trkpt lat="39.328718247480275" lon="16.487507513004374"><ele>1358.0</ele><time>2026-04-25T09:42:35.714Z</time></trkpt><trkpt lat="39.328764615465616" lon="16.48778791417534"><ele>1357.3333333333335</ele><time>2026-04-25T09:42:36.714Z</time></trkpt><trkpt lat="39.32881465032017" lon="16.48805323473839"><ele>1356.6666666666667</ele><time>2026-04-25T09:42:37.714Z</time></trkpt><trkpt lat="39.32886368765255" lon="16.48830720940052"><ele>1356.0</ele><time>2026-04-25T09:42:38.714Z</time></trkpt><trkpt lat="39.32890572967909" lon="16.488553970403252"><ele>1356.6666666666667</ele><time>2026-04-25T09:42:39.714Z</time></trkpt><trkpt lat="39.32894504086872" lon="16.488803827349127"><ele>1357.3333333333335</ele><time>2026-04-25T09:42:40.714Z</time></trkpt><trkpt lat="39.32898092243521" lon="16.489054420876627"><ele>1358.0</ele><time>2026-04-25T09:42:41.714Z</time></trkpt><trkpt lat="39.32900973323875" lon="16.489305265062654"><ele>1358.0</ele><time>2026-04-25T09:42:42.714Z</time></trkpt><trkpt lat="39.329032842872905" lon="16.489558269860037"><ele>1358.0</ele><time>2026-04-25T09:42:43.714Z</time></trkpt><trkpt lat="39.329051933677526" lon="16.489818212380577"><ele>1358.0</ele><time>2026-04-25T09:42:44.714Z</time></trkpt><trkpt lat="39.329066650623496" lon="16.490082323878806"><ele>1358.6666666666667</ele><time>2026-04-25T09:42:45.714Z</time></trkpt><trkpt lat="39.32907701105751" lon="16.490349769303975"><ele>1359.3333333333333</ele><time>2026-04-25T09:42:46.714Z</time></trkpt><trkpt lat="39.329085883702845" lon="16.49061891643739"><ele>1360.0</ele><time>2026-04-25T09:42:47.714Z</time></trkpt><trkpt lat="39.32909253410183" lon="16.490894237733578"><ele>1360.3333333333333</ele><time>2026-04-25T09:42:48.714Z</time></trkpt><trkpt lat="39.329098971213" lon="16.491170068163573"><ele>1360.6666666666667</ele><time>2026-04-25T09:42:49.714Z</time></trkpt><trkpt lat="39.32911117478493" lon="16.491448267464467"><ele>1361.0</ele><time>2026-04-25T09:42:50.714Z</time></trkpt><trkpt lat="39.32912536102154" lon="16.49173227352909"><ele>1358.0</ele><time>2026-04-25T09:42:51.714Z</time></trkpt><trkpt lat="39.32914233523344" lon="16.492036794044008"><ele>1355.0</ele><time>2026-04-25T09:42:52.714Z</time></trkpt><trkpt lat="39.32915613331696" lon="16.49234437592763"><ele>1355.0</ele><time>2026-04-25T09:42:53.714Z</time></trkpt><trkpt lat="39.32916832473182" lon="16.492649060618422"><ele>1355.0</ele><time>2026-04-25T09:42:54.714Z</time></trkpt><trkpt lat="39.32917776406602" lon="16.492942211633242"><ele>1353.6666666666667</ele><time>2026-04-25T09:42:55.714Z</time></trkpt><trkpt lat="39.3291840385162" lon="16.49321578577911"><ele>1352.3333333333333</ele><time>2026-04-25T09:42:56.714Z</time></trkpt><trkpt lat="39.32919246784137" lon="16.49347620690705"><ele>1351.0</ele><time>2026-04-25T09:42:57.714Z</time></trkpt><trkpt lat="39.32920079087935" lon="16.493734300279318"><ele>1350.6666666666665</ele><time>2026-04-25T09:42:58.714Z</time></trkpt><trkpt lat="39.329213856174995" lon="16.493998877289755"><ele>1350.3333333333333</ele><time>2026-04-25T09:42:59.714Z</time></trkpt><trkpt lat="39.3292238257253" lon="16.494263247848473"><ele>1350.0</ele><time>2026-04-25T09:43:00.714Z</time></trkpt><trkpt lat="39.32923361715826" lon="16.494529253235804"><ele>1350.0</ele><time>2026-04-25T09:43:01.714Z</time></trkpt><trkpt lat="39.32924465125519" lon="16.49480061786208"><ele>1350.0</ele><time>2026-04-25T09:43:02.714Z</time></trkpt><trkpt lat="39.32925588674464" lon="16.49507406500815"><ele>1350.0</ele><time>2026-04-25T09:43:03.714Z</time></trkpt><trkpt lat="39.32926719559356" lon="16.495356376926818"><ele>1350.0</ele><time>2026-04-25T09:43:04.714Z</time></trkpt><trkpt lat="39.329279454943666" lon="16.495644969154377"><ele>1350.0</ele><time>2026-04-25T09:43:05.714Z</time></trkpt><trkpt lat="39.32929131020264" lon="16.49592190735114"><ele>1350.0</ele><time>2026-04-25T09:43:06.714Z</time></trkpt><trkpt lat="39.32929968442156" lon="16.496194445062308"><ele>1349.0</ele><time>2026-04-25T09:43:07.714Z</time></trkpt><trkpt lat="39.32929999583899" lon="16.49646984334874"><ele>1348.0</ele><time>2026-04-25T09:43:08.714Z</time></trkpt><trkpt lat="39.329286189402794" lon="16.496753912960195"><ele>1347.0</ele><time>2026-04-25T09:43:09.714Z</time></trkpt><trkpt lat="39.32925927259501" lon="16.497039924148826"><ele>1346.3333333333333</ele><time>2026-04-25T09:43:10.714Z</time></trkpt><trkpt lat="39.32921435716005" lon="16.497323843241805"><ele>1345.6666666666665</ele><time>2026-04-25T09:43:11.714Z</time></trkpt><trkpt lat="39.329158523913605" lon="16.497593279949704"><ele>1345.0</ele><time>2026-04-25T09:43:12.714Z</time></trkpt><trkpt lat="39.32908758209574" lon="16.497853573227953"><ele>1344.3333333333333</ele><time>2026-04-25T09:43:13.714Z</time></trkpt><trkpt lat="39.329005122934305" lon="16.498115284085294"><ele>1343.6666666666667</ele><time>2026-04-25T09:43:14.714Z</time></trkpt><trkpt lat="39.328911118045845" lon="16.498371212654725"><ele>1343.0</ele><time>2026-04-25T09:43:15.714Z</time></trkpt><trkpt lat="39.32880650167425" lon="16.498619361283843"><ele>1341.6666666666667</ele><time>2026-04-25T09:43:16.714Z</time></trkpt><trkpt lat="39.32869417224706" lon="16.49884829323918"><ele>1340.3333333333333</ele><time>2026-04-25T09:43:17.714Z</time></trkpt><trkpt lat="39.3285743053489" lon="16.49906279877278"><ele>1339.0</ele><time>2026-04-25T09:43:18.714Z</time></trkpt><trkpt lat="39.328445985115714" lon="16.4992626510302"><ele>1339.0</ele><time>2026-04-25T09:43:19.714Z</time></trkpt><trkpt lat="39.32831262209899" lon="16.499450004432216"><ele>1339.0</ele><time>2026-04-25T09:43:20.714Z</time></trkpt><trkpt lat="39.32817464369725" lon="16.49962446135579"><ele>1339.0</ele><time>2026-04-25T09:43:21.714Z</time></trkpt><trkpt lat="39.32803256110398" lon="16.499786668233543"><ele>1340.0</ele><time>2026-04-25T09:43:22.714Z</time></trkpt><trkpt lat="39.3278831689013" lon="16.49994339254324"><ele>1341.0</ele><time>2026-04-25T09:43:23.714Z</time></trkpt><trkpt lat="39.32772746971752" lon="16.500094563251576"><ele>1342.0</ele><time>2026-04-25T09:43:24.714Z</time></trkpt><trkpt lat="39.32755883217862" lon="16.50024607936041"><ele>1342.0</ele><time>2026-04-25T09:43:25.714Z</time></trkpt><trkpt lat="39.32738518357642" lon="16.500399829368856"><ele>1342.0</ele><time>2026-04-25T09:43:26.714Z</time></trkpt><trkpt lat="39.32720822437024" lon="16.5005571461105"><ele>1342.0</ele><time>2026-04-25T09:43:27.714Z</time></trkpt><trkpt lat="39.32702949951623" lon="16.500717908353927"><ele>1343.6666666666665</ele><time>2026-04-25T09:43:28.714Z</time></trkpt><trkpt lat="39.32684837334156" lon="16.500881568691355"><ele>1345.3333333333333</ele><time>2026-04-25T09:43:29.714Z</time></trkpt><trkpt lat="39.326677687726026" lon="16.501037550942943"><ele>1347.0</ele><time>2026-04-25T09:43:30.714Z</time></trkpt><trkpt lat="39.32651447456414" lon="16.501182492496234"><ele>1347.3333333333333</ele><time>2026-04-25T09:43:31.714Z</time></trkpt><trkpt lat="39.32635285330342" lon="16.501324034983543"><ele>1347.6666666666665</ele><time>2026-04-25T09:43:32.714Z</time></trkpt><trkpt lat="39.326189081415535" lon="16.501469230465858"><ele>1348.0</ele><time>2026-04-25T09:43:33.714Z</time></trkpt><trkpt lat="39.32602418741554" lon="16.501615399579904"><ele>1348.0</ele><time>2026-04-25T09:43:34.714Z</time></trkpt><trkpt lat="39.3258609147144" lon="16.501758005980864"><ele>1348.0</ele><time>2026-04-25T09:43:35.714Z</time></trkpt><trkpt lat="39.32569895151313" lon="16.501901960958953"><ele>1348.0</ele><time>2026-04-25T09:43:36.714Z</time></trkpt><trkpt lat="39.32553974802521" lon="16.50204663887772"><ele>1350.0</ele><time>2026-04-25T09:43:37.714Z</time></trkpt><trkpt lat="39.32537555030054" lon="16.50219384770869"><ele>1352.0</ele><time>2026-04-25T09:43:38.714Z</time></trkpt><trkpt lat="39.32521210541245" lon="16.50234129937855"><ele>1354.0</ele><time>2026-04-25T09:43:39.714Z</time></trkpt><trkpt lat="39.32504323919883" lon="16.50249223488833"><ele>1354.0</ele><time>2026-04-25T09:43:40.714Z</time></trkpt><trkpt lat="39.32487199258799" lon="16.502647044992422"><ele>1354.0</ele><time>2026-04-25T09:43:41.714Z</time></trkpt><trkpt lat="39.324699235526346" lon="16.502800923951792"><ele>1354.0</ele><time>2026-04-25T09:43:42.714Z</time></trkpt><trkpt lat="39.32452628146709" lon="16.502955958036182"><ele>1354.6666666666665</ele><time>2026-04-25T09:43:43.714Z</time></trkpt><trkpt lat="39.3243531490897" lon="16.50311253525102"><ele>1355.3333333333333</ele><time>2026-04-25T09:43:44.714Z</time></trkpt><trkpt lat="39.32418043157164" lon="16.503268355266737"><ele>1356.0</ele><time>2026-04-25T09:43:45.714Z</time></trkpt><trkpt lat="39.3240074604171" lon="16.50342553928784"><ele>1355.3333333333333</ele><time>2026-04-25T09:43:46.714Z</time></trkpt><trkpt lat="39.323835725312975" lon="16.50358168051776"><ele>1354.6666666666665</ele><time>2026-04-25T09:43:47.714Z</time></trkpt><trkpt lat="39.32366409698568" lon="16.50373877295407"><ele>1354.0</ele><time>2026-04-25T09:43:48.714Z</time></trkpt><trkpt lat="39.323489671141544" lon="16.503892404310545"><ele>1354.0</ele><time>2026-04-25T09:43:49.714Z</time></trkpt><trkpt lat="39.32331545217468" lon="16.50404722152404"><ele>1354.0</ele><time>2026-04-25T09:43:50.714Z</time></trkpt><trkpt lat="39.3231499989825" lon="16.50419442207416"><ele>1354.0</ele><time>2026-04-25T09:43:51.714Z</time></trkpt><trkpt lat="39.32299180379585" lon="16.504335868876705"><ele>1354.3333333333333</ele><time>2026-04-25T09:43:52.714Z</time></trkpt><trkpt lat="39.32283488863088" lon="16.504469863681795"><ele>1354.6666666666667</ele><time>2026-04-25T09:43:53.714Z</time></trkpt><trkpt lat="39.32267556726715" lon="16.50460624870492"><ele>1355.0</ele><time>2026-04-25T09:43:54.714Z</time></trkpt><trkpt lat="39.322515550540686" lon="16.504747132234463"><ele>1355.0</ele><time>2026-04-25T09:43:55.714Z</time></trkpt><trkpt lat="39.32235878243471" lon="16.504890210056853"><ele>1355.0</ele><time>2026-04-25T09:43:56.714Z</time></trkpt><trkpt lat="39.32221118445928" lon="16.505023560524098"><ele>1355.0</ele><time>2026-04-25T09:43:57.714Z</time></trkpt><trkpt lat="39.322062239071414" lon="16.505153881024743"><ele>1356.6666666666667</ele><time>2026-04-25T09:43:58.714Z</time></trkpt><trkpt lat="39.32191092848369" lon="16.50528961933674"><ele>1358.3333333333333</ele><time>2026-04-25T09:43:59.714Z</time></trkpt><trkpt lat="39.321757231813905" lon="16.50543525843283"><ele>1360.0</ele><time>2026-04-25T09:44:00.714Z</time></trkpt><trkpt lat="39.32160256195342" lon="16.505586721200853"><ele>1360.0</ele><time>2026-04-25T09:44:01.714Z</time></trkpt><trkpt lat="39.32145247356428" lon="16.505742111021476"><ele>1360.0</ele><time>2026-04-25T09:44:02.714Z</time></trkpt><trkpt lat="39.32130842120335" lon="16.505904631204263"><ele>1360.0</ele><time>2026-04-25T09:44:03.714Z</time></trkpt><trkpt lat="39.32116964471994" lon="16.506073131447494"><ele>1361.0</ele><time>2026-04-25T09:44:04.714Z</time></trkpt><trkpt lat="39.32103453246817" lon="16.506252899840756"><ele>1362.0</ele><time>2026-04-25T09:44:05.714Z</time></trkpt><trkpt lat="39.32090580777452" lon="16.506437080286126"><ele>1363.0</ele><time>2026-04-25T09:44:06.714Z</time></trkpt><trkpt lat="39.32077756748457" lon="16.506627587022372"><ele>1363.0</ele><time>2026-04-25T09:44:07.714Z</time></trkpt><trkpt lat="39.32065114456106" lon="16.506830202420698"><ele>1363.0</ele><time>2026-04-25T09:44:08.714Z</time></trkpt><trkpt lat="39.320527683984125" lon="16.50703980933139"><ele>1363.0</ele><time>2026-04-25T09:44:09.714Z</time></trkpt><trkpt lat="39.32040940192269" lon="16.50726406105719"><ele>1363.0</ele><time>2026-04-25T09:44:10.714Z</time></trkpt><trkpt lat="39.320304418160276" lon="16.50748630140093"><ele>1363.0</ele><time>2026-04-25T09:44:11.714Z</time></trkpt><trkpt lat="39.32021129847016" lon="16.507704170839137"><ele>1363.0</ele><time>2026-04-25T09:44:12.714Z</time></trkpt><trkpt lat="39.320124703803145" lon="16.507926293188138"><ele>1363.0</ele><time>2026-04-25T09:44:13.714Z</time></trkpt><trkpt lat="39.32003721027969" lon="16.508156119756457"><ele>1363.0</ele><time>2026-04-25T09:44:14.714Z</time></trkpt><trkpt lat="39.31994870021866" lon="16.508387549452344"><ele>1363.0</ele><time>2026-04-25T09:44:15.714Z</time></trkpt><trkpt lat="39.319878755138184" lon="16.508635310683747"><ele>1362.6666666666665</ele><time>2026-04-25T09:44:16.714Z</time></trkpt><trkpt lat="39.31981113074893" lon="16.50889479352433"><ele>1362.3333333333333</ele><time>2026-04-25T09:44:17.714Z</time></trkpt><trkpt lat="39.31975339492218" lon="16.509161046399054"><ele>1362.0</ele><time>2026-04-25T09:44:18.714Z</time></trkpt><trkpt lat="39.319699208855454" lon="16.50943081546019"><ele>1360.3333333333333</ele><time>2026-04-25T09:44:19.714Z</time></trkpt><trkpt lat="39.31965400501549" lon="16.509709998298415"><ele>1358.6666666666665</ele><time>2026-04-25T09:44:20.714Z</time></trkpt><trkpt lat="39.31961764991143" lon="16.50998561557438"><ele>1357.0</ele><time>2026-04-25T09:44:21.714Z</time></trkpt><trkpt lat="39.31958888692787" lon="16.510250185678398"><ele>1357.0</ele><time>2026-04-25T09:44:22.714Z</time></trkpt><trkpt lat="39.31956536492401" lon="16.510516227052833"><ele>1357.0</ele><time>2026-04-25T09:44:23.714Z</time></trkpt><trkpt lat="39.31955013431785" lon="16.510780056594285"><ele>1357.0</ele><time>2026-04-25T09:44:24.714Z</time></trkpt><trkpt lat="39.31954161571683" lon="16.511046860532964"><ele>1355.6666666666665</ele><time>2026-04-25T09:44:25.714Z</time></trkpt><trkpt lat="39.31952999747172" lon="16.51130055062736"><ele>1354.3333333333333</ele><time>2026-04-25T09:44:26.714Z</time></trkpt><trkpt lat="39.319518830420776" lon="16.511545590327298"><ele>1353.0</ele><time>2026-04-25T09:44:27.714Z</time></trkpt><trkpt lat="39.31950849299039" lon="16.51179906151242"><ele>1353.0</ele><time>2026-04-25T09:44:28.713Z</time></trkpt><trkpt lat="39.31949872331039" lon="16.51204540695824"><ele>1353.0</ele><time>2026-04-25T09:44:29.713Z</time></trkpt><trkpt lat="39.3194868590607" lon="16.512293908156952"><ele>1353.0</ele><time>2026-04-25T09:44:30.713Z</time></trkpt><trkpt lat="39.31947556715351" lon="16.512550846311633"><ele>1353.0</ele><time>2026-04-25T09:44:31.713Z</time></trkpt><trkpt lat="39.31946557077593" lon="16.512818160734728"><ele>1353.0</ele><time>2026-04-25T09:44:32.713Z</time></trkpt><trkpt lat="39.31945812860624" lon="16.513098375498657"><ele>1353.0</ele><time>2026-04-25T09:44:33.713Z</time></trkpt><trkpt lat="39.31945007022543" lon="16.513391412913883"><ele>1353.5</ele><time>2026-04-25T09:44:34.713Z</time></trkpt><trkpt lat="39.319441353313195" lon="16.513693799077586"><ele>1354.0</ele><time>2026-04-25T09:44:35.713Z</time></trkpt><trkpt lat="39.31943059571588" lon="16.514004776502148"><ele>1353.0</ele><time>2026-04-25T09:44:36.713Z</time></trkpt><trkpt lat="39.3194188373358" lon="16.514317259429493"><ele>1352.0</ele><time>2026-04-25T09:44:37.713Z</time></trkpt><trkpt lat="39.31940759158949" lon="16.514627395463783"><ele>1352.0</ele><time>2026-04-25T09:44:38.713Z</time></trkpt><trkpt lat="39.31939359253434" lon="16.51493642667536"><ele>1352.0</ele><time>2026-04-25T09:44:39.713Z</time></trkpt><trkpt lat="39.31937893211401" lon="16.515242423048512"><ele>1352.0</ele><time>2026-04-25T09:44:40.713Z</time></trkpt><trkpt lat="39.319362681409864" lon="16.515531300455073"><ele>1352.0</ele><time>2026-04-25T09:44:41.713Z</time></trkpt><trkpt lat="39.31934635368313" lon="16.51580823696929"><ele>1352.0</ele><time>2026-04-25T09:44:42.713Z</time></trkpt><trkpt lat="39.31933406695859" lon="16.51608477662194"><ele>1351.6666666666667</ele><time>2026-04-25T09:44:43.713Z</time></trkpt><trkpt lat="39.31932329819503" lon="16.516364635787095"><ele>1351.3333333333333</ele><time>2026-04-25T09:44:44.713Z</time></trkpt><trkpt lat="39.31931491889899" lon="16.51664530767381"><ele>1351.0</ele><time>2026-04-25T09:44:45.713Z</time></trkpt><trkpt lat="39.31930702764481" lon="16.51692672344949"><ele>1350.0</ele><time>2026-04-25T09:44:46.713Z</time></trkpt><trkpt lat="39.3192977609074" lon="16.517209084738482"><ele>1349.0</ele><time>2026-04-25T09:44:47.713Z</time></trkpt><trkpt lat="39.31928576874941" lon="16.51749854113572"><ele>1348.0</ele><time>2026-04-25T09:44:48.713Z</time></trkpt><trkpt lat="39.31927126360837" lon="16.51779096853814"><ele>1347.0</ele><time>2026-04-25T09:44:49.713Z</time></trkpt><trkpt lat="39.31925887457445" lon="16.518087370071154"><ele>1346.0</ele><time>2026-04-25T09:44:50.714Z</time></trkpt><trkpt lat="39.31924772817768" lon="16.518383561446083"><ele>1346.0</ele><time>2026-04-25T09:44:51.714Z</time></trkpt><trkpt lat="39.31923876823214" lon="16.51868609450597"><ele>1346.0</ele><time>2026-04-25T09:44:52.714Z</time></trkpt><trkpt lat="39.31922758909549" lon="16.518979326865363"><ele>1345.3333333333335</ele><time>2026-04-25T09:44:53.714Z</time></trkpt><trkpt lat="39.319216492404415" lon="16.519263934114857"><ele>1344.6666666666667</ele><time>2026-04-25T09:44:54.714Z</time></trkpt><trkpt lat="39.31920363064352" lon="16.51955239351872"><ele>1344.0</ele><time>2026-04-25T09:44:55.714Z</time></trkpt><trkpt lat="39.31919349892436" lon="16.519846197079616"><ele>1343.0</ele><time>2026-04-25T09:44:56.714Z</time></trkpt><trkpt lat="39.31918872075446" lon="16.520141666671655"><ele>1342.0</ele><time>2026-04-25T09:44:57.714Z</time></trkpt><trkpt lat="39.31918832697042" lon="16.520439360968247"><ele>1341.3333333333333</ele><time>2026-04-25T09:44:58.714Z</time></trkpt><trkpt lat="39.31919398745981" lon="16.52073168331167"><ele>1340.6666666666667</ele><time>2026-04-25T09:44:59.714Z</time></trkpt><trkpt lat="39.319208472080156" lon="16.521006610997407"><ele>1340.0</ele><time>2026-04-25T09:45:00.714Z</time></trkpt><trkpt lat="39.31923159989115" lon="16.521281670182574"><ele>1341.3333333333335</ele><time>2026-04-25T09:45:01.714Z</time></trkpt><trkpt lat="39.31925846054993" lon="16.521555936860295"><ele>1342.6666666666667</ele><time>2026-04-25T09:45:02.714Z</time></trkpt><trkpt lat="39.319286100191555" lon="16.52182939734318"><ele>1344.0</ele><time>2026-04-25T09:45:03.714Z</time></trkpt><trkpt lat="39.31931393296219" lon="16.522101858508037"><ele>1345.3333333333333</ele><time>2026-04-25T09:45:04.714Z</time></trkpt><trkpt lat="39.31932437258187" lon="16.522377969485092"><ele>1346.6666666666665</ele><time>2026-04-25T09:45:05.714Z</time></trkpt><trkpt lat="39.31935083688543" lon="16.522656696183127"><ele>1348.0</ele><time>2026-04-25T09:45:06.714Z</time></trkpt><trkpt lat="39.31939471907605" lon="16.522931433702272"><ele>1349.0</ele><time>2026-04-25T09:45:07.714Z</time></trkpt><trkpt lat="39.31941613407982" lon="16.523212276088614"><ele>1350.0</ele><time>2026-04-25T09:45:08.714Z</time></trkpt><trkpt lat="39.31943075706347" lon="16.52349551054552"><ele>1351.0</ele><time>2026-04-25T09:45:09.714Z</time></trkpt><trkpt lat="39.31943510406129" lon="16.523783533489507"><ele>1351.0</ele><time>2026-04-25T09:45:10.714Z</time></trkpt><trkpt lat="39.3194265974842" lon="16.52407316939465"><ele>1351.0</ele><time>2026-04-25T09:45:11.714Z</time></trkpt><trkpt lat="39.319407342255175" lon="16.52436163162489"><ele>1351.0</ele><time>2026-04-25T09:45:12.714Z</time></trkpt><trkpt lat="39.31937813101286" lon="16.524648022504778"><ele>1352.5</ele><time>2026-04-25T09:45:13.714Z</time></trkpt><trkpt lat="39.31934147693428" lon="16.524937828959015"><ele>1354.0</ele><time>2026-04-25T09:45:14.714Z</time></trkpt><trkpt lat="39.31929512706157" lon="16.525226049634337"><ele>1356.0</ele><time>2026-04-25T09:45:15.714Z</time></trkpt><trkpt lat="39.3192351095252" lon="16.525525962293077"><ele>1358.0</ele><time>2026-04-25T09:45:16.714Z</time></trkpt><trkpt lat="39.31915645329805" lon="16.525855835552125"><ele>1358.0</ele><time>2026-04-25T09:45:17.714Z</time></trkpt><trkpt lat="39.319049717640745" lon="16.526208509610967"><ele>1358.0</ele><time>2026-04-25T09:45:18.714Z</time></trkpt><trkpt lat="39.31893004716076" lon="16.526510137656697"><ele>1356.5</ele><time>2026-04-25T09:45:19.714Z</time></trkpt><trkpt lat="39.31881732746769" lon="16.526795210395445"><ele>1355.0</ele><time>2026-04-25T09:45:20.714Z</time></trkpt><trkpt lat="39.31869245449513" lon="16.527078303516053"><ele>1354.0</ele><time>2026-04-25T09:45:21.714Z</time></trkpt><trkpt lat="39.318556307631496" lon="16.5273528769927"><ele>1353.0</ele><time>2026-04-25T09:45:22.714Z</time></trkpt><trkpt lat="39.31840801241274" lon="16.52762377741365"><ele>1353.0</ele><time>2026-04-25T09:45:23.714Z</time></trkpt><trkpt lat="39.318251015709144" lon="16.52788727177565"><ele>1353.0</ele><time>2026-04-25T09:45:24.714Z</time></trkpt><trkpt lat="39.318099814549385" lon="16.52813931039087"><ele>1350.5</ele><time>2026-04-25T09:45:25.714Z</time></trkpt><trkpt lat="39.3179575763345" lon="16.52837148595389"><ele>1348.0</ele><time>2026-04-25T09:45:26.714Z</time></trkpt><trkpt lat="39.31781897905951" lon="16.528596526850606"><ele>1347.3333333333333</ele><time>2026-04-25T09:45:27.714Z</time></trkpt><trkpt lat="39.31767882106144" lon="16.528823599096548"><ele>1346.6666666666667</ele><time>2026-04-25T09:45:28.714Z</time></trkpt><trkpt lat="39.31754075415201" lon="16.529050591445134"><ele>1346.0</ele><time>2026-04-25T09:45:29.714Z</time></trkpt><trkpt lat="39.31740562427049" lon="16.52928070433205"><ele>1346.0</ele><time>2026-04-25T09:45:30.714Z</time></trkpt><trkpt lat="39.31727689588666" lon="16.52951123997776"><ele>1346.0</ele><time>2026-04-25T09:45:31.714Z</time></trkpt><trkpt lat="39.317147972745516" lon="16.529745137005683"><ele>1346.0</ele><time>2026-04-25T09:45:32.714Z</time></trkpt><trkpt lat="39.31702812290313" lon="16.52997644679172"><ele>1344.0</ele><time>2026-04-25T09:45:33.714Z</time></trkpt><trkpt lat="39.31692038250554" lon="16.530212321292854"><ele>1342.0</ele><time>2026-04-25T09:45:34.714Z</time></trkpt><trkpt lat="39.31681947868457" lon="16.530460622365975"><ele>1340.0</ele><time>2026-04-25T09:45:35.714Z</time></trkpt><trkpt lat="39.316727900302034" lon="16.53071314537804"><ele>1337.6666666666667</ele><time>2026-04-25T09:45:36.714Z</time></trkpt><trkpt lat="39.31664902424428" lon="16.5309718997078"><ele>1335.3333333333333</ele><time>2026-04-25T09:45:37.714Z</time></trkpt><trkpt lat="39.31658918533643" lon="16.53123744392661"><ele>1333.0</ele><time>2026-04-25T09:45:38.714Z</time></trkpt><trkpt lat="39.31654203120481" lon="16.531510657347464"><ele>1333.0</ele><time>2026-04-25T09:45:39.714Z</time></trkpt><trkpt lat="39.31650526385884" lon="16.5317894849612"><ele>1333.0</ele><time>2026-04-25T09:45:40.714Z</time></trkpt><trkpt lat="39.31648147554958" lon="16.532069344675985"><ele>1333.0</ele><time>2026-04-25T09:45:41.714Z</time></trkpt><trkpt lat="39.31647712677154" lon="16.53235309766049"><ele>1334.6666666666665</ele><time>2026-04-25T09:45:42.714Z</time></trkpt><trkpt lat="39.316483031877866" lon="16.53264065079372"><ele>1336.3333333333333</ele><time>2026-04-25T09:45:43.714Z</time></trkpt><trkpt lat="39.316495434727926" lon="16.53293348392365"><ele>1338.0</ele><time>2026-04-25T09:45:44.714Z</time></trkpt><trkpt lat="39.31652183241617" lon="16.533211456739146"><ele>1340.3333333333333</ele><time>2026-04-25T09:45:45.714Z</time></trkpt><trkpt lat="39.31655959685756" lon="16.533463583280714"><ele>1342.6666666666665</ele><time>2026-04-25T09:45:46.714Z</time></trkpt><trkpt lat="39.31660295104736" lon="16.5337142670869"><ele>1345.0</ele><time>2026-04-25T09:45:47.714Z</time></trkpt><trkpt lat="39.31666067441786" lon="16.533951969577803"><ele>1348.0</ele><time>2026-04-25T09:45:48.714Z</time></trkpt><trkpt lat="39.31674125785641" lon="16.534191892849673"><ele>1351.0</ele><time>2026-04-25T09:45:49.714Z</time></trkpt><trkpt lat="39.316837535274644" lon="16.534464779066017"><ele>1354.0</ele><time>2026-04-25T09:45:50.714Z</time></trkpt><trkpt lat="39.316929960460634" lon="16.534729701871598"><ele>1356.5</ele><time>2026-04-25T09:45:51.714Z</time></trkpt><trkpt lat="39.31703892703666" lon="16.535005083871077"><ele>1359.0</ele><time>2026-04-25T09:45:52.714Z</time></trkpt><trkpt lat="39.31716127298519" lon="16.535230923316128"><ele>1356.6666666666667</ele><time>2026-04-25T09:45:53.714Z</time></trkpt><trkpt lat="39.31726884349432" lon="16.53547397266352"><ele>1354.3333333333335</ele><time>2026-04-25T09:45:54.713Z</time></trkpt><trkpt lat="39.317380044203155" lon="16.535719055007544"><ele>1352.0</ele><time>2026-04-25T09:45:55.713Z</time></trkpt><trkpt lat="39.31749325713525" lon="16.535964030035363"><ele>1352.0</ele><time>2026-04-25T09:45:56.713Z</time></trkpt><trkpt lat="39.31760406303457" lon="16.53621294788991"><ele>1352.0</ele><time>2026-04-25T09:45:57.713Z</time></trkpt><trkpt lat="39.317714009392425" lon="16.536460893686666"><ele>1352.0</ele><time>2026-04-25T09:45:58.713Z</time></trkpt><trkpt lat="39.31782344250613" lon="16.53670885551558"><ele>1354.0</ele><time>2026-04-25T09:45:59.713Z</time></trkpt><trkpt lat="39.317932320972346" lon="16.536959916962076"><ele>1356.0</ele><time>2026-04-25T09:46:00.713Z</time></trkpt><trkpt lat="39.318039260642806" lon="16.537209818748156"><ele>1358.0</ele><time>2026-04-25T09:46:01.713Z</time></trkpt><trkpt lat="39.31813604387452" lon="16.537454635541117"><ele>1358.6666666666667</ele><time>2026-04-25T09:46:02.713Z</time></trkpt><trkpt lat="39.31820861424319" lon="16.537686928737973"><ele>1359.3333333333333</ele><time>2026-04-25T09:46:03.713Z</time></trkpt><trkpt lat="39.31827335158166" lon="16.537906620560825"><ele>1360.0</ele><time>2026-04-25T09:46:04.713Z</time></trkpt><trkpt lat="39.31833007649435" lon="16.538117654927987"><ele>1361.6666666666665</ele><time>2026-04-25T09:46:05.713Z</time></trkpt><trkpt lat="39.318379458778324" lon="16.538332731507627"><ele>1363.3333333333333</ele><time>2026-04-25T09:46:06.713Z</time></trkpt><trkpt lat="39.31842379052434" lon="16.538554424263893"><ele>1365.0</ele><time>2026-04-25T09:46:07.713Z</time></trkpt><trkpt lat="39.31846063040835" lon="16.538782299033617"><ele>1368.0</ele><time>2026-04-25T09:46:08.713Z</time></trkpt><trkpt lat="39.3184884558676" lon="16.539012843198737"><ele>1371.0</ele><time>2026-04-25T09:46:09.713Z</time></trkpt><trkpt lat="39.318511878674876" lon="16.53925857547717"><ele>1374.0</ele><time>2026-04-25T09:46:10.713Z</time></trkpt><trkpt lat="39.31852912876549" lon="16.539509877840466"><ele>1376.3333333333333</ele><time>2026-04-25T09:46:11.713Z</time></trkpt><trkpt lat="39.31853826402541" lon="16.539764981667577"><ele>1378.6666666666665</ele><time>2026-04-25T09:46:12.713Z</time></trkpt><trkpt lat="39.31853796724227" lon="16.5400181612414"><ele>1381.0</ele><time>2026-04-25T09:46:13.713Z</time></trkpt><trkpt lat="39.31852794400295" lon="16.540264501964838"><ele>1382.0</ele><time>2026-04-25T09:46:14.713Z</time></trkpt><trkpt lat="39.31851169367635" lon="16.540508113894525"><ele>1383.0</ele><time>2026-04-25T09:46:15.713Z</time></trkpt><trkpt lat="39.318488625620425" lon="16.54075058308091"><ele>1384.0</ele><time>2026-04-25T09:46:16.713Z</time></trkpt><trkpt lat="39.31845734753785" lon="16.540996295783778"><ele>1381.3333333333333</ele><time>2026-04-25T09:46:17.713Z</time></trkpt><trkpt lat="39.31841755857064" lon="16.541248958898716"><ele>1378.6666666666667</ele><time>2026-04-25T09:46:18.713Z</time></trkpt><trkpt lat="39.31835165500821" lon="16.54150000204825"><ele>1376.0</ele><time>2026-04-25T09:46:19.713Z</time></trkpt><trkpt lat="39.31831149097824" lon="16.541735744551428"><ele>1376.0</ele><time>2026-04-25T09:46:20.713Z</time></trkpt><trkpt lat="39.31824119176813" lon="16.54196783744841"><ele>1376.0</ele><time>2026-04-25T09:46:21.713Z</time></trkpt><trkpt lat="39.31816258034272" lon="16.54219966378019"><ele>1376.0</ele><time>2026-04-25T09:46:22.713Z</time></trkpt><trkpt lat="39.31807571708781" lon="16.542437782287536"><ele>1376.3333333333335</ele><time>2026-04-25T09:46:23.713Z</time></trkpt><trkpt lat="39.31798380915478" lon="16.542676900846892"><ele>1376.6666666666667</ele><time>2026-04-25T09:46:24.713Z</time></trkpt><trkpt lat="39.317890798545804" lon="16.542916740884934"><ele>1377.0</ele><time>2026-04-25T09:46:25.713Z</time></trkpt><trkpt lat="39.317800535553204" lon="16.543148150354124"><ele>1379.0</ele><time>2026-04-25T09:46:26.713Z</time></trkpt><trkpt lat="39.31771092550057" lon="16.54336800734224"><ele>1381.0</ele><time>2026-04-25T09:46:27.713Z</time></trkpt><trkpt lat="39.317623280716774" lon="16.543580408288467"><ele>1383.0</ele><time>2026-04-25T09:46:28.713Z</time></trkpt><trkpt lat="39.31753805994367" lon="16.543794838759187"><ele>1385.6666666666667</ele><time>2026-04-25T09:46:29.713Z</time></trkpt><trkpt lat="39.317454546532154" lon="16.54400472602004"><ele>1388.3333333333335</ele><time>2026-04-25T09:46:30.713Z</time></trkpt><trkpt lat="39.31737693630145" lon="16.54419671068021"><ele>1391.0</ele><time>2026-04-25T09:46:31.713Z</time></trkpt><trkpt lat="39.3173002322424" lon="16.544368232224056"><ele>1393.25</ele><time>2026-04-25T09:46:32.713Z</time></trkpt><trkpt lat="39.317226554932006" lon="16.544526407723566"><ele>1395.5</ele><time>2026-04-25T09:46:33.713Z</time></trkpt><trkpt lat="39.317159003063495" lon="16.544673291295616"><ele>1397.75</ele><time>2026-04-25T09:46:34.713Z</time></trkpt><trkpt lat="39.31710025232663" lon="16.544813267700505"><ele>1400.0</ele><time>2026-04-25T09:46:35.713Z</time></trkpt><trkpt lat="39.31704596063155" lon="16.54494404040775"><ele>1400.6</ele><time>2026-04-25T09:46:36.713Z</time></trkpt><trkpt lat="39.31699946536607" lon="16.54505763267079"><ele>1401.2</ele><time>2026-04-25T09:46:37.713Z</time></trkpt><trkpt lat="39.31695321342152" lon="16.545168047777576"><ele>1401.8000000000002</ele><time>2026-04-25T09:46:38.713Z</time></trkpt><trkpt lat="39.31690055357645" lon="16.54527336148827"><ele>1402.4</ele><time>2026-04-25T09:46:39.713Z</time></trkpt><trkpt lat="39.31683147471421" lon="16.54535735499601"><ele>1403.0</ele><time>2026-04-25T09:46:40.713Z</time></trkpt><trkpt lat="39.31675447592257" lon="16.54540496769986"><ele>1403.0</ele><time>2026-04-25T09:46:41.713Z</time></trkpt><trkpt lat="39.316558631556525" lon="16.545372980978424"><ele>1403.0</ele><time>2026-04-25T09:46:43.713Z</time></trkpt><trkpt lat="39.316466123668256" lon="16.54531929030656"><ele>1403.0</ele><time>2026-04-25T09:46:44.713Z</time></trkpt><trkpt lat="39.31638826277819" lon="16.54527358381047"><ele>1403.0</ele><time>2026-04-25T09:46:45.713Z</time></trkpt><trkpt lat="39.31631907300211" lon="16.545250739487173"><ele>1404.0</ele><time>2026-04-25T09:46:46.713Z</time></trkpt><trkpt lat="39.316255847330225" lon="16.54525951792248"><ele>1405.0</ele><time>2026-04-25T09:46:47.713Z</time></trkpt><trkpt lat="39.31614155945076" lon="16.545405456243465"><ele>1406.0</ele><time>2026-04-25T09:46:49.713Z</time></trkpt><trkpt lat="39.31610797612133" lon="16.545521090107417"><ele>1407.0</ele><time>2026-04-25T09:46:50.713Z</time></trkpt><trkpt lat="39.31609490993773" lon="16.54562506715081"><ele>1408.0</ele><time>2026-04-25T09:46:51.713Z</time></trkpt><trkpt lat="39.31596334603597" lon="16.54570838503495"><ele>1408.0</ele><time>2026-04-25T09:46:53.713Z</time></trkpt><trkpt lat="39.31589545039942" lon="16.545719336713933"><ele>1408.0</ele><time>2026-04-25T09:46:54.713Z</time></trkpt><trkpt lat="39.315777430226944" lon="16.545665507130522"><ele>1408.0</ele><time>2026-04-25T09:46:56.714Z</time></trkpt><trkpt lat="39.315710608159335" lon="16.545601240534733"><ele>1408.0</ele><time>2026-04-25T09:46:57.714Z</time></trkpt><trkpt lat="39.315641708402595" lon="16.54553188254083"><ele>1408.0</ele><time>2026-04-25T09:46:58.714Z</time></trkpt><trkpt lat="39.31558301546675" lon="16.545435212079894"><ele>1408.4</ele><time>2026-04-25T09:46:59.714Z</time></trkpt><trkpt lat="39.31550936895221" lon="16.545348371046483"><ele>1408.8000000000002</ele><time>2026-04-25T09:47:00.714Z</time></trkpt><trkpt lat="39.31540121626216" lon="16.545219801362517"><ele>1409.2</ele><time>2026-04-25T09:47:02.714Z</time></trkpt><trkpt lat="39.3153362634016" lon="16.545130339772605"><ele>1409.6</ele><time>2026-04-25T09:47:03.714Z</time></trkpt><trkpt lat="39.31525426057823" lon="16.54504018426825"><ele>1410.0</ele><time>2026-04-25T09:47:04.714Z</time></trkpt><trkpt lat="39.31515399920126" lon="16.544944151939784"><ele>1410.0</ele><time>2026-04-25T09:47:05.714Z</time></trkpt><trkpt lat="39.31504202492006" lon="16.544853750666686"><ele>1410.0</ele><time>2026-04-25T09:47:06.714Z</time></trkpt><trkpt lat="39.31492402640112" lon="16.544767521366374"><ele>1410.0</ele><time>2026-04-25T09:47:07.714Z</time></trkpt><trkpt lat="39.314803134096" lon="16.544679289791784"><ele>1410.0</ele><time>2026-04-25T09:47:08.714Z</time></trkpt><trkpt lat="39.31468084213326" lon="16.54458637306625"><ele>1411.0</ele><time>2026-04-25T09:47:09.714Z</time></trkpt><trkpt lat="39.3145356953458" lon="16.544474468024916"><ele>1412.0</ele><time>2026-04-25T09:47:10.714Z</time></trkpt><trkpt lat="39.31436345580364" lon="16.544363580689684"><ele>1413.0</ele><time>2026-04-25T09:47:11.714Z</time></trkpt><trkpt lat="39.31417218164876" lon="16.544243778343628"><ele>1413.0</ele><time>2026-04-25T09:47:12.714Z</time></trkpt><trkpt lat="39.314025023423795" lon="16.54412625714763"><ele>1413.0</ele><time>2026-04-25T09:47:13.714Z</time></trkpt><trkpt lat="39.3139024644777" lon="16.544003927034446"><ele>1413.0</ele><time>2026-04-25T09:47:14.714Z</time></trkpt><trkpt lat="39.31378872080666" lon="16.543889785665556"><ele>1414.0</ele><time>2026-04-25T09:47:15.714Z</time></trkpt><trkpt lat="39.313679607686886" lon="16.54379019559156"><ele>1415.0</ele><time>2026-04-25T09:47:16.714Z</time></trkpt><trkpt lat="39.313572059027116" lon="16.543695500698043"><ele>1416.0</ele><time>2026-04-25T09:47:17.714Z</time></trkpt><trkpt lat="39.313468271494955" lon="16.54359872705405"><ele>1417.0</ele><time>2026-04-25T09:47:18.714Z</time></trkpt><trkpt lat="39.31336430026497" lon="16.543494550224796"><ele>1418.0</ele><time>2026-04-25T09:47:19.714Z</time></trkpt><trkpt lat="39.3132765251037" lon="16.54338236367749"><ele>1419.0</ele><time>2026-04-25T09:47:20.714Z</time></trkpt><trkpt lat="39.31320048121739" lon="16.543248024954462"><ele>1420.0</ele><time>2026-04-25T09:47:21.714Z</time></trkpt><trkpt lat="39.31313033670364" lon="16.54312752048425"><ele>1421.0</ele><time>2026-04-25T09:47:22.713Z</time></trkpt><trkpt lat="39.313066320689344" lon="16.543020035043966"><ele>1421.0</ele><time>2026-04-25T09:47:23.713Z</time></trkpt><trkpt lat="39.31300640907426" lon="16.542913887187716"><ele>1421.0</ele><time>2026-04-25T09:47:24.713Z</time></trkpt><trkpt lat="39.31292979381813" lon="16.54277863443657"><ele>1421.0</ele><time>2026-04-25T09:47:25.713Z</time></trkpt><trkpt lat="39.312845499708544" lon="16.54262744734907"><ele>1421.0</ele><time>2026-04-25T09:47:26.713Z</time></trkpt><trkpt lat="39.312752413997664" lon="16.54246778882543"><ele>1421.6666666666667</ele><time>2026-04-25T09:47:27.713Z</time></trkpt><trkpt lat="39.31264553731339" lon="16.542293771944614"><ele>1422.3333333333333</ele><time>2026-04-25T09:47:28.713Z</time></trkpt><trkpt lat="39.31252651892012" lon="16.542104796291287"><ele>1423.0</ele><time>2026-04-25T09:47:29.713Z</time></trkpt><trkpt lat="39.31239545689954" lon="16.54188767584988"><ele>1422.0</ele><time>2026-04-25T09:47:30.713Z</time></trkpt><trkpt lat="39.31226087179786" lon="16.541642852159846"><ele>1421.0</ele><time>2026-04-25T09:47:31.713Z</time></trkpt><trkpt lat="39.31211964644908" lon="16.54137948674113"><ele>1422.0</ele><time>2026-04-25T09:47:32.713Z</time></trkpt><trkpt lat="39.31198342559339" lon="16.541141552009933"><ele>1423.0</ele><time>2026-04-25T09:47:33.713Z</time></trkpt><trkpt lat="39.31185542925103" lon="16.54093325103252"><ele>1424.0</ele><time>2026-04-25T09:47:34.713Z</time></trkpt><trkpt lat="39.311736117270904" lon="16.540733757886517"><ele>1424.0</ele><time>2026-04-25T09:47:35.713Z</time></trkpt><trkpt lat="39.31162548004981" lon="16.540542084216572"><ele>1424.0</ele><time>2026-04-25T09:47:36.713Z</time></trkpt><trkpt lat="39.31152750659948" lon="16.54036280748238"><ele>1424.0</ele><time>2026-04-25T09:47:37.713Z</time></trkpt><trkpt lat="39.31143849761312" lon="16.540198108413392"><ele>1426.0</ele><time>2026-04-25T09:47:38.713Z</time></trkpt><trkpt lat="39.31134714565633" lon="16.54004253351601"><ele>1428.0</ele><time>2026-04-25T09:47:39.713Z</time></trkpt><trkpt lat="39.3112481732875" lon="16.539906535451514"><ele>1430.0</ele><time>2026-04-25T09:47:40.713Z</time></trkpt><trkpt lat="39.31113008684786" lon="16.539783945280288"><ele>1432.0</ele><time>2026-04-25T09:47:41.713Z</time></trkpt><trkpt lat="39.31099422987651" lon="16.539688552944163"><ele>1432.0</ele><time>2026-04-25T09:47:42.713Z</time></trkpt><trkpt lat="39.31085087880175" lon="16.539609217511945"><ele>1432.0</ele><time>2026-04-25T09:47:43.713Z</time></trkpt><trkpt lat="39.31070562219583" lon="16.539548218708447"><ele>1432.0</ele><time>2026-04-25T09:47:44.713Z</time></trkpt><trkpt lat="39.31055833480631" lon="16.539488784180755"><ele>1433.0</ele><time>2026-04-25T09:47:45.713Z</time></trkpt><trkpt lat="39.310419702221" lon="16.539422429397842"><ele>1434.0</ele><time>2026-04-25T09:47:46.713Z</time></trkpt><trkpt lat="39.31029143108025" lon="16.539359772596757"><ele>1435.0</ele><time>2026-04-25T09:47:47.713Z</time></trkpt><trkpt lat="39.31017174219671" lon="16.53930225218354"><ele>1436.0</ele><time>2026-04-25T09:47:48.713Z</time></trkpt><trkpt lat="39.31005939433298" lon="16.539238560171928"><ele>1436.0</ele><time>2026-04-25T09:47:49.713Z</time></trkpt><trkpt lat="39.30995001145991" lon="16.53916314377771"><ele>1436.0</ele><time>2026-04-25T09:47:50.713Z</time></trkpt><trkpt lat="39.309838545064686" lon="16.5390619358957"><ele>1436.0</ele><time>2026-04-25T09:47:51.713Z</time></trkpt><trkpt lat="39.30971028367726" lon="16.538930795489023"><ele>1436.0</ele><time>2026-04-25T09:47:52.713Z</time></trkpt><trkpt lat="39.309581429586316" lon="16.53877248339407"><ele>1434.6666666666667</ele><time>2026-04-25T09:47:53.713Z</time></trkpt><trkpt lat="39.30946919713108" lon="16.53861712494882"><ele>1433.3333333333333</ele><time>2026-04-25T09:47:54.713Z</time></trkpt><trkpt lat="39.309347584828195" lon="16.53845781339776"><ele>1432.0</ele><time>2026-04-25T09:47:55.713Z</time></trkpt><trkpt lat="39.30921205261597" lon="16.538289906473093"><ele>1432.0</ele><time>2026-04-25T09:47:56.713Z</time></trkpt><trkpt lat="39.309055210612605" lon="16.538108266701467"><ele>1432.0</ele><time>2026-04-25T09:47:57.713Z</time></trkpt><trkpt lat="39.30888410851196" lon="16.53789676186662"><ele>1432.0</ele><time>2026-04-25T09:47:58.713Z</time></trkpt><trkpt lat="39.308652830901416" lon="16.537723850435636"><ele>1431.0</ele><time>2026-04-25T09:47:59.713Z</time></trkpt><trkpt lat="39.308416180517035" lon="16.537513232694874"><ele>1430.0</ele><time>2026-04-25T09:48:00.713Z</time></trkpt><trkpt lat="39.30815997185434" lon="16.537309374560362"><ele>1429.5</ele><time>2026-04-25T09:48:01.713Z</time></trkpt><trkpt lat="39.30789239888297" lon="16.537096474142835"><ele>1429.0</ele><time>2026-04-25T09:48:02.713Z</time></trkpt><trkpt lat="39.307609402716984" lon="16.536871301882307"><ele>1428.0</ele><time>2026-04-25T09:48:03.713Z</time></trkpt><trkpt lat="39.307315313367724" lon="16.536637304382374"><ele>1427.0</ele><time>2026-04-25T09:48:04.713Z</time></trkpt><trkpt lat="39.30701065333312" lon="16.53639565255403"><ele>1429.0</ele><time>2026-04-25T09:48:05.713Z</time></trkpt><trkpt lat="39.30669629025529" lon="16.536146394992745"><ele>1431.0</ele><time>2026-04-25T09:48:06.713Z</time></trkpt><trkpt lat="39.306392533766946" lon="16.53590528598746"><ele>1432.0</ele><time>2026-04-25T09:48:07.713Z</time></trkpt><trkpt lat="39.306108145688086" lon="16.535703260495758"><ele>1433.0</ele><time>2026-04-25T09:48:08.713Z</time></trkpt><trkpt lat="39.305859548313784" lon="16.535491353712985"><ele>1434.5</ele><time>2026-04-25T09:48:09.713Z</time></trkpt><trkpt lat="39.30562727112089" lon="16.5352907988713"><ele>1436.0</ele><time>2026-04-25T09:48:10.713Z</time></trkpt><trkpt lat="39.30539682709063" lon="16.535099731906783"><ele>1437.5</ele><time>2026-04-25T09:48:11.713Z</time></trkpt><trkpt lat="39.30516336029438" lon="16.53490881833537"><ele>1439.0</ele><time>2026-04-25T09:48:12.713Z</time></trkpt><trkpt lat="39.30493636761489" lon="16.534716382275533"><ele>1439.5</ele><time>2026-04-25T09:48:13.713Z</time></trkpt><trkpt lat="39.30470861487172" lon="16.534520528157064"><ele>1440.0</ele><time>2026-04-25T09:48:14.713Z</time></trkpt><trkpt lat="39.30447953024893" lon="16.534318128665394"><ele>1440.0</ele><time>2026-04-25T09:48:15.713Z</time></trkpt><trkpt lat="39.30425411104502" lon="16.534121025208524"><ele>1440.0</ele><time>2026-04-25T09:48:16.713Z</time></trkpt><trkpt lat="39.304027087428715" lon="16.533926048306796"><ele>1440.5</ele><time>2026-04-25T09:48:17.713Z</time></trkpt><trkpt lat="39.30379940341884" lon="16.533729316264377"><ele>1441.0</ele><time>2026-04-25T09:48:18.713Z</time></trkpt><trkpt lat="39.30357359982136" lon="16.533532060077697"><ele>1441.0</ele><time>2026-04-25T09:48:19.713Z</time></trkpt><trkpt lat="39.30334946912077" lon="16.533332835528572"><ele>1441.0</ele><time>2026-04-25T09:48:20.713Z</time></trkpt><trkpt lat="39.303126141681176" lon="16.533130577441458"><ele>1444.0</ele><time>2026-04-25T09:48:21.713Z</time></trkpt><trkpt lat="39.30289781141771" lon="16.532925854345077"><ele>1447.0</ele><time>2026-04-25T09:48:22.713Z</time></trkpt><trkpt lat="39.30266377798096" lon="16.53272435487157"><ele>1448.5</ele><time>2026-04-25T09:48:23.713Z</time></trkpt><trkpt lat="39.30244673500329" lon="16.532539229095413"><ele>1450.0</ele><time>2026-04-25T09:48:24.713Z</time></trkpt><trkpt lat="39.30223240550057" lon="16.53236018708693"><ele>1452.0</ele><time>2026-04-25T09:48:25.713Z</time></trkpt><trkpt lat="39.30204686942472" lon="16.53219891303739"><ele>1454.0</ele><time>2026-04-25T09:48:26.713Z</time></trkpt><trkpt lat="39.30186160528994" lon="16.532031984573404"><ele>1456.0</ele><time>2026-04-25T09:48:27.713Z</time></trkpt><trkpt lat="39.301684700967556" lon="16.531881249772088"><ele>1456.0</ele><time>2026-04-25T09:48:28.713Z</time></trkpt><trkpt lat="39.30151556824775" lon="16.53173213962444"><ele>1456.0</ele><time>2026-04-25T09:48:29.713Z</time></trkpt><trkpt lat="39.301358913994505" lon="16.53160047940291"><ele>1456.0</ele><time>2026-04-25T09:48:30.713Z</time></trkpt><trkpt lat="39.30120314532074" lon="16.531482490846315"><ele>1456.6666666666665</ele><time>2026-04-25T09:48:31.713Z</time></trkpt><trkpt lat="39.30103798762664" lon="16.53139921964954"><ele>1457.3333333333333</ele><time>2026-04-25T09:48:32.713Z</time></trkpt><trkpt lat="39.30086018163199" lon="16.531358074248097"><ele>1458.0</ele><time>2026-04-25T09:48:33.713Z</time></trkpt><trkpt lat="39.30064907012441" lon="16.531352750825643"><ele>1458.5</ele><time>2026-04-25T09:48:34.713Z</time></trkpt><trkpt lat="39.300410736188304" lon="16.531370976080716"><ele>1459.0</ele><time>2026-04-25T09:48:35.713Z</time></trkpt><trkpt lat="39.300153032131384" lon="16.53138154853014"><ele>1459.0</ele><time>2026-04-25T09:48:36.713Z</time></trkpt><trkpt lat="39.29993952133295" lon="16.531399718153672"><ele>1459.0</ele><time>2026-04-25T09:48:37.713Z</time></trkpt><trkpt lat="39.29973554566242" lon="16.531388704249835"><ele>1459.0</ele><time>2026-04-25T09:48:38.713Z</time></trkpt><trkpt lat="39.29953463937675" lon="16.53134883678426"><ele>1458.0</ele><time>2026-04-25T09:48:39.713Z</time></trkpt><trkpt lat="39.299308796908846" lon="16.531276368258894"><ele>1457.0</ele><time>2026-04-25T09:48:40.713Z</time></trkpt><trkpt lat="39.299069084976026" lon="16.531174920022963"><ele>1454.5</ele><time>2026-04-25T09:48:41.713Z</time></trkpt><trkpt lat="39.298830098416964" lon="16.531075081771792"><ele>1452.0</ele><time>2026-04-25T09:48:42.713Z</time></trkpt><trkpt lat="39.29861777826338" lon="16.530988310263556"><ele>1452.0</ele><time>2026-04-25T09:48:43.713Z</time></trkpt><trkpt lat="39.2984231362327" lon="16.530905282289556"><ele>1452.0</ele><time>2026-04-25T09:48:44.713Z</time></trkpt><trkpt lat="39.29824315291363" lon="16.5308122063586"><ele>1452.0</ele><time>2026-04-25T09:48:45.713Z</time></trkpt><trkpt lat="39.2980899070936" lon="16.53070864757314"><ele>1451.3333333333333</ele><time>2026-04-25T09:48:46.713Z</time></trkpt><trkpt lat="39.29796801911525" lon="16.53057193398392"><ele>1450.6666666666665</ele><time>2026-04-25T09:48:47.713Z</time></trkpt><trkpt lat="39.29787518573014" lon="16.530378962393034"><ele>1450.0</ele><time>2026-04-25T09:48:48.713Z</time></trkpt><trkpt lat="39.29780473297609" lon="16.530130619677823"><ele>1452.5</ele><time>2026-04-25T09:48:49.713Z</time></trkpt><trkpt lat="39.297762594667304" lon="16.52984625680454"><ele>1455.0</ele><time>2026-04-25T09:48:50.713Z</time></trkpt><trkpt lat="39.29772130960506" lon="16.5295355889829"><ele>1456.5</ele><time>2026-04-25T09:48:51.713Z</time></trkpt><trkpt lat="39.297661507245756" lon="16.529213748511747"><ele>1458.0</ele><time>2026-04-25T09:48:52.713Z</time></trkpt><trkpt lat="39.29759209681472" lon="16.52886916945669"><ele>1459.5</ele><time>2026-04-25T09:48:53.713Z</time></trkpt><trkpt lat="39.29752145748305" lon="16.528521287975845"><ele>1461.0</ele><time>2026-04-25T09:48:54.713Z</time></trkpt><trkpt lat="39.29745596741091" lon="16.528207816803313"><ele>1461.0</ele><time>2026-04-25T09:48:55.713Z</time></trkpt><trkpt lat="39.297403634056984" lon="16.527929231903837"><ele>1461.0</ele><time>2026-04-25T09:48:56.713Z</time></trkpt><trkpt lat="39.297351049710585" lon="16.527657813971793"><ele>1461.0</ele><time>2026-04-25T09:48:57.713Z</time></trkpt><trkpt lat="39.297294578493606" lon="16.527383491669482"><ele>1461.3333333333333</ele><time>2026-04-25T09:48:58.713Z</time></trkpt><trkpt lat="39.297237004642255" lon="16.52712849118085"><ele>1461.6666666666665</ele><time>2026-04-25T09:48:59.713Z</time></trkpt><trkpt lat="39.29716853102213" lon="16.526898647793097"><ele>1462.0</ele><time>2026-04-25T09:49:00.713Z</time></trkpt><trkpt lat="39.297086547682966" lon="16.526715613940027"><ele>1462.0</ele><time>2026-04-25T09:49:01.712Z</time></trkpt><trkpt lat="39.29700126274223" lon="16.526556372812177"><ele>1462.0</ele><time>2026-04-25T09:49:02.713Z</time></trkpt><trkpt lat="39.29689292933306" lon="16.526430897495388"><ele>1462.0</ele><time>2026-04-25T09:49:03.713Z</time></trkpt><trkpt lat="39.296773586187975" lon="16.52633253416999"><ele>1462.0</ele><time>2026-04-25T09:49:04.713Z</time></trkpt><trkpt lat="39.29663191576184" lon="16.526256886551458"><ele>1465.0</ele><time>2026-04-25T09:49:05.713Z</time></trkpt><trkpt lat="39.29646374285142" lon="16.52619088081085"><ele>1468.0</ele><time>2026-04-25T09:49:06.713Z</time></trkpt><trkpt lat="39.29628370977485" lon="16.52611767872745"><ele>1471.0</ele><time>2026-04-25T09:49:07.713Z</time></trkpt><trkpt lat="39.29612354979924" lon="16.526032567511447"><ele>1471.6666666666665</ele><time>2026-04-25T09:49:08.713Z</time></trkpt><trkpt lat="39.295971919564955" lon="16.52595740894016"><ele>1472.3333333333333</ele><time>2026-04-25T09:49:09.713Z</time></trkpt><trkpt lat="39.29582029835485" lon="16.525882885520023"><ele>1473.0</ele><time>2026-04-25T09:49:10.713Z</time></trkpt><trkpt lat="39.295635863339285" lon="16.525835799463188"><ele>1474.0</ele><time>2026-04-25T09:49:11.713Z</time></trkpt><trkpt lat="39.29539648623128" lon="16.52581049906034"><ele>1475.0</ele><time>2026-04-25T09:49:12.713Z</time></trkpt><trkpt lat="39.295146294889385" lon="16.525789749357664"><ele>1475.0</ele><time>2026-04-25T09:49:13.713Z</time></trkpt><trkpt lat="39.2949548929501" lon="16.525746695520493"><ele>1475.0</ele><time>2026-04-25T09:49:14.713Z</time></trkpt><trkpt lat="39.29479260304518" lon="16.525708938179893"><ele>1475.0</ele><time>2026-04-25T09:49:15.713Z</time></trkpt><trkpt lat="39.29463913272397" lon="16.525689337638457"><ele>1476.5</ele><time>2026-04-25T09:49:16.713Z</time></trkpt><trkpt lat="39.29449680802667" lon="16.52567127197276"><ele>1478.0</ele><time>2026-04-25T09:49:17.713Z</time></trkpt><trkpt lat="39.29437433325865" lon="16.525653700332487"><ele>1479.5</ele><time>2026-04-25T09:49:18.713Z</time></trkpt><trkpt lat="39.294261757659726" lon="16.525630691110788"><ele>1481.0</ele><time>2026-04-25T09:49:19.713Z</time></trkpt><trkpt lat="39.29422528533786" lon="16.525482421917502"><ele>1481.0</ele><time>2026-04-25T09:49:20.713Z</time></trkpt><trkpt lat="39.29415020318187" lon="16.525415265637655"><ele>1481.0</ele><time>2026-04-25T09:49:21.713Z</time></trkpt><trkpt lat="39.2940795923138" lon="16.52536147731134"><ele>1481.0</ele><time>2026-04-25T09:49:22.713Z</time></trkpt><trkpt lat="39.29375835871866" lon="16.52575177892371"><ele>1481.25</ele><time>2026-04-25T09:49:23.713Z</time></trkpt><trkpt lat="39.293645041981065" lon="16.525843290746458"><ele>1481.5</ele><time>2026-04-25T09:49:24.713Z</time></trkpt><trkpt lat="39.29353028557957" lon="16.525908645658276"><ele>1481.75</ele><time>2026-04-25T09:49:25.713Z</time></trkpt><trkpt lat="39.293419384356746" lon="16.52597426470498"><ele>1482.0</ele><time>2026-04-25T09:49:26.713Z</time></trkpt><trkpt lat="39.293306574510254" lon="16.52604600412589"><ele>1482.0</ele><time>2026-04-25T09:49:27.713Z</time></trkpt><trkpt lat="39.29318205929389" lon="16.526120998008746"><ele>1482.0</ele><time>2026-04-25T09:49:28.713Z</time></trkpt><trkpt lat="39.29305770582145" lon="16.526210859722774"><ele>1482.0</ele><time>2026-04-25T09:49:29.713Z</time></trkpt><trkpt lat="39.292945620311194" lon="16.526305951710366"><ele>1482.0</ele><time>2026-04-25T09:49:30.713Z</time></trkpt><trkpt lat="39.29284776104106" lon="16.526419819907137"><ele>1484.25</ele><time>2026-04-25T09:49:31.713Z</time></trkpt><trkpt lat="39.292766159225785" lon="16.526536224239084"><ele>1486.5</ele><time>2026-04-25T09:49:32.713Z</time></trkpt><trkpt lat="39.29269267175763" lon="16.526670805838457"><ele>1488.75</ele><time>2026-04-25T09:49:33.713Z</time></trkpt><trkpt lat="39.29263950740004" lon="16.526813354284133"><ele>1491.0</ele><time>2026-04-25T09:49:34.713Z</time></trkpt><trkpt lat="39.29262092119286" lon="16.526962083515315"><ele>1493.6666666666667</ele><time>2026-04-25T09:49:35.713Z</time></trkpt><trkpt lat="39.29263793137008" lon="16.527139708263796"><ele>1496.3333333333335</ele><time>2026-04-25T09:49:36.713Z</time></trkpt><trkpt lat="39.2926909023633" lon="16.527375009671232"><ele>1499.0</ele><time>2026-04-25T09:49:37.713Z</time></trkpt><trkpt lat="39.292755909389" lon="16.527665478067245"><ele>1502.5</ele><time>2026-04-25T09:49:38.713Z</time></trkpt><trkpt lat="39.29279985449909" lon="16.527983182671647"><ele>1506.0</ele><time>2026-04-25T09:49:39.713Z</time></trkpt><trkpt lat="39.29282498719822" lon="16.52830470560064"><ele>1506.0</ele><time>2026-04-25T09:49:40.713Z</time></trkpt><trkpt lat="39.292854955989185" lon="16.528573555867467"><ele>1506.0</ele><time>2026-04-25T09:49:41.713Z</time></trkpt><trkpt lat="39.292857677762015" lon="16.528785217273715"><ele>1506.0</ele><time>2026-04-25T09:49:42.713Z</time></trkpt><trkpt lat="39.29282185546056" lon="16.52897974507865"><ele>1507.3333333333333</ele><time>2026-04-25T09:49:43.713Z</time></trkpt><trkpt lat="39.29275187173708" lon="16.529174989367192"><ele>1508.6666666666665</ele><time>2026-04-25T09:49:44.713Z</time></trkpt><trkpt lat="39.292645755896245" lon="16.529332429907242"><ele>1510.0</ele><time>2026-04-25T09:49:45.713Z</time></trkpt><trkpt lat="39.2924992005111" lon="16.529464753616608"><ele>1512.3333333333333</ele><time>2026-04-25T09:49:46.713Z</time></trkpt><trkpt lat="39.292322202528524" lon="16.52957988580631"><ele>1514.6666666666667</ele><time>2026-04-25T09:49:47.713Z</time></trkpt><trkpt lat="39.2921156829868" lon="16.529644669389704"><ele>1517.0</ele><time>2026-04-25T09:49:48.713Z</time></trkpt><trkpt lat="39.291889909250294" lon="16.529682737186235"><ele>1520.0</ele><time>2026-04-25T09:49:49.713Z</time></trkpt><trkpt lat="39.2916640011375" lon="16.52972858780458"><ele>1523.0</ele><time>2026-04-25T09:49:50.713Z</time></trkpt><trkpt lat="39.291439493712986" lon="16.52978685484819"><ele>1524.6666666666667</ele><time>2026-04-25T09:49:51.713Z</time></trkpt><trkpt lat="39.2912377035876" lon="16.529853425934423"><ele>1526.3333333333333</ele><time>2026-04-25T09:49:52.713Z</time></trkpt><trkpt lat="39.29104956892913" lon="16.52994170511475"><ele>1528.0</ele><time>2026-04-25T09:49:53.713Z</time></trkpt><trkpt lat="39.29087381544914" lon="16.53006973798775"><ele>1528.0</ele><time>2026-04-25T09:49:54.713Z</time></trkpt><trkpt lat="39.29070765029402" lon="16.530246603316066"><ele>1528.0</ele><time>2026-04-25T09:49:55.713Z</time></trkpt><trkpt lat="39.290553218198845" lon="16.530472943956934"><ele>1528.0</ele><time>2026-04-25T09:49:56.713Z</time></trkpt><trkpt lat="39.290387800149865" lon="16.530727695445947"><ele>1533.0</ele><time>2026-04-25T09:49:57.713Z</time></trkpt><trkpt lat="39.29020266066546" lon="16.530991487248116"><ele>1538.0</ele><time>2026-04-25T09:49:58.713Z</time></trkpt><trkpt lat="39.29001147928846" lon="16.531253431514983"><ele>1538.0</ele><time>2026-04-25T09:49:59.713Z</time></trkpt><trkpt lat="39.28984274915651" lon="16.53148750110136"><ele>1538.0</ele><time>2026-04-25T09:50:00.713Z</time></trkpt><trkpt lat="39.289689188121734" lon="16.531695285936063"><ele>1539.0</ele><time>2026-04-25T09:50:01.713Z</time></trkpt><trkpt lat="39.28952723370138" lon="16.531885363790998"><ele>1540.0</ele><time>2026-04-25T09:50:02.713Z</time></trkpt><trkpt lat="39.28934431055755" lon="16.532056182664466"><ele>1541.0</ele><time>2026-04-25T09:50:03.713Z</time></trkpt><trkpt lat="39.289141160995975" lon="16.53219691700391"><ele>1541.0</ele><time>2026-04-25T09:50:04.713Z</time></trkpt><trkpt lat="39.28894133281331" lon="16.53228546950862"><ele>1541.0</ele><time>2026-04-25T09:50:05.713Z</time></trkpt><trkpt lat="39.288766421091" lon="16.532363206724487"><ele>1541.0</ele><time>2026-04-25T09:50:06.713Z</time></trkpt><trkpt lat="39.28861751483241" lon="16.532467519680694"><ele>1544.6666666666665</ele><time>2026-04-25T09:50:07.713Z</time></trkpt><trkpt lat="39.28848658955468" lon="16.532597621067662"><ele>1548.3333333333335</ele><time>2026-04-25T09:50:08.713Z</time></trkpt><trkpt lat="39.28839022745376" lon="16.532769321346017"><ele>1552.0</ele><time>2026-04-25T09:50:09.713Z</time></trkpt><trkpt lat="39.288316596278264" lon="16.532979824954875"><ele>1552.0</ele><time>2026-04-25T09:50:10.713Z</time></trkpt><trkpt lat="39.28825146521016" lon="16.53324163315826"><ele>1552.0</ele><time>2026-04-25T09:50:11.713Z</time></trkpt><trkpt lat="39.28817425661939" lon="16.533548694801866"><ele>1559.5</ele><time>2026-04-25T09:50:12.713Z</time></trkpt><trkpt lat="39.288077857992114" lon="16.53387390484872"><ele>1567.0</ele><time>2026-04-25T09:50:13.713Z</time></trkpt><trkpt lat="39.2879685182148" lon="16.534211924019566"><ele>1565.0</ele><time>2026-04-25T09:50:14.713Z</time></trkpt><trkpt lat="39.28785880289811" lon="16.534555638274714"><ele>1563.0</ele><time>2026-04-25T09:50:15.713Z</time></trkpt><trkpt lat="39.28775903865786" lon="16.534863683456425"><ele>1563.0</ele><time>2026-04-25T09:50:16.713Z</time></trkpt><trkpt lat="39.287674383227674" lon="16.535157972670135"><ele>1563.0</ele><time>2026-04-25T09:50:17.713Z</time></trkpt><trkpt lat="39.28759797188235" lon="16.535418817988027"><ele>1561.6666666666665</ele><time>2026-04-25T09:50:18.713Z</time></trkpt><trkpt lat="39.28752344256998" lon="16.535646082810523"><ele>1560.3333333333333</ele><time>2026-04-25T09:50:19.713Z</time></trkpt><trkpt lat="39.287444401704626" lon="16.53583927489533"><ele>1559.0</ele><time>2026-04-25T09:50:20.713Z</time></trkpt><trkpt lat="39.287313442903375" lon="16.53599865896125"><ele>1563.3333333333333</ele><time>2026-04-25T09:50:21.713Z</time></trkpt><trkpt lat="39.287174254844835" lon="16.536174653009432"><ele>1567.6666666666665</ele><time>2026-04-25T09:50:22.713Z</time></trkpt><trkpt lat="39.28702898596543" lon="16.536364886090638"><ele>1572.0</ele><time>2026-04-25T09:50:23.713Z</time></trkpt><trkpt lat="39.28691328754014" lon="16.536596147438285"><ele>1572.0</ele><time>2026-04-25T09:50:24.713Z</time></trkpt><trkpt lat="39.28681026316948" lon="16.536872059199325"><ele>1572.0</ele><time>2026-04-25T09:50:25.713Z</time></trkpt><trkpt lat="39.28671273424668" lon="16.537170584733506"><ele>1569.6666666666665</ele><time>2026-04-25T09:50:26.713Z</time></trkpt><trkpt lat="39.28662361749659" lon="16.537448427878353"><ele>1567.3333333333333</ele><time>2026-04-25T09:50:27.713Z</time></trkpt><trkpt lat="39.28653236923502" lon="16.53766993662782"><ele>1565.0</ele><time>2026-04-25T09:50:28.712Z</time></trkpt><trkpt lat="39.28646444202574" lon="16.537865388443546"><ele>1564.5</ele><time>2026-04-25T09:50:29.712Z</time></trkpt><trkpt lat="39.286399749518665" lon="16.538033753676082"><ele>1564.0</ele><time>2026-04-25T09:50:30.712Z</time></trkpt><trkpt lat="39.28631908416504" lon="16.538182277020777"><ele>1563.5</ele><time>2026-04-25T09:50:31.712Z</time></trkpt><trkpt lat="39.28621408693344" lon="16.538320693730732"><ele>1563.0</ele><time>2026-04-25T09:50:32.712Z</time></trkpt><trkpt lat="39.28605510415596" lon="16.538411286760713"><ele>1563.0</ele><time>2026-04-25T09:50:33.712Z</time></trkpt><trkpt lat="39.28588002729294" lon="16.53846883293826"><ele>1563.0</ele><time>2026-04-25T09:50:34.712Z</time></trkpt><trkpt lat="39.2857154242571" lon="16.53847748976446"><ele>1563.0</ele><time>2026-04-25T09:50:35.712Z</time></trkpt><trkpt lat="39.28555568225655" lon="16.538420958210757"><ele>1559.3333333333335</ele><time>2026-04-25T09:50:36.712Z</time></trkpt><trkpt lat="39.28538172184521" lon="16.53831494781788"><ele>1555.6666666666667</ele><time>2026-04-25T09:50:37.712Z</time></trkpt><trkpt lat="39.28520989083239" lon="16.538157094671398"><ele>1552.0</ele><time>2026-04-25T09:50:38.712Z</time></trkpt><trkpt lat="39.28502242076084" lon="16.537953780747213"><ele>1555.5</ele><time>2026-04-25T09:50:39.712Z</time></trkpt><trkpt lat="39.28480878427599" lon="16.537724824923977"><ele>1559.0</ele><time>2026-04-25T09:50:40.712Z</time></trkpt><trkpt lat="39.28458241345929" lon="16.537483313014146"><ele>1559.0</ele><time>2026-04-25T09:50:41.712Z</time></trkpt><trkpt lat="39.28432748974848" lon="16.537228398784368"><ele>1559.0</ele><time>2026-04-25T09:50:42.712Z</time></trkpt><trkpt lat="39.284062882061434" lon="16.536962402680405"><ele>1555.0</ele><time>2026-04-25T09:50:43.712Z</time></trkpt><trkpt lat="39.28378900935024" lon="16.536684194646753"><ele>1551.0</ele><time>2026-04-25T09:50:44.712Z</time></trkpt><trkpt lat="39.283508524625724" lon="16.53640366318158"><ele>1551.5</ele><time>2026-04-25T09:50:45.712Z</time></trkpt><trkpt lat="39.28324959335753" lon="16.536136420059172"><ele>1552.0</ele><time>2026-04-25T09:50:46.712Z</time></trkpt><trkpt lat="39.283014000719675" lon="16.535899664567413"><ele>1554.0</ele><time>2026-04-25T09:50:47.712Z</time></trkpt><trkpt lat="39.28279537842879" lon="16.53567844839867"><ele>1556.0</ele><time>2026-04-25T09:50:48.712Z</time></trkpt><trkpt lat="39.28259397731141" lon="16.535475253080257"><ele>1558.0</ele><time>2026-04-25T09:50:49.712Z</time></trkpt><trkpt lat="39.282400941831014" lon="16.535278695770263"><ele>1560.0</ele><time>2026-04-25T09:50:50.711Z</time></trkpt><trkpt lat="39.282222195734505" lon="16.535095053991423"><ele>1560.3333333333335</ele><time>2026-04-25T09:50:51.711Z</time></trkpt><trkpt lat="39.28205520608515" lon="16.53492268287661"><ele>1560.6666666666667</ele><time>2026-04-25T09:50:52.711Z</time></trkpt><trkpt lat="39.2818803966646" lon="16.53474891094435"><ele>1561.0</ele><time>2026-04-25T09:50:53.711Z</time></trkpt><trkpt lat="39.281705096328686" lon="16.534570925773487"><ele>1562.0</ele><time>2026-04-25T09:50:54.711Z</time></trkpt><trkpt lat="39.28154399500123" lon="16.534393510617775"><ele>1563.0</ele><time>2026-04-25T09:50:55.711Z</time></trkpt><trkpt lat="39.28140129006367" lon="16.5342419573073"><ele>1564.0</ele><time>2026-04-25T09:50:56.711Z</time></trkpt><trkpt lat="39.28125493389333" lon="16.53410666359694"><ele>1564.6666666666667</ele><time>2026-04-25T09:50:57.711Z</time></trkpt><trkpt lat="39.28109811839102" lon="16.533993780477264"><ele>1565.3333333333335</ele><time>2026-04-25T09:50:58.711Z</time></trkpt><trkpt lat="39.28092893130476" lon="16.53391381325312"><ele>1566.0</ele><time>2026-04-25T09:50:59.711Z</time></trkpt><trkpt lat="39.28075588238687" lon="16.53388657113043"><ele>1565.3333333333335</ele><time>2026-04-25T09:51:00.711Z</time></trkpt><trkpt lat="39.28057277628421" lon="16.533908947269037"><ele>1564.6666666666667</ele><time>2026-04-25T09:51:01.711Z</time></trkpt><trkpt lat="39.280383926599804" lon="16.533977352190483"><ele>1564.0</ele><time>2026-04-25T09:51:02.711Z</time></trkpt><trkpt lat="39.28018260798265" lon="16.534083117911266"><ele>1564.0</ele><time>2026-04-25T09:51:03.711Z</time></trkpt><trkpt lat="39.27996683548326" lon="16.534199103104637"><ele>1564.0</ele><time>2026-04-25T09:51:04.711Z</time></trkpt><trkpt lat="39.27973902106526" lon="16.534306626511608"><ele>1568.0</ele><time>2026-04-25T09:51:05.711Z</time></trkpt><trkpt lat="39.279497848398385" lon="16.534418607430148"><ele>1572.0</ele><time>2026-04-25T09:51:06.711Z</time></trkpt><trkpt lat="39.27924964988603" lon="16.534540450490482"><ele>1565.5</ele><time>2026-04-25T09:51:07.711Z</time></trkpt><trkpt lat="39.27899046133611" lon="16.53464927859452"><ele>1559.0</ele><time>2026-04-25T09:51:08.712Z</time></trkpt><trkpt lat="39.278726423966454" lon="16.534780259843558"><ele>1559.0</ele><time>2026-04-25T09:51:09.712Z</time></trkpt><trkpt lat="39.278460039348204" lon="16.534918266106583"><ele>1559.0</ele><time>2026-04-25T09:51:10.712Z</time></trkpt><trkpt lat="39.27821609719144" lon="16.535043464616205"><ele>1562.0</ele><time>2026-04-25T09:51:11.712Z</time></trkpt><trkpt lat="39.27797896005792" lon="16.535163358645715"><ele>1565.0</ele><time>2026-04-25T09:51:12.712Z</time></trkpt><trkpt lat="39.277750983244154" lon="16.535277451879217"><ele>1557.5</ele><time>2026-04-25T09:51:13.712Z</time></trkpt><trkpt lat="39.2775240008919" lon="16.535392687523192"><ele>1550.0</ele><time>2026-04-25T09:51:14.712Z</time></trkpt><trkpt lat="39.277298491445194" lon="16.5355133088358"><ele>1551.5</ele><time>2026-04-25T09:51:15.712Z</time></trkpt><trkpt lat="39.27708711197044" lon="16.535652122615335"><ele>1553.0</ele><time>2026-04-25T09:51:16.712Z</time></trkpt><trkpt lat="39.27689001843105" lon="16.535803304586246"><ele>1553.0</ele><time>2026-04-25T09:51:17.712Z</time></trkpt><trkpt lat="39.27669067376034" lon="16.535974843219826"><ele>1553.0</ele><time>2026-04-25T09:51:18.712Z</time></trkpt><trkpt lat="39.27649422521196" lon="16.536151905998583"><ele>1548.3333333333333</ele><time>2026-04-25T09:51:19.712Z</time></trkpt><trkpt lat="39.276311135186546" lon="16.53630108952952"><ele>1543.6666666666665</ele><time>2026-04-25T09:51:20.712Z</time></trkpt><trkpt lat="39.27612451172668" lon="16.536435598928065"><ele>1539.0</ele><time>2026-04-25T09:51:21.712Z</time></trkpt><trkpt lat="39.27594488707173" lon="16.536545173678284"><ele>1539.0</ele><time>2026-04-25T09:51:22.712Z</time></trkpt><trkpt lat="39.27575507270165" lon="16.536619084776273"><ele>1539.0</ele><time>2026-04-25T09:51:23.712Z</time></trkpt><trkpt lat="39.27555542369195" lon="16.536628878545123"><ele>1539.0</ele><time>2026-04-25T09:51:24.712Z</time></trkpt><trkpt lat="39.275365972273576" lon="16.536663102835565"><ele>1541.0</ele><time>2026-04-25T09:51:25.712Z</time></trkpt><trkpt lat="39.27520052454177" lon="16.536690647931056"><ele>1543.0</ele><time>2026-04-25T09:51:26.712Z</time></trkpt><trkpt lat="39.275045350745174" lon="16.536757041312768"><ele>1545.0</ele><time>2026-04-25T09:51:27.712Z</time></trkpt><trkpt lat="39.27490867851087" lon="16.536877956498145"><ele>1545.0</ele><time>2026-04-25T09:51:28.712Z</time></trkpt><trkpt lat="39.274777203238536" lon="16.53704462635616"><ele>1545.0</ele><time>2026-04-25T09:51:29.712Z</time></trkpt><trkpt lat="39.274650085445224" lon="16.53725471001449"><ele>1545.0</ele><time>2026-04-25T09:51:30.712Z</time></trkpt><trkpt lat="39.274491583562025" lon="16.537452103853212"><ele>1546.5</ele><time>2026-04-25T09:51:31.712Z</time></trkpt><trkpt lat="39.27433717578882" lon="16.53766561135753"><ele>1548.0</ele><time>2026-04-25T09:51:32.712Z</time></trkpt><trkpt lat="39.2742860217735" lon="16.53795823523301"><ele>1543.3333333333333</ele><time>2026-04-25T09:51:33.712Z</time></trkpt><trkpt lat="39.27417766736321" lon="16.538132771108025"><ele>1538.6666666666665</ele><time>2026-04-25T09:51:34.712Z</time></trkpt><trkpt lat="39.27406371615871" lon="16.538270449966173"><ele>1534.0</ele><time>2026-04-25T09:51:35.712Z</time></trkpt><trkpt lat="39.27392940124946" lon="16.538367267016184"><ele>1531.6666666666665</ele><time>2026-04-25T09:51:36.712Z</time></trkpt><trkpt lat="39.27377167916803" lon="16.538423563460622"><ele>1529.3333333333333</ele><time>2026-04-25T09:51:37.712Z</time></trkpt><trkpt lat="39.27359231224722" lon="16.538437052932633"><ele>1527.0</ele><time>2026-04-25T09:51:38.712Z</time></trkpt><trkpt lat="39.27342241335199" lon="16.538403248697126"><ele>1527.0</ele><time>2026-04-25T09:51:39.712Z</time></trkpt><trkpt lat="39.273267139509336" lon="16.53833029492212"><ele>1527.0</ele><time>2026-04-25T09:51:40.712Z</time></trkpt><trkpt lat="39.27310691417373" lon="16.53821585126722"><ele>1527.0</ele><time>2026-04-25T09:51:41.712Z</time></trkpt><trkpt lat="39.27293994365061" lon="16.538073466493717"><ele>1526.5</ele><time>2026-04-25T09:51:42.712Z</time></trkpt><trkpt lat="39.27275669881708" lon="16.53791972339096"><ele>1526.0</ele><time>2026-04-25T09:51:43.712Z</time></trkpt><trkpt lat="39.27255862179063" lon="16.53776481614823"><ele>1526.0</ele><time>2026-04-25T09:51:44.712Z</time></trkpt><trkpt lat="39.2723741772392" lon="16.53762522738275"><ele>1526.0</ele><time>2026-04-25T09:51:45.712Z</time></trkpt><trkpt lat="39.27220915600428" lon="16.537500980500557"><ele>1526.0</ele><time>2026-04-25T09:51:46.712Z</time></trkpt><trkpt lat="39.27206277860301" lon="16.53738066877661"><ele>1523.0</ele><time>2026-04-25T09:51:47.712Z</time></trkpt><trkpt lat="39.27193451356223" lon="16.53725664383097"><ele>1520.0</ele><time>2026-04-25T09:51:48.712Z</time></trkpt><trkpt lat="39.27183618575832" lon="16.53710012418565"><ele>1517.0</ele><time>2026-04-25T09:51:49.712Z</time></trkpt><trkpt lat="39.271766135329855" lon="16.53689616130554"><ele>1517.0</ele><time>2026-04-25T09:51:50.712Z</time></trkpt><trkpt lat="39.271736163432465" lon="16.536669235234957"><ele>1517.0</ele><time>2026-04-25T09:51:51.712Z</time></trkpt><trkpt lat="39.27170991441096" lon="16.53647194671683"><ele>1517.0</ele><time>2026-04-25T09:51:52.712Z</time></trkpt><trkpt lat="39.27165959526353" lon="16.536316834658585"><ele>1515.75</ele><time>2026-04-25T09:51:53.712Z</time></trkpt><trkpt lat="39.27157121190931" lon="16.536176983391453"><ele>1514.5</ele><time>2026-04-25T09:51:54.712Z</time></trkpt><trkpt lat="39.27144590467779" lon="16.536077529588837"><ele>1513.25</ele><time>2026-04-25T09:51:55.711Z</time></trkpt><trkpt lat="39.271296555515" lon="16.536031372713133"><ele>1512.0</ele><time>2026-04-25T09:51:56.711Z</time></trkpt><trkpt lat="39.27113544380227" lon="16.536030458181948"><ele>1512.0</ele><time>2026-04-25T09:51:57.711Z</time></trkpt><trkpt lat="39.270982550088426" lon="16.536075888551"><ele>1512.0</ele><time>2026-04-25T09:51:58.711Z</time></trkpt><trkpt lat="39.27085231847116" lon="16.536179710083275"><ele>1512.0</ele><time>2026-04-25T09:51:59.711Z</time></trkpt><trkpt lat="39.270743804173044" lon="16.536336693345707"><ele>1511.0</ele><time>2026-04-25T09:52:00.711Z</time></trkpt><trkpt lat="39.27063686156401" lon="16.536529738098977"><ele>1510.0</ele><time>2026-04-25T09:52:01.711Z</time></trkpt><trkpt lat="39.270512732194994" lon="16.53674660846079"><ele>1509.0</ele><time>2026-04-25T09:52:02.711Z</time></trkpt><trkpt lat="39.27039136631629" lon="16.53694594710277"><ele>1507.3333333333333</ele><time>2026-04-25T09:52:03.711Z</time></trkpt><trkpt lat="39.27027976303572" lon="16.537119117910485"><ele>1505.6666666666665</ele><time>2026-04-25T09:52:04.711Z</time></trkpt><trkpt lat="39.270167108238006" lon="16.537272499734588"><ele>1504.0</ele><time>2026-04-25T09:52:05.711Z</time></trkpt><trkpt lat="39.27004061069097" lon="16.537396624840248"><ele>1504.0</ele><time>2026-04-25T09:52:06.711Z</time></trkpt><trkpt lat="39.26988996809724" lon="16.537481138908586"><ele>1504.0</ele><time>2026-04-25T09:52:07.711Z</time></trkpt><trkpt lat="39.2697092660874" lon="16.537534768032465"><ele>1504.0</ele><time>2026-04-25T09:52:08.711Z</time></trkpt><trkpt lat="39.26951474947985" lon="16.537544762161982"><ele>1502.0</ele><time>2026-04-25T09:52:09.711Z</time></trkpt><trkpt lat="39.26932888760443" lon="16.537510542051614"><ele>1500.0</ele><time>2026-04-25T09:52:10.711Z</time></trkpt><trkpt lat="39.26916634941786" lon="16.537434859121998"><ele>1498.0</ele><time>2026-04-25T09:52:11.711Z</time></trkpt><trkpt lat="39.2690150267152" lon="16.537338813313646"><ele>1495.3333333333333</ele><time>2026-04-25T09:52:12.711Z</time></trkpt><trkpt lat="39.26886155163829" lon="16.53719918998969"><ele>1492.6666666666667</ele><time>2026-04-25T09:52:13.711Z</time></trkpt><trkpt lat="39.26870642494681" lon="16.537024799324488"><ele>1490.0</ele><time>2026-04-25T09:52:14.711Z</time></trkpt><trkpt lat="39.268558449357045" lon="16.5368560370218"><ele>1490.0</ele><time>2026-04-25T09:52:15.711Z</time></trkpt><trkpt lat="39.26842842486747" lon="16.536709753181135"><ele>1490.0</ele><time>2026-04-25T09:52:16.711Z</time></trkpt><trkpt lat="39.26829978388086" lon="16.53657009151464"><ele>1490.0</ele><time>2026-04-25T09:52:17.711Z</time></trkpt><trkpt lat="39.268179548988236" lon="16.5364326608716"><ele>1484.75</ele><time>2026-04-25T09:52:18.711Z</time></trkpt><trkpt lat="39.26808998255719" lon="16.536284458998566"><ele>1479.5</ele><time>2026-04-25T09:52:19.711Z</time></trkpt><trkpt lat="39.268022911817205" lon="16.536116453033745"><ele>1474.25</ele><time>2026-04-25T09:52:20.711Z</time></trkpt><trkpt lat="39.26798625508381" lon="16.535923003790117"><ele>1469.0</ele><time>2026-04-25T09:52:21.711Z</time></trkpt><trkpt lat="39.26797597647364" lon="16.535703564181226"><ele>1469.0</ele><time>2026-04-25T09:52:22.711Z</time></trkpt><trkpt lat="39.26799996579162" lon="16.535475567560955"><ele>1469.0</ele><time>2026-04-25T09:52:23.711Z</time></trkpt><trkpt lat="39.26805828152397" lon="16.535261454886033"><ele>1469.0</ele><time>2026-04-25T09:52:24.711Z</time></trkpt><trkpt lat="39.268150983858064" lon="16.535057682976984"><ele>1473.3333333333335</ele><time>2026-04-25T09:52:25.711Z</time></trkpt><trkpt lat="39.268249465358124" lon="16.53487050811126"><ele>1477.6666666666667</ele><time>2026-04-25T09:52:26.711Z</time></trkpt><trkpt lat="39.26833664460227" lon="16.5346973551261"><ele>1482.0</ele><time>2026-04-25T09:52:27.711Z</time></trkpt><trkpt lat="39.2683909512736" lon="16.534511732930152"><ele>1482.0</ele><time>2026-04-25T09:52:28.711Z</time></trkpt><trkpt lat="39.26841674724337" lon="16.534304946018"><ele>1482.0</ele><time>2026-04-25T09:52:29.711Z</time></trkpt><trkpt lat="39.26841422515549" lon="16.534086710745726"><ele>1482.0</ele><time>2026-04-25T09:52:30.711Z</time></trkpt><trkpt lat="39.26838137741443" lon="16.533877473066376"><ele>1482.0</ele><time>2026-04-25T09:52:31.711Z</time></trkpt><trkpt lat="39.268325605876804" lon="16.533674463532613"><ele>1482.0</ele><time>2026-04-25T09:52:32.711Z</time></trkpt><trkpt lat="39.26825640725561" lon="16.53348094218988"><ele>1482.0</ele><time>2026-04-25T09:52:33.711Z</time></trkpt><trkpt lat="39.268188127744885" lon="16.533314900583896"><ele>1482.0</ele><time>2026-04-25T09:52:34.711Z</time></trkpt><trkpt lat="39.268121407342264" lon="16.533173923751267"><ele>1482.0</ele><time>2026-04-25T09:52:35.711Z</time></trkpt><trkpt lat="39.26803649590045" lon="16.533056848278466"><ele>1482.0</ele><time>2026-04-25T09:52:36.711Z</time></trkpt><trkpt lat="39.26791941566322" lon="16.53298482085796"><ele>1482.0</ele><time>2026-04-25T09:52:37.711Z</time></trkpt><trkpt lat="39.267773092900825" lon="16.532950267976634"><ele>1479.0</ele><time>2026-04-25T09:52:38.711Z</time></trkpt><trkpt lat="39.267610196672436" lon="16.53296136341531"><ele>1476.0</ele><time>2026-04-25T09:52:39.711Z</time></trkpt><trkpt lat="39.26744997692078" lon="16.53299745379214"><ele>1473.0</ele><time>2026-04-25T09:52:40.711Z</time></trkpt><trkpt lat="39.26729966459847" lon="16.532987349943127"><ele>1472.3333333333333</ele><time>2026-04-25T09:52:41.711Z</time></trkpt><trkpt lat="39.26714952729886" lon="16.532923903472224"><ele>1471.6666666666665</ele><time>2026-04-25T09:52:42.711Z</time></trkpt><trkpt lat="39.26700686581883" lon="16.53281593912791"><ele>1471.0</ele><time>2026-04-25T09:52:43.711Z</time></trkpt><trkpt lat="39.266888623387096" lon="16.532671640770772"><ele>1471.0</ele><time>2026-04-25T09:52:44.711Z</time></trkpt><trkpt lat="39.26678982185362" lon="16.532490339350502"><ele>1471.0</ele><time>2026-04-25T09:52:45.711Z</time></trkpt><trkpt lat="39.26668664706021" lon="16.532281026731873"><ele>1471.0</ele><time>2026-04-25T09:52:46.711Z</time></trkpt><trkpt lat="39.26658733438914" lon="16.53208660362668"><ele>1474.3333333333333</ele><time>2026-04-25T09:52:47.711Z</time></trkpt><trkpt lat="39.26650685454444" lon="16.531891479951224"><ele>1477.6666666666667</ele><time>2026-04-25T09:52:48.711Z</time></trkpt><trkpt lat="39.266451508433896" lon="16.531646385111056"><ele>1481.0</ele><time>2026-04-25T09:52:49.711Z</time></trkpt><trkpt lat="39.26642589977012" lon="16.531404848923984"><ele>1473.3333333333335</ele><time>2026-04-25T09:52:50.711Z</time></trkpt><trkpt lat="39.266398903917604" lon="16.53118638375375"><ele>1465.6666666666667</ele><time>2026-04-25T09:52:51.711Z</time></trkpt><trkpt lat="39.266351512988194" lon="16.530994716995483"><ele>1458.0</ele><time>2026-04-25T09:52:52.711Z</time></trkpt><trkpt lat="39.266275903466195" lon="16.530820757095775"><ele>1458.0</ele><time>2026-04-25T09:52:53.711Z</time></trkpt><trkpt lat="39.26616109087535" lon="16.530646782308896"><ele>1458.0</ele><time>2026-04-25T09:52:54.711Z</time></trkpt><trkpt lat="39.26601973350904" lon="16.53047164970912"><ele>1458.0</ele><time>2026-04-25T09:52:55.711Z</time></trkpt><trkpt lat="39.265849314359556" lon="16.53032343625743"><ele>1463.3333333333333</ele><time>2026-04-25T09:52:56.711Z</time></trkpt><trkpt lat="39.26569433294046" lon="16.53019965829872"><ele>1468.6666666666665</ele><time>2026-04-25T09:52:57.711Z</time></trkpt><trkpt lat="39.265540104625444" lon="16.53009729066263"><ele>1474.0</ele><time>2026-04-25T09:52:58.711Z</time></trkpt><trkpt lat="39.265384746228506" lon="16.530043383032044"><ele>1474.0</ele><time>2026-04-25T09:52:59.711Z</time></trkpt><trkpt lat="39.26521633777871" lon="16.53003271035775"><ele>1474.0</ele><time>2026-04-25T09:53:00.711Z</time></trkpt><trkpt lat="39.26504177731712" lon="16.530057422669465"><ele>1474.0</ele><time>2026-04-25T09:53:01.711Z</time></trkpt><trkpt lat="39.264867704598096" lon="16.530134995631645"><ele>1475.6666666666665</ele><time>2026-04-25T09:53:02.711Z</time></trkpt><trkpt lat="39.264679458756625" lon="16.530259509541352"><ele>1477.3333333333333</ele><time>2026-04-25T09:53:03.711Z</time></trkpt><trkpt lat="39.26448273868114" lon="16.530343934304994"><ele>1479.0</ele><time>2026-04-25T09:53:04.711Z</time></trkpt><trkpt lat="39.264309641188696" lon="16.530419412256606"><ele>1471.3333333333333</ele><time>2026-04-25T09:53:05.711Z</time></trkpt><trkpt lat="39.26413030410556" lon="16.5304741188812"><ele>1463.6666666666665</ele><time>2026-04-25T09:53:06.711Z</time></trkpt><trkpt lat="39.263915000510565" lon="16.530422858638882"><ele>1456.0</ele><time>2026-04-25T09:53:07.711Z</time></trkpt><trkpt lat="39.263676756867454" lon="16.530406857691112"><ele>1456.0</ele><time>2026-04-25T09:53:08.711Z</time></trkpt><trkpt lat="39.263427514700375" lon="16.530379530274505"><ele>1456.0</ele><time>2026-04-25T09:53:09.711Z</time></trkpt><trkpt lat="39.263173169054895" lon="16.530401272273167"><ele>1457.6666666666665</ele><time>2026-04-25T09:53:10.711Z</time></trkpt><trkpt lat="39.26294341770173" lon="16.530446675125184"><ele>1459.3333333333333</ele><time>2026-04-25T09:53:11.711Z</time></trkpt><trkpt lat="39.262733560767785" lon="16.530483358110864"><ele>1461.0</ele><time>2026-04-25T09:53:12.711Z</time></trkpt><trkpt lat="39.26253154175098" lon="16.53047116973326"><ele>1461.0</ele><time>2026-04-25T09:53:13.711Z</time></trkpt><trkpt lat="39.262333834504304" lon="16.530443804593432"><ele>1461.0</ele><time>2026-04-25T09:53:14.711Z</time></trkpt><trkpt lat="39.26212042347984" lon="16.530368532432885"><ele>1461.0</ele><time>2026-04-25T09:53:15.711Z</time></trkpt><trkpt lat="39.261884045985916" lon="16.530248982420577"><ele>1460.5</ele><time>2026-04-25T09:53:16.711Z</time></trkpt><trkpt lat="39.26162401475446" lon="16.530137192082535"><ele>1460.0</ele><time>2026-04-25T09:53:17.711Z</time></trkpt><trkpt lat="39.26136032994635" lon="16.529986615373108"><ele>1454.5</ele><time>2026-04-25T09:53:18.711Z</time></trkpt><trkpt lat="39.26108690688963" lon="16.529847321263933"><ele>1449.0</ele><time>2026-04-25T09:53:19.711Z</time></trkpt><trkpt lat="39.26082041046035" lon="16.52971542957331"><ele>1448.5</ele><time>2026-04-25T09:53:20.711Z</time></trkpt><trkpt lat="39.26057036355664" lon="16.52958872747785"><ele>1448.0</ele><time>2026-04-25T09:53:21.711Z</time></trkpt><trkpt lat="39.260339106974016" lon="16.529474251654882"><ele>1447.6666666666667</ele><time>2026-04-25T09:53:22.711Z</time></trkpt><trkpt lat="39.260128629844154" lon="16.529370897498023"><ele>1447.3333333333333</ele><time>2026-04-25T09:53:23.711Z</time></trkpt><trkpt lat="39.259937536148094" lon="16.52927017524925"><ele>1447.0</ele><time>2026-04-25T09:53:24.711Z</time></trkpt><trkpt lat="39.25976348616054" lon="16.52917054950225"><ele>1446.6666666666665</ele><time>2026-04-25T09:53:25.711Z</time></trkpt><trkpt lat="39.25960862219397" lon="16.529081857272246"><ele>1446.3333333333333</ele><time>2026-04-25T09:53:26.711Z</time></trkpt><trkpt lat="39.25946568693011" lon="16.529018139202545"><ele>1446.0</ele><time>2026-04-25T09:53:27.711Z</time></trkpt><trkpt lat="39.259319934958235" lon="16.528989693357293"><ele>1446.0</ele><time>2026-04-25T09:53:28.711Z</time></trkpt><trkpt lat="39.259170672615916" lon="16.529028658278087"><ele>1446.0</ele><time>2026-04-25T09:53:29.711Z</time></trkpt><trkpt lat="39.259031265328" lon="16.529129230104427"><ele>1446.0</ele><time>2026-04-25T09:53:30.711Z</time></trkpt><trkpt lat="39.25892054790547" lon="16.529276839545865"><ele>1443.3333333333333</ele><time>2026-04-25T09:53:31.711Z</time></trkpt><trkpt lat="39.25882941234014" lon="16.529471287519286"><ele>1440.6666666666665</ele><time>2026-04-25T09:53:32.711Z</time></trkpt><trkpt lat="39.25876257145654" lon="16.529711051501405"><ele>1438.0</ele><time>2026-04-25T09:53:33.711Z</time></trkpt><trkpt lat="39.258701430091136" lon="16.52999983849015"><ele>1438.0</ele><time>2026-04-25T09:53:34.711Z</time></trkpt><trkpt lat="39.25864683336633" lon="16.53030365737812"><ele>1438.0</ele><time>2026-04-25T09:53:35.711Z</time></trkpt><trkpt lat="39.258595319712235" lon="16.53063866255996"><ele>1438.0</ele><time>2026-04-25T09:53:36.711Z</time></trkpt><trkpt lat="39.25854073067588" lon="16.530928493002992"><ele>1438.0</ele><time>2026-04-25T09:53:37.711Z</time></trkpt><trkpt lat="39.258501489009525" lon="16.531194779356056"><ele>1438.0</ele><time>2026-04-25T09:53:38.711Z</time></trkpt><trkpt lat="39.25846283768702" lon="16.531425862081043"><ele>1437.3333333333333</ele><time>2026-04-25T09:53:39.711Z</time></trkpt><trkpt lat="39.258431126054674" lon="16.531638981907"><ele>1436.6666666666667</ele><time>2026-04-25T09:53:40.711Z</time></trkpt><trkpt lat="39.25841474820882" lon="16.531847212292927"><ele>1436.0</ele><time>2026-04-25T09:53:41.711Z</time></trkpt><trkpt lat="39.258425853482365" lon="16.532055695620592"><ele>1436.0</ele><time>2026-04-25T09:53:42.711Z</time></trkpt><trkpt lat="39.25845149508886" lon="16.53225513911563"><ele>1436.0</ele><time>2026-04-25T09:53:43.711Z</time></trkpt><trkpt lat="39.25850545140669" lon="16.532482653245097"><ele>1436.0</ele><time>2026-04-25T09:53:44.711Z</time></trkpt><trkpt lat="39.25858254635421" lon="16.532705562824"><ele>1436.6666666666667</ele><time>2026-04-25T09:53:45.711Z</time></trkpt><trkpt lat="39.25868144838874" lon="16.532923664576753"><ele>1437.3333333333333</ele><time>2026-04-25T09:53:46.711Z</time></trkpt><trkpt lat="39.25880607009421" lon="16.533133983048163"><ele>1438.0</ele><time>2026-04-25T09:53:47.711Z</time></trkpt><trkpt lat="39.258962199796606" lon="16.533327898542456"><ele>1438.0</ele><time>2026-04-25T09:53:48.711Z</time></trkpt><trkpt lat="39.259147882166616" lon="16.533518115995193"><ele>1438.0</ele><time>2026-04-25T09:53:49.711Z</time></trkpt><trkpt lat="39.259321329511685" lon="16.533707648590433"><ele>1432.6666666666665</ele><time>2026-04-25T09:53:50.711Z</time></trkpt><trkpt lat="39.259475696593945" lon="16.533884934786098"><ele>1427.3333333333333</ele><time>2026-04-25T09:53:51.711Z</time></trkpt><trkpt lat="39.25961231323778" lon="16.534038840346945"><ele>1422.0</ele><time>2026-04-25T09:53:52.711Z</time></trkpt><trkpt lat="39.25968343279128" lon="16.534231759072853"><ele>1422.0</ele><time>2026-04-25T09:53:53.711Z</time></trkpt><trkpt lat="39.25973370048892" lon="16.53443255320893"><ele>1422.0</ele><time>2026-04-25T09:53:54.711Z</time></trkpt><trkpt lat="39.259740640484196" lon="16.534671890833863"><ele>1422.0</ele><time>2026-04-25T09:53:55.711Z</time></trkpt><trkpt lat="39.25971019950098" lon="16.534940897970724"><ele>1415.0</ele><time>2026-04-25T09:53:56.711Z</time></trkpt><trkpt lat="39.25966510057403" lon="16.535239369240816"><ele>1408.0</ele><time>2026-04-25T09:53:57.711Z</time></trkpt><trkpt lat="39.25960879693905" lon="16.535541787384282"><ele>1407.0</ele><time>2026-04-25T09:53:58.711Z</time></trkpt><trkpt lat="39.25956163965421" lon="16.535837063055027"><ele>1406.0</ele><time>2026-04-25T09:53:59.711Z</time></trkpt><trkpt lat="39.25952789445138" lon="16.53611939878288"><ele>1406.3333333333335</ele><time>2026-04-25T09:54:00.711Z</time></trkpt><trkpt lat="39.259487990198586" lon="16.536364394966615"><ele>1406.6666666666667</ele><time>2026-04-25T09:54:01.711Z</time></trkpt><trkpt lat="39.25945809452842" lon="16.536598819107475"><ele>1407.0</ele><time>2026-04-25T09:54:02.711Z</time></trkpt><trkpt lat="39.25943725205669" lon="16.536813156617193"><ele>1407.0</ele><time>2026-04-25T09:54:03.711Z</time></trkpt><trkpt lat="39.25942159645" lon="16.537020435836393"><ele>1407.0</ele><time>2026-04-25T09:54:04.711Z</time></trkpt><trkpt lat="39.25941165965194" lon="16.53722471447813"><ele>1407.0</ele><time>2026-04-25T09:54:05.711Z</time></trkpt><trkpt lat="39.259411443491814" lon="16.537424205986802"><ele>1406.3333333333333</ele><time>2026-04-25T09:54:06.711Z</time></trkpt><trkpt lat="39.259417986967435" lon="16.537629956385835"><ele>1405.6666666666665</ele><time>2026-04-25T09:54:07.711Z</time></trkpt><trkpt lat="39.25943034344465" lon="16.53783683136489"><ele>1405.0</ele><time>2026-04-25T09:54:08.711Z</time></trkpt><trkpt lat="39.25943504429523" lon="16.538040514072105"><ele>1404.3333333333333</ele><time>2026-04-25T09:54:09.711Z</time></trkpt><trkpt lat="39.25943976303203" lon="16.538247803969984"><ele>1403.6666666666667</ele><time>2026-04-25T09:54:10.711Z</time></trkpt><trkpt lat="39.25943657528448" lon="16.538441367777025"><ele>1403.0</ele><time>2026-04-25T09:54:11.711Z</time></trkpt><trkpt lat="39.25940596125755" lon="16.538630679329277"><ele>1401.3333333333335</ele><time>2026-04-25T09:54:12.711Z</time></trkpt><trkpt lat="39.25934998083646" lon="16.538813271846717"><ele>1399.6666666666667</ele><time>2026-04-25T09:54:13.711Z</time></trkpt><trkpt lat="39.25927482182395" lon="16.538993182059386"><ele>1398.0</ele><time>2026-04-25T09:54:14.711Z</time></trkpt><trkpt lat="39.259187750430456" lon="16.539164412113106"><ele>1398.0</ele><time>2026-04-25T09:54:15.711Z</time></trkpt><trkpt lat="39.25909380944333" lon="16.539318608660164"><ele>1398.0</ele><time>2026-04-25T09:54:16.711Z</time></trkpt><trkpt lat="39.25899501382776" lon="16.53946233542399"><ele>1398.0</ele><time>2026-04-25T09:54:17.711Z</time></trkpt><trkpt lat="39.25888782677011" lon="16.539607132931103"><ele>1398.0</ele><time>2026-04-25T09:54:18.711Z</time></trkpt><trkpt lat="39.258774510681214" lon="16.539762391975973"><ele>1398.0</ele><time>2026-04-25T09:54:19.711Z</time></trkpt><trkpt lat="39.25865891958611" lon="16.539923715064344"><ele>1398.0</ele><time>2026-04-25T09:54:20.711Z</time></trkpt><trkpt lat="39.25854584878632" lon="16.540090078048614"><ele>1398.0</ele><time>2026-04-25T09:54:21.711Z</time></trkpt><trkpt lat="39.258427064900324" lon="16.540265133324166"><ele>1398.0</ele><time>2026-04-25T09:54:22.711Z</time></trkpt><trkpt lat="39.25829714796758" lon="16.54044993145865"><ele>1398.0</ele><time>2026-04-25T09:54:23.711Z</time></trkpt><trkpt lat="39.258181140407245" lon="16.540608059131397"><ele>1398.6666666666667</ele><time>2026-04-25T09:54:24.711Z</time></trkpt><trkpt lat="39.25806691725843" lon="16.540754755324894"><ele>1399.3333333333335</ele><time>2026-04-25T09:54:25.711Z</time></trkpt><trkpt lat="39.257939042771746" lon="16.540889530477084"><ele>1400.0</ele><time>2026-04-25T09:54:26.711Z</time></trkpt><trkpt lat="39.257795702777585" lon="16.541008971488356"><ele>1400.0</ele><time>2026-04-25T09:54:27.711Z</time></trkpt><trkpt lat="39.25761940670733" lon="16.54112722287978"><ele>1400.0</ele><time>2026-04-25T09:54:28.711Z</time></trkpt><trkpt lat="39.2574039648744" lon="16.54124039889523"><ele>1400.0</ele><time>2026-04-25T09:54:29.711Z</time></trkpt><trkpt lat="39.257165208869736" lon="16.541350885612186"><ele>1401.0</ele><time>2026-04-25T09:54:30.711Z</time></trkpt><trkpt lat="39.25690394482524" lon="16.541459659413718"><ele>1402.0</ele><time>2026-04-25T09:54:31.711Z</time></trkpt><trkpt lat="39.256655688330234" lon="16.54155932876488"><ele>1399.3333333333333</ele><time>2026-04-25T09:54:32.711Z</time></trkpt><trkpt lat="39.25643472635493" lon="16.541660614690503"><ele>1396.6666666666667</ele><time>2026-04-25T09:54:33.711Z</time></trkpt><trkpt lat="39.25624883792044" lon="16.54174917567724"><ele>1394.0</ele><time>2026-04-25T09:54:34.711Z</time></trkpt><trkpt lat="39.25607928147208" lon="16.54182529706697"><ele>1394.0</ele><time>2026-04-25T09:54:35.711Z</time></trkpt><trkpt lat="39.25593662021269" lon="16.541897524007407"><ele>1394.0</ele><time>2026-04-25T09:54:36.711Z</time></trkpt><trkpt lat="39.25580859446609" lon="16.541989917343244"><ele>1394.0</ele><time>2026-04-25T09:54:37.711Z</time></trkpt><trkpt lat="39.255688216537074" lon="16.542119132721243"><ele>1390.3333333333335</ele><time>2026-04-25T09:54:38.711Z</time></trkpt><trkpt lat="39.25558535229529" lon="16.542286073635715"><ele>1386.6666666666667</ele><time>2026-04-25T09:54:39.711Z</time></trkpt><trkpt lat="39.25551121303224" lon="16.542499355914867"><ele>1383.0</ele><time>2026-04-25T09:54:40.711Z</time></trkpt><trkpt lat="39.25547124740233" lon="16.542742518193805"><ele>1384.6666666666667</ele><time>2026-04-25T09:54:41.711Z</time></trkpt><trkpt lat="39.255466509513205" lon="16.543001632335017"><ele>1386.3333333333335</ele><time>2026-04-25T09:54:42.711Z</time></trkpt><trkpt lat="39.255473245849366" lon="16.543258929140563"><ele>1388.0</ele><time>2026-04-25T09:54:43.711Z</time></trkpt><trkpt lat="39.25545965519092" lon="16.543472902578532"><ele>1388.0</ele><time>2026-04-25T09:54:44.711Z</time></trkpt><trkpt lat="39.2554164809369" lon="16.54366914440845"><ele>1388.0</ele><time>2026-04-25T09:54:45.711Z</time></trkpt><trkpt lat="39.2553333607712" lon="16.543830433879656"><ele>1388.0</ele><time>2026-04-25T09:54:46.711Z</time></trkpt><trkpt lat="39.25522112177068" lon="16.543966265429255"><ele>1388.3333333333335</ele><time>2026-04-25T09:54:47.711Z</time></trkpt><trkpt lat="39.255078437373705" lon="16.544070944050706"><ele>1388.6666666666667</ele><time>2026-04-25T09:54:48.711Z</time></trkpt><trkpt lat="39.25491976566544" lon="16.544135542014967"><ele>1389.0</ele><time>2026-04-25T09:54:49.711Z</time></trkpt><trkpt lat="39.254763021459" lon="16.544138725061345"><ele>1389.0</ele><time>2026-04-25T09:54:50.711Z</time></trkpt><trkpt lat="39.254594037792586" lon="16.544093224098717"><ele>1389.0</ele><time>2026-04-25T09:54:51.711Z</time></trkpt><trkpt lat="39.25441353809469" lon="16.54399506466457"><ele>1389.0</ele><time>2026-04-25T09:54:52.711Z</time></trkpt><trkpt lat="39.25423356271769" lon="16.543879352371125"><ele>1389.0</ele><time>2026-04-25T09:54:53.711Z</time></trkpt><trkpt lat="39.25407061469673" lon="16.54377029182077"><ele>1389.0</ele><time>2026-04-25T09:54:54.711Z</time></trkpt><trkpt lat="39.253913075966054" lon="16.54367912630968"><ele>1389.0</ele><time>2026-04-25T09:54:55.711Z</time></trkpt><trkpt lat="39.25375561491918" lon="16.543599293484135"><ele>1386.0</ele><time>2026-04-25T09:54:56.711Z</time></trkpt><trkpt lat="39.25359838685095" lon="16.543530504616985"><ele>1383.0</ele><time>2026-04-25T09:54:57.711Z</time></trkpt><trkpt lat="39.25344885563086" lon="16.543457084276948"><ele>1380.0</ele><time>2026-04-25T09:54:58.711Z</time></trkpt><trkpt lat="39.25330617871431" lon="16.54336050700814"><ele>1380.0</ele><time>2026-04-25T09:54:59.71Z</time></trkpt><trkpt lat="39.25316989735842" lon="16.543259487976254"><ele>1380.0</ele><time>2026-04-25T09:55:00.71Z</time></trkpt><trkpt lat="39.25303090725241" lon="16.54317336547334"><ele>1380.0</ele><time>2026-04-25T09:55:01.71Z</time></trkpt><trkpt lat="39.252882936068666" lon="16.543112820414045"><ele>1377.6666666666667</ele><time>2026-04-25T09:55:02.71Z</time></trkpt><trkpt lat="39.252730498958684" lon="16.54309289468071"><ele>1375.3333333333335</ele><time>2026-04-25T09:55:03.71Z</time></trkpt><trkpt lat="39.25258168514588" lon="16.54311998274164"><ele>1373.0</ele><time>2026-04-25T09:55:04.71Z</time></trkpt><trkpt lat="39.25244281865102" lon="16.543183355039695"><ele>1373.0</ele><time>2026-04-25T09:55:05.71Z</time></trkpt><trkpt lat="39.25231594465673" lon="16.54327239149136"><ele>1373.0</ele><time>2026-04-25T09:55:06.71Z</time></trkpt><trkpt lat="39.25220062594632" lon="16.543376741003982"><ele>1373.0</ele><time>2026-04-25T09:55:07.71Z</time></trkpt><trkpt lat="39.25210909092486" lon="16.543506306755134"><ele>1373.0</ele><time>2026-04-25T09:55:08.71Z</time></trkpt><trkpt lat="39.25205670548015" lon="16.543663692117637"><ele>1369.0</ele><time>2026-04-25T09:55:09.71Z</time></trkpt><trkpt lat="39.252039161260825" lon="16.543865514365518"><ele>1365.0</ele><time>2026-04-25T09:55:10.71Z</time></trkpt><trkpt lat="39.25203665819097" lon="16.54411950607814"><ele>1361.0</ele><time>2026-04-25T09:55:11.71Z</time></trkpt><trkpt lat="39.25202418140535" lon="16.544382455581946"><ele>1362.5</ele><time>2026-04-25T09:55:12.71Z</time></trkpt><trkpt lat="39.25201099627018" lon="16.544669852652195"><ele>1364.0</ele><time>2026-04-25T09:55:13.71Z</time></trkpt><trkpt lat="39.252002999486415" lon="16.54496639379334"><ele>1364.0</ele><time>2026-04-25T09:55:14.71Z</time></trkpt><trkpt lat="39.25200837594676" lon="16.545244539120034"><ele>1364.0</ele><time>2026-04-25T09:55:15.71Z</time></trkpt><trkpt lat="39.25202262912425" lon="16.54550116242781"><ele>1364.0</ele><time>2026-04-25T09:55:16.71Z</time></trkpt><trkpt lat="39.25204097856452" lon="16.545746672668525"><ele>1364.3333333333335</ele><time>2026-04-25T09:55:17.71Z</time></trkpt><trkpt lat="39.252053453499656" lon="16.545983792798395"><ele>1364.6666666666667</ele><time>2026-04-25T09:55:18.71Z</time></trkpt><trkpt lat="39.25206732153339" lon="16.546210688247648"><ele>1365.0</ele><time>2026-04-25T09:55:19.71Z</time></trkpt><trkpt lat="39.25208212982107" lon="16.546431027726673"><ele>1364.5</ele><time>2026-04-25T09:55:20.711Z</time></trkpt><trkpt lat="39.25209623524176" lon="16.546632097043393"><ele>1364.0</ele><time>2026-04-25T09:55:21.711Z</time></trkpt><trkpt lat="39.252110657513136" lon="16.546817707960138"><ele>1363.5</ele><time>2026-04-25T09:55:22.711Z</time></trkpt><trkpt lat="39.25212049108435" lon="16.546998277557783"><ele>1363.0</ele><time>2026-04-25T09:55:23.711Z</time></trkpt><trkpt lat="39.252131928813604" lon="16.547176786132713"><ele>1362.0</ele><time>2026-04-25T09:55:24.711Z</time></trkpt><trkpt lat="39.2521407205539" lon="16.54735762770859"><ele>1361.0</ele><time>2026-04-25T09:55:25.711Z</time></trkpt><trkpt lat="39.25215233145243" lon="16.547535518302592"><ele>1360.0</ele><time>2026-04-25T09:55:26.711Z</time></trkpt><trkpt lat="39.25216421763471" lon="16.54771230987618"><ele>1359.0</ele><time>2026-04-25T09:55:27.711Z</time></trkpt><trkpt lat="39.25217925178887" lon="16.547893417696137"><ele>1357.75</ele><time>2026-04-25T09:55:28.711Z</time></trkpt><trkpt lat="39.25219139408447" lon="16.54807757799585"><ele>1356.5</ele><time>2026-04-25T09:55:29.711Z</time></trkpt><trkpt lat="39.25220211635411" lon="16.54825971024796"><ele>1355.25</ele><time>2026-04-25T09:55:30.711Z</time></trkpt><trkpt lat="39.252212652813895" lon="16.548444705871646"><ele>1354.0</ele><time>2026-04-25T09:55:31.711Z</time></trkpt><trkpt lat="39.25222294198935" lon="16.54862898937371"><ele>1351.75</ele><time>2026-04-25T09:55:32.711Z</time></trkpt><trkpt lat="39.252228816118624" lon="16.548817656323962"><ele>1349.5</ele><time>2026-04-25T09:55:33.711Z</time></trkpt><trkpt lat="39.25221748153685" lon="16.54900687366632"><ele>1347.25</ele><time>2026-04-25T09:55:34.711Z</time></trkpt><trkpt lat="39.25218615468991" lon="16.549188846103487"><ele>1345.0</ele><time>2026-04-25T09:55:35.711Z</time></trkpt><trkpt lat="39.25212061989316" lon="16.549356500435895"><ele>1345.0</ele><time>2026-04-25T09:55:36.711Z</time></trkpt><trkpt lat="39.252043449643594" lon="16.549509000325493"><ele>1345.0</ele><time>2026-04-25T09:55:37.711Z</time></trkpt><trkpt lat="39.25194297404816" lon="16.549630661877362"><ele>1345.0</ele><time>2026-04-25T09:55:38.711Z</time></trkpt><trkpt lat="39.25182752740044" lon="16.549726032194275"><ele>1345.0</ele><time>2026-04-25T09:55:39.711Z</time></trkpt><trkpt lat="39.251702281124636" lon="16.54978344350162"><ele>1344.25</ele><time>2026-04-25T09:55:40.711Z</time></trkpt><trkpt lat="39.25157476978414" lon="16.5498170023044"><ele>1343.5</ele><time>2026-04-25T09:55:41.711Z</time></trkpt><trkpt lat="39.251447665821416" lon="16.54982714774446"><ele>1342.75</ele><time>2026-04-25T09:55:42.711Z</time></trkpt><trkpt lat="39.25132721049856" lon="16.549821424084033"><ele>1342.0</ele><time>2026-04-25T09:55:43.711Z</time></trkpt><trkpt lat="39.251220533685306" lon="16.549806111884255"><ele>1342.0</ele><time>2026-04-25T09:55:44.711Z</time></trkpt><trkpt lat="39.25112943436928" lon="16.54978297667042"><ele>1342.0</ele><time>2026-04-25T09:55:45.711Z</time></trkpt><trkpt lat="39.2510546007986" lon="16.549747379906826"><ele>1342.0</ele><time>2026-04-25T09:55:46.711Z</time></trkpt><trkpt lat="39.25099822328391" lon="16.54969808727594"><ele>1342.0</ele><time>2026-04-25T09:55:47.711Z</time></trkpt><trkpt lat="39.25093205881253" lon="16.54959208268552"><ele>1342.0</ele><time>2026-04-25T09:55:49.711Z</time></trkpt><trkpt lat="39.25090249752965" lon="16.549507943379428"><ele>1342.0</ele><time>2026-04-25T09:55:51.711Z</time></trkpt><trkpt lat="39.25086901942484" lon="16.549387176609333"><ele>1342.0</ele><time>2026-04-25T09:55:53.711Z</time></trkpt><trkpt lat="39.25090027457635" lon="16.549300914866045"><ele>1342.0</ele><time>2026-04-25T09:55:54.711Z</time></trkpt><trkpt lat="39.2509197747097" lon="16.54920718942551"><ele>1342.0</ele><time>2026-04-25T09:55:55.711Z</time></trkpt><trkpt lat="39.25093882093668" lon="16.549106822303678"><ele>1342.0</ele><time>2026-04-25T09:55:56.711Z</time></trkpt><trkpt lat="39.250945050801896" lon="16.548997454571587"><ele>1342.0</ele><time>2026-04-25T09:55:57.711Z</time></trkpt><trkpt lat="39.25093861130829" lon="16.548880435685934"><ele>1342.0</ele><time>2026-04-25T09:55:58.711Z</time></trkpt><trkpt lat="39.25092052038591" lon="16.548754030932997"><ele>1341.6</ele><time>2026-04-25T09:55:59.711Z</time></trkpt><trkpt lat="39.25089498423636" lon="16.548624796136068"><ele>1341.1999999999998</ele><time>2026-04-25T09:56:00.711Z</time></trkpt><trkpt lat="39.25086279453459" lon="16.54848926773551"><ele>1340.8</ele><time>2026-04-25T09:56:01.711Z</time></trkpt><trkpt lat="39.25082619705338" lon="16.548350931804514"><ele>1340.4</ele><time>2026-04-25T09:56:02.711Z</time></trkpt><trkpt lat="39.25078665319492" lon="16.5482101358799"><ele>1340.0</ele><time>2026-04-25T09:56:03.711Z</time></trkpt><trkpt lat="39.25074582383808" lon="16.548065580681627"><ele>1340.0</ele><time>2026-04-25T09:56:04.711Z</time></trkpt><trkpt lat="39.250703534393125" lon="16.547910656273967"><ele>1340.0</ele><time>2026-04-25T09:56:05.711Z</time></trkpt><trkpt lat="39.25065892157523" lon="16.547762011452534"><ele>1340.0</ele><time>2026-04-25T09:56:06.711Z</time></trkpt><trkpt lat="39.25060421011596" lon="16.54763557225682"><ele>1340.0</ele><time>2026-04-25T09:56:07.711Z</time></trkpt><trkpt lat="39.25053403677039" lon="16.54752842985547"><ele>1339.6</ele><time>2026-04-25T09:56:08.711Z</time></trkpt><trkpt lat="39.2504415652114" lon="16.547432532711436"><ele>1339.2</ele><time>2026-04-25T09:56:09.711Z</time></trkpt><trkpt lat="39.25034125354568" lon="16.54735230482268"><ele>1338.8000000000002</ele><time>2026-04-25T09:56:10.711Z</time></trkpt><trkpt lat="39.25023869321119" lon="16.547283902853845"><ele>1338.4</ele><time>2026-04-25T09:56:11.711Z</time></trkpt><trkpt lat="39.250153764339075" lon="16.54723518270529"><ele>1338.0</ele><time>2026-04-25T09:56:12.711Z</time></trkpt><trkpt lat="39.250093346353694" lon="16.54716194381927"><ele>1340.25</ele><time>2026-04-25T09:56:13.711Z</time></trkpt><trkpt lat="39.24996401360621" lon="16.547017546504414"><ele>1342.5</ele><time>2026-04-25T09:56:14.711Z</time></trkpt><trkpt lat="39.249915568920535" lon="16.546867825195744"><ele>1344.75</ele><time>2026-04-25T09:56:15.711Z</time></trkpt><trkpt lat="39.249879738577434" lon="16.5467136639293"><ele>1347.0</ele><time>2026-04-25T09:56:16.711Z</time></trkpt><trkpt lat="39.24984485306475" lon="16.546524953889516"><ele>1347.0</ele><time>2026-04-25T09:56:17.711Z</time></trkpt><trkpt lat="39.249813891991735" lon="16.546322277827414"><ele>1347.0</ele><time>2026-04-25T09:56:18.711Z</time></trkpt><trkpt lat="39.249756931326125" lon="16.5460833780363"><ele>1347.0</ele><time>2026-04-25T09:56:19.711Z</time></trkpt><trkpt lat="39.249719914939114" lon="16.545824656715133"><ele>1346.6666666666667</ele><time>2026-04-25T09:56:20.711Z</time></trkpt><trkpt lat="39.24968289119066" lon="16.54560170449534"><ele>1346.3333333333335</ele><time>2026-04-25T09:56:21.711Z</time></trkpt><trkpt lat="39.249646432446255" lon="16.545392236134607"><ele>1346.0</ele><time>2026-04-25T09:56:22.71Z</time></trkpt><trkpt lat="39.24961877685978" lon="16.54519465382771"><ele>1345.3333333333335</ele><time>2026-04-25T09:56:23.71Z</time></trkpt><trkpt lat="39.249634337165425" lon="16.545001706383317"><ele>1344.6666666666667</ele><time>2026-04-25T09:56:24.71Z</time></trkpt><trkpt lat="39.249651104763856" lon="16.544807035516524"><ele>1344.0</ele><time>2026-04-25T09:56:25.71Z</time></trkpt><trkpt lat="39.24967754221103" lon="16.54459893389385"><ele>1342.6666666666667</ele><time>2026-04-25T09:56:26.71Z</time></trkpt><trkpt lat="39.24971226697137" lon="16.544383342011518"><ele>1341.3333333333335</ele><time>2026-04-25T09:56:27.71Z</time></trkpt><trkpt lat="39.24973831972108" lon="16.544169331308414"><ele>1340.0</ele><time>2026-04-25T09:56:28.71Z</time></trkpt><trkpt lat="39.249774082026526" lon="16.54397113898433"><ele>1340.25</ele><time>2026-04-25T09:56:29.71Z</time></trkpt><trkpt lat="39.24981218055635" lon="16.54378659079626"><ele>1340.5</ele><time>2026-04-25T09:56:30.71Z</time></trkpt><trkpt lat="39.24984427460168" lon="16.543601800857815"><ele>1340.75</ele><time>2026-04-25T09:56:31.71Z</time></trkpt><trkpt lat="39.24987689958155" lon="16.54340955292144"><ele>1341.0</ele><time>2026-04-25T09:56:32.71Z</time></trkpt><trkpt lat="39.24990961021839" lon="16.543214475950343"><ele>1339.3333333333333</ele><time>2026-04-25T09:56:33.71Z</time></trkpt><trkpt lat="39.24994464131809" lon="16.54301712100307"><ele>1337.6666666666665</ele><time>2026-04-25T09:56:34.71Z</time></trkpt><trkpt lat="39.24997956238889" lon="16.542813153978358"><ele>1336.0</ele><time>2026-04-25T09:56:35.71Z</time></trkpt><trkpt lat="39.25001587747378" lon="16.542605853766766"><ele>1334.0</ele><time>2026-04-25T09:56:36.71Z</time></trkpt><trkpt lat="39.250053717851934" lon="16.542396739401408"><ele>1332.0</ele><time>2026-04-25T09:56:37.71Z</time></trkpt><trkpt lat="39.25009095086367" lon="16.542186884648686"><ele>1330.0</ele><time>2026-04-25T09:56:38.71Z</time></trkpt><trkpt lat="39.250126016590336" lon="16.54198539579058"><ele>1329.25</ele><time>2026-04-25T09:56:39.71Z</time></trkpt><trkpt lat="39.25016020659565" lon="16.54182153562933"><ele>1328.5</ele><time>2026-04-25T09:56:40.71Z</time></trkpt><trkpt lat="39.25021212557867" lon="16.54168248445484"><ele>1327.75</ele><time>2026-04-25T09:56:41.71Z</time></trkpt><trkpt lat="39.25032086921963" lon="16.54158688538318"><ele>1327.0</ele><time>2026-04-25T09:56:42.71Z</time></trkpt><trkpt lat="39.25042362358047" lon="16.54148050632814"><ele>1327.0</ele><time>2026-04-25T09:56:43.71Z</time></trkpt><trkpt lat="39.25050524001812" lon="16.541381430502337"><ele>1327.0</ele><time>2026-04-25T09:56:44.71Z</time></trkpt><trkpt lat="39.25058283214989" lon="16.54128024240895"><ele>1327.0</ele><time>2026-04-25T09:56:45.71Z</time></trkpt><trkpt lat="39.25062756724667" lon="16.541130882765138"><ele>1327.0</ele><time>2026-04-25T09:56:46.71Z</time></trkpt><trkpt lat="39.2506225799765" lon="16.54093997433243"><ele>1325.3333333333333</ele><time>2026-04-25T09:56:47.71Z</time></trkpt><trkpt lat="39.25057461261615" lon="16.54072106836401"><ele>1323.6666666666667</ele><time>2026-04-25T09:56:48.71Z</time></trkpt><trkpt lat="39.250537162044026" lon="16.540505643125446"><ele>1322.0</ele><time>2026-04-25T09:56:49.71Z</time></trkpt><trkpt lat="39.25051810499429" lon="16.540306476408027"><ele>1320.75</ele><time>2026-04-25T09:56:50.71Z</time></trkpt><trkpt lat="39.25052951636348" lon="16.54011003803329"><ele>1319.5</ele><time>2026-04-25T09:56:51.71Z</time></trkpt><trkpt lat="39.250563772615536" lon="16.539915671129407"><ele>1318.25</ele><time>2026-04-25T09:56:52.71Z</time></trkpt><trkpt lat="39.250633816685834" lon="16.53975615659647"><ele>1317.0</ele><time>2026-04-25T09:56:53.71Z</time></trkpt><trkpt lat="39.25069693872503" lon="16.53961691389403"><ele>1318.25</ele><time>2026-04-25T09:56:54.71Z</time></trkpt><trkpt lat="39.250778510323805" lon="16.539525173697772"><ele>1319.5</ele><time>2026-04-25T09:56:55.71Z</time></trkpt><trkpt lat="39.25087797629878" lon="16.539508470398985"><ele>1320.75</ele><time>2026-04-25T09:56:56.71Z</time></trkpt><trkpt lat="39.25098905548936" lon="16.539490215319987"><ele>1322.0</ele><time>2026-04-25T09:56:57.71Z</time></trkpt><trkpt lat="39.25112682111952" lon="16.53947747457277"><ele>1322.0</ele><time>2026-04-25T09:56:58.71Z</time></trkpt><trkpt lat="39.25126860469555" lon="16.53944991454189"><ele>1322.0</ele><time>2026-04-25T09:56:59.71Z</time></trkpt><trkpt lat="39.251383655446716" lon="16.539393219057914"><ele>1322.0</ele><time>2026-04-25T09:57:00.71Z</time></trkpt><trkpt lat="39.25147982797202" lon="16.539275718994308"><ele>1322.0</ele><time>2026-04-25T09:57:01.71Z</time></trkpt><trkpt lat="39.251554173567584" lon="16.539083915357438"><ele>1320.6666666666667</ele><time>2026-04-25T09:57:02.71Z</time></trkpt><trkpt lat="39.2516112013844" lon="16.538846565473815"><ele>1319.3333333333333</ele><time>2026-04-25T09:57:03.71Z</time></trkpt><trkpt lat="39.25169092706693" lon="16.538600739248537"><ele>1318.0</ele><time>2026-04-25T09:57:04.71Z</time></trkpt><trkpt lat="39.25178597265337" lon="16.53841239709085"><ele>1318.0</ele><time>2026-04-25T09:57:05.71Z</time></trkpt><trkpt lat="39.25194845293346" lon="16.538262456775453"><ele>1318.0</ele><time>2026-04-25T09:57:06.71Z</time></trkpt><trkpt lat="39.252140423624695" lon="16.538113269977277"><ele>1318.0</ele><time>2026-04-25T09:57:07.71Z</time></trkpt><trkpt lat="39.25234514061259" lon="16.53794001494324"><ele>1320.5</ele><time>2026-04-25T09:57:08.71Z</time></trkpt><trkpt lat="39.25253519174912" lon="16.53774156205057"><ele>1323.0</ele><time>2026-04-25T09:57:09.71Z</time></trkpt><trkpt lat="39.25268575273298" lon="16.53754857583988"><ele>1323.0</ele><time>2026-04-25T09:57:10.71Z</time></trkpt><trkpt lat="39.252818258370134" lon="16.537371662159117"><ele>1323.0</ele><time>2026-04-25T09:57:11.71Z</time></trkpt><trkpt lat="39.252936422671944" lon="16.537209786614106"><ele>1323.0</ele><time>2026-04-25T09:57:12.71Z</time></trkpt><trkpt lat="39.253039599808716" lon="16.53707541616386"><ele>1323.75</ele><time>2026-04-25T09:57:13.71Z</time></trkpt><trkpt lat="39.25312289732876" lon="16.53696704928858"><ele>1324.5</ele><time>2026-04-25T09:57:14.71Z</time></trkpt><trkpt lat="39.253170323298384" lon="16.536862006312685"><ele>1325.25</ele><time>2026-04-25T09:57:15.71Z</time></trkpt><trkpt lat="39.25317427678839" lon="16.53672640696685"><ele>1326.0</ele><time>2026-04-25T09:57:16.71Z</time></trkpt><trkpt lat="39.2531522070247" lon="16.53655445037527"><ele>1325.3333333333333</ele><time>2026-04-25T09:57:17.71Z</time></trkpt><trkpt lat="39.253086006738634" lon="16.536383992072018"><ele>1324.6666666666665</ele><time>2026-04-25T09:57:18.71Z</time></trkpt><trkpt lat="39.25294272828047" lon="16.536273427134727"><ele>1324.0</ele><time>2026-04-25T09:57:19.71Z</time></trkpt><trkpt lat="39.25279941702347" lon="16.53621525865528"><ele>1324.0</ele><time>2026-04-25T09:57:20.71Z</time></trkpt><trkpt lat="39.25262955275257" lon="16.536171070692372"><ele>1324.0</ele><time>2026-04-25T09:57:21.71Z</time></trkpt><trkpt lat="39.25248353163339" lon="16.536110381391513"><ele>1324.0</ele><time>2026-04-25T09:57:22.71Z</time></trkpt><trkpt lat="39.25237658725194" lon="16.536011697593313"><ele>1324.0</ele><time>2026-04-25T09:57:23.71Z</time></trkpt><trkpt lat="39.252299468606246" lon="16.535844100566564"><ele>1324.0</ele><time>2026-04-25T09:57:24.71Z</time></trkpt><trkpt lat="39.25219501390973" lon="16.535644742832687"><ele>1324.0</ele><time>2026-04-25T09:57:25.71Z</time></trkpt><trkpt lat="39.25210193000926" lon="16.535434951883985"><ele>1322.75</ele><time>2026-04-25T09:57:26.711Z</time></trkpt><trkpt lat="39.25202817322333" lon="16.535252543273767"><ele>1321.5</ele><time>2026-04-25T09:57:27.711Z</time></trkpt><trkpt lat="39.25200296888791" lon="16.535082138353747"><ele>1320.25</ele><time>2026-04-25T09:57:28.711Z</time></trkpt><trkpt lat="39.25205603242063" lon="16.534913486138183"><ele>1319.0</ele><time>2026-04-25T09:57:29.711Z</time></trkpt><trkpt lat="39.25208729160534" lon="16.53474640583977"><ele>1319.0</ele><time>2026-04-25T09:57:30.711Z</time></trkpt><trkpt lat="39.25211138264004" lon="16.534609524324495"><ele>1319.0</ele><time>2026-04-25T09:57:31.711Z</time></trkpt><trkpt lat="39.252071704239086" lon="16.53448050574179"><ele>1319.0</ele><time>2026-04-25T09:57:32.711Z</time></trkpt><trkpt lat="39.251981651877536" lon="16.534357222606424"><ele>1319.0</ele><time>2026-04-25T09:57:33.711Z</time></trkpt><trkpt lat="39.25184717082995" lon="16.53424885365733"><ele>1319.25</ele><time>2026-04-25T09:57:34.711Z</time></trkpt><trkpt lat="39.25170508789282" lon="16.534156873105122"><ele>1319.5</ele><time>2026-04-25T09:57:35.711Z</time></trkpt><trkpt lat="39.25159411685981" lon="16.53406077085437"><ele>1319.75</ele><time>2026-04-25T09:57:36.711Z</time></trkpt><trkpt lat="39.25152385299757" lon="16.533931985448575"><ele>1320.0</ele><time>2026-04-25T09:57:37.711Z</time></trkpt><trkpt lat="39.251490257126065" lon="16.533774707340523"><ele>1320.6666666666667</ele><time>2026-04-25T09:57:38.711Z</time></trkpt><trkpt lat="39.25149334656014" lon="16.533578160989105"><ele>1321.3333333333335</ele><time>2026-04-25T09:57:39.711Z</time></trkpt><trkpt lat="39.251520721966884" lon="16.533349828841164"><ele>1322.0</ele><time>2026-04-25T09:57:40.711Z</time></trkpt><trkpt lat="39.25155606473748" lon="16.533083678437848"><ele>1321.0</ele><time>2026-04-25T09:57:41.711Z</time></trkpt><trkpt lat="39.251583220284076" lon="16.532789474294805"><ele>1320.0</ele><time>2026-04-25T09:57:42.711Z</time></trkpt><trkpt lat="39.251608357891826" lon="16.53251113758038"><ele>1319.0</ele><time>2026-04-25T09:57:43.711Z</time></trkpt><trkpt lat="39.25163440002073" lon="16.53227470084332"><ele>1319.0</ele><time>2026-04-25T09:57:44.711Z</time></trkpt><trkpt lat="39.25165129801892" lon="16.532067957592233"><ele>1319.0</ele><time>2026-04-25T09:57:45.711Z</time></trkpt><trkpt lat="39.251633954597146" lon="16.53187594606896"><ele>1319.0</ele><time>2026-04-25T09:57:46.711Z</time></trkpt><trkpt lat="39.25156612960866" lon="16.531681997337078"><ele>1317.0</ele><time>2026-04-25T09:57:47.711Z</time></trkpt><trkpt lat="39.25144700157528" lon="16.53147405777841"><ele>1315.0</ele><time>2026-04-25T09:57:48.71Z</time></trkpt><trkpt lat="39.25129308867151" lon="16.531257839625617"><ele>1313.0</ele><time>2026-04-25T09:57:49.71Z</time></trkpt><trkpt lat="39.25115192491282" lon="16.53104798510653"><ele>1312.3333333333335</ele><time>2026-04-25T09:57:50.71Z</time></trkpt><trkpt lat="39.25103909949469" lon="16.530858330035578"><ele>1311.6666666666667</ele><time>2026-04-25T09:57:51.71Z</time></trkpt><trkpt lat="39.25094709719086" lon="16.53068845993611"><ele>1311.0</ele><time>2026-04-25T09:57:52.71Z</time></trkpt><trkpt lat="39.25087620761375" lon="16.530532442974174"><ele>1310.3333333333333</ele><time>2026-04-25T09:57:53.71Z</time></trkpt><trkpt lat="39.250859505673816" lon="16.53034108529065"><ele>1309.6666666666665</ele><time>2026-04-25T09:57:54.71Z</time></trkpt><trkpt lat="39.25087220771638" lon="16.530128044841206"><ele>1309.0</ele><time>2026-04-25T09:57:55.71Z</time></trkpt><trkpt lat="39.2508991230864" lon="16.529879464344607"><ele>1309.0</ele><time>2026-04-25T09:57:56.71Z</time></trkpt><trkpt lat="39.250920290254925" lon="16.52963534779414"><ele>1309.0</ele><time>2026-04-25T09:57:57.71Z</time></trkpt><trkpt lat="39.250951563579065" lon="16.529412400173914"><ele>1309.0</ele><time>2026-04-25T09:57:58.71Z</time></trkpt><trkpt lat="39.250973144219344" lon="16.529206525950105"><ele>1310.25</ele><time>2026-04-25T09:57:59.71Z</time></trkpt><trkpt lat="39.25098932521239" lon="16.52901367372819"><ele>1311.5</ele><time>2026-04-25T09:58:00.71Z</time></trkpt><trkpt lat="39.2509784127202" lon="16.52884195308885"><ele>1312.75</ele><time>2026-04-25T09:58:01.71Z</time></trkpt><trkpt lat="39.25093164649414" lon="16.528691275317204"><ele>1314.0</ele><time>2026-04-25T09:58:02.71Z</time></trkpt><trkpt lat="39.25084628403837" lon="16.52856142248254"><ele>1314.6666666666667</ele><time>2026-04-25T09:58:03.71Z</time></trkpt><trkpt lat="39.2507139065947" lon="16.52847229467715"><ele>1315.3333333333335</ele><time>2026-04-25T09:58:04.71Z</time></trkpt><trkpt lat="39.25056789090632" lon="16.528388923016436"><ele>1316.0</ele><time>2026-04-25T09:58:05.71Z</time></trkpt><trkpt lat="39.250440381783406" lon="16.528305179245052"><ele>1317.1999999999998</ele><time>2026-04-25T09:58:06.71Z</time></trkpt><trkpt lat="39.25033090027156" lon="16.528234377959738"><ele>1318.3999999999999</ele><time>2026-04-25T09:58:07.71Z</time></trkpt><trkpt lat="39.250225897850655" lon="16.528211269223988"><ele>1319.6</ele><time>2026-04-25T09:58:08.71Z</time></trkpt><trkpt lat="39.25014603195765" lon="16.528235877927354"><ele>1320.8</ele><time>2026-04-25T09:58:09.71Z</time></trkpt><trkpt lat="39.25004764772093" lon="16.528282838809258"><ele>1322.0</ele><time>2026-04-25T09:58:11.71Z</time></trkpt><trkpt lat="39.249988871677665" lon="16.528387211231344"><ele>1322.0</ele><time>2026-04-25T10:02:41.709Z</time></trkpt><trkpt lat="39.24993068055307" lon="16.52846870734522"><ele>1322.0</ele><time>2026-04-25T10:02:43.709Z</time></trkpt><trkpt lat="39.249822868927" lon="16.528555018908307"><ele>1322.0</ele><time>2026-04-25T10:02:45.709Z</time></trkpt><trkpt lat="39.24976195862698" lon="16.528607856816908"><ele>1322.0</ele><time>2026-04-25T10:02:46.709Z</time></trkpt><trkpt lat="39.24969597898144" lon="16.528681036432825"><ele>1322.0</ele><time>2026-04-25T10:02:47.709Z</time></trkpt><trkpt lat="39.249634260669" lon="16.528772318591002"><ele>1322.5</ele><time>2026-04-25T10:02:48.709Z</time></trkpt><trkpt lat="39.2495583954646" lon="16.52885242411219"><ele>1323.0</ele><time>2026-04-25T10:02:49.709Z</time></trkpt><trkpt lat="39.24950738510405" lon="16.528933537109648"><ele>1323.5</ele><time>2026-04-25T10:02:50.709Z</time></trkpt><trkpt lat="39.24946010345575" lon="16.529023085445125"><ele>1324.0</ele><time>2026-04-25T10:02:51.709Z</time></trkpt><trkpt lat="39.24943246885565" lon="16.529120993390062"><ele>1324.5</ele><time>2026-04-25T10:02:52.709Z</time></trkpt><trkpt lat="39.24936857583032" lon="16.52918481570279"><ele>1325.0</ele><time>2026-04-25T10:02:53.709Z</time></trkpt><trkpt lat="39.24931832032212" lon="16.529273134273346"><ele>1325.0</ele><time>2026-04-25T10:02:54.709Z</time></trkpt><trkpt lat="39.24924443383799" lon="16.5293382085815"><ele>1325.0</ele><time>2026-04-25T10:02:55.709Z</time></trkpt><trkpt lat="39.24916624229033" lon="16.529383012587857"><ele>1325.0</ele><time>2026-04-25T10:02:56.709Z</time></trkpt><trkpt lat="39.24907962166546" lon="16.529416965949334"><ele>1325.0</ele><time>2026-04-25T10:02:57.709Z</time></trkpt><trkpt lat="39.24898966903435" lon="16.529446920056962"><ele>1325.0</ele><time>2026-04-25T10:02:58.709Z</time></trkpt><trkpt lat="39.24889447184537" lon="16.52947627756885"><ele>1323.8</ele><time>2026-04-25T10:02:59.709Z</time></trkpt><trkpt lat="39.248819012157625" lon="16.529491574704643"><ele>1322.6</ele><time>2026-04-25T10:03:00.709Z</time></trkpt><trkpt lat="39.24871338211856" lon="16.529521967842783"><ele>1321.4</ele><time>2026-04-25T10:03:01.709Z</time></trkpt><trkpt lat="39.24860537818993" lon="16.52953612767889"><ele>1320.2</ele><time>2026-04-25T10:03:02.709Z</time></trkpt><trkpt lat="39.24851160147045" lon="16.529569749208804"><ele>1319.0</ele><time>2026-04-25T10:03:03.709Z</time></trkpt><trkpt lat="39.24842652930015" lon="16.529576209207242"><ele>1319.0</ele><time>2026-04-25T10:03:04.709Z</time></trkpt><trkpt lat="39.24833745397829" lon="16.52958897075744"><ele>1319.0</ele><time>2026-04-25T10:03:05.709Z</time></trkpt><trkpt lat="39.24824261729101" lon="16.529611260334903"><ele>1319.0</ele><time>2026-04-25T10:03:06.709Z</time></trkpt><trkpt lat="39.24814396335821" lon="16.529642945494626"><ele>1319.0</ele><time>2026-04-25T10:03:07.709Z</time></trkpt><trkpt lat="39.24804280997755" lon="16.52968611723562"><ele>1319.0</ele><time>2026-04-25T10:03:08.709Z</time></trkpt><trkpt lat="39.24795386146246" lon="16.529716328611496"><ele>1319.8333333333335</ele><time>2026-04-25T10:03:09.709Z</time></trkpt><trkpt lat="39.24787541296357" lon="16.529723701416692"><ele>1320.6666666666667</ele><time>2026-04-25T10:03:10.709Z</time></trkpt><trkpt lat="39.24778856875007" lon="16.52972934985642"><ele>1321.5</ele><time>2026-04-25T10:03:11.709Z</time></trkpt><trkpt lat="39.247698954280715" lon="16.52972418184347"><ele>1322.3333333333333</ele><time>2026-04-25T10:03:12.709Z</time></trkpt><trkpt lat="39.24761405240487" lon="16.5296979556875"><ele>1323.1666666666665</ele><time>2026-04-25T10:03:13.709Z</time></trkpt><trkpt lat="39.24752513229909" lon="16.52968672953241"><ele>1324.0</ele><time>2026-04-25T10:03:14.709Z</time></trkpt><trkpt lat="39.24742801288521" lon="16.529674692658762"><ele>1324.0</ele><time>2026-04-25T10:03:15.709Z</time></trkpt><trkpt lat="39.247318340637555" lon="16.52966192587582"><ele>1324.0</ele><time>2026-04-25T10:03:16.709Z</time></trkpt><trkpt lat="39.24721776210241" lon="16.529653149219424"><ele>1324.0</ele><time>2026-04-25T10:03:17.709Z</time></trkpt><trkpt lat="39.24711926490329" lon="16.529644568830737"><ele>1324.0</ele><time>2026-04-25T10:03:18.709Z</time></trkpt><trkpt lat="39.24702495336567" lon="16.529640712106005"><ele>1324.0</ele><time>2026-04-25T10:03:19.709Z</time></trkpt><trkpt lat="39.24691575357599" lon="16.529644409039427"><ele>1325.2</ele><time>2026-04-25T10:03:20.709Z</time></trkpt><trkpt lat="39.24680518073703" lon="16.52966590631468"><ele>1326.4</ele><time>2026-04-25T10:03:21.709Z</time></trkpt><trkpt lat="39.24670150564387" lon="16.52969978538909"><ele>1327.6</ele><time>2026-04-25T10:03:22.709Z</time></trkpt><trkpt lat="39.246630611839436" lon="16.529719883954954"><ele>1328.8</ele><time>2026-04-25T10:03:23.709Z</time></trkpt><trkpt lat="39.24655563450442" lon="16.52971157888648"><ele>1330.0</ele><time>2026-04-25T10:03:24.709Z</time></trkpt><trkpt lat="39.24647792421263" lon="16.529668222804503"><ele>1331.0</ele><time>2026-04-25T10:03:25.709Z</time></trkpt><trkpt lat="39.24640940547022" lon="16.529598713552474"><ele>1332.0</ele><time>2026-04-25T10:03:26.709Z</time></trkpt><trkpt lat="39.246346401724125" lon="16.529508899027928"><ele>1333.0</ele><time>2026-04-25T10:03:27.709Z</time></trkpt><trkpt lat="39.246293809350846" lon="16.52941099920442"><ele>1334.0</ele><time>2026-04-25T10:03:28.708Z</time></trkpt><trkpt lat="39.24623557633299" lon="16.52930743137563"><ele>1335.0</ele><time>2026-04-25T10:03:29.708Z</time></trkpt><trkpt lat="39.24620784284767" lon="16.52918136924651"><ele>1335.0</ele><time>2026-04-25T10:03:30.708Z</time></trkpt><trkpt lat="39.24619417479984" lon="16.529046070933173"><ele>1335.0</ele><time>2026-04-25T10:03:31.708Z</time></trkpt><trkpt lat="39.246186998461646" lon="16.52892525312898"><ele>1335.0</ele><time>2026-04-25T10:03:32.708Z</time></trkpt><trkpt lat="39.2461989882895" lon="16.52881376817957"><ele>1335.0</ele><time>2026-04-25T10:03:33.708Z</time></trkpt><trkpt lat="39.24621411857013" lon="16.528691714092062"><ele>1335.0</ele><time>2026-04-25T10:03:34.708Z</time></trkpt><trkpt lat="39.246227066441584" lon="16.52856375221193"><ele>1331.5</ele><time>2026-04-25T10:03:35.708Z</time></trkpt><trkpt lat="39.24625908422016" lon="16.528431696509713"><ele>1328.0</ele><time>2026-04-25T10:03:36.708Z</time></trkpt><trkpt lat="39.24630369905897" lon="16.52829197622321"><ele>1324.5</ele><time>2026-04-25T10:03:37.708Z</time></trkpt><trkpt lat="39.246361215437325" lon="16.52815110339927"><ele>1321.0</ele><time>2026-04-25T10:03:38.708Z</time></trkpt><trkpt lat="39.24642418513389" lon="16.528004994797296"><ele>1325.0</ele><time>2026-04-25T10:03:39.708Z</time></trkpt><trkpt lat="39.24648452345366" lon="16.527873279820962"><ele>1329.0</ele><time>2026-04-25T10:03:40.708Z</time></trkpt><trkpt lat="39.2465377323314" lon="16.52774289356846"><ele>1333.0</ele><time>2026-04-25T10:03:41.708Z</time></trkpt><trkpt lat="39.246606666657364" lon="16.527632718138605"><ele>1337.0</ele><time>2026-04-25T10:03:42.708Z</time></trkpt><trkpt lat="39.24668219680154" lon="16.527531618452404"><ele>1337.0</ele><time>2026-04-25T10:03:43.708Z</time></trkpt><trkpt lat="39.24676591321528" lon="16.527432649230555"><ele>1337.0</ele><time>2026-04-25T10:03:44.708Z</time></trkpt><trkpt lat="39.246874188506894" lon="16.5273577193892"><ele>1337.0</ele><time>2026-04-25T10:03:45.708Z</time></trkpt><trkpt lat="39.24698337752821" lon="16.527282641706954"><ele>1337.0</ele><time>2026-04-25T10:03:46.708Z</time></trkpt><trkpt lat="39.24709517678625" lon="16.527185591676986"><ele>1333.5</ele><time>2026-04-25T10:03:47.708Z</time></trkpt><trkpt lat="39.247165839541374" lon="16.527044992398416"><ele>1330.0</ele><time>2026-04-25T10:03:48.708Z</time></trkpt><trkpt lat="39.24720141529182" lon="16.52688681379258"><ele>1326.5</ele><time>2026-04-25T10:03:49.708Z</time></trkpt><trkpt lat="39.247237410028866" lon="16.526724441940946"><ele>1323.0</ele><time>2026-04-25T10:03:50.708Z</time></trkpt><trkpt lat="39.247285394223034" lon="16.526580722952467"><ele>1323.75</ele><time>2026-04-25T10:03:51.708Z</time></trkpt><trkpt lat="39.24735541899421" lon="16.52646262320467"><ele>1324.5</ele><time>2026-04-25T10:03:52.708Z</time></trkpt><trkpt lat="39.24744480363359" lon="16.526360393910075"><ele>1325.25</ele><time>2026-04-25T10:03:53.708Z</time></trkpt><trkpt lat="39.24755169646205" lon="16.526267125798807"><ele>1326.0</ele><time>2026-04-25T10:03:54.708Z</time></trkpt><trkpt lat="39.24767049124113" lon="16.526180474777576"><ele>1326.0</ele><time>2026-04-25T10:03:55.708Z</time></trkpt><trkpt lat="39.247796983044765" lon="16.526104716267028"><ele>1326.0</ele><time>2026-04-25T10:03:56.708Z</time></trkpt><trkpt lat="39.2479286890718" lon="16.52602325567988"><ele>1326.0</ele><time>2026-04-25T10:03:57.708Z</time></trkpt><trkpt lat="39.248052046171345" lon="16.52592503494695"><ele>1326.0</ele><time>2026-04-25T10:03:58.708Z</time></trkpt><trkpt lat="39.24817185312325" lon="16.525813053577536"><ele>1330.0</ele><time>2026-04-25T10:03:59.708Z</time></trkpt><trkpt lat="39.24827909413406" lon="16.52570687022899"><ele>1334.0</ele><time>2026-04-25T10:04:00.708Z</time></trkpt><trkpt lat="39.24838473617358" lon="16.525609996244466"><ele>1338.0</ele><time>2026-04-25T10:04:01.708Z</time></trkpt><trkpt lat="39.24848750182946" lon="16.525523625377602"><ele>1342.0</ele><time>2026-04-25T10:04:02.708Z</time></trkpt><trkpt lat="39.24858903344176" lon="16.525454819028283"><ele>1343.5</ele><time>2026-04-25T10:04:03.708Z</time></trkpt><trkpt lat="39.248690216367876" lon="16.52538132334737"><ele>1345.0</ele><time>2026-04-25T10:04:04.708Z</time></trkpt><trkpt lat="39.24879475127368" lon="16.525302684663032"><ele>1346.5</ele><time>2026-04-25T10:04:05.708Z</time></trkpt><trkpt lat="39.24889284421948" lon="16.52521109150305"><ele>1348.0</ele><time>2026-04-25T10:04:06.708Z</time></trkpt><trkpt lat="39.24897402456622" lon="16.525102042256158"><ele>1348.0</ele><time>2026-04-25T10:04:07.708Z</time></trkpt><trkpt lat="39.249009422968825" lon="16.524959052453408"><ele>1348.0</ele><time>2026-04-25T10:04:08.708Z</time></trkpt><trkpt lat="39.24900728868143" lon="16.524800501669713"><ele>1348.0</ele><time>2026-04-25T10:04:09.708Z</time></trkpt><trkpt lat="39.248971682899864" lon="16.524630727537613"><ele>1348.0</ele><time>2026-04-25T10:04:10.708Z</time></trkpt><trkpt lat="39.24892475531589" lon="16.52446447779021"><ele>1340.75</ele><time>2026-04-25T10:04:11.708Z</time></trkpt><trkpt lat="39.24887560658133" lon="16.524305712054517"><ele>1333.5</ele><time>2026-04-25T10:04:12.708Z</time></trkpt><trkpt lat="39.248832427284256" lon="16.52416276468265"><ele>1326.25</ele><time>2026-04-25T10:04:13.708Z</time></trkpt><trkpt lat="39.248781186518556" lon="16.52403009596234"><ele>1319.0</ele><time>2026-04-25T10:04:14.708Z</time></trkpt><trkpt lat="39.24874960123273" lon="16.523871751183744"><ele>1318.75</ele><time>2026-04-25T10:04:15.708Z</time></trkpt><trkpt lat="39.248735055751354" lon="16.523688532672704"><ele>1318.5</ele><time>2026-04-25T10:04:16.708Z</time></trkpt><trkpt lat="39.2487323543084" lon="16.52349024284247"><ele>1318.25</ele><time>2026-04-25T10:04:17.708Z</time></trkpt><trkpt lat="39.2487372045206" lon="16.523306021211244"><ele>1318.0</ele><time>2026-04-25T10:04:18.708Z</time></trkpt><trkpt lat="39.248737925008314" lon="16.52313829174253"><ele>1318.0</ele><time>2026-04-25T10:04:19.708Z</time></trkpt><trkpt lat="39.248765564139866" lon="16.522965859125033"><ele>1318.0</ele><time>2026-04-25T10:04:20.708Z</time></trkpt><trkpt lat="39.24879037701011" lon="16.5227908864578"><ele>1318.0</ele><time>2026-04-25T10:04:21.708Z</time></trkpt><trkpt lat="39.24882067061294" lon="16.522619406999652"><ele>1318.0</ele><time>2026-04-25T10:04:22.708Z</time></trkpt><trkpt lat="39.24885279586616" lon="16.522452187653073"><ele>1316.75</ele><time>2026-04-25T10:04:23.708Z</time></trkpt><trkpt lat="39.24888509151653" lon="16.52230695080249"><ele>1315.5</ele><time>2026-04-25T10:04:24.708Z</time></trkpt><trkpt lat="39.24892294528146" lon="16.522160203559658"><ele>1314.25</ele><time>2026-04-25T10:04:25.708Z</time></trkpt><trkpt lat="39.24897477718641" lon="16.522031485983963"><ele>1313.0</ele><time>2026-04-25T10:04:26.708Z</time></trkpt><trkpt lat="39.24903585565985" lon="16.52188612005774"><ele>1318.75</ele><time>2026-04-25T10:04:27.708Z</time></trkpt><trkpt lat="39.249086779225394" lon="16.521730966884693"><ele>1324.5</ele><time>2026-04-25T10:04:28.708Z</time></trkpt><trkpt lat="39.249166111401166" lon="16.521582850419545"><ele>1330.25</ele><time>2026-04-25T10:04:29.708Z</time></trkpt><trkpt lat="39.24922722293349" lon="16.521424254590425"><ele>1336.0</ele><time>2026-04-25T10:04:30.708Z</time></trkpt><trkpt lat="39.249290824157654" lon="16.521253951375478"><ele>1333.0</ele><time>2026-04-25T10:04:31.708Z</time></trkpt><trkpt lat="39.24935982299682" lon="16.521074685354144"><ele>1330.0</ele><time>2026-04-25T10:04:32.708Z</time></trkpt><trkpt lat="39.249433334874" lon="16.52088730419821"><ele>1327.0</ele><time>2026-04-25T10:04:33.708Z</time></trkpt><trkpt lat="39.24948962041024" lon="16.520708383689808"><ele>1327.0</ele><time>2026-04-25T10:04:34.708Z</time></trkpt><trkpt lat="39.249552105112194" lon="16.5205488583683"><ele>1327.0</ele><time>2026-04-25T10:04:35.708Z</time></trkpt><trkpt lat="39.24962876804399" lon="16.520406739041377"><ele>1327.0</ele><time>2026-04-25T10:04:36.708Z</time></trkpt><trkpt lat="39.249675914530286" lon="16.520253101655868"><ele>1327.0</ele><time>2026-04-25T10:04:37.708Z</time></trkpt><trkpt lat="39.24968916705966" lon="16.52008568906164"><ele>1324.5</ele><time>2026-04-25T10:04:38.708Z</time></trkpt><trkpt lat="39.24967421590447" lon="16.519929238347217"><ele>1322.0</ele><time>2026-04-25T10:04:39.708Z</time></trkpt><trkpt lat="39.24964000557878" lon="16.51977798580526"><ele>1319.5</ele><time>2026-04-25T10:04:40.708Z</time></trkpt><trkpt lat="39.24958980938396" lon="16.51962047383538"><ele>1317.0</ele><time>2026-04-25T10:04:41.708Z</time></trkpt><trkpt lat="39.24956959021935" lon="16.519451530074825"><ele>1316.6666666666667</ele><time>2026-04-25T10:04:42.708Z</time></trkpt><trkpt lat="39.249546361083375" lon="16.51926895105407"><ele>1316.3333333333335</ele><time>2026-04-25T10:04:43.708Z</time></trkpt><trkpt lat="39.24954219612959" lon="16.51906637629577"><ele>1316.0</ele><time>2026-04-25T10:04:44.708Z</time></trkpt><trkpt lat="39.24954156623702" lon="16.518867900909413"><ele>1315.75</ele><time>2026-04-25T10:04:45.708Z</time></trkpt><trkpt lat="39.24954360139394" lon="16.518684682431868"><ele>1315.5</ele><time>2026-04-25T10:04:46.708Z</time></trkpt><trkpt lat="39.249532744936936" lon="16.518507068833998"><ele>1315.25</ele><time>2026-04-25T10:04:47.708Z</time></trkpt><trkpt lat="39.24955615777438" lon="16.518326785483286"><ele>1315.0</ele><time>2026-04-25T10:04:48.708Z</time></trkpt><trkpt lat="39.24955110503113" lon="16.518146055874645"><ele>1315.0</ele><time>2026-04-25T10:04:49.708Z</time></trkpt><trkpt lat="39.2495794746439" lon="16.51798053495155"><ele>1315.0</ele><time>2026-04-25T10:04:50.708Z</time></trkpt><trkpt lat="39.24959353278103" lon="16.517815267271317"><ele>1315.0</ele><time>2026-04-25T10:04:51.708Z</time></trkpt><trkpt lat="39.24960671445185" lon="16.517660303894"><ele>1315.0</ele><time>2026-04-25T10:04:52.708Z</time></trkpt><trkpt lat="39.249621970263384" lon="16.517507370439002"><ele>1314.25</ele><time>2026-04-25T10:04:53.708Z</time></trkpt><trkpt lat="39.24963889345442" lon="16.517336849069522"><ele>1313.5</ele><time>2026-04-25T10:04:54.708Z</time></trkpt><trkpt lat="39.24964028413744" lon="16.517159443126797"><ele>1312.75</ele><time>2026-04-25T10:04:55.708Z</time></trkpt><trkpt lat="39.2496752977873" lon="16.516977001855757"><ele>1312.0</ele><time>2026-04-25T10:04:56.708Z</time></trkpt><trkpt lat="39.24969702943762" lon="16.51676886544857"><ele>1312.0</ele><time>2026-04-25T10:04:57.708Z</time></trkpt><trkpt lat="39.24970407861262" lon="16.516571200492116"><ele>1312.0</ele><time>2026-04-25T10:04:58.708Z</time></trkpt><trkpt lat="39.24971808086207" lon="16.516391451417952"><ele>1312.0</ele><time>2026-04-25T10:04:59.708Z</time></trkpt><trkpt lat="39.24970681198553" lon="16.51621865158892"><ele>1312.0</ele><time>2026-04-25T10:05:00.708Z</time></trkpt><trkpt lat="39.249668107914715" lon="16.51604161015044"><ele>1312.25</ele><time>2026-04-25T10:05:01.708Z</time></trkpt><trkpt lat="39.2496401520603" lon="16.51585357166183"><ele>1312.5</ele><time>2026-04-25T10:05:02.708Z</time></trkpt><trkpt lat="39.24960427254889" lon="16.515677465413496"><ele>1312.75</ele><time>2026-04-25T10:05:03.708Z</time></trkpt><trkpt lat="39.249578622802126" lon="16.515516313358287"><ele>1313.0</ele><time>2026-04-25T10:05:04.708Z</time></trkpt><trkpt lat="39.24961370384855" lon="16.51535496808234"><ele>1312.5</ele><time>2026-04-25T10:05:05.708Z</time></trkpt><trkpt lat="39.249655390452574" lon="16.51519453856448"><ele>1312.0</ele><time>2026-04-25T10:05:06.708Z</time></trkpt><trkpt lat="39.249702130954965" lon="16.515023841023805"><ele>1311.5</ele><time>2026-04-25T10:05:07.708Z</time></trkpt><trkpt lat="39.249780641299104" lon="16.514881342585905"><ele>1311.0</ele><time>2026-04-25T10:05:08.708Z</time></trkpt><trkpt lat="39.24987026691333" lon="16.51476725377646"><ele>1312.0</ele><time>2026-04-25T10:05:09.708Z</time></trkpt><trkpt lat="39.24998832138712" lon="16.514715436291507"><ele>1313.0</ele><time>2026-04-25T10:05:10.708Z</time></trkpt><trkpt lat="39.2500905973957" lon="16.51461803271043"><ele>1314.0</ele><time>2026-04-25T10:05:11.708Z</time></trkpt><trkpt lat="39.25020811688942" lon="16.51453990404126"><ele>1315.0</ele><time>2026-04-25T10:05:12.708Z</time></trkpt><trkpt lat="39.25032025248107" lon="16.514446667950565"><ele>1315.0</ele><time>2026-04-25T10:05:13.708Z</time></trkpt><trkpt lat="39.25042073307513" lon="16.514331575855586"><ele>1315.0</ele><time>2026-04-25T10:05:14.708Z</time></trkpt><trkpt lat="39.250516711775404" lon="16.514204720923054"><ele>1315.0</ele><time>2026-04-25T10:05:15.708Z</time></trkpt><trkpt lat="39.2506130380113" lon="16.51406996038889"><ele>1315.0</ele><time>2026-04-25T10:05:16.708Z</time></trkpt><trkpt lat="39.250710348931776" lon="16.513935433335817"><ele>1315.25</ele><time>2026-04-25T10:05:17.708Z</time></trkpt><trkpt lat="39.25080933525535" lon="16.51379368015505"><ele>1315.5</ele><time>2026-04-25T10:05:18.708Z</time></trkpt><trkpt lat="39.25090787832854" lon="16.513646976422766"><ele>1315.75</ele><time>2026-04-25T10:05:19.708Z</time></trkpt><trkpt lat="39.25099985450391" lon="16.51350279673453"><ele>1316.0</ele><time>2026-04-25T10:05:20.708Z</time></trkpt><trkpt lat="39.2510879911798" lon="16.51336220132841"><ele>1316.0</ele><time>2026-04-25T10:05:21.708Z</time></trkpt><trkpt lat="39.251170038498515" lon="16.51322654342554"><ele>1316.0</ele><time>2026-04-25T10:05:22.708Z</time></trkpt><trkpt lat="39.251250071181744" lon="16.513095140621477"><ele>1316.0</ele><time>2026-04-25T10:05:23.708Z</time></trkpt><trkpt lat="39.25132718788267" lon="16.512972921275875"><ele>1316.0</ele><time>2026-04-25T10:05:24.708Z</time></trkpt><trkpt lat="39.25140543598612" lon="16.512859977419183"><ele>1317.1999999999998</ele><time>2026-04-25T10:05:25.708Z</time></trkpt><trkpt lat="39.251486751243924" lon="16.51276697180407"><ele>1318.3999999999999</ele><time>2026-04-25T10:05:26.708Z</time></trkpt><trkpt lat="39.25157585869923" lon="16.512682257784064"><ele>1319.6</ele><time>2026-04-25T10:05:27.708Z</time></trkpt><trkpt lat="39.251676642189025" lon="16.512632734591385"><ele>1320.8</ele><time>2026-04-25T10:05:28.708Z</time></trkpt><trkpt lat="39.25177193441663" lon="16.512559791288083"><ele>1322.0</ele><time>2026-04-25T10:05:29.708Z</time></trkpt><trkpt lat="39.2518537708837" lon="16.512452992836742"><ele>1322.0</ele><time>2026-04-25T10:05:30.708Z</time></trkpt><trkpt lat="39.251934830955776" lon="16.512355669054188"><ele>1322.0</ele><time>2026-04-25T10:05:31.707Z</time></trkpt><trkpt lat="39.25200554779976" lon="16.512241383791743"><ele>1322.0</ele><time>2026-04-25T10:05:32.707Z</time></trkpt><trkpt lat="39.252077584476595" lon="16.512121079833648"><ele>1322.0</ele><time>2026-04-25T10:05:33.707Z</time></trkpt><trkpt lat="39.252143396361134" lon="16.512011027793793"><ele>1322.0</ele><time>2026-04-25T10:05:34.707Z</time></trkpt><trkpt lat="39.25218417611713" lon="16.51188779722169"><ele>1320.6</ele><time>2026-04-25T10:05:35.707Z</time></trkpt><trkpt lat="39.25220190029378" lon="16.511763909445396"><ele>1319.1999999999998</ele><time>2026-04-25T10:05:36.707Z</time></trkpt><trkpt lat="39.25220280828804" lon="16.5116317567089"><ele>1317.8</ele><time>2026-04-25T10:05:37.707Z</time></trkpt><trkpt lat="39.252194297710204" lon="16.511496064167552"><ele>1316.4</ele><time>2026-04-25T10:05:38.707Z</time></trkpt><trkpt lat="39.252179727921884" lon="16.511374941207915"><ele>1315.0</ele><time>2026-04-25T10:05:39.707Z</time></trkpt><trkpt lat="39.252165778681004" lon="16.511257486627514"><ele>1315.4</ele><time>2026-04-25T10:05:40.707Z</time></trkpt><trkpt lat="39.25214977289619" lon="16.5111409378059"><ele>1315.8</ele><time>2026-04-25T10:05:41.707Z</time></trkpt><trkpt lat="39.25212075486538" lon="16.511020066816915"><ele>1316.1999999999998</ele><time>2026-04-25T10:05:42.707Z</time></trkpt><trkpt lat="39.252069199616926" lon="16.510903708367618"><ele>1316.6</ele><time>2026-04-25T10:05:43.707Z</time></trkpt><trkpt lat="39.25199766290129" lon="16.510799717543158"><ele>1317.0</ele><time>2026-04-25T10:05:44.707Z</time></trkpt><trkpt lat="39.2519097031139" lon="16.510712824463866"><ele>1317.0</ele><time>2026-04-25T10:05:45.707Z</time></trkpt><trkpt lat="39.251812531170145" lon="16.51062804885982"><ele>1317.0</ele><time>2026-04-25T10:05:46.707Z</time></trkpt><trkpt lat="39.2517149457784" lon="16.5105339152633"><ele>1317.0</ele><time>2026-04-25T10:05:47.707Z</time></trkpt><trkpt lat="39.2516204760394" lon="16.510430121680745"><ele>1317.0</ele><time>2026-04-25T10:05:48.707Z</time></trkpt><trkpt lat="39.25153299168948" lon="16.510313337871207"><ele>1316.75</ele><time>2026-04-25T10:05:49.707Z</time></trkpt><trkpt lat="39.251454477421824" lon="16.510183489200255"><ele>1316.5</ele><time>2026-04-25T10:05:50.708Z</time></trkpt><trkpt lat="39.251388183517804" lon="16.510045424689515"><ele>1316.25</ele><time>2026-04-25T10:05:51.708Z</time></trkpt><trkpt lat="39.25131804663673" lon="16.50991682672643"><ele>1316.0</ele><time>2026-04-25T10:05:52.708Z</time></trkpt><trkpt lat="39.25123736137293" lon="16.50980848993339"><ele>1316.0</ele><time>2026-04-25T10:05:53.708Z</time></trkpt><trkpt lat="39.251140023481064" lon="16.509729057504266"><ele>1316.0</ele><time>2026-04-25T10:05:54.708Z</time></trkpt><trkpt lat="39.251022013117634" lon="16.509669765335598"><ele>1316.0</ele><time>2026-04-25T10:05:55.708Z</time></trkpt><trkpt lat="39.25091655885556" lon="16.509676277595627"><ele>1316.0</ele><time>2026-04-25T10:05:56.708Z</time></trkpt><trkpt lat="39.250811596380274" lon="16.509676269300734"><ele>1316.0</ele><time>2026-04-25T10:05:57.708Z</time></trkpt><trkpt lat="39.250712103669024" lon="16.509669282762747"><ele>1316.0</ele><time>2026-04-25T10:05:58.708Z</time></trkpt><trkpt lat="39.250616567186945" lon="16.509639771428727"><ele>1316.0</ele><time>2026-04-25T10:05:59.708Z</time></trkpt><trkpt lat="39.25052819207472" lon="16.50957245262384"><ele>1316.0</ele><time>2026-04-25T10:06:00.708Z</time></trkpt><trkpt lat="39.250455346737816" lon="16.50947479716894"><ele>1316.0</ele><time>2026-04-25T10:06:01.708Z</time></trkpt><trkpt lat="39.25039096087167" lon="16.50935639475561"><ele>1315.0</ele><time>2026-04-25T10:06:02.708Z</time></trkpt><trkpt lat="39.250356025621855" lon="16.509245607081034"><ele>1314.0</ele><time>2026-04-25T10:06:03.708Z</time></trkpt><trkpt lat="39.250328560828095" lon="16.50916013397858"><ele>1313.0</ele><time>2026-04-25T10:06:04.708Z</time></trkpt><trkpt lat="39.250300744754895" lon="16.50908289979761"><ele>1312.0</ele><time>2026-04-25T10:06:05.708Z</time></trkpt><trkpt lat="39.25025452800406" lon="16.509003925513493"><ele>1311.0</ele><time>2026-04-25T10:06:06.708Z</time></trkpt><trkpt lat="39.25016299093723" lon="16.50888439701066"><ele>1310.0</ele><time>2026-04-25T10:06:08.708Z</time></trkpt><trkpt lat="39.25011594550404" lon="16.508825834762302"><ele>1310.0</ele><time>2026-04-25T10:06:09.708Z</time></trkpt><trkpt lat="39.250031826640225" lon="16.508708920437883"><ele>1310.0</ele><time>2026-04-25T10:06:11.708Z</time></trkpt><trkpt lat="39.24997672131938" lon="16.508641146503482"><ele>1310.0</ele><time>2026-04-25T10:06:14.708Z</time></trkpt><trkpt lat="39.249917521938706" lon="16.50870026565937"><ele>1310.0</ele><time>2026-04-25T10:06:16.708Z</time></trkpt><trkpt lat="39.249841749016944" lon="16.508767414330066"><ele>1310.0</ele><time>2026-04-25T10:06:18.708Z</time></trkpt><trkpt lat="39.24973307970962" lon="16.508824858857974"><ele>1308.0</ele><time>2026-04-25T10:06:20.708Z</time></trkpt><trkpt lat="39.24961969119065" lon="16.508894510372"><ele>1306.0</ele><time>2026-04-25T10:06:22.708Z</time></trkpt><trkpt lat="39.249518282223" lon="16.50894755412829"><ele>1304.0</ele><time>2026-04-25T10:06:24.708Z</time></trkpt><trkpt lat="39.249418383274325" lon="16.509005060017625"><ele>1302.0</ele><time>2026-04-25T10:06:26.708Z</time></trkpt><trkpt lat="39.24933095838143" lon="16.509048411287612"><ele>1300.0</ele><time>2026-04-25T10:06:28.708Z</time></trkpt><trkpt lat="39.24926910909153" lon="16.509079400863456"><ele>1300.0</ele><time>2026-04-25T10:06:30.708Z</time></trkpt><trkpt lat="39.24921256973631" lon="16.509118958389372"><ele>1300.0</ele><time>2026-04-25T10:06:32.708Z</time></trkpt><trkpt lat="39.24913342096337" lon="16.509158037822246"><ele>1300.0</ele><time>2026-04-25T10:06:35.708Z</time></trkpt><trkpt lat="39.24907123985116" lon="16.509202986765242"><ele>1300.0</ele><time>2026-04-25T10:06:38.708Z</time></trkpt><trkpt lat="39.249004566531895" lon="16.509242998177868"><ele>1300.0</ele><time>2026-04-25T10:06:40.708Z</time></trkpt><trkpt lat="39.248927587859285" lon="16.50927516469014"><ele>1300.0</ele><time>2026-04-25T10:06:42.708Z</time></trkpt><trkpt lat="39.24886392739379" lon="16.5093098249744"><ele>1300.0</ele><time>2026-04-25T10:06:44.708Z</time></trkpt><trkpt lat="39.24880241171324" lon="16.509369794594328"><ele>1297.8333333333333</ele><time>2026-04-25T10:06:47.708Z</time></trkpt><trkpt lat="39.24873517364273" lon="16.509395102960834"><ele>1295.6666666666665</ele><time>2026-04-25T10:06:50.708Z</time></trkpt><trkpt lat="39.248692579689994" lon="16.509302618772086"><ele>1293.5</ele><time>2026-04-25T10:06:52.708Z</time></trkpt><trkpt lat="39.24868275668802" lon="16.509209996533425"><ele>1291.3333333333333</ele><time>2026-04-25T10:06:55.708Z</time></trkpt><trkpt lat="39.2486742977377" lon="16.509094486886738"><ele>1289.1666666666667</ele><time>2026-04-25T10:06:58.708Z</time></trkpt><trkpt lat="39.24865769838125" lon="16.508980849774456"><ele>1287.0</ele><time>2026-04-25T10:07:01.707Z</time></trkpt><trkpt lat="39.24866979425606" lon="16.508879325084706"><ele>1287.0</ele><time>2026-04-25T10:07:04.707Z</time></trkpt><trkpt lat="39.24868254418221" lon="16.508759801187846"><ele>1287.0</ele><time>2026-04-25T10:07:07.707Z</time></trkpt><trkpt lat="39.248690933686035" lon="16.508637631551384"><ele>1287.0</ele><time>2026-04-25T10:07:10.707Z</time></trkpt><trkpt lat="39.248696808103375" lon="16.508540506508037"><ele>1287.0</ele><time>2026-04-25T10:07:12.707Z</time></trkpt><trkpt lat="39.248704358693836" lon="16.508448913252526"><ele>1287.0</ele><time>2026-04-25T10:07:14.707Z</time></trkpt><trkpt lat="39.24871163682089" lon="16.50835194067585"><ele>1287.0</ele><time>2026-04-25T10:07:17.707Z</time></trkpt><trkpt lat="39.24871293709987" lon="16.50824169543602"><ele>1287.0</ele><time>2026-04-25T10:07:21.707Z</time></trkpt><trkpt lat="39.24873984349807" lon="16.50816234749076"><ele>1287.0</ele><time>2026-04-25T10:09:31.707Z</time></trkpt><trkpt lat="39.24873478836486" lon="16.508255955957384"><ele>1287.0</ele><time>2026-04-25T10:12:39.707Z</time></trkpt><trkpt lat="39.24878841330308" lon="16.50838951183339"><ele>1287.0</ele><time>2026-04-25T11:01:59.675Z</time></trkpt><trkpt lat="39.24878263084686" lon="16.508288789323903"><ele>1287.0</ele><time>2026-04-25T11:09:56.67Z</time></trkpt><trkpt lat="39.24877026373591" lon="16.508375233486188"><ele>1287.0</ele><time>2026-04-25T11:12:45.668Z</time></trkpt><trkpt lat="39.24880130081639" lon="16.50829787628929"><ele>1287.0</ele><time>2026-04-25T11:36:13.644Z</time></trkpt><trkpt lat="39.24883031396035" lon="16.508161038629623"><ele>1287.0</ele><time>2026-04-25T11:36:45.643Z</time></trkpt><trkpt lat="39.24889963332336" lon="16.50811969991628"><ele>1287.0</ele><time>2026-04-25T11:36:47.696Z</time></trkpt><trkpt lat="39.248753452993704" lon="16.50838308422928"><ele>1287.0</ele><time>2026-04-25T11:37:12.85Z</time></trkpt><trkpt lat="39.24873215636661" lon="16.50829696477854"><ele>1287.0</ele><time>2026-04-25T11:38:45.641Z</time></trkpt><trkpt lat="39.24874067290353" lon="16.508215254066208"><ele>1287.0</ele><time>2026-04-25T11:38:50.641Z</time></trkpt><trkpt lat="39.24872215308797" lon="16.508111568245912"><ele>1287.0</ele><time>2026-04-25T11:50:22.634Z</time></trkpt><trkpt lat="39.24872150532825" lon="16.508014600956336"><ele>1287.0</ele><time>2026-04-25T11:50:26.634Z</time></trkpt><trkpt lat="39.248736616563654" lon="16.507921716037092"><ele>1287.0</ele><time>2026-04-25T11:50:36.634Z</time></trkpt><trkpt lat="39.24875179832566" lon="16.50783965146092"><ele>1287.0</ele><time>2026-04-25T11:50:38.634Z</time></trkpt><trkpt lat="39.248773438809515" lon="16.507752321986086"><ele>1287.0</ele><time>2026-04-25T11:50:40.634Z</time></trkpt><trkpt lat="39.24880017854138" lon="16.50767319275114"><ele>1286.5</ele><time>2026-04-25T11:50:42.634Z</time></trkpt><trkpt lat="39.24883052583387" lon="16.50759612187944"><ele>1286.0</ele><time>2026-04-25T11:50:44.634Z</time></trkpt><trkpt lat="39.24886579525406" lon="16.50752207937403"><ele>1285.5</ele><time>2026-04-25T11:50:46.634Z</time></trkpt><trkpt lat="39.248884269491754" lon="16.507417992753982"><ele>1285.0</ele><time>2026-04-25T11:50:49.634Z</time></trkpt><trkpt lat="39.24892865248117" lon="16.50731832455759"><ele>1284.5</ele><time>2026-04-25T11:50:52.634Z</time></trkpt><trkpt lat="39.24897904502233" lon="16.507213807991047"><ele>1284.0</ele><time>2026-04-25T11:50:55.634Z</time></trkpt><trkpt lat="39.249033990638125" lon="16.507127823977235"><ele>1285.4</ele><time>2026-04-25T11:50:57.634Z</time></trkpt><trkpt lat="39.249106407482934" lon="16.507025399873445"><ele>1286.8000000000002</ele><time>2026-04-25T11:50:59.633Z</time></trkpt><trkpt lat="39.249198391100556" lon="16.50693511216373"><ele>1288.1999999999998</ele><time>2026-04-25T11:51:01.633Z</time></trkpt><trkpt lat="39.249275782990615" lon="16.50682556105087"><ele>1289.6</ele><time>2026-04-25T11:51:03.633Z</time></trkpt><trkpt lat="39.24934996705922" lon="16.50671922063229"><ele>1291.0</ele><time>2026-04-25T11:51:05.633Z</time></trkpt><trkpt lat="39.24942735533066" lon="16.506612531766393"><ele>1291.0</ele><time>2026-04-25T11:51:07.633Z</time></trkpt><trkpt lat="39.24950036025221" lon="16.506524827166686"><ele>1291.0</ele><time>2026-04-25T11:51:09.633Z</time></trkpt><trkpt lat="39.24957620426642" lon="16.506448097622798"><ele>1291.0</ele><time>2026-04-25T11:51:11.633Z</time></trkpt><trkpt lat="39.24967203562922" lon="16.50635470931582"><ele>1291.0</ele><time>2026-04-25T11:51:13.633Z</time></trkpt><trkpt lat="39.249763184717075" lon="16.50626762143935"><ele>1291.0</ele><time>2026-04-25T11:51:15.633Z</time></trkpt><trkpt lat="39.2498601599153" lon="16.506170750654533"><ele>1291.7142857142856</ele><time>2026-04-25T11:51:17.633Z</time></trkpt><trkpt lat="39.249908634593496" lon="16.50611439882773"><ele>1292.4285714285713</ele><time>2026-04-25T11:51:18.634Z</time></trkpt><trkpt lat="39.249955566248566" lon="16.50605912603694"><ele>1293.142857142857</ele><time>2026-04-25T11:51:19.634Z</time></trkpt><trkpt lat="39.25000206970077" lon="16.506004085968993"><ele>1293.8571428571427</ele><time>2026-04-25T11:51:20.634Z</time></trkpt><trkpt lat="39.25004928042471" lon="16.505945392818976"><ele>1294.5714285714284</ele><time>2026-04-25T11:51:21.634Z</time></trkpt><trkpt lat="39.250093683112546" lon="16.505885283337452"><ele>1295.2857142857142</ele><time>2026-04-25T11:51:22.634Z</time></trkpt><trkpt lat="39.250138956332364" lon="16.505826244223204"><ele>1296.0</ele><time>2026-04-25T11:51:23.634Z</time></trkpt><trkpt lat="39.25024018062874" lon="16.505756165836942"><ele>1296.0</ele><time>2026-04-25T11:51:25.634Z</time></trkpt><trkpt lat="39.250351371012606" lon="16.50577349070684"><ele>1296.0</ele><time>2026-04-25T11:51:27.634Z</time></trkpt><trkpt lat="39.25041414160587" lon="16.505780539842814"><ele>1296.0</ele><time>2026-04-25T11:51:28.634Z</time></trkpt><trkpt lat="39.250514085758816" lon="16.505787523079672"><ele>1296.0</ele><time>2026-04-25T11:51:30.634Z</time></trkpt><trkpt lat="39.25059287264605" lon="16.50580505151858"><ele>1296.0</ele><time>2026-04-25T11:51:32.634Z</time></trkpt><trkpt lat="39.25060790599298" lon="16.505915030663232"><ele>1296.0</ele><time>2026-04-25T11:51:34.634Z</time></trkpt><trkpt lat="39.250560518368886" lon="16.506043799345882"><ele>1296.0</ele><time>2026-04-25T11:51:36.634Z</time></trkpt><trkpt lat="39.2505106900726" lon="16.506178731193426"><ele>1296.0</ele><time>2026-04-25T11:51:38.634Z</time></trkpt><trkpt lat="39.25046296928839" lon="16.50632869850643"><ele>1296.0</ele><time>2026-04-25T11:51:40.634Z</time></trkpt><trkpt lat="39.25043725164998" lon="16.50640373681061"><ele>1296.0</ele><time>2026-04-25T11:51:41.634Z</time></trkpt><trkpt lat="39.250406412329745" lon="16.506480039838824"><ele>1296.0</ele><time>2026-04-25T11:51:42.634Z</time></trkpt><trkpt lat="39.25037614288492" lon="16.50655515142441"><ele>1296.0</ele><time>2026-04-25T11:51:43.634Z</time></trkpt><trkpt lat="39.25034807851897" lon="16.506634872580022"><ele>1297.4</ele><time>2026-04-25T11:51:44.634Z</time></trkpt><trkpt lat="39.250320902362034" lon="16.506718506884926"><ele>1298.8</ele><time>2026-04-25T11:51:45.634Z</time></trkpt><trkpt lat="39.25029161147115" lon="16.50680553620595"><ele>1300.2</ele><time>2026-04-25T11:51:46.634Z</time></trkpt><trkpt lat="39.25023979644894" lon="16.506946859408448"><ele>1301.6000000000001</ele><time>2026-04-25T11:51:48.634Z</time></trkpt><trkpt lat="39.25019406752922" lon="16.50707360424829"><ele>1303.0</ele><time>2026-04-25T11:51:50.634Z</time></trkpt><trkpt lat="39.25013940220849" lon="16.507225039811424"><ele>1304.0</ele><time>2026-04-25T11:51:52.634Z</time></trkpt><trkpt lat="39.250109084122826" lon="16.50730635770613"><ele>1305.0</ele><time>2026-04-25T11:51:53.633Z</time></trkpt><trkpt lat="39.25008020717862" lon="16.50740101923713"><ele>1306.0</ele><time>2026-04-25T11:51:54.633Z</time></trkpt><trkpt lat="39.25003033758365" lon="16.507503301891365"><ele>1307.0</ele><time>2026-04-25T11:51:55.633Z</time></trkpt><trkpt lat="39.2499994846769" lon="16.507592509503453"><ele>1308.0</ele><time>2026-04-25T11:51:56.633Z</time></trkpt><trkpt lat="39.249970421152035" lon="16.507677654336266"><ele>1309.0</ele><time>2026-04-25T11:51:57.633Z</time></trkpt><trkpt lat="39.249953363297955" lon="16.507773779412524"><ele>1309.0</ele><time>2026-04-25T11:51:58.633Z</time></trkpt><trkpt lat="39.24991554045121" lon="16.507860503785086"><ele>1309.0</ele><time>2026-04-25T11:51:59.633Z</time></trkpt><trkpt lat="39.2498803714047" lon="16.507952059859953"><ele>1309.0</ele><time>2026-04-25T11:52:00.633Z</time></trkpt><trkpt lat="39.24985800776253" lon="16.508047571341308"><ele>1309.0</ele><time>2026-04-25T11:52:01.633Z</time></trkpt><trkpt lat="39.24984618720217" lon="16.50814977861747"><ele>1309.0</ele><time>2026-04-25T11:52:02.633Z</time></trkpt><trkpt lat="39.24984640137624" lon="16.508254642665847"><ele>1309.0</ele><time>2026-04-25T11:52:03.633Z</time></trkpt><trkpt lat="39.24984248011403" lon="16.50836387175674"><ele>1309.1666666666665</ele><time>2026-04-25T11:52:04.633Z</time></trkpt><trkpt lat="39.249867001981606" lon="16.508478310384817"><ele>1309.3333333333333</ele><time>2026-04-25T11:52:05.633Z</time></trkpt><trkpt lat="39.24990639911569" lon="16.508583364923425"><ele>1309.5</ele><time>2026-04-25T11:52:06.633Z</time></trkpt><trkpt lat="39.24997279632313" lon="16.508670010904144"><ele>1309.6666666666667</ele><time>2026-04-25T11:52:07.633Z</time></trkpt><trkpt lat="39.25001415986207" lon="16.508771411106434"><ele>1309.8333333333335</ele><time>2026-04-25T11:52:08.633Z</time></trkpt><trkpt lat="39.25007131930914" lon="16.508844941316887"><ele>1310.0</ele><time>2026-04-25T11:52:09.633Z</time></trkpt><trkpt lat="39.250126735079974" lon="16.508914918624583"><ele>1310.0</ele><time>2026-04-25T11:52:10.633Z</time></trkpt><trkpt lat="39.25018151170026" lon="16.508983769028035"><ele>1310.0</ele><time>2026-04-25T11:52:11.633Z</time></trkpt><trkpt lat="39.250242927924525" lon="16.509043139854402"><ele>1310.0</ele><time>2026-04-25T11:52:12.633Z</time></trkpt><trkpt lat="39.25028568809723" lon="16.50913256850356"><ele>1310.0</ele><time>2026-04-25T11:52:13.633Z</time></trkpt><trkpt lat="39.25032624274169" lon="16.509235377510446"><ele>1310.0</ele><time>2026-04-25T11:52:14.633Z</time></trkpt><trkpt lat="39.25036197594906" lon="16.50935221300679"><ele>1310.0</ele><time>2026-04-25T11:52:15.633Z</time></trkpt><trkpt lat="39.25041035174827" lon="16.509464327212875"><ele>1311.2</ele><time>2026-04-25T11:52:16.633Z</time></trkpt><trkpt lat="39.25045558527206" lon="16.50958708365592"><ele>1312.4</ele><time>2026-04-25T11:52:17.633Z</time></trkpt><trkpt lat="39.250534148926164" lon="16.50966215107101"><ele>1313.6</ele><time>2026-04-25T11:52:18.633Z</time></trkpt><trkpt lat="39.250625262763656" lon="16.509701930095783"><ele>1314.8</ele><time>2026-04-25T11:52:19.633Z</time></trkpt><trkpt lat="39.25072146383151" lon="16.50970273364875"><ele>1316.0</ele><time>2026-04-25T11:52:20.633Z</time></trkpt><trkpt lat="39.25081924628746" lon="16.50969769382328"><ele>1316.0</ele><time>2026-04-25T11:52:21.633Z</time></trkpt><trkpt lat="39.250916474901636" lon="16.50971888548805"><ele>1316.0</ele><time>2026-04-25T11:52:22.633Z</time></trkpt><trkpt lat="39.25100629782379" lon="16.50972819553049"><ele>1316.0</ele><time>2026-04-25T11:52:23.633Z</time></trkpt><trkpt lat="39.25108443432995" lon="16.509722401130787"><ele>1316.0</ele><time>2026-04-25T11:52:24.633Z</time></trkpt><trkpt lat="39.25115464429719" lon="16.50976924462016"><ele>1316.0</ele><time>2026-04-25T11:52:25.633Z</time></trkpt><trkpt lat="39.251212112876374" lon="16.50985681124823"><ele>1316.0</ele><time>2026-04-25T11:52:26.633Z</time></trkpt><trkpt lat="39.251275963101904" lon="16.509951168855896"><ele>1316.0</ele><time>2026-04-25T11:52:27.633Z</time></trkpt><trkpt lat="39.251340682476794" lon="16.51004458796618"><ele>1316.0</ele><time>2026-04-25T11:52:28.633Z</time></trkpt><trkpt lat="39.25138328201163" lon="16.510134118204114"><ele>1316.0</ele><time>2026-04-25T11:52:29.633Z</time></trkpt><trkpt lat="39.251427702269595" lon="16.51021927642126"><ele>1316.0</ele><time>2026-04-25T11:52:30.633Z</time></trkpt><trkpt lat="39.25147401006492" lon="16.51029675734054"><ele>1316.0</ele><time>2026-04-25T11:52:31.633Z</time></trkpt><trkpt lat="39.25152636850882" lon="16.51037033775775"><ele>1316.0</ele><time>2026-04-25T11:52:32.633Z</time></trkpt><trkpt lat="39.251585459941246" lon="16.51043949472196"><ele>1316.1666666666667</ele><time>2026-04-25T11:52:33.633Z</time></trkpt><trkpt lat="39.25163509028301" lon="16.51052675571196"><ele>1316.3333333333335</ele><time>2026-04-25T11:52:34.633Z</time></trkpt><trkpt lat="39.251701555819146" lon="16.510592918321986"><ele>1316.5</ele><time>2026-04-25T11:52:35.633Z</time></trkpt><trkpt lat="39.25177171993332" lon="16.510658212944477"><ele>1316.6666666666667</ele><time>2026-04-25T11:52:36.633Z</time></trkpt><trkpt lat="39.25185122430471" lon="16.51070834082488"><ele>1316.8333333333333</ele><time>2026-04-25T11:52:37.633Z</time></trkpt><trkpt lat="39.251911172389896" lon="16.51077097546206"><ele>1317.0</ele><time>2026-04-25T11:52:38.633Z</time></trkpt><trkpt lat="39.25196242326538" lon="16.510826233440664"><ele>1317.0</ele><time>2026-04-25T11:52:39.633Z</time></trkpt><trkpt lat="39.25204954613714" lon="16.51094133655343"><ele>1317.0</ele><time>2026-04-25T11:52:41.633Z</time></trkpt><trkpt lat="39.25210086611101" lon="16.511080912598292"><ele>1317.0</ele><time>2026-04-25T11:52:43.633Z</time></trkpt><trkpt lat="39.25212820802501" lon="16.51123117671441"><ele>1317.0</ele><time>2026-04-25T11:52:45.633Z</time></trkpt><trkpt lat="39.25214497988697" lon="16.511365422462134"><ele>1316.6</ele><time>2026-04-25T11:52:47.633Z</time></trkpt><trkpt lat="39.252169073752334" lon="16.511505512775948"><ele>1316.1999999999998</ele><time>2026-04-25T11:52:49.633Z</time></trkpt><trkpt lat="39.252184248864296" lon="16.511667809522137"><ele>1315.8</ele><time>2026-04-25T11:52:51.633Z</time></trkpt><trkpt lat="39.25217962174804" lon="16.511750530174133"><ele>1315.4</ele><time>2026-04-25T11:52:52.633Z</time></trkpt><trkpt lat="39.25214607540666" lon="16.51190917225803"><ele>1315.0</ele><time>2026-04-25T11:52:54.633Z</time></trkpt><trkpt lat="39.252114819514624" lon="16.511984709657288"><ele>1315.0</ele><time>2026-04-25T11:52:55.633Z</time></trkpt><trkpt lat="39.25207615723373" lon="16.512054905603115"><ele>1315.0</ele><time>2026-04-25T11:52:56.633Z</time></trkpt><trkpt lat="39.25203159040685" lon="16.512131821014687"><ele>1315.0</ele><time>2026-04-25T11:52:57.633Z</time></trkpt><trkpt lat="39.25198296824519" lon="16.51221707797645"><ele>1315.0</ele><time>2026-04-25T11:52:58.633Z</time></trkpt><trkpt lat="39.251921458949006" lon="16.512310675183457"><ele>1315.0</ele><time>2026-04-25T11:52:59.633Z</time></trkpt><trkpt lat="39.25185226347821" lon="16.512405695341016"><ele>1315.0</ele><time>2026-04-25T11:53:00.633Z</time></trkpt><trkpt lat="39.251769190990984" lon="16.512491259258407"><ele>1313.75</ele><time>2026-04-25T11:53:01.633Z</time></trkpt><trkpt lat="39.25167268186054" lon="16.51257297401377"><ele>1312.5</ele><time>2026-04-25T11:53:02.633Z</time></trkpt><trkpt lat="39.25157156959691" lon="16.512650841498406"><ele>1311.25</ele><time>2026-04-25T11:53:03.633Z</time></trkpt><trkpt lat="39.25147332311499" lon="16.51273273876781"><ele>1310.0</ele><time>2026-04-25T11:53:04.633Z</time></trkpt><trkpt lat="39.251395311208796" lon="16.512820461779306"><ele>1311.2</ele><time>2026-04-25T11:53:05.633Z</time></trkpt><trkpt lat="39.251327179392995" lon="16.51291090405668"><ele>1312.4</ele><time>2026-04-25T11:53:06.633Z</time></trkpt><trkpt lat="39.251269035159936" lon="16.51300681428009"><ele>1313.6</ele><time>2026-04-25T11:53:07.633Z</time></trkpt><trkpt lat="39.25121119080633" lon="16.513103067839303"><ele>1314.8</ele><time>2026-04-25T11:53:08.633Z</time></trkpt><trkpt lat="39.25115026448595" lon="16.5132004013557"><ele>1316.0</ele><time>2026-04-25T11:53:09.633Z</time></trkpt><trkpt lat="39.25108491677217" lon="16.513303775474014"><ele>1316.0</ele><time>2026-04-25T11:53:10.633Z</time></trkpt><trkpt lat="39.251019869150966" lon="16.513410866196477"><ele>1316.0</ele><time>2026-04-25T11:53:11.633Z</time></trkpt><trkpt lat="39.250952483452544" lon="16.51352343024653"><ele>1316.0</ele><time>2026-04-25T11:53:12.633Z</time></trkpt><trkpt lat="39.250882694052926" lon="16.513637122881935"><ele>1316.0</ele><time>2026-04-25T11:53:13.633Z</time></trkpt><trkpt lat="39.25081334242634" lon="16.51374352713951"><ele>1316.0</ele><time>2026-04-25T11:53:14.633Z</time></trkpt><trkpt lat="39.2507471470695" lon="16.513835008499516"><ele>1315.8</ele><time>2026-04-25T11:53:15.633Z</time></trkpt><trkpt lat="39.25068056474206" lon="16.513922128164694"><ele>1315.6</ele><time>2026-04-25T11:53:16.633Z</time></trkpt><trkpt lat="39.25061675386858" lon="16.514008371235054"><ele>1315.4</ele><time>2026-04-25T11:53:17.633Z</time></trkpt><trkpt lat="39.250553428317936" lon="16.514092300870402"><ele>1315.2</ele><time>2026-04-25T11:53:18.633Z</time></trkpt><trkpt lat="39.25049210237239" lon="16.514173289979457"><ele>1315.0</ele><time>2026-04-25T11:53:19.633Z</time></trkpt><trkpt lat="39.250432451365256" lon="16.514250371944875"><ele>1315.0</ele><time>2026-04-25T11:53:20.633Z</time></trkpt><trkpt lat="39.25037617082616" lon="16.514322218108163"><ele>1315.0</ele><time>2026-04-25T11:53:21.633Z</time></trkpt><trkpt lat="39.25031635854456" lon="16.514392655047594"><ele>1315.0</ele><time>2026-04-25T11:53:22.633Z</time></trkpt><trkpt lat="39.25025372784413" lon="16.51446210256337"><ele>1315.0</ele><time>2026-04-25T11:53:23.633Z</time></trkpt><trkpt lat="39.250183260013486" lon="16.5145297100978"><ele>1315.0</ele><time>2026-04-25T11:53:24.633Z</time></trkpt><trkpt lat="39.250108691298884" lon="16.514583667094666"><ele>1315.0</ele><time>2026-04-25T11:53:25.633Z</time></trkpt><trkpt lat="39.25003547774665" lon="16.514636608546045"><ele>1314.3333333333333</ele><time>2026-04-25T11:53:26.633Z</time></trkpt><trkpt lat="39.24996685173783" lon="16.51469192088058"><ele>1313.6666666666665</ele><time>2026-04-25T11:53:27.633Z</time></trkpt><trkpt lat="39.249900748894696" lon="16.51474935550302"><ele>1313.0</ele><time>2026-04-25T11:53:28.633Z</time></trkpt><trkpt lat="39.249831876142714" lon="16.514808339745173"><ele>1312.3333333333333</ele><time>2026-04-25T11:53:29.633Z</time></trkpt><trkpt lat="39.24976800193418" lon="16.514875282895908"><ele>1311.6666666666667</ele><time>2026-04-25T11:53:30.633Z</time></trkpt><trkpt lat="39.249716001747736" lon="16.514959918781873"><ele>1311.0</ele><time>2026-04-25T11:53:31.633Z</time></trkpt><trkpt lat="39.249675116254465" lon="16.51504413861079"><ele>1311.0</ele><time>2026-04-25T11:53:32.633Z</time></trkpt><trkpt lat="39.24964191398036" lon="16.5151313381537"><ele>1311.0</ele><time>2026-04-25T11:53:33.633Z</time></trkpt><trkpt lat="39.24961365404582" lon="16.51521835770793"><ele>1311.0</ele><time>2026-04-25T11:53:34.633Z</time></trkpt><trkpt lat="39.249592704454834" lon="16.515312645634374"><ele>1311.0</ele><time>2026-04-25T11:53:35.633Z</time></trkpt><trkpt lat="39.24958043010535" lon="16.515415644709055"><ele>1311.0</ele><time>2026-04-25T11:53:36.633Z</time></trkpt><trkpt lat="39.249576077945036" lon="16.51552713549343"><ele>1311.0</ele><time>2026-04-25T11:53:37.633Z</time></trkpt><trkpt lat="39.24958074189267" lon="16.515648993535113"><ele>1311.5</ele><time>2026-04-25T11:53:38.633Z</time></trkpt><trkpt lat="39.24959774913005" lon="16.51578555077938"><ele>1312.0</ele><time>2026-04-25T11:53:39.633Z</time></trkpt><trkpt lat="39.24963020669927" lon="16.51593700607828"><ele>1312.5</ele><time>2026-04-25T11:53:40.633Z</time></trkpt><trkpt lat="39.24966425232286" lon="16.51608481453314"><ele>1313.0</ele><time>2026-04-25T11:53:41.633Z</time></trkpt><trkpt lat="39.24969110052789" lon="16.516230808789032"><ele>1312.8000000000002</ele><time>2026-04-25T11:53:42.633Z</time></trkpt><trkpt lat="39.24970381009548" lon="16.516366188057827"><ele>1312.6</ele><time>2026-04-25T11:53:43.633Z</time></trkpt><trkpt lat="39.24970425328718" lon="16.51649329895958"><ele>1312.4</ele><time>2026-04-25T11:53:44.633Z</time></trkpt><trkpt lat="39.249678817482696" lon="16.516611462961677"><ele>1312.1999999999998</ele><time>2026-04-25T11:53:45.633Z</time></trkpt><trkpt lat="39.24966804085554" lon="16.516722744601495"><ele>1312.0</ele><time>2026-04-25T11:53:46.633Z</time></trkpt><trkpt lat="39.249657569263704" lon="16.5168248060805"><ele>1312.0</ele><time>2026-04-25T11:53:47.633Z</time></trkpt><trkpt lat="39.249663214300966" lon="16.51692187024685"><ele>1312.0</ele><time>2026-04-25T11:53:48.633Z</time></trkpt><trkpt lat="39.24965351406457" lon="16.517010547785922"><ele>1312.0</ele><time>2026-04-25T11:53:49.633Z</time></trkpt><trkpt lat="39.24964374551246" lon="16.517094838126727"><ele>1312.0</ele><time>2026-04-25T11:53:50.633Z</time></trkpt><trkpt lat="39.24962975985103" lon="16.51724055188581"><ele>1312.0</ele><time>2026-04-25T11:53:52.633Z</time></trkpt><trkpt lat="39.249611470239074" lon="16.517363180565333"><ele>1312.0</ele><time>2026-04-25T11:53:54.633Z</time></trkpt><trkpt lat="39.24959890079839" lon="16.517485623006202"><ele>1311.6</ele><time>2026-04-25T11:53:56.633Z</time></trkpt><trkpt lat="39.24958904082963" lon="16.517608359301228"><ele>1311.1999999999998</ele><time>2026-04-25T11:53:58.633Z</time></trkpt><trkpt lat="39.24957816976154" lon="16.517733442551478"><ele>1310.8</ele><time>2026-04-25T11:54:00.633Z</time></trkpt><trkpt lat="39.24955342702956" lon="16.517892699713876"><ele>1310.4</ele><time>2026-04-25T11:54:02.633Z</time></trkpt><trkpt lat="39.24954381568691" lon="16.518006202370067"><ele>1310.0</ele><time>2026-04-25T11:54:03.633Z</time></trkpt><trkpt lat="39.24953381643426" lon="16.518148605545047"><ele>1311.25</ele><time>2026-04-25T11:54:04.633Z</time></trkpt><trkpt lat="39.24952436443542" lon="16.51829880656339"><ele>1312.5</ele><time>2026-04-25T11:54:05.633Z</time></trkpt><trkpt lat="39.24951556754381" lon="16.51846850288664"><ele>1313.75</ele><time>2026-04-25T11:54:06.633Z</time></trkpt><trkpt lat="39.2495107380795" lon="16.518652648271605"><ele>1315.0</ele><time>2026-04-25T11:54:07.633Z</time></trkpt><trkpt lat="39.24950837630132" lon="16.518844667741075"><ele>1315.25</ele><time>2026-04-25T11:54:08.633Z</time></trkpt><trkpt lat="39.249524917467404" lon="16.519042604447765"><ele>1315.5</ele><time>2026-04-25T11:54:09.633Z</time></trkpt><trkpt lat="39.24952489189791" lon="16.519236541927093"><ele>1315.75</ele><time>2026-04-25T11:54:10.633Z</time></trkpt><trkpt lat="39.24954245640929" lon="16.519413674306204"><ele>1316.0</ele><time>2026-04-25T11:54:11.633Z</time></trkpt><trkpt lat="39.24957694457824" lon="16.519577710528004"><ele>1316.25</ele><time>2026-04-25T11:54:12.633Z</time></trkpt><trkpt lat="39.249603496129566" lon="16.51975619590274"><ele>1316.5</ele><time>2026-04-25T11:54:13.633Z</time></trkpt><trkpt lat="39.24964204589244" lon="16.519910967973086"><ele>1316.75</ele><time>2026-04-25T11:54:14.633Z</time></trkpt><trkpt lat="39.249658238452646" lon="16.52004912687608"><ele>1317.0</ele><time>2026-04-25T11:54:15.633Z</time></trkpt><trkpt lat="39.24965585843138" lon="16.52017950273924"><ele>1317.0</ele><time>2026-04-25T11:54:16.633Z</time></trkpt><trkpt lat="39.24963123816092" lon="16.520300255453417"><ele>1317.0</ele><time>2026-04-25T11:54:17.633Z</time></trkpt><trkpt lat="39.249589566070846" lon="16.52041061270395"><ele>1317.0</ele><time>2026-04-25T11:54:18.633Z</time></trkpt><trkpt lat="39.249549509839056" lon="16.520541521993998"><ele>1317.0</ele><time>2026-04-25T11:54:19.633Z</time></trkpt><trkpt lat="39.24948388890544" lon="16.520663310669075"><ele>1317.0</ele><time>2026-04-25T11:54:20.633Z</time></trkpt><trkpt lat="39.24943135569385" lon="16.520794682045253"><ele>1319.5</ele><time>2026-04-25T11:54:21.633Z</time></trkpt><trkpt lat="39.24937959873672" lon="16.52092808045128"><ele>1322.0</ele><time>2026-04-25T11:54:22.633Z</time></trkpt><trkpt lat="39.24933512724557" lon="16.521063291328574"><ele>1324.5</ele><time>2026-04-25T11:54:23.633Z</time></trkpt><trkpt lat="39.24928712319565" lon="16.52119531229276"><ele>1327.0</ele><time>2026-04-25T11:54:24.632Z</time></trkpt><trkpt lat="39.24923378392613" lon="16.521324114450533"><ele>1329.25</ele><time>2026-04-25T11:54:25.632Z</time></trkpt><trkpt lat="39.249181906585044" lon="16.52145596425679"><ele>1331.5</ele><time>2026-04-25T11:54:26.632Z</time></trkpt><trkpt lat="39.24912521012545" lon="16.52158095834464"><ele>1333.75</ele><time>2026-04-25T11:54:27.632Z</time></trkpt><trkpt lat="39.24907452427011" lon="16.52171287009662"><ele>1336.0</ele><time>2026-04-25T11:54:28.632Z</time></trkpt><trkpt lat="39.24901768720117" lon="16.521837930171472"><ele>1336.0</ele><time>2026-04-25T11:54:29.632Z</time></trkpt><trkpt lat="39.24896305935013" lon="16.52195987389447"><ele>1336.0</ele><time>2026-04-25T11:54:30.632Z</time></trkpt><trkpt lat="39.248916433277365" lon="16.52209185916795"><ele>1336.0</ele><time>2026-04-25T11:54:31.632Z</time></trkpt><trkpt lat="39.24887728126323" lon="16.52222582553322"><ele>1336.0</ele><time>2026-04-25T11:54:32.632Z</time></trkpt><trkpt lat="39.24884565598687" lon="16.522354427136502"><ele>1336.0</ele><time>2026-04-25T11:54:33.632Z</time></trkpt><trkpt lat="39.248818516103704" lon="16.522476077876664"><ele>1332.4</ele><time>2026-04-25T11:54:34.632Z</time></trkpt><trkpt lat="39.248792696770785" lon="16.52260167680192"><ele>1328.8</ele><time>2026-04-25T11:54:35.632Z</time></trkpt><trkpt lat="39.2487733523595" lon="16.522732846267743"><ele>1325.2</ele><time>2026-04-25T11:54:36.632Z</time></trkpt><trkpt lat="39.24874847204552" lon="16.522872095260794"><ele>1321.6000000000001</ele><time>2026-04-25T11:54:37.632Z</time></trkpt><trkpt lat="39.24873885829019" lon="16.52301584626552"><ele>1318.0</ele><time>2026-04-25T11:54:38.632Z</time></trkpt><trkpt lat="39.24872779468124" lon="16.523160972316397"><ele>1318.0</ele><time>2026-04-25T11:54:39.632Z</time></trkpt><trkpt lat="39.248727830640036" lon="16.523295903538173"><ele>1318.0</ele><time>2026-04-25T11:54:40.632Z</time></trkpt><trkpt lat="39.24872767352707" lon="16.523413499468795"><ele>1318.0</ele><time>2026-04-25T11:54:41.632Z</time></trkpt><trkpt lat="39.24872564025118" lon="16.52352499228236"><ele>1318.0</ele><time>2026-04-25T11:54:42.632Z</time></trkpt><trkpt lat="39.248729661061006" lon="16.52363162151785"><ele>1318.0</ele><time>2026-04-25T11:54:43.632Z</time></trkpt><trkpt lat="39.24871710770416" lon="16.523729405216937"><ele>1318.0</ele><time>2026-04-25T11:54:44.632Z</time></trkpt><trkpt lat="39.248725841795135" lon="16.523827681934055"><ele>1318.2</ele><time>2026-04-25T11:54:45.632Z</time></trkpt><trkpt lat="39.248741933082194" lon="16.523930694961894"><ele>1318.4</ele><time>2026-04-25T11:54:46.632Z</time></trkpt><trkpt lat="39.24876471256482" lon="16.52404427343135"><ele>1318.6000000000001</ele><time>2026-04-25T11:54:47.632Z</time></trkpt><trkpt lat="39.24879811636534" lon="16.5241584970962"><ele>1318.8000000000002</ele><time>2026-04-25T11:54:48.632Z</time></trkpt><trkpt lat="39.24883391761047" lon="16.524277053120848"><ele>1319.0</ele><time>2026-04-25T11:54:49.632Z</time></trkpt><trkpt lat="39.24886746920062" lon="16.52438815943194"><ele>1319.0</ele><time>2026-04-25T11:54:50.632Z</time></trkpt><trkpt lat="39.248901961937946" lon="16.524507940241534"><ele>1319.0</ele><time>2026-04-25T11:54:51.632Z</time></trkpt><trkpt lat="39.24893225448716" lon="16.52462743760528"><ele>1319.0</ele><time>2026-04-25T11:54:52.632Z</time></trkpt><trkpt lat="39.248954773407725" lon="16.524743975894573"><ele>1319.0</ele><time>2026-04-25T11:54:53.632Z</time></trkpt><trkpt lat="39.24896640417764" lon="16.524853321872232"><ele>1319.0</ele><time>2026-04-25T11:54:54.632Z</time></trkpt><trkpt lat="39.24897778435743" lon="16.524963028474208"><ele>1320.4</ele><time>2026-04-25T11:54:55.632Z</time></trkpt><trkpt lat="39.24894602276986" lon="16.525067803717885"><ele>1321.8000000000002</ele><time>2026-04-25T11:54:56.632Z</time></trkpt><trkpt lat="39.24889168476452" lon="16.525154958940146"><ele>1323.1999999999998</ele><time>2026-04-25T11:54:57.632Z</time></trkpt><trkpt lat="39.24882033606163" lon="16.525230316247217"><ele>1324.6</ele><time>2026-04-25T11:54:58.632Z</time></trkpt><trkpt lat="39.248739891324824" lon="16.525292573448816"><ele>1326.0</ele><time>2026-04-25T11:54:59.632Z</time></trkpt><trkpt lat="39.24864543383063" lon="16.525361251786627"><ele>1330.0</ele><time>2026-04-25T11:55:00.632Z</time></trkpt><trkpt lat="39.24854492150434" lon="16.525444206733383"><ele>1334.0</ele><time>2026-04-25T11:55:01.632Z</time></trkpt><trkpt lat="39.24844024533026" lon="16.525532038175708"><ele>1338.0</ele><time>2026-04-25T11:55:02.632Z</time></trkpt><trkpt lat="39.24833554293748" lon="16.525622002736636"><ele>1342.0</ele><time>2026-04-25T11:55:03.632Z</time></trkpt><trkpt lat="39.248235229583884" lon="16.525710189122456"><ele>1342.0</ele><time>2026-04-25T11:55:04.632Z</time></trkpt><trkpt lat="39.24813960477936" lon="16.525788686741322"><ele>1342.0</ele><time>2026-04-25T11:55:05.632Z</time></trkpt><trkpt lat="39.24805038826441" lon="16.525864965179206"><ele>1342.0</ele><time>2026-04-25T11:55:06.632Z</time></trkpt><trkpt lat="39.24796775372085" lon="16.525937823362188"><ele>1342.0</ele><time>2026-04-25T11:55:07.632Z</time></trkpt><trkpt lat="39.24788965800741" lon="16.526004713498747"><ele>1342.0</ele><time>2026-04-25T11:55:08.632Z</time></trkpt><trkpt lat="39.24782019279181" lon="16.52606242383316"><ele>1342.0</ele><time>2026-04-25T11:55:09.632Z</time></trkpt><trkpt lat="39.2477465530769" lon="16.526112351684436"><ele>1342.0</ele><time>2026-04-25T11:55:10.632Z</time></trkpt><trkpt lat="39.24767852244296" lon="16.526148329251928"><ele>1342.0</ele><time>2026-04-25T11:55:11.632Z</time></trkpt><trkpt lat="39.24760273204902" lon="16.526183373616362"><ele>1342.0</ele><time>2026-04-25T11:55:12.632Z</time></trkpt><trkpt lat="39.247533154996425" lon="16.52623292143956"><ele>1342.0</ele><time>2026-04-25T11:55:13.632Z</time></trkpt><trkpt lat="39.24746002126748" lon="16.52629799626759"><ele>1342.0</ele><time>2026-04-25T11:55:14.632Z</time></trkpt><trkpt lat="39.24738990392746" lon="16.52637314335214"><ele>1342.0</ele><time>2026-04-25T11:55:15.632Z</time></trkpt><trkpt lat="39.24732475673942" lon="16.526479251424856"><ele>1342.0</ele><time>2026-04-25T11:55:16.632Z</time></trkpt><trkpt lat="39.24726457745186" lon="16.526592018730643"><ele>1342.0</ele><time>2026-04-25T11:55:17.632Z</time></trkpt><trkpt lat="39.24722074177837" lon="16.526704165113035"><ele>1342.0</ele><time>2026-04-25T11:55:18.632Z</time></trkpt><trkpt lat="39.24717687935196" lon="16.526801573738926"><ele>1342.0</ele><time>2026-04-25T11:55:19.632Z</time></trkpt><trkpt lat="39.24714811771284" lon="16.52691258943776"><ele>1341.1666666666665</ele><time>2026-04-25T11:55:20.632Z</time></trkpt><trkpt lat="39.2471149513594" lon="16.527022774592293"><ele>1340.3333333333333</ele><time>2026-04-25T11:55:21.632Z</time></trkpt><trkpt lat="39.24707608609752" lon="16.52711129129495"><ele>1339.5</ele><time>2026-04-25T11:55:22.632Z</time></trkpt><trkpt lat="39.247028727888896" lon="16.527197519553148"><ele>1338.6666666666667</ele><time>2026-04-25T11:55:23.632Z</time></trkpt><trkpt lat="39.24696504198363" lon="16.52725225363695"><ele>1337.8333333333335</ele><time>2026-04-25T11:55:24.632Z</time></trkpt><trkpt lat="39.24689831852192" lon="16.52730232851374"><ele>1337.0</ele><time>2026-04-25T11:55:25.632Z</time></trkpt><trkpt lat="39.24682047253651" lon="16.527358505434957"><ele>1337.0</ele><time>2026-04-25T11:55:26.632Z</time></trkpt><trkpt lat="39.24673538686339" lon="16.527410462132412"><ele>1337.0</ele><time>2026-04-25T11:55:27.632Z</time></trkpt><trkpt lat="39.24666338370539" lon="16.527483043508564"><ele>1337.0</ele><time>2026-04-25T11:55:28.632Z</time></trkpt><trkpt lat="39.246602842903926" lon="16.52759303284463"><ele>1337.0</ele><time>2026-04-25T11:55:29.633Z</time></trkpt><trkpt lat="39.246541672060516" lon="16.527696853874573"><ele>1337.0</ele><time>2026-04-25T11:55:30.633Z</time></trkpt><trkpt lat="39.24646724710419" lon="16.527797090722594"><ele>1334.3333333333335</ele><time>2026-04-25T11:55:31.633Z</time></trkpt><trkpt lat="39.246412052914195" lon="16.52790728333008"><ele>1331.6666666666667</ele><time>2026-04-25T11:55:32.633Z</time></trkpt><trkpt lat="39.24636498137029" lon="16.52801079292473"><ele>1329.0</ele><time>2026-04-25T11:55:33.633Z</time></trkpt><trkpt lat="39.246325668812645" lon="16.528111153183517"><ele>1326.3333333333333</ele><time>2026-04-25T11:55:34.632Z</time></trkpt><trkpt lat="39.24629179590276" lon="16.52820589775983"><ele>1323.6666666666665</ele><time>2026-04-25T11:55:35.632Z</time></trkpt><trkpt lat="39.2462591680959" lon="16.528306104389337"><ele>1321.0</ele><time>2026-04-25T11:55:36.632Z</time></trkpt><trkpt lat="39.24623000867881" lon="16.528406445142178"><ele>1321.0</ele><time>2026-04-25T11:55:37.632Z</time></trkpt><trkpt lat="39.246204772800134" lon="16.528505914832085"><ele>1321.0</ele><time>2026-04-25T11:55:38.632Z</time></trkpt><trkpt lat="39.24618613298193" lon="16.528607590550358"><ele>1321.0</ele><time>2026-04-25T11:55:39.632Z</time></trkpt><trkpt lat="39.24617412410508" lon="16.52870596590191"><ele>1321.0</ele><time>2026-04-25T11:55:40.632Z</time></trkpt><trkpt lat="39.24616748384821" lon="16.528794012243736"><ele>1321.0</ele><time>2026-04-25T11:55:41.632Z</time></trkpt><trkpt lat="39.246164656441614" lon="16.52895770553237"><ele>1321.0</ele><time>2026-04-25T11:55:43.632Z</time></trkpt><trkpt lat="39.246163664252705" lon="16.52904449829445"><ele>1323.3333333333333</ele><time>2026-04-25T11:55:44.632Z</time></trkpt><trkpt lat="39.24618194129705" lon="16.52913752290369"><ele>1325.6666666666665</ele><time>2026-04-25T11:55:45.632Z</time></trkpt><trkpt lat="39.24620028542524" lon="16.529239616613797"><ele>1328.0</ele><time>2026-04-25T11:55:46.632Z</time></trkpt><trkpt lat="39.24622962618826" lon="16.529347867063514"><ele>1330.3333333333333</ele><time>2026-04-25T11:55:47.632Z</time></trkpt><trkpt lat="39.24626968788563" lon="16.52944490413799"><ele>1332.6666666666667</ele><time>2026-04-25T11:55:48.632Z</time></trkpt><trkpt lat="39.24631429227744" lon="16.529526249776225"><ele>1335.0</ele><time>2026-04-25T11:55:49.632Z</time></trkpt><trkpt lat="39.24636496807706" lon="16.52960120480507"><ele>1335.8</ele><time>2026-04-25T11:55:50.632Z</time></trkpt><trkpt lat="39.246418562265056" lon="16.529664831591976"><ele>1336.6</ele><time>2026-04-25T11:55:51.632Z</time></trkpt><trkpt lat="39.24648348190315" lon="16.52971945893682"><ele>1337.4</ele><time>2026-04-25T11:55:52.632Z</time></trkpt><trkpt lat="39.246570780155615" lon="16.529758625894097"><ele>1338.2</ele><time>2026-04-25T11:55:53.632Z</time></trkpt><trkpt lat="39.24668183399746" lon="16.529757538013907"><ele>1339.0</ele><time>2026-04-25T11:55:54.632Z</time></trkpt><trkpt lat="39.246813125645716" lon="16.52970765559819"><ele>1336.0</ele><time>2026-04-25T11:55:55.632Z</time></trkpt><trkpt lat="39.246961154754025" lon="16.529682429306487"><ele>1333.0</ele><time>2026-04-25T11:55:56.632Z</time></trkpt><trkpt lat="39.24713545783172" lon="16.52968892033249"><ele>1330.0</ele><time>2026-04-25T11:55:57.632Z</time></trkpt><trkpt lat="39.24730799308255" lon="16.529688039552028"><ele>1328.0</ele><time>2026-04-25T11:55:58.632Z</time></trkpt><trkpt lat="39.24746655020267" lon="16.529707585317894"><ele>1326.0</ele><time>2026-04-25T11:55:59.632Z</time></trkpt><trkpt lat="39.24761580386045" lon="16.52974123610621"><ele>1324.0</ele><time>2026-04-25T11:56:00.632Z</time></trkpt><trkpt lat="39.247766060172715" lon="16.5297538559414"><ele>1324.0</ele><time>2026-04-25T11:56:01.632Z</time></trkpt><trkpt lat="39.2479127614724" lon="16.529749589555784"><ele>1324.0</ele><time>2026-04-25T11:56:02.632Z</time></trkpt><trkpt lat="39.24805280310472" lon="16.529713045333022"><ele>1324.0</ele><time>2026-04-25T11:56:03.632Z</time></trkpt><trkpt lat="39.248183319610725" lon="16.529645954444486"><ele>1324.0</ele><time>2026-04-25T11:56:04.632Z</time></trkpt><trkpt lat="39.2483281965005" lon="16.529628154579914"><ele>1322.75</ele><time>2026-04-25T11:56:05.632Z</time></trkpt><trkpt lat="39.24846864695754" lon="16.529599698046503"><ele>1321.5</ele><time>2026-04-25T11:56:06.632Z</time></trkpt><trkpt lat="39.24860198731075" lon="16.529579676382244"><ele>1320.25</ele><time>2026-04-25T11:56:07.632Z</time></trkpt><trkpt lat="39.2487355627216" lon="16.529535923297136"><ele>1319.0</ele><time>2026-04-25T11:56:08.632Z</time></trkpt><trkpt lat="39.24887493721417" lon="16.529519861507296"><ele>1320.5</ele><time>2026-04-25T11:56:09.632Z</time></trkpt><trkpt lat="39.2490014184893" lon="16.529478088978113"><ele>1322.0</ele><time>2026-04-25T11:56:10.632Z</time></trkpt><trkpt lat="39.24911686543293" lon="16.529431180191324"><ele>1323.5</ele><time>2026-04-25T11:56:11.632Z</time></trkpt><trkpt lat="39.24922222471074" lon="16.529377955593997"><ele>1325.0</ele><time>2026-04-25T11:56:12.632Z</time></trkpt><trkpt lat="39.24931948792154" lon="16.52930796922877"><ele>1325.0</ele><time>2026-04-25T11:56:13.632Z</time></trkpt><trkpt lat="39.24939306628187" lon="16.529195288924868"><ele>1325.0</ele><time>2026-04-25T11:56:14.632Z</time></trkpt><trkpt lat="39.24945324682378" lon="16.529098936934624"><ele>1325.0</ele><time>2026-04-25T11:56:15.632Z</time></trkpt><trkpt lat="39.24949688440191" lon="16.528997813528985"><ele>1325.0</ele><time>2026-04-25T11:56:16.632Z</time></trkpt><trkpt lat="39.24956183507237" lon="16.52891422469922"><ele>1325.0</ele><time>2026-04-25T11:56:17.632Z</time></trkpt><trkpt lat="39.24961766225622" lon="16.528828864784995"><ele>1325.0</ele><time>2026-04-25T11:56:18.632Z</time></trkpt><trkpt lat="39.2496775692358" lon="16.528749937040665"><ele>1325.0</ele><time>2026-04-25T11:56:19.632Z</time></trkpt><trkpt lat="39.24974343527279" lon="16.52867624774171"><ele>1325.0</ele><time>2026-04-25T11:56:20.632Z</time></trkpt><trkpt lat="39.24980553423149" lon="16.528593608078054"><ele>1325.0</ele><time>2026-04-25T11:56:21.632Z</time></trkpt><trkpt lat="39.249887812751986" lon="16.528522531909317"><ele>1325.0</ele><time>2026-04-25T11:56:22.632Z</time></trkpt><trkpt lat="39.24995840661146" lon="16.52845965936495"><ele>1325.0</ele><time>2026-04-25T11:56:23.632Z</time></trkpt><trkpt lat="39.25003500659721" lon="16.52841741009779"><ele>1324.5</ele><time>2026-04-25T11:56:24.632Z</time></trkpt><trkpt lat="39.25010206937925" lon="16.52836871459565"><ele>1324.0</ele><time>2026-04-25T11:56:25.632Z</time></trkpt><trkpt lat="39.25017787961331" lon="16.52832600380694"><ele>1323.5</ele><time>2026-04-25T11:56:26.632Z</time></trkpt><trkpt lat="39.25025657895903" lon="16.528286377456855"><ele>1323.0</ele><time>2026-04-25T11:56:27.632Z</time></trkpt><trkpt lat="39.25034761432696" lon="16.528295028871558"><ele>1322.5</ele><time>2026-04-25T11:56:28.632Z</time></trkpt><trkpt lat="39.250429614574195" lon="16.528357341674752"><ele>1322.0</ele><time>2026-04-25T11:56:29.632Z</time></trkpt><trkpt lat="39.250504625412226" lon="16.52840528852299"><ele>1322.0</ele><time>2026-04-25T11:56:30.632Z</time></trkpt><trkpt lat="39.2505835194853" lon="16.528436107206634"><ele>1322.0</ele><time>2026-04-25T11:56:31.632Z</time></trkpt><trkpt lat="39.25065780251871" lon="16.52849196387613"><ele>1322.0</ele><time>2026-04-25T11:56:32.632Z</time></trkpt><trkpt lat="39.2507300678715" lon="16.528574751033386"><ele>1322.0</ele><time>2026-04-25T11:56:33.632Z</time></trkpt><trkpt lat="39.25080721151814" lon="16.528641239938658"><ele>1322.0</ele><time>2026-04-25T11:56:34.632Z</time></trkpt><trkpt lat="39.25088355575565" lon="16.52870649492222"><ele>1322.0</ele><time>2026-04-25T11:56:35.632Z</time></trkpt><trkpt lat="39.25092945929676" lon="16.52880492314956"><ele>1320.3999999999999</ele><time>2026-04-25T11:56:36.632Z</time></trkpt><trkpt lat="39.25095369075124" lon="16.52892559373376"><ele>1318.8</ele><time>2026-04-25T11:56:37.632Z</time></trkpt><trkpt lat="39.25095772017173" lon="16.52905860562104"><ele>1317.2</ele><time>2026-04-25T11:56:38.632Z</time></trkpt><trkpt lat="39.25094776162847" lon="16.529194452201654"><ele>1315.6</ele><time>2026-04-25T11:56:39.632Z</time></trkpt><trkpt lat="39.25093213656036" lon="16.529333941278395"><ele>1314.0</ele><time>2026-04-25T11:56:40.632Z</time></trkpt><trkpt lat="39.25091601890235" lon="16.52948237445729"><ele>1312.75</ele><time>2026-04-25T11:56:41.632Z</time></trkpt><trkpt lat="39.2508988817276" lon="16.52962710360656"><ele>1311.5</ele><time>2026-04-25T11:56:42.632Z</time></trkpt><trkpt lat="39.25087968635963" lon="16.52978410870402"><ele>1310.25</ele><time>2026-04-25T11:56:43.632Z</time></trkpt><trkpt lat="39.25085250433394" lon="16.529960586985997"><ele>1309.0</ele><time>2026-04-25T11:56:44.632Z</time></trkpt><trkpt lat="39.250845011690885" lon="16.53008899461648"><ele>1309.0</ele><time>2026-04-25T11:56:45.632Z</time></trkpt><trkpt lat="39.25084326815067" lon="16.53019086401858"><ele>1309.0</ele><time>2026-04-25T11:56:46.632Z</time></trkpt><trkpt lat="39.25081343654217" lon="16.530325514186494"><ele>1309.0</ele><time>2026-04-25T11:56:47.632Z</time></trkpt><trkpt lat="39.2508238311829" lon="16.530457660866034"><ele>1309.0</ele><time>2026-04-25T11:56:48.632Z</time></trkpt><trkpt lat="39.25085032098846" lon="16.530589213016412"><ele>1309.0</ele><time>2026-04-25T11:56:49.632Z</time></trkpt><trkpt lat="39.250906455617205" lon="16.530723196577195"><ele>1309.6666666666665</ele><time>2026-04-25T11:56:50.632Z</time></trkpt><trkpt lat="39.250995580142316" lon="16.53086192700269"><ele>1310.3333333333333</ele><time>2026-04-25T11:56:51.632Z</time></trkpt><trkpt lat="39.25111038862231" lon="16.531023491339578"><ele>1311.0</ele><time>2026-04-25T11:56:52.632Z</time></trkpt><trkpt lat="39.25124155825814" lon="16.53124422705912"><ele>1311.6666666666667</ele><time>2026-04-25T11:56:53.632Z</time></trkpt><trkpt lat="39.25139354951658" lon="16.531468492676854"><ele>1312.3333333333335</ele><time>2026-04-25T11:56:54.632Z</time></trkpt><trkpt lat="39.251491379429126" lon="16.531658265318057"><ele>1313.0</ele><time>2026-04-25T11:56:55.632Z</time></trkpt><trkpt lat="39.25156799711576" lon="16.53181865998816"><ele>1314.25</ele><time>2026-04-25T11:56:56.632Z</time></trkpt><trkpt lat="39.25160656737335" lon="16.531986153019076"><ele>1315.5</ele><time>2026-04-25T11:56:57.632Z</time></trkpt><trkpt lat="39.25160673981777" lon="16.532162077019716"><ele>1316.75</ele><time>2026-04-25T11:56:58.632Z</time></trkpt><trkpt lat="39.251593276394516" lon="16.532337788247737"><ele>1318.0</ele><time>2026-04-25T11:56:59.632Z</time></trkpt><trkpt lat="39.25159545396093" lon="16.532497059391677"><ele>1318.25</ele><time>2026-04-25T11:57:00.631Z</time></trkpt><trkpt lat="39.251574899591255" lon="16.532659936274325"><ele>1318.5</ele><time>2026-04-25T11:57:01.631Z</time></trkpt><trkpt lat="39.25155435118326" lon="16.532821909807602"><ele>1318.75</ele><time>2026-04-25T11:57:02.631Z</time></trkpt><trkpt lat="39.251531353582635" lon="16.53300052567559"><ele>1319.0</ele><time>2026-04-25T11:57:03.631Z</time></trkpt><trkpt lat="39.25151159649036" lon="16.53319384352249"><ele>1319.2</ele><time>2026-04-25T11:57:04.631Z</time></trkpt><trkpt lat="39.25149637261569" lon="16.533359031799524"><ele>1319.4</ele><time>2026-04-25T11:57:05.631Z</time></trkpt><trkpt lat="39.25148361051514" lon="16.53349892792435"><ele>1319.6</ele><time>2026-04-25T11:57:06.631Z</time></trkpt><trkpt lat="39.25147129604316" lon="16.533623003952815"><ele>1319.8</ele><time>2026-04-25T11:57:07.631Z</time></trkpt><trkpt lat="39.25146986217844" lon="16.533739682832387"><ele>1320.0</ele><time>2026-04-25T11:57:08.631Z</time></trkpt><trkpt lat="39.251489304690125" lon="16.53386720673281"><ele>1320.0</ele><time>2026-04-25T11:57:09.631Z</time></trkpt><trkpt lat="39.25153890995607" lon="16.533996925007557"><ele>1320.0</ele><time>2026-04-25T11:57:10.631Z</time></trkpt><trkpt lat="39.25160500991365" lon="16.53411675484921"><ele>1320.0</ele><time>2026-04-25T11:57:11.631Z</time></trkpt><trkpt lat="39.25171623309974" lon="16.534211481772793"><ele>1320.0</ele><time>2026-04-25T11:57:12.631Z</time></trkpt><trkpt lat="39.251821470754635" lon="16.53429911911204"><ele>1320.0</ele><time>2026-04-25T11:57:13.631Z</time></trkpt><trkpt lat="39.251914165462786" lon="16.534372544677844"><ele>1320.0</ele><time>2026-04-25T11:57:14.631Z</time></trkpt><trkpt lat="39.25199662207597" lon="16.534455664510887"><ele>1320.0</ele><time>2026-04-25T11:57:15.631Z</time></trkpt><trkpt lat="39.25206031696663" lon="16.534570862283015"><ele>1320.0</ele><time>2026-04-25T11:57:16.631Z</time></trkpt><trkpt lat="39.25209269820601" lon="16.534716866197524"><ele>1320.0</ele><time>2026-04-25T11:57:17.631Z</time></trkpt><trkpt lat="39.252032544319555" lon="16.534864501862693"><ele>1320.0</ele><time>2026-04-25T11:57:18.631Z</time></trkpt><trkpt lat="39.251998118537514" lon="16.535002710602356"><ele>1320.0</ele><time>2026-04-25T11:57:19.63Z</time></trkpt><trkpt lat="39.251974005357816" lon="16.535123053993136"><ele>1320.0</ele><time>2026-04-25T11:57:20.63Z</time></trkpt><trkpt lat="39.251998350266355" lon="16.53526477269126"><ele>1320.0</ele><time>2026-04-25T11:57:21.63Z</time></trkpt><trkpt lat="39.25205477179973" lon="16.535416183515395"><ele>1320.0</ele><time>2026-04-25T11:57:22.63Z</time></trkpt><trkpt lat="39.25212965701296" lon="16.535568746821184"><ele>1320.0</ele><time>2026-04-25T11:57:23.63Z</time></trkpt><trkpt lat="39.25220838338628" lon="16.535717691372458"><ele>1320.0</ele><time>2026-04-25T11:57:24.63Z</time></trkpt><trkpt lat="39.252282228827845" lon="16.535870617038903"><ele>1320.0</ele><time>2026-04-25T11:57:25.63Z</time></trkpt><trkpt lat="39.25235087797737" lon="16.536011913616345"><ele>1320.0</ele><time>2026-04-25T11:57:26.63Z</time></trkpt><trkpt lat="39.25243468086971" lon="16.536119742269246"><ele>1320.0</ele><time>2026-04-25T11:57:27.63Z</time></trkpt><trkpt lat="39.25255760854113" lon="16.53619418751191"><ele>1320.0</ele><time>2026-04-25T11:57:28.63Z</time></trkpt><trkpt lat="39.252701590154494" lon="16.536235988819104"><ele>1320.0</ele><time>2026-04-25T11:57:29.63Z</time></trkpt><trkpt lat="39.252831749653126" lon="16.536309943437978"><ele>1320.0</ele><time>2026-04-25T11:57:30.63Z</time></trkpt><trkpt lat="39.2529469583211" lon="16.536368603547597"><ele>1320.0</ele><time>2026-04-25T11:57:31.63Z</time></trkpt><trkpt lat="39.25302533106826" lon="16.53645029072162"><ele>1320.0</ele><time>2026-04-25T11:57:32.63Z</time></trkpt><trkpt lat="39.25306476540809" lon="16.536557271613507"><ele>1320.0</ele><time>2026-04-25T11:57:33.63Z</time></trkpt><trkpt lat="39.253087482407544" lon="16.536673875578565"><ele>1320.0</ele><time>2026-04-25T11:57:34.63Z</time></trkpt><trkpt lat="39.253103239852116" lon="16.536807743858958"><ele>1320.0</ele><time>2026-04-25T11:57:35.631Z</time></trkpt><trkpt lat="39.25306730892842" lon="16.536951365138716"><ele>1320.0</ele><time>2026-04-25T11:57:36.631Z</time></trkpt><trkpt lat="39.252983159699326" lon="16.537094208465298"><ele>1320.0</ele><time>2026-04-25T11:57:37.631Z</time></trkpt><trkpt lat="39.252878114754566" lon="16.537211718348356"><ele>1320.0</ele><time>2026-04-25T11:57:38.631Z</time></trkpt><trkpt lat="39.25277350405945" lon="16.537329117444763"><ele>1320.75</ele><time>2026-04-25T11:57:39.631Z</time></trkpt><trkpt lat="39.25267186850637" lon="16.5374612216672"><ele>1321.5</ele><time>2026-04-25T11:57:40.631Z</time></trkpt><trkpt lat="39.25257586343456" lon="16.537587736066676"><ele>1322.25</ele><time>2026-04-25T11:57:41.631Z</time></trkpt><trkpt lat="39.252481819414776" lon="16.53770531349796"><ele>1323.0</ele><time>2026-04-25T11:57:42.631Z</time></trkpt><trkpt lat="39.252379178127086" lon="16.537824435345208"><ele>1321.75</ele><time>2026-04-25T11:57:43.631Z</time></trkpt><trkpt lat="39.252267003535124" lon="16.53794284463622"><ele>1320.5</ele><time>2026-04-25T11:57:44.631Z</time></trkpt><trkpt lat="39.25214106489436" lon="16.538042754537848"><ele>1319.25</ele><time>2026-04-25T11:57:45.631Z</time></trkpt><trkpt lat="39.25201307401458" lon="16.53813057755121"><ele>1318.0</ele><time>2026-04-25T11:57:46.631Z</time></trkpt><trkpt lat="39.25189768389528" lon="16.53821861749078"><ele>1318.0</ele><time>2026-04-25T11:57:47.631Z</time></trkpt><trkpt lat="39.25179174878911" lon="16.538324224271726"><ele>1318.0</ele><time>2026-04-25T11:57:48.631Z</time></trkpt><trkpt lat="39.2516945558548" lon="16.538458129399398"><ele>1318.0</ele><time>2026-04-25T11:57:49.631Z</time></trkpt><trkpt lat="39.25161675100844" lon="16.53862597111519"><ele>1318.0</ele><time>2026-04-25T11:57:50.631Z</time></trkpt><trkpt lat="39.25155702162986" lon="16.538822898618275"><ele>1319.0</ele><time>2026-04-25T11:57:51.631Z</time></trkpt><trkpt lat="39.25150966222336" lon="16.539011961381863"><ele>1320.0</ele><time>2026-04-25T11:57:52.631Z</time></trkpt><trkpt lat="39.251458500455264" lon="16.539168069405164"><ele>1321.0</ele><time>2026-04-25T11:57:53.631Z</time></trkpt><trkpt lat="39.2513996565317" lon="16.539288489859832"><ele>1322.0</ele><time>2026-04-25T11:57:54.631Z</time></trkpt><trkpt lat="39.251316248363786" lon="16.539376213465523"><ele>1322.0</ele><time>2026-04-25T11:57:55.631Z</time></trkpt><trkpt lat="39.25120547736926" lon="16.539428373170473"><ele>1322.0</ele><time>2026-04-25T11:57:56.631Z</time></trkpt><trkpt lat="39.25107499046203" lon="16.539440380660114"><ele>1322.0</ele><time>2026-04-25T11:57:57.631Z</time></trkpt><trkpt lat="39.250943406350906" lon="16.539433186857558"><ele>1322.0</ele><time>2026-04-25T11:57:58.631Z</time></trkpt><trkpt lat="39.25083060023042" lon="16.53944359737215"><ele>1322.0</ele><time>2026-04-25T11:57:59.631Z</time></trkpt><trkpt lat="39.250735814150005" lon="16.539490415913676"><ele>1322.0</ele><time>2026-04-25T11:58:00.631Z</time></trkpt><trkpt lat="39.25065193495618" lon="16.539583285022765"><ele>1322.0</ele><time>2026-04-25T11:58:01.631Z</time></trkpt><trkpt lat="39.25058437488728" lon="16.539718334015497"><ele>1322.0</ele><time>2026-04-25T11:58:02.631Z</time></trkpt><trkpt lat="39.25053802898775" lon="16.53987651809671"><ele>1322.0</ele><time>2026-04-25T11:58:03.631Z</time></trkpt><trkpt lat="39.25050541324699" lon="16.540043310109592"><ele>1322.0</ele><time>2026-04-25T11:58:04.631Z</time></trkpt><trkpt lat="39.250483473068954" lon="16.540212369364475"><ele>1322.0</ele><time>2026-04-25T11:58:05.631Z</time></trkpt><trkpt lat="39.25048107366794" lon="16.540383415898148"><ele>1322.0</ele><time>2026-04-25T11:58:06.631Z</time></trkpt><trkpt lat="39.25050148948242" lon="16.540544013362602"><ele>1322.0</ele><time>2026-04-25T11:58:07.631Z</time></trkpt><trkpt lat="39.250530129302845" lon="16.54068559708818"><ele>1322.0</ele><time>2026-04-25T11:58:08.631Z</time></trkpt><trkpt lat="39.25055355270214" lon="16.540823293926874"><ele>1322.0</ele><time>2026-04-25T11:58:09.631Z</time></trkpt><trkpt lat="39.2505693513745" lon="16.540962220656848"><ele>1322.0</ele><time>2026-04-25T11:58:10.631Z</time></trkpt><trkpt lat="39.25057575453681" lon="16.54110385557836"><ele>1322.0</ele><time>2026-04-25T11:58:11.631Z</time></trkpt><trkpt lat="39.250554108266265" lon="16.54124673491373"><ele>1323.25</ele><time>2026-04-25T11:58:12.631Z</time></trkpt><trkpt lat="39.25049297566319" lon="16.541373311198466"><ele>1324.5</ele><time>2026-04-25T11:58:13.631Z</time></trkpt><trkpt lat="39.250397525079954" lon="16.54147290948478"><ele>1325.75</ele><time>2026-04-25T11:58:14.631Z</time></trkpt><trkpt lat="39.250289703374825" lon="16.541549506361985"><ele>1327.0</ele><time>2026-04-25T11:58:15.631Z</time></trkpt><trkpt lat="39.25019840383367" lon="16.541647997883032"><ele>1327.0</ele><time>2026-04-25T11:58:16.631Z</time></trkpt><trkpt lat="39.25012937759736" lon="16.541785439592"><ele>1327.0</ele><time>2026-04-25T11:58:17.631Z</time></trkpt><trkpt lat="39.25008279657906" lon="16.541953713843647"><ele>1327.0</ele><time>2026-04-25T11:58:18.631Z</time></trkpt><trkpt lat="39.25005444666805" lon="16.542135906611044"><ele>1327.0</ele><time>2026-04-25T11:58:19.631Z</time></trkpt><trkpt lat="39.250032045219285" lon="16.542324316202116"><ele>1328.0</ele><time>2026-04-25T11:58:20.631Z</time></trkpt><trkpt lat="39.25000574316372" lon="16.542517007526662"><ele>1329.0</ele><time>2026-04-25T11:58:21.631Z</time></trkpt><trkpt lat="39.24997209281718" lon="16.542714801855112"><ele>1330.0</ele><time>2026-04-25T11:58:22.631Z</time></trkpt><trkpt lat="39.24993471737823" lon="16.5429171304608"><ele>1332.0</ele><time>2026-04-25T11:58:23.631Z</time></trkpt><trkpt lat="39.249897921241484" lon="16.543123089622082"><ele>1334.0</ele><time>2026-04-25T11:58:24.631Z</time></trkpt><trkpt lat="39.24986200392997" lon="16.543330100427653"><ele>1336.0</ele><time>2026-04-25T11:58:25.631Z</time></trkpt><trkpt lat="39.249826409494396" lon="16.543539409330148"><ele>1337.3333333333333</ele><time>2026-04-25T11:58:26.631Z</time></trkpt><trkpt lat="39.24979017378833" lon="16.543751479208453"><ele>1338.6666666666667</ele><time>2026-04-25T11:58:27.631Z</time></trkpt><trkpt lat="39.24975365495594" lon="16.543966945792175"><ele>1340.0</ele><time>2026-04-25T11:58:28.631Z</time></trkpt><trkpt lat="39.24971639200817" lon="16.54418347004017"><ele>1340.0</ele><time>2026-04-25T11:58:29.631Z</time></trkpt><trkpt lat="39.249679318822714" lon="16.54439167476019"><ele>1340.0</ele><time>2026-04-25T11:58:30.631Z</time></trkpt><trkpt lat="39.24964535142205" lon="16.544586176517033"><ele>1340.0</ele><time>2026-04-25T11:58:31.631Z</time></trkpt><trkpt lat="39.24961542678103" lon="16.54476840256926"><ele>1341.3333333333335</ele><time>2026-04-25T11:58:32.631Z</time></trkpt><trkpt lat="39.24959476122579" lon="16.544962641514662"><ele>1342.6666666666667</ele><time>2026-04-25T11:58:33.631Z</time></trkpt><trkpt lat="39.2495946105343" lon="16.54516683941375"><ele>1344.0</ele><time>2026-04-25T11:58:34.631Z</time></trkpt><trkpt lat="39.249616583487956" lon="16.54538133124529"><ele>1344.6666666666667</ele><time>2026-04-25T11:58:35.631Z</time></trkpt><trkpt lat="39.24965418332014" lon="16.545594076247546"><ele>1345.3333333333335</ele><time>2026-04-25T11:58:36.631Z</time></trkpt><trkpt lat="39.24970411893603" lon="16.545817800604773"><ele>1346.0</ele><time>2026-04-25T11:58:37.631Z</time></trkpt><trkpt lat="39.24974658097609" lon="16.54604227429172"><ele>1345.6666666666667</ele><time>2026-04-25T11:58:38.631Z</time></trkpt><trkpt lat="39.24977989275893" lon="16.546259904687766"><ele>1345.3333333333333</ele><time>2026-04-25T11:58:39.631Z</time></trkpt><trkpt lat="39.24980607235277" lon="16.546458455437897"><ele>1345.0</ele><time>2026-04-25T11:58:40.631Z</time></trkpt><trkpt lat="39.24983198688093" lon="16.54664280840852"><ele>1345.5</ele><time>2026-04-25T11:58:41.631Z</time></trkpt><trkpt lat="39.24986166286582" lon="16.546812594928216"><ele>1346.0</ele><time>2026-04-25T11:58:42.631Z</time></trkpt><trkpt lat="39.249909617636845" lon="16.546963344821883"><ele>1346.5</ele><time>2026-04-25T11:58:43.63Z</time></trkpt><trkpt lat="39.249978444009486" lon="16.547100356586487"><ele>1347.0</ele><time>2026-04-25T11:58:44.63Z</time></trkpt><trkpt lat="39.25008621741802" lon="16.547213074930003"><ele>1344.0</ele><time>2026-04-25T11:58:45.63Z</time></trkpt><trkpt lat="39.2502202828593" lon="16.547296066581154"><ele>1341.0</ele><time>2026-04-25T11:58:46.63Z</time></trkpt><trkpt lat="39.25035080705441" lon="16.547403778935056"><ele>1338.0</ele><time>2026-04-25T11:58:47.63Z</time></trkpt><trkpt lat="39.25047573005514" lon="16.547512914624566"><ele>1338.0</ele><time>2026-04-25T11:58:48.63Z</time></trkpt><trkpt lat="39.2505712435216" lon="16.547667935222297"><ele>1338.0</ele><time>2026-04-25T11:58:49.63Z</time></trkpt><trkpt lat="39.250642588935506" lon="16.547857888470844"><ele>1338.0</ele><time>2026-04-25T11:58:50.63Z</time></trkpt><trkpt lat="39.25070508312608" lon="16.54806009696629"><ele>1338.6666666666667</ele><time>2026-04-25T11:58:51.63Z</time></trkpt><trkpt lat="39.25077019355429" lon="16.548261020507194"><ele>1339.3333333333335</ele><time>2026-04-25T11:58:52.63Z</time></trkpt><trkpt lat="39.250813884740786" lon="16.548451908708845"><ele>1340.0</ele><time>2026-04-25T11:58:53.63Z</time></trkpt><trkpt lat="39.250858579846444" lon="16.54863021573363"><ele>1340.5</ele><time>2026-04-25T11:58:54.63Z</time></trkpt><trkpt lat="39.25089587001044" lon="16.54880448454094"><ele>1341.0</ele><time>2026-04-25T11:58:55.63Z</time></trkpt><trkpt lat="39.25091286798835" lon="16.548976877366975"><ele>1341.5</ele><time>2026-04-25T11:58:56.63Z</time></trkpt><trkpt lat="39.2508976027609" lon="16.549139643857696"><ele>1342.0</ele><time>2026-04-25T11:58:57.63Z</time></trkpt><trkpt lat="39.250869998632844" lon="16.549283589133086"><ele>1342.0</ele><time>2026-04-25T11:58:58.63Z</time></trkpt><trkpt lat="39.250842927362285" lon="16.54939713917237"><ele>1342.0</ele><time>2026-04-25T11:58:59.63Z</time></trkpt><trkpt lat="39.25082732708867" lon="16.54949702884678"><ele>1342.0</ele><time>2026-04-25T11:59:00.63Z</time></trkpt><trkpt lat="39.25082558541778" lon="16.549589903312146"><ele>1342.0</ele><time>2026-04-25T11:59:01.63Z</time></trkpt><trkpt lat="39.250801906433786" lon="16.54971970891709"><ele>1342.0</ele><time>2026-04-25T11:59:03.63Z</time></trkpt><trkpt lat="39.250977953200156" lon="16.549800490825234"><ele>1341.3999999999999</ele><time>2026-04-25T11:59:04.63Z</time></trkpt><trkpt lat="39.25107279896675" lon="16.549836497481984"><ele>1340.8</ele><time>2026-04-25T11:59:05.63Z</time></trkpt><trkpt lat="39.25116765906264" lon="16.549856072983214"><ele>1340.2</ele><time>2026-04-25T11:59:06.63Z</time></trkpt><trkpt lat="39.251263563419116" lon="16.549859299573832"><ele>1339.6</ele><time>2026-04-25T11:59:07.63Z</time></trkpt><trkpt lat="39.25136022909037" lon="16.54986141040648"><ele>1339.0</ele><time>2026-04-25T11:59:08.63Z</time></trkpt><trkpt lat="39.25145489991842" lon="16.549864961390696"><ele>1339.6</ele><time>2026-04-25T11:59:09.63Z</time></trkpt><trkpt lat="39.251549251481734" lon="16.549860686765896"><ele>1340.2</ele><time>2026-04-25T11:59:10.63Z</time></trkpt><trkpt lat="39.251643015303465" lon="16.549842733123867"><ele>1340.8</ele><time>2026-04-25T11:59:11.63Z</time></trkpt><trkpt lat="39.25173546578639" lon="16.54980707438323"><ele>1341.3999999999999</ele><time>2026-04-25T11:59:12.63Z</time></trkpt><trkpt lat="39.25182597348436" lon="16.549755141092824"><ele>1342.0</ele><time>2026-04-25T11:59:13.63Z</time></trkpt><trkpt lat="39.251917191822564" lon="16.549686822276968"><ele>1342.0</ele><time>2026-04-25T11:59:14.63Z</time></trkpt><trkpt lat="39.252009620690295" lon="16.549600174425965"><ele>1342.0</ele><time>2026-04-25T11:59:15.63Z</time></trkpt><trkpt lat="39.2520960357263" lon="16.549495282959366"><ele>1342.0</ele><time>2026-04-25T11:59:16.63Z</time></trkpt><trkpt lat="39.25216596613675" lon="16.54937166737674"><ele>1342.0</ele><time>2026-04-25T11:59:17.63Z</time></trkpt><trkpt lat="39.25220665736048" lon="16.549244825047804"><ele>1342.6</ele><time>2026-04-25T11:59:18.63Z</time></trkpt><trkpt lat="39.25223035109003" lon="16.549116900889942"><ele>1343.1999999999998</ele><time>2026-04-25T11:59:19.63Z</time></trkpt><trkpt lat="39.25224240644577" lon="16.548984423241677"><ele>1343.8</ele><time>2026-04-25T11:59:20.63Z</time></trkpt><trkpt lat="39.25224245915893" lon="16.54884125332922"><ele>1344.4</ele><time>2026-04-25T11:59:21.63Z</time></trkpt><trkpt lat="39.25223552647023" lon="16.548684424213437"><ele>1345.0</ele><time>2026-04-25T11:59:22.63Z</time></trkpt><trkpt lat="39.2522272193757" lon="16.54851859946468"><ele>1347.25</ele><time>2026-04-25T11:59:23.63Z</time></trkpt><trkpt lat="39.252218489458876" lon="16.54834079753664"><ele>1349.5</ele><time>2026-04-25T11:59:24.63Z</time></trkpt><trkpt lat="39.25220982072041" lon="16.548151529292024"><ele>1351.75</ele><time>2026-04-25T11:59:25.63Z</time></trkpt><trkpt lat="39.2521984644888" lon="16.54795339363678"><ele>1354.0</ele><time>2026-04-25T11:59:26.63Z</time></trkpt><trkpt lat="39.25218526434251" lon="16.547747823950868"><ele>1355.6666666666665</ele><time>2026-04-25T11:59:27.63Z</time></trkpt><trkpt lat="39.25217113009197" lon="16.547544020933252"><ele>1357.3333333333333</ele><time>2026-04-25T11:59:28.63Z</time></trkpt><trkpt lat="39.2521566073588" lon="16.547343618319122"><ele>1359.0</ele><time>2026-04-25T11:59:29.63Z</time></trkpt><trkpt lat="39.25214619383712" lon="16.54714747343427"><ele>1360.3333333333333</ele><time>2026-04-25T11:59:30.63Z</time></trkpt><trkpt lat="39.25213529881133" lon="16.54694765349454"><ele>1361.6666666666665</ele><time>2026-04-25T11:59:31.63Z</time></trkpt><trkpt lat="39.2521173639133" lon="16.54674545355187"><ele>1363.0</ele><time>2026-04-25T11:59:32.63Z</time></trkpt><trkpt lat="39.25210470429989" lon="16.546542491099483"><ele>1363.0</ele><time>2026-04-25T11:59:33.63Z</time></trkpt><trkpt lat="39.25209385379045" lon="16.546332611561727"><ele>1363.0</ele><time>2026-04-25T11:59:34.63Z</time></trkpt><trkpt lat="39.2520847128246" lon="16.54612950387959"><ele>1363.0</ele><time>2026-04-25T11:59:35.63Z</time></trkpt><trkpt lat="39.2520707008631" lon="16.54592226581063"><ele>1363.3333333333333</ele><time>2026-04-25T11:59:36.63Z</time></trkpt><trkpt lat="39.25205493043039" lon="16.545713246836826"><ele>1363.6666666666667</ele><time>2026-04-25T11:59:37.63Z</time></trkpt><trkpt lat="39.252039903783086" lon="16.5454987062484"><ele>1364.0</ele><time>2026-04-25T11:59:38.63Z</time></trkpt><trkpt lat="39.25202676263626" lon="16.54528357398845"><ele>1364.0</ele><time>2026-04-25T11:59:39.63Z</time></trkpt><trkpt lat="39.252016652215055" lon="16.545055787084006"><ele>1364.0</ele><time>2026-04-25T11:59:40.63Z</time></trkpt><trkpt lat="39.25201462818915" lon="16.544823381678135"><ele>1364.0</ele><time>2026-04-25T11:59:41.631Z</time></trkpt><trkpt lat="39.25202263803265" lon="16.544591216594196"><ele>1363.0</ele><time>2026-04-25T11:59:42.631Z</time></trkpt><trkpt lat="39.2520361666436" lon="16.544368744673285"><ele>1362.0</ele><time>2026-04-25T11:59:43.631Z</time></trkpt><trkpt lat="39.252047599448886" lon="16.544162216763347"><ele>1361.0</ele><time>2026-04-25T11:59:44.631Z</time></trkpt><trkpt lat="39.25205745115641" lon="16.54397000028111"><ele>1361.0</ele><time>2026-04-25T11:59:45.631Z</time></trkpt><trkpt lat="39.25207160111844" lon="16.543798163049058"><ele>1361.0</ele><time>2026-04-25T11:59:46.631Z</time></trkpt><trkpt lat="39.252117234307" lon="16.543644205178133"><ele>1361.0</ele><time>2026-04-25T11:59:47.631Z</time></trkpt><trkpt lat="39.25217015519092" lon="16.543514304104352"><ele>1361.0</ele><time>2026-04-25T11:59:48.631Z</time></trkpt><trkpt lat="39.25224121847394" lon="16.543405710683967"><ele>1364.0</ele><time>2026-04-25T11:59:49.631Z</time></trkpt><trkpt lat="39.25234661096489" lon="16.543332560569215"><ele>1367.0</ele><time>2026-04-25T11:59:50.631Z</time></trkpt><trkpt lat="39.25246349055867" lon="16.543255577801812"><ele>1370.0</ele><time>2026-04-25T11:59:51.631Z</time></trkpt><trkpt lat="39.252586327954596" lon="16.543182780946257"><ele>1373.0</ele><time>2026-04-25T11:59:52.631Z</time></trkpt><trkpt lat="39.25272109103823" lon="16.543160226611008"><ele>1373.0</ele><time>2026-04-25T11:59:53.631Z</time></trkpt><trkpt lat="39.25285824309768" lon="16.543170058010706"><ele>1373.0</ele><time>2026-04-25T11:59:54.631Z</time></trkpt><trkpt lat="39.25299347649417" lon="16.543210210469343"><ele>1373.0</ele><time>2026-04-25T11:59:55.631Z</time></trkpt><trkpt lat="39.25312442962627" lon="16.543271634879588"><ele>1373.0</ele><time>2026-04-25T11:59:56.631Z</time></trkpt><trkpt lat="39.25324245089536" lon="16.54336228215756"><ele>1374.75</ele><time>2026-04-25T11:59:57.631Z</time></trkpt><trkpt lat="39.253367889303675" lon="16.543437178529757"><ele>1376.5</ele><time>2026-04-25T11:59:58.631Z</time></trkpt><trkpt lat="39.25350546568611" lon="16.54349673926472"><ele>1378.25</ele><time>2026-04-25T11:59:59.631Z</time></trkpt><trkpt lat="39.25363770867036" lon="16.543575684060805"><ele>1380.0</ele><time>2026-04-25T12:00:00.631Z</time></trkpt><trkpt lat="39.2537719515407" lon="16.543653597749746"><ele>1382.3333333333333</ele><time>2026-04-25T12:00:01.631Z</time></trkpt><trkpt lat="39.253909208175735" lon="16.54372904038489"><ele>1384.6666666666665</ele><time>2026-04-25T12:00:02.631Z</time></trkpt><trkpt lat="39.25405072626047" lon="16.543809069985365"><ele>1387.0</ele><time>2026-04-25T12:00:03.631Z</time></trkpt><trkpt lat="39.25419710943084" lon="16.543891498063893"><ele>1387.6666666666665</ele><time>2026-04-25T12:00:04.631Z</time></trkpt><trkpt lat="39.25434805368478" lon="16.54398047100129"><ele>1388.3333333333333</ele><time>2026-04-25T12:00:05.631Z</time></trkpt><trkpt lat="39.25450158846047" lon="16.544068020600992"><ele>1389.0</ele><time>2026-04-25T12:00:06.631Z</time></trkpt><trkpt lat="39.25465125468437" lon="16.544134137476686"><ele>1390.0</ele><time>2026-04-25T12:00:07.631Z</time></trkpt><trkpt lat="39.25478812769096" lon="16.544190146539886"><ele>1391.0</ele><time>2026-04-25T12:00:08.631Z</time></trkpt><trkpt lat="39.25492135512115" lon="16.544151745524328"><ele>1392.0</ele><time>2026-04-25T12:00:09.631Z</time></trkpt><trkpt lat="39.25504819380063" lon="16.544135108084763"><ele>1393.0</ele><time>2026-04-25T12:00:10.63Z</time></trkpt><trkpt lat="39.25516519787131" lon="16.54405546852147"><ele>1393.0</ele><time>2026-04-25T12:00:11.63Z</time></trkpt><trkpt lat="39.255269080441025" lon="16.543990819346355"><ele>1393.0</ele><time>2026-04-25T12:00:12.63Z</time></trkpt><trkpt lat="39.25536477668022" lon="16.543872022221983"><ele>1393.0</ele><time>2026-04-25T12:00:13.63Z</time></trkpt><trkpt lat="39.255444769201155" lon="16.543726957237652"><ele>1393.0</ele><time>2026-04-25T12:00:14.63Z</time></trkpt><trkpt lat="39.255498203638666" lon="16.54355836792782"><ele>1391.75</ele><time>2026-04-25T12:00:15.63Z</time></trkpt><trkpt lat="39.255522139869214" lon="16.543384638037445"><ele>1390.5</ele><time>2026-04-25T12:00:16.63Z</time></trkpt><trkpt lat="39.2555309495627" lon="16.54321317544162"><ele>1389.25</ele><time>2026-04-25T12:00:17.63Z</time></trkpt><trkpt lat="39.25551857812661" lon="16.543029627752926"><ele>1388.0</ele><time>2026-04-25T12:00:18.63Z</time></trkpt><trkpt lat="39.25551112340596" lon="16.542845274745993"><ele>1386.75</ele><time>2026-04-25T12:00:19.63Z</time></trkpt><trkpt lat="39.25552154405486" lon="16.542659424046306"><ele>1385.5</ele><time>2026-04-25T12:00:20.63Z</time></trkpt><trkpt lat="39.255568204768316" lon="16.542506899409013"><ele>1384.25</ele><time>2026-04-25T12:00:21.63Z</time></trkpt><trkpt lat="39.25561769378681" lon="16.542362843340033"><ele>1383.0</ele><time>2026-04-25T12:00:22.63Z</time></trkpt><trkpt lat="39.25568475081011" lon="16.542230505822708"><ele>1385.75</ele><time>2026-04-25T12:00:23.63Z</time></trkpt><trkpt lat="39.25577547045722" lon="16.542110526024313"><ele>1388.5</ele><time>2026-04-25T12:00:24.63Z</time></trkpt><trkpt lat="39.25588902651947" lon="16.542004015012257"><ele>1391.25</ele><time>2026-04-25T12:00:25.63Z</time></trkpt><trkpt lat="39.256020071306594" lon="16.541922877476203"><ele>1394.0</ele><time>2026-04-25T12:00:26.63Z</time></trkpt><trkpt lat="39.256162663258394" lon="16.541855304593383"><ele>1394.0</ele><time>2026-04-25T12:00:27.63Z</time></trkpt><trkpt lat="39.25631574035035" lon="16.541783062065804"><ele>1394.0</ele><time>2026-04-25T12:00:28.63Z</time></trkpt><trkpt lat="39.25647019472645" lon="16.54171230536411"><ele>1394.0</ele><time>2026-04-25T12:00:29.63Z</time></trkpt><trkpt lat="39.25662654112303" lon="16.54163965733862"><ele>1396.6666666666667</ele><time>2026-04-25T12:00:30.63Z</time></trkpt><trkpt lat="39.25678665602631" lon="16.541564771380717"><ele>1399.3333333333333</ele><time>2026-04-25T12:00:31.63Z</time></trkpt><trkpt lat="39.25694510692932" lon="16.54149066205672"><ele>1402.0</ele><time>2026-04-25T12:00:32.63Z</time></trkpt><trkpt lat="39.25710056075305" lon="16.54141743140002"><ele>1402.0</ele><time>2026-04-25T12:00:33.63Z</time></trkpt><trkpt lat="39.25725735577265" lon="16.54134301410886"><ele>1402.0</ele><time>2026-04-25T12:00:34.63Z</time></trkpt><trkpt lat="39.25741512852386" lon="16.54126870360562"><ele>1402.0</ele><time>2026-04-25T12:00:35.63Z</time></trkpt><trkpt lat="39.25757197204901" lon="16.54119484229538"><ele>1401.3333333333333</ele><time>2026-04-25T12:00:36.63Z</time></trkpt><trkpt lat="39.25773202355886" lon="16.541111328847578"><ele>1400.6666666666667</ele><time>2026-04-25T12:00:37.63Z</time></trkpt><trkpt lat="39.25788467997865" lon="16.541008192907746"><ele>1400.0</ele><time>2026-04-25T12:00:38.63Z</time></trkpt><trkpt lat="39.25801872456905" lon="16.540861034819557"><ele>1399.3333333333335</ele><time>2026-04-25T12:00:39.63Z</time></trkpt><trkpt lat="39.25814892240364" lon="16.54070917127785"><ele>1398.6666666666667</ele><time>2026-04-25T12:00:40.63Z</time></trkpt><trkpt lat="39.258269938628835" lon="16.540538286142734"><ele>1398.0</ele><time>2026-04-25T12:00:41.63Z</time></trkpt><trkpt lat="39.258387921611586" lon="16.540359287455082"><ele>1398.0</ele><time>2026-04-25T12:00:42.63Z</time></trkpt><trkpt lat="39.25850962305851" lon="16.540175155136424"><ele>1398.0</ele><time>2026-04-25T12:00:43.63Z</time></trkpt><trkpt lat="39.25863562006812" lon="16.539990416426384"><ele>1398.0</ele><time>2026-04-25T12:00:44.63Z</time></trkpt><trkpt lat="39.25876576350418" lon="16.539804410637412"><ele>1398.0</ele><time>2026-04-25T12:00:45.63Z</time></trkpt><trkpt lat="39.258888662503054" lon="16.53962865533773"><ele>1398.0</ele><time>2026-04-25T12:00:46.63Z</time></trkpt><trkpt lat="39.259002616841215" lon="16.539464835155634"><ele>1398.0</ele><time>2026-04-25T12:00:47.63Z</time></trkpt><trkpt lat="39.259114151996044" lon="16.539305859628787"><ele>1398.0</ele><time>2026-04-25T12:00:48.63Z</time></trkpt><trkpt lat="39.259221013206755" lon="16.539151960461407"><ele>1398.0</ele><time>2026-04-25T12:00:49.63Z</time></trkpt><trkpt lat="39.259307596487034" lon="16.539011840035098"><ele>1398.0</ele><time>2026-04-25T12:00:50.63Z</time></trkpt><trkpt lat="39.25937257985288" lon="16.53886802794545"><ele>1398.0</ele><time>2026-04-25T12:00:51.63Z</time></trkpt><trkpt lat="39.259413869911434" lon="16.53871734213519"><ele>1399.25</ele><time>2026-04-25T12:00:52.63Z</time></trkpt><trkpt lat="39.25943838029301" lon="16.53854671182048"><ele>1400.5</ele><time>2026-04-25T12:00:53.63Z</time></trkpt><trkpt lat="39.25945115824403" lon="16.53835992168081"><ele>1401.75</ele><time>2026-04-25T12:00:54.63Z</time></trkpt><trkpt lat="39.259456792850074" lon="16.538157956224577"><ele>1403.0</ele><time>2026-04-25T12:00:55.63Z</time></trkpt><trkpt lat="39.2594562892144" lon="16.53794452899687"><ele>1403.6666666666667</ele><time>2026-04-25T12:00:56.63Z</time></trkpt><trkpt lat="39.25944909979057" lon="16.537723341394578"><ele>1404.3333333333333</ele><time>2026-04-25T12:00:57.63Z</time></trkpt><trkpt lat="39.25943845919315" lon="16.537506087695228"><ele>1405.0</ele><time>2026-04-25T12:00:58.63Z</time></trkpt><trkpt lat="39.25943496346711" lon="16.537276798787758"><ele>1405.6666666666665</ele><time>2026-04-25T12:00:59.63Z</time></trkpt><trkpt lat="39.25943691685287" lon="16.53705006907153"><ele>1406.3333333333333</ele><time>2026-04-25T12:01:00.63Z</time></trkpt><trkpt lat="39.259451527366934" lon="16.53681525544365"><ele>1407.0</ele><time>2026-04-25T12:01:01.63Z</time></trkpt><trkpt lat="39.25949963354135" lon="16.536586381858083"><ele>1407.0</ele><time>2026-04-25T12:01:02.63Z</time></trkpt><trkpt lat="39.25953550521583" lon="16.53634851223732"><ele>1407.0</ele><time>2026-04-25T12:01:03.63Z</time></trkpt><trkpt lat="39.25955913446257" lon="16.536102938664953"><ele>1407.0</ele><time>2026-04-25T12:01:04.63Z</time></trkpt><trkpt lat="39.259597623668945" lon="16.535865848671854"><ele>1406.6666666666667</ele><time>2026-04-25T12:01:05.63Z</time></trkpt><trkpt lat="39.25962993303502" lon="16.535632275554818"><ele>1406.3333333333335</ele><time>2026-04-25T12:01:06.63Z</time></trkpt><trkpt lat="39.259665153234515" lon="16.535401194337904"><ele>1406.0</ele><time>2026-04-25T12:01:07.63Z</time></trkpt><trkpt lat="39.25970241898522" lon="16.535180972304666"><ele>1406.6666666666667</ele><time>2026-04-25T12:01:08.63Z</time></trkpt><trkpt lat="39.259730419516906" lon="16.534955915992324"><ele>1407.3333333333333</ele><time>2026-04-25T12:01:09.63Z</time></trkpt><trkpt lat="39.259762443229725" lon="16.534748156908538"><ele>1408.0</ele><time>2026-04-25T12:01:10.63Z</time></trkpt><trkpt lat="39.25977622059708" lon="16.534548334361965"><ele>1411.5</ele><time>2026-04-25T12:01:11.63Z</time></trkpt><trkpt lat="39.25976634718067" lon="16.53436932387337"><ele>1415.0</ele><time>2026-04-25T12:01:12.63Z</time></trkpt><trkpt lat="39.259723038598956" lon="16.534197460642815"><ele>1418.5</ele><time>2026-04-25T12:01:13.63Z</time></trkpt><trkpt lat="39.25965217696798" lon="16.534032638324096"><ele>1422.0</ele><time>2026-04-25T12:01:14.63Z</time></trkpt><trkpt lat="39.25956175228214" lon="16.53388147469397"><ele>1422.0</ele><time>2026-04-25T12:01:15.63Z</time></trkpt><trkpt lat="39.25944702882533" lon="16.533751188619597"><ele>1422.0</ele><time>2026-04-25T12:01:16.63Z</time></trkpt><trkpt lat="39.25931695755803" lon="16.533637027056123"><ele>1422.0</ele><time>2026-04-25T12:01:17.63Z</time></trkpt><trkpt lat="39.25919132805642" lon="16.533511282598973"><ele>1424.3333333333333</ele><time>2026-04-25T12:01:18.63Z</time></trkpt><trkpt lat="39.25907233992434" lon="16.53338075072667"><ele>1426.6666666666665</ele><time>2026-04-25T12:01:19.63Z</time></trkpt><trkpt lat="39.25895134131842" lon="16.533247064700216"><ele>1429.0</ele><time>2026-04-25T12:01:20.63Z</time></trkpt><trkpt lat="39.258839252778266" lon="16.53310463821944"><ele>1429.0</ele><time>2026-04-25T12:01:21.63Z</time></trkpt><trkpt lat="39.25873658596815" lon="16.53295470096444"><ele>1429.0</ele><time>2026-04-25T12:01:22.63Z</time></trkpt><trkpt lat="39.25864652361826" lon="16.53279369092559"><ele>1429.0</ele><time>2026-04-25T12:01:23.63Z</time></trkpt><trkpt lat="39.258588568339846" lon="16.532615681562696"><ele>1431.3333333333333</ele><time>2026-04-25T12:01:24.63Z</time></trkpt><trkpt lat="39.25852431393261" lon="16.532430002587763"><ele>1433.6666666666667</ele><time>2026-04-25T12:01:25.63Z</time></trkpt><trkpt lat="39.258482421863576" lon="16.532231127915846"><ele>1436.0</ele><time>2026-04-25T12:01:26.63Z</time></trkpt><trkpt lat="39.25846394088567" lon="16.532015401417624"><ele>1436.0</ele><time>2026-04-25T12:01:27.63Z</time></trkpt><trkpt lat="39.25845575307872" lon="16.531796196964294"><ele>1436.0</ele><time>2026-04-25T12:01:28.63Z</time></trkpt><trkpt lat="39.25846868053041" lon="16.531576275922056"><ele>1436.0</ele><time>2026-04-25T12:01:29.63Z</time></trkpt><trkpt lat="39.258516931545095" lon="16.531348194508812"><ele>1436.6666666666667</ele><time>2026-04-25T12:01:30.63Z</time></trkpt><trkpt lat="39.258541510989986" lon="16.5311040437955"><ele>1437.3333333333333</ele><time>2026-04-25T12:01:31.63Z</time></trkpt><trkpt lat="39.258583840496534" lon="16.530864260295257"><ele>1438.0</ele><time>2026-04-25T12:01:32.63Z</time></trkpt><trkpt lat="39.258617116598" lon="16.53063315571327"><ele>1438.0</ele><time>2026-04-25T12:01:33.63Z</time></trkpt><trkpt lat="39.25865228991842" lon="16.53041169193229"><ele>1438.0</ele><time>2026-04-25T12:01:34.63Z</time></trkpt><trkpt lat="39.25868935419489" lon="16.530203207404348"><ele>1438.0</ele><time>2026-04-25T12:01:35.63Z</time></trkpt><trkpt lat="39.258727987235524" lon="16.530009162093254"><ele>1438.0</ele><time>2026-04-25T12:01:36.63Z</time></trkpt><trkpt lat="39.25876928110875" lon="16.529832440548823"><ele>1438.0</ele><time>2026-04-25T12:01:37.63Z</time></trkpt><trkpt lat="39.2588060540485" lon="16.52967790183149"><ele>1438.0</ele><time>2026-04-25T12:01:38.63Z</time></trkpt><trkpt lat="39.25884806766123" lon="16.52952989922111"><ele>1438.0</ele><time>2026-04-25T12:01:39.63Z</time></trkpt><trkpt lat="39.25891040183089" lon="16.529414138207517"><ele>1439.6000000000001</ele><time>2026-04-25T12:01:40.63Z</time></trkpt><trkpt lat="39.25896795860677" lon="16.529301048969767"><ele>1441.2</ele><time>2026-04-25T12:01:41.63Z</time></trkpt><trkpt lat="39.25903707745932" lon="16.529202852889394"><ele>1442.8</ele><time>2026-04-25T12:01:42.63Z</time></trkpt><trkpt lat="39.2591208843976" lon="16.529109226538605"><ele>1444.4</ele><time>2026-04-25T12:01:43.63Z</time></trkpt><trkpt lat="39.25923624051771" lon="16.529054509629976"><ele>1446.0</ele><time>2026-04-25T12:01:44.63Z</time></trkpt><trkpt lat="39.25935372458368" lon="16.52905640107182"><ele>1446.0</ele><time>2026-04-25T12:01:45.63Z</time></trkpt><trkpt lat="39.25946515349182" lon="16.529076894419973"><ele>1446.0</ele><time>2026-04-25T12:01:46.63Z</time></trkpt><trkpt lat="39.25958305933584" lon="16.529120196591116"><ele>1446.0</ele><time>2026-04-25T12:01:47.63Z</time></trkpt><trkpt lat="39.259702794716475" lon="16.529173499164376"><ele>1446.0</ele><time>2026-04-25T12:01:48.63Z</time></trkpt><trkpt lat="39.259850688975256" lon="16.529254910135666"><ele>1446.3333333333333</ele><time>2026-04-25T12:01:49.63Z</time></trkpt><trkpt lat="39.26000742115327" lon="16.52933888134348"><ele>1446.6666666666665</ele><time>2026-04-25T12:01:50.63Z</time></trkpt><trkpt lat="39.260180037218156" lon="16.5294268412222"><ele>1447.0</ele><time>2026-04-25T12:01:51.63Z</time></trkpt><trkpt lat="39.260373837591416" lon="16.529525595345923"><ele>1447.5</ele><time>2026-04-25T12:01:52.63Z</time></trkpt><trkpt lat="39.26058468744046" lon="16.52963285520837"><ele>1448.0</ele><time>2026-04-25T12:01:53.63Z</time></trkpt><trkpt lat="39.26080644682629" lon="16.529745725366613"><ele>1448.5</ele><time>2026-04-25T12:01:54.63Z</time></trkpt><trkpt lat="39.26104073805037" lon="16.529864973924138"><ele>1449.0</ele><time>2026-04-25T12:01:55.63Z</time></trkpt><trkpt lat="39.261286521134416" lon="16.529990071472685"><ele>1454.5</ele><time>2026-04-25T12:01:56.63Z</time></trkpt><trkpt lat="39.26153771453722" lon="16.530118292899164"><ele>1460.0</ele><time>2026-04-25T12:01:57.63Z</time></trkpt><trkpt lat="39.261788009728676" lon="16.530246076806076"><ele>1460.0</ele><time>2026-04-25T12:01:58.63Z</time></trkpt><trkpt lat="39.26201082920353" lon="16.53035957515635"><ele>1460.0</ele><time>2026-04-25T12:01:59.63Z</time></trkpt><trkpt lat="39.262214041347626" lon="16.530435415618996"><ele>1460.3333333333335</ele><time>2026-04-25T12:02:00.63Z</time></trkpt><trkpt lat="39.262398330628635" lon="16.530503350767926"><ele>1460.6666666666667</ele><time>2026-04-25T12:02:01.63Z</time></trkpt><trkpt lat="39.2625914035128" lon="16.530514911705907"><ele>1461.0</ele><time>2026-04-25T12:02:02.63Z</time></trkpt><trkpt lat="39.26278785103478" lon="16.53049075157812"><ele>1461.0</ele><time>2026-04-25T12:02:03.63Z</time></trkpt><trkpt lat="39.26299965593093" lon="16.53045579860083"><ele>1461.0</ele><time>2026-04-25T12:02:04.63Z</time></trkpt><trkpt lat="39.26322229238067" lon="16.530422523374018"><ele>1461.0</ele><time>2026-04-25T12:02:05.63Z</time></trkpt><trkpt lat="39.26345259696414" lon="16.530418730396143"><ele>1459.3333333333333</ele><time>2026-04-25T12:02:06.63Z</time></trkpt><trkpt lat="39.263660340191436" lon="16.530434523429996"><ele>1457.6666666666665</ele><time>2026-04-25T12:02:07.63Z</time></trkpt><trkpt lat="39.26384995038502" lon="16.530457968557563"><ele>1456.0</ele><time>2026-04-25T12:02:08.63Z</time></trkpt><trkpt lat="39.264026821564286" lon="16.530462062981044"><ele>1456.0</ele><time>2026-04-25T12:02:09.63Z</time></trkpt><trkpt lat="39.26419424210592" lon="16.530478786460026"><ele>1456.0</ele><time>2026-04-25T12:02:10.63Z</time></trkpt><trkpt lat="39.26437577620601" lon="16.53043981266807"><ele>1456.0</ele><time>2026-04-25T12:02:11.63Z</time></trkpt><trkpt lat="39.264559561600265" lon="16.530341253661287"><ele>1462.0</ele><time>2026-04-25T12:02:12.63Z</time></trkpt><trkpt lat="39.264748675719844" lon="16.530222947904484"><ele>1468.0</ele><time>2026-04-25T12:02:13.63Z</time></trkpt><trkpt lat="39.26493658794553" lon="16.530139768772628"><ele>1474.0</ele><time>2026-04-25T12:02:14.63Z</time></trkpt><trkpt lat="39.26509084367261" lon="16.53008304118204"><ele>1474.0</ele><time>2026-04-25T12:02:15.63Z</time></trkpt><trkpt lat="39.2652348257134" lon="16.530065409072012"><ele>1474.0</ele><time>2026-04-25T12:02:16.63Z</time></trkpt><trkpt lat="39.2653827643591" lon="16.530088620318544"><ele>1474.0</ele><time>2026-04-25T12:02:17.63Z</time></trkpt><trkpt lat="39.26554215672941" lon="16.53014556807179"><ele>1474.0</ele><time>2026-04-25T12:02:18.63Z</time></trkpt><trkpt lat="39.26569770168766" lon="16.53024527671339"><ele>1474.0</ele><time>2026-04-25T12:02:19.63Z</time></trkpt><trkpt lat="39.265856073563036" lon="16.530385242078683"><ele>1474.0</ele><time>2026-04-25T12:02:20.63Z</time></trkpt><trkpt lat="39.266027228658686" lon="16.53051193127657"><ele>1468.6666666666665</ele><time>2026-04-25T12:02:21.63Z</time></trkpt><trkpt lat="39.26615874298297" lon="16.53067484429485"><ele>1463.3333333333333</ele><time>2026-04-25T12:02:22.63Z</time></trkpt><trkpt lat="39.26625274420212" lon="16.530846710481764"><ele>1458.0</ele><time>2026-04-25T12:02:23.63Z</time></trkpt><trkpt lat="39.266325100478454" lon="16.53103933432241"><ele>1455.3333333333333</ele><time>2026-04-25T12:02:24.63Z</time></trkpt><trkpt lat="39.266359711837275" lon="16.5312600442298"><ele>1452.6666666666665</ele><time>2026-04-25T12:02:25.63Z</time></trkpt><trkpt lat="39.26640004832906" lon="16.531493952279693"><ele>1450.0</ele><time>2026-04-25T12:02:26.63Z</time></trkpt><trkpt lat="39.26641723836102" lon="16.53171758993157"><ele>1457.0</ele><time>2026-04-25T12:02:27.63Z</time></trkpt><trkpt lat="39.26647526704064" lon="16.531929551889377"><ele>1464.0</ele><time>2026-04-25T12:02:28.63Z</time></trkpt><trkpt lat="39.26655797058884" lon="16.532136031398572"><ele>1471.0</ele><time>2026-04-25T12:02:29.63Z</time></trkpt><trkpt lat="39.266650410895885" lon="16.532317388988872"><ele>1471.0</ele><time>2026-04-25T12:02:30.63Z</time></trkpt><trkpt lat="39.26673479571373" lon="16.53248274745379"><ele>1471.0</ele><time>2026-04-25T12:02:31.63Z</time></trkpt><trkpt lat="39.26681714634124" lon="16.532630794625767"><ele>1471.0</ele><time>2026-04-25T12:02:32.63Z</time></trkpt><trkpt lat="39.26690250586085" lon="16.532766629641177"><ele>1471.0</ele><time>2026-04-25T12:02:33.63Z</time></trkpt><trkpt lat="39.26699355513697" lon="16.532873146039847"><ele>1471.5</ele><time>2026-04-25T12:02:34.63Z</time></trkpt><trkpt lat="39.267095236767666" lon="16.53294531952219"><ele>1472.0</ele><time>2026-04-25T12:02:35.63Z</time></trkpt><trkpt lat="39.26719953593105" lon="16.532996347109947"><ele>1472.5</ele><time>2026-04-25T12:02:36.63Z</time></trkpt><trkpt lat="39.267311763254334" lon="16.533026022276115"><ele>1473.0</ele><time>2026-04-25T12:02:37.63Z</time></trkpt><trkpt lat="39.267430650368944" lon="16.533031334634902"><ele>1473.0</ele><time>2026-04-25T12:02:38.63Z</time></trkpt><trkpt lat="39.26755648949518" lon="16.533018432641875"><ele>1473.0</ele><time>2026-04-25T12:02:39.63Z</time></trkpt><trkpt lat="39.267676410524004" lon="16.532990736287687"><ele>1473.0</ele><time>2026-04-25T12:02:40.63Z</time></trkpt><trkpt lat="39.26780230490756" lon="16.533008048997687"><ele>1473.0</ele><time>2026-04-25T12:02:41.63Z</time></trkpt><trkpt lat="39.267915957010366" lon="16.53304349366715"><ele>1473.0</ele><time>2026-04-25T12:02:42.63Z</time></trkpt><trkpt lat="39.26801019167722" lon="16.5331079944061"><ele>1473.0</ele><time>2026-04-25T12:02:43.63Z</time></trkpt><trkpt lat="39.268083245198085" lon="16.533223815572637"><ele>1473.0</ele><time>2026-04-25T12:02:44.63Z</time></trkpt><trkpt lat="39.26814155321406" lon="16.53335368593763"><ele>1473.0</ele><time>2026-04-25T12:02:45.63Z</time></trkpt><trkpt lat="39.26819259447884" lon="16.533494626556188"><ele>1475.25</ele><time>2026-04-25T12:02:46.63Z</time></trkpt><trkpt lat="39.26824110622217" lon="16.533640124124087"><ele>1477.5</ele><time>2026-04-25T12:02:47.63Z</time></trkpt><trkpt lat="39.268285976809956" lon="16.533787459483186"><ele>1479.75</ele><time>2026-04-25T12:02:48.63Z</time></trkpt><trkpt lat="39.26832432441243" lon="16.53393107509267"><ele>1482.0</ele><time>2026-04-25T12:02:49.63Z</time></trkpt><trkpt lat="39.26835223194357" lon="16.53408069527022"><ele>1482.0</ele><time>2026-04-25T12:02:50.63Z</time></trkpt><trkpt lat="39.26836716104317" lon="16.534232420663812"><ele>1482.0</ele><time>2026-04-25T12:02:51.63Z</time></trkpt><trkpt lat="39.26836383540451" lon="16.53437112453062"><ele>1482.0</ele><time>2026-04-25T12:02:52.63Z</time></trkpt><trkpt lat="39.26834189567731" lon="16.534504535274507"><ele>1482.0</ele><time>2026-04-25T12:02:53.63Z</time></trkpt><trkpt lat="39.26830073775847" lon="16.5346333302536"><ele>1482.0</ele><time>2026-04-25T12:02:54.63Z</time></trkpt><trkpt lat="39.26825217658973" lon="16.534757802995706"><ele>1483.25</ele><time>2026-04-25T12:02:55.63Z</time></trkpt><trkpt lat="39.2681937570745" lon="16.534878886737605"><ele>1484.5</ele><time>2026-04-25T12:02:56.63Z</time></trkpt><trkpt lat="39.26813386551765" lon="16.535001477650333"><ele>1485.75</ele><time>2026-04-25T12:02:57.63Z</time></trkpt><trkpt lat="39.26807328227568" lon="16.535128778942784"><ele>1487.0</ele><time>2026-04-25T12:02:58.63Z</time></trkpt><trkpt lat="39.26802046987868" lon="16.535264549870263"><ele>1482.5</ele><time>2026-04-25T12:02:59.63Z</time></trkpt><trkpt lat="39.26798115426356" lon="16.535408424712575"><ele>1478.0</ele><time>2026-04-25T12:03:00.63Z</time></trkpt><trkpt lat="39.26795154665027" lon="16.535556881142135"><ele>1473.5</ele><time>2026-04-25T12:03:01.63Z</time></trkpt><trkpt lat="39.26793857720739" lon="16.535714656064005"><ele>1469.0</ele><time>2026-04-25T12:03:02.63Z</time></trkpt><trkpt lat="39.267943983436055" lon="16.53587946538521"><ele>1469.0</ele><time>2026-04-25T12:03:03.63Z</time></trkpt><trkpt lat="39.26796497800717" lon="16.536049857391095"><ele>1469.0</ele><time>2026-04-25T12:03:04.63Z</time></trkpt><trkpt lat="39.26799803774523" lon="16.53622480696138"><ele>1469.0</ele><time>2026-04-25T12:03:05.63Z</time></trkpt><trkpt lat="39.26806286674024" lon="16.536385850317874"><ele>1469.0</ele><time>2026-04-25T12:03:06.63Z</time></trkpt><trkpt lat="39.268145912549954" lon="16.536520538689313"><ele>1474.25</ele><time>2026-04-25T12:03:07.63Z</time></trkpt><trkpt lat="39.26827617584631" lon="16.536627431398525"><ele>1479.5</ele><time>2026-04-25T12:03:09.63Z</time></trkpt><trkpt lat="39.26837622824783" lon="16.536715653026025"><ele>1484.75</ele><time>2026-04-25T12:03:10.63Z</time></trkpt><trkpt lat="39.268473488522865" lon="16.53680695864497"><ele>1490.0</ele><time>2026-04-25T12:03:11.63Z</time></trkpt><trkpt lat="39.268563096736735" lon="16.536902096581873"><ele>1490.0</ele><time>2026-04-25T12:03:12.63Z</time></trkpt><trkpt lat="39.26865198302197" lon="16.537000718660618"><ele>1490.0</ele><time>2026-04-25T12:03:13.63Z</time></trkpt><trkpt lat="39.26873771652617" lon="16.53709866679334"><ele>1490.0</ele><time>2026-04-25T12:03:14.63Z</time></trkpt><trkpt lat="39.2688242786651" lon="16.537190894152545"><ele>1490.0</ele><time>2026-04-25T12:03:15.63Z</time></trkpt><trkpt lat="39.268916617009715" lon="16.53728272517946"><ele>1492.0</ele><time>2026-04-25T12:03:16.63Z</time></trkpt><trkpt lat="39.26900985817755" lon="16.53737501758161"><ele>1494.0</ele><time>2026-04-25T12:03:17.63Z</time></trkpt><trkpt lat="39.269106339439915" lon="16.537454835237238"><ele>1496.0</ele><time>2026-04-25T12:03:18.63Z</time></trkpt><trkpt lat="39.26921520858891" lon="16.537512830969966"><ele>1498.0</ele><time>2026-04-25T12:03:19.629Z</time></trkpt><trkpt lat="39.26933326040317" lon="16.537558472945843"><ele>1498.0</ele><time>2026-04-25T12:03:20.629Z</time></trkpt><trkpt lat="39.26945859687153" lon="16.537577584994533"><ele>1498.0</ele><time>2026-04-25T12:03:21.629Z</time></trkpt><trkpt lat="39.26958725114518" lon="16.537585116568142"><ele>1498.0</ele><time>2026-04-25T12:03:22.629Z</time></trkpt><trkpt lat="39.269720780890815" lon="16.537581396607642"><ele>1498.0</ele><time>2026-04-25T12:03:23.629Z</time></trkpt><trkpt lat="39.26985036591641" lon="16.537553644905305"><ele>1499.5</ele><time>2026-04-25T12:03:24.629Z</time></trkpt><trkpt lat="39.26997515276531" lon="16.537499540425845"><ele>1501.0</ele><time>2026-04-25T12:03:25.629Z</time></trkpt><trkpt lat="39.270094307826575" lon="16.537418328514654"><ele>1502.5</ele><time>2026-04-25T12:03:26.629Z</time></trkpt><trkpt lat="39.270197584320904" lon="16.537314634901602"><ele>1504.0</ele><time>2026-04-25T12:03:27.629Z</time></trkpt><trkpt lat="39.27029207215363" lon="16.53719253062623"><ele>1504.0</ele><time>2026-04-25T12:03:28.629Z</time></trkpt><trkpt lat="39.27037680878911" lon="16.537052897904708"><ele>1504.0</ele><time>2026-04-25T12:03:29.629Z</time></trkpt><trkpt lat="39.27044413074233" lon="16.536889333730574"><ele>1504.0</ele><time>2026-04-25T12:03:30.629Z</time></trkpt><trkpt lat="39.270531177085566" lon="16.536748936413584"><ele>1504.0</ele><time>2026-04-25T12:03:31.629Z</time></trkpt><trkpt lat="39.270613781216234" lon="16.53661103814019"><ele>1503.75</ele><time>2026-04-25T12:03:32.629Z</time></trkpt><trkpt lat="39.270703687344394" lon="16.536496695901583"><ele>1503.5</ele><time>2026-04-25T12:03:33.629Z</time></trkpt><trkpt lat="39.270780132573115" lon="16.536379475309715"><ele>1503.25</ele><time>2026-04-25T12:03:34.629Z</time></trkpt><trkpt lat="39.27085971116483" lon="16.536267946871583"><ele>1503.0</ele><time>2026-04-25T12:03:35.629Z</time></trkpt><trkpt lat="39.27095472151922" lon="16.53617258594228"><ele>1505.25</ele><time>2026-04-25T12:03:36.629Z</time></trkpt><trkpt lat="39.27106393988699" lon="16.536109783097725"><ele>1507.5</ele><time>2026-04-25T12:03:37.629Z</time></trkpt><trkpt lat="39.27119261886929" lon="16.536089122719854"><ele>1509.75</ele><time>2026-04-25T12:03:38.629Z</time></trkpt><trkpt lat="39.27133470009464" lon="16.53610553908315"><ele>1512.0</ele><time>2026-04-25T12:03:39.629Z</time></trkpt><trkpt lat="39.27148444515375" lon="16.536191996731226"><ele>1513.6666666666667</ele><time>2026-04-25T12:03:40.629Z</time></trkpt><trkpt lat="39.271610323172446" lon="16.536311381716324"><ele>1515.3333333333335</ele><time>2026-04-25T12:03:41.629Z</time></trkpt><trkpt lat="39.2716875383044" lon="16.536496973351294"><ele>1517.0</ele><time>2026-04-25T12:03:42.629Z</time></trkpt><trkpt lat="39.27172784633727" lon="16.53669691427061"><ele>1517.0</ele><time>2026-04-25T12:03:43.629Z</time></trkpt><trkpt lat="39.2717467423707" lon="16.53688275820829"><ele>1517.0</ele><time>2026-04-25T12:03:44.629Z</time></trkpt><trkpt lat="39.27178105489904" lon="16.537054440004788"><ele>1517.0</ele><time>2026-04-25T12:03:45.629Z</time></trkpt><trkpt lat="39.27185791276789" lon="16.537217911449883"><ele>1517.0</ele><time>2026-04-25T12:03:46.629Z</time></trkpt><trkpt lat="39.27196744875426" lon="16.537368239614686"><ele>1515.3333333333335</ele><time>2026-04-25T12:03:47.629Z</time></trkpt><trkpt lat="39.272103655241686" lon="16.537497711596355"><ele>1513.6666666666667</ele><time>2026-04-25T12:03:48.629Z</time></trkpt><trkpt lat="39.27226056677137" lon="16.53760506284162"><ele>1512.0</ele><time>2026-04-25T12:03:49.629Z</time></trkpt><trkpt lat="39.272419480779625" lon="16.537712891157238"><ele>1512.3333333333333</ele><time>2026-04-25T12:03:50.629Z</time></trkpt><trkpt lat="39.272573391571136" lon="16.537823623620785"><ele>1512.6666666666665</ele><time>2026-04-25T12:03:51.629Z</time></trkpt><trkpt lat="39.27272013801505" lon="16.537938876482173"><ele>1513.0</ele><time>2026-04-25T12:03:52.629Z</time></trkpt><trkpt lat="39.27287110169557" lon="16.53804454745247"><ele>1513.0</ele><time>2026-04-25T12:03:53.63Z</time></trkpt><trkpt lat="39.273013077999664" lon="16.53815629253793"><ele>1513.0</ele><time>2026-04-25T12:03:54.63Z</time></trkpt><trkpt lat="39.2731445451729" lon="16.5382626807951"><ele>1513.0</ele><time>2026-04-25T12:03:55.63Z</time></trkpt><trkpt lat="39.2732636443198" lon="16.53834517031397"><ele>1516.5</ele><time>2026-04-25T12:03:56.63Z</time></trkpt><trkpt lat="39.2733851949581" lon="16.538408572204208"><ele>1520.0</ele><time>2026-04-25T12:03:57.63Z</time></trkpt><trkpt lat="39.273514217656064" lon="16.538451830846732"><ele>1523.5</ele><time>2026-04-25T12:03:58.63Z</time></trkpt><trkpt lat="39.27365419424202" lon="16.538468171356136"><ele>1527.0</ele><time>2026-04-25T12:03:59.63Z</time></trkpt><trkpt lat="39.27379851692572" lon="16.538448618506955"><ele>1529.3333333333333</ele><time>2026-04-25T12:04:00.63Z</time></trkpt><trkpt lat="39.27394590480026" lon="16.538388587110912"><ele>1531.6666666666665</ele><time>2026-04-25T12:04:01.63Z</time></trkpt><trkpt lat="39.27408382083107" lon="16.538280591148602"><ele>1534.0</ele><time>2026-04-25T12:04:02.63Z</time></trkpt><trkpt lat="39.274209984905625" lon="16.53813610570072"><ele>1534.0</ele><time>2026-04-25T12:04:03.63Z</time></trkpt><trkpt lat="39.27431415312077" lon="16.537961310736055"><ele>1534.0</ele><time>2026-04-25T12:04:04.63Z</time></trkpt><trkpt lat="39.27441007065026" lon="16.537770481265927"><ele>1534.0</ele><time>2026-04-25T12:04:05.63Z</time></trkpt><trkpt lat="39.27450581600928" lon="16.537579033002224"><ele>1533.6666666666665</ele><time>2026-04-25T12:04:06.63Z</time></trkpt><trkpt lat="39.27459999424954" lon="16.537401204459567"><ele>1533.3333333333333</ele><time>2026-04-25T12:04:07.63Z</time></trkpt><trkpt lat="39.27468992837997" lon="16.5372404254806"><ele>1533.0</ele><time>2026-04-25T12:04:08.63Z</time></trkpt><trkpt lat="39.274793619979654" lon="16.537112088654546"><ele>1536.0</ele><time>2026-04-25T12:04:09.63Z</time></trkpt><trkpt lat="39.27489126598573" lon="16.53699057630003"><ele>1539.0</ele><time>2026-04-25T12:04:10.63Z</time></trkpt><trkpt lat="39.275000191695696" lon="16.536879469121708"><ele>1542.0</ele><time>2026-04-25T12:04:11.63Z</time></trkpt><trkpt lat="39.27512541871171" lon="16.53679131215621"><ele>1545.0</ele><time>2026-04-25T12:04:12.63Z</time></trkpt><trkpt lat="39.27526735961451" lon="16.536731933801015"><ele>1545.0</ele><time>2026-04-25T12:04:13.63Z</time></trkpt><trkpt lat="39.275420938068415" lon="16.536692502285472"><ele>1545.0</ele><time>2026-04-25T12:04:14.63Z</time></trkpt><trkpt lat="39.27557512595459" lon="16.536652082153"><ele>1545.0</ele><time>2026-04-25T12:04:15.63Z</time></trkpt><trkpt lat="39.27573560549388" lon="16.536640952627174"><ele>1543.0</ele><time>2026-04-25T12:04:16.63Z</time></trkpt><trkpt lat="39.27589146401778" lon="16.536602771635152"><ele>1541.0</ele><time>2026-04-25T12:04:17.63Z</time></trkpt><trkpt lat="39.27604407477681" lon="16.536528891723155"><ele>1539.0</ele><time>2026-04-25T12:04:18.63Z</time></trkpt><trkpt lat="39.27619026198973" lon="16.536431277267667"><ele>1539.0</ele><time>2026-04-25T12:04:19.63Z</time></trkpt><trkpt lat="39.276333389541435" lon="16.53632340643849"><ele>1539.0</ele><time>2026-04-25T12:04:20.63Z</time></trkpt><trkpt lat="39.2764761131201" lon="16.536204364553342"><ele>1539.0</ele><time>2026-04-25T12:04:21.63Z</time></trkpt><trkpt lat="39.276616120051024" lon="16.536081694720316"><ele>1543.6666666666665</ele><time>2026-04-25T12:04:22.63Z</time></trkpt><trkpt lat="39.276753959549005" lon="16.53596334542029"><ele>1548.3333333333333</ele><time>2026-04-25T12:04:23.63Z</time></trkpt><trkpt lat="39.2768938274082" lon="16.53584854138781"><ele>1553.0</ele><time>2026-04-25T12:04:24.63Z</time></trkpt><trkpt lat="39.27703158827853" lon="16.53573958583999"><ele>1553.0</ele><time>2026-04-25T12:04:25.63Z</time></trkpt><trkpt lat="39.27716886028043" lon="16.535630219532177"><ele>1553.0</ele><time>2026-04-25T12:04:26.63Z</time></trkpt><trkpt lat="39.27732239521407" lon="16.535562489157147"><ele>1553.0</ele><time>2026-04-25T12:04:27.63Z</time></trkpt><trkpt lat="39.27747010125961" lon="16.535477152815922"><ele>1557.0</ele><time>2026-04-25T12:04:28.63Z</time></trkpt><trkpt lat="39.27761385059666" lon="16.535377937520643"><ele>1561.0</ele><time>2026-04-25T12:04:29.63Z</time></trkpt><trkpt lat="39.27776718546974" lon="16.535316908439622"><ele>1565.0</ele><time>2026-04-25T12:04:30.63Z</time></trkpt><trkpt lat="39.277914833658954" lon="16.53524105618651"><ele>1565.0</ele><time>2026-04-25T12:04:31.63Z</time></trkpt><trkpt lat="39.27806228543488" lon="16.535165304864957"><ele>1565.0</ele><time>2026-04-25T12:04:32.63Z</time></trkpt><trkpt lat="39.27820631345791" lon="16.535091312459656"><ele>1565.0</ele><time>2026-04-25T12:04:33.63Z</time></trkpt><trkpt lat="39.27834852120014" lon="16.53502023707532"><ele>1563.5</ele><time>2026-04-25T12:04:34.63Z</time></trkpt><trkpt lat="39.278490370104116" lon="16.534950378786345"><ele>1562.0</ele><time>2026-04-25T12:04:35.63Z</time></trkpt><trkpt lat="39.2786178409279" lon="16.534869071888128"><ele>1560.5</ele><time>2026-04-25T12:04:36.63Z</time></trkpt><trkpt lat="39.278742575817404" lon="16.534810295679335"><ele>1559.0</ele><time>2026-04-25T12:04:37.63Z</time></trkpt><trkpt lat="39.27885892595334" lon="16.53475309044339"><ele>1557.25</ele><time>2026-04-25T12:04:38.63Z</time></trkpt><trkpt lat="39.27897383492374" lon="16.53470157367015"><ele>1555.5</ele><time>2026-04-25T12:04:39.63Z</time></trkpt><trkpt lat="39.27908984839997" lon="16.53464703485187"><ele>1553.75</ele><time>2026-04-25T12:04:40.63Z</time></trkpt><trkpt lat="39.279204737941235" lon="16.53459376521947"><ele>1552.0</ele><time>2026-04-25T12:04:41.63Z</time></trkpt><trkpt lat="39.27931822212782" lon="16.534542203809707"><ele>1557.0</ele><time>2026-04-25T12:04:42.63Z</time></trkpt><trkpt lat="39.27943174234853" lon="16.534487033481415"><ele>1562.0</ele><time>2026-04-25T12:04:43.63Z</time></trkpt><trkpt lat="39.27954663039775" lon="16.534433402755656"><ele>1567.0</ele><time>2026-04-25T12:04:44.63Z</time></trkpt><trkpt lat="39.27965009401877" lon="16.534386869944516"><ele>1572.0</ele><time>2026-04-25T12:04:45.63Z</time></trkpt><trkpt lat="39.279747401418426" lon="16.534344223641153"><ele>1570.3999999999999</ele><time>2026-04-25T12:04:46.63Z</time></trkpt><trkpt lat="39.27983770901842" lon="16.534304517865834"><ele>1568.8</ele><time>2026-04-25T12:04:47.63Z</time></trkpt><trkpt lat="39.2799224339191" lon="16.534263187957695"><ele>1567.2</ele><time>2026-04-25T12:04:48.629Z</time></trkpt><trkpt lat="39.28000508119326" lon="16.534231672837517"><ele>1565.6</ele><time>2026-04-25T12:04:49.629Z</time></trkpt><trkpt lat="39.280089492077536" lon="16.534195448124134"><ele>1564.0</ele><time>2026-04-25T12:04:50.629Z</time></trkpt><trkpt lat="39.280173979006896" lon="16.534158519406738"><ele>1564.0</ele><time>2026-04-25T12:04:51.629Z</time></trkpt><trkpt lat="39.28027683837957" lon="16.534113088843412"><ele>1564.0</ele><time>2026-04-25T12:04:52.629Z</time></trkpt><trkpt lat="39.28039367825576" lon="16.534056107203124"><ele>1564.0</ele><time>2026-04-25T12:04:53.629Z</time></trkpt><trkpt lat="39.28051298046524" lon="16.53400529919036"><ele>1564.0</ele><time>2026-04-25T12:04:54.629Z</time></trkpt><trkpt lat="39.280638794666515" lon="16.53396752627153"><ele>1564.5</ele><time>2026-04-25T12:04:55.629Z</time></trkpt><trkpt lat="39.280772249326375" lon="16.533947465277073"><ele>1565.0</ele><time>2026-04-25T12:04:56.629Z</time></trkpt><trkpt lat="39.28091144622916" lon="16.533981096799458"><ele>1565.5</ele><time>2026-04-25T12:04:57.629Z</time></trkpt><trkpt lat="39.281054235949014" lon="16.53402952902081"><ele>1566.0</ele><time>2026-04-25T12:04:58.629Z</time></trkpt><trkpt lat="39.28118404089919" lon="16.53411156149731"><ele>1566.0</ele><time>2026-04-25T12:04:59.629Z</time></trkpt><trkpt lat="39.281321509237664" lon="16.534203159237972"><ele>1566.0</ele><time>2026-04-25T12:05:00.629Z</time></trkpt><trkpt lat="39.28144602786182" lon="16.534340834754886"><ele>1566.0</ele><time>2026-04-25T12:05:01.629Z</time></trkpt><trkpt lat="39.28156775024562" lon="16.53448313472175"><ele>1564.3333333333335</ele><time>2026-04-25T12:05:02.629Z</time></trkpt><trkpt lat="39.28169682287347" lon="16.534619431267895"><ele>1562.6666666666667</ele><time>2026-04-25T12:05:03.629Z</time></trkpt><trkpt lat="39.28182442857167" lon="16.534749989157394"><ele>1561.0</ele><time>2026-04-25T12:05:04.629Z</time></trkpt><trkpt lat="39.281943142704606" lon="16.534873661741518"><ele>1561.0</ele><time>2026-04-25T12:05:05.629Z</time></trkpt><trkpt lat="39.28206659917014" lon="16.53499912370674"><ele>1561.0</ele><time>2026-04-25T12:05:06.629Z</time></trkpt><trkpt lat="39.28219126769162" lon="16.535126926751314"><ele>1561.0</ele><time>2026-04-25T12:05:07.629Z</time></trkpt><trkpt lat="39.28231388396983" lon="16.535253878250813"><ele>1560.6666666666667</ele><time>2026-04-25T12:05:08.629Z</time></trkpt><trkpt lat="39.28243995765279" lon="16.535384037794593"><ele>1560.3333333333335</ele><time>2026-04-25T12:05:09.629Z</time></trkpt><trkpt lat="39.28256521505282" lon="16.535515418720816"><ele>1560.0</ele><time>2026-04-25T12:05:10.629Z</time></trkpt><trkpt lat="39.282697203231336" lon="16.535652327760886"><ele>1558.6666666666665</ele><time>2026-04-25T12:05:11.629Z</time></trkpt><trkpt lat="39.282831908358936" lon="16.535792458221255"><ele>1557.3333333333333</ele><time>2026-04-25T12:05:12.629Z</time></trkpt><trkpt lat="39.28296873829391" lon="16.53593397657002"><ele>1556.0</ele><time>2026-04-25T12:05:13.629Z</time></trkpt><trkpt lat="39.283107479975534" lon="16.53607431180525"><ele>1554.6666666666665</ele><time>2026-04-25T12:05:14.629Z</time></trkpt><trkpt lat="39.28324861225312" lon="16.536212859282692"><ele>1553.3333333333335</ele><time>2026-04-25T12:05:15.629Z</time></trkpt><trkpt lat="39.283392367279305" lon="16.536357444042082"><ele>1552.0</ele><time>2026-04-25T12:05:16.629Z</time></trkpt><trkpt lat="39.28353732092581" lon="16.536503546190577"><ele>1551.6666666666667</ele><time>2026-04-25T12:05:17.629Z</time></trkpt><trkpt lat="39.28367898052648" lon="16.536649750708353"><ele>1551.3333333333335</ele><time>2026-04-25T12:05:18.629Z</time></trkpt><trkpt lat="39.283824200184704" lon="16.536792736819404"><ele>1551.0</ele><time>2026-04-25T12:05:19.629Z</time></trkpt><trkpt lat="39.283971136711486" lon="16.536942382807617"><ele>1553.6666666666665</ele><time>2026-04-25T12:05:20.629Z</time></trkpt><trkpt lat="39.284122783588856" lon="16.5370918598747"><ele>1556.3333333333333</ele><time>2026-04-25T12:05:21.629Z</time></trkpt><trkpt lat="39.28426993065591" lon="16.537240039778556"><ele>1559.0</ele><time>2026-04-25T12:05:22.629Z</time></trkpt><trkpt lat="39.284416286198386" lon="16.53738543959375"><ele>1559.0</ele><time>2026-04-25T12:05:23.629Z</time></trkpt><trkpt lat="39.28457004103017" lon="16.537537330641143"><ele>1559.0</ele><time>2026-04-25T12:05:24.629Z</time></trkpt><trkpt lat="39.28471529280108" lon="16.53768244410104"><ele>1559.0</ele><time>2026-04-25T12:05:25.629Z</time></trkpt><trkpt lat="39.28485230913065" lon="16.537820707487594"><ele>1556.6666666666665</ele><time>2026-04-25T12:05:26.629Z</time></trkpt><trkpt lat="39.28498167276319" lon="16.537952818873435"><ele>1554.3333333333335</ele><time>2026-04-25T12:05:27.629Z</time></trkpt><trkpt lat="39.28510870669194" lon="16.538090458970206"><ele>1552.0</ele><time>2026-04-25T12:05:28.629Z</time></trkpt><trkpt lat="39.28522853123412" lon="16.538217772360564"><ele>1552.0</ele><time>2026-04-25T12:05:29.629Z</time></trkpt><trkpt lat="39.285344653985106" lon="16.538332160561893"><ele>1552.0</ele><time>2026-04-25T12:05:30.629Z</time></trkpt><trkpt lat="39.28546412460624" lon="16.538420169745955"><ele>1552.0</ele><time>2026-04-25T12:05:31.629Z</time></trkpt><trkpt lat="39.28559658361481" lon="16.538485469544618"><ele>1552.0</ele><time>2026-04-25T12:05:32.629Z</time></trkpt><trkpt lat="39.285737432912185" lon="16.53851940748735"><ele>1555.6666666666667</ele><time>2026-04-25T12:05:33.629Z</time></trkpt><trkpt lat="39.28588351420239" lon="16.53851589969202"><ele>1559.3333333333335</ele><time>2026-04-25T12:05:34.629Z</time></trkpt><trkpt lat="39.286030689737785" lon="16.538464840781096"><ele>1563.0</ele><time>2026-04-25T12:05:35.629Z</time></trkpt><trkpt lat="39.28617241802393" lon="16.538379699910887"><ele>1563.0</ele><time>2026-04-25T12:05:36.629Z</time></trkpt><trkpt lat="39.28630541251698" lon="16.538263941002125"><ele>1563.0</ele><time>2026-04-25T12:05:37.629Z</time></trkpt><trkpt lat="39.28641509303759" lon="16.538115770677194"><ele>1563.0</ele><time>2026-04-25T12:05:38.629Z</time></trkpt><trkpt lat="39.28648739460533" lon="16.5379191637773"><ele>1563.6666666666665</ele><time>2026-04-25T12:05:39.629Z</time></trkpt><trkpt lat="39.28654984913475" lon="16.5376983357941"><ele>1564.3333333333333</ele><time>2026-04-25T12:05:40.629Z</time></trkpt><trkpt lat="39.28661476339714" lon="16.53748384938128"><ele>1565.0</ele><time>2026-04-25T12:05:41.629Z</time></trkpt><trkpt lat="39.28670510736241" lon="16.537271677703362"><ele>1565.0</ele><time>2026-04-25T12:05:42.629Z</time></trkpt><trkpt lat="39.28677813896737" lon="16.537058310944424"><ele>1565.0</ele><time>2026-04-25T12:05:43.629Z</time></trkpt><trkpt lat="39.28683268202443" lon="16.536848178769738"><ele>1565.0</ele><time>2026-04-25T12:05:44.629Z</time></trkpt><trkpt lat="39.286919089546636" lon="16.536668063412783"><ele>1567.3333333333333</ele><time>2026-04-25T12:05:45.629Z</time></trkpt><trkpt lat="39.286999164929625" lon="16.536491921446224"><ele>1569.6666666666665</ele><time>2026-04-25T12:05:46.629Z</time></trkpt><trkpt lat="39.2870946284096" lon="16.536330109484606"><ele>1572.0</ele><time>2026-04-25T12:05:47.629Z</time></trkpt><trkpt lat="39.28720945474818" lon="16.53617779980386"><ele>1567.6666666666665</ele><time>2026-04-25T12:05:48.629Z</time></trkpt><trkpt lat="39.287332483492605" lon="16.536029699271317"><ele>1563.3333333333333</ele><time>2026-04-25T12:05:49.629Z</time></trkpt><trkpt lat="39.28743389083901" lon="16.53586395536242"><ele>1559.0</ele><time>2026-04-25T12:05:50.629Z</time></trkpt><trkpt lat="39.28752743927742" lon="16.535696775598733"><ele>1559.0</ele><time>2026-04-25T12:05:51.629Z</time></trkpt><trkpt lat="39.28759476623467" lon="16.535497457518854"><ele>1559.0</ele><time>2026-04-25T12:05:52.629Z</time></trkpt><trkpt lat="39.287653752343694" lon="16.53527888035011"><ele>1559.0</ele><time>2026-04-25T12:05:53.629Z</time></trkpt><trkpt lat="39.287715070040974" lon="16.53506395954377"><ele>1560.3333333333333</ele><time>2026-04-25T12:05:54.629Z</time></trkpt><trkpt lat="39.28778399912827" lon="16.53484613412914"><ele>1561.6666666666665</ele><time>2026-04-25T12:05:55.629Z</time></trkpt><trkpt lat="39.28785255778163" lon="16.534633170292896"><ele>1563.0</ele><time>2026-04-25T12:05:56.629Z</time></trkpt><trkpt lat="39.28791509617705" lon="16.534425765053957"><ele>1564.3333333333335</ele><time>2026-04-25T12:05:57.629Z</time></trkpt><trkpt lat="39.28797830196138" lon="16.534214546854418"><ele>1565.6666666666667</ele><time>2026-04-25T12:05:58.629Z</time></trkpt><trkpt lat="39.28803936709759" lon="16.534006993601768"><ele>1567.0</ele><time>2026-04-25T12:05:59.63Z</time></trkpt><trkpt lat="39.28810149500872" lon="16.53379821370936"><ele>1562.0</ele><time>2026-04-25T12:06:00.63Z</time></trkpt><trkpt lat="39.28816062226923" lon="16.53359816936985"><ele>1557.0</ele><time>2026-04-25T12:06:01.63Z</time></trkpt><trkpt lat="39.28821705812354" lon="16.533406556386524"><ele>1552.0</ele><time>2026-04-25T12:06:02.63Z</time></trkpt><trkpt lat="39.28827195130147" lon="16.533221804428763"><ele>1552.0</ele><time>2026-04-25T12:06:03.63Z</time></trkpt><trkpt lat="39.288341933494685" lon="16.533049564481477"><ele>1552.0</ele><time>2026-04-25T12:06:04.63Z</time></trkpt><trkpt lat="39.28838458238557" lon="16.53286872369784"><ele>1552.0</ele><time>2026-04-25T12:06:05.63Z</time></trkpt><trkpt lat="39.28845242426864" lon="16.532705677450444"><ele>1552.0</ele><time>2026-04-25T12:06:06.63Z</time></trkpt><trkpt lat="39.28854142581599" lon="16.532569328694045"><ele>1552.75</ele><time>2026-04-25T12:06:07.63Z</time></trkpt><trkpt lat="39.288647566044254" lon="16.53246400837219"><ele>1553.5</ele><time>2026-04-25T12:06:08.63Z</time></trkpt><trkpt lat="39.28876647655402" lon="16.5323929077105"><ele>1554.25</ele><time>2026-04-25T12:06:09.63Z</time></trkpt><trkpt lat="39.288894464263734" lon="16.53233551417481"><ele>1555.0</ele><time>2026-04-25T12:06:10.63Z</time></trkpt><trkpt lat="39.28903223949949" lon="16.53227341249671"><ele>1553.6666666666667</ele><time>2026-04-25T12:06:11.63Z</time></trkpt><trkpt lat="39.28917119599409" lon="16.532202192735497"><ele>1552.3333333333335</ele><time>2026-04-25T12:06:12.63Z</time></trkpt><trkpt lat="39.28931416176655" lon="16.53210908201835"><ele>1551.0</ele><time>2026-04-25T12:06:13.63Z</time></trkpt><trkpt lat="39.28945250345034" lon="16.531997936986446"><ele>1551.0</ele><time>2026-04-25T12:06:14.63Z</time></trkpt><trkpt lat="39.289578807927754" lon="16.531872789038623"><ele>1551.0</ele><time>2026-04-25T12:06:15.63Z</time></trkpt><trkpt lat="39.28969482154775" lon="16.53173130065727"><ele>1551.0</ele><time>2026-04-25T12:06:16.63Z</time></trkpt><trkpt lat="39.28980637527544" lon="16.531569506685926"><ele>1547.3333333333335</ele><time>2026-04-25T12:06:17.63Z</time></trkpt><trkpt lat="39.28991630337483" lon="16.531397124140838"><ele>1543.6666666666667</ele><time>2026-04-25T12:06:18.629Z</time></trkpt><trkpt lat="39.290047690089246" lon="16.531248534364234"><ele>1540.0</ele><time>2026-04-25T12:06:19.629Z</time></trkpt><trkpt lat="39.29016190668962" lon="16.5310922703054"><ele>1540.0</ele><time>2026-04-25T12:06:20.629Z</time></trkpt><trkpt lat="39.290263730702506" lon="16.530925202129968"><ele>1540.0</ele><time>2026-04-25T12:06:21.629Z</time></trkpt><trkpt lat="39.290376018372875" lon="16.530769812691897"><ele>1540.0</ele><time>2026-04-25T12:06:22.629Z</time></trkpt><trkpt lat="39.290486264154794" lon="16.530615776503538"><ele>1537.6666666666667</ele><time>2026-04-25T12:06:23.629Z</time></trkpt><trkpt lat="39.29059472656987" lon="16.530457128005516"><ele>1535.3333333333335</ele><time>2026-04-25T12:06:24.629Z</time></trkpt><trkpt lat="39.29071612497161" lon="16.530322505607057"><ele>1533.0</ele><time>2026-04-25T12:06:25.629Z</time></trkpt><trkpt lat="39.290833708273524" lon="16.530183832140676"><ele>1531.3333333333333</ele><time>2026-04-25T12:06:26.629Z</time></trkpt><trkpt lat="39.29096078634487" lon="16.530063877919137"><ele>1529.6666666666665</ele><time>2026-04-25T12:06:27.629Z</time></trkpt><trkpt lat="39.291099765721306" lon="16.529974381481562"><ele>1528.0</ele><time>2026-04-25T12:06:28.629Z</time></trkpt><trkpt lat="39.29124774188828" lon="16.529908412119703"><ele>1528.0</ele><time>2026-04-25T12:06:29.629Z</time></trkpt><trkpt lat="39.291406866308805" lon="16.529856091432297"><ele>1528.0</ele><time>2026-04-25T12:06:30.629Z</time></trkpt><trkpt lat="39.291563124185366" lon="16.529798427393754"><ele>1528.0</ele><time>2026-04-25T12:06:31.629Z</time></trkpt><trkpt lat="39.291722579239476" lon="16.529762842530324"><ele>1526.3333333333333</ele><time>2026-04-25T12:06:32.629Z</time></trkpt><trkpt lat="39.29187884094851" lon="16.529723890772463"><ele>1524.6666666666667</ele><time>2026-04-25T12:06:33.629Z</time></trkpt><trkpt lat="39.29203393145465" lon="16.529678811690445"><ele>1523.0</ele><time>2026-04-25T12:06:34.629Z</time></trkpt><trkpt lat="39.29218554327109" lon="16.52963703349943"><ele>1521.0</ele><time>2026-04-25T12:06:35.629Z</time></trkpt><trkpt lat="39.29233793873259" lon="16.52958680425841"><ele>1519.0</ele><time>2026-04-25T12:06:36.629Z</time></trkpt><trkpt lat="39.292479116870545" lon="16.5295124813968"><ele>1517.0</ele><time>2026-04-25T12:06:37.629Z</time></trkpt><trkpt lat="39.292604731350714" lon="16.52939528692943"><ele>1514.6666666666667</ele><time>2026-04-25T12:06:38.629Z</time></trkpt><trkpt lat="39.29271244577367" lon="16.529250356697688"><ele>1512.3333333333333</ele><time>2026-04-25T12:06:39.629Z</time></trkpt><trkpt lat="39.2928026145037" lon="16.529084901701886"><ele>1510.0</ele><time>2026-04-25T12:06:40.629Z</time></trkpt><trkpt lat="39.29285781704787" lon="16.52890292621661"><ele>1508.6666666666665</ele><time>2026-04-25T12:06:41.629Z</time></trkpt><trkpt lat="39.29287855141895" lon="16.528706249079985"><ele>1507.3333333333333</ele><time>2026-04-25T12:06:42.629Z</time></trkpt><trkpt lat="39.29287007982483" lon="16.52850435878078"><ele>1506.0</ele><time>2026-04-25T12:06:43.629Z</time></trkpt><trkpt lat="39.29284335924632" lon="16.528290369628653"><ele>1506.0</ele><time>2026-04-25T12:06:44.629Z</time></trkpt><trkpt lat="39.2928089474215" lon="16.528070831893956"><ele>1506.0</ele><time>2026-04-25T12:06:45.629Z</time></trkpt><trkpt lat="39.292762996208204" lon="16.52785518343225"><ele>1506.0</ele><time>2026-04-25T12:06:46.629Z</time></trkpt><trkpt lat="39.29272722763454" lon="16.52764329920266"><ele>1504.25</ele><time>2026-04-25T12:06:47.629Z</time></trkpt><trkpt lat="39.29269205352584" lon="16.527454506001998"><ele>1502.5</ele><time>2026-04-25T12:06:48.629Z</time></trkpt><trkpt lat="39.29266961862293" lon="16.52728297581857"><ele>1500.75</ele><time>2026-04-25T12:06:49.629Z</time></trkpt><trkpt lat="39.29266356096451" lon="16.527108160787392"><ele>1499.0</ele><time>2026-04-25T12:06:50.629Z</time></trkpt><trkpt lat="39.29266075960382" lon="16.526934753907373"><ele>1497.0</ele><time>2026-04-25T12:06:51.629Z</time></trkpt><trkpt lat="39.29268617018288" lon="16.52677126574041"><ele>1495.0</ele><time>2026-04-25T12:06:52.629Z</time></trkpt><trkpt lat="39.29274851286145" lon="16.526625503325"><ele>1493.0</ele><time>2026-04-25T12:06:53.629Z</time></trkpt><trkpt lat="39.29283114697971" lon="16.526488643627737"><ele>1491.0</ele><time>2026-04-25T12:06:54.629Z</time></trkpt><trkpt lat="39.29293188790002" lon="16.526370749562933"><ele>1491.0</ele><time>2026-04-25T12:06:55.629Z</time></trkpt><trkpt lat="39.29304722962811" lon="16.52625665495349"><ele>1491.0</ele><time>2026-04-25T12:06:56.629Z</time></trkpt><trkpt lat="39.29317658275691" lon="16.52616374498888"><ele>1491.0</ele><time>2026-04-25T12:06:57.629Z</time></trkpt><trkpt lat="39.29331038741034" lon="16.526076700631354"><ele>1491.0</ele><time>2026-04-25T12:06:58.629Z</time></trkpt><trkpt lat="39.29344247121077" lon="16.52599531182615"><ele>1488.75</ele><time>2026-04-25T12:06:59.629Z</time></trkpt><trkpt lat="39.29357017487286" lon="16.52591662199259"><ele>1486.5</ele><time>2026-04-25T12:07:00.629Z</time></trkpt><trkpt lat="39.29369364705135" lon="16.52584053964301"><ele>1484.25</ele><time>2026-04-25T12:07:01.629Z</time></trkpt><trkpt lat="39.293805154570336" lon="16.525772026497318"><ele>1482.0</ele><time>2026-04-25T12:07:02.629Z</time></trkpt><trkpt lat="39.293908665102045" lon="16.52571249436564"><ele>1481.75</ele><time>2026-04-25T12:07:03.629Z</time></trkpt><trkpt lat="39.29401397853751" lon="16.5256679185531"><ele>1481.5</ele><time>2026-04-25T12:07:04.629Z</time></trkpt><trkpt lat="39.294126680593614" lon="16.525647245380622"><ele>1481.25</ele><time>2026-04-25T12:07:05.629Z</time></trkpt><trkpt lat="39.294245292505096" lon="16.525659449205953"><ele>1481.0</ele><time>2026-04-25T12:07:06.629Z</time></trkpt><trkpt lat="39.29437712676111" lon="16.525677342058888"><ele>1481.0</ele><time>2026-04-25T12:07:07.629Z</time></trkpt><trkpt lat="39.29450741251809" lon="16.52567765666067"><ele>1481.0</ele><time>2026-04-25T12:07:08.629Z</time></trkpt><trkpt lat="39.294628554591476" lon="16.525692950923833"><ele>1481.0</ele><time>2026-04-25T12:07:09.629Z</time></trkpt><trkpt lat="39.29475583829394" lon="16.52570415078565"><ele>1481.0</ele><time>2026-04-25T12:07:10.629Z</time></trkpt><trkpt lat="39.294880184592834" lon="16.525722773949123"><ele>1479.5</ele><time>2026-04-25T12:07:11.629Z</time></trkpt><trkpt lat="39.29500068624479" lon="16.52574249157141"><ele>1478.0</ele><time>2026-04-25T12:07:12.629Z</time></trkpt><trkpt lat="39.29512167719773" lon="16.52576483113708"><ele>1476.5</ele><time>2026-04-25T12:07:13.629Z</time></trkpt><trkpt lat="39.29523786549099" lon="16.525810771554028"><ele>1475.0</ele><time>2026-04-25T12:07:14.629Z</time></trkpt><trkpt lat="39.295354827407294" lon="16.52582879133171"><ele>1475.0</ele><time>2026-04-25T12:07:15.629Z</time></trkpt><trkpt lat="39.29547968620999" lon="16.525828907718925"><ele>1475.0</ele><time>2026-04-25T12:07:16.629Z</time></trkpt><trkpt lat="39.29560102356795" lon="16.5258665367096"><ele>1475.0</ele><time>2026-04-25T12:07:17.629Z</time></trkpt><trkpt lat="39.29572024788705" lon="16.5258882956756"><ele>1475.0</ele><time>2026-04-25T12:07:18.629Z</time></trkpt><trkpt lat="39.29582891331463" lon="16.5259217340749"><ele>1474.5</ele><time>2026-04-25T12:07:19.629Z</time></trkpt><trkpt lat="39.295939250490534" lon="16.52597294712383"><ele>1474.0</ele><time>2026-04-25T12:07:20.629Z</time></trkpt><trkpt lat="39.296055023511066" lon="16.52603261325627"><ele>1473.5</ele><time>2026-04-25T12:07:21.629Z</time></trkpt><trkpt lat="39.29618279775398" lon="16.52609943092186"><ele>1473.0</ele><time>2026-04-25T12:07:22.629Z</time></trkpt><trkpt lat="39.296315380330746" lon="16.526146067126483"><ele>1470.25</ele><time>2026-04-25T12:07:23.629Z</time></trkpt><trkpt lat="39.296434748569226" lon="16.526232242997803"><ele>1467.5</ele><time>2026-04-25T12:07:24.629Z</time></trkpt><trkpt lat="39.29656104885373" lon="16.526301385113655"><ele>1464.75</ele><time>2026-04-25T12:07:25.629Z</time></trkpt><trkpt lat="39.29669098824107" lon="16.526373613475457"><ele>1462.0</ele><time>2026-04-25T12:07:26.629Z</time></trkpt><trkpt lat="39.2968136085411" lon="16.526448059550685"><ele>1462.0</ele><time>2026-04-25T12:07:27.629Z</time></trkpt><trkpt lat="39.296928542377984" lon="16.52652903099349"><ele>1462.0</ele><time>2026-04-25T12:07:28.629Z</time></trkpt><trkpt lat="39.297033297560176" lon="16.52665889061693"><ele>1462.0</ele><time>2026-04-25T12:07:29.629Z</time></trkpt><trkpt lat="39.29710700087123" lon="16.52680600646038"><ele>1462.0</ele><time>2026-04-25T12:07:30.629Z</time></trkpt><trkpt lat="39.29716730498617" lon="16.526970873394408"><ele>1463.0</ele><time>2026-04-25T12:07:31.629Z</time></trkpt><trkpt lat="39.29720773202298" lon="16.527156656545166"><ele>1464.0</ele><time>2026-04-25T12:07:32.629Z</time></trkpt><trkpt lat="39.29723760421345" lon="16.527344460243782"><ele>1465.0</ele><time>2026-04-25T12:07:33.629Z</time></trkpt><trkpt lat="39.297269986302695" lon="16.527532659580253"><ele>1466.0</ele><time>2026-04-25T12:07:34.629Z</time></trkpt><trkpt lat="39.297311167180034" lon="16.5277215962809"><ele>1464.3333333333335</ele><time>2026-04-25T12:07:35.629Z</time></trkpt><trkpt lat="39.2973517782012" lon="16.527918272370133"><ele>1462.6666666666667</ele><time>2026-04-25T12:07:36.629Z</time></trkpt><trkpt lat="39.29739348303616" lon="16.528120274724266"><ele>1461.0</ele><time>2026-04-25T12:07:37.629Z</time></trkpt><trkpt lat="39.29743603638137" lon="16.528327664457574"><ele>1461.0</ele><time>2026-04-25T12:07:38.629Z</time></trkpt><trkpt lat="39.29747865490614" lon="16.52853994334086"><ele>1461.0</ele><time>2026-04-25T12:07:39.629Z</time></trkpt><trkpt lat="39.29752049730692" lon="16.52874469954567"><ele>1461.0</ele><time>2026-04-25T12:07:40.629Z</time></trkpt><trkpt lat="39.29755985273324" lon="16.52893999741759"><ele>1460.0</ele><time>2026-04-25T12:07:41.629Z</time></trkpt><trkpt lat="39.297596082291236" lon="16.529130340281117"><ele>1459.0</ele><time>2026-04-25T12:07:42.629Z</time></trkpt><trkpt lat="39.297634348299646" lon="16.529324675386107"><ele>1458.0</ele><time>2026-04-25T12:07:43.629Z</time></trkpt><trkpt lat="39.29767135630872" lon="16.529522132193012"><ele>1457.0</ele><time>2026-04-25T12:07:44.629Z</time></trkpt><trkpt lat="39.29770844877223" lon="16.529714124191294"><ele>1456.0</ele><time>2026-04-25T12:07:45.629Z</time></trkpt><trkpt lat="39.29774656038392" lon="16.529905650551637"><ele>1455.0</ele><time>2026-04-25T12:07:46.629Z</time></trkpt><trkpt lat="39.29778405011393" lon="16.53009040319956"><ele>1455.0</ele><time>2026-04-25T12:07:47.629Z</time></trkpt><trkpt lat="39.297828897200645" lon="16.53026727205352"><ele>1455.0</ele><time>2026-04-25T12:07:48.629Z</time></trkpt><trkpt lat="39.2978882419361" lon="16.530429316883787"><ele>1455.0</ele><time>2026-04-25T12:07:49.629Z</time></trkpt><trkpt lat="39.2979572420253" lon="16.530598047273813"><ele>1455.0</ele><time>2026-04-25T12:07:50.629Z</time></trkpt><trkpt lat="39.298061207522224" lon="16.53072448064095"><ele>1454.0</ele><time>2026-04-25T12:07:51.629Z</time></trkpt><trkpt lat="39.29818433020775" lon="16.530833545213444"><ele>1453.0</ele><time>2026-04-25T12:07:52.629Z</time></trkpt><trkpt lat="39.29832729950616" lon="16.53092315300059"><ele>1452.0</ele><time>2026-04-25T12:07:53.629Z</time></trkpt><trkpt lat="39.29847440711767" lon="16.53095470704547"><ele>1452.0</ele><time>2026-04-25T12:07:54.629Z</time></trkpt><trkpt lat="39.29862335862241" lon="16.53101111755259"><ele>1452.0</ele><time>2026-04-25T12:07:55.629Z</time></trkpt><trkpt lat="39.29877405748209" lon="16.53106901781165"><ele>1452.0</ele><time>2026-04-25T12:07:56.629Z</time></trkpt><trkpt lat="39.29891556550106" lon="16.531128187149626"><ele>1452.6666666666667</ele><time>2026-04-25T12:07:57.628Z</time></trkpt><trkpt lat="39.299064635982454" lon="16.531190101261334"><ele>1453.3333333333335</ele><time>2026-04-25T12:07:58.628Z</time></trkpt><trkpt lat="39.29920803495117" lon="16.531249498152135"><ele>1454.0</ele><time>2026-04-25T12:07:59.628Z</time></trkpt><trkpt lat="39.29934463408108" lon="16.531301961455988"><ele>1454.75</ele><time>2026-04-25T12:08:00.628Z</time></trkpt><trkpt lat="39.29948140506052" lon="16.53135516868647"><ele>1455.5</ele><time>2026-04-25T12:08:01.628Z</time></trkpt><trkpt lat="39.29962557110715" lon="16.53139953528007"><ele>1456.25</ele><time>2026-04-25T12:08:02.628Z</time></trkpt><trkpt lat="39.29976998004589" lon="16.531426130405812"><ele>1457.0</ele><time>2026-04-25T12:08:03.628Z</time></trkpt><trkpt lat="39.29992261249323" lon="16.531437576357792"><ele>1457.6666666666667</ele><time>2026-04-25T12:08:04.628Z</time></trkpt><trkpt lat="39.300080184580175" lon="16.53142752619616"><ele>1458.3333333333333</ele><time>2026-04-25T12:08:05.629Z</time></trkpt><trkpt lat="39.300237234438384" lon="16.53141076612025"><ele>1459.0</ele><time>2026-04-25T12:08:06.629Z</time></trkpt><trkpt lat="39.30039260744627" lon="16.531390533149434"><ele>1459.0</ele><time>2026-04-25T12:08:07.629Z</time></trkpt><trkpt lat="39.30054010638332" lon="16.531383192084217"><ele>1459.0</ele><time>2026-04-25T12:08:08.629Z</time></trkpt><trkpt lat="39.300679902709064" lon="16.531379809828675"><ele>1459.0</ele><time>2026-04-25T12:08:09.629Z</time></trkpt><trkpt lat="39.30081852104591" lon="16.531407881690253"><ele>1459.0</ele><time>2026-04-25T12:08:10.629Z</time></trkpt><trkpt lat="39.30095592505216" lon="16.531439012903338"><ele>1458.75</ele><time>2026-04-25T12:08:11.629Z</time></trkpt><trkpt lat="39.30109633644453" lon="16.531486705984527"><ele>1458.5</ele><time>2026-04-25T12:08:12.629Z</time></trkpt><trkpt lat="39.30123225468227" lon="16.53155316144347"><ele>1458.25</ele><time>2026-04-25T12:08:13.629Z</time></trkpt><trkpt lat="39.30136391710178" lon="16.531647022776628"><ele>1458.0</ele><time>2026-04-25T12:08:14.629Z</time></trkpt><trkpt lat="39.30148513986197" lon="16.531749919690636"><ele>1458.0</ele><time>2026-04-25T12:08:15.629Z</time></trkpt><trkpt lat="39.301619798972546" lon="16.53184262377191"><ele>1458.0</ele><time>2026-04-25T12:08:16.629Z</time></trkpt><trkpt lat="39.30174395899239" lon="16.531963745803168"><ele>1458.0</ele><time>2026-04-25T12:08:17.629Z</time></trkpt><trkpt lat="39.30186471698026" lon="16.53207440223319"><ele>1458.0</ele><time>2026-04-25T12:08:18.629Z</time></trkpt><trkpt lat="39.301990308947715" lon="16.532175210368166"><ele>1458.0</ele><time>2026-04-25T12:08:19.629Z</time></trkpt><trkpt lat="39.30211829939635" lon="16.53228768664164"><ele>1458.0</ele><time>2026-04-25T12:08:20.629Z</time></trkpt><trkpt lat="39.30224890361934" lon="16.532401687805464"><ele>1455.3333333333333</ele><time>2026-04-25T12:08:21.629Z</time></trkpt><trkpt lat="39.30238301370003" lon="16.53252163333861"><ele>1452.6666666666665</ele><time>2026-04-25T12:08:22.629Z</time></trkpt><trkpt lat="39.30251993123865" lon="16.532645735438113"><ele>1450.0</ele><time>2026-04-25T12:08:23.629Z</time></trkpt><trkpt lat="39.30265845155716" lon="16.53277572863354"><ele>1449.0</ele><time>2026-04-25T12:08:24.629Z</time></trkpt><trkpt lat="39.302801305895294" lon="16.53289791016677"><ele>1448.0</ele><time>2026-04-25T12:08:25.629Z</time></trkpt><trkpt lat="39.30294128635671" lon="16.533024169521536"><ele>1447.0</ele><time>2026-04-25T12:08:26.629Z</time></trkpt><trkpt lat="39.303087994279124" lon="16.533156904454884"><ele>1445.0</ele><time>2026-04-25T12:08:27.629Z</time></trkpt><trkpt lat="39.303236992726035" lon="16.533288373831585"><ele>1443.0</ele><time>2026-04-25T12:08:28.629Z</time></trkpt><trkpt lat="39.30339028182752" lon="16.533425095213953"><ele>1441.0</ele><time>2026-04-25T12:08:29.629Z</time></trkpt><trkpt lat="39.30354102925117" lon="16.533559152058153"><ele>1441.0</ele><time>2026-04-25T12:08:30.629Z</time></trkpt><trkpt lat="39.30370339126677" lon="16.53369859600008"><ele>1441.0</ele><time>2026-04-25T12:08:31.629Z</time></trkpt><trkpt lat="39.303868890368044" lon="16.533838381493123"><ele>1441.0</ele><time>2026-04-25T12:08:32.629Z</time></trkpt><trkpt lat="39.30403574984225" lon="16.53398297591955"><ele>1440.6666666666665</ele><time>2026-04-25T12:08:33.629Z</time></trkpt><trkpt lat="39.304203058648824" lon="16.53412725424841"><ele>1440.3333333333333</ele><time>2026-04-25T12:08:34.629Z</time></trkpt><trkpt lat="39.304368181564755" lon="16.53426947034937"><ele>1440.0</ele><time>2026-04-25T12:08:35.629Z</time></trkpt><trkpt lat="39.30452746991847" lon="16.534406822593755"><ele>1440.0</ele><time>2026-04-25T12:08:36.629Z</time></trkpt><trkpt lat="39.30467828669932" lon="16.534540539399327"><ele>1440.0</ele><time>2026-04-25T12:08:37.629Z</time></trkpt><trkpt lat="39.30482506220889" lon="16.534668862380432"><ele>1440.0</ele><time>2026-04-25T12:08:38.629Z</time></trkpt><trkpt lat="39.30496653957343" lon="16.534791552951592"><ele>1439.6666666666667</ele><time>2026-04-25T12:08:39.629Z</time></trkpt><trkpt lat="39.30511474390613" lon="16.534915340996832"><ele>1439.3333333333335</ele><time>2026-04-25T12:08:40.629Z</time></trkpt><trkpt lat="39.30526590210019" lon="16.53503551885722"><ele>1439.0</ele><time>2026-04-25T12:08:41.629Z</time></trkpt><trkpt lat="39.30541356731655" lon="16.535155910355403"><ele>1439.0</ele><time>2026-04-25T12:08:42.629Z</time></trkpt><trkpt lat="39.30556416206418" lon="16.535278004416536"><ele>1439.0</ele><time>2026-04-25T12:08:43.629Z</time></trkpt><trkpt lat="39.3057211432577" lon="16.535404793898635"><ele>1439.0</ele><time>2026-04-25T12:08:44.629Z</time></trkpt><trkpt lat="39.30588005349542" lon="16.535532522228515"><ele>1437.0</ele><time>2026-04-25T12:08:45.629Z</time></trkpt><trkpt lat="39.306038964825056" lon="16.535659648446888"><ele>1435.0</ele><time>2026-04-25T12:08:46.629Z</time></trkpt><trkpt lat="39.30619699735596" lon="16.53578763132533"><ele>1433.0</ele><time>2026-04-25T12:08:47.629Z</time></trkpt><trkpt lat="39.306356720443" lon="16.535914935090343"><ele>1432.3333333333335</ele><time>2026-04-25T12:08:48.629Z</time></trkpt><trkpt lat="39.30651836377301" lon="16.53604280481703"><ele>1431.6666666666667</ele><time>2026-04-25T12:08:49.629Z</time></trkpt><trkpt lat="39.306683351637126" lon="16.536172470773124"><ele>1431.0</ele><time>2026-04-25T12:08:50.629Z</time></trkpt><trkpt lat="39.306845618487465" lon="16.536301484695855"><ele>1429.6666666666667</ele><time>2026-04-25T12:08:51.629Z</time></trkpt><trkpt lat="39.30700836137272" lon="16.5364303551729"><ele>1428.3333333333335</ele><time>2026-04-25T12:08:52.629Z</time></trkpt><trkpt lat="39.307173328938156" lon="16.536558934713028"><ele>1427.0</ele><time>2026-04-25T12:08:53.629Z</time></trkpt><trkpt lat="39.30733155416531" lon="16.536683219843155"><ele>1427.0</ele><time>2026-04-25T12:08:54.629Z</time></trkpt><trkpt lat="39.30748187077034" lon="16.536806380205945"><ele>1427.0</ele><time>2026-04-25T12:08:55.629Z</time></trkpt><trkpt lat="39.307629385255986" lon="16.536924579879795"><ele>1427.0</ele><time>2026-04-25T12:08:56.629Z</time></trkpt><trkpt lat="39.30777852717966" lon="16.537043460113143"><ele>1427.6666666666667</ele><time>2026-04-25T12:08:57.629Z</time></trkpt><trkpt lat="39.30793153586099" lon="16.537160885204653"><ele>1428.3333333333333</ele><time>2026-04-25T12:08:58.629Z</time></trkpt><trkpt lat="39.30808397608382" lon="16.537278341325248"><ele>1429.0</ele><time>2026-04-25T12:08:59.629Z</time></trkpt><trkpt lat="39.30824145058683" lon="16.537400125045846"><ele>1429.3333333333333</ele><time>2026-04-25T12:09:00.629Z</time></trkpt><trkpt lat="39.3083895330541" lon="16.53754245199541"><ele>1429.6666666666667</ele><time>2026-04-25T12:09:01.629Z</time></trkpt><trkpt lat="39.30854886477805" lon="16.537669227810536"><ele>1430.0</ele><time>2026-04-25T12:09:02.629Z</time></trkpt><trkpt lat="39.308708374443995" lon="16.537797960608728"><ele>1430.6666666666667</ele><time>2026-04-25T12:09:03.629Z</time></trkpt><trkpt lat="39.30887407232709" lon="16.537915764956416"><ele>1431.3333333333333</ele><time>2026-04-25T12:09:04.629Z</time></trkpt><trkpt lat="39.30900887424981" lon="16.538090413069547"><ele>1432.0</ele><time>2026-04-25T12:09:05.629Z</time></trkpt><trkpt lat="39.30914241666692" lon="16.538260193873928"><ele>1432.0</ele><time>2026-04-25T12:09:06.629Z</time></trkpt><trkpt lat="39.30927769116781" lon="16.538423090133897"><ele>1432.0</ele><time>2026-04-25T12:09:07.629Z</time></trkpt><trkpt lat="39.30940309511368" lon="16.53860067838716"><ele>1432.0</ele><time>2026-04-25T12:09:08.629Z</time></trkpt><trkpt lat="39.30953047443129" lon="16.53876612267474"><ele>1433.3333333333333</ele><time>2026-04-25T12:09:09.629Z</time></trkpt><trkpt lat="39.309664813473965" lon="16.5389297463312"><ele>1434.6666666666667</ele><time>2026-04-25T12:09:10.629Z</time></trkpt><trkpt lat="39.30979673522899" lon="16.539077388309146"><ele>1436.0</ele><time>2026-04-25T12:09:11.629Z</time></trkpt><trkpt lat="39.309926035091124" lon="16.539198801283792"><ele>1436.0</ele><time>2026-04-25T12:09:12.629Z</time></trkpt><trkpt lat="39.310065894829826" lon="16.53929015293959"><ele>1436.0</ele><time>2026-04-25T12:09:13.629Z</time></trkpt><trkpt lat="39.31021962624092" lon="16.53936292556081"><ele>1436.0</ele><time>2026-04-25T12:09:14.628Z</time></trkpt><trkpt lat="39.310380640724745" lon="16.539424035214637"><ele>1436.0</ele><time>2026-04-25T12:09:15.628Z</time></trkpt><trkpt lat="39.31052668529556" lon="16.539511312022416"><ele>1436.0</ele><time>2026-04-25T12:09:16.628Z</time></trkpt><trkpt lat="39.31067184449426" lon="16.53958142955882"><ele>1436.0</ele><time>2026-04-25T12:09:17.628Z</time></trkpt><trkpt lat="39.31082051287187" lon="16.539656602813295"><ele>1434.6666666666667</ele><time>2026-04-25T12:09:18.628Z</time></trkpt><trkpt lat="39.31096418465167" lon="16.539733544815544"><ele>1433.3333333333333</ele><time>2026-04-25T12:09:19.628Z</time></trkpt><trkpt lat="39.31109945912654" lon="16.539822620918997"><ele>1432.0</ele><time>2026-04-25T12:09:20.628Z</time></trkpt><trkpt lat="39.311216876871974" lon="16.53994143108974"><ele>1432.0</ele><time>2026-04-25T12:09:21.628Z</time></trkpt><trkpt lat="39.31131731355247" lon="16.540082335651764"><ele>1432.0</ele><time>2026-04-25T12:09:22.628Z</time></trkpt><trkpt lat="39.311410936490546" lon="16.540238501363838"><ele>1432.0</ele><time>2026-04-25T12:09:23.628Z</time></trkpt><trkpt lat="39.31150663247714" lon="16.540402623487267"><ele>1429.3333333333333</ele><time>2026-04-25T12:09:24.628Z</time></trkpt><trkpt lat="39.31161840105109" lon="16.540565809215472"><ele>1426.6666666666667</ele><time>2026-04-25T12:09:25.628Z</time></trkpt><trkpt lat="39.311719973236315" lon="16.540741150431078"><ele>1424.0</ele><time>2026-04-25T12:09:26.628Z</time></trkpt><trkpt lat="39.31182083463785" lon="16.540916054984645"><ele>1424.0</ele><time>2026-04-25T12:09:27.628Z</time></trkpt><trkpt lat="39.311916931997125" lon="16.541080590420524"><ele>1424.0</ele><time>2026-04-25T12:09:28.627Z</time></trkpt><trkpt lat="39.31201174426354" lon="16.54124337326626"><ele>1424.0</ele><time>2026-04-25T12:09:29.627Z</time></trkpt><trkpt lat="39.31210715433447" lon="16.541402775836797"><ele>1423.0</ele><time>2026-04-25T12:09:30.627Z</time></trkpt><trkpt lat="39.31220185250703" lon="16.54156446667073"><ele>1422.0</ele><time>2026-04-25T12:09:31.627Z</time></trkpt><trkpt lat="39.312296387866205" lon="16.54172702724637"><ele>1421.0</ele><time>2026-04-25T12:09:32.627Z</time></trkpt><trkpt lat="39.31239320498856" lon="16.541895706297037"><ele>1421.6666666666667</ele><time>2026-04-25T12:09:33.627Z</time></trkpt><trkpt lat="39.31249535210957" lon="16.542072808692676"><ele>1422.3333333333333</ele><time>2026-04-25T12:09:34.627Z</time></trkpt><trkpt lat="39.312596450779495" lon="16.54224805994797"><ele>1423.0</ele><time>2026-04-25T12:09:35.627Z</time></trkpt><trkpt lat="39.31270032642415" lon="16.542430878915525"><ele>1423.0</ele><time>2026-04-25T12:09:36.627Z</time></trkpt><trkpt lat="39.312805407849176" lon="16.542614865057903"><ele>1423.0</ele><time>2026-04-25T12:09:37.627Z</time></trkpt><trkpt lat="39.3129056031943" lon="16.542789648995935"><ele>1423.0</ele><time>2026-04-25T12:09:38.627Z</time></trkpt><trkpt lat="39.31300029504361" lon="16.54295495517674"><ele>1423.0</ele><time>2026-04-25T12:09:39.627Z</time></trkpt><trkpt lat="39.31309025304788" lon="16.54310865658886"><ele>1423.0</ele><time>2026-04-25T12:09:40.627Z</time></trkpt><trkpt lat="39.31318122480976" lon="16.54326173736847"><ele>1423.0</ele><time>2026-04-25T12:09:41.627Z</time></trkpt><trkpt lat="39.313272146901724" lon="16.543407261607808"><ele>1423.0</ele><time>2026-04-25T12:09:42.627Z</time></trkpt><trkpt lat="39.313372185027404" lon="16.543538153278945"><ele>1423.0</ele><time>2026-04-25T12:09:43.627Z</time></trkpt><trkpt lat="39.313491391442895" lon="16.543659835609983"><ele>1423.0</ele><time>2026-04-25T12:09:44.627Z</time></trkpt><trkpt lat="39.31361115003342" lon="16.54376089463117"><ele>1423.0</ele><time>2026-04-25T12:09:45.627Z</time></trkpt><trkpt lat="39.31372942347315" lon="16.543864270273946"><ele>1423.0</ele><time>2026-04-25T12:09:46.627Z</time></trkpt><trkpt lat="39.31384033569459" lon="16.54396980203819"><ele>1420.5</ele><time>2026-04-25T12:09:47.627Z</time></trkpt><trkpt lat="39.31394767522112" lon="16.54407061572388"><ele>1418.0</ele><time>2026-04-25T12:09:48.627Z</time></trkpt><trkpt lat="39.31404821418108" lon="16.54417892051365"><ele>1415.5</ele><time>2026-04-25T12:09:49.627Z</time></trkpt><trkpt lat="39.314157894932634" lon="16.54427052095933"><ele>1413.0</ele><time>2026-04-25T12:09:50.627Z</time></trkpt><trkpt lat="39.314265659632945" lon="16.5443532306456"><ele>1413.0</ele><time>2026-04-25T12:09:51.627Z</time></trkpt><trkpt lat="39.31438625301565" lon="16.54441942692593"><ele>1413.0</ele><time>2026-04-25T12:09:52.627Z</time></trkpt><trkpt lat="39.31450835236843" lon="16.544503922234924"><ele>1413.0</ele><time>2026-04-25T12:09:53.627Z</time></trkpt><trkpt lat="39.31462321606025" lon="16.54461283301306"><ele>1413.0</ele><time>2026-04-25T12:09:54.627Z</time></trkpt><trkpt lat="39.314742118762524" lon="16.54470173391672"><ele>1412.25</ele><time>2026-04-25T12:09:55.627Z</time></trkpt><trkpt lat="39.31485769141348" lon="16.544789082416987"><ele>1411.5</ele><time>2026-04-25T12:09:56.627Z</time></trkpt><trkpt lat="39.3149786846265" lon="16.544856827967863"><ele>1410.75</ele><time>2026-04-25T12:09:57.627Z</time></trkpt><trkpt lat="39.3150887215012" lon="16.544944217848478"><ele>1410.0</ele><time>2026-04-25T12:09:58.627Z</time></trkpt><trkpt lat="39.31519388737082" lon="16.545033464877044"><ele>1410.0</ele><time>2026-04-25T12:09:59.627Z</time></trkpt><trkpt lat="39.31527861471375" lon="16.545135370652602"><ele>1410.0</ele><time>2026-04-25T12:10:00.627Z</time></trkpt><trkpt lat="39.31535514826079" lon="16.545225328957493"><ele>1410.0</ele><time>2026-04-25T12:10:01.627Z</time></trkpt><trkpt lat="39.31544627322859" lon="16.545332336771047"><ele>1410.0</ele><time>2026-04-25T12:10:02.627Z</time></trkpt><trkpt lat="39.31554356542383" lon="16.545419244754726"><ele>1409.6</ele><time>2026-04-25T12:10:03.627Z</time></trkpt><trkpt lat="39.315627560557786" lon="16.545520616950373"><ele>1409.2</ele><time>2026-04-25T12:10:04.627Z</time></trkpt><trkpt lat="39.31570782216563" lon="16.545615171531285"><ele>1408.8000000000002</ele><time>2026-04-25T12:10:05.627Z</time></trkpt><trkpt lat="39.315781409812246" lon="16.545707680084032"><ele>1408.4</ele><time>2026-04-25T12:10:06.627Z</time></trkpt><trkpt lat="39.315845769383756" lon="16.545794028611162"><ele>1408.0</ele><time>2026-04-25T12:10:07.627Z</time></trkpt><trkpt lat="39.315905097592086" lon="16.545866602834707"><ele>1408.0</ele><time>2026-04-25T12:10:08.627Z</time></trkpt><trkpt lat="39.31597216811453" lon="16.545920836234014"><ele>1408.0</ele><time>2026-04-25T12:10:09.627Z</time></trkpt><trkpt lat="39.31603300404301" lon="16.545952086273587"><ele>1408.0</ele><time>2026-04-25T12:10:10.627Z</time></trkpt><trkpt lat="39.31608963361789" lon="16.5459941857024"><ele>1408.0</ele><time>2026-04-25T12:10:11.628Z</time></trkpt><trkpt lat="39.316157011586746" lon="16.54604369480042"><ele>1408.0</ele><time>2026-04-25T12:10:12.628Z</time></trkpt><trkpt lat="39.31624425053772" lon="16.546094248199054"><ele>1408.0</ele><time>2026-04-25T12:10:13.628Z</time></trkpt><trkpt lat="39.31633947249671" lon="16.54614278631181"><ele>1408.0</ele><time>2026-04-25T12:10:14.628Z</time></trkpt><trkpt lat="39.31643324311287" lon="16.546191672617645"><ele>1408.0</ele><time>2026-04-25T12:10:15.628Z</time></trkpt><trkpt lat="39.316528371979075" lon="16.546252350391892"><ele>1408.0</ele><time>2026-04-25T12:10:16.628Z</time></trkpt><trkpt lat="39.31661919492087" lon="16.546313115220045"><ele>1408.0</ele><time>2026-04-25T12:10:17.628Z</time></trkpt><trkpt lat="39.31669746627755" lon="16.546367898876333"><ele>1408.0</ele><time>2026-04-25T12:10:18.628Z</time></trkpt><trkpt lat="39.31678066177247" lon="16.54642612533361"><ele>1408.6666666666665</ele><time>2026-04-25T12:10:19.628Z</time></trkpt><trkpt lat="39.316856405226865" lon="16.546479136227052"><ele>1409.3333333333333</ele><time>2026-04-25T12:10:20.628Z</time></trkpt><trkpt lat="39.31692810132504" lon="16.546529314488797"><ele>1410.0</ele><time>2026-04-25T12:10:21.628Z</time></trkpt><trkpt lat="39.316996038487986" lon="16.546604062847308"><ele>1410.6666666666667</ele><time>2026-04-25T12:10:22.628Z</time></trkpt><trkpt lat="39.31704483794266" lon="16.54667232858029"><ele>1411.3333333333335</ele><time>2026-04-25T12:10:23.628Z</time></trkpt><trkpt lat="39.31702947510563" lon="16.54681456229298"><ele>1412.0</ele><time>2026-04-25T12:10:24.628Z</time></trkpt><trkpt lat="39.31700296665489" lon="16.546934288582584"><ele>1412.3333333333335</ele><time>2026-04-25T12:10:25.628Z</time></trkpt><trkpt lat="39.316960621901956" lon="16.547044333003086"><ele>1412.6666666666667</ele><time>2026-04-25T12:10:26.628Z</time></trkpt><trkpt lat="39.31689904359377" lon="16.547123546528642"><ele>1413.0</ele><time>2026-04-25T12:10:27.628Z</time></trkpt><trkpt lat="39.316821775871375" lon="16.54717413645657"><ele>1413.3333333333333</ele><time>2026-04-25T12:10:28.628Z</time></trkpt><trkpt lat="39.31673714504703" lon="16.5471947802145"><ele>1413.6666666666665</ele><time>2026-04-25T12:10:29.628Z</time></trkpt><trkpt lat="39.31665355044913" lon="16.547185628595397"><ele>1414.0</ele><time>2026-04-25T12:10:30.628Z</time></trkpt><trkpt lat="39.316578029488205" lon="16.547148900603567"><ele>1414.0</ele><time>2026-04-25T12:10:31.628Z</time></trkpt><trkpt lat="39.31650638586903" lon="16.54709976734707"><ele>1414.0</ele><time>2026-04-25T12:10:32.628Z</time></trkpt><trkpt lat="39.3164501720295" lon="16.54703158237839"><ele>1414.0</ele><time>2026-04-25T12:10:33.628Z</time></trkpt><trkpt lat="39.31641213736981" lon="16.546947586207725"><ele>1414.0</ele><time>2026-04-25T12:10:34.628Z</time></trkpt><trkpt lat="39.3163994731812" lon="16.546849212802638"><ele>1414.0</ele><time>2026-04-25T12:10:35.628Z</time></trkpt><trkpt lat="39.31640140644929" lon="16.546755896673115"><ele>1414.0</ele><time>2026-04-25T12:10:36.628Z</time></trkpt><trkpt lat="39.31643858093703" lon="16.546676877046863"><ele>1413.6</ele><time>2026-04-25T12:10:37.628Z</time></trkpt><trkpt lat="39.31646463869898" lon="16.546576469949454"><ele>1413.2</ele><time>2026-04-25T12:10:38.628Z</time></trkpt><trkpt lat="39.31647966409593" lon="16.546448741411485"><ele>1412.8</ele><time>2026-04-25T12:10:39.628Z</time></trkpt><trkpt lat="39.316524285233186" lon="16.546319759648743"><ele>1412.3999999999999</ele><time>2026-04-25T12:10:40.628Z</time></trkpt><trkpt lat="39.31658429196408" lon="16.546188780322122"><ele>1412.0</ele><time>2026-04-25T12:10:41.628Z</time></trkpt><trkpt lat="39.31663855860114" lon="16.54604312931738"><ele>1411.0</ele><time>2026-04-25T12:10:42.628Z</time></trkpt><trkpt lat="39.316707015795316" lon="16.545887214315687"><ele>1410.0</ele><time>2026-04-25T12:10:43.628Z</time></trkpt><trkpt lat="39.3167717742013" lon="16.54572405421164"><ele>1409.0</ele><time>2026-04-25T12:10:44.628Z</time></trkpt><trkpt lat="39.31684124245136" lon="16.54555700324555"><ele>1408.0</ele><time>2026-04-25T12:10:45.628Z</time></trkpt><trkpt lat="39.316909149191204" lon="16.545387662228645"><ele>1406.75</ele><time>2026-04-25T12:10:46.628Z</time></trkpt><trkpt lat="39.3169784118889" lon="16.54521768248968"><ele>1405.5</ele><time>2026-04-25T12:10:47.628Z</time></trkpt><trkpt lat="39.31704184549428" lon="16.5450577789076"><ele>1404.25</ele><time>2026-04-25T12:10:48.628Z</time></trkpt><trkpt lat="39.31710773466472" lon="16.544901183343725"><ele>1403.0</ele><time>2026-04-25T12:10:49.628Z</time></trkpt><trkpt lat="39.31716800534985" lon="16.544749660705808"><ele>1403.0</ele><time>2026-04-25T12:10:50.628Z</time></trkpt><trkpt lat="39.31722408114853" lon="16.544611686050665"><ele>1403.0</ele><time>2026-04-25T12:10:51.628Z</time></trkpt><trkpt lat="39.317279773606835" lon="16.544479178145995"><ele>1403.0</ele><time>2026-04-25T12:10:52.628Z</time></trkpt><trkpt lat="39.317334436897035" lon="16.54434568893033"><ele>1403.0</ele><time>2026-04-25T12:10:53.628Z</time></trkpt><trkpt lat="39.31738230732081" lon="16.54421470733347"><ele>1400.0</ele><time>2026-04-25T12:10:54.628Z</time></trkpt><trkpt lat="39.31743384420001" lon="16.544079159561683"><ele>1397.0</ele><time>2026-04-25T12:10:55.628Z</time></trkpt><trkpt lat="39.31748513067312" lon="16.543946704476195"><ele>1394.0</ele><time>2026-04-25T12:10:56.628Z</time></trkpt><trkpt lat="39.317550111304925" lon="16.543825905077362"><ele>1391.0</ele><time>2026-04-25T12:10:57.628Z</time></trkpt><trkpt lat="39.317602309616525" lon="16.543698435931358"><ele>1388.3333333333335</ele><time>2026-04-25T12:10:58.627Z</time></trkpt><trkpt lat="39.31765339869293" lon="16.543573675585208"><ele>1385.6666666666667</ele><time>2026-04-25T12:10:59.627Z</time></trkpt><trkpt lat="39.317762572510084" lon="16.543281793432854"><ele>1383.0</ele><time>2026-04-25T12:11:00.627Z</time></trkpt><trkpt lat="39.31783436139821" lon="16.543101450655946"><ele>1383.0</ele><time>2026-04-25T12:11:01.627Z</time></trkpt><trkpt lat="39.31790426619418" lon="16.542922635583356"><ele>1383.0</ele><time>2026-04-25T12:11:02.627Z</time></trkpt><trkpt lat="39.317976862541855" lon="16.542748630061563"><ele>1383.0</ele><time>2026-04-25T12:11:03.627Z</time></trkpt><trkpt lat="39.318044966915764" lon="16.542585544957717"><ele>1379.0</ele><time>2026-04-25T12:11:04.627Z</time></trkpt><trkpt lat="39.31811145258091" lon="16.542418069825217"><ele>1375.0</ele><time>2026-04-25T12:11:05.627Z</time></trkpt><trkpt lat="39.31817520065546" lon="16.5422422423867"><ele>1371.0</ele><time>2026-04-25T12:11:06.627Z</time></trkpt><trkpt lat="39.318242724660436" lon="16.54205156882364"><ele>1372.6666666666667</ele><time>2026-04-25T12:11:07.627Z</time></trkpt><trkpt lat="39.31830227825184" lon="16.54185364106068"><ele>1374.3333333333335</ele><time>2026-04-25T12:11:08.627Z</time></trkpt><trkpt lat="39.318362579742505" lon="16.54165128143437"><ele>1376.0</ele><time>2026-04-25T12:11:09.627Z</time></trkpt><trkpt lat="39.31841377612372" lon="16.541441961500908"><ele>1376.0</ele><time>2026-04-25T12:11:10.627Z</time></trkpt><trkpt lat="39.318448883455005" lon="16.541227240465112"><ele>1376.0</ele><time>2026-04-25T12:11:11.627Z</time></trkpt><trkpt lat="39.31848013552824" lon="16.541023633427848"><ele>1376.0</ele><time>2026-04-25T12:11:12.627Z</time></trkpt><trkpt lat="39.31850840696331" lon="16.540822128575115"><ele>1377.6666666666667</ele><time>2026-04-25T12:11:13.627Z</time></trkpt><trkpt lat="39.31853110955811" lon="16.540613268603586"><ele>1379.3333333333333</ele><time>2026-04-25T12:11:14.627Z</time></trkpt><trkpt lat="39.318551047083176" lon="16.54038808322722"><ele>1381.0</ele><time>2026-04-25T12:11:15.627Z</time></trkpt><trkpt lat="39.318564800943506" lon="16.540159255864403"><ele>1381.0</ele><time>2026-04-25T12:11:16.627Z</time></trkpt><trkpt lat="39.31856999947789" lon="16.539922796490753"><ele>1381.0</ele><time>2026-04-25T12:11:17.627Z</time></trkpt><trkpt lat="39.31857177414818" lon="16.539683560768214"><ele>1381.0</ele><time>2026-04-25T12:11:18.627Z</time></trkpt><trkpt lat="39.31856267808928" lon="16.539457413363905"><ele>1378.6666666666665</ele><time>2026-04-25T12:11:19.627Z</time></trkpt><trkpt lat="39.318550087646656" lon="16.53924715966075"><ele>1376.3333333333333</ele><time>2026-04-25T12:11:20.627Z</time></trkpt><trkpt lat="39.31853710197404" lon="16.539039420136977"><ele>1374.0</ele><time>2026-04-25T12:11:21.627Z</time></trkpt><trkpt lat="39.31851273943139" lon="16.538835284746025"><ele>1371.0</ele><time>2026-04-25T12:11:22.627Z</time></trkpt><trkpt lat="39.31848148274729" lon="16.538642664656468"><ele>1368.0</ele><time>2026-04-25T12:11:23.627Z</time></trkpt><trkpt lat="39.318434490744664" lon="16.538454521033902"><ele>1365.0</ele><time>2026-04-25T12:11:24.627Z</time></trkpt><trkpt lat="39.31838884870886" lon="16.538250839745487"><ele>1365.0</ele><time>2026-04-25T12:11:25.627Z</time></trkpt><trkpt lat="39.31834365432197" lon="16.53805113933548"><ele>1365.0</ele><time>2026-04-25T12:11:26.627Z</time></trkpt><trkpt lat="39.3182871022675" lon="16.53784466805444"><ele>1365.0</ele><time>2026-04-25T12:11:27.627Z</time></trkpt><trkpt lat="39.31822189066782" lon="16.537639797484793"><ele>1366.3333333333333</ele><time>2026-04-25T12:11:28.627Z</time></trkpt><trkpt lat="39.31814442030831" lon="16.537428143092562"><ele>1367.6666666666665</ele><time>2026-04-25T12:11:29.627Z</time></trkpt><trkpt lat="39.318060232677034" lon="16.53722200634307"><ele>1369.0</ele><time>2026-04-25T12:11:30.627Z</time></trkpt><trkpt lat="39.31797557568261" lon="16.537010386853883"><ele>1365.3333333333333</ele><time>2026-04-25T12:11:31.627Z</time></trkpt><trkpt lat="39.31788585395385" lon="16.536795354060875"><ele>1361.6666666666667</ele><time>2026-04-25T12:11:32.627Z</time></trkpt><trkpt lat="39.31779457235547" lon="16.536576945161446"><ele>1358.0</ele><time>2026-04-25T12:11:33.627Z</time></trkpt><trkpt lat="39.31769557120038" lon="16.536357928976653"><ele>1356.0</ele><time>2026-04-25T12:11:34.627Z</time></trkpt><trkpt lat="39.31759663986432" lon="16.53614483733927"><ele>1354.0</ele><time>2026-04-25T12:11:35.627Z</time></trkpt><trkpt lat="39.317494422862126" lon="16.53592749570032"><ele>1352.0</ele><time>2026-04-25T12:11:36.627Z</time></trkpt><trkpt lat="39.31739606738908" lon="16.535711654491237"><ele>1352.0</ele><time>2026-04-25T12:11:37.627Z</time></trkpt><trkpt lat="39.31730229822103" lon="16.53549139239599"><ele>1352.0</ele><time>2026-04-25T12:11:38.627Z</time></trkpt><trkpt lat="39.3172079614297" lon="16.53527263217612"><ele>1352.0</ele><time>2026-04-25T12:11:39.627Z</time></trkpt><trkpt lat="39.317113629807366" lon="16.53505756131125"><ele>1352.6666666666667</ele><time>2026-04-25T12:11:40.627Z</time></trkpt><trkpt lat="39.31702109079674" lon="16.53484354054578"><ele>1353.3333333333333</ele><time>2026-04-25T12:11:41.627Z</time></trkpt><trkpt lat="39.316931755174764" lon="16.534628165610158"><ele>1354.0</ele><time>2026-04-25T12:11:42.627Z</time></trkpt><trkpt lat="39.31684281731414" lon="16.53441141758005"><ele>1354.0</ele><time>2026-04-25T12:11:43.627Z</time></trkpt><trkpt lat="39.31675760038052" lon="16.53419071692203"><ele>1354.0</ele><time>2026-04-25T12:11:44.627Z</time></trkpt><trkpt lat="39.31668843631332" lon="16.53397075623332"><ele>1354.0</ele><time>2026-04-25T12:11:45.627Z</time></trkpt><trkpt lat="39.31663574455968" lon="16.533747838153108"><ele>1351.0</ele><time>2026-04-25T12:11:46.627Z</time></trkpt><trkpt lat="39.31659119086811" lon="16.53352096458649"><ele>1348.0</ele><time>2026-04-25T12:11:47.627Z</time></trkpt><trkpt lat="39.31655490535467" lon="16.533295052135692"><ele>1345.0</ele><time>2026-04-25T12:11:48.627Z</time></trkpt><trkpt lat="39.31652436643168" lon="16.53306146346186"><ele>1342.6666666666665</ele><time>2026-04-25T12:11:49.627Z</time></trkpt><trkpt lat="39.316503091895434" lon="16.532827832629405"><ele>1340.3333333333333</ele><time>2026-04-25T12:11:50.627Z</time></trkpt><trkpt lat="39.31649154559133" lon="16.532592743403733"><ele>1338.0</ele><time>2026-04-25T12:11:51.627Z</time></trkpt><trkpt lat="39.316490258783276" lon="16.532353053181904"><ele>1338.0</ele><time>2026-04-25T12:11:52.627Z</time></trkpt><trkpt lat="39.31649967599653" lon="16.53211623727104"><ele>1338.0</ele><time>2026-04-25T12:11:53.627Z</time></trkpt><trkpt lat="39.3165164800533" lon="16.53188050299774"><ele>1338.0</ele><time>2026-04-25T12:11:54.627Z</time></trkpt><trkpt lat="39.31654170449354" lon="16.531645164809273"><ele>1336.3333333333333</ele><time>2026-04-25T12:11:55.627Z</time></trkpt><trkpt lat="39.316591661533245" lon="16.5314193304996"><ele>1334.6666666666665</ele><time>2026-04-25T12:11:56.627Z</time></trkpt><trkpt lat="39.316635335342724" lon="16.53119496266722"><ele>1333.0</ele><time>2026-04-25T12:11:57.627Z</time></trkpt><trkpt lat="39.31668939076443" lon="16.530979176829597"><ele>1333.0</ele><time>2026-04-25T12:11:58.627Z</time></trkpt><trkpt lat="39.31673439335135" lon="16.530761340458124"><ele>1333.0</ele><time>2026-04-25T12:11:59.627Z</time></trkpt><trkpt lat="39.31680065338265" lon="16.530562408025943"><ele>1333.0</ele><time>2026-04-25T12:12:00.627Z</time></trkpt><trkpt lat="39.31686952247716" lon="16.530370422347282"><ele>1335.3333333333333</ele><time>2026-04-25T12:12:01.627Z</time></trkpt><trkpt lat="39.31696072238195" lon="16.530188351247535"><ele>1337.6666666666667</ele><time>2026-04-25T12:12:02.627Z</time></trkpt><trkpt lat="39.31704829934035" lon="16.52999866344098"><ele>1340.0</ele><time>2026-04-25T12:12:03.627Z</time></trkpt><trkpt lat="39.317147264302854" lon="16.529805316270153"><ele>1341.0</ele><time>2026-04-25T12:12:04.627Z</time></trkpt><trkpt lat="39.31724722925494" lon="16.529609836210177"><ele>1342.0</ele><time>2026-04-25T12:12:05.627Z</time></trkpt><trkpt lat="39.3173722683557" lon="16.529408488525117"><ele>1343.0</ele><time>2026-04-25T12:12:06.627Z</time></trkpt><trkpt lat="39.317500756694315" lon="16.52919563887717"><ele>1344.0</ele><time>2026-04-25T12:12:07.627Z</time></trkpt><trkpt lat="39.31763113030803" lon="16.528971686330515"><ele>1345.0</ele><time>2026-04-25T12:12:08.627Z</time></trkpt><trkpt lat="39.31776131818318" lon="16.528751583058618"><ele>1346.0</ele><time>2026-04-25T12:12:09.627Z</time></trkpt><trkpt lat="39.31789062031352" lon="16.52853278282985"><ele>1346.6666666666667</ele><time>2026-04-25T12:12:10.627Z</time></trkpt><trkpt lat="39.318020626124444" lon="16.52831458064081"><ele>1347.3333333333333</ele><time>2026-04-25T12:12:11.627Z</time></trkpt><trkpt lat="39.31815166481963" lon="16.528095614454934"><ele>1348.0</ele><time>2026-04-25T12:12:12.627Z</time></trkpt><trkpt lat="39.3182770351437" lon="16.527882023638522"><ele>1349.6666666666665</ele><time>2026-04-25T12:12:13.627Z</time></trkpt><trkpt lat="39.31840058254902" lon="16.52766614404438"><ele>1351.3333333333333</ele><time>2026-04-25T12:12:14.627Z</time></trkpt><trkpt lat="39.31851985286916" lon="16.527453376782113"><ele>1353.0</ele><time>2026-04-25T12:12:15.627Z</time></trkpt><trkpt lat="39.31863418233671" lon="16.52723411996356"><ele>1353.6666666666667</ele><time>2026-04-25T12:12:16.627Z</time></trkpt><trkpt lat="39.3187404259863" lon="16.52701304962081"><ele>1354.3333333333335</ele><time>2026-04-25T12:12:17.628Z</time></trkpt><trkpt lat="39.31883892017392" lon="16.526788573993894"><ele>1355.0</ele><time>2026-04-25T12:12:18.628Z</time></trkpt><trkpt lat="39.31893093287987" lon="16.52655860313362"><ele>1356.0</ele><time>2026-04-25T12:12:19.627Z</time></trkpt><trkpt lat="39.31901581142368" lon="16.52632646477394"><ele>1357.0</ele><time>2026-04-25T12:12:20.627Z</time></trkpt><trkpt lat="39.31909669103125" lon="16.526087879636634"><ele>1358.0</ele><time>2026-04-25T12:12:21.627Z</time></trkpt><trkpt lat="39.319170660087316" lon="16.52583730316086"><ele>1358.0</ele><time>2026-04-25T12:12:22.627Z</time></trkpt><trkpt lat="39.319238902608355" lon="16.52557442177998"><ele>1358.0</ele><time>2026-04-25T12:12:23.627Z</time></trkpt><trkpt lat="39.319298124557484" lon="16.52529947843937"><ele>1358.0</ele><time>2026-04-25T12:12:24.627Z</time></trkpt><trkpt lat="39.31934777734768" lon="16.525018624471837"><ele>1356.6666666666667</ele><time>2026-04-25T12:12:25.627Z</time></trkpt><trkpt lat="39.31938720557287" lon="16.524733950755145"><ele>1355.3333333333333</ele><time>2026-04-25T12:12:26.627Z</time></trkpt><trkpt lat="39.31941678427579" lon="16.524444790985385"><ele>1354.0</ele><time>2026-04-25T12:12:27.627Z</time></trkpt><trkpt lat="39.31943660870025" lon="16.52416717842053"><ele>1353.6666666666665</ele><time>2026-04-25T12:12:28.627Z</time></trkpt><trkpt lat="39.31944855017916" lon="16.523903439331754"><ele>1353.3333333333333</ele><time>2026-04-25T12:12:29.627Z</time></trkpt><trkpt lat="39.31945072809156" lon="16.523650066389628"><ele>1353.0</ele><time>2026-04-25T12:12:30.627Z</time></trkpt><trkpt lat="39.319442975460106" lon="16.523406150674983"><ele>1353.0</ele><time>2026-04-25T12:12:31.627Z</time></trkpt><trkpt lat="39.319427729498635" lon="16.52315488030765"><ele>1353.0</ele><time>2026-04-25T12:12:32.627Z</time></trkpt><trkpt lat="39.319406397638495" lon="16.52289927163918"><ele>1353.0</ele><time>2026-04-25T12:12:33.627Z</time></trkpt><trkpt lat="39.31937906225768" lon="16.52263472252881"><ele>1351.3333333333333</ele><time>2026-04-25T12:12:34.627Z</time></trkpt><trkpt lat="39.319350156298455" lon="16.52236738848521"><ele>1349.6666666666665</ele><time>2026-04-25T12:12:35.627Z</time></trkpt><trkpt lat="39.31932518900778" lon="16.522103620133237"><ele>1348.0</ele><time>2026-04-25T12:12:36.627Z</time></trkpt><trkpt lat="39.31930552486832" lon="16.521847917177794"><ele>1346.6666666666665</ele><time>2026-04-25T12:12:37.627Z</time></trkpt><trkpt lat="39.319280722703226" lon="16.521590441844786"><ele>1345.3333333333333</ele><time>2026-04-25T12:12:38.627Z</time></trkpt><trkpt lat="39.319258551694524" lon="16.521337860819397"><ele>1344.0</ele><time>2026-04-25T12:12:39.627Z</time></trkpt><trkpt lat="39.31923773363355" lon="16.52107674716522"><ele>1343.3333333333333</ele><time>2026-04-25T12:12:40.627Z</time></trkpt><trkpt lat="39.319223921154986" lon="16.520820568732947"><ele>1342.6666666666665</ele><time>2026-04-25T12:12:41.627Z</time></trkpt><trkpt lat="39.31921426766083" lon="16.520557346911247"><ele>1342.0</ele><time>2026-04-25T12:12:42.627Z</time></trkpt><trkpt lat="39.319207172392574" lon="16.52030442520983"><ele>1342.0</ele><time>2026-04-25T12:12:43.627Z</time></trkpt><trkpt lat="39.319205571364186" lon="16.52004766333885"><ele>1342.0</ele><time>2026-04-25T12:12:44.627Z</time></trkpt><trkpt lat="39.31920899224804" lon="16.519786290142587"><ele>1342.0</ele><time>2026-04-25T12:12:45.627Z</time></trkpt><trkpt lat="39.319217698169076" lon="16.51951872037342"><ele>1342.6666666666665</ele><time>2026-04-25T12:12:46.627Z</time></trkpt><trkpt lat="39.319229724440426" lon="16.519248159431676"><ele>1343.3333333333333</ele><time>2026-04-25T12:12:47.627Z</time></trkpt><trkpt lat="39.31924119253045" lon="16.518973949523446"><ele>1344.0</ele><time>2026-04-25T12:12:48.627Z</time></trkpt><trkpt lat="39.31925132435956" lon="16.518692791451397"><ele>1344.6666666666667</ele><time>2026-04-25T12:12:49.627Z</time></trkpt><trkpt lat="39.31925988704501" lon="16.518417493528702"><ele>1345.3333333333335</ele><time>2026-04-25T12:12:50.627Z</time></trkpt><trkpt lat="39.31926915217878" lon="16.518144057019644"><ele>1346.0</ele><time>2026-04-25T12:12:51.627Z</time></trkpt><trkpt lat="39.31928138953257" lon="16.517868525949304"><ele>1346.6666666666667</ele><time>2026-04-25T12:12:52.627Z</time></trkpt><trkpt lat="39.319292300207" lon="16.517597205134475"><ele>1347.3333333333333</ele><time>2026-04-25T12:12:53.627Z</time></trkpt><trkpt lat="39.31930322715182" lon="16.517328093729212"><ele>1348.0</ele><time>2026-04-25T12:12:54.627Z</time></trkpt><trkpt lat="39.319313857712835" lon="16.517057152764636"><ele>1349.0</ele><time>2026-04-25T12:12:55.627Z</time></trkpt><trkpt lat="39.31932633786392" lon="16.51678069503268"><ele>1350.0</ele><time>2026-04-25T12:12:56.627Z</time></trkpt><trkpt lat="39.31933786715664" lon="16.516505977596445"><ele>1351.0</ele><time>2026-04-25T12:12:57.627Z</time></trkpt><trkpt lat="39.319351881035374" lon="16.516224818834907"><ele>1351.3333333333333</ele><time>2026-04-25T12:12:58.627Z</time></trkpt><trkpt lat="39.31936520141785" lon="16.515940118807244"><ele>1351.6666666666667</ele><time>2026-04-25T12:12:59.627Z</time></trkpt><trkpt lat="39.31937659759022" lon="16.515655730267962"><ele>1352.0</ele><time>2026-04-25T12:13:00.627Z</time></trkpt><trkpt lat="39.31938945088163" lon="16.515366755258263"><ele>1352.0</ele><time>2026-04-25T12:13:01.627Z</time></trkpt><trkpt lat="39.3193997073432" lon="16.515075411498234"><ele>1352.0</ele><time>2026-04-25T12:13:02.627Z</time></trkpt><trkpt lat="39.3194101456927" lon="16.514787547807842"><ele>1352.0</ele><time>2026-04-25T12:13:03.627Z</time></trkpt><trkpt lat="39.31941946887804" lon="16.514498783755663"><ele>1352.0</ele><time>2026-04-25T12:13:04.627Z</time></trkpt><trkpt lat="39.319447401225815" lon="16.514211805578096"><ele>1352.0</ele><time>2026-04-25T12:13:05.627Z</time></trkpt><trkpt lat="39.31945909477504" lon="16.513923302251406"><ele>1352.0</ele><time>2026-04-25T12:13:06.627Z</time></trkpt><trkpt lat="39.31945460204882" lon="16.513636267463088"><ele>1353.0</ele><time>2026-04-25T12:13:07.627Z</time></trkpt><trkpt lat="39.31947186686171" lon="16.513346680925746"><ele>1354.0</ele><time>2026-04-25T12:13:08.627Z</time></trkpt><trkpt lat="39.31948740392655" lon="16.51303925417178"><ele>1353.5</ele><time>2026-04-25T12:13:09.627Z</time></trkpt><trkpt lat="39.31950206487648" lon="16.512713345695655"><ele>1353.0</ele><time>2026-04-25T12:13:10.627Z</time></trkpt><trkpt lat="39.31951549836307" lon="16.512377682441436"><ele>1353.0</ele><time>2026-04-25T12:13:11.627Z</time></trkpt><trkpt lat="39.319527176446435" lon="16.512055830525437"><ele>1353.0</ele><time>2026-04-25T12:13:12.627Z</time></trkpt><trkpt lat="39.319538466094734" lon="16.511750122331275"><ele>1353.0</ele><time>2026-04-25T12:13:13.627Z</time></trkpt><trkpt lat="39.319550904427196" lon="16.511442192592966"><ele>1353.0</ele><time>2026-04-25T12:13:14.627Z</time></trkpt><trkpt lat="39.31956459435302" lon="16.511134270606924"><ele>1355.0</ele><time>2026-04-25T12:13:15.627Z</time></trkpt><trkpt lat="39.31957977853881" lon="16.51083168700464"><ele>1357.0</ele><time>2026-04-25T12:13:16.627Z</time></trkpt><trkpt lat="39.31959427330967" lon="16.510542111453876"><ele>1357.0</ele><time>2026-04-25T12:13:17.627Z</time></trkpt><trkpt lat="39.319612742236004" lon="16.510262203021565"><ele>1357.0</ele><time>2026-04-25T12:13:18.627Z</time></trkpt><trkpt lat="39.31963801589712" lon="16.50997572032208"><ele>1357.0</ele><time>2026-04-25T12:13:19.627Z</time></trkpt><trkpt lat="39.31967460061201" lon="16.509692849503782"><ele>1357.3333333333333</ele><time>2026-04-25T12:13:20.627Z</time></trkpt><trkpt lat="39.31972419139715" lon="16.509418088607234"><ele>1357.6666666666667</ele><time>2026-04-25T12:13:21.627Z</time></trkpt><trkpt lat="39.3197830513896" lon="16.509143452455586"><ele>1358.0</ele><time>2026-04-25T12:13:22.627Z</time></trkpt><trkpt lat="39.31985116823659" lon="16.508872493396996"><ele>1359.6666666666667</ele><time>2026-04-25T12:13:23.627Z</time></trkpt><trkpt lat="39.319920370055776" lon="16.508617021258644"><ele>1361.3333333333333</ele><time>2026-04-25T12:13:24.627Z</time></trkpt><trkpt lat="39.31999810311807" lon="16.508358586304222"><ele>1363.0</ele><time>2026-04-25T12:13:25.627Z</time></trkpt><trkpt lat="39.32008156780853" lon="16.50810912260013"><ele>1364.0</ele><time>2026-04-25T12:13:26.627Z</time></trkpt><trkpt lat="39.32017053758092" lon="16.507855452069418"><ele>1365.0</ele><time>2026-04-25T12:13:27.627Z</time></trkpt><trkpt lat="39.32028669916274" lon="16.507623272198135"><ele>1366.0</ele><time>2026-04-25T12:13:28.627Z</time></trkpt><trkpt lat="39.320395031139604" lon="16.507383048154118"><ele>1366.0</ele><time>2026-04-25T12:13:29.627Z</time></trkpt><trkpt lat="39.32049560366298" lon="16.5071416928758"><ele>1366.0</ele><time>2026-04-25T12:13:30.627Z</time></trkpt><trkpt lat="39.32063490645703" lon="16.506922718317984"><ele>1366.0</ele><time>2026-04-25T12:13:31.627Z</time></trkpt><trkpt lat="39.32076926927245" lon="16.506698957112903"><ele>1366.0</ele><time>2026-04-25T12:13:32.627Z</time></trkpt><trkpt lat="39.32091268609729" lon="16.50648177479255"><ele>1366.0</ele><time>2026-04-25T12:13:33.627Z</time></trkpt><trkpt lat="39.32106276096073" lon="16.50627214773621"><ele>1366.0</ele><time>2026-04-25T12:13:34.627Z</time></trkpt><trkpt lat="39.3212188950508" lon="16.506068984121207"><ele>1366.0</ele><time>2026-04-25T12:13:35.627Z</time></trkpt><trkpt lat="39.32137282122619" lon="16.505886012605295"><ele>1366.0</ele><time>2026-04-25T12:13:36.627Z</time></trkpt><trkpt lat="39.32153465493435" lon="16.50571069856274"><ele>1366.0</ele><time>2026-04-25T12:13:37.627Z</time></trkpt><trkpt lat="39.32169977135781" lon="16.50554078181818"><ele>1364.3333333333333</ele><time>2026-04-25T12:13:38.627Z</time></trkpt><trkpt lat="39.32186616259148" lon="16.505385080752706"><ele>1362.6666666666667</ele><time>2026-04-25T12:13:39.627Z</time></trkpt><trkpt lat="39.322034033559504" lon="16.505231151159332"><ele>1361.0</ele><time>2026-04-25T12:13:40.627Z</time></trkpt><trkpt lat="39.322206120994245" lon="16.505073784993186"><ele>1359.0</ele><time>2026-04-25T12:13:41.627Z</time></trkpt><trkpt lat="39.32236680543765" lon="16.50490512798689"><ele>1357.0</ele><time>2026-04-25T12:13:42.627Z</time></trkpt><trkpt lat="39.322530590566124" lon="16.50476255101011"><ele>1355.0</ele><time>2026-04-25T12:13:43.627Z</time></trkpt><trkpt lat="39.322698589049" lon="16.504615126457708"><ele>1355.0</ele><time>2026-04-25T12:13:44.627Z</time></trkpt><trkpt lat="39.32286506631549" lon="16.50446676594919"><ele>1355.0</ele><time>2026-04-25T12:13:45.627Z</time></trkpt><trkpt lat="39.32303310778902" lon="16.504314124972964"><ele>1355.0</ele><time>2026-04-25T12:13:46.627Z</time></trkpt><trkpt lat="39.32320682761216" lon="16.504157078713998"><ele>1354.6666666666667</ele><time>2026-04-25T12:13:47.627Z</time></trkpt><trkpt lat="39.323386133419945" lon="16.503995687622993"><ele>1354.3333333333333</ele><time>2026-04-25T12:13:48.627Z</time></trkpt><trkpt lat="39.32356497947884" lon="16.503840962234907"><ele>1354.0</ele><time>2026-04-25T12:13:49.627Z</time></trkpt><trkpt lat="39.32374385469156" lon="16.503682254284215"><ele>1354.6666666666665</ele><time>2026-04-25T12:13:50.627Z</time></trkpt><trkpt lat="39.323926221954096" lon="16.503516759792998"><ele>1355.3333333333333</ele><time>2026-04-25T12:13:51.627Z</time></trkpt><trkpt lat="39.324111421778206" lon="16.50334879861943"><ele>1356.0</ele><time>2026-04-25T12:13:52.627Z</time></trkpt><trkpt lat="39.32429560457955" lon="16.50318309338942"><ele>1356.0</ele><time>2026-04-25T12:13:53.627Z</time></trkpt><trkpt lat="39.324483958589504" lon="16.503018935410157"><ele>1356.0</ele><time>2026-04-25T12:13:54.627Z</time></trkpt><trkpt lat="39.32467348170978" lon="16.502851970512214"><ele>1355.0</ele><time>2026-04-25T12:13:55.627Z</time></trkpt><trkpt lat="39.32485864584293" lon="16.50268667402984"><ele>1354.0</ele><time>2026-04-25T12:13:56.627Z</time></trkpt><trkpt lat="39.325045444211725" lon="16.50251642504778"><ele>1354.0</ele><time>2026-04-25T12:13:57.627Z</time></trkpt><trkpt lat="39.32523135237641" lon="16.502344842594532"><ele>1354.0</ele><time>2026-04-25T12:13:58.627Z</time></trkpt><trkpt lat="39.325421718008805" lon="16.50217327219788"><ele>1351.0</ele><time>2026-04-25T12:13:59.627Z</time></trkpt><trkpt lat="39.325613040705356" lon="16.50199971861454"><ele>1348.0</ele><time>2026-04-25T12:14:00.627Z</time></trkpt><trkpt lat="39.3258042324244" lon="16.501829282974935"><ele>1348.0</ele><time>2026-04-25T12:14:01.627Z</time></trkpt><trkpt lat="39.325992348491994" lon="16.501658628619936"><ele>1348.0</ele><time>2026-04-25T12:14:02.627Z</time></trkpt><trkpt lat="39.32617406244939" lon="16.501497615632815"><ele>1348.0</ele><time>2026-04-25T12:14:03.627Z</time></trkpt><trkpt lat="39.32636201501805" lon="16.501331135818177"><ele>1348.0</ele><time>2026-04-25T12:14:04.627Z</time></trkpt><trkpt lat="39.32654966235048" lon="16.50116661186819"><ele>1347.5</ele><time>2026-04-25T12:14:05.627Z</time></trkpt><trkpt lat="39.326739435940816" lon="16.5010008339994"><ele>1347.0</ele><time>2026-04-25T12:14:06.627Z</time></trkpt><trkpt lat="39.326926755129975" lon="16.500831969249408"><ele>1347.0</ele><time>2026-04-25T12:14:07.626Z</time></trkpt><trkpt lat="39.327116147887665" lon="16.500667205850206"><ele>1347.0</ele><time>2026-04-25T12:14:08.626Z</time></trkpt><trkpt lat="39.327304474836026" lon="16.50049877962693"><ele>1344.5</ele><time>2026-04-25T12:14:09.626Z</time></trkpt><trkpt lat="39.327493456172874" lon="16.500329154609137"><ele>1342.0</ele><time>2026-04-25T12:14:10.626Z</time></trkpt><trkpt lat="39.327681394575045" lon="16.500158455725185"><ele>1342.0</ele><time>2026-04-25T12:14:11.626Z</time></trkpt><trkpt lat="39.32786771221519" lon="16.499983015996914"><ele>1342.0</ele><time>2026-04-25T12:14:12.626Z</time></trkpt><trkpt lat="39.328047772931434" lon="16.49980076456568"><ele>1341.3333333333333</ele><time>2026-04-25T12:14:13.626Z</time></trkpt><trkpt lat="39.32821237569209" lon="16.49961548377298"><ele>1340.6666666666667</ele><time>2026-04-25T12:14:14.626Z</time></trkpt><trkpt lat="39.328364801679" lon="16.499419702025012"><ele>1340.0</ele><time>2026-04-25T12:14:15.626Z</time></trkpt><trkpt lat="39.328507422011114" lon="16.499205253183106"><ele>1340.0</ele><time>2026-04-25T12:14:16.626Z</time></trkpt><trkpt lat="39.32864021933864" lon="16.498981467109434"><ele>1340.0</ele><time>2026-04-25T12:14:17.626Z</time></trkpt><trkpt lat="39.32876177049281" lon="16.498744893416962"><ele>1340.0</ele><time>2026-04-25T12:14:18.626Z</time></trkpt><trkpt lat="39.32887510741469" lon="16.498500646402967"><ele>1341.0</ele><time>2026-04-25T12:14:19.626Z</time></trkpt><trkpt lat="39.32897361461877" lon="16.498251778831765"><ele>1342.0</ele><time>2026-04-25T12:14:20.626Z</time></trkpt><trkpt lat="39.32905871607821" lon="16.49800612970813"><ele>1343.0</ele><time>2026-04-25T12:14:21.626Z</time></trkpt><trkpt lat="39.3291310319969" lon="16.497760292291915"><ele>1343.6666666666667</ele><time>2026-04-25T12:14:22.626Z</time></trkpt><trkpt lat="39.329190443184025" lon="16.497507350570704"><ele>1344.3333333333333</ele><time>2026-04-25T12:14:23.627Z</time></trkpt><trkpt lat="39.329242788349845" lon="16.49724874076377"><ele>1345.0</ele><time>2026-04-25T12:14:24.627Z</time></trkpt><trkpt lat="39.32928393806275" lon="16.496978551298277"><ele>1345.6666666666665</ele><time>2026-04-25T12:14:25.627Z</time></trkpt><trkpt lat="39.32931157648378" lon="16.496699884558215"><ele>1346.3333333333333</ele><time>2026-04-25T12:14:26.627Z</time></trkpt><trkpt lat="39.32932832609342" lon="16.496418793849706"><ele>1347.0</ele><time>2026-04-25T12:14:27.627Z</time></trkpt><trkpt lat="39.32932679802504" lon="16.496135873907537"><ele>1348.5</ele><time>2026-04-25T12:14:28.627Z</time></trkpt><trkpt lat="39.329314994447046" lon="16.49584439681941"><ele>1350.0</ele><time>2026-04-25T12:14:29.627Z</time></trkpt><trkpt lat="39.329297811436355" lon="16.49554924475666"><ele>1350.0</ele><time>2026-04-25T12:14:30.627Z</time></trkpt><trkpt lat="39.32928003706186" lon="16.495245487517025"><ele>1350.0</ele><time>2026-04-25T12:14:31.627Z</time></trkpt><trkpt lat="39.329269991032824" lon="16.49494125502481"><ele>1350.0</ele><time>2026-04-25T12:14:32.627Z</time></trkpt><trkpt lat="39.32925986367859" lon="16.494631357775788"><ele>1350.0</ele><time>2026-04-25T12:14:33.627Z</time></trkpt><trkpt lat="39.32924984815153" lon="16.494321056701306"><ele>1350.0</ele><time>2026-04-25T12:14:34.627Z</time></trkpt><trkpt lat="39.32924143696451" lon="16.4940245173389"><ele>1350.0</ele><time>2026-04-25T12:14:35.627Z</time></trkpt><trkpt lat="39.329228377058556" lon="16.493732904815555"><ele>1350.5</ele><time>2026-04-25T12:14:36.627Z</time></trkpt><trkpt lat="39.3292169590638" lon="16.493433403139587"><ele>1351.0</ele><time>2026-04-25T12:14:37.627Z</time></trkpt><trkpt lat="39.32920565742913" lon="16.493130947841593"><ele>1353.0</ele><time>2026-04-25T12:14:38.627Z</time></trkpt><trkpt lat="39.32918982281776" lon="16.492825916739832"><ele>1355.0</ele><time>2026-04-25T12:14:39.627Z</time></trkpt><trkpt lat="39.329177973934854" lon="16.492525652512274"><ele>1355.0</ele><time>2026-04-25T12:14:40.627Z</time></trkpt><trkpt lat="39.32916673123612" lon="16.49222567906143"><ele>1355.0</ele><time>2026-04-25T12:14:41.627Z</time></trkpt><trkpt lat="39.3291553971459" lon="16.491929976999845"><ele>1355.0</ele><time>2026-04-25T12:14:42.627Z</time></trkpt><trkpt lat="39.329144397640846" lon="16.4916345898484"><ele>1355.0</ele><time>2026-04-25T12:14:43.627Z</time></trkpt><trkpt lat="39.329133717595404" lon="16.491335330349784"><ele>1358.0</ele><time>2026-04-25T12:14:44.627Z</time></trkpt><trkpt lat="39.32912557584174" lon="16.491036158750706"><ele>1361.0</ele><time>2026-04-25T12:14:45.627Z</time></trkpt><trkpt lat="39.32911291009947" lon="16.490739162807625"><ele>1361.0</ele><time>2026-04-25T12:14:46.627Z</time></trkpt><trkpt lat="39.32910453503141" lon="16.490440028581396"><ele>1361.0</ele><time>2026-04-25T12:14:47.627Z</time></trkpt><trkpt lat="39.329085630918755" lon="16.49014439205012"><ele>1360.6666666666667</ele><time>2026-04-25T12:14:48.627Z</time></trkpt><trkpt lat="39.32907774219134" lon="16.48986948873599"><ele>1360.3333333333333</ele><time>2026-04-25T12:14:49.627Z</time></trkpt><trkpt lat="39.32906497411596" lon="16.4896067579945"><ele>1360.0</ele><time>2026-04-25T12:14:50.627Z</time></trkpt><trkpt lat="39.32904394198721" lon="16.489348273676615"><ele>1359.3333333333333</ele><time>2026-04-25T12:14:51.627Z</time></trkpt><trkpt lat="39.32901566900195" lon="16.489078268776623"><ele>1358.6666666666667</ele><time>2026-04-25T12:14:52.627Z</time></trkpt><trkpt lat="39.32897926973582" lon="16.488801513958112"><ele>1358.0</ele><time>2026-04-25T12:14:53.627Z</time></trkpt><trkpt lat="39.32893215443423" lon="16.48851691594354"><ele>1358.0</ele><time>2026-04-25T12:14:54.627Z</time></trkpt><trkpt lat="39.32888605887882" lon="16.48825451371971"><ele>1358.0</ele><time>2026-04-25T12:14:55.627Z</time></trkpt><trkpt lat="39.328843135134" lon="16.487993971771296"><ele>1358.0</ele><time>2026-04-25T12:14:56.627Z</time></trkpt><trkpt lat="39.32879300451218" lon="16.487732573090575"><ele>1358.0</ele><time>2026-04-25T12:14:57.627Z</time></trkpt><trkpt lat="39.328740926963214" lon="16.487472061129086"><ele>1358.0</ele><time>2026-04-25T12:14:58.627Z</time></trkpt><trkpt lat="39.32870735151597" lon="16.487198151720037"><ele>1358.0</ele><time>2026-04-25T12:14:59.627Z</time></trkpt><trkpt lat="39.328682014444226" lon="16.48693301171089"><ele>1358.6666666666667</ele><time>2026-04-25T12:15:00.627Z</time></trkpt><trkpt lat="39.32865453288386" lon="16.48666401482443"><ele>1359.3333333333333</ele><time>2026-04-25T12:15:01.627Z</time></trkpt><trkpt lat="39.328633928216796" lon="16.486392028392377"><ele>1360.0</ele><time>2026-04-25T12:15:02.627Z</time></trkpt><trkpt lat="39.32862540665073" lon="16.486119592308846"><ele>1360.0</ele><time>2026-04-25T12:15:03.627Z</time></trkpt><trkpt lat="39.328620526523245" lon="16.485849017869487"><ele>1360.0</ele><time>2026-04-25T12:15:04.627Z</time></trkpt><trkpt lat="39.32861595060329" lon="16.485577636309245"><ele>1360.0</ele><time>2026-04-25T12:15:05.627Z</time></trkpt><trkpt lat="39.32861453297047" lon="16.48530919495566"><ele>1360.3333333333333</ele><time>2026-04-25T12:15:06.627Z</time></trkpt><trkpt lat="39.32861380030753" lon="16.485046754538654"><ele>1360.6666666666667</ele><time>2026-04-25T12:15:07.627Z</time></trkpt><trkpt lat="39.328612492718264" lon="16.48478861186062"><ele>1361.0</ele><time>2026-04-25T12:15:08.627Z</time></trkpt><trkpt lat="39.328612956747484" lon="16.48453987421893"><ele>1361.3333333333335</ele><time>2026-04-25T12:15:09.627Z</time></trkpt><trkpt lat="39.328624344941524" lon="16.484283263257737"><ele>1361.6666666666667</ele><time>2026-04-25T12:15:10.627Z</time></trkpt><trkpt lat="39.328644656787674" lon="16.484017359203072"><ele>1362.0</ele><time>2026-04-25T12:15:11.627Z</time></trkpt><trkpt lat="39.32867883653893" lon="16.48375453935862"><ele>1362.0</ele><time>2026-04-25T12:15:12.627Z</time></trkpt><trkpt lat="39.32871819568759" lon="16.483488798815948"><ele>1362.0</ele><time>2026-04-25T12:15:13.627Z</time></trkpt><trkpt lat="39.328774446777835" lon="16.48321631880123"><ele>1362.0</ele><time>2026-04-25T12:15:14.627Z</time></trkpt><trkpt lat="39.328850986621504" lon="16.482952006209715"><ele>1357.3333333333333</ele><time>2026-04-25T12:15:15.627Z</time></trkpt><trkpt lat="39.328933884184835" lon="16.482687000511046"><ele>1352.6666666666665</ele><time>2026-04-25T12:15:16.627Z</time></trkpt><trkpt lat="39.32902860595318" lon="16.48242781089367"><ele>1348.0</ele><time>2026-04-25T12:15:17.627Z</time></trkpt><trkpt lat="39.329134874079564" lon="16.48218111005758"><ele>1347.6666666666665</ele><time>2026-04-25T12:15:18.627Z</time></trkpt><trkpt lat="39.329252298609084" lon="16.48195658157599"><ele>1347.3333333333333</ele><time>2026-04-25T12:15:19.627Z</time></trkpt><trkpt lat="39.32937725522866" lon="16.481744477814836"><ele>1347.0</ele><time>2026-04-25T12:15:20.627Z</time></trkpt><trkpt lat="39.329512980220066" lon="16.48154020046013"><ele>1347.0</ele><time>2026-04-25T12:15:21.627Z</time></trkpt><trkpt lat="39.32965069344953" lon="16.4813559852818"><ele>1347.0</ele><time>2026-04-25T12:15:22.627Z</time></trkpt><trkpt lat="39.32979007920852" lon="16.48118901979405"><ele>1347.0</ele><time>2026-04-25T12:15:23.627Z</time></trkpt><trkpt lat="39.329941693717416" lon="16.481024551762808"><ele>1346.6666666666667</ele><time>2026-04-25T12:15:24.627Z</time></trkpt><trkpt lat="39.330105836843614" lon="16.480863492911542"><ele>1346.3333333333335</ele><time>2026-04-25T12:15:25.627Z</time></trkpt><trkpt lat="39.33027683494522" lon="16.480715947779725"><ele>1346.0</ele><time>2026-04-25T12:15:26.627Z</time></trkpt><trkpt lat="39.330457946184346" lon="16.480569240382863"><ele>1344.3333333333335</ele><time>2026-04-25T12:15:27.627Z</time></trkpt><trkpt lat="39.33063785695264" lon="16.48041944446289"><ele>1342.6666666666667</ele><time>2026-04-25T12:15:28.627Z</time></trkpt><trkpt lat="39.33081558706697" lon="16.480264967966477"><ele>1341.0</ele><time>2026-04-25T12:15:29.627Z</time></trkpt><trkpt lat="39.33099075649202" lon="16.480110938355168"><ele>1341.0</ele><time>2026-04-25T12:15:30.627Z</time></trkpt><trkpt lat="39.331161758953726" lon="16.479957582736596"><ele>1341.0</ele><time>2026-04-25T12:15:31.627Z</time></trkpt><trkpt lat="39.33133227951644" lon="16.47980682072946"><ele>1341.0</ele><time>2026-04-25T12:15:32.627Z</time></trkpt><trkpt lat="39.33150464962329" lon="16.479658444889825"><ele>1341.3333333333333</ele><time>2026-04-25T12:15:33.627Z</time></trkpt><trkpt lat="39.33167656412091" lon="16.479509974829217"><ele>1341.6666666666665</ele><time>2026-04-25T12:15:34.627Z</time></trkpt><trkpt lat="39.331847943349885" lon="16.479359746001343"><ele>1342.0</ele><time>2026-04-25T12:15:35.627Z</time></trkpt><trkpt lat="39.332022007146556" lon="16.479202637188052"><ele>1342.0</ele><time>2026-04-25T12:15:36.627Z</time></trkpt><trkpt lat="39.33219927812714" lon="16.479044247688424"><ele>1342.0</ele><time>2026-04-25T12:15:37.626Z</time></trkpt><trkpt lat="39.3323806976951" lon="16.478882574937593"><ele>1342.0</ele><time>2026-04-25T12:15:38.626Z</time></trkpt><trkpt lat="39.332568218827156" lon="16.47871493422465"><ele>1343.0</ele><time>2026-04-25T12:15:39.626Z</time></trkpt><trkpt lat="39.332757152406586" lon="16.478549227257894"><ele>1344.0</ele><time>2026-04-25T12:15:40.626Z</time></trkpt><trkpt lat="39.332946750935" lon="16.478384626063665"><ele>1344.3333333333333</ele><time>2026-04-25T12:15:41.626Z</time></trkpt><trkpt lat="39.33312656196565" lon="16.478230954077517"><ele>1344.6666666666665</ele><time>2026-04-25T12:15:42.626Z</time></trkpt><trkpt lat="39.33329638615058" lon="16.478086148878262"><ele>1345.0</ele><time>2026-04-25T12:15:43.626Z</time></trkpt><trkpt lat="39.333454881198975" lon="16.477934296907883"><ele>1345.0</ele><time>2026-04-25T12:15:44.626Z</time></trkpt><trkpt lat="39.3335984236196" lon="16.47776582164811"><ele>1345.0</ele><time>2026-04-25T12:15:45.626Z</time></trkpt><trkpt lat="39.3337343578453" lon="16.477575608560837"><ele>1345.0</ele><time>2026-04-25T12:15:46.626Z</time></trkpt><trkpt lat="39.33386008775856" lon="16.47737234445585"><ele>1342.6666666666665</ele><time>2026-04-25T12:15:47.626Z</time></trkpt><trkpt lat="39.33397068093078" lon="16.477156876687445"><ele>1340.3333333333333</ele><time>2026-04-25T12:15:48.626Z</time></trkpt><trkpt lat="39.334075904952776" lon="16.476923359636217"><ele>1338.0</ele><time>2026-04-25T12:15:49.626Z</time></trkpt><trkpt lat="39.33416565647371" lon="16.476683950551127"><ele>1338.0</ele><time>2026-04-25T12:15:50.626Z</time></trkpt><trkpt lat="39.33424389524695" lon="16.47644099974452"><ele>1338.0</ele><time>2026-04-25T12:15:51.626Z</time></trkpt><trkpt lat="39.33430823332496" lon="16.47618584271768"><ele>1338.0</ele><time>2026-04-25T12:15:52.626Z</time></trkpt><trkpt lat="39.334356864986226" lon="16.4759208427336"><ele>1341.0</ele><time>2026-04-25T12:15:53.626Z</time></trkpt><trkpt lat="39.3343868558771" lon="16.47565209280494"><ele>1344.0</ele><time>2026-04-25T12:15:54.626Z</time></trkpt><trkpt lat="39.33439833347771" lon="16.475371663148028"><ele>1347.0</ele><time>2026-04-25T12:15:55.626Z</time></trkpt><trkpt lat="39.33439377357315" lon="16.475090512565338"><ele>1348.6666666666667</ele><time>2026-04-25T12:15:56.626Z</time></trkpt><trkpt lat="39.3343797293057" lon="16.47481352080343"><ele>1350.3333333333335</ele><time>2026-04-25T12:15:57.626Z</time></trkpt><trkpt lat="39.334361739482695" lon="16.4745335259091"><ele>1352.0</ele><time>2026-04-25T12:15:58.626Z</time></trkpt><trkpt lat="39.33432624693595" lon="16.474258817323726"><ele>1352.6666666666667</ele><time>2026-04-25T12:15:59.626Z</time></trkpt><trkpt lat="39.334298875244464" lon="16.473985245435593"><ele>1353.3333333333333</ele><time>2026-04-25T12:16:00.626Z</time></trkpt><trkpt lat="39.33428452238633" lon="16.473704036449405"><ele>1354.0</ele><time>2026-04-25T12:16:01.626Z</time></trkpt><trkpt lat="39.33426895613739" lon="16.473422666753173"><ele>1352.0</ele><time>2026-04-25T12:16:02.626Z</time></trkpt><trkpt lat="39.334251694033604" lon="16.4731369239376"><ele>1350.0</ele><time>2026-04-25T12:16:03.626Z</time></trkpt><trkpt lat="39.334237709959915" lon="16.472853739937108"><ele>1348.0</ele><time>2026-04-25T12:16:04.626Z</time></trkpt><trkpt lat="39.334221764194396" lon="16.47256616695463"><ele>1344.0</ele><time>2026-04-25T12:16:05.626Z</time></trkpt><trkpt lat="39.33420791839187" lon="16.472279339922846"><ele>1340.0</ele><time>2026-04-25T12:16:06.626Z</time></trkpt><trkpt lat="39.33419155162309" lon="16.47199477393982"><ele>1336.0</ele><time>2026-04-25T12:16:07.626Z</time></trkpt><trkpt lat="39.33417674798729" lon="16.471710851311638"><ele>1332.3333333333333</ele><time>2026-04-25T12:16:08.626Z</time></trkpt><trkpt lat="39.33415908054342" lon="16.471429927492107"><ele>1328.6666666666667</ele><time>2026-04-25T12:16:09.626Z</time></trkpt><trkpt lat="39.334141409466575" lon="16.471146269985898"><ele>1325.0</ele><time>2026-04-25T12:16:10.626Z</time></trkpt><trkpt lat="39.334123215487054" lon="16.47086316180867"><ele>1323.6666666666667</ele><time>2026-04-25T12:16:11.626Z</time></trkpt><trkpt lat="39.334102743398674" lon="16.470592672307628"><ele>1322.3333333333333</ele><time>2026-04-25T12:16:12.626Z</time></trkpt><trkpt lat="39.33408553429599" lon="16.470326398595542"><ele>1321.0</ele><time>2026-04-25T12:16:13.626Z</time></trkpt><trkpt lat="39.33406801738995" lon="16.47007096051193"><ele>1324.3333333333333</ele><time>2026-04-25T12:16:14.626Z</time></trkpt><trkpt lat="39.33405139771934" lon="16.469806682050265"><ele>1327.6666666666667</ele><time>2026-04-25T12:16:15.626Z</time></trkpt><trkpt lat="39.334034295516034" lon="16.469538860380915"><ele>1331.0</ele><time>2026-04-25T12:16:16.626Z</time></trkpt><trkpt lat="39.33402123951083" lon="16.469270894690887"><ele>1330.6666666666667</ele><time>2026-04-25T12:16:17.626Z</time></trkpt><trkpt lat="39.33400199540457" lon="16.46900135465463"><ele>1330.3333333333333</ele><time>2026-04-25T12:16:18.626Z</time></trkpt><trkpt lat="39.33398820259191" lon="16.468734772204666"><ele>1330.0</ele><time>2026-04-25T12:16:19.626Z</time></trkpt><trkpt lat="39.33397317662535" lon="16.468463391753005"><ele>1330.0</ele><time>2026-04-25T12:16:20.626Z</time></trkpt><trkpt lat="39.33395575003381" lon="16.468189940934344"><ele>1330.0</ele><time>2026-04-25T12:16:21.626Z</time></trkpt><trkpt lat="39.33393798928215" lon="16.4679134324114"><ele>1330.0</ele><time>2026-04-25T12:16:22.626Z</time></trkpt><trkpt lat="39.33391986052665" lon="16.46763940355519"><ele>1327.6666666666665</ele><time>2026-04-25T12:16:23.626Z</time></trkpt><trkpt lat="39.33390323185246" lon="16.46737446453586"><ele>1325.3333333333333</ele><time>2026-04-25T12:16:24.626Z</time></trkpt><trkpt lat="39.33388918163796" lon="16.467118549882645"><ele>1323.0</ele><time>2026-04-25T12:16:25.626Z</time></trkpt><trkpt lat="39.33387518960807" lon="16.466862765674588"><ele>1327.0</ele><time>2026-04-25T12:16:26.626Z</time></trkpt><trkpt lat="39.33386238632294" lon="16.466606753126527"><ele>1331.0</ele><time>2026-04-25T12:16:27.626Z</time></trkpt><trkpt lat="39.33384521895357" lon="16.46634944267091"><ele>1335.0</ele><time>2026-04-25T12:16:28.626Z</time></trkpt><trkpt lat="39.33383127321037" lon="16.466100108584484"><ele>1335.0</ele><time>2026-04-25T12:16:29.627Z</time></trkpt><trkpt lat="39.33381731315512" lon="16.465860070596506"><ele>1335.0</ele><time>2026-04-25T12:16:30.627Z</time></trkpt><trkpt lat="39.333805079590086" lon="16.46562665399954"><ele>1335.0</ele><time>2026-04-25T12:16:31.627Z</time></trkpt><trkpt lat="39.333791611109376" lon="16.465389946420526"><ele>1334.0</ele><time>2026-04-25T12:16:32.627Z</time></trkpt><trkpt lat="39.33377825552861" lon="16.46514801383058"><ele>1333.0</ele><time>2026-04-25T12:16:33.627Z</time></trkpt><trkpt lat="39.33375866086958" lon="16.464899083959267"><ele>1332.0</ele><time>2026-04-25T12:16:34.627Z</time></trkpt><trkpt lat="39.333744230403575" lon="16.464646804904604"><ele>1331.3333333333333</ele><time>2026-04-25T12:16:35.627Z</time></trkpt><trkpt lat="39.33373281432851" lon="16.464387785548283"><ele>1330.6666666666665</ele><time>2026-04-25T12:16:36.627Z</time></trkpt><trkpt lat="39.33373499684029" lon="16.464124581491728"><ele>1330.0</ele><time>2026-04-25T12:16:37.627Z</time></trkpt><trkpt lat="39.33375151537351" lon="16.463874339832305"><ele>1330.3333333333333</ele><time>2026-04-25T12:16:38.627Z</time></trkpt><trkpt lat="39.33377994410398" lon="16.4636265652539"><ele>1330.6666666666667</ele><time>2026-04-25T12:16:39.627Z</time></trkpt><trkpt lat="39.3338222766958" lon="16.46337921897639"><ele>1331.0</ele><time>2026-04-25T12:16:40.627Z</time></trkpt><trkpt lat="39.333870953154886" lon="16.463131278195373"><ele>1325.0</ele><time>2026-04-25T12:16:41.627Z</time></trkpt><trkpt lat="39.33393026423101" lon="16.462889900256926"><ele>1319.0</ele><time>2026-04-25T12:16:42.627Z</time></trkpt><trkpt lat="39.334003116355404" lon="16.46265136942816"><ele>1313.0</ele><time>2026-04-25T12:16:43.627Z</time></trkpt><trkpt lat="39.33408121416463" lon="16.462423177398986"><ele>1313.0</ele><time>2026-04-25T12:16:44.627Z</time></trkpt><trkpt lat="39.334170421321225" lon="16.462199757898443"><ele>1313.0</ele><time>2026-04-25T12:16:45.627Z</time></trkpt><trkpt lat="39.334272187142446" lon="16.461977039614226"><ele>1313.0</ele><time>2026-04-25T12:16:46.627Z</time></trkpt><trkpt lat="39.3343953582976" lon="16.461776443351287"><ele>1313.3333333333335</ele><time>2026-04-25T12:16:47.627Z</time></trkpt><trkpt lat="39.334510863550186" lon="16.461571094943544"><ele>1313.6666666666667</ele><time>2026-04-25T12:16:48.627Z</time></trkpt><trkpt lat="39.33463901144829" lon="16.461381791371764"><ele>1314.0</ele><time>2026-04-25T12:16:49.627Z</time></trkpt><trkpt lat="39.33477429227029" lon="16.461192984328"><ele>1312.3333333333333</ele><time>2026-04-25T12:16:50.627Z</time></trkpt><trkpt lat="39.3349149778582" lon="16.46101325615209"><ele>1310.6666666666665</ele><time>2026-04-25T12:16:51.627Z</time></trkpt><trkpt lat="39.33506640940807" lon="16.460846382384286"><ele>1309.0</ele><time>2026-04-25T12:16:52.627Z</time></trkpt><trkpt lat="39.33522812443296" lon="16.460686412693875"><ele>1309.0</ele><time>2026-04-25T12:16:53.627Z</time></trkpt><trkpt lat="39.3353940789403" lon="16.460543658630876"><ele>1309.0</ele><time>2026-04-25T12:16:54.627Z</time></trkpt><trkpt lat="39.33557315332367" lon="16.460410620723934"><ele>1309.0</ele><time>2026-04-25T12:16:55.627Z</time></trkpt><trkpt lat="39.33576075500617" lon="16.460282930618234"><ele>1306.3333333333333</ele><time>2026-04-25T12:16:56.627Z</time></trkpt><trkpt lat="39.33595347642928" lon="16.460161722563466"><ele>1303.6666666666667</ele><time>2026-04-25T12:16:57.627Z</time></trkpt><trkpt lat="39.33615568110344" lon="16.460049627794845"><ele>1301.0</ele><time>2026-04-25T12:16:58.627Z</time></trkpt><trkpt lat="39.336359981373164" lon="16.459934708107127"><ele>1302.0</ele><time>2026-04-25T12:16:59.627Z</time></trkpt><trkpt lat="39.336567267247226" lon="16.45981592694106"><ele>1303.0</ele><time>2026-04-25T12:17:00.627Z</time></trkpt><trkpt lat="39.33677375069981" lon="16.459699379690207"><ele>1300.0</ele><time>2026-04-25T12:17:01.627Z</time></trkpt><trkpt lat="39.336972870943505" lon="16.4595874505938"><ele>1297.0</ele><time>2026-04-25T12:17:02.627Z</time></trkpt><trkpt lat="39.337166843536224" lon="16.45947410432779"><ele>1294.0</ele><time>2026-04-25T12:17:03.627Z</time></trkpt><trkpt lat="39.3373547662175" lon="16.45935371901551"><ele>1291.6666666666665</ele><time>2026-04-25T12:17:04.627Z</time></trkpt><trkpt lat="39.3375282219671" lon="16.45919927016612"><ele>1289.3333333333333</ele><time>2026-04-25T12:17:05.627Z</time></trkpt><trkpt lat="39.33769488104521" lon="16.45904521161107"><ele>1287.0</ele><time>2026-04-25T12:17:06.626Z</time></trkpt><trkpt lat="39.337850706035134" lon="16.458867152545213"><ele>1288.0</ele><time>2026-04-25T12:17:07.626Z</time></trkpt><trkpt lat="39.337994458812204" lon="16.45866428095723"><ele>1289.0</ele><time>2026-04-25T12:17:08.626Z</time></trkpt><trkpt lat="39.338122329106035" lon="16.45845481331885"><ele>1290.0</ele><time>2026-04-25T12:17:09.626Z</time></trkpt><trkpt lat="39.33822671178493" lon="16.458229910675627"><ele>1290.0</ele><time>2026-04-25T12:17:10.626Z</time></trkpt><trkpt lat="39.33831904630121" lon="16.45799842909442"><ele>1290.0</ele><time>2026-04-25T12:17:11.626Z</time></trkpt><trkpt lat="39.33839741901483" lon="16.457758612492682"><ele>1290.0</ele><time>2026-04-25T12:17:12.626Z</time></trkpt><trkpt lat="39.338456324027355" lon="16.45750814128121"><ele>1290.0</ele><time>2026-04-25T12:17:13.626Z</time></trkpt><trkpt lat="39.338497670706495" lon="16.457249627717395"><ele>1290.0</ele><time>2026-04-25T12:17:14.626Z</time></trkpt><trkpt lat="39.338524768369574" lon="16.45698550766956"><ele>1290.0</ele><time>2026-04-25T12:17:15.626Z</time></trkpt><trkpt lat="39.33854871891674" lon="16.456720921303752"><ele>1290.6666666666667</ele><time>2026-04-25T12:17:16.626Z</time></trkpt><trkpt lat="39.33857891415076" lon="16.456453115446724"><ele>1291.3333333333335</ele><time>2026-04-25T12:17:17.626Z</time></trkpt><trkpt lat="39.33861193416132" lon="16.45618297708116"><ele>1292.0</ele><time>2026-04-25T12:17:18.626Z</time></trkpt><trkpt lat="39.33864335853683" lon="16.455908589069416"><ele>1292.0</ele><time>2026-04-25T12:17:19.626Z</time></trkpt><trkpt lat="39.338677184543286" lon="16.455628093422284"><ele>1292.0</ele><time>2026-04-25T12:17:20.626Z</time></trkpt><trkpt lat="39.33871361456487" lon="16.455349246608698"><ele>1292.0</ele><time>2026-04-25T12:17:21.626Z</time></trkpt><trkpt lat="39.33874996090203" lon="16.455065699556833"><ele>1292.3333333333335</ele><time>2026-04-25T12:17:22.626Z</time></trkpt><trkpt lat="39.338783966741865" lon="16.45478225366221"><ele>1292.6666666666667</ele><time>2026-04-25T12:17:23.626Z</time></trkpt><trkpt lat="39.33881792575599" lon="16.4544935712483"><ele>1293.0</ele><time>2026-04-25T12:17:24.626Z</time></trkpt><trkpt lat="39.33885379411008" lon="16.454199883630526"><ele>1288.5</ele><time>2026-04-25T12:17:25.626Z</time></trkpt><trkpt lat="39.33888775483609" lon="16.453900340006612"><ele>1284.0</ele><time>2026-04-25T12:17:26.626Z</time></trkpt><trkpt lat="39.338919311654585" lon="16.453598576753787"><ele>1280.0</ele><time>2026-04-25T12:17:27.626Z</time></trkpt><trkpt lat="39.338953538593096" lon="16.45329267294383"><ele>1276.0</ele><time>2026-04-25T12:17:28.626Z</time></trkpt><trkpt lat="39.33899075510449" lon="16.452987910460077"><ele>1277.6666666666665</ele><time>2026-04-25T12:17:29.626Z</time></trkpt><trkpt lat="39.33902870025009" lon="16.45269792777234"><ele>1279.3333333333333</ele><time>2026-04-25T12:17:30.626Z</time></trkpt><trkpt lat="39.33906525753223" lon="16.452419515866655"><ele>1281.0</ele><time>2026-04-25T12:17:31.626Z</time></trkpt><trkpt lat="39.33909782948849" lon="16.45215412997844"><ele>1285.0</ele><time>2026-04-25T12:17:32.626Z</time></trkpt><trkpt lat="39.339121096883154" lon="16.451900542675453"><ele>1289.0</ele><time>2026-04-25T12:17:33.626Z</time></trkpt><trkpt lat="39.33916199581654" lon="16.451641996712258"><ele>1293.0</ele><time>2026-04-25T12:17:34.626Z</time></trkpt><trkpt lat="39.33919084997986" lon="16.451369295446014"><ele>1293.0</ele><time>2026-04-25T12:17:35.626Z</time></trkpt><trkpt lat="39.33921652129945" lon="16.451115299753532"><ele>1293.0</ele><time>2026-04-25T12:17:36.626Z</time></trkpt><trkpt lat="39.339217528059336" lon="16.450873525913355"><ele>1293.0</ele><time>2026-04-25T12:17:37.626Z</time></trkpt><trkpt lat="39.33921645969667" lon="16.450632848986075"><ele>1290.6666666666667</ele><time>2026-04-25T12:17:38.626Z</time></trkpt><trkpt lat="39.339207894622064" lon="16.45038046481882"><ele>1288.3333333333335</ele><time>2026-04-25T12:17:39.626Z</time></trkpt><trkpt lat="39.33919060788739" lon="16.450124329292574"><ele>1286.0</ele><time>2026-04-25T12:17:40.626Z</time></trkpt><trkpt lat="39.33916145702384" lon="16.449873881526695"><ele>1283.3333333333335</ele><time>2026-04-25T12:17:41.626Z</time></trkpt><trkpt lat="39.339121391048636" lon="16.449623987130163"><ele>1280.6666666666667</ele><time>2026-04-25T12:17:42.626Z</time></trkpt><trkpt lat="39.33907187527398" lon="16.449375168189157"><ele>1278.0</ele><time>2026-04-25T12:17:43.626Z</time></trkpt><trkpt lat="39.339017515323434" lon="16.44913535618424"><ele>1278.0</ele><time>2026-04-25T12:17:44.626Z</time></trkpt><trkpt lat="39.338954274803164" lon="16.44890920747163"><ele>1278.0</ele><time>2026-04-25T12:17:45.626Z</time></trkpt><trkpt lat="39.3388818714881" lon="16.448693090932064"><ele>1278.0</ele><time>2026-04-25T12:17:46.626Z</time></trkpt><trkpt lat="39.33881187022218" lon="16.448486563109416"><ele>1281.6666666666667</ele><time>2026-04-25T12:17:47.626Z</time></trkpt><trkpt lat="39.338733810310465" lon="16.44827102860331"><ele>1285.3333333333335</ele><time>2026-04-25T12:17:48.626Z</time></trkpt><trkpt lat="39.338650487592105" lon="16.448047441396067"><ele>1289.0</ele><time>2026-04-25T12:17:49.626Z</time></trkpt><trkpt lat="39.33856228014774" lon="16.447815720884748"><ele>1289.0</ele><time>2026-04-25T12:17:50.626Z</time></trkpt><trkpt lat="39.33848515894055" lon="16.44757695664379"><ele>1289.0</ele><time>2026-04-25T12:17:51.626Z</time></trkpt><trkpt lat="39.33842063382813" lon="16.447330866623872"><ele>1289.0</ele><time>2026-04-25T12:17:52.626Z</time></trkpt><trkpt lat="39.33836316338831" lon="16.447087065511134"><ele>1284.3333333333335</ele><time>2026-04-25T12:17:53.626Z</time></trkpt><trkpt lat="39.3383034394371" lon="16.446845476913463"><ele>1279.6666666666667</ele><time>2026-04-25T12:17:54.626Z</time></trkpt><trkpt lat="39.338238277483676" lon="16.44660741727045"><ele>1275.0</ele><time>2026-04-25T12:17:55.626Z</time></trkpt><trkpt lat="39.338173077294215" lon="16.446366952814774"><ele>1275.0</ele><time>2026-04-25T12:17:56.626Z</time></trkpt><trkpt lat="39.33810828871224" lon="16.446120602625207"><ele>1275.0</ele><time>2026-04-25T12:17:57.626Z</time></trkpt><trkpt lat="39.33804414182072" lon="16.445875919333197"><ele>1275.0</ele><time>2026-04-25T12:17:58.626Z</time></trkpt><trkpt lat="39.33797558018711" lon="16.445630306134554"><ele>1281.3333333333333</ele><time>2026-04-25T12:17:59.626Z</time></trkpt><trkpt lat="39.33791051159834" lon="16.445379630480566"><ele>1287.6666666666665</ele><time>2026-04-25T12:18:00.626Z</time></trkpt><trkpt lat="39.33784778514517" lon="16.445130375353116"><ele>1294.0</ele><time>2026-04-25T12:18:01.626Z</time></trkpt><trkpt lat="39.33777858511137" lon="16.444877176668257"><ele>1292.6666666666665</ele><time>2026-04-25T12:18:02.626Z</time></trkpt><trkpt lat="39.33771447501011" lon="16.444623448772475"><ele>1291.3333333333333</ele><time>2026-04-25T12:18:03.626Z</time></trkpt><trkpt lat="39.337652895395465" lon="16.44437636720323"><ele>1290.0</ele><time>2026-04-25T12:18:04.626Z</time></trkpt><trkpt lat="39.337593243728264" lon="16.44413990442151"><ele>1290.0</ele><time>2026-04-25T12:18:05.626Z</time></trkpt><trkpt lat="39.337532863625945" lon="16.443900701537228"><ele>1290.0</ele><time>2026-04-25T12:18:06.626Z</time></trkpt><trkpt lat="39.33747462551368" lon="16.44366157886758"><ele>1290.0</ele><time>2026-04-25T12:18:07.626Z</time></trkpt><trkpt lat="39.33741420102065" lon="16.44342153951108"><ele>1289.0</ele><time>2026-04-25T12:18:08.626Z</time></trkpt><trkpt lat="39.33735281173911" lon="16.44317780018844"><ele>1288.0</ele><time>2026-04-25T12:18:09.626Z</time></trkpt><trkpt lat="39.337287390770804" lon="16.442936144918544"><ele>1287.0</ele><time>2026-04-25T12:18:10.626Z</time></trkpt><trkpt lat="39.33722246801586" lon="16.442694872505747"><ele>1295.3333333333333</ele><time>2026-04-25T12:18:11.626Z</time></trkpt><trkpt lat="39.33715990562087" lon="16.442453869666014"><ele>1303.6666666666665</ele><time>2026-04-25T12:18:12.626Z</time></trkpt><trkpt lat="39.33709796907199" lon="16.44221463230304"><ele>1312.0</ele><time>2026-04-25T12:18:13.626Z</time></trkpt><trkpt lat="39.3370358088275" lon="16.441976075679683"><ele>1312.0</ele><time>2026-04-25T12:18:14.626Z</time></trkpt><trkpt lat="39.336971201710334" lon="16.441738670721538"><ele>1312.0</ele><time>2026-04-25T12:18:15.626Z</time></trkpt><trkpt lat="39.33690736450603" lon="16.44150366390006"><ele>1312.0</ele><time>2026-04-25T12:18:16.626Z</time></trkpt><trkpt lat="39.33683575661152" lon="16.441269330319237"><ele>1308.0</ele><time>2026-04-25T12:18:17.626Z</time></trkpt><trkpt lat="39.33675319101656" lon="16.441031253962656"><ele>1304.0</ele><time>2026-04-25T12:18:18.626Z</time></trkpt><trkpt lat="39.336660378465616" lon="16.440794644829204"><ele>1300.0</ele><time>2026-04-25T12:18:19.626Z</time></trkpt><trkpt lat="39.33655966144494" lon="16.440556268230736"><ele>1300.6666666666665</ele><time>2026-04-25T12:18:20.626Z</time></trkpt><trkpt lat="39.336454939312304" lon="16.440320810746375"><ele>1301.3333333333333</ele><time>2026-04-25T12:18:21.626Z</time></trkpt><trkpt lat="39.33634862990532" lon="16.440079328816346"><ele>1302.0</ele><time>2026-04-25T12:18:22.626Z</time></trkpt><trkpt lat="39.33624263646554" lon="16.439836700035208"><ele>1305.3333333333333</ele><time>2026-04-25T12:18:23.626Z</time></trkpt><trkpt lat="39.336140916283185" lon="16.439587358145197"><ele>1308.6666666666665</ele><time>2026-04-25T12:18:24.626Z</time></trkpt><trkpt lat="39.33604141182224" lon="16.439337549825577"><ele>1312.0</ele><time>2026-04-25T12:18:25.626Z</time></trkpt><trkpt lat="39.33595017694927" lon="16.439099085007904"><ele>1312.0</ele><time>2026-04-25T12:18:26.626Z</time></trkpt><trkpt lat="39.33585924060761" lon="16.438860056800426"><ele>1312.0</ele><time>2026-04-25T12:18:27.626Z</time></trkpt><trkpt lat="39.33577465529596" lon="16.43861627265171"><ele>1312.0</ele><time>2026-04-25T12:18:28.626Z</time></trkpt><trkpt lat="39.3357002075334" lon="16.438360726874873"><ele>1312.6666666666665</ele><time>2026-04-25T12:18:29.626Z</time></trkpt><trkpt lat="39.33563086102331" lon="16.438096344500504"><ele>1313.3333333333333</ele><time>2026-04-25T12:18:30.626Z</time></trkpt><trkpt lat="39.33556718966698" lon="16.43782833500298"><ele>1314.0</ele><time>2026-04-25T12:18:31.626Z</time></trkpt><trkpt lat="39.335506768347344" lon="16.437567202370047"><ele>1322.3333333333333</ele><time>2026-04-25T12:18:32.626Z</time></trkpt><trkpt lat="39.33545831810416" lon="16.437301411147864"><ele>1330.6666666666665</ele><time>2026-04-25T12:18:33.626Z</time></trkpt><trkpt lat="39.335414812415166" lon="16.437036501552193"><ele>1339.0</ele><time>2026-04-25T12:18:34.626Z</time></trkpt><trkpt lat="39.33537351184065" lon="16.436761361327786"><ele>1339.6666666666665</ele><time>2026-04-25T12:18:35.626Z</time></trkpt><trkpt lat="39.33534143835753" lon="16.43648278795504"><ele>1340.3333333333333</ele><time>2026-04-25T12:18:36.626Z</time></trkpt><trkpt lat="39.33531495886237" lon="16.43620041431757"><ele>1341.0</ele><time>2026-04-25T12:18:37.626Z</time></trkpt><trkpt lat="39.33529029688671" lon="16.43590549986094"><ele>1341.0</ele><time>2026-04-25T12:18:38.626Z</time></trkpt><trkpt lat="39.33525997441224" lon="16.435604282746162"><ele>1341.0</ele><time>2026-04-25T12:18:39.626Z</time></trkpt><trkpt lat="39.335228206444775" lon="16.435300207443508"><ele>1343.5</ele><time>2026-04-25T12:18:40.626Z</time></trkpt><trkpt lat="39.33519837691829" lon="16.435003828876212"><ele>1346.0</ele><time>2026-04-25T12:18:41.626Z</time></trkpt><trkpt lat="39.33517178892062" lon="16.434720081284976"><ele>1345.3333333333335</ele><time>2026-04-25T12:18:42.626Z</time></trkpt><trkpt lat="39.335145345015846" lon="16.434441144906156"><ele>1344.6666666666667</ele><time>2026-04-25T12:18:43.626Z</time></trkpt><trkpt lat="39.335117176348156" lon="16.43415867288974"><ele>1344.0</ele><time>2026-04-25T12:18:44.626Z</time></trkpt><trkpt lat="39.33509171094498" lon="16.4338757224787"><ele>1345.0</ele><time>2026-04-25T12:18:45.626Z</time></trkpt><trkpt lat="39.335063949730845" lon="16.433590076475173"><ele>1346.0</ele><time>2026-04-25T12:18:46.626Z</time></trkpt><trkpt lat="39.33503932364741" lon="16.433309748701443"><ele>1347.0</ele><time>2026-04-25T12:18:47.626Z</time></trkpt><trkpt lat="39.3350155839765" lon="16.43303395405187"><ele>1348.0</ele><time>2026-04-25T12:18:48.626Z</time></trkpt><trkpt lat="39.33500449546199" lon="16.432757569969517"><ele>1349.0</ele><time>2026-04-25T12:18:49.626Z</time></trkpt><trkpt lat="39.33499417432082" lon="16.432482205101174"><ele>1350.0</ele><time>2026-04-25T12:18:50.626Z</time></trkpt><trkpt lat="39.3349923309454" lon="16.432208275565454"><ele>1351.3333333333333</ele><time>2026-04-25T12:18:51.626Z</time></trkpt><trkpt lat="39.33499461260491" lon="16.431937320410476"><ele>1352.6666666666665</ele><time>2026-04-25T12:18:52.626Z</time></trkpt><trkpt lat="39.33499519521514" lon="16.431666284012472"><ele>1354.0</ele><time>2026-04-25T12:18:53.626Z</time></trkpt><trkpt lat="39.334994039483966" lon="16.43139938508173"><ele>1358.3333333333333</ele><time>2026-04-25T12:18:54.626Z</time></trkpt><trkpt lat="39.33500703907175" lon="16.43115043506138"><ele>1362.6666666666667</ele><time>2026-04-25T12:18:55.626Z</time></trkpt><trkpt lat="39.335024922799406" lon="16.43090518074424"><ele>1367.0</ele><time>2026-04-25T12:18:56.626Z</time></trkpt><trkpt lat="39.33504304121874" lon="16.430668860931874"><ele>1371.3333333333335</ele><time>2026-04-25T12:18:57.626Z</time></trkpt><trkpt lat="39.335057038559675" lon="16.430428706609035"><ele>1375.6666666666667</ele><time>2026-04-25T12:18:58.626Z</time></trkpt><trkpt lat="39.33506995518481" lon="16.430183891798233"><ele>1380.0</ele><time>2026-04-25T12:18:59.626Z</time></trkpt><trkpt lat="39.335084020095074" lon="16.429941510602355"><ele>1380.0</ele><time>2026-04-25T12:19:00.626Z</time></trkpt><trkpt lat="39.335102075174106" lon="16.42970240108266"><ele>1380.0</ele><time>2026-04-25T12:19:01.626Z</time></trkpt><trkpt lat="39.3350757561597" lon="16.429337236206816"><ele>1383.6666666666667</ele><time>2026-04-25T12:19:02.626Z</time></trkpt><trkpt lat="39.33508758168276" lon="16.429074741221548"><ele>1387.3333333333335</ele><time>2026-04-25T12:19:03.626Z</time></trkpt><trkpt lat="39.33509986575841" lon="16.42881456866751"><ele>1391.0</ele><time>2026-04-25T12:19:04.626Z</time></trkpt><trkpt lat="39.33511005977966" lon="16.428561784480188"><ele>1393.0</ele><time>2026-04-25T12:19:05.626Z</time></trkpt><trkpt lat="39.33511066292396" lon="16.428314452924067"><ele>1395.0</ele><time>2026-04-25T12:19:06.626Z</time></trkpt><trkpt lat="39.33497759184552" lon="16.427752178630687"><ele>1395.0</ele><time>2026-04-25T12:19:07.626Z</time></trkpt><trkpt lat="39.33497520534506" lon="16.42743229440207"><ele>1395.0</ele><time>2026-04-25T12:19:08.626Z</time></trkpt><trkpt lat="39.334972481676104" lon="16.427073340925396"><ele>1395.5</ele><time>2026-04-25T12:19:09.626Z</time></trkpt><trkpt lat="39.334969055376064" lon="16.426718250245766"><ele>1396.0</ele><time>2026-04-25T12:19:10.626Z</time></trkpt><trkpt lat="39.33496265635994" lon="16.42637070238467"><ele>1387.5</ele><time>2026-04-25T12:19:11.626Z</time></trkpt><trkpt lat="39.33495867083612" lon="16.42600160474028"><ele>1379.0</ele><time>2026-04-25T12:19:12.626Z</time></trkpt><trkpt lat="39.33495502198894" lon="16.425656533875724"><ele>1369.5</ele><time>2026-04-25T12:19:13.626Z</time></trkpt><trkpt lat="39.334953771612334" lon="16.425320895544797"><ele>1360.0</ele><time>2026-04-25T12:19:14.626Z</time></trkpt><trkpt lat="39.33498757730398" lon="16.424903032249997"><ele>1357.6666666666665</ele><time>2026-04-25T12:19:15.626Z</time></trkpt><trkpt lat="39.335001735018395" lon="16.42461116341986"><ele>1355.3333333333333</ele><time>2026-04-25T12:19:16.626Z</time></trkpt><trkpt lat="39.334999623708875" lon="16.424351786896914"><ele>1353.0</ele><time>2026-04-25T12:19:17.626Z</time></trkpt><trkpt lat="39.33500107306558" lon="16.42407569505535"><ele>1352.3333333333333</ele><time>2026-04-25T12:19:18.626Z</time></trkpt><trkpt lat="39.33500292752144" lon="16.423808778530365"><ele>1351.6666666666665</ele><time>2026-04-25T12:19:19.626Z</time></trkpt><trkpt lat="39.335003128694616" lon="16.423540371193077"><ele>1351.0</ele><time>2026-04-25T12:19:20.626Z</time></trkpt><trkpt lat="39.33500758516435" lon="16.423266242143665"><ele>1351.0</ele><time>2026-04-25T12:19:21.626Z</time></trkpt><trkpt lat="39.33501832800697" lon="16.422990408133778"><ele>1351.0</ele><time>2026-04-25T12:19:22.626Z</time></trkpt><trkpt lat="39.33504083466589" lon="16.4227113316392"><ele>1351.0</ele><time>2026-04-25T12:19:23.626Z</time></trkpt><trkpt lat="39.335068229318956" lon="16.422426328204683"><ele>1348.0</ele><time>2026-04-25T12:19:24.626Z</time></trkpt><trkpt lat="39.33510123361433" lon="16.42214711898338"><ele>1345.0</ele><time>2026-04-25T12:19:25.626Z</time></trkpt><trkpt lat="39.335139969183764" lon="16.421864371532088"><ele>1342.0</ele><time>2026-04-25T12:19:26.626Z</time></trkpt><trkpt lat="39.33518420340316" lon="16.421583906099816"><ele>1344.6666666666665</ele><time>2026-04-25T12:19:27.626Z</time></trkpt><trkpt lat="39.33523293231584" lon="16.421306680017896"><ele>1347.3333333333333</ele><time>2026-04-25T12:19:28.626Z</time></trkpt><trkpt lat="39.33529098305607" lon="16.421027169875664"><ele>1350.0</ele><time>2026-04-25T12:19:29.626Z</time></trkpt><trkpt lat="39.33535455609204" lon="16.420754541410783"><ele>1350.0</ele><time>2026-04-25T12:19:30.626Z</time></trkpt><trkpt lat="39.33542743374443" lon="16.420487124007703"><ele>1350.0</ele><time>2026-04-25T12:19:31.626Z</time></trkpt><trkpt lat="39.33550851641973" lon="16.420219651842338"><ele>1350.0</ele><time>2026-04-25T12:19:32.626Z</time></trkpt><trkpt lat="39.33559164706015" lon="16.419957040957176"><ele>1351.0</ele><time>2026-04-25T12:19:33.626Z</time></trkpt><trkpt lat="39.33567491563936" lon="16.419692250251195"><ele>1352.0</ele><time>2026-04-25T12:19:34.626Z</time></trkpt><trkpt lat="39.335756486896635" lon="16.41942831127253"><ele>1353.0</ele><time>2026-04-25T12:19:35.626Z</time></trkpt><trkpt lat="39.33583662790428" lon="16.41916174514793"><ele>1359.6666666666667</ele><time>2026-04-25T12:19:36.626Z</time></trkpt><trkpt lat="39.3359155785358" lon="16.41889627881375"><ele>1366.3333333333335</ele><time>2026-04-25T12:19:37.626Z</time></trkpt><trkpt lat="39.3359957162835" lon="16.418633764466968"><ele>1373.0</ele><time>2026-04-25T12:19:38.626Z</time></trkpt><trkpt lat="39.33606459370902" lon="16.418383525048977"><ele>1383.0</ele><time>2026-04-25T12:19:39.626Z</time></trkpt><trkpt lat="39.33612754120231" lon="16.41813771712189"><ele>1393.0</ele><time>2026-04-25T12:19:40.626Z</time></trkpt><trkpt lat="39.33618248010353" lon="16.417891865630274"><ele>1403.0</ele><time>2026-04-25T12:19:41.626Z</time></trkpt><trkpt lat="39.3362404040855" lon="16.41764260018384"><ele>1407.3333333333335</ele><time>2026-04-25T12:19:42.626Z</time></trkpt><trkpt lat="39.33629737099378" lon="16.4173915715528"><ele>1411.6666666666667</ele><time>2026-04-25T12:19:43.626Z</time></trkpt><trkpt lat="39.33635130407791" lon="16.417146550217808"><ele>1416.0</ele><time>2026-04-25T12:19:44.626Z</time></trkpt><trkpt lat="39.33641788137206" lon="16.41690019972732"><ele>1421.3333333333333</ele><time>2026-04-25T12:19:45.626Z</time></trkpt><trkpt lat="39.336465799298544" lon="16.416664054513653"><ele>1426.6666666666665</ele><time>2026-04-25T12:19:46.626Z</time></trkpt><trkpt lat="39.336514177207654" lon="16.41643013450981"><ele>1432.0</ele><time>2026-04-25T12:19:47.626Z</time></trkpt><trkpt lat="39.336764327821406" lon="16.416152373928647"><ele>1432.3333333333333</ele><time>2026-04-25T12:19:48.626Z</time></trkpt><trkpt lat="39.33683959254559" lon="16.41590637626068"><ele>1432.6666666666667</ele><time>2026-04-25T12:19:49.626Z</time></trkpt><trkpt lat="39.33691667662887" lon="16.415654432168967"><ele>1433.0</ele><time>2026-04-25T12:19:50.626Z</time></trkpt><trkpt lat="39.33699773671778" lon="16.415389492554258"><ele>1434.3333333333335</ele><time>2026-04-25T12:19:51.626Z</time></trkpt><trkpt lat="39.33707965772249" lon="16.415121739372612"><ele>1435.6666666666667</ele><time>2026-04-25T12:19:52.626Z</time></trkpt><trkpt lat="39.33716128890902" lon="16.414854498036235"><ele>1437.0</ele><time>2026-04-25T12:19:53.626Z</time></trkpt><trkpt lat="39.337247018464616" lon="16.41457308467954"><ele>1428.0</ele><time>2026-04-25T12:19:54.626Z</time></trkpt><trkpt lat="39.337334532602135" lon="16.41428581343692"><ele>1419.0</ele><time>2026-04-25T12:19:55.626Z</time></trkpt><trkpt lat="39.33742345521634" lon="16.41398967726066"><ele>1411.5</ele><time>2026-04-25T12:19:56.626Z</time></trkpt><trkpt lat="39.33751120731551" lon="16.413695961864658"><ele>1404.0</ele><time>2026-04-25T12:19:57.626Z</time></trkpt><trkpt lat="39.33759910965847" lon="16.413403433930995"><ele>1404.0</ele><time>2026-04-25T12:19:58.626Z</time></trkpt><trkpt lat="39.33768894280528" lon="16.413107374619752"><ele>1404.0</ele><time>2026-04-25T12:19:59.626Z</time></trkpt><trkpt lat="39.337779434000005" lon="16.41281442141069"><ele>1399.0</ele><time>2026-04-25T12:20:00.626Z</time></trkpt><trkpt lat="39.33786818750761" lon="16.41252145452714"><ele>1394.0</ele><time>2026-04-25T12:20:01.626Z</time></trkpt><trkpt lat="39.33783271021991" lon="16.41263951473893"><ele>1389.0</ele><time>2026-04-25T12:20:02.626Z</time></trkpt><trkpt lat="39.337886872042624" lon="16.412431034941672"><ele>1389.0</ele><time>2026-04-25T12:20:03.626Z</time></trkpt><trkpt lat="39.33795721054845" lon="16.412190416470622"><ele>1389.0</ele><time>2026-04-25T12:20:04.626Z</time></trkpt><trkpt lat="39.33803954696737" lon="16.411970248850036"><ele>1389.0</ele><time>2026-04-25T12:20:05.626Z</time></trkpt><trkpt lat="39.338110384908646" lon="16.411753307467542"><ele>1389.3333333333333</ele><time>2026-04-25T12:20:06.626Z</time></trkpt><trkpt lat="39.33819019763747" lon="16.411558222924242"><ele>1389.6666666666665</ele><time>2026-04-25T12:20:07.626Z</time></trkpt><trkpt lat="39.33828957132897" lon="16.411369826827084"><ele>1390.0</ele><time>2026-04-25T12:20:08.626Z</time></trkpt><trkpt lat="39.33840243737031" lon="16.411193558105595"><ele>1390.0</ele><time>2026-04-25T12:20:09.626Z</time></trkpt><trkpt lat="39.338528820434306" lon="16.411035218557103"><ele>1390.0</ele><time>2026-04-25T12:20:10.626Z</time></trkpt><trkpt lat="39.33866487503651" lon="16.410893293697082"><ele>1390.0</ele><time>2026-04-25T12:20:11.626Z</time></trkpt><trkpt lat="39.338815542179006" lon="16.41076619831221"><ele>1394.0</ele><time>2026-04-25T12:20:12.626Z</time></trkpt><trkpt lat="39.338976875531436" lon="16.410639477751904"><ele>1398.0</ele><time>2026-04-25T12:20:13.626Z</time></trkpt><trkpt lat="39.339133794309156" lon="16.410508857117392"><ele>1402.0</ele><time>2026-04-25T12:20:14.626Z</time></trkpt><trkpt lat="39.33930118736521" lon="16.410367871839664"><ele>1408.6666666666665</ele><time>2026-04-25T12:20:15.625Z</time></trkpt><trkpt lat="39.33946173358617" lon="16.410252862008896"><ele>1415.3333333333333</ele><time>2026-04-25T12:20:16.625Z</time></trkpt><trkpt lat="39.33961491580563" lon="16.410147570837015"><ele>1422.0</ele><time>2026-04-25T12:20:17.625Z</time></trkpt><trkpt lat="39.339762895152376" lon="16.410049124989506"><ele>1424.0</ele><time>2026-04-25T12:20:18.625Z</time></trkpt><trkpt lat="39.33990619874238" lon="16.409947422086066"><ele>1426.0</ele><time>2026-04-25T12:20:19.625Z</time></trkpt><trkpt lat="39.34005143428872" lon="16.40984349745827"><ele>1428.0</ele><time>2026-04-25T12:20:20.625Z</time></trkpt><trkpt lat="39.3402019173367" lon="16.4097356515332"><ele>1432.0</ele><time>2026-04-25T12:20:21.625Z</time></trkpt><trkpt lat="39.34034813145661" lon="16.409630856235804"><ele>1436.0</ele><time>2026-04-25T12:20:22.625Z</time></trkpt><trkpt lat="39.34048879722889" lon="16.40952997321507"><ele>1440.0</ele><time>2026-04-25T12:20:23.625Z</time></trkpt><trkpt lat="39.34096966611747" lon="16.409069437085137"><ele>1440.0</ele><time>2026-04-25T12:20:24.625Z</time></trkpt><trkpt lat="39.34118127928998" lon="16.408903278768495"><ele>1440.0</ele><time>2026-04-25T12:20:25.625Z</time></trkpt><trkpt lat="39.34139961188163" lon="16.40872972488397"><ele>1423.5</ele><time>2026-04-25T12:20:26.625Z</time></trkpt><trkpt lat="39.34165117253665" lon="16.408539007053044"><ele>1407.0</ele><time>2026-04-25T12:20:27.625Z</time></trkpt><trkpt lat="39.34195214629669" lon="16.408263206820944"><ele>1407.0</ele><time>2026-04-25T12:20:28.625Z</time></trkpt><trkpt lat="39.34218254890147" lon="16.40807324457289"><ele>1407.0</ele><time>2026-04-25T12:20:29.625Z</time></trkpt><trkpt lat="39.34239889070647" lon="16.40789347988974"><ele>1408.5</ele><time>2026-04-25T12:20:30.625Z</time></trkpt><trkpt lat="39.34259636493992" lon="16.407735446512646"><ele>1410.0</ele><time>2026-04-25T12:20:31.625Z</time></trkpt><trkpt lat="39.34280038025553" lon="16.407566722547266"><ele>1410.0</ele><time>2026-04-25T12:20:32.625Z</time></trkpt><trkpt lat="39.342991628208466" lon="16.40741418561449"><ele>1410.0</ele><time>2026-04-25T12:20:33.625Z</time></trkpt><trkpt lat="39.34316341725723" lon="16.407270140526517"><ele>1410.0</ele><time>2026-04-25T12:20:34.625Z</time></trkpt><trkpt lat="39.343341728453446" lon="16.407129807378517"><ele>1415.3333333333333</ele><time>2026-04-25T12:20:35.625Z</time></trkpt><trkpt lat="39.343514679720855" lon="16.40699591595469"><ele>1420.6666666666665</ele><time>2026-04-25T12:20:36.625Z</time></trkpt><trkpt lat="39.34368697260764" lon="16.406853175010887"><ele>1426.0</ele><time>2026-04-25T12:20:37.625Z</time></trkpt><trkpt lat="39.34386074621155" lon="16.40671040129461"><ele>1426.0</ele><time>2026-04-25T12:20:38.625Z</time></trkpt><trkpt lat="39.34403895707848" lon="16.406566400289744"><ele>1426.0</ele><time>2026-04-25T12:20:39.625Z</time></trkpt><trkpt lat="39.34421664196104" lon="16.40642139783881"><ele>1426.0</ele><time>2026-04-25T12:20:40.625Z</time></trkpt><trkpt lat="39.344390959589816" lon="16.40627644167858"><ele>1427.0</ele><time>2026-04-25T12:20:41.626Z</time></trkpt><trkpt lat="39.344569591063724" lon="16.406130726395467"><ele>1428.0</ele><time>2026-04-25T12:20:42.626Z</time></trkpt><trkpt lat="39.34475014022312" lon="16.405984446088322"><ele>1429.0</ele><time>2026-04-25T12:20:43.626Z</time></trkpt><trkpt lat="39.34493432202874" lon="16.40583416397367"><ele>1429.0</ele><time>2026-04-25T12:20:44.626Z</time></trkpt><trkpt lat="39.34511932154203" lon="16.405685374718754"><ele>1429.0</ele><time>2026-04-25T12:20:45.626Z</time></trkpt><trkpt lat="39.34530520605294" lon="16.405535910050276"><ele>1429.0</ele><time>2026-04-25T12:20:46.626Z</time></trkpt><trkpt lat="39.34549381144402" lon="16.405383378431406"><ele>1438.0</ele><time>2026-04-25T12:20:47.626Z</time></trkpt><trkpt lat="39.345678605628514" lon="16.405217831663233"><ele>1447.0</ele><time>2026-04-25T12:20:48.626Z</time></trkpt><trkpt lat="39.3458708297789" lon="16.405042545106404"><ele>1447.0</ele><time>2026-04-25T12:20:49.626Z</time></trkpt><trkpt lat="39.346058106666824" lon="16.404863726079192"><ele>1447.0</ele><time>2026-04-25T12:20:50.626Z</time></trkpt><trkpt lat="39.34624435088603" lon="16.404683466603522"><ele>1454.5</ele><time>2026-04-25T12:20:51.626Z</time></trkpt><trkpt lat="39.34643066577663" lon="16.40450385913737"><ele>1462.0</ele><time>2026-04-25T12:20:52.626Z</time></trkpt><trkpt lat="39.34661862310418" lon="16.40432083329832"><ele>1462.0</ele><time>2026-04-25T12:20:53.626Z</time></trkpt><trkpt lat="39.34689584992237" lon="16.404264043767782"><ele>1462.0</ele><time>2026-04-25T12:20:54.626Z</time></trkpt><trkpt lat="39.34710252790871" lon="16.404097522791357"><ele>1466.5</ele><time>2026-04-25T12:20:55.626Z</time></trkpt><trkpt lat="39.34730693668443" lon="16.403929087590654"><ele>1471.0</ele><time>2026-04-25T12:20:56.626Z</time></trkpt><trkpt lat="39.3475121343474" lon="16.403759366938612"><ele>1475.0</ele><time>2026-04-25T12:20:57.626Z</time></trkpt><trkpt lat="39.347723419927654" lon="16.403587826680997"><ele>1479.0</ele><time>2026-04-25T12:20:58.626Z</time></trkpt><trkpt lat="39.34793836610356" lon="16.403411844567255"><ele>1486.0</ele><time>2026-04-25T12:20:59.626Z</time></trkpt><trkpt lat="39.34816585811099" lon="16.403221048488238"><ele>1493.0</ele><time>2026-04-25T12:21:00.626Z</time></trkpt><trkpt lat="39.348395945378" lon="16.403030332127397"><ele>1496.0</ele><time>2026-04-25T12:21:01.626Z</time></trkpt><trkpt lat="39.34863077801147" lon="16.40287273042874"><ele>1499.0</ele><time>2026-04-25T12:21:02.626Z</time></trkpt><trkpt lat="39.348867386997654" lon="16.40270056322336"><ele>1501.5</ele><time>2026-04-25T12:21:03.626Z</time></trkpt><trkpt lat="39.349103226134616" lon="16.40252105573548"><ele>1504.0</ele><time>2026-04-25T12:21:04.626Z</time></trkpt><trkpt lat="39.34934268586819" lon="16.40234021345438"><ele>1506.0</ele><time>2026-04-25T12:21:05.626Z</time></trkpt><trkpt lat="39.34958076329958" lon="16.402158515204835"><ele>1508.0</ele><time>2026-04-25T12:21:06.626Z</time></trkpt><trkpt lat="39.34981460254805" lon="16.401976525799746"><ele>1502.5</ele><time>2026-04-25T12:21:07.626Z</time></trkpt><trkpt lat="39.35004038917514" lon="16.4018205124918"><ele>1497.0</ele><time>2026-04-25T12:21:08.626Z</time></trkpt><trkpt lat="39.350260870640795" lon="16.401644301075496"><ele>1497.0</ele><time>2026-04-25T12:21:09.626Z</time></trkpt><trkpt lat="39.35047136365894" lon="16.401465987509308"><ele>1497.0</ele><time>2026-04-25T12:21:10.626Z</time></trkpt><trkpt lat="39.35069619136596" lon="16.401291134697424"><ele>1480.0</ele><time>2026-04-25T12:21:11.626Z</time></trkpt><trkpt lat="39.35091978972972" lon="16.40111416187483"><ele>1463.0</ele><time>2026-04-25T12:21:12.626Z</time></trkpt><trkpt lat="39.35114913809615" lon="16.40093303906134"><ele>1447.5</ele><time>2026-04-25T12:21:13.626Z</time></trkpt><trkpt lat="39.35138179225325" lon="16.400747609040856"><ele>1432.0</ele><time>2026-04-25T12:21:14.626Z</time></trkpt><trkpt lat="39.35162006683028" lon="16.40055902677775"><ele>1440.0</ele><time>2026-04-25T12:21:15.626Z</time></trkpt><trkpt lat="39.35184919389758" lon="16.400372365027373"><ele>1448.0</ele><time>2026-04-25T12:21:16.626Z</time></trkpt><trkpt lat="39.35203511656628" lon="16.400204594344498"><ele>1448.0</ele><time>2026-04-25T12:21:17.626Z</time></trkpt><trkpt lat="39.35220282539379" lon="16.400053748966066"><ele>1448.0</ele><time>2026-04-25T12:21:18.626Z</time></trkpt><trkpt lat="39.35187658863262" lon="16.400309762746584"><ele>1448.0</ele><time>2026-04-25T12:21:19.626Z</time></trkpt><trkpt lat="39.35190724479275" lon="16.40016030668618"><ele>1448.0</ele><time>2026-04-25T12:21:20.626Z</time></trkpt><trkpt lat="39.35211116215704" lon="16.40001209652038"><ele>1448.0</ele><time>2026-04-25T12:21:21.626Z</time></trkpt><trkpt lat="39.35231816943329" lon="16.399880137228028"><ele>1446.6666666666667</ele><time>2026-04-25T12:21:22.626Z</time></trkpt><trkpt lat="39.35250753841208" lon="16.3997367194126"><ele>1445.3333333333333</ele><time>2026-04-25T12:21:23.626Z</time></trkpt><trkpt lat="39.35269427982217" lon="16.39959514539525"><ele>1444.0</ele><time>2026-04-25T12:21:24.626Z</time></trkpt><trkpt lat="39.35287733268869" lon="16.399447434136754"><ele>1437.3333333333333</ele><time>2026-04-25T12:21:25.626Z</time></trkpt><trkpt lat="39.35305003518005" lon="16.399287930911736"><ele>1430.6666666666667</ele><time>2026-04-25T12:21:26.626Z</time></trkpt><trkpt lat="39.353207489612885" lon="16.39910236620825"><ele>1424.0</ele><time>2026-04-25T12:21:27.626Z</time></trkpt><trkpt lat="39.353343384911966" lon="16.398891808898238"><ele>1430.0</ele><time>2026-04-25T12:21:28.626Z</time></trkpt><trkpt lat="39.35345022263556" lon="16.398641854093665"><ele>1436.0</ele><time>2026-04-25T12:21:29.626Z</time></trkpt><trkpt lat="39.353521928182566" lon="16.398386915127382"><ele>1442.0</ele><time>2026-04-25T12:21:30.626Z</time></trkpt><trkpt lat="39.35360815280921" lon="16.3981265799394"><ele>1445.3333333333335</ele><time>2026-04-25T12:21:31.626Z</time></trkpt><trkpt lat="39.35365287967297" lon="16.397868064631034"><ele>1448.6666666666667</ele><time>2026-04-25T12:21:32.626Z</time></trkpt><trkpt lat="39.35367340808964" lon="16.39761419760781"><ele>1452.0</ele><time>2026-04-25T12:21:33.626Z</time></trkpt><trkpt lat="39.35367194468596" lon="16.39736141486577"><ele>1448.3333333333333</ele><time>2026-04-25T12:21:34.626Z</time></trkpt><trkpt lat="39.353645198456306" lon="16.397115824951527"><ele>1444.6666666666665</ele><time>2026-04-25T12:21:35.626Z</time></trkpt><trkpt lat="39.3536005648097" lon="16.396870893089616"><ele>1441.0</ele><time>2026-04-25T12:21:36.626Z</time></trkpt><trkpt lat="39.3535371842848" lon="16.396630023183842"><ele>1441.0</ele><time>2026-04-25T12:21:37.626Z</time></trkpt><trkpt lat="39.35345753845456" lon="16.396394079834963"><ele>1441.0</ele><time>2026-04-25T12:21:38.625Z</time></trkpt><trkpt lat="39.35336167788538" lon="16.396165833150707"><ele>1441.0</ele><time>2026-04-25T12:21:39.625Z</time></trkpt><trkpt lat="39.35324126344095" lon="16.395957395431015"><ele>1440.0</ele><time>2026-04-25T12:21:40.625Z</time></trkpt><trkpt lat="39.35311367424268" lon="16.395747639304062"><ele>1439.0</ele><time>2026-04-25T12:21:41.625Z</time></trkpt><trkpt lat="39.352987189462446" lon="16.395534590845422"><ele>1438.0</ele><time>2026-04-25T12:21:42.624Z</time></trkpt><trkpt lat="39.352867069213595" lon="16.395313619070503"><ele>1438.0</ele><time>2026-04-25T12:21:43.624Z</time></trkpt><trkpt lat="39.35274852168273" lon="16.395091651798037"><ele>1438.0</ele><time>2026-04-25T12:21:44.624Z</time></trkpt><trkpt lat="39.35262547692162" lon="16.394862420489428"><ele>1438.0</ele><time>2026-04-25T12:21:45.624Z</time></trkpt><trkpt lat="39.35250164720395" lon="16.394634108142714"><ele>1435.0</ele><time>2026-04-25T12:21:46.624Z</time></trkpt><trkpt lat="39.35237650154946" lon="16.394402631293758"><ele>1432.0</ele><time>2026-04-25T12:21:47.624Z</time></trkpt><trkpt lat="39.35224509172538" lon="16.394162837377653"><ele>1429.0</ele><time>2026-04-25T12:21:48.624Z</time></trkpt><trkpt lat="39.35211788734646" lon="16.393923764887564"><ele>1430.0</ele><time>2026-04-25T12:21:49.624Z</time></trkpt><trkpt lat="39.351988476650284" lon="16.39369621375735"><ele>1431.0</ele><time>2026-04-25T12:21:50.624Z</time></trkpt><trkpt lat="39.3518417569623" lon="16.39348324110202"><ele>1432.0</ele><time>2026-04-25T12:21:51.624Z</time></trkpt><trkpt lat="39.35167751099466" lon="16.39329241830878"><ele>1432.0</ele><time>2026-04-25T12:21:52.624Z</time></trkpt><trkpt lat="39.35148448943229" lon="16.393121403331282"><ele>1432.0</ele><time>2026-04-25T12:21:53.624Z</time></trkpt><trkpt lat="39.351285418795875" lon="16.392961489452016"><ele>1434.0</ele><time>2026-04-25T12:21:54.624Z</time></trkpt><trkpt lat="39.351095775959905" lon="16.39280250675532"><ele>1436.0</ele><time>2026-04-25T12:21:55.624Z</time></trkpt><trkpt lat="39.350897388125695" lon="16.392626326150758"><ele>1436.0</ele><time>2026-04-25T12:21:56.624Z</time></trkpt><trkpt lat="39.3506991344965" lon="16.392454630059493"><ele>1436.0</ele><time>2026-04-25T12:21:57.624Z</time></trkpt><trkpt lat="39.35050229853155" lon="16.392284827649128"><ele>1431.5</ele><time>2026-04-25T12:21:58.624Z</time></trkpt><trkpt lat="39.35030019454142" lon="16.392117161543112"><ele>1427.0</ele><time>2026-04-25T12:21:59.624Z</time></trkpt><trkpt lat="39.35011855582162" lon="16.391949836907532"><ele>1427.0</ele><time>2026-04-25T12:22:00.624Z</time></trkpt><trkpt lat="39.34992446164632" lon="16.391788003775794"><ele>1427.0</ele><time>2026-04-25T12:22:01.624Z</time></trkpt><trkpt lat="39.34974417904272" lon="16.39173550109695"><ele>1427.0</ele><time>2026-04-25T12:22:02.624Z</time></trkpt><trkpt lat="39.34946779823686" lon="16.391821771061544"><ele>1421.0</ele><time>2026-04-25T12:22:03.624Z</time></trkpt><trkpt lat="39.34927258644117" lon="16.391763863136052"><ele>1415.0</ele><time>2026-04-25T12:22:04.624Z</time></trkpt><trkpt lat="39.34906114229203" lon="16.391689318558452"><ele>1409.0</ele><time>2026-04-25T12:22:05.624Z</time></trkpt><trkpt lat="39.34887427895296" lon="16.391595395628304"><ele>1401.6666666666667</ele><time>2026-04-25T12:22:06.624Z</time></trkpt><trkpt lat="39.348671781122896" lon="16.391513797054426"><ele>1394.3333333333333</ele><time>2026-04-25T12:22:07.624Z</time></trkpt><trkpt lat="39.34847025133821" lon="16.391427686756103"><ele>1387.0</ele><time>2026-04-25T12:22:08.624Z</time></trkpt><trkpt lat="39.34827853795572" lon="16.391332683852564"><ele>1390.0</ele><time>2026-04-25T12:22:09.624Z</time></trkpt><trkpt lat="39.34809633574662" lon="16.391218549818813"><ele>1393.0</ele><time>2026-04-25T12:22:10.624Z</time></trkpt><trkpt lat="39.34793472118033" lon="16.391077485779554"><ele>1396.0</ele><time>2026-04-25T12:22:11.624Z</time></trkpt><trkpt lat="39.34778825928896" lon="16.390915398704838"><ele>1396.0</ele><time>2026-04-25T12:22:12.624Z</time></trkpt><trkpt lat="39.347658180139085" lon="16.390734821783727"><ele>1396.0</ele><time>2026-04-25T12:22:13.624Z</time></trkpt><trkpt lat="39.347539821129395" lon="16.390538650615802"><ele>1396.0</ele><time>2026-04-25T12:22:14.624Z</time></trkpt><trkpt lat="39.34744186938368" lon="16.3903279666712"><ele>1395.3333333333333</ele><time>2026-04-25T12:22:15.624Z</time></trkpt><trkpt lat="39.34735857266732" lon="16.39009618957618"><ele>1394.6666666666667</ele><time>2026-04-25T12:22:16.624Z</time></trkpt><trkpt lat="39.34728652578705" lon="16.389855498062946"><ele>1394.0</ele><time>2026-04-25T12:22:17.624Z</time></trkpt><trkpt lat="39.34723118665264" lon="16.389603505407774"><ele>1402.6666666666667</ele><time>2026-04-25T12:22:18.624Z</time></trkpt><trkpt lat="39.34720770364814" lon="16.389335336821258"><ele>1411.3333333333333</ele><time>2026-04-25T12:22:19.624Z</time></trkpt><trkpt lat="39.34719736306141" lon="16.38906505147068"><ele>1420.0</ele><time>2026-04-25T12:22:20.624Z</time></trkpt><trkpt lat="39.34718692931012" lon="16.388790220053203"><ele>1421.0</ele><time>2026-04-25T12:22:21.624Z</time></trkpt><trkpt lat="39.34717330533042" lon="16.388505835377444"><ele>1422.0</ele><time>2026-04-25T12:22:22.624Z</time></trkpt><trkpt lat="39.34715638451705" lon="16.388216166726956"><ele>1423.0</ele><time>2026-04-25T12:22:23.624Z</time></trkpt><trkpt lat="39.347140683645456" lon="16.387929990713005"><ele>1423.0</ele><time>2026-04-25T12:22:24.624Z</time></trkpt><trkpt lat="39.34712344662281" lon="16.38763882628341"><ele>1423.0</ele><time>2026-04-25T12:22:25.624Z</time></trkpt><trkpt lat="39.34710858254577" lon="16.387359878324375"><ele>1423.0</ele><time>2026-04-25T12:22:26.624Z</time></trkpt><trkpt lat="39.34709456338581" lon="16.3870885674965"><ele>1419.6666666666665</ele><time>2026-04-25T12:22:27.624Z</time></trkpt><trkpt lat="39.3470793809252" lon="16.386818368744372"><ele>1416.3333333333333</ele><time>2026-04-25T12:22:28.624Z</time></trkpt><trkpt lat="39.3470613677002" lon="16.38655609055048"><ele>1413.0</ele><time>2026-04-25T12:22:29.624Z</time></trkpt><trkpt lat="39.34704180660933" lon="16.386297367711393"><ele>1409.3333333333333</ele><time>2026-04-25T12:22:30.624Z</time></trkpt><trkpt lat="39.34703022226365" lon="16.386044185348624"><ele>1405.6666666666665</ele><time>2026-04-25T12:22:31.624Z</time></trkpt><trkpt lat="39.34701422275298" lon="16.385797306662305"><ele>1402.0</ele><time>2026-04-25T12:22:32.624Z</time></trkpt><trkpt lat="39.346999307876416" lon="16.385555049878896"><ele>1398.6666666666665</ele><time>2026-04-25T12:22:33.624Z</time></trkpt><trkpt lat="39.34698595483689" lon="16.385319763327207"><ele>1395.3333333333333</ele><time>2026-04-25T12:22:34.624Z</time></trkpt><trkpt lat="39.34696812448537" lon="16.385080122188267"><ele>1392.0</ele><time>2026-04-25T12:22:35.624Z</time></trkpt><trkpt lat="39.346936161743955" lon="16.384829697966296"><ele>1386.0</ele><time>2026-04-25T12:22:36.624Z</time></trkpt><trkpt lat="39.346910362187735" lon="16.384562478220587"><ele>1380.0</ele><time>2026-04-25T12:22:37.624Z</time></trkpt><trkpt lat="39.34687707151564" lon="16.384291549173675"><ele>1374.0</ele><time>2026-04-25T12:22:38.624Z</time></trkpt><trkpt lat="39.34682531813174" lon="16.384037329957923"><ele>1367.0</ele><time>2026-04-25T12:22:39.624Z</time></trkpt><trkpt lat="39.34673898344174" lon="16.383807694865705"><ele>1360.0</ele><time>2026-04-25T12:22:40.624Z</time></trkpt><trkpt lat="39.346632283860124" lon="16.38359300147159"><ele>1353.0</ele><time>2026-04-25T12:22:41.624Z</time></trkpt><trkpt lat="39.34651389898162" lon="16.38339914213271"><ele>1355.6666666666667</ele><time>2026-04-25T12:22:42.624Z</time></trkpt><trkpt lat="39.34637541065559" lon="16.383222805113828"><ele>1358.3333333333335</ele><time>2026-04-25T12:22:43.624Z</time></trkpt><trkpt lat="39.346228912438036" lon="16.38307965878611"><ele>1361.0</ele><time>2026-04-25T12:22:44.624Z</time></trkpt><trkpt lat="39.346069687458964" lon="16.382952186831304"><ele>1361.0</ele><time>2026-04-25T12:22:45.624Z</time></trkpt><trkpt lat="39.345895100508415" lon="16.382848066953095"><ele>1361.0</ele><time>2026-04-25T12:22:46.625Z</time></trkpt><trkpt lat="39.3457083952599" lon="16.382768690642592"><ele>1361.0</ele><time>2026-04-25T12:22:47.625Z</time></trkpt><trkpt lat="39.34551898290156" lon="16.38272194240283"><ele>1361.3333333333335</ele><time>2026-04-25T12:22:48.625Z</time></trkpt><trkpt lat="39.34533185474988" lon="16.38270346331197"><ele>1361.6666666666667</ele><time>2026-04-25T12:22:49.625Z</time></trkpt><trkpt lat="39.34515329343103" lon="16.382699876473175"><ele>1362.0</ele><time>2026-04-25T12:22:50.625Z</time></trkpt><trkpt lat="39.34497184008944" lon="16.382696136327052"><ele>1362.0</ele><time>2026-04-25T12:22:51.625Z</time></trkpt><trkpt lat="39.344789031769096" lon="16.38273775193227"><ele>1362.0</ele><time>2026-04-25T12:22:52.625Z</time></trkpt><trkpt lat="39.344611814704336" lon="16.382753316843097"><ele>1362.0</ele><time>2026-04-25T12:22:53.625Z</time></trkpt><trkpt lat="39.344390611044425" lon="16.38296922665313"><ele>1355.0</ele><time>2026-04-25T12:22:54.625Z</time></trkpt><trkpt lat="39.344201376918065" lon="16.383173215027753"><ele>1348.0</ele><time>2026-04-25T12:22:55.625Z</time></trkpt><trkpt lat="39.34405267660467" lon="16.383363924479127"><ele>1348.0</ele><time>2026-04-25T12:22:56.625Z</time></trkpt><trkpt lat="39.34389843536128" lon="16.383556015172147"><ele>1348.0</ele><time>2026-04-25T12:22:57.625Z</time></trkpt><trkpt lat="39.343744161727514" lon="16.383729498228327"><ele>1348.0</ele><time>2026-04-25T12:22:58.625Z</time></trkpt><trkpt lat="39.343597276625445" lon="16.383901716818404"><ele>1347.6666666666665</ele><time>2026-04-25T12:22:59.625Z</time></trkpt><trkpt lat="39.34344442189949" lon="16.38406580347739"><ele>1347.3333333333333</ele><time>2026-04-25T12:23:00.625Z</time></trkpt><trkpt lat="39.34328732696794" lon="16.38423035052941"><ele>1347.0</ele><time>2026-04-25T12:23:01.625Z</time></trkpt><trkpt lat="39.343134690205645" lon="16.384394214275662"><ele>1345.0</ele><time>2026-04-25T12:23:02.625Z</time></trkpt><trkpt lat="39.34298059336106" lon="16.384562864783256"><ele>1343.0</ele><time>2026-04-25T12:23:03.625Z</time></trkpt><trkpt lat="39.34282580512359" lon="16.384732083486647"><ele>1341.0</ele><time>2026-04-25T12:23:04.625Z</time></trkpt><trkpt lat="39.34266722291673" lon="16.38490268756521"><ele>1341.0</ele><time>2026-04-25T12:23:05.624Z</time></trkpt><trkpt lat="39.34250584130229" lon="16.385079107446593"><ele>1341.0</ele><time>2026-04-25T12:23:06.624Z</time></trkpt><trkpt lat="39.34235064182722" lon="16.385248034235786"><ele>1341.0</ele><time>2026-04-25T12:23:07.624Z</time></trkpt><trkpt lat="39.34219982608923" lon="16.38541387380946"><ele>1340.0</ele><time>2026-04-25T12:23:08.624Z</time></trkpt><trkpt lat="39.34205068948098" lon="16.385572029298586"><ele>1339.0</ele><time>2026-04-25T12:23:09.624Z</time></trkpt><trkpt lat="39.341903052747675" lon="16.385720395456993"><ele>1338.0</ele><time>2026-04-25T12:23:10.624Z</time></trkpt><trkpt lat="39.34175274777876" lon="16.385848701746745"><ele>1338.0</ele><time>2026-04-25T12:23:11.624Z</time></trkpt><trkpt lat="39.34159463697327" lon="16.38595860709096"><ele>1338.0</ele><time>2026-04-25T12:23:12.624Z</time></trkpt><trkpt lat="39.341427903693194" lon="16.386050356303144"><ele>1338.0</ele><time>2026-04-25T12:23:13.624Z</time></trkpt><trkpt lat="39.341251553481776" lon="16.386125078632396"><ele>1332.0</ele><time>2026-04-25T12:23:14.624Z</time></trkpt><trkpt lat="39.341070289678264" lon="16.38617640988725"><ele>1326.0</ele><time>2026-04-25T12:23:15.624Z</time></trkpt><trkpt lat="39.34089168218478" lon="16.386201444919898"><ele>1320.0</ele><time>2026-04-25T12:23:16.624Z</time></trkpt><trkpt lat="39.34070491376411" lon="16.386201945221334"><ele>1317.0</ele><time>2026-04-25T12:23:17.624Z</time></trkpt><trkpt lat="39.34051692331586" lon="16.386173346483517"><ele>1314.0</ele><time>2026-04-25T12:23:18.624Z</time></trkpt><trkpt lat="39.34032712393801" lon="16.38612003327204"><ele>1311.0</ele><time>2026-04-25T12:23:19.624Z</time></trkpt><trkpt lat="39.34014134499695" lon="16.386030557160815"><ele>1311.0</ele><time>2026-04-25T12:23:20.624Z</time></trkpt><trkpt lat="39.33996812998431" lon="16.385933777859933"><ele>1311.0</ele><time>2026-04-25T12:23:21.624Z</time></trkpt><trkpt lat="39.33980390631191" lon="16.385812288439382"><ele>1311.0</ele><time>2026-04-25T12:23:22.624Z</time></trkpt><trkpt lat="39.339657746390046" lon="16.385672284097208"><ele>1319.6666666666667</ele><time>2026-04-25T12:23:23.624Z</time></trkpt><trkpt lat="39.339514513571636" lon="16.385512254920133"><ele>1328.3333333333335</ele><time>2026-04-25T12:23:24.624Z</time></trkpt><trkpt lat="39.3393809727187" lon="16.385341745494884"><ele>1337.0</ele><time>2026-04-25T12:23:25.624Z</time></trkpt><trkpt lat="39.339248284699565" lon="16.385162503966292"><ele>1337.0</ele><time>2026-04-25T12:23:26.624Z</time></trkpt><trkpt lat="39.33911802974993" lon="16.38498324510481"><ele>1337.0</ele><time>2026-04-25T12:23:27.624Z</time></trkpt><trkpt lat="39.338994384606636" lon="16.384813358154698"><ele>1337.0</ele><time>2026-04-25T12:23:28.624Z</time></trkpt><trkpt lat="39.33887446045908" lon="16.384648315206988"><ele>1336.3333333333335</ele><time>2026-04-25T12:23:29.624Z</time></trkpt><trkpt lat="39.33875781633956" lon="16.384489311206963"><ele>1335.6666666666667</ele><time>2026-04-25T12:23:30.624Z</time></trkpt><trkpt lat="39.33864507676954" lon="16.384339021380008"><ele>1335.0</ele><time>2026-04-25T12:23:31.624Z</time></trkpt><trkpt lat="39.33853390775286" lon="16.38419408260203"><ele>1335.0</ele><time>2026-04-25T12:23:32.624Z</time></trkpt><trkpt lat="39.33842642205521" lon="16.384058407088947"><ele>1335.0</ele><time>2026-04-25T12:23:33.624Z</time></trkpt><trkpt lat="39.33833688170904" lon="16.383918090602073"><ele>1335.0</ele><time>2026-04-25T12:23:34.624Z</time></trkpt><trkpt lat="39.33823734805853" lon="16.383780833063312"><ele>1335.0</ele><time>2026-04-25T12:23:35.694Z</time></trkpt><trkpt lat="39.33813164486602" lon="16.383660841964705"><ele>1317.3333333333333</ele><time>2026-04-25T12:23:36.624Z</time></trkpt><trkpt lat="39.337972040214254" lon="16.383394553976697"><ele>1299.6666666666665</ele><time>2026-04-25T12:23:37.624Z</time></trkpt><trkpt lat="39.337872284882835" lon="16.383259365347772"><ele>1282.0</ele><time>2026-04-25T12:23:38.624Z</time></trkpt><trkpt lat="39.33776855536457" lon="16.383116464531525"><ele>1278.0</ele><time>2026-04-25T12:23:39.624Z</time></trkpt><trkpt lat="39.33766524312014" lon="16.38296984564403"><ele>1274.0</ele><time>2026-04-25T12:23:40.624Z</time></trkpt><trkpt lat="39.33756350660488" lon="16.382827236889813"><ele>1270.0</ele><time>2026-04-25T12:23:41.624Z</time></trkpt><trkpt lat="39.33746676991372" lon="16.382685664049355"><ele>1270.0</ele><time>2026-04-25T12:23:42.624Z</time></trkpt><trkpt lat="39.33737789619766" lon="16.382545693817086"><ele>1270.0</ele><time>2026-04-25T12:23:43.624Z</time></trkpt><trkpt lat="39.337302963273075" lon="16.382402008692683"><ele>1270.0</ele><time>2026-04-25T12:23:44.624Z</time></trkpt><trkpt lat="39.3372379069862" lon="16.382248189838155"><ele>1270.0</ele><time>2026-04-25T12:23:45.624Z</time></trkpt><trkpt lat="39.33717953494305" lon="16.382082418169986"><ele>1277.0</ele><time>2026-04-25T12:23:46.624Z</time></trkpt><trkpt lat="39.33713193721199" lon="16.381913799030855"><ele>1284.0</ele><time>2026-04-25T12:23:47.624Z</time></trkpt><trkpt lat="39.33709658440143" lon="16.381744482271767"><ele>1291.0</ele><time>2026-04-25T12:23:48.624Z</time></trkpt><trkpt lat="39.33707362044523" lon="16.381577454370603"><ele>1298.0</ele><time>2026-04-25T12:23:49.624Z</time></trkpt><trkpt lat="39.337060922604955" lon="16.38140273967102"><ele>1295.0</ele><time>2026-04-25T12:23:50.624Z</time></trkpt><trkpt lat="39.33705599767542" lon="16.381221141928947"><ele>1292.0</ele><time>2026-04-25T12:23:51.624Z</time></trkpt><trkpt lat="39.3370598296412" lon="16.38103644560057"><ele>1289.0</ele><time>2026-04-25T12:23:52.624Z</time></trkpt><trkpt lat="39.337076462819475" lon="16.38084990976716"><ele>1286.0</ele><time>2026-04-25T12:23:53.624Z</time></trkpt><trkpt lat="39.33710802997059" lon="16.380658826819143"><ele>1283.0</ele><time>2026-04-25T12:23:54.624Z</time></trkpt><trkpt lat="39.337150070992706" lon="16.380471576967704"><ele>1280.0</ele><time>2026-04-25T12:23:55.624Z</time></trkpt><trkpt lat="39.33720908469766" lon="16.380285883063713"><ele>1277.0</ele><time>2026-04-25T12:23:56.624Z</time></trkpt><trkpt lat="39.33727955180224" lon="16.38010502923789"><ele>1277.0</ele><time>2026-04-25T12:23:57.624Z</time></trkpt><trkpt lat="39.33736322598057" lon="16.379929287805485"><ele>1277.0</ele><time>2026-04-25T12:23:58.624Z</time></trkpt><trkpt lat="39.3374569293986" lon="16.37975798070901"><ele>1277.0</ele><time>2026-04-25T12:23:59.624Z</time></trkpt><trkpt lat="39.33756909774903" lon="16.379597709135542"><ele>1284.3333333333335</ele><time>2026-04-25T12:24:00.624Z</time></trkpt><trkpt lat="39.33769298792737" lon="16.37944182560468"><ele>1291.6666666666667</ele><time>2026-04-25T12:24:01.624Z</time></trkpt><trkpt lat="39.33782272868865" lon="16.379281160405128"><ele>1299.0</ele><time>2026-04-25T12:24:02.624Z</time></trkpt><trkpt lat="39.3379528123669" lon="16.379112983366213"><ele>1298.0</ele><time>2026-04-25T12:24:03.624Z</time></trkpt><trkpt lat="39.338083839418964" lon="16.378944752610874"><ele>1297.0</ele><time>2026-04-25T12:24:04.624Z</time></trkpt><trkpt lat="39.338215166189364" lon="16.378771336614328"><ele>1296.0</ele><time>2026-04-25T12:24:05.624Z</time></trkpt><trkpt lat="39.33834905830872" lon="16.378588821498518"><ele>1302.0</ele><time>2026-04-25T12:24:06.624Z</time></trkpt><trkpt lat="39.33848807456926" lon="16.37839032853751"><ele>1308.0</ele><time>2026-04-25T12:24:07.624Z</time></trkpt><trkpt lat="39.33863008918928" lon="16.378186193487927"><ele>1314.0</ele><time>2026-04-25T12:24:08.624Z</time></trkpt><trkpt lat="39.33879084623722" lon="16.37799897218971"><ele>1310.3333333333333</ele><time>2026-04-25T12:24:09.624Z</time></trkpt><trkpt lat="39.33894567443964" lon="16.37779617080426"><ele>1306.6666666666665</ele><time>2026-04-25T12:24:10.624Z</time></trkpt><trkpt lat="39.33908956635224" lon="16.37758300967977"><ele>1303.0</ele><time>2026-04-25T12:24:11.624Z</time></trkpt><trkpt lat="39.33924080080304" lon="16.377399730392558"><ele>1303.0</ele><time>2026-04-25T12:24:12.624Z</time></trkpt><trkpt lat="39.33938611141068" lon="16.377220763490286"><ele>1303.0</ele><time>2026-04-25T12:24:13.624Z</time></trkpt><trkpt lat="39.3395229846208" lon="16.377039125183636"><ele>1303.0</ele><time>2026-04-25T12:24:14.624Z</time></trkpt><trkpt lat="39.33965323950486" lon="16.37684754548088"><ele>1302.0</ele><time>2026-04-25T12:24:15.624Z</time></trkpt><trkpt lat="39.33977088861049" lon="16.376648268516828"><ele>1301.0</ele><time>2026-04-25T12:24:16.624Z</time></trkpt><trkpt lat="39.339877087654465" lon="16.376435260777292"><ele>1300.0</ele><time>2026-04-25T12:24:17.624Z</time></trkpt><trkpt lat="39.33997344575386" lon="16.376210007792967"><ele>1300.0</ele><time>2026-04-25T12:24:18.624Z</time></trkpt><trkpt lat="39.340055984733446" lon="16.37597164799726"><ele>1300.0</ele><time>2026-04-25T12:24:19.624Z</time></trkpt><trkpt lat="39.34012679189915" lon="16.375722682950332"><ele>1300.0</ele><time>2026-04-25T12:24:20.624Z</time></trkpt><trkpt lat="39.34019185761429" lon="16.37547059984778"><ele>1303.6666666666665</ele><time>2026-04-25T12:24:21.624Z</time></trkpt><trkpt lat="39.34024895725082" lon="16.375224394850644"><ele>1307.3333333333333</ele><time>2026-04-25T12:24:22.624Z</time></trkpt><trkpt lat="39.34030860878664" lon="16.374968933267365"><ele>1311.0</ele><time>2026-04-25T12:24:23.624Z</time></trkpt><trkpt lat="39.34037157518649" lon="16.37470590425454"><ele>1315.0</ele><time>2026-04-25T12:24:24.624Z</time></trkpt><trkpt lat="39.34043505712139" lon="16.37445923449359"><ele>1319.0</ele><time>2026-04-25T12:24:25.624Z</time></trkpt><trkpt lat="39.34049841332932" lon="16.374205957707485"><ele>1323.0</ele><time>2026-04-25T12:24:26.624Z</time></trkpt><trkpt lat="39.34055993645526" lon="16.37396234933026"><ele>1308.6666666666667</ele><time>2026-04-25T12:24:27.624Z</time></trkpt><trkpt lat="39.340623585819905" lon="16.373724027305165"><ele>1294.3333333333335</ele><time>2026-04-25T12:24:28.624Z</time></trkpt><trkpt lat="39.34070000164771" lon="16.373494761992056"><ele>1280.0</ele><time>2026-04-25T12:24:29.624Z</time></trkpt><trkpt lat="39.340790789036774" lon="16.373265460124653"><ele>1280.0</ele><time>2026-04-25T12:24:30.624Z</time></trkpt><trkpt lat="39.3408968513332" lon="16.37303973187718"><ele>1280.0</ele><time>2026-04-25T12:24:31.624Z</time></trkpt><trkpt lat="39.34101649186973" lon="16.372820457859753"><ele>1280.0</ele><time>2026-04-25T12:24:32.624Z</time></trkpt><trkpt lat="39.34113906818394" lon="16.37261262879246"><ele>1280.3333333333335</ele><time>2026-04-25T12:24:33.624Z</time></trkpt><trkpt lat="39.34126616032165" lon="16.372421678400478"><ele>1280.6666666666667</ele><time>2026-04-25T12:24:34.624Z</time></trkpt><trkpt lat="39.34140850095695" lon="16.372231843175328"><ele>1281.0</ele><time>2026-04-25T12:24:35.624Z</time></trkpt><trkpt lat="39.34155634627271" lon="16.372054373814855"><ele>1281.0</ele><time>2026-04-25T12:24:36.624Z</time></trkpt><trkpt lat="39.34171378952396" lon="16.371879156601576"><ele>1281.0</ele><time>2026-04-25T12:24:37.624Z</time></trkpt><trkpt lat="39.34186854289472" lon="16.37171306190489"><ele>1281.0</ele><time>2026-04-25T12:24:38.624Z</time></trkpt><trkpt lat="39.34202277540407" lon="16.37154639776104"><ele>1281.0</ele><time>2026-04-25T12:24:39.624Z</time></trkpt><trkpt lat="39.34217665764801" lon="16.37137195318571"><ele>1281.0</ele><time>2026-04-25T12:24:40.624Z</time></trkpt><trkpt lat="39.34232958141418" lon="16.371194092944275"><ele>1281.0</ele><time>2026-04-25T12:24:41.624Z</time></trkpt><trkpt lat="39.34248517364482" lon="16.37101556963388"><ele>1280.0</ele><time>2026-04-25T12:24:42.624Z</time></trkpt><trkpt lat="39.34263744160991" lon="16.37083934513094"><ele>1279.0</ele><time>2026-04-25T12:24:43.624Z</time></trkpt><trkpt lat="39.34277466821987" lon="16.370664818874307"><ele>1278.0</ele><time>2026-04-25T12:24:44.623Z</time></trkpt><trkpt lat="39.34289302980281" lon="16.370477621066485"><ele>1283.0</ele><time>2026-04-25T12:24:45.623Z</time></trkpt><trkpt lat="39.34299490083172" lon="16.370271573517197"><ele>1288.0</ele><time>2026-04-25T12:24:46.623Z</time></trkpt><trkpt lat="39.34307744867301" lon="16.370050169754336"><ele>1293.0</ele><time>2026-04-25T12:24:47.623Z</time></trkpt><trkpt lat="39.34314192321368" lon="16.369820309814294"><ele>1281.6666666666667</ele><time>2026-04-25T12:24:48.623Z</time></trkpt><trkpt lat="39.34318805975895" lon="16.369588093482157"><ele>1270.3333333333335</ele><time>2026-04-25T12:24:49.623Z</time></trkpt><trkpt lat="39.343213449401524" lon="16.36935931743165"><ele>1259.0</ele><time>2026-04-25T12:24:50.623Z</time></trkpt><trkpt lat="39.343221907738574" lon="16.369128004108944"><ele>1259.0</ele><time>2026-04-25T12:24:51.623Z</time></trkpt><trkpt lat="39.34320858405903" lon="16.368888606065244"><ele>1259.0</ele><time>2026-04-25T12:24:52.624Z</time></trkpt><trkpt lat="39.34318416747211" lon="16.36864617344318"><ele>1259.0</ele><time>2026-04-25T12:24:53.624Z</time></trkpt><trkpt lat="39.34315812490148" lon="16.368400752156102"><ele>1258.0</ele><time>2026-04-25T12:24:54.624Z</time></trkpt><trkpt lat="39.34313488273495" lon="16.36815471622693"><ele>1257.0</ele><time>2026-04-25T12:24:55.624Z</time></trkpt><trkpt lat="39.34311258496873" lon="16.367903595136195"><ele>1256.0</ele><time>2026-04-25T12:24:56.624Z</time></trkpt><trkpt lat="39.34309152046182" lon="16.367651058878266"><ele>1258.6666666666667</ele><time>2026-04-25T12:24:57.624Z</time></trkpt><trkpt lat="39.343067197582045" lon="16.367399325682133"><ele>1261.3333333333333</ele><time>2026-04-25T12:24:58.624Z</time></trkpt><trkpt lat="39.34304426336559" lon="16.36715801173915"><ele>1264.0</ele><time>2026-04-25T12:24:59.624Z</time></trkpt><trkpt lat="39.34301645560925" lon="16.366929723839505"><ele>1264.0</ele><time>2026-04-25T12:25:00.624Z</time></trkpt><trkpt lat="39.34298052054753" lon="16.366706261008353"><ele>1264.0</ele><time>2026-04-25T12:25:01.624Z</time></trkpt><trkpt lat="39.342925216375534" lon="16.366480213002642"><ele>1264.0</ele><time>2026-04-25T12:25:02.624Z</time></trkpt><trkpt lat="39.3428516095798" lon="16.366261017409304"><ele>1263.6666666666665</ele><time>2026-04-25T12:25:03.624Z</time></trkpt><trkpt lat="39.34275772341863" lon="16.366051327796878"><ele>1263.3333333333333</ele><time>2026-04-25T12:25:04.624Z</time></trkpt><trkpt lat="39.34264004000245" lon="16.365859074770917"><ele>1263.0</ele><time>2026-04-25T12:25:05.624Z</time></trkpt><trkpt lat="39.342512969798534" lon="16.365677661206817"><ele>1269.3333333333333</ele><time>2026-04-25T12:25:06.624Z</time></trkpt><trkpt lat="39.342374351610715" lon="16.365485982803374"><ele>1275.6666666666665</ele><time>2026-04-25T12:25:07.624Z</time></trkpt><trkpt lat="39.342221213737055" lon="16.365289255505633"><ele>1282.0</ele><time>2026-04-25T12:25:08.624Z</time></trkpt><trkpt lat="39.3420529201122" lon="16.365083684669532"><ele>1297.5</ele><time>2026-04-25T12:25:09.624Z</time></trkpt><trkpt lat="39.341891600225146" lon="16.364877266916103"><ele>1313.0</ele><time>2026-04-25T12:25:10.624Z</time></trkpt><trkpt lat="39.34173239823429" lon="16.364674377619842"><ele>1321.5</ele><time>2026-04-25T12:25:11.624Z</time></trkpt><trkpt lat="39.34157828341403" lon="16.364476303793555"><ele>1330.0</ele><time>2026-04-25T12:25:12.624Z</time></trkpt><trkpt lat="39.341413556185074" lon="16.364245300119556"><ele>1330.0</ele><time>2026-04-25T12:25:13.693Z</time></trkpt><trkpt lat="39.34124903034364" lon="16.364032574232695"><ele>1330.0</ele><time>2026-04-25T12:25:14.695Z</time></trkpt><trkpt lat="39.341086717039424" lon="16.363823241537542"><ele>1330.0</ele><time>2026-04-25T12:25:15.694Z</time></trkpt><trkpt lat="39.340924999856306" lon="16.363615677163708"><ele>1330.0</ele><time>2026-04-25T12:25:16.69Z</time></trkpt><trkpt lat="39.340761329922415" lon="16.363406198562643"><ele>1330.0</ele><time>2026-04-25T12:25:17.681Z</time></trkpt><trkpt lat="39.34059910112713" lon="16.3631982821122"><ele>1330.0</ele><time>2026-04-25T12:25:18.669Z</time></trkpt><trkpt lat="39.33878502963373" lon="16.361083336033015"><ele>1296.3333333333333</ele><time>2026-04-25T12:25:29.624Z</time></trkpt><trkpt lat="39.33862558867609" lon="16.360931422586642"><ele>1262.6666666666667</ele><time>2026-04-25T12:25:30.624Z</time></trkpt><trkpt lat="39.33852884336168" lon="16.360783054446888"><ele>1229.0</ele><time>2026-04-25T12:25:31.624Z</time></trkpt><trkpt lat="39.33836122626503" lon="16.360694437964842"><ele>1229.0</ele><time>2026-04-25T12:25:32.624Z</time></trkpt><trkpt lat="39.338177377929284" lon="16.360564719463724"><ele>1229.0</ele><time>2026-04-25T12:25:33.624Z</time></trkpt><trkpt lat="39.33799928711898" lon="16.36043657886024"><ele>1229.0</ele><time>2026-04-25T12:25:34.624Z</time></trkpt><trkpt lat="39.3378262554323" lon="16.36030677919198"><ele>1221.6666666666667</ele><time>2026-04-25T12:25:35.624Z</time></trkpt><trkpt lat="39.337650671285346" lon="16.360182495055316"><ele>1214.3333333333333</ele><time>2026-04-25T12:25:36.624Z</time></trkpt><trkpt lat="39.33748129563956" lon="16.360061971941413"><ele>1207.0</ele><time>2026-04-25T12:25:37.624Z</time></trkpt><trkpt lat="39.33730801423393" lon="16.359950870849502"><ele>1209.0</ele><time>2026-04-25T12:25:38.624Z</time></trkpt><trkpt lat="39.33713149203111" lon="16.359835921405313"><ele>1211.0</ele><time>2026-04-25T12:25:39.624Z</time></trkpt><trkpt lat="39.3369508625094" lon="16.35971732822865"><ele>1213.0</ele><time>2026-04-25T12:25:40.624Z</time></trkpt><trkpt lat="39.33677504342096" lon="16.359601864222682"><ele>1213.0</ele><time>2026-04-25T12:25:41.624Z</time></trkpt><trkpt lat="39.33659194503654" lon="16.359506542447438"><ele>1213.0</ele><time>2026-04-25T12:25:42.624Z</time></trkpt><trkpt lat="39.33639900416003" lon="16.35942527687211"><ele>1213.0</ele><time>2026-04-25T12:25:43.624Z</time></trkpt><trkpt lat="39.33620046117226" lon="16.35936052673256"><ele>1214.6666666666665</ele><time>2026-04-25T12:25:44.624Z</time></trkpt><trkpt lat="39.33600403896533" lon="16.35930596595236"><ele>1216.3333333333333</ele><time>2026-04-25T12:25:45.624Z</time></trkpt><trkpt lat="39.3357991608076" lon="16.35926919931079"><ele>1218.0</ele><time>2026-04-25T12:25:46.624Z</time></trkpt><trkpt lat="39.33559368919504" lon="16.35924567382786"><ele>1214.0</ele><time>2026-04-25T12:25:47.624Z</time></trkpt><trkpt lat="39.335387754997484" lon="16.359240812982605"><ele>1210.0</ele><time>2026-04-25T12:25:48.624Z</time></trkpt><trkpt lat="39.33518630800388" lon="16.359247077451723"><ele>1206.0</ele><time>2026-04-25T12:25:49.624Z</time></trkpt><trkpt lat="39.33498215610395" lon="16.359269256687337"><ele>1206.0</ele><time>2026-04-25T12:25:50.624Z</time></trkpt><trkpt lat="39.33477809748759" lon="16.35928981473207"><ele>1206.0</ele><time>2026-04-25T12:25:51.624Z</time></trkpt><trkpt lat="39.33458896942083" lon="16.35931394775532"><ele>1206.0</ele><time>2026-04-25T12:25:52.624Z</time></trkpt><trkpt lat="39.33440041939993" lon="16.359346817803786"><ele>1202.6666666666667</ele><time>2026-04-25T12:25:53.624Z</time></trkpt><trkpt lat="39.33421690084814" lon="16.359386640638334"><ele>1199.3333333333335</ele><time>2026-04-25T12:25:54.624Z</time></trkpt><trkpt lat="39.33404349786527" lon="16.35945319164312"><ele>1196.0</ele><time>2026-04-25T12:25:55.624Z</time></trkpt><trkpt lat="39.33387432798231" lon="16.359549336220624"><ele>1196.6666666666667</ele><time>2026-04-25T12:25:56.624Z</time></trkpt><trkpt lat="39.333706684353885" lon="16.359673811291128"><ele>1197.3333333333333</ele><time>2026-04-25T12:25:57.624Z</time></trkpt><trkpt lat="39.33356106418975" lon="16.359836174986288"><ele>1198.0</ele><time>2026-04-25T12:25:58.624Z</time></trkpt><trkpt lat="39.333427045052076" lon="16.359988797943362"><ele>1198.0</ele><time>2026-04-25T12:25:59.624Z</time></trkpt><trkpt lat="39.33331638708176" lon="16.360147177580135"><ele>1198.0</ele><time>2026-04-25T12:26:00.624Z</time></trkpt><trkpt lat="39.3332139425836" lon="16.36029854570927"><ele>1198.0</ele><time>2026-04-25T12:26:01.624Z</time></trkpt><trkpt lat="39.333124918113405" lon="16.360430022403065"><ele>1195.3333333333333</ele><time>2026-04-25T12:26:02.624Z</time></trkpt><trkpt lat="39.333048349884244" lon="16.360541017983817"><ele>1192.6666666666665</ele><time>2026-04-25T12:26:03.624Z</time></trkpt><trkpt lat="39.3329862823675" lon="16.360631063111647"><ele>1190.0</ele><time>2026-04-25T12:26:04.624Z</time></trkpt><trkpt lat="39.33294150883324" lon="16.360699154346587"><ele>1187.3333333333333</ele><time>2026-04-25T12:26:05.624Z</time></trkpt><trkpt lat="39.33289565669752" lon="16.36077235684504"><ele>1184.6666666666667</ele><time>2026-04-25T12:26:07.623Z</time></trkpt><trkpt lat="39.33285111839401" lon="16.360847326921707"><ele>1182.0</ele><time>2026-04-25T12:26:58.624Z</time></trkpt><trkpt lat="39.332796923091365" lon="16.360919595703095"><ele>1182.0</ele><time>2026-04-25T12:27:00.624Z</time></trkpt><trkpt lat="39.33274567367227" lon="16.360983055638975"><ele>1182.0</ele><time>2026-04-25T12:27:02.624Z</time></trkpt><trkpt lat="39.3326658596538" lon="16.361097247147637"><ele>1182.0</ele><time>2026-04-25T12:27:04.624Z</time></trkpt><trkpt lat="39.33260778173391" lon="16.361172785788884"><ele>1182.0</ele><time>2026-04-25T12:27:05.624Z</time></trkpt><trkpt lat="39.33253683983906" lon="16.36125420946974"><ele>1182.0</ele><time>2026-04-25T12:27:06.624Z</time></trkpt><trkpt lat="39.33245842719188" lon="16.361338381206092"><ele>1178.8</ele><time>2026-04-25T12:27:07.624Z</time></trkpt><trkpt lat="39.33237855376893" lon="16.36140852143261"><ele>1175.6</ele><time>2026-04-25T12:27:08.624Z</time></trkpt><trkpt lat="39.33229181094322" lon="16.361476492645053"><ele>1172.3999999999999</ele><time>2026-04-25T12:27:09.624Z</time></trkpt><trkpt lat="39.332195939665446" lon="16.361546654046492"><ele>1169.2</ele><time>2026-04-25T12:27:10.624Z</time></trkpt><trkpt lat="39.332089352074846" lon="16.361611580111024"><ele>1166.0</ele><time>2026-04-25T12:27:11.624Z</time></trkpt><trkpt lat="39.33197565014626" lon="16.36167019888552"><ele>1166.0</ele><time>2026-04-25T12:27:12.624Z</time></trkpt><trkpt lat="39.33186775980867" lon="16.36172051945456"><ele>1166.0</ele><time>2026-04-25T12:27:13.624Z</time></trkpt><trkpt lat="39.33175600424693" lon="16.361757064240056"><ele>1166.0</ele><time>2026-04-25T12:27:14.624Z</time></trkpt><trkpt lat="39.33163537638791" lon="16.36178440286411"><ele>1166.0</ele><time>2026-04-25T12:27:15.624Z</time></trkpt><trkpt lat="39.33150846872393" lon="16.361802259381804"><ele>1168.0</ele><time>2026-04-25T12:27:16.624Z</time></trkpt><trkpt lat="39.33137414902019" lon="16.361807213697077"><ele>1170.0</ele><time>2026-04-25T12:27:17.624Z</time></trkpt><trkpt lat="39.33123463763283" lon="16.361802060322002"><ele>1172.0</ele><time>2026-04-25T12:27:18.624Z</time></trkpt><trkpt lat="39.33109735791709" lon="16.361786361959833"><ele>1174.0</ele><time>2026-04-25T12:27:19.624Z</time></trkpt><trkpt lat="39.330966209076685" lon="16.36176272422382"><ele>1174.0</ele><time>2026-04-25T12:27:20.624Z</time></trkpt><trkpt lat="39.33083758210329" lon="16.361736192269785"><ele>1174.0</ele><time>2026-04-25T12:27:21.624Z</time></trkpt><trkpt lat="39.33070882160415" lon="16.36170843714671"><ele>1174.0</ele><time>2026-04-25T12:27:22.624Z</time></trkpt><trkpt lat="39.33056991881751" lon="16.361674944524097"><ele>1174.0</ele><time>2026-04-25T12:27:23.624Z</time></trkpt><trkpt lat="39.33043047526832" lon="16.361643103510815"><ele>1176.25</ele><time>2026-04-25T12:27:24.624Z</time></trkpt><trkpt lat="39.33029362619029" lon="16.36161211795973"><ele>1178.5</ele><time>2026-04-25T12:27:25.624Z</time></trkpt><trkpt lat="39.33015212590748" lon="16.36158048956352"><ele>1180.75</ele><time>2026-04-25T12:27:26.624Z</time></trkpt><trkpt lat="39.330011006021046" lon="16.36155128755125"><ele>1183.0</ele><time>2026-04-25T12:27:27.624Z</time></trkpt><trkpt lat="39.32986975591922" lon="16.36152161834309"><ele>1183.0</ele><time>2026-04-25T12:27:28.624Z</time></trkpt><trkpt lat="39.32973148587976" lon="16.361498151580864"><ele>1183.0</ele><time>2026-04-25T12:27:29.624Z</time></trkpt><trkpt lat="39.32958909861795" lon="16.361484210929763"><ele>1183.0</ele><time>2026-04-25T12:27:30.624Z</time></trkpt><trkpt lat="39.32943787835805" lon="16.361479677414977"><ele>1183.0</ele><time>2026-04-25T12:27:31.624Z</time></trkpt><trkpt lat="39.329287522164854" lon="16.361484928919428"><ele>1180.5</ele><time>2026-04-25T12:27:32.624Z</time></trkpt><trkpt lat="39.329134540127335" lon="16.36149582665439"><ele>1178.0</ele><time>2026-04-25T12:27:33.624Z</time></trkpt><trkpt lat="39.32898683459836" lon="16.361504128261988"><ele>1175.5</ele><time>2026-04-25T12:27:34.624Z</time></trkpt><trkpt lat="39.328838904103016" lon="16.361513803445177"><ele>1173.0</ele><time>2026-04-25T12:27:35.623Z</time></trkpt><trkpt lat="39.328697086888816" lon="16.36152316297671"><ele>1171.25</ele><time>2026-04-25T12:27:36.623Z</time></trkpt><trkpt lat="39.32855348786474" lon="16.36153577650433"><ele>1169.5</ele><time>2026-04-25T12:27:37.623Z</time></trkpt><trkpt lat="39.32840288385574" lon="16.36154461999129"><ele>1167.75</ele><time>2026-04-25T12:27:38.623Z</time></trkpt><trkpt lat="39.328249359232665" lon="16.36155704738821"><ele>1166.0</ele><time>2026-04-25T12:27:39.623Z</time></trkpt><trkpt lat="39.328087815414605" lon="16.361572340628836"><ele>1162.6666666666667</ele><time>2026-04-25T12:27:40.623Z</time></trkpt><trkpt lat="39.32793058594253" lon="16.361594191970887"><ele>1159.3333333333333</ele><time>2026-04-25T12:27:41.623Z</time></trkpt><trkpt lat="39.32776520321245" lon="16.36163161648477"><ele>1156.0</ele><time>2026-04-25T12:27:42.623Z</time></trkpt><trkpt lat="39.32760540620057" lon="16.361682572530537"><ele>1156.0</ele><time>2026-04-25T12:27:43.623Z</time></trkpt><trkpt lat="39.32745398620183" lon="16.361741811517398"><ele>1156.0</ele><time>2026-04-25T12:27:44.623Z</time></trkpt><trkpt lat="39.327299174994366" lon="16.36180975481612"><ele>1156.0</ele><time>2026-04-25T12:27:45.623Z</time></trkpt><trkpt lat="39.327137109488014" lon="16.361880201143578"><ele>1149.3333333333333</ele><time>2026-04-25T12:27:46.623Z</time></trkpt><trkpt lat="39.32697347002703" lon="16.36194986283026"><ele>1142.6666666666667</ele><time>2026-04-25T12:27:47.623Z</time></trkpt><trkpt lat="39.326802864870494" lon="16.362018171001203"><ele>1136.0</ele><time>2026-04-25T12:27:48.623Z</time></trkpt><trkpt lat="39.32663128719458" lon="16.36208629032744"><ele>1136.0</ele><time>2026-04-25T12:27:49.623Z</time></trkpt><trkpt lat="39.326465815568916" lon="16.362152302728603"><ele>1136.0</ele><time>2026-04-25T12:27:50.623Z</time></trkpt><trkpt lat="39.32630551279386" lon="16.362217061649527"><ele>1136.0</ele><time>2026-04-25T12:27:51.623Z</time></trkpt><trkpt lat="39.32613821063656" lon="16.362285637040756"><ele>1126.0</ele><time>2026-04-25T12:27:52.623Z</time></trkpt><trkpt lat="39.325965835027304" lon="16.36235808275425"><ele>1116.0</ele><time>2026-04-25T12:27:53.623Z</time></trkpt><trkpt lat="39.325791216573" lon="16.362429118795323"><ele>1106.0</ele><time>2026-04-25T12:27:54.623Z</time></trkpt><trkpt lat="39.32561417758494" lon="16.362499362925426"><ele>1100.6666666666667</ele><time>2026-04-25T12:27:55.623Z</time></trkpt><trkpt lat="39.325440382768676" lon="16.36256885807147"><ele>1095.3333333333333</ele><time>2026-04-25T12:27:56.623Z</time></trkpt><trkpt lat="39.32527011424924" lon="16.36263876817816"><ele>1090.0</ele><time>2026-04-25T12:27:57.623Z</time></trkpt><trkpt lat="39.32510305888689" lon="16.36270683511592"><ele>1090.0</ele><time>2026-04-25T12:27:58.623Z</time></trkpt><trkpt lat="39.32493866887913" lon="16.362777068432454"><ele>1090.0</ele><time>2026-04-25T12:27:59.623Z</time></trkpt><trkpt lat="39.324776590719" lon="16.36284229340493"><ele>1090.0</ele><time>2026-04-25T12:28:00.623Z</time></trkpt><trkpt lat="39.324617911454105" lon="16.3629091673345"><ele>1095.3333333333333</ele><time>2026-04-25T12:28:01.623Z</time></trkpt><trkpt lat="39.324454215562284" lon="16.362978932717844"><ele>1100.6666666666667</ele><time>2026-04-25T12:28:02.623Z</time></trkpt><trkpt lat="39.32428245928823" lon="16.3630491046299"><ele>1106.0</ele><time>2026-04-25T12:28:03.623Z</time></trkpt><trkpt lat="39.32410510027537" lon="16.36311878085229"><ele>1113.6666666666667</ele><time>2026-04-25T12:28:04.623Z</time></trkpt><trkpt lat="39.32393185365538" lon="16.36318840939085"><ele>1121.3333333333333</ele><time>2026-04-25T12:28:05.623Z</time></trkpt><trkpt lat="39.32376650624367" lon="16.363261632296464"><ele>1129.0</ele><time>2026-04-25T12:28:06.623Z</time></trkpt><trkpt lat="39.32360942829733" lon="16.36334712070271"><ele>1129.0</ele><time>2026-04-25T12:28:07.623Z</time></trkpt><trkpt lat="39.323461030535626" lon="16.36345177029446"><ele>1129.0</ele><time>2026-04-25T12:28:08.623Z</time></trkpt><trkpt lat="39.32332306551637" lon="16.36357456276335"><ele>1129.0</ele><time>2026-04-25T12:28:09.623Z</time></trkpt><trkpt lat="39.32319808547415" lon="16.36371159060358"><ele>1129.0</ele><time>2026-04-25T12:28:10.623Z</time></trkpt><trkpt lat="39.323085556663706" lon="16.36386325043506"><ele>1129.0</ele><time>2026-04-25T12:28:11.623Z</time></trkpt><trkpt lat="39.32298305001524" lon="16.364029828857376"><ele>1129.0</ele><time>2026-04-25T12:28:12.623Z</time></trkpt><trkpt lat="39.32288618427889" lon="16.36421144632931"><ele>1127.3333333333333</ele><time>2026-04-25T12:28:13.623Z</time></trkpt><trkpt lat="39.322800552245326" lon="16.364411468304326"><ele>1125.6666666666667</ele><time>2026-04-25T12:28:14.623Z</time></trkpt><trkpt lat="39.322735981863" lon="16.364630039893814"><ele>1124.0</ele><time>2026-04-25T12:28:15.623Z</time></trkpt><trkpt lat="39.32267391650712" lon="16.364858054844333"><ele>1124.0</ele><time>2026-04-25T12:28:16.623Z</time></trkpt><trkpt lat="39.32261547048669" lon="16.365089447981227"><ele>1124.0</ele><time>2026-04-25T12:28:17.623Z</time></trkpt><trkpt lat="39.322559200084584" lon="16.36531373028402"><ele>1124.0</ele><time>2026-04-25T12:28:18.623Z</time></trkpt><trkpt lat="39.32250049624265" lon="16.365537747763135"><ele>1125.6666666666667</ele><time>2026-04-25T12:28:19.623Z</time></trkpt><trkpt lat="39.322442063502315" lon="16.365758170340616"><ele>1127.3333333333333</ele><time>2026-04-25T12:28:20.623Z</time></trkpt><trkpt lat="39.32238253467291" lon="16.36598295351249"><ele>1129.0</ele><time>2026-04-25T12:28:21.623Z</time></trkpt><trkpt lat="39.32232261894948" lon="16.366216818445018"><ele>1131.6666666666665</ele><time>2026-04-25T12:28:22.623Z</time></trkpt><trkpt lat="39.32226118489632" lon="16.36645528380897"><ele>1134.3333333333333</ele><time>2026-04-25T12:28:23.623Z</time></trkpt><trkpt lat="39.32219985433746" lon="16.366687766420576"><ele>1137.0</ele><time>2026-04-25T12:28:24.623Z</time></trkpt><trkpt lat="39.322138844740714" lon="16.3669188964629"><ele>1124.3333333333333</ele><time>2026-04-25T12:28:25.623Z</time></trkpt><trkpt lat="39.32207918142639" lon="16.367153642805206"><ele>1111.6666666666665</ele><time>2026-04-25T12:28:26.623Z</time></trkpt><trkpt lat="39.3220234233843" lon="16.36738911847245"><ele>1099.0</ele><time>2026-04-25T12:28:27.623Z</time></trkpt><trkpt lat="39.321966570640406" lon="16.367623590004296"><ele>1099.0</ele><time>2026-04-25T12:28:28.623Z</time></trkpt><trkpt lat="39.32190911717433" lon="16.36785226568764"><ele>1099.0</ele><time>2026-04-25T12:28:29.623Z</time></trkpt><trkpt lat="39.32184767950573" lon="16.368075681391854"><ele>1099.0</ele><time>2026-04-25T12:28:30.623Z</time></trkpt><trkpt lat="39.32177790779321" lon="16.368294234069857"><ele>1100.3333333333333</ele><time>2026-04-25T12:28:31.623Z</time></trkpt><trkpt lat="39.321693316538955" lon="16.368506473892253"><ele>1101.6666666666667</ele><time>2026-04-25T12:28:32.623Z</time></trkpt><trkpt lat="39.32159124111201" lon="16.368713735817025"><ele>1103.0</ele><time>2026-04-25T12:28:33.623Z</time></trkpt><trkpt lat="39.32147562335285" lon="16.368906905414047"><ele>1096.6666666666667</ele><time>2026-04-25T12:28:34.623Z</time></trkpt><trkpt lat="39.32134907106903" lon="16.36907762375203"><ele>1090.3333333333333</ele><time>2026-04-25T12:28:35.623Z</time></trkpt><trkpt lat="39.32121017440262" lon="16.36922930558623"><ele>1084.0</ele><time>2026-04-25T12:28:36.623Z</time></trkpt><trkpt lat="39.321059726943346" lon="16.369361643803273"><ele>1084.0</ele><time>2026-04-25T12:28:37.623Z</time></trkpt><trkpt lat="39.32089879544905" lon="16.369464316653303"><ele>1084.0</ele><time>2026-04-25T12:28:38.623Z</time></trkpt><trkpt lat="39.32073049003756" lon="16.36955151916446"><ele>1084.0</ele><time>2026-04-25T12:28:39.623Z</time></trkpt><trkpt lat="39.320549330948396" lon="16.369621717110732"><ele>1077.0</ele><time>2026-04-25T12:28:40.623Z</time></trkpt><trkpt lat="39.32036870801181" lon="16.36966777734703"><ele>1070.0</ele><time>2026-04-25T12:28:41.623Z</time></trkpt><trkpt lat="39.320185067175025" lon="16.369697077562556"><ele>1063.0</ele><time>2026-04-25T12:28:42.623Z</time></trkpt><trkpt lat="39.31999920677" lon="16.369683554272832"><ele>1067.0</ele><time>2026-04-25T12:28:43.623Z</time></trkpt><trkpt lat="39.31981624045476" lon="16.36965709256321"><ele>1071.0</ele><time>2026-04-25T12:28:44.623Z</time></trkpt><trkpt lat="39.31963209218186" lon="16.36960548303588"><ele>1075.0</ele><time>2026-04-25T12:28:45.623Z</time></trkpt><trkpt lat="39.319450852576146" lon="16.36952321063859"><ele>1075.0</ele><time>2026-04-25T12:28:46.623Z</time></trkpt><trkpt lat="39.31927530456595" lon="16.3694138221063"><ele>1075.0</ele><time>2026-04-25T12:28:47.623Z</time></trkpt><trkpt lat="39.319111717207704" lon="16.36928186598112"><ele>1075.0</ele><time>2026-04-25T12:28:48.623Z</time></trkpt><trkpt lat="39.318968925963105" lon="16.36913134398769"><ele>1085.0</ele><time>2026-04-25T12:28:49.623Z</time></trkpt><trkpt lat="39.318835547319885" lon="16.36896271840791"><ele>1095.0</ele><time>2026-04-25T12:28:50.623Z</time></trkpt><trkpt lat="39.31871293611558" lon="16.368776023497766"><ele>1105.0</ele><time>2026-04-25T12:28:51.623Z</time></trkpt><trkpt lat="39.3186005702293" lon="16.368569294088665"><ele>1105.0</ele><time>2026-04-25T12:28:52.623Z</time></trkpt><trkpt lat="39.31850662446061" lon="16.368350352172207"><ele>1105.0</ele><time>2026-04-25T12:28:53.623Z</time></trkpt><trkpt lat="39.31843394325975" lon="16.368115161703233"><ele>1105.0</ele><time>2026-04-25T12:28:54.623Z</time></trkpt><trkpt lat="39.31838116821707" lon="16.367873859100953"><ele>1097.6666666666665</ele><time>2026-04-25T12:28:55.623Z</time></trkpt><trkpt lat="39.31834200712855" lon="16.367634019223292"><ele>1090.3333333333333</ele><time>2026-04-25T12:28:56.623Z</time></trkpt><trkpt lat="39.3183021225915" lon="16.36739310045417"><ele>1083.0</ele><time>2026-04-25T12:28:57.623Z</time></trkpt><trkpt lat="39.31825799135022" lon="16.36714654949099"><ele>1077.6666666666667</ele><time>2026-04-25T12:28:58.623Z</time></trkpt><trkpt lat="39.31820980989842" lon="16.366894195842093"><ele>1072.3333333333335</ele><time>2026-04-25T12:28:59.623Z</time></trkpt><trkpt lat="39.318158570556896" lon="16.366642961765372"><ele>1067.0</ele><time>2026-04-25T12:29:00.623Z</time></trkpt><trkpt lat="39.318107307884" lon="16.366398830884464"><ele>1081.6666666666667</ele><time>2026-04-25T12:29:01.623Z</time></trkpt><trkpt lat="39.31805904145836" lon="16.366163796794464"><ele>1096.3333333333333</ele><time>2026-04-25T12:29:02.623Z</time></trkpt><trkpt lat="39.3180126243235" lon="16.36593097420582"><ele>1111.0</ele><time>2026-04-25T12:29:03.623Z</time></trkpt><trkpt lat="39.31797018892673" lon="16.365697703758325"><ele>1107.6666666666665</ele><time>2026-04-25T12:29:04.623Z</time></trkpt><trkpt lat="39.31792682284786" lon="16.365464182534996"><ele>1104.3333333333333</ele><time>2026-04-25T12:29:05.623Z</time></trkpt><trkpt lat="39.3178804754654" lon="16.365237248316717"><ele>1101.0</ele><time>2026-04-25T12:29:06.623Z</time></trkpt><trkpt lat="39.317829319517685" lon="16.3650012685136"><ele>1101.0</ele><time>2026-04-25T12:29:07.623Z</time></trkpt><trkpt lat="39.31776569181321" lon="16.364735982227735"><ele>1101.0</ele><time>2026-04-25T12:29:08.623Z</time></trkpt><trkpt lat="39.31769295025946" lon="16.36446751772441"><ele>1101.0</ele><time>2026-04-25T12:29:09.623Z</time></trkpt><trkpt lat="39.31761657669918" lon="16.36422191418387"><ele>1096.0</ele><time>2026-04-25T12:29:10.623Z</time></trkpt><trkpt lat="39.31754336364792" lon="16.36398511831477"><ele>1091.0</ele><time>2026-04-25T12:29:11.623Z</time></trkpt><trkpt lat="39.3174706920278" lon="16.363756840631066"><ele>1086.0</ele><time>2026-04-25T12:29:12.623Z</time></trkpt><trkpt lat="39.317401621920474" lon="16.36353083385679"><ele>1083.0</ele><time>2026-04-25T12:29:13.623Z</time></trkpt><trkpt lat="39.31733063735414" lon="16.363311870762626"><ele>1080.0</ele><time>2026-04-25T12:29:14.623Z</time></trkpt><trkpt lat="39.31726309748384" lon="16.36309825331357"><ele>1077.0</ele><time>2026-04-25T12:29:15.623Z</time></trkpt><trkpt lat="39.31720204062187" lon="16.362888927516273"><ele>1077.0</ele><time>2026-04-25T12:29:16.623Z</time></trkpt><trkpt lat="39.31714697971941" lon="16.36267946818336"><ele>1077.0</ele><time>2026-04-25T12:29:17.623Z</time></trkpt><trkpt lat="39.31709992095726" lon="16.3624443808301"><ele>1077.0</ele><time>2026-04-25T12:29:18.623Z</time></trkpt><trkpt lat="39.31707307245109" lon="16.36218990186249"><ele>1077.6666666666667</ele><time>2026-04-25T12:29:19.623Z</time></trkpt><trkpt lat="39.31706965981649" lon="16.361946281030797"><ele>1078.3333333333335</ele><time>2026-04-25T12:29:20.623Z</time></trkpt><trkpt lat="39.317085273553005" lon="16.361713971571714"><ele>1079.0</ele><time>2026-04-25T12:29:21.623Z</time></trkpt><trkpt lat="39.317134222739696" lon="16.361489216238603"><ele>1078.6666666666667</ele><time>2026-04-25T12:29:22.623Z</time></trkpt><trkpt lat="39.317170906165174" lon="16.361258674249886"><ele>1078.3333333333333</ele><time>2026-04-25T12:29:23.623Z</time></trkpt><trkpt lat="39.31724304069281" lon="16.36102934223034"><ele>1078.0</ele><time>2026-04-25T12:29:24.623Z</time></trkpt><trkpt lat="39.31731815590692" lon="16.360791504465336"><ele>1070.6666666666665</ele><time>2026-04-25T12:29:25.623Z</time></trkpt><trkpt lat="39.317393541971406" lon="16.36055203711504"><ele>1063.3333333333333</ele><time>2026-04-25T12:29:26.623Z</time></trkpt><trkpt lat="39.31746735671801" lon="16.360313329939924"><ele>1056.0</ele><time>2026-04-25T12:29:27.623Z</time></trkpt><trkpt lat="39.31753941061841" lon="16.36008341638366"><ele>1056.0</ele><time>2026-04-25T12:29:28.623Z</time></trkpt><trkpt lat="39.31760451979446" lon="16.35985648829305"><ele>1056.0</ele><time>2026-04-25T12:29:29.623Z</time></trkpt><trkpt lat="39.317664746504065" lon="16.359631645632643"><ele>1056.0</ele><time>2026-04-25T12:29:30.623Z</time></trkpt><trkpt lat="39.31771582634799" lon="16.359408079386487"><ele>1057.0</ele><time>2026-04-25T12:29:31.623Z</time></trkpt><trkpt lat="39.317749221441474" lon="16.359174359727533"><ele>1058.0</ele><time>2026-04-25T12:29:32.623Z</time></trkpt><trkpt lat="39.317760574025776" lon="16.35892973340144"><ele>1059.0</ele><time>2026-04-25T12:29:33.623Z</time></trkpt><trkpt lat="39.31775353519023" lon="16.3586720015556"><ele>1057.0</ele><time>2026-04-25T12:29:34.623Z</time></trkpt><trkpt lat="39.31772788240675" lon="16.358416951135894"><ele>1055.0</ele><time>2026-04-25T12:29:35.623Z</time></trkpt><trkpt lat="39.317675061948215" lon="16.35816246673144"><ele>1053.0</ele><time>2026-04-25T12:29:36.623Z</time></trkpt><trkpt lat="39.317593996766384" lon="16.357915480079175"><ele>1048.6666666666667</ele><time>2026-04-25T12:29:37.623Z</time></trkpt><trkpt lat="39.317493284779225" lon="16.357679846403595"><ele>1044.3333333333335</ele><time>2026-04-25T12:29:38.623Z</time></trkpt><trkpt lat="39.31737526661124" lon="16.35745465164751"><ele>1040.0</ele><time>2026-04-25T12:29:39.623Z</time></trkpt><trkpt lat="39.31723706416303" lon="16.35724696875552"><ele>1037.0</ele><time>2026-04-25T12:29:40.623Z</time></trkpt><trkpt lat="39.317080229361515" lon="16.357057645370375"><ele>1034.0</ele><time>2026-04-25T12:29:41.623Z</time></trkpt><trkpt lat="39.31690394423886" lon="16.356897868895615"><ele>1031.0</ele><time>2026-04-25T12:29:42.623Z</time></trkpt><trkpt lat="39.316711669347164" lon="16.356765704566556"><ele>1031.0</ele><time>2026-04-25T12:29:43.623Z</time></trkpt><trkpt lat="39.316505213997765" lon="16.356662895868674"><ele>1031.0</ele><time>2026-04-25T12:29:44.623Z</time></trkpt><trkpt lat="39.31629366553686" lon="16.356586161232073"><ele>1031.0</ele><time>2026-04-25T12:29:45.623Z</time></trkpt><trkpt lat="39.31608761440492" lon="16.35653234223494"><ele>1032.0</ele><time>2026-04-25T12:29:46.623Z</time></trkpt><trkpt lat="39.31587633939795" lon="16.356479339945885"><ele>1033.0</ele><time>2026-04-25T12:29:47.623Z</time></trkpt><trkpt lat="39.315671305943496" lon="16.356416706421964"><ele>1034.0</ele><time>2026-04-25T12:29:48.623Z</time></trkpt><trkpt lat="39.315469016298934" lon="16.356345003921238"><ele>1021.3333333333334</ele><time>2026-04-25T12:29:49.623Z</time></trkpt><trkpt lat="39.31526258772527" lon="16.35627563636987"><ele>1008.6666666666667</ele><time>2026-04-25T12:29:50.623Z</time></trkpt><trkpt lat="39.31504964652806" lon="16.356210073955502"><ele>996.0</ele><time>2026-04-25T12:29:51.623Z</time></trkpt><trkpt lat="39.31484400734466" lon="16.35614025772747"><ele>992.6666666666667</ele><time>2026-04-25T12:29:52.623Z</time></trkpt><trkpt lat="39.314642390073594" lon="16.35606785486092"><ele>989.3333333333334</ele><time>2026-04-25T12:29:53.623Z</time></trkpt><trkpt lat="39.314442520999904" lon="16.35600385801431"><ele>986.0</ele><time>2026-04-25T12:29:54.623Z</time></trkpt><trkpt lat="39.31423938325814" lon="16.355939613888477"><ele>986.0</ele><time>2026-04-25T12:29:55.623Z</time></trkpt><trkpt lat="39.314040365560835" lon="16.35587501719092"><ele>986.0</ele><time>2026-04-25T12:29:56.623Z</time></trkpt><trkpt lat="39.31385787521612" lon="16.35580009956163"><ele>986.0</ele><time>2026-04-25T12:29:57.623Z</time></trkpt><trkpt lat="39.31367156573218" lon="16.355711291166493"><ele>988.6666666666667</ele><time>2026-04-25T12:29:58.623Z</time></trkpt><trkpt lat="39.31348751649143" lon="16.355617881237873"><ele>991.3333333333333</ele><time>2026-04-25T12:29:59.623Z</time></trkpt><trkpt lat="39.31329931333649" lon="16.355523683202918"><ele>994.0</ele><time>2026-04-25T12:30:00.623Z</time></trkpt><trkpt lat="39.31310833913967" lon="16.35542899100079"><ele>1002.3333333333333</ele><time>2026-04-25T12:30:01.623Z</time></trkpt><trkpt lat="39.312917505725814" lon="16.35533329433037"><ele>1010.6666666666667</ele><time>2026-04-25T12:30:02.623Z</time></trkpt><trkpt lat="39.31272552753321" lon="16.35523591099303"><ele>1019.0</ele><time>2026-04-25T12:30:03.623Z</time></trkpt><trkpt lat="39.312521460476326" lon="16.35515244051669"><ele>1019.0</ele><time>2026-04-25T12:30:04.623Z</time></trkpt><trkpt lat="39.31232073450205" lon="16.35504696586605"><ele>1019.0</ele><time>2026-04-25T12:30:05.623Z</time></trkpt><trkpt lat="39.31210954378074" lon="16.354940525742112"><ele>1019.0</ele><time>2026-04-25T12:30:06.623Z</time></trkpt><trkpt lat="39.31191442232362" lon="16.354842184436446"><ele>1019.0</ele><time>2026-04-25T12:30:07.623Z</time></trkpt><trkpt lat="39.31171927282657" lon="16.35474382920656"><ele>1019.0</ele><time>2026-04-25T12:30:08.623Z</time></trkpt><trkpt lat="39.311524180344115" lon="16.354645472924087"><ele>1019.0</ele><time>2026-04-25T12:30:09.623Z</time></trkpt><trkpt lat="39.31138743349292" lon="16.354576494421348"><ele>1006.0</ele><time>2026-04-25T12:30:10.623Z</time></trkpt><trkpt lat="39.31115740788934" lon="16.354467795625492"><ele>993.0</ele><time>2026-04-25T12:30:11.623Z</time></trkpt><trkpt lat="39.31095221513069" lon="16.354353647861004"><ele>993.0</ele><time>2026-04-25T12:30:12.623Z</time></trkpt><trkpt lat="39.31077234881737" lon="16.354254192889726"><ele>993.0</ele><time>2026-04-25T12:30:13.623Z</time></trkpt><trkpt lat="39.310584460376845" lon="16.354157131005188"><ele>993.0</ele><time>2026-04-25T12:30:14.623Z</time></trkpt><trkpt lat="39.31039780874817" lon="16.35406112403385"><ele>995.3333333333333</ele><time>2026-04-25T12:30:15.623Z</time></trkpt><trkpt lat="39.31020262817574" lon="16.353969716242084"><ele>997.6666666666666</ele><time>2026-04-25T12:30:16.623Z</time></trkpt><trkpt lat="39.310005801546396" lon="16.353888982927216"><ele>1000.0</ele><time>2026-04-25T12:30:17.623Z</time></trkpt><trkpt lat="39.30980576201879" lon="16.35381866261048"><ele>997.3333333333333</ele><time>2026-04-25T12:30:18.623Z</time></trkpt><trkpt lat="39.3096004772828" lon="16.353767770113443"><ele>994.6666666666667</ele><time>2026-04-25T12:30:19.623Z</time></trkpt><trkpt lat="39.30939428494059" lon="16.353741623687057"><ele>992.0</ele><time>2026-04-25T12:30:20.623Z</time></trkpt><trkpt lat="39.30918945843311" lon="16.353731392852595"><ele>992.0</ele><time>2026-04-25T12:30:21.623Z</time></trkpt><trkpt lat="39.30898216981641" lon="16.353739819339825"><ele>992.0</ele><time>2026-04-25T12:30:22.623Z</time></trkpt><trkpt lat="39.30877388505915" lon="16.353735871139715"><ele>992.0</ele><time>2026-04-25T12:30:23.623Z</time></trkpt><trkpt lat="39.30856302122661" lon="16.353734010234405"><ele>997.0</ele><time>2026-04-25T12:30:24.623Z</time></trkpt><trkpt lat="39.308349268958395" lon="16.353812109600945"><ele>1002.0</ele><time>2026-04-25T12:30:25.623Z</time></trkpt><trkpt lat="39.30812612396057" lon="16.35384180870805"><ele>1007.0</ele><time>2026-04-25T12:30:26.623Z</time></trkpt><trkpt lat="39.30790176987043" lon="16.35387224807497"><ele>1016.5</ele><time>2026-04-25T12:30:27.623Z</time></trkpt><trkpt lat="39.30766118107941" lon="16.353904575684396"><ele>1026.0</ele><time>2026-04-25T12:30:28.687Z</time></trkpt><trkpt lat="39.30743559207939" lon="16.35393730380441"><ele>972.0</ele><time>2026-04-25T12:30:29.687Z</time></trkpt><trkpt lat="39.304597223777634" lon="16.354169621765987"><ele>972.0</ele><time>2026-04-25T12:30:41.623Z</time></trkpt><trkpt lat="39.304379485298035" lon="16.3541882359204"><ele>972.0</ele><time>2026-04-25T12:30:42.622Z</time></trkpt><trkpt lat="39.30412971904547" lon="16.354200548377243"><ele>972.0</ele><time>2026-04-25T12:30:43.622Z</time></trkpt><trkpt lat="39.303932242888195" lon="16.35420406902428"><ele>972.0</ele><time>2026-04-25T12:30:44.622Z</time></trkpt><trkpt lat="39.30373208649424" lon="16.354242915171035"><ele>972.0</ele><time>2026-04-25T12:30:45.622Z</time></trkpt><trkpt lat="39.30353415217761" lon="16.354289472712736"><ele>972.0</ele><time>2026-04-25T12:30:46.622Z</time></trkpt><trkpt lat="39.303341315507055" lon="16.35436924510688"><ele>972.0</ele><time>2026-04-25T12:30:47.622Z</time></trkpt><trkpt lat="39.30316449310531" lon="16.35447844923805"><ele>972.0</ele><time>2026-04-25T12:30:48.622Z</time></trkpt><trkpt lat="39.3030011951532" lon="16.354607811707925"><ele>967.6666666666667</ele><time>2026-04-25T12:30:49.622Z</time></trkpt><trkpt lat="39.30284348645838" lon="16.354754967434346"><ele>963.3333333333334</ele><time>2026-04-25T12:30:50.622Z</time></trkpt><trkpt lat="39.30268764438392" lon="16.354904447432048"><ele>959.0</ele><time>2026-04-25T12:30:51.622Z</time></trkpt><trkpt lat="39.302527292278796" lon="16.35505096656204"><ele>959.0</ele><time>2026-04-25T12:30:52.622Z</time></trkpt><trkpt lat="39.30236551196453" lon="16.35518120271967"><ele>959.0</ele><time>2026-04-25T12:30:53.622Z</time></trkpt><trkpt lat="39.30219871430849" lon="16.35530279322694"><ele>959.0</ele><time>2026-04-25T12:30:54.622Z</time></trkpt><trkpt lat="39.302024992543316" lon="16.355413758018557"><ele>956.0</ele><time>2026-04-25T12:30:55.622Z</time></trkpt><trkpt lat="39.30184469394513" lon="16.355517313790152"><ele>953.0</ele><time>2026-04-25T12:30:56.622Z</time></trkpt><trkpt lat="39.301659876134984" lon="16.355611778684935"><ele>950.0</ele><time>2026-04-25T12:30:57.622Z</time></trkpt><trkpt lat="39.30147063320975" lon="16.355695849289145"><ele>950.0</ele><time>2026-04-25T12:30:58.622Z</time></trkpt><trkpt lat="39.30127860869051" lon="16.355761298025318"><ele>950.0</ele><time>2026-04-25T12:30:59.622Z</time></trkpt><trkpt lat="39.301087749115396" lon="16.35581067010605"><ele>950.0</ele><time>2026-04-25T12:31:00.622Z</time></trkpt><trkpt lat="39.300897629025776" lon="16.35584437503272"><ele>950.0</ele><time>2026-04-25T12:31:01.622Z</time></trkpt><trkpt lat="39.30070392392033" lon="16.355867851367993"><ele>950.0</ele><time>2026-04-25T12:31:02.622Z</time></trkpt><trkpt lat="39.300508753919495" lon="16.35587759606556"><ele>950.0</ele><time>2026-04-25T12:31:03.622Z</time></trkpt><trkpt lat="39.30031389725842" lon="16.355881461490046"><ele>949.3333333333334</ele><time>2026-04-25T12:31:04.622Z</time></trkpt><trkpt lat="39.30011609141904" lon="16.355889192826808"><ele>948.6666666666667</ele><time>2026-04-25T12:31:05.622Z</time></trkpt><trkpt lat="39.29991686636112" lon="16.355901154253207"><ele>948.0</ele><time>2026-04-25T12:31:06.622Z</time></trkpt><trkpt lat="39.299715294026036" lon="16.355905856928153"><ele>943.0</ele><time>2026-04-25T12:31:07.622Z</time></trkpt><trkpt lat="39.29951607992316" lon="16.35589548640775"><ele>938.0</ele><time>2026-04-25T12:31:08.622Z</time></trkpt><trkpt lat="39.29932157180192" lon="16.35587050353687"><ele>933.0</ele><time>2026-04-25T12:31:09.623Z</time></trkpt><trkpt lat="39.2991372181536" lon="16.355826964409488"><ele>933.0</ele><time>2026-04-25T12:31:10.623Z</time></trkpt><trkpt lat="39.29895598406227" lon="16.35575876790326"><ele>933.0</ele><time>2026-04-25T12:31:11.623Z</time></trkpt><trkpt lat="39.29877712814455" lon="16.355670700257395"><ele>933.0</ele><time>2026-04-25T12:31:12.623Z</time></trkpt><trkpt lat="39.29860140962013" lon="16.35556339759557"><ele>935.0</ele><time>2026-04-25T12:31:13.623Z</time></trkpt><trkpt lat="39.29842182322874" lon="16.355449256731017"><ele>937.0</ele><time>2026-04-25T12:31:14.623Z</time></trkpt><trkpt lat="39.298241050070516" lon="16.355340859133303"><ele>939.0</ele><time>2026-04-25T12:31:15.623Z</time></trkpt><trkpt lat="39.29805822606868" lon="16.3552317671167"><ele>932.6666666666667</ele><time>2026-04-25T12:31:16.623Z</time></trkpt><trkpt lat="39.297870960850325" lon="16.355125455333862"><ele>926.3333333333334</ele><time>2026-04-25T12:31:17.623Z</time></trkpt><trkpt lat="39.29768220528985" lon="16.35502116793959"><ele>920.0</ele><time>2026-04-25T12:31:18.623Z</time></trkpt><trkpt lat="39.29749733812252" lon="16.354924802821223"><ele>920.0</ele><time>2026-04-25T12:31:19.623Z</time></trkpt><trkpt lat="39.297316862811265" lon="16.35484680594683"><ele>920.0</ele><time>2026-04-25T12:31:20.623Z</time></trkpt><trkpt lat="39.29713126625968" lon="16.354789444465524"><ele>920.0</ele><time>2026-04-25T12:31:21.623Z</time></trkpt><trkpt lat="39.296935189785074" lon="16.354763528452086"><ele>916.3333333333334</ele><time>2026-04-25T12:31:22.623Z</time></trkpt><trkpt lat="39.296736920566936" lon="16.354760292307457"><ele>912.6666666666667</ele><time>2026-04-25T12:31:23.623Z</time></trkpt><trkpt lat="39.29653365948608" lon="16.35477079970297"><ele>909.0</ele><time>2026-04-25T12:31:24.623Z</time></trkpt><trkpt lat="39.296331725327065" lon="16.3547809752587"><ele>907.6666666666667</ele><time>2026-04-25T12:31:25.623Z</time></trkpt><trkpt lat="39.296142782205266" lon="16.354783764853675"><ele>906.3333333333334</ele><time>2026-04-25T12:31:26.623Z</time></trkpt><trkpt lat="39.2959578368899" lon="16.354783609280847"><ele>905.0</ele><time>2026-04-25T12:31:27.623Z</time></trkpt><trkpt lat="39.29577211012927" lon="16.354778394818297"><ele>907.0</ele><time>2026-04-25T12:31:28.623Z</time></trkpt><trkpt lat="39.29558192010107" lon="16.354760989681854"><ele>909.0</ele><time>2026-04-25T12:31:29.623Z</time></trkpt><trkpt lat="39.29538595444984" lon="16.354713408364834"><ele>911.0</ele><time>2026-04-25T12:31:30.623Z</time></trkpt><trkpt lat="39.29519492361791" lon="16.3546325301675"><ele>911.0</ele><time>2026-04-25T12:31:31.623Z</time></trkpt><trkpt lat="39.2950090225259" lon="16.354524298646954"><ele>911.0</ele><time>2026-04-25T12:31:32.623Z</time></trkpt><trkpt lat="39.29484532578533" lon="16.354393576198362"><ele>911.0</ele><time>2026-04-25T12:31:33.623Z</time></trkpt><trkpt lat="39.29471920909052" lon="16.354216874908605"><ele>901.6666666666667</ele><time>2026-04-25T12:31:34.623Z</time></trkpt><trkpt lat="39.29460801225971" lon="16.354029846408455"><ele>892.3333333333333</ele><time>2026-04-25T12:31:35.623Z</time></trkpt><trkpt lat="39.294488945212585" lon="16.353840266586687"><ele>883.0</ele><time>2026-04-25T12:31:36.623Z</time></trkpt><trkpt lat="39.29440216203231" lon="16.353620759516556"><ele>883.0</ele><time>2026-04-25T12:31:37.623Z</time></trkpt><trkpt lat="39.29431495903023" lon="16.353390238623835"><ele>883.0</ele><time>2026-04-25T12:31:38.623Z</time></trkpt><trkpt lat="39.29423573109368" lon="16.353145772529544"><ele>883.0</ele><time>2026-04-25T12:31:39.623Z</time></trkpt><trkpt lat="39.294162248291244" lon="16.352898216436785"><ele>887.0</ele><time>2026-04-25T12:31:40.623Z</time></trkpt><trkpt lat="39.294086059749716" lon="16.352644785492217"><ele>891.0</ele><time>2026-04-25T12:31:41.623Z</time></trkpt><trkpt lat="39.294010289957214" lon="16.352401829076587"><ele>895.0</ele><time>2026-04-25T12:31:42.623Z</time></trkpt><trkpt lat="39.29393716926983" lon="16.352173244819152"><ele>892.3333333333333</ele><time>2026-04-25T12:31:43.623Z</time></trkpt><trkpt lat="39.293852378092986" lon="16.351953799238853"><ele>889.6666666666667</ele><time>2026-04-25T12:31:44.623Z</time></trkpt><trkpt lat="39.29374886225254" lon="16.351735647588907"><ele>887.0</ele><time>2026-04-25T12:31:45.623Z</time></trkpt><trkpt lat="39.293618642138846" lon="16.35153481812625"><ele>893.6666666666667</ele><time>2026-04-25T12:31:46.623Z</time></trkpt><trkpt lat="39.29346719838756" lon="16.35135450981234"><ele>900.3333333333333</ele><time>2026-04-25T12:31:47.623Z</time></trkpt><trkpt lat="39.2932951772732" lon="16.351194744539896"><ele>907.0</ele><time>2026-04-25T12:31:48.623Z</time></trkpt><trkpt lat="39.293098775114544" lon="16.351058561923725"><ele>893.5</ele><time>2026-04-25T12:31:49.623Z</time></trkpt><trkpt lat="39.2928983558496" lon="16.350925850773727"><ele>880.0</ele><time>2026-04-25T12:31:50.623Z</time></trkpt><trkpt lat="39.292697714496434" lon="16.350785832805123"><ele>880.0</ele><time>2026-04-25T12:31:51.623Z</time></trkpt><trkpt lat="39.292510611931505" lon="16.35064877213713"><ele>880.0</ele><time>2026-04-25T12:31:52.623Z</time></trkpt><trkpt lat="39.29233342116151" lon="16.35051556522781"><ele>880.0</ele><time>2026-04-25T12:31:53.623Z</time></trkpt><trkpt lat="39.29216393138672" lon="16.35038508169396"><ele>873.3333333333333</ele><time>2026-04-25T12:31:54.623Z</time></trkpt><trkpt lat="39.29199312456664" lon="16.35025867633984"><ele>866.6666666666667</ele><time>2026-04-25T12:31:55.623Z</time></trkpt><trkpt lat="39.29182061923547" lon="16.35013714011553"><ele>860.0</ele><time>2026-04-25T12:31:56.623Z</time></trkpt><trkpt lat="39.291647813395166" lon="16.350013322359132"><ele>860.0</ele><time>2026-04-25T12:31:57.623Z</time></trkpt><trkpt lat="39.29147577488168" lon="16.349891185939804"><ele>860.0</ele><time>2026-04-25T12:31:58.623Z</time></trkpt><trkpt lat="39.291302675914174" lon="16.349769082523814"><ele>860.0</ele><time>2026-04-25T12:31:59.623Z</time></trkpt><trkpt lat="39.2911299901808" lon="16.34964816883386"><ele>857.6666666666667</ele><time>2026-04-25T12:32:00.623Z</time></trkpt><trkpt lat="39.29095770590269" lon="16.34952362339387"><ele>855.3333333333333</ele><time>2026-04-25T12:32:01.623Z</time></trkpt><trkpt lat="39.29078757998193" lon="16.349398038107108"><ele>853.0</ele><time>2026-04-25T12:32:02.623Z</time></trkpt><trkpt lat="39.290621169024035" lon="16.349281036420532"><ele>850.3333333333333</ele><time>2026-04-25T12:32:03.623Z</time></trkpt><trkpt lat="39.29045386713292" lon="16.349153958518706"><ele>847.6666666666667</ele><time>2026-04-25T12:32:04.623Z</time></trkpt><trkpt lat="39.29029738293548" lon="16.34903802017487"><ele>845.0</ele><time>2026-04-25T12:32:05.623Z</time></trkpt><trkpt lat="39.29014556482143" lon="16.34891606727732"><ele>846.6666666666667</ele><time>2026-04-25T12:32:06.623Z</time></trkpt><trkpt lat="39.28999894679811" lon="16.34878556318272"><ele>848.3333333333333</ele><time>2026-04-25T12:32:07.623Z</time></trkpt><trkpt lat="39.28985854762128" lon="16.348635201323983"><ele>850.0</ele><time>2026-04-25T12:32:08.623Z</time></trkpt><trkpt lat="39.289745674754265" lon="16.348439357547058"><ele>850.0</ele><time>2026-04-25T12:32:09.623Z</time></trkpt><trkpt lat="39.28964059278387" lon="16.348233415556226"><ele>850.0</ele><time>2026-04-25T12:32:10.623Z</time></trkpt><trkpt lat="39.28956155474984" lon="16.3480196494055"><ele>850.0</ele><time>2026-04-25T12:32:11.622Z</time></trkpt><trkpt lat="39.28950656957268" lon="16.347796815874183"><ele>852.3333333333333</ele><time>2026-04-25T12:32:12.622Z</time></trkpt><trkpt lat="39.289474749909864" lon="16.34758339477817"><ele>854.6666666666667</ele><time>2026-04-25T12:32:13.622Z</time></trkpt><trkpt lat="39.289463053035554" lon="16.347360310496512"><ele>857.0</ele><time>2026-04-25T12:32:14.622Z</time></trkpt><trkpt lat="39.28947110498011" lon="16.347130309969366"><ele>852.3333333333334</ele><time>2026-04-25T12:32:15.622Z</time></trkpt><trkpt lat="39.28949834336407" lon="16.34690472461526"><ele>847.6666666666667</ele><time>2026-04-25T12:32:16.622Z</time></trkpt><trkpt lat="39.289553338472984" lon="16.346693324364615"><ele>843.0</ele><time>2026-04-25T12:32:17.622Z</time></trkpt><trkpt lat="39.289627102855896" lon="16.346483922606883"><ele>840.3333333333333</ele><time>2026-04-25T12:32:18.622Z</time></trkpt><trkpt lat="39.28972201629599" lon="16.346294774411803"><ele>837.6666666666666</ele><time>2026-04-25T12:32:19.622Z</time></trkpt><trkpt lat="39.28982167486578" lon="16.346103325604098"><ele>835.0</ele><time>2026-04-25T12:32:20.622Z</time></trkpt><trkpt lat="39.289953534581045" lon="16.345947970453498"><ele>835.0</ele><time>2026-04-25T12:32:21.622Z</time></trkpt><trkpt lat="39.290108771346645" lon="16.34580284049329"><ele>835.0</ele><time>2026-04-25T12:32:22.622Z</time></trkpt><trkpt lat="39.290278353649974" lon="16.34568198589252"><ele>835.0</ele><time>2026-04-25T12:32:23.622Z</time></trkpt><trkpt lat="39.29046839412164" lon="16.345615983457815"><ele>838.0</ele><time>2026-04-25T12:32:24.622Z</time></trkpt><trkpt lat="39.290667869248715" lon="16.345547318633074"><ele>841.0</ele><time>2026-04-25T12:32:25.622Z</time></trkpt><trkpt lat="39.29087330596406" lon="16.34548392881541"><ele>844.0</ele><time>2026-04-25T12:32:26.622Z</time></trkpt><trkpt lat="39.29108648012877" lon="16.345451819870913"><ele>839.3333333333333</ele><time>2026-04-25T12:32:27.622Z</time></trkpt><trkpt lat="39.291298511895654" lon="16.345415958609514"><ele>834.6666666666667</ele><time>2026-04-25T12:32:28.622Z</time></trkpt><trkpt lat="39.29150588671421" lon="16.345382195091187"><ele>830.0</ele><time>2026-04-25T12:32:29.622Z</time></trkpt><trkpt lat="39.29170447241669" lon="16.34535038069284"><ele>830.0</ele><time>2026-04-25T12:32:30.622Z</time></trkpt><trkpt lat="39.29190038654991" lon="16.34532212535797"><ele>830.0</ele><time>2026-04-25T12:32:31.622Z</time></trkpt><trkpt lat="39.29209801053321" lon="16.34529099154515"><ele>830.0</ele><time>2026-04-25T12:32:32.622Z</time></trkpt><trkpt lat="39.29230503288975" lon="16.345266339474648"><ele>834.0</ele><time>2026-04-25T12:32:33.622Z</time></trkpt><trkpt lat="39.29251303438875" lon="16.345243633955675"><ele>838.0</ele><time>2026-04-25T12:32:34.622Z</time></trkpt><trkpt lat="39.29272644496875" lon="16.345224214373086"><ele>842.0</ele><time>2026-04-25T12:32:35.622Z</time></trkpt><trkpt lat="39.29296018583423" lon="16.345180155582078"><ele>838.0</ele><time>2026-04-25T12:32:36.622Z</time></trkpt><trkpt lat="39.29312929556419" lon="16.3451256858404"><ele>834.0</ele><time>2026-04-25T12:32:37.622Z</time></trkpt><trkpt lat="39.293353173069804" lon="16.345093455696013"><ele>830.0</ele><time>2026-04-25T12:32:38.622Z</time></trkpt><trkpt lat="39.293562381182205" lon="16.34506646494149"><ele>830.0</ele><time>2026-04-25T12:32:39.622Z</time></trkpt><trkpt lat="39.293779017702974" lon="16.345034144489514"><ele>830.0</ele><time>2026-04-25T12:32:40.622Z</time></trkpt><trkpt lat="39.29399867356595" lon="16.344992622653006"><ele>830.0</ele><time>2026-04-25T12:32:41.622Z</time></trkpt><trkpt lat="39.294199998907644" lon="16.34496351579988"><ele>830.3333333333334</ele><time>2026-04-25T12:32:42.622Z</time></trkpt><trkpt lat="39.29440866976202" lon="16.344928260375337"><ele>830.6666666666667</ele><time>2026-04-25T12:32:43.622Z</time></trkpt><trkpt lat="39.29461989782126" lon="16.344891106278403"><ele>831.0</ele><time>2026-04-25T12:32:44.622Z</time></trkpt><trkpt lat="39.29482946150424" lon="16.344855995815017"><ele>833.3333333333333</ele><time>2026-04-25T12:32:45.622Z</time></trkpt><trkpt lat="39.29503006430549" lon="16.34482442720735"><ele>835.6666666666666</ele><time>2026-04-25T12:32:46.622Z</time></trkpt><trkpt lat="39.295226528430696" lon="16.344795114027598"><ele>838.0</ele><time>2026-04-25T12:32:47.622Z</time></trkpt><trkpt lat="39.29541789114601" lon="16.344767255632398"><ele>838.0</ele><time>2026-04-25T12:32:48.622Z</time></trkpt><trkpt lat="39.295610292547615" lon="16.344734372490226"><ele>838.0</ele><time>2026-04-25T12:32:49.622Z</time></trkpt><trkpt lat="39.29579404265248" lon="16.344705543588404"><ele>838.0</ele><time>2026-04-25T12:32:50.622Z</time></trkpt><trkpt lat="39.29597364557935" lon="16.344676766218257"><ele>830.0</ele><time>2026-04-25T12:32:51.622Z</time></trkpt><trkpt lat="39.296149706998115" lon="16.34464969765324"><ele>822.0</ele><time>2026-04-25T12:32:52.622Z</time></trkpt><trkpt lat="39.296311858098065" lon="16.344614369759764"><ele>814.0</ele><time>2026-04-25T12:32:53.622Z</time></trkpt><trkpt lat="39.296473177381245" lon="16.34456216071069"><ele>814.0</ele><time>2026-04-25T12:32:54.622Z</time></trkpt><trkpt lat="39.296627230134135" lon="16.344493711368568"><ele>814.0</ele><time>2026-04-25T12:32:55.622Z</time></trkpt><trkpt lat="39.29675906808123" lon="16.344390954624334"><ele>814.0</ele><time>2026-04-25T12:32:56.622Z</time></trkpt><trkpt lat="39.29686866812963" lon="16.34425932127959"><ele>814.0</ele><time>2026-04-25T12:32:57.622Z</time></trkpt><trkpt lat="39.29695845879013" lon="16.34409122907355"><ele>814.0</ele><time>2026-04-25T12:32:58.622Z</time></trkpt><trkpt lat="39.29704573655151" lon="16.34391973279267"><ele>814.0</ele><time>2026-04-25T12:32:59.622Z</time></trkpt><trkpt lat="39.297126052832496" lon="16.34374992258842"><ele>811.75</ele><time>2026-04-25T12:33:00.622Z</time></trkpt><trkpt lat="39.29719766792823" lon="16.343586970271744"><ele>809.5</ele><time>2026-04-25T12:33:01.622Z</time></trkpt><trkpt lat="39.29727097441565" lon="16.343436276102388"><ele>807.25</ele><time>2026-04-25T12:33:02.622Z</time></trkpt><trkpt lat="39.29735004685749" lon="16.34329360800855"><ele>805.0</ele><time>2026-04-25T12:33:03.622Z</time></trkpt><trkpt lat="39.29744024247993" lon="16.343170416392834"><ele>805.5</ele><time>2026-04-25T12:33:04.622Z</time></trkpt><trkpt lat="39.297539088926015" lon="16.34306198289899"><ele>806.0</ele><time>2026-04-25T12:33:05.622Z</time></trkpt><trkpt lat="39.29764193529892" lon="16.342963571412877"><ele>806.5</ele><time>2026-04-25T12:33:06.622Z</time></trkpt><trkpt lat="39.29775391165969" lon="16.342871273748003"><ele>807.0</ele><time>2026-04-25T12:33:07.622Z</time></trkpt><trkpt lat="39.29786942901415" lon="16.34277882840536"><ele>807.0</ele><time>2026-04-25T12:33:08.622Z</time></trkpt><trkpt lat="39.29799313861179" lon="16.342685921367"><ele>807.0</ele><time>2026-04-25T12:33:09.622Z</time></trkpt><trkpt lat="39.298116451853836" lon="16.342593589383327"><ele>807.0</ele><time>2026-04-25T12:33:10.622Z</time></trkpt><trkpt lat="39.29822130491941" lon="16.342494597975605"><ele>807.0</ele><time>2026-04-25T12:33:11.622Z</time></trkpt><trkpt lat="39.29831499280779" lon="16.34238692290444"><ele>804.6</ele><time>2026-04-25T12:33:12.622Z</time></trkpt><trkpt lat="39.29839759675255" lon="16.342273744561854"><ele>802.2</ele><time>2026-04-25T12:33:13.622Z</time></trkpt><trkpt lat="39.29848402774153" lon="16.342186445436784"><ele>799.8</ele><time>2026-04-25T12:33:14.622Z</time></trkpt><trkpt lat="39.298577325392465" lon="16.342138095215034"><ele>797.4</ele><time>2026-04-25T12:33:15.623Z</time></trkpt><trkpt lat="39.29867633809421" lon="16.342127171077102"><ele>795.0</ele><time>2026-04-25T12:33:16.623Z</time></trkpt><trkpt lat="39.29878287427363" lon="16.342147003525376"><ele>795.0</ele><time>2026-04-25T12:33:17.623Z</time></trkpt><trkpt lat="39.29889854638123" lon="16.342171877226235"><ele>795.0</ele><time>2026-04-25T12:33:18.623Z</time></trkpt><trkpt lat="39.299010515437544" lon="16.342196842591477"><ele>795.0</ele><time>2026-04-25T12:33:19.623Z</time></trkpt><trkpt lat="39.299116798618996" lon="16.342220741487992"><ele>795.0</ele><time>2026-04-25T12:33:20.623Z</time></trkpt><trkpt lat="39.29922831018063" lon="16.342236631928316"><ele>796.25</ele><time>2026-04-25T12:33:21.623Z</time></trkpt><trkpt lat="39.299343565346646" lon="16.342235962993897"><ele>797.5</ele><time>2026-04-25T12:33:22.623Z</time></trkpt><trkpt lat="39.29945925256057" lon="16.34221935868136"><ele>798.75</ele><time>2026-04-25T12:33:23.623Z</time></trkpt><trkpt lat="39.29957321749464" lon="16.342184972028864"><ele>800.0</ele><time>2026-04-25T12:33:24.623Z</time></trkpt><trkpt lat="39.29968425563269" lon="16.342121840356466"><ele>803.5</ele><time>2026-04-25T12:33:25.623Z</time></trkpt><trkpt lat="39.2998044953785" lon="16.342048235221302"><ele>807.0</ele><time>2026-04-25T12:33:26.623Z</time></trkpt><trkpt lat="39.299918795896495" lon="16.341931827130885"><ele>810.5</ele><time>2026-04-25T12:33:27.623Z</time></trkpt><trkpt lat="39.30002232592763" lon="16.3417815107563"><ele>814.0</ele><time>2026-04-25T12:33:28.623Z</time></trkpt><trkpt lat="39.30011752720931" lon="16.341637378169576"><ele>814.0</ele><time>2026-04-25T12:33:29.623Z</time></trkpt><trkpt lat="39.30020820093114" lon="16.34149621670385"><ele>814.0</ele><time>2026-04-25T12:33:30.623Z</time></trkpt><trkpt lat="39.30028968794214" lon="16.34136771423653"><ele>814.0</ele><time>2026-04-25T12:33:31.623Z</time></trkpt><trkpt lat="39.30036966600092" lon="16.341242679404566"><ele>814.0</ele><time>2026-04-25T12:33:32.623Z</time></trkpt><trkpt lat="39.300451453759756" lon="16.34112136455243"><ele>814.25</ele><time>2026-04-25T12:33:33.623Z</time></trkpt><trkpt lat="39.30053906267671" lon="16.341014028663395"><ele>814.5</ele><time>2026-04-25T12:33:34.623Z</time></trkpt><trkpt lat="39.30064339011666" lon="16.340911107014453"><ele>814.75</ele><time>2026-04-25T12:33:35.623Z</time></trkpt><trkpt lat="39.300734264291556" lon="16.340816583197864"><ele>815.0</ele><time>2026-04-25T12:33:36.623Z</time></trkpt><trkpt lat="39.30084165964658" lon="16.340770303660012"><ele>815.0</ele><time>2026-04-25T12:33:37.623Z</time></trkpt><trkpt lat="39.30096025787937" lon="16.340744254947587"><ele>815.0</ele><time>2026-04-25T12:33:38.623Z</time></trkpt><trkpt lat="39.301083209186466" lon="16.340723549785906"><ele>815.0</ele><time>2026-04-25T12:33:39.623Z</time></trkpt><trkpt lat="39.30122131661749" lon="16.340689491598468"><ele>815.0</ele><time>2026-04-25T12:33:40.623Z</time></trkpt><trkpt lat="39.301347348406736" lon="16.340677875002665"><ele>816.0</ele><time>2026-04-25T12:33:41.622Z</time></trkpt><trkpt lat="39.301474459112164" lon="16.340654008268807"><ele>817.0</ele><time>2026-04-25T12:33:42.622Z</time></trkpt><trkpt lat="39.30159777774206" lon="16.34063008258568"><ele>818.0</ele><time>2026-04-25T12:33:43.622Z</time></trkpt><trkpt lat="39.301714293758984" lon="16.340607476707586"><ele>819.0</ele><time>2026-04-25T12:33:44.622Z</time></trkpt><trkpt lat="39.30182512701023" lon="16.34058597297482"><ele>819.0</ele><time>2026-04-25T12:33:45.622Z</time></trkpt><trkpt lat="39.30193626717057" lon="16.34056171418538"><ele>819.0</ele><time>2026-04-25T12:33:46.622Z</time></trkpt><trkpt lat="39.30205834335063" lon="16.34053598099083"><ele>819.0</ele><time>2026-04-25T12:33:47.622Z</time></trkpt><trkpt lat="39.30219687156176" lon="16.340507915956547"><ele>819.0</ele><time>2026-04-25T12:33:48.622Z</time></trkpt><trkpt lat="39.30233957853998" lon="16.340479095284184"><ele>812.75</ele><time>2026-04-25T12:33:49.622Z</time></trkpt><trkpt lat="39.30245335879437" lon="16.340456116596027"><ele>806.5</ele><time>2026-04-25T12:33:50.622Z</time></trkpt><trkpt lat="39.30257761234781" lon="16.34042702906218"><ele>800.25</ele><time>2026-04-25T12:33:51.622Z</time></trkpt><trkpt lat="39.302699511615316" lon="16.34038558152468"><ele>794.0</ele><time>2026-04-25T12:33:52.622Z</time></trkpt><trkpt lat="39.30282440270311" lon="16.34033541858199"><ele>794.0</ele><time>2026-04-25T12:33:53.622Z</time></trkpt><trkpt lat="39.30294192120223" lon="16.34027787347184"><ele>794.0</ele><time>2026-04-25T12:33:54.622Z</time></trkpt><trkpt lat="39.30305931663226" lon="16.34019794382605"><ele>794.0</ele><time>2026-04-25T12:33:55.622Z</time></trkpt><trkpt lat="39.303160070883365" lon="16.340124441515616"><ele>794.0</ele><time>2026-04-25T12:33:56.622Z</time></trkpt><trkpt lat="39.303267233421856" lon="16.340023761449736"><ele>794.5</ele><time>2026-04-25T12:33:57.622Z</time></trkpt><trkpt lat="39.30337207524203" lon="16.339930828420325"><ele>795.0</ele><time>2026-04-25T12:33:58.622Z</time></trkpt><trkpt lat="39.30349323843782" lon="16.33985704413385"><ele>795.5</ele><time>2026-04-25T12:33:59.622Z</time></trkpt><trkpt lat="39.30360684155161" lon="16.339773384442864"><ele>796.0</ele><time>2026-04-25T12:34:00.622Z</time></trkpt><trkpt lat="39.30372210300832" lon="16.339700700222647"><ele>793.0</ele><time>2026-04-25T12:34:01.622Z</time></trkpt><trkpt lat="39.30383739791524" lon="16.339649157499302"><ele>790.0</ele><time>2026-04-25T12:34:02.622Z</time></trkpt><trkpt lat="39.30394633475685" lon="16.33961364949155"><ele>787.0</ele><time>2026-04-25T12:34:03.622Z</time></trkpt><trkpt lat="39.30405883454541" lon="16.33959004235808"><ele>784.0</ele><time>2026-04-25T12:34:04.622Z</time></trkpt><trkpt lat="39.30417402760361" lon="16.339575850474354"><ele>784.0</ele><time>2026-04-25T12:34:05.621Z</time></trkpt><trkpt lat="39.304287331041095" lon="16.339579950315123"><ele>784.0</ele><time>2026-04-25T12:34:06.621Z</time></trkpt><trkpt lat="39.30440137950902" lon="16.339607156014967"><ele>784.0</ele><time>2026-04-25T12:34:07.621Z</time></trkpt><trkpt lat="39.30450045915487" lon="16.339684215699208"><ele>784.0</ele><time>2026-04-25T12:34:08.621Z</time></trkpt><trkpt lat="39.304594604574206" lon="16.33978346912898"><ele>783.0</ele><time>2026-04-25T12:34:09.621Z</time></trkpt><trkpt lat="39.30467966808578" lon="16.33991503861931"><ele>782.0</ele><time>2026-04-25T12:34:10.621Z</time></trkpt><trkpt lat="39.30475809134406" lon="16.34007417073717"><ele>781.0</ele><time>2026-04-25T12:34:11.621Z</time></trkpt><trkpt lat="39.30483995116063" lon="16.34024090082441"><ele>780.0</ele><time>2026-04-25T12:34:12.621Z</time></trkpt><trkpt lat="39.304928720177486" lon="16.340396298220718"><ele>781.25</ele><time>2026-04-25T12:34:13.621Z</time></trkpt><trkpt lat="39.305004051389766" lon="16.340560809284213"><ele>782.5</ele><time>2026-04-25T12:34:14.621Z</time></trkpt><trkpt lat="39.305080764386325" lon="16.340719263808438"><ele>783.75</ele><time>2026-04-25T12:34:15.621Z</time></trkpt><trkpt lat="39.30515745015454" lon="16.34087955266"><ele>785.0</ele><time>2026-04-25T12:34:16.621Z</time></trkpt><trkpt lat="39.30523258311114" lon="16.341042358965545"><ele>785.0</ele><time>2026-04-25T12:34:17.621Z</time></trkpt><trkpt lat="39.3053087296385" lon="16.341210390488627"><ele>785.0</ele><time>2026-04-25T12:34:18.621Z</time></trkpt><trkpt lat="39.305388951282715" lon="16.34137480503234"><ele>785.0</ele><time>2026-04-25T12:34:19.621Z</time></trkpt><trkpt lat="39.30546858348395" lon="16.341539827474605"><ele>785.3333333333334</ele><time>2026-04-25T12:34:20.621Z</time></trkpt><trkpt lat="39.305549838571594" lon="16.341707407570016"><ele>785.6666666666667</ele><time>2026-04-25T12:34:21.621Z</time></trkpt><trkpt lat="39.30562878427097" lon="16.341876841274843"><ele>786.0</ele><time>2026-04-25T12:34:22.621Z</time></trkpt><trkpt lat="39.30571532568299" lon="16.342048010588634"><ele>788.5</ele><time>2026-04-25T12:34:23.621Z</time></trkpt><trkpt lat="39.305800371157886" lon="16.342217955279033"><ele>791.0</ele><time>2026-04-25T12:34:24.621Z</time></trkpt><trkpt lat="39.30587943497696" lon="16.342372555478768"><ele>793.5</ele><time>2026-04-25T12:34:25.621Z</time></trkpt><trkpt lat="39.305971404409604" lon="16.342508452013767"><ele>796.0</ele><time>2026-04-25T12:34:26.621Z</time></trkpt><trkpt lat="39.306083979205525" lon="16.34262386820819"><ele>796.0</ele><time>2026-04-25T12:34:27.621Z</time></trkpt><trkpt lat="39.30620683703314" lon="16.342713314559077"><ele>796.0</ele><time>2026-04-25T12:34:28.621Z</time></trkpt><trkpt lat="39.306343701193455" lon="16.342771503381194"><ele>796.0</ele><time>2026-04-25T12:34:29.621Z</time></trkpt><trkpt lat="39.30648844676089" lon="16.34279612921058"><ele>796.0</ele><time>2026-04-25T12:34:30.621Z</time></trkpt><trkpt lat="39.30663354557777" lon="16.34278127519554"><ele>791.3333333333333</ele><time>2026-04-25T12:34:31.621Z</time></trkpt><trkpt lat="39.30677439618001" lon="16.342729472744143"><ele>786.6666666666667</ele><time>2026-04-25T12:34:32.621Z</time></trkpt><trkpt lat="39.306910533260655" lon="16.342646946986907"><ele>782.0</ele><time>2026-04-25T12:34:33.621Z</time></trkpt><trkpt lat="39.30704005187892" lon="16.34252698628314"><ele>782.0</ele><time>2026-04-25T12:34:34.621Z</time></trkpt><trkpt lat="39.307154220059005" lon="16.342375278619404"><ele>782.0</ele><time>2026-04-25T12:34:35.621Z</time></trkpt><trkpt lat="39.30725629081831" lon="16.34221423061689"><ele>782.0</ele><time>2026-04-25T12:34:36.621Z</time></trkpt><trkpt lat="39.30736384862481" lon="16.342056122389128"><ele>780.75</ele><time>2026-04-25T12:34:37.621Z</time></trkpt><trkpt lat="39.307466564523786" lon="16.341928709876186"><ele>779.5</ele><time>2026-04-25T12:34:38.621Z</time></trkpt><trkpt lat="39.307570781458345" lon="16.34179362912862"><ele>778.25</ele><time>2026-04-25T12:34:39.621Z</time></trkpt><trkpt lat="39.307657509236904" lon="16.34164767228554"><ele>777.0</ele><time>2026-04-25T12:34:40.621Z</time></trkpt><trkpt lat="39.30771530444551" lon="16.341484548133092"><ele>774.5</ele><time>2026-04-25T12:34:41.621Z</time></trkpt><trkpt lat="39.30775678510247" lon="16.341306512860204"><ele>772.0</ele><time>2026-04-25T12:34:42.621Z</time></trkpt><trkpt lat="39.307779506412224" lon="16.341128981906543"><ele>769.5</ele><time>2026-04-25T12:34:43.621Z</time></trkpt><trkpt lat="39.307806729741394" lon="16.340947746260706"><ele>767.0</ele><time>2026-04-25T12:34:44.621Z</time></trkpt><trkpt lat="39.307842680282796" lon="16.340766731124372"><ele>767.0</ele><time>2026-04-25T12:34:45.621Z</time></trkpt><trkpt lat="39.307884608965665" lon="16.340599284362167"><ele>767.0</ele><time>2026-04-25T12:34:46.621Z</time></trkpt><trkpt lat="39.30793785121367" lon="16.34043359670516"><ele>767.0</ele><time>2026-04-25T12:34:47.621Z</time></trkpt><trkpt lat="39.3080100739896" lon="16.340281839325527"><ele>767.0</ele><time>2026-04-25T12:34:48.621Z</time></trkpt><trkpt lat="39.30809428033413" lon="16.340158160789333"><ele>767.5</ele><time>2026-04-25T12:34:49.621Z</time></trkpt><trkpt lat="39.308204455805914" lon="16.34006110745949"><ele>768.0</ele><time>2026-04-25T12:34:50.621Z</time></trkpt><trkpt lat="39.30830565216072" lon="16.339978484997232"><ele>768.5</ele><time>2026-04-25T12:34:51.621Z</time></trkpt><trkpt lat="39.30840579227544" lon="16.33992001206067"><ele>769.0</ele><time>2026-04-25T12:34:52.621Z</time></trkpt><trkpt lat="39.30849825072513" lon="16.339895289596374"><ele>769.0</ele><time>2026-04-25T12:34:53.621Z</time></trkpt><trkpt lat="39.30861169409073" lon="16.339870724575704"><ele>769.0</ele><time>2026-04-25T12:34:54.621Z</time></trkpt><trkpt lat="39.30879182146971" lon="16.339836537686118"><ele>769.0</ele><time>2026-04-25T12:34:55.621Z</time></trkpt><trkpt lat="39.308910777228924" lon="16.339814394166574"><ele>769.0</ele><time>2026-04-25T12:34:56.621Z</time></trkpt><trkpt lat="39.30907445324902" lon="16.339755429681027"><ele>767.3333333333333</ele><time>2026-04-25T12:34:57.621Z</time></trkpt><trkpt lat="39.30921359090631" lon="16.33976991608742"><ele>765.6666666666666</ele><time>2026-04-25T12:34:58.621Z</time></trkpt><trkpt lat="39.30939854675912" lon="16.339709117960037"><ele>764.0</ele><time>2026-04-25T12:34:59.621Z</time></trkpt><trkpt lat="39.309546873056846" lon="16.339680020732803"><ele>759.6666666666666</ele><time>2026-04-25T12:35:00.621Z</time></trkpt><trkpt lat="39.30969713305093" lon="16.339643314644917"><ele>755.3333333333334</ele><time>2026-04-25T12:35:01.621Z</time></trkpt><trkpt lat="39.30985161184665" lon="16.339611359956155"><ele>751.0</ele><time>2026-04-25T12:35:02.621Z</time></trkpt><trkpt lat="39.31000043634019" lon="16.33958163587395"><ele>751.0</ele><time>2026-04-25T12:35:03.621Z</time></trkpt><trkpt lat="39.31015349122378" lon="16.33955357299618"><ele>751.0</ele><time>2026-04-25T12:35:04.621Z</time></trkpt><trkpt lat="39.310305832218816" lon="16.33952615931109"><ele>751.0</ele><time>2026-04-25T12:35:05.621Z</time></trkpt><trkpt lat="39.31046126544279" lon="16.339503296733774"><ele>754.0</ele><time>2026-04-25T12:35:06.621Z</time></trkpt><trkpt lat="39.31062087015162" lon="16.339461905342116"><ele>757.0</ele><time>2026-04-25T12:35:07.621Z</time></trkpt><trkpt lat="39.310781627680115" lon="16.339451241327914"><ele>760.0</ele><time>2026-04-25T12:35:08.621Z</time></trkpt><trkpt lat="39.31093880678516" lon="16.339398920446516"><ele>760.0</ele><time>2026-04-25T12:35:09.621Z</time></trkpt><trkpt lat="39.311063657942775" lon="16.339478163177855"><ele>760.0</ele><time>2026-04-25T12:35:10.621Z</time></trkpt><trkpt lat="39.31122554136911" lon="16.339344432887636"><ele>760.0</ele><time>2026-04-25T12:35:11.621Z</time></trkpt><trkpt lat="39.3114010754089" lon="16.33931939778279"><ele>757.3333333333334</ele><time>2026-04-25T12:35:12.621Z</time></trkpt><trkpt lat="39.31156381810704" lon="16.339299245985607"><ele>754.6666666666666</ele><time>2026-04-25T12:35:13.621Z</time></trkpt><trkpt lat="39.3117287605123" lon="16.339266606197512"><ele>752.0</ele><time>2026-04-25T12:35:14.621Z</time></trkpt><trkpt lat="39.31189414170423" lon="16.339233879588058"><ele>752.0</ele><time>2026-04-25T12:35:15.621Z</time></trkpt><trkpt lat="39.31205983864499" lon="16.33919927708744"><ele>752.0</ele><time>2026-04-25T12:35:16.621Z</time></trkpt><trkpt lat="39.3122253590678" lon="16.339161943724925"><ele>752.0</ele><time>2026-04-25T12:35:17.621Z</time></trkpt><trkpt lat="39.31238866678445" lon="16.33910749640036"><ele>747.3333333333333</ele><time>2026-04-25T12:35:18.621Z</time></trkpt><trkpt lat="39.31254541914401" lon="16.33907190360744"><ele>742.6666666666666</ele><time>2026-04-25T12:35:19.621Z</time></trkpt><trkpt lat="39.3127092899746" lon="16.339029411536675"><ele>738.0</ele><time>2026-04-25T12:35:20.62Z</time></trkpt><trkpt lat="39.31287670661062" lon="16.338973432899795"><ele>738.0</ele><time>2026-04-25T12:35:21.621Z</time></trkpt><trkpt lat="39.31304371512925" lon="16.33891459490767"><ele>738.0</ele><time>2026-04-25T12:35:22.621Z</time></trkpt><trkpt lat="39.313213401945696" lon="16.338847227695286"><ele>738.0</ele><time>2026-04-25T12:35:23.621Z</time></trkpt><trkpt lat="39.31338227181124" lon="16.338780801667895"><ele>721.6666666666666</ele><time>2026-04-25T12:35:24.621Z</time></trkpt><trkpt lat="39.313551417112606" lon="16.33871660019647"><ele>705.3333333333333</ele><time>2026-04-25T12:35:25.621Z</time></trkpt><trkpt lat="39.31371038240873" lon="16.338657964700385"><ele>689.0</ele><time>2026-04-25T12:35:26.621Z</time></trkpt><trkpt lat="39.313860007082035" lon="16.338593103475578"><ele>683.3333333333333</ele><time>2026-04-25T12:35:27.621Z</time></trkpt><trkpt lat="39.31401546277267" lon="16.33852760092271"><ele>677.6666666666666</ele><time>2026-04-25T12:35:28.621Z</time></trkpt><trkpt lat="39.31416441941851" lon="16.338467306109592"><ele>672.0</ele><time>2026-04-25T12:35:29.621Z</time></trkpt><trkpt lat="39.3143075543341" lon="16.33840803411608"><ele>672.0</ele><time>2026-04-25T12:35:30.621Z</time></trkpt><trkpt lat="39.31444732249402" lon="16.338346797966036"><ele>672.0</ele><time>2026-04-25T12:35:31.621Z</time></trkpt><trkpt lat="39.31458740023784" lon="16.3382872007108"><ele>672.0</ele><time>2026-04-25T12:35:32.621Z</time></trkpt><trkpt lat="39.31471867582524" lon="16.338237445740145"><ele>672.0</ele><time>2026-04-25T12:35:33.621Z</time></trkpt><trkpt lat="39.314853115276804" lon="16.338186157818747"><ele>678.3333333333334</ele><time>2026-04-25T12:35:34.621Z</time></trkpt><trkpt lat="39.315000245866344" lon="16.3381258586022"><ele>684.6666666666667</ele><time>2026-04-25T12:35:35.621Z</time></trkpt><trkpt lat="39.31515322153217" lon="16.33806061216084"><ele>691.0</ele><time>2026-04-25T12:35:36.621Z</time></trkpt><trkpt lat="39.31530645845821" lon="16.33799554038645"><ele>696.5</ele><time>2026-04-25T12:35:37.621Z</time></trkpt><trkpt lat="39.315453873174526" lon="16.337935176505272"><ele>702.0</ele><time>2026-04-25T12:35:38.621Z</time></trkpt><trkpt lat="39.31559189477856" lon="16.337876495131884"><ele>707.5</ele><time>2026-04-25T12:35:39.621Z</time></trkpt><trkpt lat="39.31572406262628" lon="16.33780940892607"><ele>713.0</ele><time>2026-04-25T12:35:40.621Z</time></trkpt><trkpt lat="39.315857997713664" lon="16.337728320892126"><ele>721.6666666666666</ele><time>2026-04-25T12:35:41.621Z</time></trkpt><trkpt lat="39.315985404081005" lon="16.337631323823796"><ele>730.3333333333334</ele><time>2026-04-25T12:35:42.621Z</time></trkpt><trkpt lat="39.316111200877415" lon="16.337518782443553"><ele>739.0</ele><time>2026-04-25T12:35:43.621Z</time></trkpt><trkpt lat="39.316227215471685" lon="16.33738675336849"><ele>739.0</ele><time>2026-04-25T12:35:44.621Z</time></trkpt><trkpt lat="39.31633233824443" lon="16.337245209585035"><ele>739.0</ele><time>2026-04-25T12:35:45.621Z</time></trkpt><trkpt lat="39.31642431246506" lon="16.337092483984115"><ele>739.0</ele><time>2026-04-25T12:35:46.621Z</time></trkpt><trkpt lat="39.31649983647375" lon="16.33693973897321"><ele>739.0</ele><time>2026-04-25T12:35:47.621Z</time></trkpt><trkpt lat="39.316566179070946" lon="16.336773131311514"><ele>733.3333333333334</ele><time>2026-04-25T12:35:48.621Z</time></trkpt><trkpt lat="39.3166212813761" lon="16.33659051639892"><ele>727.6666666666666</ele><time>2026-04-25T12:35:49.621Z</time></trkpt><trkpt lat="39.316664356824674" lon="16.336399427131354"><ele>722.0</ele><time>2026-04-25T12:35:50.621Z</time></trkpt><trkpt lat="39.31669411909842" lon="16.336209444965665"><ele>720.6666666666666</ele><time>2026-04-25T12:35:51.621Z</time></trkpt><trkpt lat="39.3167166764605" lon="16.33601241204384"><ele>719.3333333333334</ele><time>2026-04-25T12:35:52.621Z</time></trkpt><trkpt lat="39.31672367713636" lon="16.335812746335957"><ele>718.0</ele><time>2026-04-25T12:35:53.621Z</time></trkpt><trkpt lat="39.31670826000863" lon="16.335613258760283"><ele>725.0</ele><time>2026-04-25T12:35:54.621Z</time></trkpt><trkpt lat="39.31667827655709" lon="16.33540871503405"><ele>732.0</ele><time>2026-04-25T12:35:55.621Z</time></trkpt><trkpt lat="39.316636003301554" lon="16.335212765943403"><ele>739.0</ele><time>2026-04-25T12:35:56.621Z</time></trkpt><trkpt lat="39.31657779506586" lon="16.335014957328802"><ele>739.0</ele><time>2026-04-25T12:35:57.621Z</time></trkpt><trkpt lat="39.31650330512051" lon="16.334821484922877"><ele>739.0</ele><time>2026-04-25T12:35:58.621Z</time></trkpt><trkpt lat="39.31641308751942" lon="16.334642479795967"><ele>739.0</ele><time>2026-04-25T12:35:59.621Z</time></trkpt><trkpt lat="39.31630403975232" lon="16.334467960474267"><ele>738.0</ele><time>2026-04-25T12:36:00.621Z</time></trkpt><trkpt lat="39.316180020590004" lon="16.334307134432077"><ele>737.0</ele><time>2026-04-25T12:36:01.621Z</time></trkpt><trkpt lat="39.31603834324427" lon="16.33415052077596"><ele>736.0</ele><time>2026-04-25T12:36:02.621Z</time></trkpt><trkpt lat="39.31588399113822" lon="16.334001688849245"><ele>733.6666666666667</ele><time>2026-04-25T12:36:03.621Z</time></trkpt><trkpt lat="39.3157237117234" lon="16.33385939431503"><ele>731.3333333333334</ele><time>2026-04-25T12:36:04.621Z</time></trkpt><trkpt lat="39.31556361923204" lon="16.333715717225967"><ele>729.0</ele><time>2026-04-25T12:36:05.621Z</time></trkpt><trkpt lat="39.31540101258044" lon="16.33355740377051"><ele>729.0</ele><time>2026-04-25T12:36:06.621Z</time></trkpt><trkpt lat="39.31523816128746" lon="16.33340850840352"><ele>729.0</ele><time>2026-04-25T12:36:07.621Z</time></trkpt><trkpt lat="39.315080471800655" lon="16.333259858506533"><ele>729.0</ele><time>2026-04-25T12:36:08.621Z</time></trkpt><trkpt lat="39.31492853244514" lon="16.3331171967007"><ele>723.6666666666666</ele><time>2026-04-25T12:36:09.621Z</time></trkpt><trkpt lat="39.31478415315115" lon="16.332974056345105"><ele>718.3333333333333</ele><time>2026-04-25T12:36:10.621Z</time></trkpt><trkpt lat="39.31464485591868" lon="16.33282924367198"><ele>713.0</ele><time>2026-04-25T12:36:11.621Z</time></trkpt><trkpt lat="39.31451643613742" lon="16.332675419435542"><ele>713.0</ele><time>2026-04-25T12:36:12.621Z</time></trkpt><trkpt lat="39.31440054145634" lon="16.332494939708912"><ele>713.0</ele><time>2026-04-25T12:36:13.621Z</time></trkpt><trkpt lat="39.31430119019004" lon="16.33229745433635"><ele>713.0</ele><time>2026-04-25T12:36:14.621Z</time></trkpt><trkpt lat="39.3142101501787" lon="16.33208610196155"><ele>717.0</ele><time>2026-04-25T12:36:15.621Z</time></trkpt><trkpt lat="39.31412509302325" lon="16.331869923941404"><ele>721.0</ele><time>2026-04-25T12:36:16.621Z</time></trkpt><trkpt lat="39.31404425930555" lon="16.331653675470122"><ele>725.0</ele><time>2026-04-25T12:36:17.621Z</time></trkpt><trkpt lat="39.31396089210765" lon="16.331444169289266"><ele>718.3333333333333</ele><time>2026-04-25T12:36:18.621Z</time></trkpt><trkpt lat="39.3138727134216" lon="16.331225360300657"><ele>711.6666666666666</ele><time>2026-04-25T12:36:19.621Z</time></trkpt><trkpt lat="39.313782858595545" lon="16.331010192454222"><ele>705.0</ele><time>2026-04-25T12:36:20.621Z</time></trkpt><trkpt lat="39.31369323862685" lon="16.330793950560892"><ele>705.0</ele><time>2026-04-25T12:36:21.621Z</time></trkpt><trkpt lat="39.31360582128066" lon="16.330580455966444"><ele>705.0</ele><time>2026-04-25T12:36:22.621Z</time></trkpt><trkpt lat="39.31351966225013" lon="16.33037217661827"><ele>705.0</ele><time>2026-04-25T12:36:23.621Z</time></trkpt><trkpt lat="39.31343453974658" lon="16.33017543282585"><ele>705.0</ele><time>2026-04-25T12:36:24.621Z</time></trkpt><trkpt lat="39.3133430671494" lon="16.329986370544606"><ele>705.0</ele><time>2026-04-25T12:36:25.621Z</time></trkpt><trkpt lat="39.3132387407935" lon="16.32980062759546"><ele>705.0</ele><time>2026-04-25T12:36:26.621Z</time></trkpt><trkpt lat="39.313120946537445" lon="16.329635391779682"><ele>704.0</ele><time>2026-04-25T12:36:27.621Z</time></trkpt><trkpt lat="39.31298814763149" lon="16.329471558651683"><ele>703.0</ele><time>2026-04-25T12:36:28.621Z</time></trkpt><trkpt lat="39.31284126312753" lon="16.329316391865177"><ele>702.0</ele><time>2026-04-25T12:36:29.621Z</time></trkpt><trkpt lat="39.3126951708821" lon="16.329171862366053"><ele>702.0</ele><time>2026-04-25T12:36:30.621Z</time></trkpt><trkpt lat="39.31254528131498" lon="16.3290237357362"><ele>702.0</ele><time>2026-04-25T12:36:31.621Z</time></trkpt><trkpt lat="39.31239054133659" lon="16.328866315279967"><ele>702.0</ele><time>2026-04-25T12:36:32.621Z</time></trkpt><trkpt lat="39.31223694744548" lon="16.328707696802766"><ele>701.6666666666666</ele><time>2026-04-25T12:36:33.621Z</time></trkpt><trkpt lat="39.3120848495714" lon="16.32855007097168"><ele>701.3333333333333</ele><time>2026-04-25T12:36:34.621Z</time></trkpt><trkpt lat="39.3119347882139" lon="16.328396075687237"><ele>701.0</ele><time>2026-04-25T12:36:35.621Z</time></trkpt><trkpt lat="39.31178794473143" lon="16.328245706398043"><ele>701.0</ele><time>2026-04-25T12:36:36.621Z</time></trkpt><trkpt lat="39.31164196019679" lon="16.328094746553912"><ele>701.0</ele><time>2026-04-25T12:36:37.621Z</time></trkpt><trkpt lat="39.31149421648345" lon="16.32794336821903"><ele>701.0</ele><time>2026-04-25T12:36:38.621Z</time></trkpt><trkpt lat="39.31134134116679" lon="16.32779129569441"><ele>700.0</ele><time>2026-04-25T12:36:39.621Z</time></trkpt><trkpt lat="39.311189555821294" lon="16.32764288255766"><ele>699.0</ele><time>2026-04-25T12:36:40.621Z</time></trkpt><trkpt lat="39.311048964552725" lon="16.327498830620048"><ele>698.0</ele><time>2026-04-25T12:36:41.621Z</time></trkpt><trkpt lat="39.310911604213125" lon="16.327360521214203"><ele>696.3333333333333</ele><time>2026-04-25T12:36:42.621Z</time></trkpt><trkpt lat="39.31077746519769" lon="16.327224156928196"><ele>694.6666666666666</ele><time>2026-04-25T12:36:43.621Z</time></trkpt><trkpt lat="39.310645988571764" lon="16.327089432369565"><ele>693.0</ele><time>2026-04-25T12:36:44.621Z</time></trkpt><trkpt lat="39.310510348505744" lon="16.32695203624492"><ele>693.0</ele><time>2026-04-25T12:36:45.621Z</time></trkpt><trkpt lat="39.31037586819971" lon="16.326813399063422"><ele>693.0</ele><time>2026-04-25T12:36:46.621Z</time></trkpt><trkpt lat="39.31024163904206" lon="16.32667923732849"><ele>693.0</ele><time>2026-04-25T12:36:47.621Z</time></trkpt><trkpt lat="39.3101026174271" lon="16.326542642747846"><ele>693.0</ele><time>2026-04-25T12:36:48.621Z</time></trkpt><trkpt lat="39.30996745705609" lon="16.326404293914596"><ele>693.0</ele><time>2026-04-25T12:36:49.621Z</time></trkpt><trkpt lat="39.30983902903728" lon="16.326269392894726"><ele>693.0</ele><time>2026-04-25T12:36:50.621Z</time></trkpt><trkpt lat="39.30971605849225" lon="16.32613689966644"><ele>692.3333333333334</ele><time>2026-04-25T12:36:51.62Z</time></trkpt><trkpt lat="39.30959112877999" lon="16.326004256913013"><ele>691.6666666666667</ele><time>2026-04-25T12:36:52.62Z</time></trkpt><trkpt lat="39.309469309927245" lon="16.32587739836353"><ele>691.0</ele><time>2026-04-25T12:36:53.62Z</time></trkpt><trkpt lat="39.3093360884626" lon="16.325750022600626"><ele>691.0</ele><time>2026-04-25T12:36:54.62Z</time></trkpt><trkpt lat="39.309204350782814" lon="16.325624556924208"><ele>691.0</ele><time>2026-04-25T12:36:55.62Z</time></trkpt><trkpt lat="39.30907280291459" lon="16.325509141737214"><ele>691.0</ele><time>2026-04-25T12:36:56.62Z</time></trkpt><trkpt lat="39.308930742112686" lon="16.325399097418817"><ele>690.0</ele><time>2026-04-25T12:36:57.62Z</time></trkpt><trkpt lat="39.308784765646465" lon="16.325296840807415"><ele>689.0</ele><time>2026-04-25T12:36:58.62Z</time></trkpt><trkpt lat="39.30863467673742" lon="16.325196962716202"><ele>688.0</ele><time>2026-04-25T12:36:59.62Z</time></trkpt><trkpt lat="39.308484812103096" lon="16.325096782153196"><ele>688.0</ele><time>2026-04-25T12:37:00.62Z</time></trkpt><trkpt lat="39.30833257298322" lon="16.324998931908098"><ele>688.0</ele><time>2026-04-25T12:37:01.62Z</time></trkpt><trkpt lat="39.308183711126944" lon="16.32490361877059"><ele>688.0</ele><time>2026-04-25T12:37:02.62Z</time></trkpt><trkpt lat="39.30803346477456" lon="16.324804336326956"><ele>685.3333333333334</ele><time>2026-04-25T12:37:03.62Z</time></trkpt><trkpt lat="39.307882959739196" lon="16.32470684207925"><ele>682.6666666666666</ele><time>2026-04-25T12:37:04.62Z</time></trkpt><trkpt lat="39.3077351717786" lon="16.324609502132933"><ele>680.0</ele><time>2026-04-25T12:37:05.62Z</time></trkpt><trkpt lat="39.30759151783166" lon="16.324512201912725"><ele>680.0</ele><time>2026-04-25T12:37:06.62Z</time></trkpt><trkpt lat="39.30744957623287" lon="16.324418222911365"><ele>680.0</ele><time>2026-04-25T12:37:07.62Z</time></trkpt><trkpt lat="39.30731002854467" lon="16.324327489164563"><ele>680.0</ele><time>2026-04-25T12:37:08.62Z</time></trkpt><trkpt lat="39.307173861484614" lon="16.324240609958697"><ele>676.6666666666666</ele><time>2026-04-25T12:37:09.62Z</time></trkpt><trkpt lat="39.30704180670788" lon="16.324157822168704"><ele>673.3333333333334</ele><time>2026-04-25T12:37:10.62Z</time></trkpt><trkpt lat="39.30690935076272" lon="16.3240728599007"><ele>670.0</ele><time>2026-04-25T12:37:11.62Z</time></trkpt><trkpt lat="39.30676932005827" lon="16.32398552426865"><ele>670.0</ele><time>2026-04-25T12:37:12.62Z</time></trkpt><trkpt lat="39.30662471981068" lon="16.323894169227827"><ele>670.0</ele><time>2026-04-25T12:37:13.62Z</time></trkpt><trkpt lat="39.30647750070829" lon="16.32379972878862"><ele>670.0</ele><time>2026-04-25T12:37:14.62Z</time></trkpt><trkpt lat="39.30634228041293" lon="16.323700626572933"><ele>670.0</ele><time>2026-04-25T12:37:15.62Z</time></trkpt><trkpt lat="39.30620714698148" lon="16.323605099982114"><ele>670.0</ele><time>2026-04-25T12:37:16.62Z</time></trkpt><trkpt lat="39.3060693531265" lon="16.323517168091517"><ele>670.0</ele><time>2026-04-25T12:37:17.62Z</time></trkpt><trkpt lat="39.30593123827632" lon="16.32343057124073"><ele>670.0</ele><time>2026-04-25T12:37:18.62Z</time></trkpt><trkpt lat="39.30579238809311" lon="16.3233359552567"><ele>670.0</ele><time>2026-04-25T12:37:19.62Z</time></trkpt><trkpt lat="39.30564915013915" lon="16.3232411500449"><ele>670.0</ele><time>2026-04-25T12:37:20.62Z</time></trkpt><trkpt lat="39.305503897378" lon="16.323139846078448"><ele>667.6666666666667</ele><time>2026-04-25T12:37:21.62Z</time></trkpt><trkpt lat="39.305360654599475" lon="16.32302958053219"><ele>665.3333333333334</ele><time>2026-04-25T12:37:22.62Z</time></trkpt><trkpt lat="39.30522469591674" lon="16.32290266517304"><ele>663.0</ele><time>2026-04-25T12:37:23.62Z</time></trkpt><trkpt lat="39.30510052197528" lon="16.322753476991842"><ele>663.0</ele><time>2026-04-25T12:37:24.62Z</time></trkpt><trkpt lat="39.304988362125016" lon="16.322584460960734"><ele>663.0</ele><time>2026-04-25T12:37:25.62Z</time></trkpt><trkpt lat="39.304892223172246" lon="16.322400015318326"><ele>663.0</ele><time>2026-04-25T12:37:26.62Z</time></trkpt><trkpt lat="39.30481309459678" lon="16.3221955400889"><ele>663.0</ele><time>2026-04-25T12:37:27.621Z</time></trkpt><trkpt lat="39.304755424895006" lon="16.321985351212273"><ele>663.0</ele><time>2026-04-25T12:37:28.621Z</time></trkpt><trkpt lat="39.30471261768567" lon="16.32176090175729"><ele>663.0</ele><time>2026-04-25T12:37:29.621Z</time></trkpt><trkpt lat="39.304690341842196" lon="16.321530098591037"><ele>658.6666666666666</ele><time>2026-04-25T12:37:30.621Z</time></trkpt><trkpt lat="39.30469576250497" lon="16.321294123485526"><ele>654.3333333333333</ele><time>2026-04-25T12:37:31.621Z</time></trkpt><trkpt lat="39.30471885371135" lon="16.321066610250462"><ele>650.0</ele><time>2026-04-25T12:37:32.621Z</time></trkpt><trkpt lat="39.30476276682104" lon="16.32084141145605"><ele>650.0</ele><time>2026-04-25T12:37:33.621Z</time></trkpt><trkpt lat="39.30482147484409" lon="16.320637104007314"><ele>650.0</ele><time>2026-04-25T12:37:34.621Z</time></trkpt><trkpt lat="39.30488932021315" lon="16.32042475945718"><ele>650.0</ele><time>2026-04-25T12:37:35.621Z</time></trkpt><trkpt lat="39.304961823487545" lon="16.32021343309444"><ele>647.0</ele><time>2026-04-25T12:37:36.621Z</time></trkpt><trkpt lat="39.30505504699929" lon="16.320008826544875"><ele>644.0</ele><time>2026-04-25T12:37:37.621Z</time></trkpt><trkpt lat="39.30512372613065" lon="16.319790235322824"><ele>641.0</ele><time>2026-04-25T12:37:38.621Z</time></trkpt><trkpt lat="39.30520957672127" lon="16.31957676925237"><ele>641.0</ele><time>2026-04-25T12:37:39.621Z</time></trkpt><trkpt lat="39.30529278054593" lon="16.319354759973635"><ele>641.0</ele><time>2026-04-25T12:37:40.621Z</time></trkpt><trkpt lat="39.30537153187399" lon="16.31913142721225"><ele>641.0</ele><time>2026-04-25T12:37:41.621Z</time></trkpt><trkpt lat="39.30545011158123" lon="16.31890877402491"><ele>644.3333333333333</ele><time>2026-04-25T12:37:42.621Z</time></trkpt><trkpt lat="39.30553146349818" lon="16.318690524319543"><ele>647.6666666666666</ele><time>2026-04-25T12:37:43.621Z</time></trkpt><trkpt lat="39.30561398445514" lon="16.31847486766567"><ele>651.0</ele><time>2026-04-25T12:37:44.621Z</time></trkpt><trkpt lat="39.305697071557994" lon="16.31826175472378"><ele>658.3333333333334</ele><time>2026-04-25T12:37:45.621Z</time></trkpt><trkpt lat="39.30578464843338" lon="16.318031141701564"><ele>665.6666666666667</ele><time>2026-04-25T12:37:46.621Z</time></trkpt><trkpt lat="39.30586574082214" lon="16.317820800516223"><ele>673.0</ele><time>2026-04-25T12:37:47.621Z</time></trkpt><trkpt lat="39.30594293528821" lon="16.317632914951908"><ele>673.0</ele><time>2026-04-25T12:37:48.621Z</time></trkpt><trkpt lat="39.306029438652075" lon="16.31741987555831"><ele>673.0</ele><time>2026-04-25T12:37:49.693Z</time></trkpt><trkpt lat="39.306112637580476" lon="16.317213794653945"><ele>673.0</ele><time>2026-04-25T12:37:50.69Z</time></trkpt><trkpt lat="39.30621560177866" lon="16.316957533875787"><ele>672.6666666666667</ele><time>2026-04-25T12:37:51.687Z</time></trkpt><trkpt lat="39.30630653776987" lon="16.3167312090775"><ele>672.3333333333334</ele><time>2026-04-25T12:37:52.684Z</time></trkpt><trkpt lat="39.30638940751906" lon="16.316508946770682"><ele>672.0</ele><time>2026-04-25T12:37:53.679Z</time></trkpt><trkpt lat="39.30647714227339" lon="16.31629185149397"><ele>641.0</ele><time>2026-04-25T12:37:54.67Z</time></trkpt><trkpt lat="39.306823946754164" lon="16.315183746847186"><ele>641.0</ele><time>2026-04-25T12:37:58.621Z</time></trkpt><trkpt lat="39.306915111420025" lon="16.31494249182616"><ele>641.0</ele><time>2026-04-25T12:37:59.621Z</time></trkpt><trkpt lat="39.30701490729255" lon="16.314786334668863"><ele>641.0</ele><time>2026-04-25T12:38:00.621Z</time></trkpt><trkpt lat="39.3070795252927" lon="16.314572614290217"><ele>642.0</ele><time>2026-04-25T12:38:01.621Z</time></trkpt><trkpt lat="39.30715906420342" lon="16.314336415616243"><ele>643.0</ele><time>2026-04-25T12:38:02.621Z</time></trkpt><trkpt lat="39.307217770154644" lon="16.314107621947375"><ele>644.0</ele><time>2026-04-25T12:38:03.621Z</time></trkpt><trkpt lat="39.30727523240792" lon="16.31386464417782"><ele>636.3333333333333</ele><time>2026-04-25T12:38:04.621Z</time></trkpt><trkpt lat="39.30731354476065" lon="16.313622916933106"><ele>628.6666666666666</ele><time>2026-04-25T12:38:05.621Z</time></trkpt><trkpt lat="39.30734803306213" lon="16.313384113230086"><ele>621.0</ele><time>2026-04-25T12:38:06.621Z</time></trkpt><trkpt lat="39.3073643643552" lon="16.313150706238257"><ele>620.6666666666666</ele><time>2026-04-25T12:38:07.621Z</time></trkpt><trkpt lat="39.30735511399791" lon="16.312920674441656"><ele>620.3333333333333</ele><time>2026-04-25T12:38:08.621Z</time></trkpt><trkpt lat="39.30733342833363" lon="16.312668357057483"><ele>620.0</ele><time>2026-04-25T12:38:09.621Z</time></trkpt><trkpt lat="39.30730270439112" lon="16.3124357340601"><ele>620.3333333333333</ele><time>2026-04-25T12:38:10.621Z</time></trkpt><trkpt lat="39.30727148022118" lon="16.312203171742155"><ele>620.6666666666666</ele><time>2026-04-25T12:38:11.621Z</time></trkpt><trkpt lat="39.30723383135034" lon="16.31197510822969"><ele>621.0</ele><time>2026-04-25T12:38:12.621Z</time></trkpt><trkpt lat="39.30716958236565" lon="16.311726278776263"><ele>621.0</ele><time>2026-04-25T12:38:13.621Z</time></trkpt><trkpt lat="39.30710876244484" lon="16.311535113817317"><ele>621.0</ele><time>2026-04-25T12:38:14.621Z</time></trkpt><trkpt lat="39.30698180638022" lon="16.31133925888117"><ele>621.0</ele><time>2026-04-25T12:38:15.621Z</time></trkpt><trkpt lat="39.30685065603535" lon="16.31114646414368"><ele>617.6666666666666</ele><time>2026-04-25T12:38:16.621Z</time></trkpt><trkpt lat="39.30674728927982" lon="16.310957454831346"><ele>614.3333333333333</ele><time>2026-04-25T12:38:17.621Z</time></trkpt><trkpt lat="39.3066553103682" lon="16.31076471907333"><ele>611.0</ele><time>2026-04-25T12:38:18.621Z</time></trkpt><trkpt lat="39.30656491541854" lon="16.31057002888374"><ele>610.0</ele><time>2026-04-25T12:38:19.621Z</time></trkpt><trkpt lat="39.30646916229009" lon="16.310372652181677"><ele>609.0</ele><time>2026-04-25T12:38:20.621Z</time></trkpt><trkpt lat="39.30636637371394" lon="16.310180691207506"><ele>608.0</ele><time>2026-04-25T12:38:21.621Z</time></trkpt><trkpt lat="39.30625082863758" lon="16.309996679683934"><ele>610.0</ele><time>2026-04-25T12:38:22.62Z</time></trkpt><trkpt lat="39.30611769135205" lon="16.30982789005579"><ele>612.0</ele><time>2026-04-25T12:38:23.62Z</time></trkpt><trkpt lat="39.30596626611587" lon="16.30968432584965"><ele>614.0</ele><time>2026-04-25T12:38:24.62Z</time></trkpt><trkpt lat="39.305806473061686" lon="16.30956128894233"><ele>608.6666666666666</ele><time>2026-04-25T12:38:25.62Z</time></trkpt><trkpt lat="39.305626977463454" lon="16.309464616237335"><ele>603.3333333333334</ele><time>2026-04-25T12:38:26.62Z</time></trkpt><trkpt lat="39.30544127451477" lon="16.309389881652134"><ele>598.0</ele><time>2026-04-25T12:38:27.62Z</time></trkpt><trkpt lat="39.305247449169755" lon="16.309345496893187"><ele>598.0</ele><time>2026-04-25T12:38:28.62Z</time></trkpt><trkpt lat="39.305053428813345" lon="16.30932996337398"><ele>598.0</ele><time>2026-04-25T12:38:29.62Z</time></trkpt><trkpt lat="39.304851725727296" lon="16.30934782412823"><ele>598.0</ele><time>2026-04-25T12:38:30.62Z</time></trkpt><trkpt lat="39.30465998895096" lon="16.309396003297003"><ele>592.6666666666667</ele><time>2026-04-25T12:38:31.62Z</time></trkpt><trkpt lat="39.304479826385915" lon="16.3094743301751"><ele>587.3333333333334</ele><time>2026-04-25T12:38:32.62Z</time></trkpt><trkpt lat="39.304307556344746" lon="16.309577322251247"><ele>582.0</ele><time>2026-04-25T12:38:33.62Z</time></trkpt><trkpt lat="39.304149577817704" lon="16.309697599392926"><ele>584.3333333333334</ele><time>2026-04-25T12:38:34.62Z</time></trkpt><trkpt lat="39.30399965223787" lon="16.309841459139346"><ele>586.6666666666667</ele><time>2026-04-25T12:38:35.62Z</time></trkpt><trkpt lat="39.3038688480045" lon="16.310004073113458"><ele>589.0</ele><time>2026-04-25T12:38:36.62Z</time></trkpt><trkpt lat="39.30375149232949" lon="16.310187031782608"><ele>582.3333333333334</ele><time>2026-04-25T12:38:37.62Z</time></trkpt><trkpt lat="39.30364545559685" lon="16.31038603489531"><ele>575.6666666666666</ele><time>2026-04-25T12:38:38.62Z</time></trkpt><trkpt lat="39.3035478885145" lon="16.310598235065466"><ele>569.0</ele><time>2026-04-25T12:38:39.62Z</time></trkpt><trkpt lat="39.303459934174576" lon="16.310808318415273"><ele>569.0</ele><time>2026-04-25T12:38:40.62Z</time></trkpt><trkpt lat="39.303369580712975" lon="16.311025684607063"><ele>569.0</ele><time>2026-04-25T12:38:41.62Z</time></trkpt><trkpt lat="39.30328227951611" lon="16.31123426436446"><ele>569.0</ele><time>2026-04-25T12:38:42.62Z</time></trkpt><trkpt lat="39.303198810808034" lon="16.31143652264496"><ele>571.6666666666666</ele><time>2026-04-25T12:38:43.62Z</time></trkpt><trkpt lat="39.30311303632367" lon="16.311641469793404"><ele>574.3333333333334</ele><time>2026-04-25T12:38:44.62Z</time></trkpt><trkpt lat="39.30302131032239" lon="16.311856298442617"><ele>577.0</ele><time>2026-04-25T12:38:45.62Z</time></trkpt><trkpt lat="39.30292722503792" lon="16.31207502936137"><ele>572.3333333333334</ele><time>2026-04-25T12:38:46.62Z</time></trkpt><trkpt lat="39.30283280068036" lon="16.312295738002078"><ele>567.6666666666666</ele><time>2026-04-25T12:38:47.62Z</time></trkpt><trkpt lat="39.30274065215731" lon="16.31251848173163"><ele>563.0</ele><time>2026-04-25T12:38:48.62Z</time></trkpt><trkpt lat="39.30264818044001" lon="16.312736712746133"><ele>563.0</ele><time>2026-04-25T12:38:49.62Z</time></trkpt><trkpt lat="39.30254827252354" lon="16.3129355588664"><ele>563.0</ele><time>2026-04-25T12:38:50.62Z</time></trkpt><trkpt lat="39.302440134432004" lon="16.31312319227006"><ele>563.0</ele><time>2026-04-25T12:38:51.62Z</time></trkpt><trkpt lat="39.30231521654901" lon="16.313282684225914"><ele>561.6666666666666</ele><time>2026-04-25T12:38:52.62Z</time></trkpt><trkpt lat="39.30217689676885" lon="16.313420869195088"><ele>560.3333333333334</ele><time>2026-04-25T12:38:53.62Z</time></trkpt><trkpt lat="39.302025789052124" lon="16.313536250781482"><ele>559.0</ele><time>2026-04-25T12:38:54.62Z</time></trkpt><trkpt lat="39.30186171910129" lon="16.313633588420082"><ele>559.0</ele><time>2026-04-25T12:38:55.62Z</time></trkpt><trkpt lat="39.301688865376" lon="16.313707964504083"><ele>559.0</ele><time>2026-04-25T12:38:56.62Z</time></trkpt><trkpt lat="39.30150915221513" lon="16.31375506989519"><ele>559.0</ele><time>2026-04-25T12:38:57.62Z</time></trkpt><trkpt lat="39.301323175580144" lon="16.313766158543093"><ele>561.6666666666667</ele><time>2026-04-25T12:38:58.62Z</time></trkpt><trkpt lat="39.301130196671785" lon="16.313751641831164"><ele>564.3333333333334</ele><time>2026-04-25T12:38:59.62Z</time></trkpt><trkpt lat="39.300952795600594" lon="16.313713217523567"><ele>567.0</ele><time>2026-04-25T12:39:00.62Z</time></trkpt><trkpt lat="39.30078550656388" lon="16.313638060360507"><ele>567.0</ele><time>2026-04-25T12:39:01.62Z</time></trkpt><trkpt lat="39.300627205767384" lon="16.313547640026947"><ele>567.0</ele><time>2026-04-25T12:39:02.62Z</time></trkpt><trkpt lat="39.30048208261495" lon="16.31342678966588"><ele>567.0</ele><time>2026-04-25T12:39:03.62Z</time></trkpt><trkpt lat="39.30034225267537" lon="16.313295404509383"><ele>565.3333333333334</ele><time>2026-04-25T12:39:04.62Z</time></trkpt><trkpt lat="39.30021467321463" lon="16.31313929990243"><ele>563.6666666666667</ele><time>2026-04-25T12:39:05.62Z</time></trkpt><trkpt lat="39.30010523859476" lon="16.3129613528339"><ele>562.0</ele><time>2026-04-25T12:39:06.62Z</time></trkpt><trkpt lat="39.30000230103697" lon="16.312766468238486"><ele>562.0</ele><time>2026-04-25T12:39:07.62Z</time></trkpt><trkpt lat="39.299909490856656" lon="16.31256624411782"><ele>562.0</ele><time>2026-04-25T12:39:08.62Z</time></trkpt><trkpt lat="39.29982097182832" lon="16.31236694192857"><ele>562.0</ele><time>2026-04-25T12:39:09.62Z</time></trkpt><trkpt lat="39.299729978969474" lon="16.31216336973493"><ele>555.3333333333334</ele><time>2026-04-25T12:39:10.62Z</time></trkpt><trkpt lat="39.29963850577566" lon="16.311959901766524"><ele>548.6666666666666</ele><time>2026-04-25T12:39:11.62Z</time></trkpt><trkpt lat="39.299543599029846" lon="16.311757181385723"><ele>542.0</ele><time>2026-04-25T12:39:12.62Z</time></trkpt><trkpt lat="39.29945104908531" lon="16.311553958673283"><ele>545.0</ele><time>2026-04-25T12:39:13.62Z</time></trkpt><trkpt lat="39.299361400549465" lon="16.31135966008975"><ele>548.0</ele><time>2026-04-25T12:39:14.62Z</time></trkpt><trkpt lat="39.299274656126784" lon="16.311166799909053"><ele>551.0</ele><time>2026-04-25T12:39:15.62Z</time></trkpt><trkpt lat="39.29918601498772" lon="16.310972417449026"><ele>551.0</ele><time>2026-04-25T12:39:16.62Z</time></trkpt><trkpt lat="39.299095669774644" lon="16.310771488865093"><ele>551.0</ele><time>2026-04-25T12:39:17.62Z</time></trkpt><trkpt lat="39.29900125238184" lon="16.310566323804395"><ele>551.0</ele><time>2026-04-25T12:39:18.62Z</time></trkpt><trkpt lat="39.29890833255829" lon="16.31035585183138"><ele>548.3333333333333</ele><time>2026-04-25T12:39:19.62Z</time></trkpt><trkpt lat="39.29881450517406" lon="16.31014803901012"><ele>545.6666666666666</ele><time>2026-04-25T12:39:20.62Z</time></trkpt><trkpt lat="39.298720620785296" lon="16.30993720245784"><ele>543.0</ele><time>2026-04-25T12:39:21.62Z</time></trkpt><trkpt lat="39.298629093532185" lon="16.309733788567005"><ele>543.0</ele><time>2026-04-25T12:39:22.62Z</time></trkpt><trkpt lat="39.29852798509491" lon="16.30953525105274"><ele>543.0</ele><time>2026-04-25T12:39:23.62Z</time></trkpt><trkpt lat="39.29841096746614" lon="16.30934173180374"><ele>543.0</ele><time>2026-04-25T12:39:24.62Z</time></trkpt><trkpt lat="39.29828503736994" lon="16.30915957228993"><ele>543.0</ele><time>2026-04-25T12:39:25.62Z</time></trkpt><trkpt lat="39.298146089105195" lon="16.308980699738246"><ele>543.0</ele><time>2026-04-25T12:39:26.62Z</time></trkpt><trkpt lat="39.29800414459304" lon="16.30880211779974"><ele>543.0</ele><time>2026-04-25T12:39:27.62Z</time></trkpt><trkpt lat="39.29785870214637" lon="16.308612966846646"><ele>541.3333333333334</ele><time>2026-04-25T12:39:28.62Z</time></trkpt><trkpt lat="39.2977167833014" lon="16.308421831843752"><ele>539.6666666666667</ele><time>2026-04-25T12:39:29.62Z</time></trkpt><trkpt lat="39.29757821240382" lon="16.308234979194488"><ele>538.0</ele><time>2026-04-25T12:39:30.62Z</time></trkpt><trkpt lat="39.297446449056494" lon="16.308054147788287"><ele>538.0</ele><time>2026-04-25T12:39:31.62Z</time></trkpt><trkpt lat="39.297316995783085" lon="16.30788079550961"><ele>538.0</ele><time>2026-04-25T12:39:32.62Z</time></trkpt><trkpt lat="39.29719384874727" lon="16.307701247126225"><ele>538.0</ele><time>2026-04-25T12:39:33.621Z</time></trkpt><trkpt lat="39.29707011376319" lon="16.307510046785733"><ele>536.6666666666667</ele><time>2026-04-25T12:39:34.621Z</time></trkpt><trkpt lat="39.29695615766053" lon="16.307308591533342"><ele>535.3333333333334</ele><time>2026-04-25T12:39:35.621Z</time></trkpt><trkpt lat="39.29685707807345" lon="16.30709567661453"><ele>534.0</ele><time>2026-04-25T12:39:36.621Z</time></trkpt><trkpt lat="39.296766191004764" lon="16.306874095240737"><ele>534.0</ele><time>2026-04-25T12:39:37.621Z</time></trkpt><trkpt lat="39.296691662705115" lon="16.30663781932753"><ele>534.0</ele><time>2026-04-25T12:39:38.621Z</time></trkpt><trkpt lat="39.29662465745013" lon="16.306397620577574"><ele>534.0</ele><time>2026-04-25T12:39:39.621Z</time></trkpt><trkpt lat="39.296571676205495" lon="16.306151681778555"><ele>534.3333333333334</ele><time>2026-04-25T12:39:40.621Z</time></trkpt><trkpt lat="39.296535085646305" lon="16.30589345563383"><ele>534.6666666666667</ele><time>2026-04-25T12:39:41.621Z</time></trkpt><trkpt lat="39.29651706980011" lon="16.305631242288865"><ele>535.0</ele><time>2026-04-25T12:39:42.621Z</time></trkpt><trkpt lat="39.296510726029005" lon="16.305367660517916"><ele>533.3333333333334</ele><time>2026-04-25T12:39:43.621Z</time></trkpt><trkpt lat="39.296520706582214" lon="16.305100102980372"><ele>531.6666666666666</ele><time>2026-04-25T12:39:44.621Z</time></trkpt><trkpt lat="39.29655083924147" lon="16.30483716949745"><ele>530.0</ele><time>2026-04-25T12:39:45.621Z</time></trkpt><trkpt lat="39.29659549897697" lon="16.304576204300588"><ele>527.3333333333333</ele><time>2026-04-25T12:39:46.621Z</time></trkpt><trkpt lat="39.29665290329934" lon="16.304326508060957"><ele>524.6666666666666</ele><time>2026-04-25T12:39:47.621Z</time></trkpt><trkpt lat="39.29671629086813" lon="16.3040878641143"><ele>522.0</ele><time>2026-04-25T12:39:48.621Z</time></trkpt><trkpt lat="39.296784996577664" lon="16.303858113021324"><ele>520.0</ele><time>2026-04-25T12:39:49.621Z</time></trkpt><trkpt lat="39.29685781325405" lon="16.30362676334067"><ele>518.0</ele><time>2026-04-25T12:39:50.621Z</time></trkpt><trkpt lat="39.29693038288673" lon="16.303398533710084"><ele>516.0</ele><time>2026-04-25T12:39:51.621Z</time></trkpt><trkpt lat="39.29700220260696" lon="16.303162931079346"><ele>513.3333333333334</ele><time>2026-04-25T12:39:52.621Z</time></trkpt><trkpt lat="39.29706894291931" lon="16.3029225469966"><ele>510.6666666666667</ele><time>2026-04-25T12:39:53.62Z</time></trkpt><trkpt lat="39.29714029935052" lon="16.302676642125547"><ele>508.0</ele><time>2026-04-25T12:39:54.62Z</time></trkpt><trkpt lat="39.2972108963602" lon="16.30243339026491"><ele>508.6666666666667</ele><time>2026-04-25T12:39:55.62Z</time></trkpt><trkpt lat="39.297283124183636" lon="16.30218540576045"><ele>509.33333333333337</ele><time>2026-04-25T12:39:56.62Z</time></trkpt><trkpt lat="39.29735237749005" lon="16.301945395756977"><ele>510.0</ele><time>2026-04-25T12:39:57.62Z</time></trkpt><trkpt lat="39.297426180990136" lon="16.3017100257286"><ele>510.0</ele><time>2026-04-25T12:39:58.62Z</time></trkpt><trkpt lat="39.297500198204666" lon="16.301480018856797"><ele>510.0</ele><time>2026-04-25T12:39:59.62Z</time></trkpt><trkpt lat="39.297571249236036" lon="16.30125411140684"><ele>510.0</ele><time>2026-04-25T12:40:00.62Z</time></trkpt><trkpt lat="39.2976395364252" lon="16.301034562951028"><ele>508.0</ele><time>2026-04-25T12:40:01.62Z</time></trkpt><trkpt lat="39.2977065668716" lon="16.300815221140617"><ele>506.0</ele><time>2026-04-25T12:40:02.62Z</time></trkpt><trkpt lat="39.297773265086505" lon="16.30059840387922"><ele>504.0</ele><time>2026-04-25T12:40:03.62Z</time></trkpt><trkpt lat="39.29783770021441" lon="16.300383321071113"><ele>500.66666666666663</ele><time>2026-04-25T12:40:04.62Z</time></trkpt><trkpt lat="39.29790364768154" lon="16.300157868374455"><ele>497.3333333333333</ele><time>2026-04-25T12:40:05.62Z</time></trkpt><trkpt lat="39.29796944429666" lon="16.299932860762606"><ele>494.0</ele><time>2026-04-25T12:40:06.62Z</time></trkpt><trkpt lat="39.29802743787375" lon="16.29970448028251"><ele>494.3333333333333</ele><time>2026-04-25T12:40:07.62Z</time></trkpt><trkpt lat="39.29807555639257" lon="16.299465720563383"><ele>494.66666666666663</ele><time>2026-04-25T12:40:08.62Z</time></trkpt><trkpt lat="39.29811489033567" lon="16.29921487986799"><ele>495.0</ele><time>2026-04-25T12:40:09.62Z</time></trkpt><trkpt lat="39.298146786153325" lon="16.298973107395636"><ele>491.66666666666663</ele><time>2026-04-25T12:40:10.62Z</time></trkpt><trkpt lat="39.298174891848504" lon="16.29871343677296"><ele>488.3333333333333</ele><time>2026-04-25T12:40:11.62Z</time></trkpt><trkpt lat="39.29819398835425" lon="16.298462771504184"><ele>485.0</ele><time>2026-04-25T12:40:12.62Z</time></trkpt><trkpt lat="39.29821055491075" lon="16.298218391031387"><ele>481.0</ele><time>2026-04-25T12:40:13.62Z</time></trkpt><trkpt lat="39.29822301795787" lon="16.297976205076296"><ele>477.0</ele><time>2026-04-25T12:40:14.62Z</time></trkpt><trkpt lat="39.298231262072086" lon="16.297731949242003"><ele>473.0</ele><time>2026-04-25T12:40:15.62Z</time></trkpt><trkpt lat="39.298237553634245" lon="16.29748449525917"><ele>465.3333333333333</ele><time>2026-04-25T12:40:16.62Z</time></trkpt><trkpt lat="39.298243110476406" lon="16.2972302762019"><ele>457.66666666666663</ele><time>2026-04-25T12:40:17.62Z</time></trkpt><trkpt lat="39.29824530918236" lon="16.296974665414396"><ele>450.0</ele><time>2026-04-25T12:40:18.62Z</time></trkpt><trkpt lat="39.29825169516116" lon="16.296719025852404"><ele>450.0</ele><time>2026-04-25T12:40:19.62Z</time></trkpt><trkpt lat="39.29825687132327" lon="16.29646276579687"><ele>450.0</ele><time>2026-04-25T12:40:20.62Z</time></trkpt><trkpt lat="39.2982639038412" lon="16.296214654641552"><ele>450.0</ele><time>2026-04-25T12:40:21.62Z</time></trkpt><trkpt lat="39.298271753776675" lon="16.295967220301353"><ele>451.33333333333337</ele><time>2026-04-25T12:40:22.62Z</time></trkpt><trkpt lat="39.29827891605283" lon="16.295726135826133"><ele>452.6666666666667</ele><time>2026-04-25T12:40:23.62Z</time></trkpt><trkpt lat="39.29828449844938" lon="16.295489017170233"><ele>454.0</ele><time>2026-04-25T12:40:24.62Z</time></trkpt><trkpt lat="39.29829356244381" lon="16.29524039318547"><ele>454.0</ele><time>2026-04-25T12:40:25.62Z</time></trkpt><trkpt lat="39.29830548994662" lon="16.29498545019584"><ele>454.0</ele><time>2026-04-25T12:40:26.62Z</time></trkpt><trkpt lat="39.2983232350343" lon="16.294735353602174"><ele>454.0</ele><time>2026-04-25T12:40:27.62Z</time></trkpt><trkpt lat="39.29834383240208" lon="16.294498922601978"><ele>456.6666666666667</ele><time>2026-04-25T12:40:28.62Z</time></trkpt><trkpt lat="39.29836268947314" lon="16.294254553307642"><ele>459.33333333333337</ele><time>2026-04-25T12:40:29.62Z</time></trkpt><trkpt lat="39.298379768664994" lon="16.294005105275758"><ele>462.0</ele><time>2026-04-25T12:40:30.62Z</time></trkpt><trkpt lat="39.29840031419975" lon="16.29374988022136"><ele>462.0</ele><time>2026-04-25T12:40:31.62Z</time></trkpt><trkpt lat="39.298420954053846" lon="16.293492288892484"><ele>462.0</ele><time>2026-04-25T12:40:32.62Z</time></trkpt><trkpt lat="39.29844509484009" lon="16.293242337229135"><ele>462.0</ele><time>2026-04-25T12:40:33.62Z</time></trkpt><trkpt lat="39.298472755524394" lon="16.293001171337757"><ele>460.0</ele><time>2026-04-25T12:40:34.62Z</time></trkpt><trkpt lat="39.29850381765868" lon="16.292759088755865"><ele>458.0</ele><time>2026-04-25T12:40:35.62Z</time></trkpt><trkpt lat="39.29854676852817" lon="16.292518723098908"><ele>456.0</ele><time>2026-04-25T12:40:36.62Z</time></trkpt><trkpt lat="39.29859804266394" lon="16.29227181621374"><ele>455.0</ele><time>2026-04-25T12:40:37.62Z</time></trkpt><trkpt lat="39.298657751581274" lon="16.292033716133464"><ele>454.0</ele><time>2026-04-25T12:40:38.62Z</time></trkpt><trkpt lat="39.29872282250797" lon="16.291803255008944"><ele>453.0</ele><time>2026-04-25T12:40:39.62Z</time></trkpt><trkpt lat="39.298789548818874" lon="16.291576240561152"><ele>449.66666666666663</ele><time>2026-04-25T12:40:40.62Z</time></trkpt><trkpt lat="39.29885477890652" lon="16.291354613436493"><ele>446.3333333333333</ele><time>2026-04-25T12:40:41.62Z</time></trkpt><trkpt lat="39.29891901507886" lon="16.291131452266562"><ele>443.0</ele><time>2026-04-25T12:40:42.62Z</time></trkpt><trkpt lat="39.2989817482146" lon="16.290900694887522"><ele>443.0</ele><time>2026-04-25T12:40:43.62Z</time></trkpt><trkpt lat="39.29903798176815" lon="16.290666203492496"><ele>443.0</ele><time>2026-04-25T12:40:44.62Z</time></trkpt><trkpt lat="39.29909019330436" lon="16.29042622975397"><ele>443.0</ele><time>2026-04-25T12:40:45.62Z</time></trkpt><trkpt lat="39.299136676457444" lon="16.290180993122597"><ele>438.66666666666663</ele><time>2026-04-25T12:40:46.62Z</time></trkpt><trkpt lat="39.2991782162696" lon="16.28992943219777"><ele>434.33333333333337</ele><time>2026-04-25T12:40:47.62Z</time></trkpt><trkpt lat="39.29921248677873" lon="16.289677416751235"><ele>430.0</ele><time>2026-04-25T12:40:48.62Z</time></trkpt><trkpt lat="39.29923838197161" lon="16.289422911228574"><ele>428.33333333333337</ele><time>2026-04-25T12:40:49.62Z</time></trkpt><trkpt lat="39.299255581695746" lon="16.289174467658672"><ele>426.66666666666663</ele><time>2026-04-25T12:40:50.62Z</time></trkpt><trkpt lat="39.29926602989549" lon="16.28892684725699"><ele>425.0</ele><time>2026-04-25T12:40:51.62Z</time></trkpt><trkpt lat="39.2992731289285" lon="16.28868676759505"><ele>424.3333333333333</ele><time>2026-04-25T12:40:52.62Z</time></trkpt><trkpt lat="39.299279336081064" lon="16.28844548073164"><ele>423.66666666666663</ele><time>2026-04-25T12:40:53.62Z</time></trkpt><trkpt lat="39.2992841490908" lon="16.288211728199144"><ele>423.0</ele><time>2026-04-25T12:40:54.62Z</time></trkpt><trkpt lat="39.299288054251576" lon="16.287980510087344"><ele>421.66666666666663</ele><time>2026-04-25T12:40:55.62Z</time></trkpt><trkpt lat="39.29929174939662" lon="16.287750361619672"><ele>420.3333333333333</ele><time>2026-04-25T12:40:56.62Z</time></trkpt><trkpt lat="39.29929772001771" lon="16.287524380151215"><ele>419.0</ele><time>2026-04-25T12:40:57.62Z</time></trkpt><trkpt lat="39.299303077889036" lon="16.28730988689571"><ele>417.66666666666663</ele><time>2026-04-25T12:40:58.62Z</time></trkpt><trkpt lat="39.299306082142195" lon="16.28709603077042"><ele>416.33333333333337</ele><time>2026-04-25T12:40:59.62Z</time></trkpt><trkpt lat="39.299305065868914" lon="16.286871836388574"><ele>415.0</ele><time>2026-04-25T12:41:00.62Z</time></trkpt><trkpt lat="39.299300447398984" lon="16.286626522403093"><ele>414.6666666666667</ele><time>2026-04-25T12:41:01.62Z</time></trkpt><trkpt lat="39.299284701326776" lon="16.286380739539666"><ele>414.33333333333337</ele><time>2026-04-25T12:41:02.62Z</time></trkpt><trkpt lat="39.299263617107" lon="16.28614856499408"><ele>414.0</ele><time>2026-04-25T12:41:03.62Z</time></trkpt><trkpt lat="39.29923346559596" lon="16.28592206708968"><ele>414.0</ele><time>2026-04-25T12:41:04.62Z</time></trkpt><trkpt lat="39.2991949451816" lon="16.285699883271395"><ele>414.0</ele><time>2026-04-25T12:41:05.62Z</time></trkpt><trkpt lat="39.29915433193705" lon="16.285478275312265"><ele>414.0</ele><time>2026-04-25T12:41:06.62Z</time></trkpt><trkpt lat="39.299115672011645" lon="16.285255379002205"><ele>412.33333333333337</ele><time>2026-04-25T12:41:07.62Z</time></trkpt><trkpt lat="39.299078486137894" lon="16.285031225726456"><ele>410.6666666666667</ele><time>2026-04-25T12:41:08.62Z</time></trkpt><trkpt lat="39.299040288001265" lon="16.284808910316077"><ele>409.0</ele><time>2026-04-25T12:41:09.62Z</time></trkpt><trkpt lat="39.298998687164556" lon="16.284580690854966"><ele>405.6666666666667</ele><time>2026-04-25T12:41:10.62Z</time></trkpt><trkpt lat="39.29894853107808" lon="16.284352983823126"><ele>402.33333333333337</ele><time>2026-04-25T12:41:11.62Z</time></trkpt><trkpt lat="39.29888645320073" lon="16.284120957259063"><ele>399.0</ele><time>2026-04-25T12:41:12.62Z</time></trkpt><trkpt lat="39.29881008102797" lon="16.283885722581633"><ele>399.0</ele><time>2026-04-25T12:41:13.62Z</time></trkpt><trkpt lat="39.29872489567653" lon="16.283663514769092"><ele>399.0</ele><time>2026-04-25T12:41:14.62Z</time></trkpt><trkpt lat="39.29862815389949" lon="16.28345337433589"><ele>399.0</ele><time>2026-04-25T12:41:15.62Z</time></trkpt><trkpt lat="39.298521950873784" lon="16.283261565334534"><ele>400.0</ele><time>2026-04-25T12:41:16.62Z</time></trkpt><trkpt lat="39.298404316891364" lon="16.283078396645912"><ele>401.0</ele><time>2026-04-25T12:41:17.62Z</time></trkpt><trkpt lat="39.29827351968806" lon="16.282901247031106"><ele>402.0</ele><time>2026-04-25T12:41:18.62Z</time></trkpt><trkpt lat="39.29812938010734" lon="16.282739878838917"><ele>400.33333333333337</ele><time>2026-04-25T12:41:19.62Z</time></trkpt><trkpt lat="39.297978521408155" lon="16.28258213085"><ele>398.6666666666667</ele><time>2026-04-25T12:41:20.62Z</time></trkpt><trkpt lat="39.297826079778346" lon="16.282443829141307"><ele>397.0</ele><time>2026-04-25T12:41:21.62Z</time></trkpt><trkpt lat="39.297671422817515" lon="16.282315376519712"><ele>398.33333333333337</ele><time>2026-04-25T12:41:22.62Z</time></trkpt><trkpt lat="39.2975065698936" lon="16.282188130765345"><ele>399.66666666666663</ele><time>2026-04-25T12:41:23.62Z</time></trkpt><trkpt lat="39.29734708351583" lon="16.2820654266145"><ele>401.0</ele><time>2026-04-25T12:41:24.62Z</time></trkpt><trkpt lat="39.2971946767528" lon="16.28194299564022"><ele>401.0</ele><time>2026-04-25T12:41:25.62Z</time></trkpt><trkpt lat="39.29704362092441" lon="16.281821155163435"><ele>401.0</ele><time>2026-04-25T12:41:26.62Z</time></trkpt><trkpt lat="39.29689053970024" lon="16.281697902278662"><ele>401.0</ele><time>2026-04-25T12:41:27.62Z</time></trkpt><trkpt lat="39.296738169191386" lon="16.281568810794038"><ele>402.3333333333333</ele><time>2026-04-25T12:41:28.62Z</time></trkpt><trkpt lat="39.296589777184785" lon="16.281427212887685"><ele>403.66666666666663</ele><time>2026-04-25T12:41:29.62Z</time></trkpt><trkpt lat="39.296452923565546" lon="16.281274938704087"><ele>405.0</ele><time>2026-04-25T12:41:30.62Z</time></trkpt><trkpt lat="39.29632884608667" lon="16.281114061019647"><ele>405.0</ele><time>2026-04-25T12:41:31.62Z</time></trkpt><trkpt lat="39.29622499185681" lon="16.280972288893803"><ele>405.0</ele><time>2026-04-25T12:41:32.619Z</time></trkpt><trkpt lat="39.296128435157144" lon="16.28083003231008"><ele>405.0</ele><time>2026-04-25T12:41:33.619Z</time></trkpt><trkpt lat="39.29601403575755" lon="16.2806846109339"><ele>401.33333333333337</ele><time>2026-04-25T12:41:34.619Z</time></trkpt><trkpt lat="39.295896190328804" lon="16.280536578492544"><ele>397.6666666666667</ele><time>2026-04-25T12:41:35.619Z</time></trkpt><trkpt lat="39.29577581970937" lon="16.280386955903634"><ele>394.0</ele><time>2026-04-25T12:41:36.619Z</time></trkpt><trkpt lat="39.29580306264201" lon="16.28011991870367"><ele>394.0</ele><time>2026-04-25T12:41:37.619Z</time></trkpt><trkpt lat="39.29574032427221" lon="16.279945666918444"><ele>394.0</ele><time>2026-04-25T12:41:38.619Z</time></trkpt><trkpt lat="39.29569427889088" lon="16.27980003238869"><ele>394.0</ele><time>2026-04-25T12:41:39.62Z</time></trkpt><trkpt lat="39.29564454623953" lon="16.27961792753061"><ele>394.0</ele><time>2026-04-25T12:41:40.695Z</time></trkpt><trkpt lat="39.295587649997756" lon="16.279438532374357"><ele>381.33333333333337</ele><time>2026-04-25T12:41:41.688Z</time></trkpt><trkpt lat="39.29554226348983" lon="16.279297786873325"><ele>368.6666666666667</ele><time>2026-04-25T12:41:42.664Z</time></trkpt><trkpt lat="39.295492618615285" lon="16.27914043214038"><ele>356.0</ele><time>2026-04-25T12:41:43.656Z</time></trkpt><trkpt lat="39.29538617040683" lon="16.277237480022325"><ele>351.0</ele><time>2026-04-25T12:41:50.62Z</time></trkpt><trkpt lat="39.29539648245268" lon="16.277014368753196"><ele>346.0</ele><time>2026-04-25T12:41:51.62Z</time></trkpt><trkpt lat="39.29555512888762" lon="16.27688573091714"><ele>341.0</ele><time>2026-04-25T12:41:52.62Z</time></trkpt><trkpt lat="39.29556351970205" lon="16.276649781694612"><ele>341.0</ele><time>2026-04-25T12:41:53.62Z</time></trkpt><trkpt lat="39.29552646678091" lon="16.276401843749102"><ele>341.0</ele><time>2026-04-25T12:41:54.62Z</time></trkpt><trkpt lat="39.29549344895649" lon="16.276186600320397"><ele>341.0</ele><time>2026-04-25T12:41:55.62Z</time></trkpt><trkpt lat="39.29545609160716" lon="16.275958631186192"><ele>341.0</ele><time>2026-04-25T12:41:56.62Z</time></trkpt><trkpt lat="39.295404682648474" lon="16.27574368525046"><ele>341.0</ele><time>2026-04-25T12:41:57.62Z</time></trkpt><trkpt lat="39.295351408620405" lon="16.275529911191864"><ele>341.0</ele><time>2026-04-25T12:41:58.62Z</time></trkpt><trkpt lat="39.29528988930895" lon="16.27530518398186"><ele>342.0</ele><time>2026-04-25T12:41:59.62Z</time></trkpt><trkpt lat="39.2952310841127" lon="16.27508036428596"><ele>343.0</ele><time>2026-04-25T12:42:00.62Z</time></trkpt><trkpt lat="39.29517048667454" lon="16.27485946353355"><ele>344.0</ele><time>2026-04-25T12:42:01.62Z</time></trkpt><trkpt lat="39.295111358617966" lon="16.274643413554674"><ele>344.0</ele><time>2026-04-25T12:42:02.62Z</time></trkpt><trkpt lat="39.29505396963569" lon="16.274430617697174"><ele>344.0</ele><time>2026-04-25T12:42:03.62Z</time></trkpt><trkpt lat="39.29499410870108" lon="16.274204491787312"><ele>344.0</ele><time>2026-04-25T12:42:04.62Z</time></trkpt><trkpt lat="39.29493168677639" lon="16.273975602206225"><ele>341.0</ele><time>2026-04-25T12:42:05.62Z</time></trkpt><trkpt lat="39.294872620318834" lon="16.273753878782742"><ele>338.0</ele><time>2026-04-25T12:42:06.62Z</time></trkpt><trkpt lat="39.29481456095793" lon="16.273545127975805"><ele>335.0</ele><time>2026-04-25T12:42:07.62Z</time></trkpt><trkpt lat="39.2947565221009" lon="16.27332965650534"><ele>335.6666666666667</ele><time>2026-04-25T12:42:08.62Z</time></trkpt><trkpt lat="39.294718252278734" lon="16.273130158081145"><ele>336.3333333333333</ele><time>2026-04-25T12:42:09.62Z</time></trkpt><trkpt lat="39.29469446526404" lon="16.272912054318752"><ele>337.0</ele><time>2026-04-25T12:42:10.62Z</time></trkpt><trkpt lat="39.29468883938016" lon="16.272684413163358"><ele>337.0</ele><time>2026-04-25T12:42:11.62Z</time></trkpt><trkpt lat="39.29470143720521" lon="16.272443706352192"><ele>337.0</ele><time>2026-04-25T12:42:12.62Z</time></trkpt><trkpt lat="39.29473106363841" lon="16.272201344606515"><ele>337.0</ele><time>2026-04-25T12:42:13.62Z</time></trkpt><trkpt lat="39.29477853411401" lon="16.271972548503808"><ele>331.66666666666663</ele><time>2026-04-25T12:42:14.62Z</time></trkpt><trkpt lat="39.29486055958171" lon="16.271767057190335"><ele>326.3333333333333</ele><time>2026-04-25T12:42:15.62Z</time></trkpt><trkpt lat="39.29494295246953" lon="16.27155901974045"><ele>321.0</ele><time>2026-04-25T12:42:16.62Z</time></trkpt><trkpt lat="39.29504336814827" lon="16.271363345467883"><ele>321.0</ele><time>2026-04-25T12:42:17.62Z</time></trkpt><trkpt lat="39.295141086687806" lon="16.27117729506465"><ele>321.0</ele><time>2026-04-25T12:42:18.62Z</time></trkpt><trkpt lat="39.29523494337307" lon="16.2709839881956"><ele>321.0</ele><time>2026-04-25T12:42:19.62Z</time></trkpt><trkpt lat="39.29534299233944" lon="16.270797954200116"><ele>321.0</ele><time>2026-04-25T12:42:20.62Z</time></trkpt><trkpt lat="39.29545096784118" lon="16.270595088922104"><ele>321.0</ele><time>2026-04-25T12:42:21.62Z</time></trkpt><trkpt lat="39.29556012619938" lon="16.270388718626577"><ele>321.0</ele><time>2026-04-25T12:42:22.62Z</time></trkpt><trkpt lat="39.295672472947366" lon="16.270179606556002"><ele>321.0</ele><time>2026-04-25T12:42:23.62Z</time></trkpt><trkpt lat="39.2957859366252" lon="16.26997311344271"><ele>321.0</ele><time>2026-04-25T12:42:24.62Z</time></trkpt><trkpt lat="39.295899278947836" lon="16.2697761414352"><ele>321.0</ele><time>2026-04-25T12:42:25.62Z</time></trkpt><trkpt lat="39.29600296928937" lon="16.26959280072346"><ele>318.0</ele><time>2026-04-25T12:42:26.62Z</time></trkpt><trkpt lat="39.29610599460434" lon="16.269397933174787"><ele>315.0</ele><time>2026-04-25T12:42:27.62Z</time></trkpt><trkpt lat="39.29620310314652" lon="16.269207679759344"><ele>312.0</ele><time>2026-04-25T12:42:28.62Z</time></trkpt><trkpt lat="39.29629229960287" lon="16.269017926116433"><ele>308.6666666666667</ele><time>2026-04-25T12:42:29.62Z</time></trkpt><trkpt lat="39.296373582869016" lon="16.26882299827209"><ele>305.33333333333337</ele><time>2026-04-25T12:42:30.62Z</time></trkpt><trkpt lat="39.29643610004818" lon="16.268607354800885"><ele>302.0</ele><time>2026-04-25T12:42:31.62Z</time></trkpt><trkpt lat="39.29647828886832" lon="16.2683784591469"><ele>309.33333333333337</ele><time>2026-04-25T12:42:32.62Z</time></trkpt><trkpt lat="39.29650039998586" lon="16.26813825330778"><ele>316.6666666666667</ele><time>2026-04-25T12:42:33.62Z</time></trkpt><trkpt lat="39.29650284894529" lon="16.26789534117926"><ele>324.0</ele><time>2026-04-25T12:42:34.62Z</time></trkpt><trkpt lat="39.29648591122212" lon="16.26764841863898"><ele>324.0</ele><time>2026-04-25T12:42:35.62Z</time></trkpt><trkpt lat="39.29645005237601" lon="16.26740724411527"><ele>324.0</ele><time>2026-04-25T12:42:36.62Z</time></trkpt><trkpt lat="39.296394579996" lon="16.267179534473634"><ele>324.0</ele><time>2026-04-25T12:42:37.62Z</time></trkpt><trkpt lat="39.29631529424413" lon="16.266963262684435"><ele>324.0</ele><time>2026-04-25T12:42:38.62Z</time></trkpt><trkpt lat="39.296219971210824" lon="16.26677226572844"><ele>324.0</ele><time>2026-04-25T12:42:39.62Z</time></trkpt><trkpt lat="39.29610729570156" lon="16.26658879158833"><ele>324.0</ele><time>2026-04-25T12:42:40.62Z</time></trkpt><trkpt lat="39.29597979441735" lon="16.26642612614081"><ele>324.0</ele><time>2026-04-25T12:42:41.62Z</time></trkpt><trkpt lat="39.29583615389952" lon="16.266273624891156"><ele>324.0</ele><time>2026-04-25T12:42:42.62Z</time></trkpt><trkpt lat="39.295679599263124" lon="16.266137971795136"><ele>324.0</ele><time>2026-04-25T12:42:43.62Z</time></trkpt><trkpt lat="39.295512019303686" lon="16.26602095474208"><ele>317.3333333333333</ele><time>2026-04-25T12:42:44.62Z</time></trkpt><trkpt lat="39.295342975709644" lon="16.26592289504219"><ele>310.66666666666663</ele><time>2026-04-25T12:42:45.62Z</time></trkpt><trkpt lat="39.29517445855087" lon="16.26584772500109"><ele>304.0</ele><time>2026-04-25T12:42:46.62Z</time></trkpt><trkpt lat="39.29500540466869" lon="16.265765290728538"><ele>304.0</ele><time>2026-04-25T12:42:47.62Z</time></trkpt><trkpt lat="39.294841814487874" lon="16.26567655715927"><ele>304.0</ele><time>2026-04-25T12:42:48.62Z</time></trkpt><trkpt lat="39.29467224531363" lon="16.265586114472157"><ele>304.0</ele><time>2026-04-25T12:42:49.62Z</time></trkpt><trkpt lat="39.29450076684696" lon="16.26549572442735"><ele>304.66666666666663</ele><time>2026-04-25T12:42:50.62Z</time></trkpt><trkpt lat="39.2943192465691" lon="16.26540599967631"><ele>305.3333333333333</ele><time>2026-04-25T12:42:51.62Z</time></trkpt><trkpt lat="39.29413393508768" lon="16.265308870311884"><ele>306.0</ele><time>2026-04-25T12:42:52.62Z</time></trkpt><trkpt lat="39.29394973803741" lon="16.265218172650897"><ele>300.6666666666667</ele><time>2026-04-25T12:42:53.62Z</time></trkpt><trkpt lat="39.29377916086947" lon="16.26512595305289"><ele>295.33333333333337</ele><time>2026-04-25T12:42:54.62Z</time></trkpt><trkpt lat="39.29360456767637" lon="16.265036791359464"><ele>290.0</ele><time>2026-04-25T12:42:55.62Z</time></trkpt><trkpt lat="39.29343331627796" lon="16.26494759733067"><ele>290.0</ele><time>2026-04-25T12:42:56.62Z</time></trkpt><trkpt lat="39.29326345162411" lon="16.2648582206605"><ele>290.0</ele><time>2026-04-25T12:42:57.62Z</time></trkpt><trkpt lat="39.29309817738209" lon="16.264771142894393"><ele>290.0</ele><time>2026-04-25T12:42:58.62Z</time></trkpt><trkpt lat="39.2929442924132" lon="16.264690908143205"><ele>292.33333333333337</ele><time>2026-04-25T12:42:59.62Z</time></trkpt><trkpt lat="39.292799028274224" lon="16.26461120666054"><ele>294.6666666666667</ele><time>2026-04-25T12:43:00.62Z</time></trkpt><trkpt lat="39.29266486523966" lon="16.26450974564452"><ele>297.0</ele><time>2026-04-25T12:43:01.62Z</time></trkpt><trkpt lat="39.29255634969599" lon="16.264375836324877"><ele>297.0</ele><time>2026-04-25T12:43:02.62Z</time></trkpt><trkpt lat="39.29248089429205" lon="16.26419279398664"><ele>297.0</ele><time>2026-04-25T12:43:03.619Z</time></trkpt><trkpt lat="39.29240796286477" lon="16.264005679616304"><ele>297.0</ele><time>2026-04-25T12:43:04.619Z</time></trkpt><trkpt lat="39.29237244732778" lon="16.26380929115989"><ele>297.5</ele><time>2026-04-25T12:43:05.619Z</time></trkpt><trkpt lat="39.29236309430379" lon="16.26361761269936"><ele>298.0</ele><time>2026-04-25T12:43:06.619Z</time></trkpt><trkpt lat="39.2923796458155" lon="16.263430463845822"><ele>298.5</ele><time>2026-04-25T12:43:07.619Z</time></trkpt><trkpt lat="39.29241978823344" lon="16.263247011121102"><ele>299.0</ele><time>2026-04-25T12:43:08.619Z</time></trkpt><trkpt lat="39.29246185496489" lon="16.263055341886773"><ele>294.33333333333337</ele><time>2026-04-25T12:43:09.619Z</time></trkpt><trkpt lat="39.29253151291015" lon="16.262879072979732"><ele>289.6666666666667</ele><time>2026-04-25T12:43:10.619Z</time></trkpt><trkpt lat="39.29260634922738" lon="16.262704306167347"><ele>285.0</ele><time>2026-04-25T12:43:11.619Z</time></trkpt><trkpt lat="39.29271089519764" lon="16.262570529454386"><ele>285.0</ele><time>2026-04-25T12:43:12.619Z</time></trkpt><trkpt lat="39.292814534765995" lon="16.26245509189145"><ele>285.0</ele><time>2026-04-25T12:43:13.619Z</time></trkpt><trkpt lat="39.292929989997404" lon="16.26235325181775"><ele>285.0</ele><time>2026-04-25T12:43:14.619Z</time></trkpt><trkpt lat="39.2930653547319" lon="16.262281325263448"><ele>285.0</ele><time>2026-04-25T12:43:15.619Z</time></trkpt><trkpt lat="39.293210960746634" lon="16.26222867077915"><ele>278.6666666666667</ele><time>2026-04-25T12:43:16.619Z</time></trkpt><trkpt lat="39.29336991510492" lon="16.262208928422506"><ele>272.33333333333337</ele><time>2026-04-25T12:43:17.619Z</time></trkpt><trkpt lat="39.29353362520314" lon="16.26222432899103"><ele>266.0</ele><time>2026-04-25T12:43:18.619Z</time></trkpt><trkpt lat="39.29369304864182" lon="16.26227217126375"><ele>268.33333333333337</ele><time>2026-04-25T12:43:19.619Z</time></trkpt><trkpt lat="39.29384649369142" lon="16.26235675565627"><ele>270.6666666666667</ele><time>2026-04-25T12:43:20.619Z</time></trkpt><trkpt lat="39.29399545260822" lon="16.26244277680495"><ele>273.0</ele><time>2026-04-25T12:43:21.619Z</time></trkpt><trkpt lat="39.294138013877145" lon="16.262515281461578"><ele>273.0</ele><time>2026-04-25T12:43:22.619Z</time></trkpt><trkpt lat="39.29427480365528" lon="16.262601043395453"><ele>273.0</ele><time>2026-04-25T12:43:23.619Z</time></trkpt><trkpt lat="39.294412399961175" lon="16.26268834681352"><ele>273.0</ele><time>2026-04-25T12:43:24.619Z</time></trkpt><trkpt lat="39.294537487517665" lon="16.26278627006689"><ele>273.0</ele><time>2026-04-25T12:43:25.619Z</time></trkpt><trkpt lat="39.2946558304573" lon="16.262905000112813"><ele>273.0</ele><time>2026-04-25T12:43:26.619Z</time></trkpt><trkpt lat="39.29477466675461" lon="16.263046821956618"><ele>273.0</ele><time>2026-04-25T12:43:27.619Z</time></trkpt><trkpt lat="39.294895215507445" lon="16.2631970378257"><ele>273.6666666666667</ele><time>2026-04-25T12:43:28.619Z</time></trkpt><trkpt lat="39.295009783662366" lon="16.263332448327883"><ele>274.33333333333337</ele><time>2026-04-25T12:43:29.619Z</time></trkpt><trkpt lat="39.29512857050403" lon="16.26345625826972"><ele>275.0</ele><time>2026-04-25T12:43:30.619Z</time></trkpt><trkpt lat="39.29525684826161" lon="16.263566090438008"><ele>275.0</ele><time>2026-04-25T12:43:31.619Z</time></trkpt><trkpt lat="39.29538857940648" lon="16.26365704796786"><ele>275.0</ele><time>2026-04-25T12:43:32.619Z</time></trkpt><trkpt lat="39.295527625453786" lon="16.26373921188309"><ele>275.0</ele><time>2026-04-25T12:43:33.619Z</time></trkpt><trkpt lat="39.29567992969442" lon="16.263802581372225"><ele>267.6666666666667</ele><time>2026-04-25T12:43:34.619Z</time></trkpt><trkpt lat="39.29585776246076" lon="16.26385068898731"><ele>260.3333333333333</ele><time>2026-04-25T12:43:35.619Z</time></trkpt><trkpt lat="39.29604361284381" lon="16.263887377228574"><ele>253.0</ele><time>2026-04-25T12:43:36.619Z</time></trkpt><trkpt lat="39.29621341735505" lon="16.263923851053217"><ele>259.0</ele><time>2026-04-25T12:43:37.619Z</time></trkpt><trkpt lat="39.296376370112775" lon="16.263961289031062"><ele>265.0</ele><time>2026-04-25T12:43:38.619Z</time></trkpt><trkpt lat="39.29654760372145" lon="16.264005793322998"><ele>271.0</ele><time>2026-04-25T12:43:39.619Z</time></trkpt><trkpt lat="39.296718980620376" lon="16.264065344877157"><ele>271.0</ele><time>2026-04-25T12:43:40.619Z</time></trkpt><trkpt lat="39.29689233482498" lon="16.264145125670098"><ele>271.0</ele><time>2026-04-25T12:43:41.619Z</time></trkpt><trkpt lat="39.29706178115201" lon="16.264248197400182"><ele>271.0</ele><time>2026-04-25T12:43:42.619Z</time></trkpt><trkpt lat="39.29721800526731" lon="16.2643615634245"><ele>261.3333333333333</ele><time>2026-04-25T12:43:43.619Z</time></trkpt><trkpt lat="39.297392749981285" lon="16.264481009611536"><ele>251.66666666666669</ele><time>2026-04-25T12:43:44.619Z</time></trkpt><trkpt lat="39.29757972614707" lon="16.264609573906142"><ele>242.0</ele><time>2026-04-25T12:43:45.62Z</time></trkpt><trkpt lat="39.2977813438032" lon="16.264734562044275"><ele>252.0</ele><time>2026-04-25T12:43:46.62Z</time></trkpt><trkpt lat="39.29801440532048" lon="16.264841458139934"><ele>262.0</ele><time>2026-04-25T12:43:47.62Z</time></trkpt><trkpt lat="39.2982652843729" lon="16.264918759230262"><ele>262.0</ele><time>2026-04-25T12:43:48.62Z</time></trkpt><trkpt lat="39.29850443252744" lon="16.264954629783308"><ele>262.0</ele><time>2026-04-25T12:43:49.62Z</time></trkpt><trkpt lat="39.298732223091925" lon="16.264953779092362"><ele>260.3333333333333</ele><time>2026-04-25T12:43:50.62Z</time></trkpt><trkpt lat="39.29895181950226" lon="16.264938248863203"><ele>258.6666666666667</ele><time>2026-04-25T12:43:51.62Z</time></trkpt><trkpt lat="39.299165574092534" lon="16.264924109589494"><ele>257.0</ele><time>2026-04-25T12:43:52.62Z</time></trkpt><trkpt lat="39.29937497284761" lon="16.2649215373386"><ele>257.0</ele><time>2026-04-25T12:43:53.62Z</time></trkpt><trkpt lat="39.29957929181197" lon="16.26494277674273"><ele>257.0</ele><time>2026-04-25T12:43:54.62Z</time></trkpt><trkpt lat="39.29977710633914" lon="16.264985148560225"><ele>257.0</ele><time>2026-04-25T12:43:55.62Z</time></trkpt><trkpt lat="39.29996833819117" lon="16.265043650543586"><ele>252.66666666666669</ele><time>2026-04-25T12:43:56.62Z</time></trkpt><trkpt lat="39.30015959320357" lon="16.26511510347851"><ele>248.33333333333331</ele><time>2026-04-25T12:43:57.62Z</time></trkpt><trkpt lat="39.30035208474915" lon="16.265194572878144"><ele>244.0</ele><time>2026-04-25T12:43:58.62Z</time></trkpt><trkpt lat="39.3005486836988" lon="16.265272570063928"><ele>239.33333333333331</ele><time>2026-04-25T12:43:59.62Z</time></trkpt><trkpt lat="39.300746918996495" lon="16.265341920506597"><ele>234.66666666666669</ele><time>2026-04-25T12:44:00.62Z</time></trkpt><trkpt lat="39.30094285227231" lon="16.265388296687433"><ele>230.0</ele><time>2026-04-25T12:44:01.62Z</time></trkpt><trkpt lat="39.30113685037435" lon="16.26539715318557"><ele>230.0</ele><time>2026-04-25T12:44:02.62Z</time></trkpt><trkpt lat="39.30132918858438" lon="16.26537969624284"><ele>230.0</ele><time>2026-04-25T12:44:03.62Z</time></trkpt><trkpt lat="39.30152074626104" lon="16.26534165460122"><ele>230.0</ele><time>2026-04-25T12:44:04.62Z</time></trkpt><trkpt lat="39.301709224426915" lon="16.26528059438341"><ele>229.0</ele><time>2026-04-25T12:44:05.62Z</time></trkpt><trkpt lat="39.3018856674634" lon="16.265188656144005"><ele>228.0</ele><time>2026-04-25T12:44:06.62Z</time></trkpt><trkpt lat="39.302046284522206" lon="16.265083274253612"><ele>227.0</ele><time>2026-04-25T12:44:07.62Z</time></trkpt><trkpt lat="39.30220401026066" lon="16.26496711846481"><ele>226.0</ele><time>2026-04-25T12:44:08.62Z</time></trkpt><trkpt lat="39.3023464695635" lon="16.264831866542345"><ele>225.0</ele><time>2026-04-25T12:44:09.62Z</time></trkpt><trkpt lat="39.302475890385494" lon="16.26468365383654"><ele>224.0</ele><time>2026-04-25T12:44:10.62Z</time></trkpt><trkpt lat="39.30259705328824" lon="16.2645369281926"><ele>222.33333333333334</ele><time>2026-04-25T12:44:11.62Z</time></trkpt><trkpt lat="39.3027216782921" lon="16.26439897864846"><ele>220.66666666666669</ele><time>2026-04-25T12:44:12.62Z</time></trkpt><trkpt lat="39.3028562528662" lon="16.26425192914553"><ele>219.0</ele><time>2026-04-25T12:44:13.62Z</time></trkpt><trkpt lat="39.30300034776582" lon="16.26408741433685"><ele>218.66666666666669</ele><time>2026-04-25T12:44:14.62Z</time></trkpt><trkpt lat="39.30313230700376" lon="16.263931848850124"><ele>218.33333333333334</ele><time>2026-04-25T12:44:15.62Z</time></trkpt><trkpt lat="39.30332157687244" lon="16.263756011934497"><ele>218.0</ele><time>2026-04-25T12:44:16.62Z</time></trkpt><trkpt lat="39.30346533028234" lon="16.2636021333949"><ele>218.0</ele><time>2026-04-25T12:44:17.62Z</time></trkpt><trkpt lat="39.30360633562294" lon="16.263458534610624"><ele>218.0</ele><time>2026-04-25T12:44:18.62Z</time></trkpt><trkpt lat="39.30377258886668" lon="16.263379473968143"><ele>218.0</ele><time>2026-04-25T12:44:19.62Z</time></trkpt><trkpt lat="39.30394490252638" lon="16.263292825266014"><ele>217.66666666666669</ele><time>2026-04-25T12:44:20.62Z</time></trkpt><trkpt lat="39.304122984392706" lon="16.26323536936807"><ele>217.33333333333331</ele><time>2026-04-25T12:44:21.62Z</time></trkpt><trkpt lat="39.30430489247359" lon="16.263206453560045"><ele>217.0</ele><time>2026-04-25T12:44:22.62Z</time></trkpt><trkpt lat="39.30447958928571" lon="16.263185408630335"><ele>217.0</ele><time>2026-04-25T12:44:23.62Z</time></trkpt><trkpt lat="39.30464210114065" lon="16.26316316159646"><ele>217.0</ele><time>2026-04-25T12:44:24.62Z</time></trkpt><trkpt lat="39.3048045022897" lon="16.26312813408224"><ele>217.0</ele><time>2026-04-25T12:44:25.62Z</time></trkpt><trkpt lat="39.30496338977849" lon="16.2631121511151"><ele>216.0</ele><time>2026-04-25T12:44:26.62Z</time></trkpt><trkpt lat="39.30513375267966" lon="16.263091709796"><ele>215.0</ele><time>2026-04-25T12:44:27.62Z</time></trkpt><trkpt lat="39.30530309757876" lon="16.263067172233285"><ele>214.0</ele><time>2026-04-25T12:44:28.62Z</time></trkpt><trkpt lat="39.305474637129954" lon="16.263040313468927"><ele>213.33333333333331</ele><time>2026-04-25T12:44:29.62Z</time></trkpt><trkpt lat="39.30564167877086" lon="16.26301651235731"><ele>212.66666666666669</ele><time>2026-04-25T12:44:30.62Z</time></trkpt><trkpt lat="39.3058052494485" lon="16.262996235095137"><ele>212.0</ele><time>2026-04-25T12:44:31.62Z</time></trkpt><trkpt lat="39.305973324317385" lon="16.262972360437278"><ele>212.0</ele><time>2026-04-25T12:44:32.619Z</time></trkpt><trkpt lat="39.30613744322329" lon="16.26295158756355"><ele>212.0</ele><time>2026-04-25T12:44:33.619Z</time></trkpt><trkpt lat="39.30629232628889" lon="16.262933887686504"><ele>212.0</ele><time>2026-04-25T12:44:34.619Z</time></trkpt><trkpt lat="39.30644285115757" lon="16.26291492520626"><ele>211.0</ele><time>2026-04-25T12:44:35.619Z</time></trkpt><trkpt lat="39.30659404775171" lon="16.262893481072673"><ele>210.0</ele><time>2026-04-25T12:44:36.619Z</time></trkpt><trkpt lat="39.30676435671479" lon="16.262869497650616"><ele>209.0</ele><time>2026-04-25T12:44:37.619Z</time></trkpt><trkpt lat="39.306955818798286" lon="16.262827151565165"><ele>209.0</ele><time>2026-04-25T12:44:38.619Z</time></trkpt><trkpt lat="39.30716765325305" lon="16.262820120053227"><ele>209.0</ele><time>2026-04-25T12:44:39.619Z</time></trkpt><trkpt lat="39.3073899041054" lon="16.262774511876056"><ele>209.0</ele><time>2026-04-25T12:44:40.619Z</time></trkpt><trkpt lat="39.30762378874326" lon="16.262749721798645"><ele>209.0</ele><time>2026-04-25T12:44:41.619Z</time></trkpt><trkpt lat="39.307864393336345" lon="16.262725421564877"><ele>209.0</ele><time>2026-04-25T12:44:42.619Z</time></trkpt><trkpt lat="39.30808693636401" lon="16.26270431866556"><ele>209.0</ele><time>2026-04-25T12:44:43.619Z</time></trkpt><trkpt lat="39.308292737992886" lon="16.262695622272137"><ele>209.0</ele><time>2026-04-25T12:44:44.619Z</time></trkpt><trkpt lat="39.30848556841123" lon="16.26269707217169"><ele>209.0</ele><time>2026-04-25T12:44:45.619Z</time></trkpt><trkpt lat="39.30867162842144" lon="16.26269491530199"><ele>209.0</ele><time>2026-04-25T12:44:46.619Z</time></trkpt><trkpt lat="39.308850475141085" lon="16.262700735159783"><ele>209.0</ele><time>2026-04-25T12:44:47.619Z</time></trkpt><trkpt lat="39.30901918337527" lon="16.26273639878719"><ele>209.0</ele><time>2026-04-25T12:44:48.619Z</time></trkpt><trkpt lat="39.30918103399318" lon="16.262728463820995"><ele>209.0</ele><time>2026-04-25T12:44:49.619Z</time></trkpt><trkpt lat="39.309338327814764" lon="16.26274159179997"><ele>209.0</ele><time>2026-04-25T12:44:50.619Z</time></trkpt><trkpt lat="39.30949259684707" lon="16.262758540075044"><ele>209.0</ele><time>2026-04-25T12:44:51.619Z</time></trkpt><trkpt lat="39.309637675432214" lon="16.262771062515"><ele>208.5</ele><time>2026-04-25T12:44:52.619Z</time></trkpt><trkpt lat="39.30977964064891" lon="16.262777283721306"><ele>208.0</ele><time>2026-04-25T12:44:53.619Z</time></trkpt><trkpt lat="39.309916924658474" lon="16.262782276094693"><ele>207.5</ele><time>2026-04-25T12:44:54.619Z</time></trkpt><trkpt lat="39.31004988736217" lon="16.262782742734945"><ele>207.0</ele><time>2026-04-25T12:44:55.619Z</time></trkpt><trkpt lat="39.31017755328299" lon="16.26277451698499"><ele>207.0</ele><time>2026-04-25T12:44:56.619Z</time></trkpt><trkpt lat="39.310295373868726" lon="16.262756084252565"><ele>207.0</ele><time>2026-04-25T12:44:57.619Z</time></trkpt><trkpt lat="39.310419810987725" lon="16.26272238390754"><ele>207.0</ele><time>2026-04-25T12:44:58.619Z</time></trkpt><trkpt lat="39.31054738249694" lon="16.262674800891077"><ele>207.0</ele><time>2026-04-25T12:44:59.619Z</time></trkpt><trkpt lat="39.31067669899613" lon="16.26261059756874"><ele>207.33333333333331</ele><time>2026-04-25T12:45:00.619Z</time></trkpt><trkpt lat="39.31080899098544" lon="16.26252809465307"><ele>207.66666666666666</ele><time>2026-04-25T12:45:01.619Z</time></trkpt><trkpt lat="39.31093994976171" lon="16.26243025371371"><ele>208.0</ele><time>2026-04-25T12:45:02.619Z</time></trkpt><trkpt lat="39.31107018509953" lon="16.262311106684354"><ele>207.66666666666666</ele><time>2026-04-25T12:45:03.619Z</time></trkpt><trkpt lat="39.31118745693443" lon="16.26217788246302"><ele>207.33333333333331</ele><time>2026-04-25T12:45:04.619Z</time></trkpt><trkpt lat="39.31130241263429" lon="16.262047410402968"><ele>207.0</ele><time>2026-04-25T12:45:05.619Z</time></trkpt><trkpt lat="39.3114142618214" lon="16.261911243590568"><ele>206.33333333333331</ele><time>2026-04-25T12:45:06.619Z</time></trkpt><trkpt lat="39.31152761265413" lon="16.261776708684593"><ele>205.66666666666666</ele><time>2026-04-25T12:45:07.619Z</time></trkpt><trkpt lat="39.31164240846546" lon="16.261645580901845"><ele>205.0</ele><time>2026-04-25T12:45:08.619Z</time></trkpt><trkpt lat="39.31175289492213" lon="16.261513817408385"><ele>205.66666666666666</ele><time>2026-04-25T12:45:09.619Z</time></trkpt><trkpt lat="39.311865884846064" lon="16.261388633424446"><ele>206.33333333333331</ele><time>2026-04-25T12:45:10.619Z</time></trkpt><trkpt lat="39.311981936772916" lon="16.26125951909053"><ele>207.0</ele><time>2026-04-25T12:45:11.619Z</time></trkpt><trkpt lat="39.312092516254815" lon="16.26112755932215"><ele>207.0</ele><time>2026-04-25T12:45:12.619Z</time></trkpt><trkpt lat="39.312212019823185" lon="16.260993508223404"><ele>207.0</ele><time>2026-04-25T12:45:13.619Z</time></trkpt><trkpt lat="39.31233546003136" lon="16.26085946045778"><ele>207.0</ele><time>2026-04-25T12:45:14.619Z</time></trkpt><trkpt lat="39.312459728987236" lon="16.26072118035315"><ele>206.66666666666669</ele><time>2026-04-25T12:45:15.619Z</time></trkpt><trkpt lat="39.312575472644376" lon="16.26057586129797"><ele>206.33333333333334</ele><time>2026-04-25T12:45:16.619Z</time></trkpt><trkpt lat="39.312697774161634" lon="16.260431613423172"><ele>206.0</ele><time>2026-04-25T12:45:17.619Z</time></trkpt><trkpt lat="39.312825475375135" lon="16.26028196173452"><ele>206.0</ele><time>2026-04-25T12:45:18.619Z</time></trkpt><trkpt lat="39.312957461079634" lon="16.26012902918945"><ele>206.0</ele><time>2026-04-25T12:45:19.619Z</time></trkpt><trkpt lat="39.3130861923915" lon="16.259974295762238"><ele>206.0</ele><time>2026-04-25T12:45:20.619Z</time></trkpt><trkpt lat="39.313226053620426" lon="16.25981780805973"><ele>206.0</ele><time>2026-04-25T12:45:21.619Z</time></trkpt><trkpt lat="39.31337537581844" lon="16.259661413164892"><ele>206.0</ele><time>2026-04-25T12:45:22.619Z</time></trkpt><trkpt lat="39.3135255724424" lon="16.259527578562754"><ele>206.0</ele><time>2026-04-25T12:45:23.619Z</time></trkpt><trkpt lat="39.31367813947133" lon="16.259406449303228"><ele>206.0</ele><time>2026-04-25T12:45:24.619Z</time></trkpt><trkpt lat="39.31382970823892" lon="16.259290672481796"><ele>206.0</ele><time>2026-04-25T12:45:25.619Z</time></trkpt><trkpt lat="39.313981880259895" lon="16.259182526400988"><ele>206.0</ele><time>2026-04-25T12:45:26.619Z</time></trkpt><trkpt lat="39.314122389863044" lon="16.259090649992572"><ele>205.25</ele><time>2026-04-25T12:45:27.619Z</time></trkpt><trkpt lat="39.31425954959512" lon="16.259013454815157"><ele>204.5</ele><time>2026-04-25T12:45:28.619Z</time></trkpt><trkpt lat="39.31438630354968" lon="16.25895494373874"><ele>203.75</ele><time>2026-04-25T12:45:29.619Z</time></trkpt><trkpt lat="39.3145102742282" lon="16.258897164196476"><ele>203.0</ele><time>2026-04-25T12:45:30.619Z</time></trkpt><trkpt lat="39.3146244562021" lon="16.25884005337899"><ele>202.8</ele><time>2026-04-25T12:45:31.619Z</time></trkpt><trkpt lat="39.31473328447982" lon="16.258788110393773"><ele>202.60000000000002</ele><time>2026-04-25T12:45:32.619Z</time></trkpt><trkpt lat="39.31483909870688" lon="16.258743988941415"><ele>202.39999999999998</ele><time>2026-04-25T12:45:33.619Z</time></trkpt><trkpt lat="39.31493300070023" lon="16.258712783409766"><ele>202.2</ele><time>2026-04-25T12:45:34.619Z</time></trkpt><trkpt lat="39.315019980703546" lon="16.2586950212458"><ele>202.0</ele><time>2026-04-25T12:45:35.619Z</time></trkpt><trkpt lat="39.31510423851036" lon="16.25867302646174"><ele>202.0</ele><time>2026-04-25T12:45:36.619Z</time></trkpt><trkpt lat="39.31518849692007" lon="16.258643718101347"><ele>202.0</ele><time>2026-04-25T12:45:37.619Z</time></trkpt><trkpt lat="39.315281001878226" lon="16.25861151608968"><ele>202.0</ele><time>2026-04-25T12:45:38.619Z</time></trkpt><trkpt lat="39.31537486900362" lon="16.25858043635253"><ele>202.0</ele><time>2026-04-25T12:45:39.619Z</time></trkpt><trkpt lat="39.315463887322075" lon="16.25854949878068"><ele>202.0</ele><time>2026-04-25T12:45:40.619Z</time></trkpt><trkpt lat="39.31554575827345" lon="16.25851999506354"><ele>202.16666666666666</ele><time>2026-04-25T12:45:41.619Z</time></trkpt><trkpt lat="39.315618582342324" lon="16.25849399538806"><ele>202.33333333333331</ele><time>2026-04-25T12:45:42.619Z</time></trkpt><trkpt lat="39.31569210079923" lon="16.258476947691225"><ele>202.5</ele><time>2026-04-25T12:45:43.619Z</time></trkpt><trkpt lat="39.31575845569204" lon="16.258470144740574"><ele>202.66666666666669</ele><time>2026-04-25T12:45:44.619Z</time></trkpt><trkpt lat="39.31585517579596" lon="16.25847092053356"><ele>202.83333333333334</ele><time>2026-04-25T12:45:46.619Z</time></trkpt><trkpt lat="39.31591798315534" lon="16.25848091184133"><ele>203.0</ele><time>2026-04-25T12:45:48.619Z</time></trkpt><trkpt lat="39.31599305182382" lon="16.258450193681806"><ele>203.0</ele><time>2026-04-25T12:45:52.619Z</time></trkpt></trkseg></trk></gpx>